<?xml version="1.0" encoding="UTF-8" standalone="no" ?>
<gpx xmlns="http://www.topografix.com/GPX/1/1" xmlns:xsi="http://www.w3.org/2001/XMLSchema-instance" xsi:schemaLocation="http://www.topografix.com/GPX/1/1 http://www.topografix.com/GPX/1/1/gpx.xsd" version="1.1" creator="VisuGPX - https://www.visugpx.com">
  <metadata>
    <name>Loisirs aquatiques</name>
    <desc><![CDATA[Loisirs aquatiques]]></desc>
  </metadata>
  <wpt lat="47.51119" lon="6.77019">
    <ele>375</ele>
    <name><![CDATA[Point de cheminement 1]]></name>
    <desc><![CDATA[]]></desc>
  </wpt>
  <wpt lat="47.49175" lon="6.76489">
    <ele>315</ele>
    <name><![CDATA[Point de cheminement 2]]></name>
    <desc><![CDATA[]]></desc>
  </wpt>
  <wpt lat="47.48227" lon="6.76801">
    <ele>312</ele>
    <name><![CDATA[Point de cheminement 3]]></name>
    <desc><![CDATA[]]></desc>
  </wpt>
  <wpt lat="47.48429" lon="6.81612">
    <ele>313</ele>
    <name><![CDATA[Point de cheminement 4]]></name>
    <desc><![CDATA[]]></desc>
  </wpt>
  <wpt lat="47.47158" lon="6.82196">
    <ele>399</ele>
    <name><![CDATA[Point de cheminement 5]]></name>
    <desc><![CDATA[]]></desc>
  </wpt>
  <wpt lat="47.46012" lon="6.8022">
    <ele>404</ele>
    <name><![CDATA[Point de cheminement 6]]></name>
    <desc><![CDATA[]]></desc>
  </wpt>
  <wpt lat="47.46463" lon="6.78442">
    <ele>400</ele>
    <name><![CDATA[Point de cheminement 7]]></name>
    <desc><![CDATA[]]></desc>
  </wpt>
  <wpt lat="47.47639" lon="6.77339">
    <ele>311</ele>
    <name><![CDATA[Point de cheminement 8]]></name>
    <desc><![CDATA[]]></desc>
  </wpt>
  <wpt lat="47.50922" lon="6.77696">
    <ele>315</ele>
    <name><![CDATA[Point de cheminement 9]]></name>
    <desc><![CDATA[]]></desc>
  </wpt>
  <wpt lat="47.518" lon="6.77477">
    <ele>388</ele>
    <name><![CDATA[Point de cheminement 10]]></name>
    <desc><![CDATA[]]></desc>
  </wpt>
  <trk>
    <name><![CDATA[Rue Antoine Coysevox]]></name>
    <desc><![CDATA[]]></desc>
    <trkseg>
      <trkpt lat="47.51809" lon="6.77492">
        <ele>388</ele>
        <time>2016-02-14T08:10:15.585Z</time>
      </trkpt>
      <trkpt lat="47.51809" lon="6.77493">
        <ele>388</ele>
        <time>2016-02-14T08:10:16.998Z</time>
      </trkpt>
      <trkpt lat="47.51807" lon="6.77478">
        <ele>388</ele>
        <time>2016-02-14T08:10:18.000Z</time>
      </trkpt>
      <trkpt lat="47.51805" lon="6.77473">
        <ele>388</ele>
        <time>2016-02-14T08:21:00.000Z</time>
      </trkpt>
      <trkpt lat="47.51805" lon="6.77472">
        <ele>388</ele>
        <time>2016-02-14T08:21:01.000Z</time>
      </trkpt>
      <trkpt lat="47.51804" lon="6.77478">
        <ele>388</ele>
        <time>2016-02-14T08:21:23.000Z</time>
      </trkpt>
      <trkpt lat="47.51805" lon="6.7748">
        <ele>388</ele>
        <time>2016-02-14T08:21:24.000Z</time>
      </trkpt>
      <trkpt lat="47.51805" lon="6.77487">
        <ele>388</ele>
        <time>2016-02-14T08:21:28.000Z</time>
      </trkpt>
      <trkpt lat="47.51805" lon="6.77488">
        <ele>388</ele>
        <time>2016-02-14T08:21:29.000Z</time>
      </trkpt>
      <trkpt lat="47.51803" lon="6.77492">
        <ele>388</ele>
        <time>2016-02-14T08:21:31.000Z</time>
      </trkpt>
      <trkpt lat="47.518" lon="6.77492">
        <ele>388</ele>
        <time>2016-02-14T08:21:32.000Z</time>
      </trkpt>
      <trkpt lat="47.51797" lon="6.77491">
        <ele>388</ele>
        <time>2016-02-14T08:21:33.000Z</time>
      </trkpt>
      <trkpt lat="47.51794" lon="6.7749">
        <ele>388</ele>
        <time>2016-02-14T08:21:34.000Z</time>
      </trkpt>
      <trkpt lat="47.51791" lon="6.77488">
        <ele>388</ele>
        <time>2016-02-14T08:21:35.000Z</time>
      </trkpt>
      <trkpt lat="47.51788" lon="6.77486">
        <ele>388</ele>
        <time>2016-02-14T08:21:36.000Z</time>
      </trkpt>
      <trkpt lat="47.51785" lon="6.77484">
        <ele>388</ele>
        <time>2016-02-14T08:21:37.000Z</time>
      </trkpt>
      <trkpt lat="47.51783" lon="6.77483">
        <ele>388</ele>
        <time>2016-02-14T08:21:38.000Z</time>
      </trkpt>
      <trkpt lat="47.5178" lon="6.77481">
        <ele>388</ele>
        <time>2016-02-14T08:21:39.000Z</time>
      </trkpt>
      <trkpt lat="47.51776" lon="6.7748">
        <ele>388</ele>
        <time>2016-02-14T08:21:40.000Z</time>
      </trkpt>
      <trkpt lat="47.51773" lon="6.77479">
        <ele>388</ele>
        <time>2016-02-14T08:21:41.000Z</time>
      </trkpt>
      <trkpt lat="47.51769" lon="6.77479">
        <ele>388</ele>
        <time>2016-02-14T08:21:41.999Z</time>
      </trkpt>
      <trkpt lat="47.51764" lon="6.77478">
        <ele>389</ele>
        <time>2016-02-14T08:21:43.000Z</time>
      </trkpt>
      <trkpt lat="47.5176" lon="6.77478">
        <ele>389</ele>
        <time>2016-02-14T08:21:44.000Z</time>
      </trkpt>
      <trkpt lat="47.51757" lon="6.77477">
        <ele>389</ele>
        <time>2016-02-14T08:21:45.000Z</time>
      </trkpt>
      <trkpt lat="47.51753" lon="6.77477">
        <ele>389</ele>
        <time>2016-02-14T08:21:46.000Z</time>
      </trkpt>
      <trkpt lat="47.5175" lon="6.77476">
        <ele>389</ele>
        <time>2016-02-14T08:21:47.000Z</time>
      </trkpt>
      <trkpt lat="47.51747" lon="6.77475">
        <ele>389</ele>
        <time>2016-02-14T08:21:48.000Z</time>
      </trkpt>
      <trkpt lat="47.51744" lon="6.77475">
        <ele>389</ele>
        <time>2016-02-14T08:21:49.000Z</time>
      </trkpt>
      <trkpt lat="47.51741" lon="6.77474">
        <ele>389</ele>
        <time>2016-02-14T08:21:50.000Z</time>
      </trkpt>
      <trkpt lat="47.51738" lon="6.77474">
        <ele>389</ele>
        <time>2016-02-14T08:21:51.000Z</time>
      </trkpt>
      <trkpt lat="47.51735" lon="6.77475">
        <ele>389</ele>
        <time>2016-02-14T08:21:52.000Z</time>
      </trkpt>
      <trkpt lat="47.51732" lon="6.77477">
        <ele>389</ele>
        <time>2016-02-14T08:21:53.000Z</time>
      </trkpt>
      <trkpt lat="47.51729" lon="6.77481">
        <ele>389</ele>
        <time>2016-02-14T08:21:54.000Z</time>
      </trkpt>
      <trkpt lat="47.51727" lon="6.77486">
        <ele>389</ele>
        <time>2016-02-14T08:21:55.000Z</time>
      </trkpt>
      <trkpt lat="47.51724" lon="6.7749">
        <ele>389</ele>
        <time>2016-02-14T08:21:55.999Z</time>
      </trkpt>
      <trkpt lat="47.51723" lon="6.77501">
        <ele>390</ele>
        <time>2016-02-14T08:21:57.000Z</time>
      </trkpt>
      <trkpt lat="47.51723" lon="6.77509">
        <ele>390</ele>
        <time>2016-02-14T08:21:58.000Z</time>
      </trkpt>
      <trkpt lat="47.51723" lon="6.77514">
        <ele>390</ele>
        <time>2016-02-14T08:21:59.000Z</time>
      </trkpt>
      <trkpt lat="47.51722" lon="6.7752">
        <ele>390</ele>
        <time>2016-02-14T08:22:00.000Z</time>
      </trkpt>
      <trkpt lat="47.5172" lon="6.77526">
        <ele>390</ele>
        <time>2016-02-14T08:22:00.999Z</time>
      </trkpt>
      <trkpt lat="47.51718" lon="6.77532">
        <ele>390</ele>
        <time>2016-02-14T08:22:02.000Z</time>
      </trkpt>
      <trkpt lat="47.51717" lon="6.77537">
        <ele>390</ele>
        <time>2016-02-14T08:22:03.000Z</time>
      </trkpt>
      <trkpt lat="47.51715" lon="6.77542">
        <ele>390</ele>
        <time>2016-02-14T08:22:04.000Z</time>
      </trkpt>
      <trkpt lat="47.51711" lon="6.77544">
        <ele>390</ele>
        <time>2016-02-14T08:22:05.000Z</time>
      </trkpt>
      <trkpt lat="47.51708" lon="6.77546">
        <ele>390</ele>
        <time>2016-02-14T08:22:06.000Z</time>
      </trkpt>
      <trkpt lat="47.51704" lon="6.77546">
        <ele>390</ele>
        <time>2016-02-14T08:22:07.000Z</time>
      </trkpt>
      <trkpt lat="47.517" lon="6.77547">
        <ele>390</ele>
        <time>2016-02-14T08:22:08.000Z</time>
      </trkpt>
      <trkpt lat="47.51697" lon="6.77545">
        <ele>390</ele>
        <time>2016-02-14T08:22:09.000Z</time>
      </trkpt>
      <trkpt lat="47.51693" lon="6.77542">
        <ele>390</ele>
        <time>2016-02-14T08:22:10.000Z</time>
      </trkpt>
      <trkpt lat="47.5169" lon="6.77533">
        <ele>390</ele>
        <time>2016-02-14T08:22:11.000Z</time>
      </trkpt>
      <trkpt lat="47.51686" lon="6.77527">
        <ele>390</ele>
        <time>2016-02-14T08:22:12.000Z</time>
      </trkpt>
      <trkpt lat="47.51681" lon="6.77523">
        <ele>390</ele>
        <time>2016-02-14T08:22:13.000Z</time>
      </trkpt>
      <trkpt lat="47.51676" lon="6.77519">
        <ele>390</ele>
        <time>2016-02-14T08:22:14.000Z</time>
      </trkpt>
      <trkpt lat="47.51674" lon="6.77512">
        <ele>389</ele>
        <time>2016-02-14T08:22:15.000Z</time>
      </trkpt>
      <trkpt lat="47.51669" lon="6.77506">
        <ele>389</ele>
        <time>2016-02-14T08:22:16.000Z</time>
      </trkpt>
      <trkpt lat="47.51664" lon="6.77501">
        <ele>389</ele>
        <time>2016-02-14T08:22:17.000Z</time>
      </trkpt>
      <trkpt lat="47.51659" lon="6.77496">
        <ele>388</ele>
        <time>2016-02-14T08:22:18.000Z</time>
      </trkpt>
      <trkpt lat="47.51657" lon="6.7749">
        <ele>388</ele>
        <time>2016-02-14T08:22:19.000Z</time>
      </trkpt>
      <trkpt lat="47.51653" lon="6.77485">
        <ele>387</ele>
        <time>2016-02-14T08:22:20.000Z</time>
      </trkpt>
      <trkpt lat="47.51648" lon="6.77481">
        <ele>387</ele>
        <time>2016-02-14T08:22:21.000Z</time>
      </trkpt>
      <trkpt lat="47.51645" lon="6.77476">
        <ele>387</ele>
        <time>2016-02-14T08:22:22.000Z</time>
      </trkpt>
      <trkpt lat="47.51641" lon="6.77471">
        <ele>386</ele>
        <time>2016-02-14T08:22:23.000Z</time>
      </trkpt>
      <trkpt lat="47.51638" lon="6.77467">
        <ele>386</ele>
        <time>2016-02-14T08:22:24.000Z</time>
      </trkpt>
      <trkpt lat="47.51635" lon="6.77461">
        <ele>386</ele>
        <time>2016-02-14T08:22:25.000Z</time>
      </trkpt>
      <trkpt lat="47.51631" lon="6.77456">
        <ele>386</ele>
        <time>2016-02-14T08:22:25.999Z</time>
      </trkpt>
      <trkpt lat="47.51626" lon="6.7745">
        <ele>386</ele>
        <time>2016-02-14T08:22:27.000Z</time>
      </trkpt>
      <trkpt lat="47.51622" lon="6.77444">
        <ele>385</ele>
        <time>2016-02-14T08:22:28.000Z</time>
      </trkpt>
      <trkpt lat="47.51617" lon="6.77438">
        <ele>385</ele>
        <time>2016-02-14T08:22:29.000Z</time>
      </trkpt>
      <trkpt lat="47.51612" lon="6.77433">
        <ele>385</ele>
        <time>2016-02-14T08:22:29.999Z</time>
      </trkpt>
      <trkpt lat="47.51607" lon="6.77427">
        <ele>385</ele>
        <time>2016-02-14T08:22:31.000Z</time>
      </trkpt>
      <trkpt lat="47.51602" lon="6.77421">
        <ele>384</ele>
        <time>2016-02-14T08:22:32.000Z</time>
      </trkpt>
      <trkpt lat="47.51596" lon="6.77415">
        <ele>383</ele>
        <time>2016-02-14T08:22:33.000Z</time>
      </trkpt>
      <trkpt lat="47.51592" lon="6.7741">
        <ele>383</ele>
        <time>2016-02-14T08:22:34.000Z</time>
      </trkpt>
      <trkpt lat="47.51587" lon="6.77404">
        <ele>383</ele>
        <time>2016-02-14T08:22:35.000Z</time>
      </trkpt>
      <trkpt lat="47.51582" lon="6.77397">
        <ele>382</ele>
        <time>2016-02-14T08:22:36.000Z</time>
      </trkpt>
      <trkpt lat="47.51577" lon="6.77391">
        <ele>381</ele>
        <time>2016-02-14T08:22:37.000Z</time>
      </trkpt>
      <trkpt lat="47.51572" lon="6.77384">
        <ele>381</ele>
        <time>2016-02-14T08:22:38.000Z</time>
      </trkpt>
      <trkpt lat="47.51569" lon="6.77378">
        <ele>381</ele>
        <time>2016-02-14T08:22:39.000Z</time>
      </trkpt>
      <trkpt lat="47.51566" lon="6.77371">
        <ele>381</ele>
        <time>2016-02-14T08:22:40.000Z</time>
      </trkpt>
      <trkpt lat="47.51561" lon="6.77366">
        <ele>381</ele>
        <time>2016-02-14T08:22:41.000Z</time>
      </trkpt>
      <trkpt lat="47.51557" lon="6.7736">
        <ele>381</ele>
        <time>2016-02-14T08:22:42.000Z</time>
      </trkpt>
      <trkpt lat="47.51551" lon="6.77353">
        <ele>380</ele>
        <time>2016-02-14T08:22:43.000Z</time>
      </trkpt>
      <trkpt lat="47.51546" lon="6.77347">
        <ele>380</ele>
        <time>2016-02-14T08:22:43.999Z</time>
      </trkpt>
      <trkpt lat="47.5154" lon="6.77342">
        <ele>380</ele>
        <time>2016-02-14T08:22:45.000Z</time>
      </trkpt>
      <trkpt lat="47.51534" lon="6.77336">
        <ele>380</ele>
        <time>2016-02-14T08:22:46.000Z</time>
      </trkpt>
      <trkpt lat="47.51529" lon="6.77329">
        <ele>379</ele>
        <time>2016-02-14T08:22:47.000Z</time>
      </trkpt>
      <trkpt lat="47.51524" lon="6.77321">
        <ele>378</ele>
        <time>2016-02-14T08:22:48.000Z</time>
      </trkpt>
      <trkpt lat="47.51517" lon="6.77313">
        <ele>378</ele>
        <time>2016-02-14T08:22:49.000Z</time>
      </trkpt>
      <trkpt lat="47.51511" lon="6.77305">
        <ele>378</ele>
        <time>2016-02-14T08:22:50.000Z</time>
      </trkpt>
      <trkpt lat="47.51505" lon="6.77298">
        <ele>378</ele>
        <time>2016-02-14T08:22:50.999Z</time>
      </trkpt>
      <trkpt lat="47.515" lon="6.77288">
        <ele>377</ele>
        <time>2016-02-14T08:22:52.000Z</time>
      </trkpt>
      <trkpt lat="47.51497" lon="6.77278">
        <ele>377</ele>
        <time>2016-02-14T08:22:53.000Z</time>
      </trkpt>
      <trkpt lat="47.51494" lon="6.77267">
        <ele>376</ele>
        <time>2016-02-14T08:22:54.000Z</time>
      </trkpt>
      <trkpt lat="47.51492" lon="6.77256">
        <ele>376</ele>
        <time>2016-02-14T08:22:55.000Z</time>
      </trkpt>
      <trkpt lat="47.5149" lon="6.77244">
        <ele>376</ele>
        <time>2016-02-14T08:22:56.000Z</time>
      </trkpt>
      <trkpt lat="47.51489" lon="6.77232">
        <ele>375</ele>
        <time>2016-02-14T08:22:57.000Z</time>
      </trkpt>
      <trkpt lat="47.51488" lon="6.77221">
        <ele>375</ele>
        <time>2016-02-14T08:22:58.000Z</time>
      </trkpt>
      <trkpt lat="47.51487" lon="6.7721">
        <ele>375</ele>
        <time>2016-02-14T08:22:59.000Z</time>
      </trkpt>
      <trkpt lat="47.51482" lon="6.77202">
        <ele>375</ele>
        <time>2016-02-14T08:23:00.000Z</time>
      </trkpt>
      <trkpt lat="47.51478" lon="6.77197">
        <ele>375</ele>
        <time>2016-02-14T08:23:01.000Z</time>
      </trkpt>
      <trkpt lat="47.51471" lon="6.77194">
        <ele>375</ele>
        <time>2016-02-14T08:23:02.000Z</time>
      </trkpt>
      <trkpt lat="47.51464" lon="6.77194">
        <ele>375</ele>
        <time>2016-02-14T08:23:03.000Z</time>
      </trkpt>
      <trkpt lat="47.51456" lon="6.77197">
        <ele>375</ele>
        <time>2016-02-14T08:23:04.000Z</time>
      </trkpt>
      <trkpt lat="47.51449" lon="6.77202">
        <ele>375</ele>
        <time>2016-02-14T08:23:05.000Z</time>
      </trkpt>
      <trkpt lat="47.51442" lon="6.77207">
        <ele>375</ele>
        <time>2016-02-14T08:23:06.000Z</time>
      </trkpt>
      <trkpt lat="47.51434" lon="6.77211">
        <ele>375</ele>
        <time>2016-02-14T08:23:06.999Z</time>
      </trkpt>
      <trkpt lat="47.51428" lon="6.77214">
        <ele>375</ele>
        <time>2016-02-14T08:23:08.000Z</time>
      </trkpt>
      <trkpt lat="47.5142" lon="6.77217">
        <ele>375</ele>
        <time>2016-02-14T08:23:09.000Z</time>
      </trkpt>
      <trkpt lat="47.51413" lon="6.7722">
        <ele>376</ele>
        <time>2016-02-14T08:23:10.000Z</time>
      </trkpt>
      <trkpt lat="47.51408" lon="6.77224">
        <ele>376</ele>
        <time>2016-02-14T08:23:11.000Z</time>
      </trkpt>
      <trkpt lat="47.51402" lon="6.77227">
        <ele>376</ele>
        <time>2016-02-14T08:23:12.000Z</time>
      </trkpt>
      <trkpt lat="47.51397" lon="6.77231">
        <ele>376</ele>
        <time>2016-02-14T08:23:13.000Z</time>
      </trkpt>
      <trkpt lat="47.51392" lon="6.77234">
        <ele>376</ele>
        <time>2016-02-14T08:23:14.000Z</time>
      </trkpt>
      <trkpt lat="47.51388" lon="6.77238">
        <ele>376</ele>
        <time>2016-02-14T08:23:15.000Z</time>
      </trkpt>
      <trkpt lat="47.51383" lon="6.7724">
        <ele>376</ele>
        <time>2016-02-14T08:23:16.000Z</time>
      </trkpt>
      <trkpt lat="47.51379" lon="6.77243">
        <ele>376</ele>
        <time>2016-02-14T08:23:17.000Z</time>
      </trkpt>
      <trkpt lat="47.51375" lon="6.77246">
        <ele>376</ele>
        <time>2016-02-14T08:23:18.000Z</time>
      </trkpt>
      <trkpt lat="47.5137" lon="6.77246">
        <ele>376</ele>
        <time>2016-02-14T08:23:19.000Z</time>
      </trkpt>
      <trkpt lat="47.51369" lon="6.77249">
        <ele>376</ele>
        <time>2016-02-14T08:23:20.000Z</time>
      </trkpt>
      <trkpt lat="47.51366" lon="6.77254">
        <ele>378</ele>
        <time>2016-02-14T08:23:21.000Z</time>
      </trkpt>
      <trkpt lat="47.51364" lon="6.77258">
        <ele>378</ele>
        <time>2016-02-14T08:23:22.000Z</time>
      </trkpt>
      <trkpt lat="47.5136" lon="6.77262">
        <ele>378</ele>
        <time>2016-02-14T08:23:23.000Z</time>
      </trkpt>
      <trkpt lat="47.51358" lon="6.77265">
        <ele>378</ele>
        <time>2016-02-14T08:23:24.000Z</time>
      </trkpt>
      <trkpt lat="47.51355" lon="6.77267">
        <ele>378</ele>
        <time>2016-02-14T08:23:25.000Z</time>
      </trkpt>
      <trkpt lat="47.51352" lon="6.77268">
        <ele>378</ele>
        <time>2016-02-14T08:23:26.000Z</time>
      </trkpt>
      <trkpt lat="47.51349" lon="6.7727">
        <ele>378</ele>
        <time>2016-02-14T08:23:27.000Z</time>
      </trkpt>
      <trkpt lat="47.51346" lon="6.77271">
        <ele>378</ele>
        <time>2016-02-14T08:23:28.000Z</time>
      </trkpt>
      <trkpt lat="47.51343" lon="6.77274">
        <ele>378</ele>
        <time>2016-02-14T08:23:29.000Z</time>
      </trkpt>
      <trkpt lat="47.51341" lon="6.77275">
        <ele>378</ele>
        <time>2016-02-14T08:23:30.000Z</time>
      </trkpt>
      <trkpt lat="47.51338" lon="6.77276">
        <ele>378</ele>
        <time>2016-02-14T08:23:31.000Z</time>
      </trkpt>
      <trkpt lat="47.51335" lon="6.77277">
        <ele>378</ele>
        <time>2016-02-14T08:23:32.000Z</time>
      </trkpt>
      <trkpt lat="47.51332" lon="6.77277">
        <ele>377</ele>
        <time>2016-02-14T08:23:33.000Z</time>
      </trkpt>
      <trkpt lat="47.51329" lon="6.77276">
        <ele>377</ele>
        <time>2016-02-14T08:23:34.000Z</time>
      </trkpt>
      <trkpt lat="47.51326" lon="6.77276">
        <ele>377</ele>
        <time>2016-02-14T08:23:35.000Z</time>
      </trkpt>
      <trkpt lat="47.51322" lon="6.77276">
        <ele>377</ele>
        <time>2016-02-14T08:23:36.001Z</time>
      </trkpt>
      <trkpt lat="47.51319" lon="6.77275">
        <ele>377</ele>
        <time>2016-02-14T08:23:37.000Z</time>
      </trkpt>
      <trkpt lat="47.51315" lon="6.77273">
        <ele>377</ele>
        <time>2016-02-14T08:23:39.000Z</time>
      </trkpt>
      <trkpt lat="47.51313" lon="6.77272">
        <ele>377</ele>
        <time>2016-02-14T08:23:40.000Z</time>
      </trkpt>
      <trkpt lat="47.51311" lon="6.77271">
        <ele>377</ele>
        <time>2016-02-14T08:23:41.000Z</time>
      </trkpt>
      <trkpt lat="47.51308" lon="6.7727">
        <ele>377</ele>
        <time>2016-02-14T08:23:42.000Z</time>
      </trkpt>
      <trkpt lat="47.51305" lon="6.77269">
        <ele>377</ele>
        <time>2016-02-14T08:23:43.000Z</time>
      </trkpt>
      <trkpt lat="47.51302" lon="6.77268">
        <ele>377</ele>
        <time>2016-02-14T08:23:43.999Z</time>
      </trkpt>
      <trkpt lat="47.51298" lon="6.77266">
        <ele>377</ele>
        <time>2016-02-14T08:23:45.000Z</time>
      </trkpt>
      <trkpt lat="47.51295" lon="6.77264">
        <ele>377</ele>
        <time>2016-02-14T08:23:46.000Z</time>
      </trkpt>
      <trkpt lat="47.51292" lon="6.77262">
        <ele>377</ele>
        <time>2016-02-14T08:23:47.000Z</time>
      </trkpt>
      <trkpt lat="47.51288" lon="6.77261">
        <ele>377</ele>
        <time>2016-02-14T08:23:48.000Z</time>
      </trkpt>
      <trkpt lat="47.51285" lon="6.77259">
        <ele>377</ele>
        <time>2016-02-14T08:23:48.998Z</time>
      </trkpt>
      <trkpt lat="47.51282" lon="6.77257">
        <ele>377</ele>
        <time>2016-02-14T08:23:50.000Z</time>
      </trkpt>
      <trkpt lat="47.51278" lon="6.77255">
        <ele>377</ele>
        <time>2016-02-14T08:23:51.000Z</time>
      </trkpt>
      <trkpt lat="47.51275" lon="6.77252">
        <ele>377</ele>
        <time>2016-02-14T08:23:52.000Z</time>
      </trkpt>
      <trkpt lat="47.51271" lon="6.7725">
        <ele>378</ele>
        <time>2016-02-14T08:23:53.000Z</time>
      </trkpt>
      <trkpt lat="47.51268" lon="6.77246">
        <ele>378</ele>
        <time>2016-02-14T08:23:54.000Z</time>
      </trkpt>
      <trkpt lat="47.51264" lon="6.77243">
        <ele>378</ele>
        <time>2016-02-14T08:23:54.999Z</time>
      </trkpt>
      <trkpt lat="47.51261" lon="6.7724">
        <ele>378</ele>
        <time>2016-02-14T08:23:56.000Z</time>
      </trkpt>
      <trkpt lat="47.51258" lon="6.77236">
        <ele>378</ele>
        <time>2016-02-14T08:23:57.000Z</time>
      </trkpt>
      <trkpt lat="47.51256" lon="6.77232">
        <ele>378</ele>
        <time>2016-02-14T08:23:58.000Z</time>
      </trkpt>
      <trkpt lat="47.51252" lon="6.77223">
        <ele>378</ele>
        <time>2016-02-14T08:23:59.000Z</time>
      </trkpt>
      <trkpt lat="47.51249" lon="6.77217">
        <ele>376</ele>
        <time>2016-02-14T08:24:00.000Z</time>
      </trkpt>
      <trkpt lat="47.51245" lon="6.77212">
        <ele>376</ele>
        <time>2016-02-14T08:24:01.000Z</time>
      </trkpt>
      <trkpt lat="47.51242" lon="6.77206">
        <ele>376</ele>
        <time>2016-02-14T08:24:02.000Z</time>
      </trkpt>
      <trkpt lat="47.51239" lon="6.772">
        <ele>376</ele>
        <time>2016-02-14T08:24:03.000Z</time>
      </trkpt>
      <trkpt lat="47.51236" lon="6.77195">
        <ele>376</ele>
        <time>2016-02-14T08:24:04.000Z</time>
      </trkpt>
      <trkpt lat="47.51233" lon="6.77188">
        <ele>377</ele>
        <time>2016-02-14T08:24:05.000Z</time>
      </trkpt>
      <trkpt lat="47.5123" lon="6.77182">
        <ele>377</ele>
        <time>2016-02-14T08:24:06.001Z</time>
      </trkpt>
      <trkpt lat="47.51227" lon="6.77175">
        <ele>377</ele>
        <time>2016-02-14T08:24:07.000Z</time>
      </trkpt>
      <trkpt lat="47.51223" lon="6.77169">
        <ele>377</ele>
        <time>2016-02-14T08:24:08.000Z</time>
      </trkpt>
      <trkpt lat="47.5122" lon="6.77164">
        <ele>378</ele>
        <time>2016-02-14T08:24:09.000Z</time>
      </trkpt>
      <trkpt lat="47.51217" lon="6.77158">
        <ele>378</ele>
        <time>2016-02-14T08:24:10.000Z</time>
      </trkpt>
      <trkpt lat="47.51214" lon="6.77152">
        <ele>378</ele>
        <time>2016-02-14T08:24:11.000Z</time>
      </trkpt>
      <trkpt lat="47.5121" lon="6.77146">
        <ele>378</ele>
        <time>2016-02-14T08:24:12.000Z</time>
      </trkpt>
      <trkpt lat="47.51206" lon="6.77139">
        <ele>378</ele>
        <time>2016-02-14T08:24:13.000Z</time>
      </trkpt>
      <trkpt lat="47.51201" lon="6.77131">
        <ele>378</ele>
        <time>2016-02-14T08:24:14.000Z</time>
      </trkpt>
      <trkpt lat="47.51197" lon="6.77124">
        <ele>378</ele>
        <time>2016-02-14T08:24:15.000Z</time>
      </trkpt>
      <trkpt lat="47.51194" lon="6.77116">
        <ele>378</ele>
        <time>2016-02-14T08:24:16.000Z</time>
      </trkpt>
      <trkpt lat="47.5119" lon="6.77108">
        <ele>378</ele>
        <time>2016-02-14T08:24:17.000Z</time>
      </trkpt>
      <trkpt lat="47.51186" lon="6.771">
        <ele>378</ele>
        <time>2016-02-14T08:24:18.000Z</time>
      </trkpt>
      <trkpt lat="47.51181" lon="6.77092">
        <ele>378</ele>
        <time>2016-02-14T08:24:19.000Z</time>
      </trkpt>
      <trkpt lat="47.51176" lon="6.77084">
        <ele>378</ele>
        <time>2016-02-14T08:24:20.000Z</time>
      </trkpt>
      <trkpt lat="47.51172" lon="6.77076">
        <ele>377</ele>
        <time>2016-02-14T08:24:21.000Z</time>
      </trkpt>
      <trkpt lat="47.51167" lon="6.77069">
        <ele>377</ele>
        <time>2016-02-14T08:24:22.000Z</time>
      </trkpt>
      <trkpt lat="47.51161" lon="6.77062">
        <ele>376</ele>
        <time>2016-02-14T08:24:23.000Z</time>
      </trkpt>
      <trkpt lat="47.51156" lon="6.77056">
        <ele>376</ele>
        <time>2016-02-14T08:24:24.000Z</time>
      </trkpt>
      <trkpt lat="47.51151" lon="6.7705">
        <ele>376</ele>
        <time>2016-02-14T08:24:25.000Z</time>
      </trkpt>
      <trkpt lat="47.51146" lon="6.77045">
        <ele>376</ele>
        <time>2016-02-14T08:24:26.000Z</time>
      </trkpt>
      <trkpt lat="47.51141" lon="6.77039">
        <ele>375</ele>
        <time>2016-02-14T08:24:27.000Z</time>
      </trkpt>
      <trkpt lat="47.51134" lon="6.77033">
        <ele>375</ele>
        <time>2016-02-14T08:24:28.000Z</time>
      </trkpt>
      <trkpt lat="47.51128" lon="6.77028">
        <ele>375</ele>
        <time>2016-02-14T08:24:28.999Z</time>
      </trkpt>
      <trkpt lat="47.51124" lon="6.77023">
        <ele>375</ele>
        <time>2016-02-14T08:24:30.001Z</time>
      </trkpt>
      <trkpt lat="47.51119" lon="6.77019">
        <ele>375</ele>
        <time>2016-02-14T08:24:31.001Z</time>
      </trkpt>
      <trkpt lat="47.51115" lon="6.77016">
        <ele>375</ele>
        <time>2016-02-14T08:24:32.000Z</time>
      </trkpt>
      <trkpt lat="47.5111" lon="6.77013">
        <ele>375</ele>
        <time>2016-02-14T08:24:33.000Z</time>
      </trkpt>
      <trkpt lat="47.51105" lon="6.7701">
        <ele>375</ele>
        <time>2016-02-14T08:24:34.000Z</time>
      </trkpt>
      <trkpt lat="47.51099" lon="6.77008">
        <ele>375</ele>
        <time>2016-02-14T08:24:35.000Z</time>
      </trkpt>
      <trkpt lat="47.51094" lon="6.77003">
        <ele>375</ele>
        <time>2016-02-14T08:24:36.000Z</time>
      </trkpt>
      <trkpt lat="47.51086" lon="6.77001">
        <ele>375</ele>
        <time>2016-02-14T08:24:37.000Z</time>
      </trkpt>
      <trkpt lat="47.51081" lon="6.76993">
        <ele>375</ele>
        <time>2016-02-14T08:24:38.000Z</time>
      </trkpt>
      <trkpt lat="47.51075" lon="6.76988">
        <ele>375</ele>
        <time>2016-02-14T08:24:39.000Z</time>
      </trkpt>
      <trkpt lat="47.5107" lon="6.76982">
        <ele>375</ele>
        <time>2016-02-14T08:24:40.000Z</time>
      </trkpt>
      <trkpt lat="47.51065" lon="6.76974">
        <ele>375</ele>
        <time>2016-02-14T08:24:41.000Z</time>
      </trkpt>
      <trkpt lat="47.51059" lon="6.76969">
        <ele>375</ele>
        <time>2016-02-14T08:24:42.000Z</time>
      </trkpt>
      <trkpt lat="47.51054" lon="6.76964">
        <ele>375</ele>
        <time>2016-02-14T08:24:43.000Z</time>
      </trkpt>
      <trkpt lat="47.51049" lon="6.76957">
        <ele>375</ele>
        <time>2016-02-14T08:24:44.000Z</time>
      </trkpt>
      <trkpt lat="47.51044" lon="6.76953">
        <ele>375</ele>
        <time>2016-02-14T08:24:45.000Z</time>
      </trkpt>
      <trkpt lat="47.5104" lon="6.76949">
        <ele>375</ele>
        <time>2016-02-14T08:24:46.000Z</time>
      </trkpt>
      <trkpt lat="47.51036" lon="6.76947">
        <ele>375</ele>
        <time>2016-02-14T08:24:47.000Z</time>
      </trkpt>
      <trkpt lat="47.51032" lon="6.76943">
        <ele>375</ele>
        <time>2016-02-14T08:24:48.000Z</time>
      </trkpt>
      <trkpt lat="47.51028" lon="6.76939">
        <ele>375</ele>
        <time>2016-02-14T08:24:49.000Z</time>
      </trkpt>
      <trkpt lat="47.51023" lon="6.76935">
        <ele>375</ele>
        <time>2016-02-14T08:24:50.000Z</time>
      </trkpt>
      <trkpt lat="47.5102" lon="6.76931">
        <ele>375</ele>
        <time>2016-02-14T08:24:51.000Z</time>
      </trkpt>
      <trkpt lat="47.51016" lon="6.76926">
        <ele>375</ele>
        <time>2016-02-14T08:24:52.000Z</time>
      </trkpt>
      <trkpt lat="47.51013" lon="6.76923">
        <ele>375</ele>
        <time>2016-02-14T08:24:53.000Z</time>
      </trkpt>
      <trkpt lat="47.5101" lon="6.7692">
        <ele>376</ele>
        <time>2016-02-14T08:24:54.000Z</time>
      </trkpt>
      <trkpt lat="47.51007" lon="6.76917">
        <ele>376</ele>
        <time>2016-02-14T08:24:55.000Z</time>
      </trkpt>
      <trkpt lat="47.51003" lon="6.76914">
        <ele>376</ele>
        <time>2016-02-14T08:24:55.999Z</time>
      </trkpt>
      <trkpt lat="47.51001" lon="6.76908">
        <ele>376</ele>
        <time>2016-02-14T08:24:57.000Z</time>
      </trkpt>
      <trkpt lat="47.50999" lon="6.76903">
        <ele>377</ele>
        <time>2016-02-14T08:24:58.000Z</time>
      </trkpt>
      <trkpt lat="47.50998" lon="6.76897">
        <ele>377</ele>
        <time>2016-02-14T08:24:59.000Z</time>
      </trkpt>
      <trkpt lat="47.50995" lon="6.76893">
        <ele>377</ele>
        <time>2016-02-14T08:25:00.000Z</time>
      </trkpt>
      <trkpt lat="47.50991" lon="6.76891">
        <ele>377</ele>
        <time>2016-02-14T08:25:01.000Z</time>
      </trkpt>
      <trkpt lat="47.50986" lon="6.76891">
        <ele>377</ele>
        <time>2016-02-14T08:25:02.000Z</time>
      </trkpt>
      <trkpt lat="47.50982" lon="6.76891">
        <ele>377</ele>
        <time>2016-02-14T08:25:03.000Z</time>
      </trkpt>
      <trkpt lat="47.50977" lon="6.76891">
        <ele>377</ele>
        <time>2016-02-14T08:25:04.000Z</time>
      </trkpt>
      <trkpt lat="47.50974" lon="6.76891">
        <ele>377</ele>
        <time>2016-02-14T08:25:05.000Z</time>
      </trkpt>
      <trkpt lat="47.5097" lon="6.76891">
        <ele>377</ele>
        <time>2016-02-14T08:25:06.000Z</time>
      </trkpt>
      <trkpt lat="47.50966" lon="6.76889">
        <ele>377</ele>
        <time>2016-02-14T08:25:07.000Z</time>
      </trkpt>
      <trkpt lat="47.50962" lon="6.76888">
        <ele>377</ele>
        <time>2016-02-14T08:25:08.000Z</time>
      </trkpt>
      <trkpt lat="47.50959" lon="6.76887">
        <ele>377</ele>
        <time>2016-02-14T08:25:09.000Z</time>
      </trkpt>
      <trkpt lat="47.50956" lon="6.76886">
        <ele>377</ele>
        <time>2016-02-14T08:25:10.000Z</time>
      </trkpt>
      <trkpt lat="47.50953" lon="6.76883">
        <ele>378</ele>
        <time>2016-02-14T08:25:11.000Z</time>
      </trkpt>
      <trkpt lat="47.50949" lon="6.7688">
        <ele>378</ele>
        <time>2016-02-14T08:25:12.000Z</time>
      </trkpt>
      <trkpt lat="47.50946" lon="6.76876">
        <ele>378</ele>
        <time>2016-02-14T08:25:13.000Z</time>
      </trkpt>
      <trkpt lat="47.50942" lon="6.76871">
        <ele>378</ele>
        <time>2016-02-14T08:25:14.000Z</time>
      </trkpt>
      <trkpt lat="47.50938" lon="6.76868">
        <ele>378</ele>
        <time>2016-02-14T08:25:15.000Z</time>
      </trkpt>
      <trkpt lat="47.50935" lon="6.76862">
        <ele>378</ele>
        <time>2016-02-14T08:25:16.000Z</time>
      </trkpt>
      <trkpt lat="47.50932" lon="6.76858">
        <ele>378</ele>
        <time>2016-02-14T08:25:17.000Z</time>
      </trkpt>
      <trkpt lat="47.5093" lon="6.76853">
        <ele>378</ele>
        <time>2016-02-14T08:25:18.000Z</time>
      </trkpt>
      <trkpt lat="47.50927" lon="6.76848">
        <ele>379</ele>
        <time>2016-02-14T08:25:19.000Z</time>
      </trkpt>
      <trkpt lat="47.50924" lon="6.76844">
        <ele>379</ele>
        <time>2016-02-14T08:25:20.000Z</time>
      </trkpt>
      <trkpt lat="47.50922" lon="6.76839">
        <ele>379</ele>
        <time>2016-02-14T08:25:21.000Z</time>
      </trkpt>
      <trkpt lat="47.5092" lon="6.76834">
        <ele>380</ele>
        <time>2016-02-14T08:25:22.000Z</time>
      </trkpt>
      <trkpt lat="47.50917" lon="6.7683">
        <ele>380</ele>
        <time>2016-02-14T08:25:23.000Z</time>
      </trkpt>
      <trkpt lat="47.50915" lon="6.76824">
        <ele>380</ele>
        <time>2016-02-14T08:25:24.000Z</time>
      </trkpt>
      <trkpt lat="47.50914" lon="6.7682">
        <ele>381</ele>
        <time>2016-02-14T08:25:25.000Z</time>
      </trkpt>
      <trkpt lat="47.50913" lon="6.76815">
        <ele>381</ele>
        <time>2016-02-14T08:25:26.000Z</time>
      </trkpt>
      <trkpt lat="47.50911" lon="6.7681">
        <ele>381</ele>
        <time>2016-02-14T08:25:27.000Z</time>
      </trkpt>
      <trkpt lat="47.50909" lon="6.76805">
        <ele>381</ele>
        <time>2016-02-14T08:25:28.000Z</time>
      </trkpt>
      <trkpt lat="47.50906" lon="6.76799">
        <ele>381</ele>
        <time>2016-02-14T08:25:29.000Z</time>
      </trkpt>
      <trkpt lat="47.50904" lon="6.76794">
        <ele>381</ele>
        <time>2016-02-14T08:25:30.000Z</time>
      </trkpt>
      <trkpt lat="47.50901" lon="6.76789">
        <ele>381</ele>
        <time>2016-02-14T08:25:31.000Z</time>
      </trkpt>
      <trkpt lat="47.50899" lon="6.76786">
        <ele>381</ele>
        <time>2016-02-14T08:25:32.000Z</time>
      </trkpt>
      <trkpt lat="47.50897" lon="6.7678">
        <ele>381</ele>
        <time>2016-02-14T08:25:33.000Z</time>
      </trkpt>
      <trkpt lat="47.50896" lon="6.76774">
        <ele>381</ele>
        <time>2016-02-14T08:25:34.000Z</time>
      </trkpt>
      <trkpt lat="47.50894" lon="6.7677">
        <ele>381</ele>
        <time>2016-02-14T08:25:35.000Z</time>
      </trkpt>
      <trkpt lat="47.50892" lon="6.76765">
        <ele>381</ele>
        <time>2016-02-14T08:25:36.000Z</time>
      </trkpt>
      <trkpt lat="47.50891" lon="6.76761">
        <ele>381</ele>
        <time>2016-02-14T08:25:37.000Z</time>
      </trkpt>
      <trkpt lat="47.50889" lon="6.76755">
        <ele>381</ele>
        <time>2016-02-14T08:25:38.000Z</time>
      </trkpt>
      <trkpt lat="47.50887" lon="6.76749">
        <ele>382</ele>
        <time>2016-02-14T08:25:38.999Z</time>
      </trkpt>
      <trkpt lat="47.50886" lon="6.76746">
        <ele>382</ele>
        <time>2016-02-14T08:25:40.000Z</time>
      </trkpt>
      <trkpt lat="47.50884" lon="6.7674">
        <ele>382</ele>
        <time>2016-02-14T08:25:41.000Z</time>
      </trkpt>
      <trkpt lat="47.50883" lon="6.76736">
        <ele>382</ele>
        <time>2016-02-14T08:25:42.000Z</time>
      </trkpt>
      <trkpt lat="47.50882" lon="6.76734">
        <ele>382</ele>
        <time>2016-02-14T08:25:43.000Z</time>
      </trkpt>
      <trkpt lat="47.50881" lon="6.76729">
        <ele>383</ele>
        <time>2016-02-14T08:25:44.000Z</time>
      </trkpt>
      <trkpt lat="47.50879" lon="6.76724">
        <ele>383</ele>
        <time>2016-02-14T08:25:44.998Z</time>
      </trkpt>
      <trkpt lat="47.50878" lon="6.7672">
        <ele>383</ele>
        <time>2016-02-14T08:25:46.000Z</time>
      </trkpt>
      <trkpt lat="47.50877" lon="6.76716">
        <ele>383</ele>
        <time>2016-02-14T08:25:47.000Z</time>
      </trkpt>
      <trkpt lat="47.50875" lon="6.76711">
        <ele>383</ele>
        <time>2016-02-14T08:25:48.000Z</time>
      </trkpt>
      <trkpt lat="47.50874" lon="6.76706">
        <ele>383</ele>
        <time>2016-02-14T08:25:49.000Z</time>
      </trkpt>
      <trkpt lat="47.50873" lon="6.76702">
        <ele>383</ele>
        <time>2016-02-14T08:25:50.000Z</time>
      </trkpt>
      <trkpt lat="47.50871" lon="6.76697">
        <ele>384</ele>
        <time>2016-02-14T08:25:51.000Z</time>
      </trkpt>
      <trkpt lat="47.5087" lon="6.76693">
        <ele>384</ele>
        <time>2016-02-14T08:25:52.000Z</time>
      </trkpt>
      <trkpt lat="47.50868" lon="6.76689">
        <ele>384</ele>
        <time>2016-02-14T08:25:53.000Z</time>
      </trkpt>
      <trkpt lat="47.50866" lon="6.76685">
        <ele>384</ele>
        <time>2016-02-14T08:25:54.000Z</time>
      </trkpt>
      <trkpt lat="47.50864" lon="6.76681">
        <ele>384</ele>
        <time>2016-02-14T08:25:55.000Z</time>
      </trkpt>
      <trkpt lat="47.50863" lon="6.76677">
        <ele>385</ele>
        <time>2016-02-14T08:25:56.000Z</time>
      </trkpt>
      <trkpt lat="47.50861" lon="6.76672">
        <ele>385</ele>
        <time>2016-02-14T08:25:57.000Z</time>
      </trkpt>
      <trkpt lat="47.5086" lon="6.76668">
        <ele>385</ele>
        <time>2016-02-14T08:25:58.000Z</time>
      </trkpt>
      <trkpt lat="47.50858" lon="6.76664">
        <ele>387</ele>
        <time>2016-02-14T08:25:59.000Z</time>
      </trkpt>
      <trkpt lat="47.50856" lon="6.7666">
        <ele>387</ele>
        <time>2016-02-14T08:26:00.000Z</time>
      </trkpt>
      <trkpt lat="47.50854" lon="6.76656">
        <ele>387</ele>
        <time>2016-02-14T08:26:01.000Z</time>
      </trkpt>
      <trkpt lat="47.50853" lon="6.76653">
        <ele>387</ele>
        <time>2016-02-14T08:26:02.000Z</time>
      </trkpt>
      <trkpt lat="47.50851" lon="6.76649">
        <ele>387</ele>
        <time>2016-02-14T08:26:03.000Z</time>
      </trkpt>
      <trkpt lat="47.5085" lon="6.76645">
        <ele>387</ele>
        <time>2016-02-14T08:26:04.000Z</time>
      </trkpt>
      <trkpt lat="47.50848" lon="6.76642">
        <ele>387</ele>
        <time>2016-02-14T08:26:05.000Z</time>
      </trkpt>
      <trkpt lat="47.50846" lon="6.76639">
        <ele>387</ele>
        <time>2016-02-14T08:26:06.000Z</time>
      </trkpt>
      <trkpt lat="47.50844" lon="6.76635">
        <ele>387</ele>
        <time>2016-02-14T08:26:07.000Z</time>
      </trkpt>
      <trkpt lat="47.50843" lon="6.76632">
        <ele>387</ele>
        <time>2016-02-14T08:26:08.000Z</time>
      </trkpt>
      <trkpt lat="47.50841" lon="6.76629">
        <ele>387</ele>
        <time>2016-02-14T08:26:09.000Z</time>
      </trkpt>
      <trkpt lat="47.5084" lon="6.76625">
        <ele>387</ele>
        <time>2016-02-14T08:26:10.000Z</time>
      </trkpt>
      <trkpt lat="47.50838" lon="6.76622">
        <ele>387</ele>
        <time>2016-02-14T08:26:11.000Z</time>
      </trkpt>
      <trkpt lat="47.50837" lon="6.76618">
        <ele>387</ele>
        <time>2016-02-14T08:26:12.000Z</time>
      </trkpt>
      <trkpt lat="47.50835" lon="6.76614">
        <ele>387</ele>
        <time>2016-02-14T08:26:13.000Z</time>
      </trkpt>
      <trkpt lat="47.50834" lon="6.7661">
        <ele>387</ele>
        <time>2016-02-14T08:26:14.000Z</time>
      </trkpt>
      <trkpt lat="47.50832" lon="6.76606">
        <ele>390</ele>
        <time>2016-02-14T08:26:15.000Z</time>
      </trkpt>
      <trkpt lat="47.5083" lon="6.76602">
        <ele>390</ele>
        <time>2016-02-14T08:26:16.000Z</time>
      </trkpt>
      <trkpt lat="47.50828" lon="6.76598">
        <ele>390</ele>
        <time>2016-02-14T08:26:17.000Z</time>
      </trkpt>
      <trkpt lat="47.50827" lon="6.76594">
        <ele>390</ele>
        <time>2016-02-14T08:26:18.000Z</time>
      </trkpt>
      <trkpt lat="47.50826" lon="6.76591">
        <ele>390</ele>
        <time>2016-02-14T08:26:19.000Z</time>
      </trkpt>
      <trkpt lat="47.50825" lon="6.76587">
        <ele>390</ele>
        <time>2016-02-14T08:26:20.000Z</time>
      </trkpt>
      <trkpt lat="47.50824" lon="6.76584">
        <ele>390</ele>
        <time>2016-02-14T08:26:21.002Z</time>
      </trkpt>
      <trkpt lat="47.50822" lon="6.76585">
        <ele>390</ele>
        <time>2016-02-14T08:26:22.001Z</time>
      </trkpt>
      <trkpt lat="47.50819" lon="6.76587">
        <ele>390</ele>
        <time>2016-02-14T08:26:23.000Z</time>
      </trkpt>
      <trkpt lat="47.50816" lon="6.76588">
        <ele>390</ele>
        <time>2016-02-14T08:26:24.000Z</time>
      </trkpt>
      <trkpt lat="47.50813" lon="6.76589">
        <ele>390</ele>
        <time>2016-02-14T08:26:25.000Z</time>
      </trkpt>
      <trkpt lat="47.5081" lon="6.76587">
        <ele>390</ele>
        <time>2016-02-14T08:26:27.000Z</time>
      </trkpt>
      <trkpt lat="47.50808" lon="6.76586">
        <ele>390</ele>
        <time>2016-02-14T08:26:28.000Z</time>
      </trkpt>
      <trkpt lat="47.50805" lon="6.76582">
        <ele>391</ele>
        <time>2016-02-14T08:26:30.001Z</time>
      </trkpt>
      <trkpt lat="47.50803" lon="6.76583">
        <ele>391</ele>
        <time>2016-02-14T08:26:31.000Z</time>
      </trkpt>
      <trkpt lat="47.50799" lon="6.76586">
        <ele>391</ele>
        <time>2016-02-14T08:26:45.000Z</time>
      </trkpt>
      <trkpt lat="47.50799" lon="6.76587">
        <ele>391</ele>
        <time>2016-02-14T08:26:46.000Z</time>
      </trkpt>
      <trkpt lat="47.50795" lon="6.76587">
        <ele>391</ele>
        <time>2016-02-14T08:26:51.000Z</time>
      </trkpt>
      <trkpt lat="47.50793" lon="6.76588">
        <ele>391</ele>
        <time>2016-02-14T08:26:52.000Z</time>
      </trkpt>
      <trkpt lat="47.50789" lon="6.76589">
        <ele>391</ele>
        <time>2016-02-14T08:26:54.000Z</time>
      </trkpt>
      <trkpt lat="47.50787" lon="6.76589">
        <ele>391</ele>
        <time>2016-02-14T08:26:55.000Z</time>
      </trkpt>
      <trkpt lat="47.50782" lon="6.7659">
        <ele>391</ele>
        <time>2016-02-14T08:26:56.999Z</time>
      </trkpt>
      <trkpt lat="47.50778" lon="6.76591">
        <ele>392</ele>
        <time>2016-02-14T08:26:58.000Z</time>
      </trkpt>
      <trkpt lat="47.50775" lon="6.76591">
        <ele>392</ele>
        <time>2016-02-14T08:26:59.000Z</time>
      </trkpt>
      <trkpt lat="47.50772" lon="6.76592">
        <ele>392</ele>
        <time>2016-02-14T08:27:00.000Z</time>
      </trkpt>
      <trkpt lat="47.50769" lon="6.76592">
        <ele>392</ele>
        <time>2016-02-14T08:27:01.000Z</time>
      </trkpt>
      <trkpt lat="47.50766" lon="6.76593">
        <ele>392</ele>
        <time>2016-02-14T08:27:02.000Z</time>
      </trkpt>
      <trkpt lat="47.50764" lon="6.76593">
        <ele>392</ele>
        <time>2016-02-14T08:27:03.000Z</time>
      </trkpt>
      <trkpt lat="47.50761" lon="6.76594">
        <ele>392</ele>
        <time>2016-02-14T08:27:04.000Z</time>
      </trkpt>
      <trkpt lat="47.50759" lon="6.76594">
        <ele>393</ele>
        <time>2016-02-14T08:27:05.000Z</time>
      </trkpt>
      <trkpt lat="47.50756" lon="6.76595">
        <ele>393</ele>
        <time>2016-02-14T08:27:06.000Z</time>
      </trkpt>
      <trkpt lat="47.50753" lon="6.76595">
        <ele>393</ele>
        <time>2016-02-14T08:27:07.000Z</time>
      </trkpt>
      <trkpt lat="47.5075" lon="6.76595">
        <ele>394</ele>
        <time>2016-02-14T08:27:08.000Z</time>
      </trkpt>
      <trkpt lat="47.50747" lon="6.76595">
        <ele>394</ele>
        <time>2016-02-14T08:27:09.000Z</time>
      </trkpt>
      <trkpt lat="47.50744" lon="6.76595">
        <ele>394</ele>
        <time>2016-02-14T08:27:09.999Z</time>
      </trkpt>
      <trkpt lat="47.50741" lon="6.76594">
        <ele>394</ele>
        <time>2016-02-14T08:27:11.000Z</time>
      </trkpt>
      <trkpt lat="47.50739" lon="6.76594">
        <ele>394</ele>
        <time>2016-02-14T08:27:12.000Z</time>
      </trkpt>
      <trkpt lat="47.50735" lon="6.76594">
        <ele>394</ele>
        <time>2016-02-14T08:27:13.000Z</time>
      </trkpt>
      <trkpt lat="47.50732" lon="6.76595">
        <ele>394</ele>
        <time>2016-02-14T08:27:14.000Z</time>
      </trkpt>
      <trkpt lat="47.50728" lon="6.76595">
        <ele>394</ele>
        <time>2016-02-14T08:27:15.000Z</time>
      </trkpt>
      <trkpt lat="47.50725" lon="6.76595">
        <ele>394</ele>
        <time>2016-02-14T08:27:16.000Z</time>
      </trkpt>
      <trkpt lat="47.50721" lon="6.76595">
        <ele>394</ele>
        <time>2016-02-14T08:27:17.000Z</time>
      </trkpt>
      <trkpt lat="47.50717" lon="6.76594">
        <ele>394</ele>
        <time>2016-02-14T08:27:18.000Z</time>
      </trkpt>
      <trkpt lat="47.50714" lon="6.76593">
        <ele>395</ele>
        <time>2016-02-14T08:27:19.000Z</time>
      </trkpt>
      <trkpt lat="47.50711" lon="6.76592">
        <ele>395</ele>
        <time>2016-02-14T08:27:20.000Z</time>
      </trkpt>
      <trkpt lat="47.50708" lon="6.76592">
        <ele>395</ele>
        <time>2016-02-14T08:27:21.000Z</time>
      </trkpt>
      <trkpt lat="47.50705" lon="6.76591">
        <ele>395</ele>
        <time>2016-02-14T08:27:22.000Z</time>
      </trkpt>
      <trkpt lat="47.50703" lon="6.7659">
        <ele>395</ele>
        <time>2016-02-14T08:27:23.000Z</time>
      </trkpt>
      <trkpt lat="47.507" lon="6.7659">
        <ele>395</ele>
        <time>2016-02-14T08:27:24.000Z</time>
      </trkpt>
      <trkpt lat="47.50697" lon="6.76589">
        <ele>395</ele>
        <time>2016-02-14T08:27:25.000Z</time>
      </trkpt>
      <trkpt lat="47.50694" lon="6.76589">
        <ele>395</ele>
        <time>2016-02-14T08:27:26.000Z</time>
      </trkpt>
      <trkpt lat="47.50691" lon="6.76589">
        <ele>395</ele>
        <time>2016-02-14T08:27:27.000Z</time>
      </trkpt>
      <trkpt lat="47.50688" lon="6.76589">
        <ele>395</ele>
        <time>2016-02-14T08:27:28.000Z</time>
      </trkpt>
      <trkpt lat="47.50685" lon="6.76589">
        <ele>396</ele>
        <time>2016-02-14T08:27:29.000Z</time>
      </trkpt>
      <trkpt lat="47.50682" lon="6.76589">
        <ele>396</ele>
        <time>2016-02-14T08:27:30.000Z</time>
      </trkpt>
      <trkpt lat="47.50679" lon="6.76589">
        <ele>396</ele>
        <time>2016-02-14T08:27:31.000Z</time>
      </trkpt>
      <trkpt lat="47.50676" lon="6.76589">
        <ele>396</ele>
        <time>2016-02-14T08:27:32.000Z</time>
      </trkpt>
      <trkpt lat="47.50674" lon="6.7659">
        <ele>396</ele>
        <time>2016-02-14T08:27:33.001Z</time>
      </trkpt>
      <trkpt lat="47.50671" lon="6.76591">
        <ele>396</ele>
        <time>2016-02-14T08:27:34.000Z</time>
      </trkpt>
      <trkpt lat="47.50668" lon="6.76593">
        <ele>396</ele>
        <time>2016-02-14T08:27:36.000Z</time>
      </trkpt>
      <trkpt lat="47.50665" lon="6.76594">
        <ele>397</ele>
        <time>2016-02-14T08:27:37.000Z</time>
      </trkpt>
      <trkpt lat="47.50661" lon="6.76596">
        <ele>397</ele>
        <time>2016-02-14T08:27:39.000Z</time>
      </trkpt>
      <trkpt lat="47.50659" lon="6.76596">
        <ele>397</ele>
        <time>2016-02-14T08:27:40.000Z</time>
      </trkpt>
      <trkpt lat="47.50655" lon="6.76598">
        <ele>397</ele>
        <time>2016-02-14T08:27:42.000Z</time>
      </trkpt>
      <trkpt lat="47.50653" lon="6.76599">
        <ele>397</ele>
        <time>2016-02-14T08:27:43.000Z</time>
      </trkpt>
      <trkpt lat="47.50649" lon="6.766">
        <ele>397</ele>
        <time>2016-02-14T08:27:45.000Z</time>
      </trkpt>
      <trkpt lat="47.50646" lon="6.76601">
        <ele>397</ele>
        <time>2016-02-14T08:27:46.000Z</time>
      </trkpt>
      <trkpt lat="47.50643" lon="6.76603">
        <ele>397</ele>
        <time>2016-02-14T08:27:47.000Z</time>
      </trkpt>
      <trkpt lat="47.50641" lon="6.76604">
        <ele>397</ele>
        <time>2016-02-14T08:27:48.001Z</time>
      </trkpt>
      <trkpt lat="47.50638" lon="6.76606">
        <ele>397</ele>
        <time>2016-02-14T08:27:49.000Z</time>
      </trkpt>
      <trkpt lat="47.50636" lon="6.76608">
        <ele>397</ele>
        <time>2016-02-14T08:27:50.000Z</time>
      </trkpt>
      <trkpt lat="47.50634" lon="6.7661">
        <ele>397</ele>
        <time>2016-02-14T08:27:51.000Z</time>
      </trkpt>
      <trkpt lat="47.50631" lon="6.76611">
        <ele>397</ele>
        <time>2016-02-14T08:27:52.000Z</time>
      </trkpt>
      <trkpt lat="47.50629" lon="6.76613">
        <ele>397</ele>
        <time>2016-02-14T08:27:53.000Z</time>
      </trkpt>
      <trkpt lat="47.50627" lon="6.76614">
        <ele>397</ele>
        <time>2016-02-14T08:27:54.000Z</time>
      </trkpt>
      <trkpt lat="47.50625" lon="6.76616">
        <ele>397</ele>
        <time>2016-02-14T08:27:55.000Z</time>
      </trkpt>
      <trkpt lat="47.50623" lon="6.76617">
        <ele>397</ele>
        <time>2016-02-14T08:27:56.000Z</time>
      </trkpt>
      <trkpt lat="47.5062" lon="6.76618">
        <ele>397</ele>
        <time>2016-02-14T08:27:57.000Z</time>
      </trkpt>
      <trkpt lat="47.50618" lon="6.76619">
        <ele>397</ele>
        <time>2016-02-14T08:27:58.000Z</time>
      </trkpt>
      <trkpt lat="47.50615" lon="6.7662">
        <ele>397</ele>
        <time>2016-02-14T08:27:59.000Z</time>
      </trkpt>
      <trkpt lat="47.50613" lon="6.76621">
        <ele>397</ele>
        <time>2016-02-14T08:28:00.000Z</time>
      </trkpt>
      <trkpt lat="47.50611" lon="6.76622">
        <ele>397</ele>
        <time>2016-02-14T08:28:00.999Z</time>
      </trkpt>
      <trkpt lat="47.50607" lon="6.76622">
        <ele>398</ele>
        <time>2016-02-14T08:28:02.000Z</time>
      </trkpt>
      <trkpt lat="47.50604" lon="6.76623">
        <ele>398</ele>
        <time>2016-02-14T08:28:03.000Z</time>
      </trkpt>
      <trkpt lat="47.50602" lon="6.76623">
        <ele>398</ele>
        <time>2016-02-14T08:28:04.000Z</time>
      </trkpt>
      <trkpt lat="47.50598" lon="6.76626">
        <ele>398</ele>
        <time>2016-02-14T08:28:06.000Z</time>
      </trkpt>
      <trkpt lat="47.50596" lon="6.76627">
        <ele>398</ele>
        <time>2016-02-14T08:28:07.000Z</time>
      </trkpt>
      <trkpt lat="47.50594" lon="6.76628">
        <ele>398</ele>
        <time>2016-02-14T08:28:08.000Z</time>
      </trkpt>
      <trkpt lat="47.50591" lon="6.76628">
        <ele>398</ele>
        <time>2016-02-14T08:28:09.000Z</time>
      </trkpt>
      <trkpt lat="47.50588" lon="6.76629">
        <ele>398</ele>
        <time>2016-02-14T08:28:10.000Z</time>
      </trkpt>
      <trkpt lat="47.50585" lon="6.7663">
        <ele>398</ele>
        <time>2016-02-14T08:28:11.000Z</time>
      </trkpt>
      <trkpt lat="47.50582" lon="6.76631">
        <ele>399</ele>
        <time>2016-02-14T08:28:12.000Z</time>
      </trkpt>
      <trkpt lat="47.5058" lon="6.76632">
        <ele>399</ele>
        <time>2016-02-14T08:28:13.000Z</time>
      </trkpt>
      <trkpt lat="47.50577" lon="6.76632">
        <ele>399</ele>
        <time>2016-02-14T08:28:14.001Z</time>
      </trkpt>
      <trkpt lat="47.50575" lon="6.76633">
        <ele>399</ele>
        <time>2016-02-14T08:28:15.000Z</time>
      </trkpt>
      <trkpt lat="47.50573" lon="6.76634">
        <ele>399</ele>
        <time>2016-02-14T08:28:16.000Z</time>
      </trkpt>
      <trkpt lat="47.50566" lon="6.76635">
        <ele>399</ele>
        <time>2016-02-14T08:28:17.000Z</time>
      </trkpt>
      <trkpt lat="47.50561" lon="6.76635">
        <ele>399</ele>
        <time>2016-02-14T08:28:18.000Z</time>
      </trkpt>
      <trkpt lat="47.50558" lon="6.76636">
        <ele>399</ele>
        <time>2016-02-14T08:28:19.000Z</time>
      </trkpt>
      <trkpt lat="47.50556" lon="6.76637">
        <ele>399</ele>
        <time>2016-02-14T08:28:20.000Z</time>
      </trkpt>
      <trkpt lat="47.50552" lon="6.76637">
        <ele>399</ele>
        <time>2016-02-14T08:28:21.000Z</time>
      </trkpt>
      <trkpt lat="47.50549" lon="6.76638">
        <ele>399</ele>
        <time>2016-02-14T08:28:22.000Z</time>
      </trkpt>
      <trkpt lat="47.50546" lon="6.76639">
        <ele>399</ele>
        <time>2016-02-14T08:28:23.000Z</time>
      </trkpt>
      <trkpt lat="47.50543" lon="6.76639">
        <ele>399</ele>
        <time>2016-02-14T08:28:24.000Z</time>
      </trkpt>
      <trkpt lat="47.50541" lon="6.76639">
        <ele>399</ele>
        <time>2016-02-14T08:28:25.000Z</time>
      </trkpt>
      <trkpt lat="47.50537" lon="6.76641">
        <ele>399</ele>
        <time>2016-02-14T08:28:26.000Z</time>
      </trkpt>
      <trkpt lat="47.50533" lon="6.76642">
        <ele>399</ele>
        <time>2016-02-14T08:28:27.000Z</time>
      </trkpt>
      <trkpt lat="47.5053" lon="6.76643">
        <ele>399</ele>
        <time>2016-02-14T08:28:28.000Z</time>
      </trkpt>
      <trkpt lat="47.50527" lon="6.76644">
        <ele>399</ele>
        <time>2016-02-14T08:28:29.000Z</time>
      </trkpt>
      <trkpt lat="47.50524" lon="6.76645">
        <ele>399</ele>
        <time>2016-02-14T08:28:30.000Z</time>
      </trkpt>
      <trkpt lat="47.5052" lon="6.76646">
        <ele>399</ele>
        <time>2016-02-14T08:28:31.001Z</time>
      </trkpt>
      <trkpt lat="47.50516" lon="6.76646">
        <ele>399</ele>
        <time>2016-02-14T08:28:32.000Z</time>
      </trkpt>
      <trkpt lat="47.50512" lon="6.76647">
        <ele>399</ele>
        <time>2016-02-14T08:28:33.000Z</time>
      </trkpt>
      <trkpt lat="47.50505" lon="6.76649">
        <ele>399</ele>
        <time>2016-02-14T08:28:34.000Z</time>
      </trkpt>
      <trkpt lat="47.50501" lon="6.76651">
        <ele>399</ele>
        <time>2016-02-14T08:28:35.000Z</time>
      </trkpt>
      <trkpt lat="47.50496" lon="6.76652">
        <ele>399</ele>
        <time>2016-02-14T08:28:36.000Z</time>
      </trkpt>
      <trkpt lat="47.50492" lon="6.76654">
        <ele>399</ele>
        <time>2016-02-14T08:28:37.000Z</time>
      </trkpt>
      <trkpt lat="47.50487" lon="6.76656">
        <ele>399</ele>
        <time>2016-02-14T08:28:38.000Z</time>
      </trkpt>
      <trkpt lat="47.50482" lon="6.76657">
        <ele>399</ele>
        <time>2016-02-14T08:28:39.000Z</time>
      </trkpt>
      <trkpt lat="47.50477" lon="6.7666">
        <ele>398</ele>
        <time>2016-02-14T08:28:40.000Z</time>
      </trkpt>
      <trkpt lat="47.50473" lon="6.76661">
        <ele>398</ele>
        <time>2016-02-14T08:28:41.000Z</time>
      </trkpt>
      <trkpt lat="47.50469" lon="6.76663">
        <ele>398</ele>
        <time>2016-02-14T08:28:42.000Z</time>
      </trkpt>
      <trkpt lat="47.50465" lon="6.76664">
        <ele>398</ele>
        <time>2016-02-14T08:28:43.000Z</time>
      </trkpt>
      <trkpt lat="47.50461" lon="6.76665">
        <ele>398</ele>
        <time>2016-02-14T08:28:44.000Z</time>
      </trkpt>
      <trkpt lat="47.50456" lon="6.76667">
        <ele>397</ele>
        <time>2016-02-14T08:28:45.000Z</time>
      </trkpt>
      <trkpt lat="47.50451" lon="6.76669">
        <ele>397</ele>
        <time>2016-02-14T08:28:46.000Z</time>
      </trkpt>
      <trkpt lat="47.50448" lon="6.76672">
        <ele>397</ele>
        <time>2016-02-14T08:28:47.000Z</time>
      </trkpt>
      <trkpt lat="47.50444" lon="6.76674">
        <ele>397</ele>
        <time>2016-02-14T08:28:48.000Z</time>
      </trkpt>
      <trkpt lat="47.5044" lon="6.76676">
        <ele>397</ele>
        <time>2016-02-14T08:28:49.000Z</time>
      </trkpt>
      <trkpt lat="47.50437" lon="6.76678">
        <ele>397</ele>
        <time>2016-02-14T08:28:50.000Z</time>
      </trkpt>
      <trkpt lat="47.50434" lon="6.7668">
        <ele>397</ele>
        <time>2016-02-14T08:28:51.001Z</time>
      </trkpt>
      <trkpt lat="47.5043" lon="6.76681">
        <ele>397</ele>
        <time>2016-02-14T08:28:52.000Z</time>
      </trkpt>
      <trkpt lat="47.50426" lon="6.76682">
        <ele>397</ele>
        <time>2016-02-14T08:28:53.000Z</time>
      </trkpt>
      <trkpt lat="47.50422" lon="6.76683">
        <ele>397</ele>
        <time>2016-02-14T08:28:54.000Z</time>
      </trkpt>
      <trkpt lat="47.50419" lon="6.76684">
        <ele>397</ele>
        <time>2016-02-14T08:28:54.999Z</time>
      </trkpt>
      <trkpt lat="47.50415" lon="6.76686">
        <ele>397</ele>
        <time>2016-02-14T08:28:56.000Z</time>
      </trkpt>
      <trkpt lat="47.50412" lon="6.76687">
        <ele>397</ele>
        <time>2016-02-14T08:28:57.000Z</time>
      </trkpt>
      <trkpt lat="47.50408" lon="6.76689">
        <ele>397</ele>
        <time>2016-02-14T08:28:58.000Z</time>
      </trkpt>
      <trkpt lat="47.50405" lon="6.7669">
        <ele>397</ele>
        <time>2016-02-14T08:28:59.000Z</time>
      </trkpt>
      <trkpt lat="47.50401" lon="6.76692">
        <ele>397</ele>
        <time>2016-02-14T08:29:00.000Z</time>
      </trkpt>
      <trkpt lat="47.50398" lon="6.76694">
        <ele>397</ele>
        <time>2016-02-14T08:29:01.000Z</time>
      </trkpt>
      <trkpt lat="47.50394" lon="6.76695">
        <ele>397</ele>
        <time>2016-02-14T08:29:02.000Z</time>
      </trkpt>
      <trkpt lat="47.50391" lon="6.76697">
        <ele>397</ele>
        <time>2016-02-14T08:29:03.000Z</time>
      </trkpt>
      <trkpt lat="47.50388" lon="6.76698">
        <ele>397</ele>
        <time>2016-02-14T08:29:04.000Z</time>
      </trkpt>
      <trkpt lat="47.50384" lon="6.767">
        <ele>397</ele>
        <time>2016-02-14T08:29:05.001Z</time>
      </trkpt>
      <trkpt lat="47.5038" lon="6.767">
        <ele>397</ele>
        <time>2016-02-14T08:29:06.000Z</time>
      </trkpt>
      <trkpt lat="47.50377" lon="6.76701">
        <ele>397</ele>
        <time>2016-02-14T08:29:07.000Z</time>
      </trkpt>
      <trkpt lat="47.50374" lon="6.76702">
        <ele>397</ele>
        <time>2016-02-14T08:29:08.000Z</time>
      </trkpt>
      <trkpt lat="47.50371" lon="6.76703">
        <ele>397</ele>
        <time>2016-02-14T08:29:09.000Z</time>
      </trkpt>
      <trkpt lat="47.50368" lon="6.76705">
        <ele>397</ele>
        <time>2016-02-14T08:29:10.000Z</time>
      </trkpt>
      <trkpt lat="47.50365" lon="6.76707">
        <ele>397</ele>
        <time>2016-02-14T08:29:11.000Z</time>
      </trkpt>
      <trkpt lat="47.50362" lon="6.76708">
        <ele>398</ele>
        <time>2016-02-14T08:29:12.000Z</time>
      </trkpt>
      <trkpt lat="47.50358" lon="6.7671">
        <ele>398</ele>
        <time>2016-02-14T08:29:13.001Z</time>
      </trkpt>
      <trkpt lat="47.50355" lon="6.76711">
        <ele>398</ele>
        <time>2016-02-14T08:29:14.000Z</time>
      </trkpt>
      <trkpt lat="47.50352" lon="6.76712">
        <ele>398</ele>
        <time>2016-02-14T08:29:15.000Z</time>
      </trkpt>
      <trkpt lat="47.50349" lon="6.76714">
        <ele>398</ele>
        <time>2016-02-14T08:29:16.000Z</time>
      </trkpt>
      <trkpt lat="47.50346" lon="6.76715">
        <ele>398</ele>
        <time>2016-02-14T08:29:17.000Z</time>
      </trkpt>
      <trkpt lat="47.50343" lon="6.76717">
        <ele>398</ele>
        <time>2016-02-14T08:29:18.000Z</time>
      </trkpt>
      <trkpt lat="47.50339" lon="6.76718">
        <ele>398</ele>
        <time>2016-02-14T08:29:19.000Z</time>
      </trkpt>
      <trkpt lat="47.50336" lon="6.7672">
        <ele>398</ele>
        <time>2016-02-14T08:29:20.000Z</time>
      </trkpt>
      <trkpt lat="47.50333" lon="6.76722">
        <ele>398</ele>
        <time>2016-02-14T08:29:21.000Z</time>
      </trkpt>
      <trkpt lat="47.5033" lon="6.76723">
        <ele>398</ele>
        <time>2016-02-14T08:29:22.000Z</time>
      </trkpt>
      <trkpt lat="47.50326" lon="6.76725">
        <ele>398</ele>
        <time>2016-02-14T08:29:23.000Z</time>
      </trkpt>
      <trkpt lat="47.50322" lon="6.76725">
        <ele>398</ele>
        <time>2016-02-14T08:29:24.000Z</time>
      </trkpt>
      <trkpt lat="47.50318" lon="6.76727">
        <ele>398</ele>
        <time>2016-02-14T08:29:25.000Z</time>
      </trkpt>
      <trkpt lat="47.50314" lon="6.76728">
        <ele>398</ele>
        <time>2016-02-14T08:29:25.999Z</time>
      </trkpt>
      <trkpt lat="47.50308" lon="6.76728">
        <ele>398</ele>
        <time>2016-02-14T08:29:27.000Z</time>
      </trkpt>
      <trkpt lat="47.50304" lon="6.76729">
        <ele>398</ele>
        <time>2016-02-14T08:29:28.000Z</time>
      </trkpt>
      <trkpt lat="47.503" lon="6.7673">
        <ele>399</ele>
        <time>2016-02-14T08:29:29.000Z</time>
      </trkpt>
      <trkpt lat="47.50296" lon="6.7673">
        <ele>399</ele>
        <time>2016-02-14T08:29:30.000Z</time>
      </trkpt>
      <trkpt lat="47.50293" lon="6.76731">
        <ele>399</ele>
        <time>2016-02-14T08:29:31.000Z</time>
      </trkpt>
      <trkpt lat="47.50289" lon="6.76731">
        <ele>399</ele>
        <time>2016-02-14T08:29:32.000Z</time>
      </trkpt>
      <trkpt lat="47.50286" lon="6.76732">
        <ele>399</ele>
        <time>2016-02-14T08:29:33.000Z</time>
      </trkpt>
      <trkpt lat="47.50283" lon="6.76732">
        <ele>399</ele>
        <time>2016-02-14T08:29:34.000Z</time>
      </trkpt>
      <trkpt lat="47.5028" lon="6.76733">
        <ele>399</ele>
        <time>2016-02-14T08:29:35.000Z</time>
      </trkpt>
      <trkpt lat="47.50277" lon="6.76734">
        <ele>399</ele>
        <time>2016-02-14T08:29:36.000Z</time>
      </trkpt>
      <trkpt lat="47.50274" lon="6.76734">
        <ele>399</ele>
        <time>2016-02-14T08:29:37.000Z</time>
      </trkpt>
      <trkpt lat="47.50271" lon="6.76735">
        <ele>399</ele>
        <time>2016-02-14T08:29:38.000Z</time>
      </trkpt>
      <trkpt lat="47.50268" lon="6.76736">
        <ele>399</ele>
        <time>2016-02-14T08:29:39.000Z</time>
      </trkpt>
      <trkpt lat="47.50265" lon="6.76737">
        <ele>399</ele>
        <time>2016-02-14T08:29:40.000Z</time>
      </trkpt>
      <trkpt lat="47.50263" lon="6.76738">
        <ele>399</ele>
        <time>2016-02-14T08:29:41.000Z</time>
      </trkpt>
      <trkpt lat="47.5026" lon="6.76739">
        <ele>399</ele>
        <time>2016-02-14T08:29:42.000Z</time>
      </trkpt>
      <trkpt lat="47.50258" lon="6.76739">
        <ele>399</ele>
        <time>2016-02-14T08:29:43.000Z</time>
      </trkpt>
      <trkpt lat="47.50256" lon="6.7674">
        <ele>399</ele>
        <time>2016-02-14T08:29:44.000Z</time>
      </trkpt>
      <trkpt lat="47.50253" lon="6.7674">
        <ele>399</ele>
        <time>2016-02-14T08:29:45.000Z</time>
      </trkpt>
      <trkpt lat="47.50251" lon="6.7674">
        <ele>400</ele>
        <time>2016-02-14T08:29:46.000Z</time>
      </trkpt>
      <trkpt lat="47.50248" lon="6.7674">
        <ele>401</ele>
        <time>2016-02-14T08:29:47.000Z</time>
      </trkpt>
      <trkpt lat="47.50245" lon="6.76738">
        <ele>401</ele>
        <time>2016-02-14T08:29:49.000Z</time>
      </trkpt>
      <trkpt lat="47.50244" lon="6.76736">
        <ele>401</ele>
        <time>2016-02-14T08:29:50.000Z</time>
      </trkpt>
      <trkpt lat="47.50242" lon="6.7673">
        <ele>401</ele>
        <time>2016-02-14T08:29:53.000Z</time>
      </trkpt>
      <trkpt lat="47.50241" lon="6.76728">
        <ele>401</ele>
        <time>2016-02-14T08:29:54.000Z</time>
      </trkpt>
      <trkpt lat="47.50239" lon="6.76724">
        <ele>401</ele>
        <time>2016-02-14T08:29:56.000Z</time>
      </trkpt>
      <trkpt lat="47.50238" lon="6.76722">
        <ele>401</ele>
        <time>2016-02-14T08:29:57.000Z</time>
      </trkpt>
      <trkpt lat="47.50236" lon="6.76717">
        <ele>401</ele>
        <time>2016-02-14T08:29:59.000Z</time>
      </trkpt>
      <trkpt lat="47.50235" lon="6.76715">
        <ele>402</ele>
        <time>2016-02-14T08:30:00.000Z</time>
      </trkpt>
      <trkpt lat="47.50233" lon="6.76712">
        <ele>402</ele>
        <time>2016-02-14T08:30:01.000Z</time>
      </trkpt>
      <trkpt lat="47.50232" lon="6.76709">
        <ele>402</ele>
        <time>2016-02-14T08:30:02.000Z</time>
      </trkpt>
      <trkpt lat="47.5023" lon="6.76705">
        <ele>402</ele>
        <time>2016-02-14T08:30:03.000Z</time>
      </trkpt>
      <trkpt lat="47.50229" lon="6.76702">
        <ele>402</ele>
        <time>2016-02-14T08:30:04.000Z</time>
      </trkpt>
      <trkpt lat="47.50227" lon="6.76698">
        <ele>402</ele>
        <time>2016-02-14T08:30:05.000Z</time>
      </trkpt>
      <trkpt lat="47.50226" lon="6.76695">
        <ele>402</ele>
        <time>2016-02-14T08:30:06.000Z</time>
      </trkpt>
      <trkpt lat="47.50225" lon="6.76691">
        <ele>401</ele>
        <time>2016-02-14T08:30:07.000Z</time>
      </trkpt>
      <trkpt lat="47.50224" lon="6.76687">
        <ele>401</ele>
        <time>2016-02-14T08:30:08.000Z</time>
      </trkpt>
      <trkpt lat="47.50222" lon="6.76682">
        <ele>401</ele>
        <time>2016-02-14T08:30:09.000Z</time>
      </trkpt>
      <trkpt lat="47.50221" lon="6.76677">
        <ele>401</ele>
        <time>2016-02-14T08:30:10.000Z</time>
      </trkpt>
      <trkpt lat="47.50219" lon="6.76673">
        <ele>401</ele>
        <time>2016-02-14T08:30:11.000Z</time>
      </trkpt>
      <trkpt lat="47.50218" lon="6.76668">
        <ele>402</ele>
        <time>2016-02-14T08:30:12.000Z</time>
      </trkpt>
      <trkpt lat="47.50216" lon="6.76664">
        <ele>401</ele>
        <time>2016-02-14T08:30:13.000Z</time>
      </trkpt>
      <trkpt lat="47.50215" lon="6.76659">
        <ele>402</ele>
        <time>2016-02-14T08:30:14.000Z</time>
      </trkpt>
      <trkpt lat="47.50214" lon="6.76655">
        <ele>402</ele>
        <time>2016-02-14T08:30:15.000Z</time>
      </trkpt>
      <trkpt lat="47.50213" lon="6.76651">
        <ele>402</ele>
        <time>2016-02-14T08:30:16.000Z</time>
      </trkpt>
      <trkpt lat="47.50212" lon="6.76648">
        <ele>402</ele>
        <time>2016-02-14T08:30:17.000Z</time>
      </trkpt>
      <trkpt lat="47.50211" lon="6.76644">
        <ele>402</ele>
        <time>2016-02-14T08:30:18.000Z</time>
      </trkpt>
      <trkpt lat="47.5021" lon="6.76641">
        <ele>402</ele>
        <time>2016-02-14T08:30:19.000Z</time>
      </trkpt>
      <trkpt lat="47.50209" lon="6.76638">
        <ele>402</ele>
        <time>2016-02-14T08:30:20.000Z</time>
      </trkpt>
      <trkpt lat="47.50208" lon="6.76634">
        <ele>402</ele>
        <time>2016-02-14T08:30:21.000Z</time>
      </trkpt>
      <trkpt lat="47.50206" lon="6.7663">
        <ele>402</ele>
        <time>2016-02-14T08:30:22.000Z</time>
      </trkpt>
      <trkpt lat="47.50205" lon="6.76627">
        <ele>402</ele>
        <time>2016-02-14T08:30:23.000Z</time>
      </trkpt>
      <trkpt lat="47.50205" lon="6.76624">
        <ele>402</ele>
        <time>2016-02-14T08:30:24.000Z</time>
      </trkpt>
      <trkpt lat="47.50204" lon="6.7662">
        <ele>402</ele>
        <time>2016-02-14T08:30:25.000Z</time>
      </trkpt>
      <trkpt lat="47.50203" lon="6.76617">
        <ele>402</ele>
        <time>2016-02-14T08:30:26.000Z</time>
      </trkpt>
      <trkpt lat="47.50201" lon="6.76612">
        <ele>402</ele>
        <time>2016-02-14T08:30:27.999Z</time>
      </trkpt>
      <trkpt lat="47.502" lon="6.7661">
        <ele>403</ele>
        <time>2016-02-14T08:30:29.000Z</time>
      </trkpt>
      <trkpt lat="47.50199" lon="6.76605">
        <ele>403</ele>
        <time>2016-02-14T08:30:31.000Z</time>
      </trkpt>
      <trkpt lat="47.50198" lon="6.76603">
        <ele>403</ele>
        <time>2016-02-14T08:30:32.000Z</time>
      </trkpt>
      <trkpt lat="47.50198" lon="6.76598">
        <ele>403</ele>
        <time>2016-02-14T08:30:34.002Z</time>
      </trkpt>
      <trkpt lat="47.502" lon="6.76595">
        <ele>403</ele>
        <time>2016-02-14T08:30:35.000Z</time>
      </trkpt>
      <trkpt lat="47.50201" lon="6.76589">
        <ele>403</ele>
        <time>2016-02-14T08:30:37.000Z</time>
      </trkpt>
      <trkpt lat="47.50202" lon="6.76586">
        <ele>403</ele>
        <time>2016-02-14T08:30:38.000Z</time>
      </trkpt>
      <trkpt lat="47.50201" lon="6.76582">
        <ele>402</ele>
        <time>2016-02-14T08:30:40.000Z</time>
      </trkpt>
      <trkpt lat="47.50201" lon="6.7658">
        <ele>402</ele>
        <time>2016-02-14T08:30:41.000Z</time>
      </trkpt>
      <trkpt lat="47.50203" lon="6.76575">
        <ele>402</ele>
        <time>2016-02-14T08:30:45.000Z</time>
      </trkpt>
      <trkpt lat="47.50204" lon="6.76575">
        <ele>402</ele>
        <time>2016-02-14T08:30:46.000Z</time>
      </trkpt>
      <trkpt lat="47.50207" lon="6.76571">
        <ele>401</ele>
        <time>2016-02-14T08:30:48.000Z</time>
      </trkpt>
      <trkpt lat="47.50208" lon="6.76569">
        <ele>401</ele>
        <time>2016-02-14T08:30:49.000Z</time>
      </trkpt>
      <trkpt lat="47.50208" lon="6.76564">
        <ele>401</ele>
        <time>2016-02-14T08:30:51.000Z</time>
      </trkpt>
      <trkpt lat="47.50208" lon="6.76561">
        <ele>401</ele>
        <time>2016-02-14T08:30:52.000Z</time>
      </trkpt>
      <trkpt lat="47.50209" lon="6.76559">
        <ele>401</ele>
        <time>2016-02-14T08:30:53.000Z</time>
      </trkpt>
      <trkpt lat="47.5021" lon="6.76555">
        <ele>401</ele>
        <time>2016-02-14T08:30:54.000Z</time>
      </trkpt>
      <trkpt lat="47.50213" lon="6.7655">
        <ele>401</ele>
        <time>2016-02-14T08:30:56.000Z</time>
      </trkpt>
      <trkpt lat="47.50214" lon="6.76548">
        <ele>401</ele>
        <time>2016-02-14T08:30:57.000Z</time>
      </trkpt>
      <trkpt lat="47.50215" lon="6.76543">
        <ele>400</ele>
        <time>2016-02-14T08:30:59.000Z</time>
      </trkpt>
      <trkpt lat="47.50215" lon="6.76539">
        <ele>400</ele>
        <time>2016-02-14T08:31:00.000Z</time>
      </trkpt>
      <trkpt lat="47.50215" lon="6.76535">
        <ele>400</ele>
        <time>2016-02-14T08:31:01.000Z</time>
      </trkpt>
      <trkpt lat="47.50214" lon="6.76529">
        <ele>400</ele>
        <time>2016-02-14T08:31:02.000Z</time>
      </trkpt>
      <trkpt lat="47.50213" lon="6.76523">
        <ele>400</ele>
        <time>2016-02-14T08:31:03.000Z</time>
      </trkpt>
      <trkpt lat="47.50212" lon="6.76517">
        <ele>400</ele>
        <time>2016-02-14T08:31:04.000Z</time>
      </trkpt>
      <trkpt lat="47.5021" lon="6.76512">
        <ele>400</ele>
        <time>2016-02-14T08:31:05.000Z</time>
      </trkpt>
      <trkpt lat="47.50208" lon="6.76508">
        <ele>400</ele>
        <time>2016-02-14T08:31:06.000Z</time>
      </trkpt>
      <trkpt lat="47.50207" lon="6.76504">
        <ele>400</ele>
        <time>2016-02-14T08:31:07.000Z</time>
      </trkpt>
      <trkpt lat="47.50206" lon="6.765">
        <ele>400</ele>
        <time>2016-02-14T08:31:08.000Z</time>
      </trkpt>
      <trkpt lat="47.50206" lon="6.76497">
        <ele>397</ele>
        <time>2016-02-14T08:31:09.000Z</time>
      </trkpt>
      <trkpt lat="47.50205" lon="6.76492">
        <ele>397</ele>
        <time>2016-02-14T08:31:10.000Z</time>
      </trkpt>
      <trkpt lat="47.50205" lon="6.76488">
        <ele>397</ele>
        <time>2016-02-14T08:31:11.000Z</time>
      </trkpt>
      <trkpt lat="47.50204" lon="6.76482">
        <ele>397</ele>
        <time>2016-02-14T08:31:12.000Z</time>
      </trkpt>
      <trkpt lat="47.50203" lon="6.76476">
        <ele>397</ele>
        <time>2016-02-14T08:31:13.000Z</time>
      </trkpt>
      <trkpt lat="47.50202" lon="6.76468">
        <ele>396</ele>
        <time>2016-02-14T08:31:14.000Z</time>
      </trkpt>
      <trkpt lat="47.50196" lon="6.7645">
        <ele>396</ele>
        <time>2016-02-14T08:31:15.000Z</time>
      </trkpt>
      <trkpt lat="47.50194" lon="6.76442">
        <ele>396</ele>
        <time>2016-02-14T08:31:16.000Z</time>
      </trkpt>
      <trkpt lat="47.50191" lon="6.76433">
        <ele>396</ele>
        <time>2016-02-14T08:31:17.000Z</time>
      </trkpt>
      <trkpt lat="47.5019" lon="6.76424">
        <ele>396</ele>
        <time>2016-02-14T08:31:18.000Z</time>
      </trkpt>
      <trkpt lat="47.50185" lon="6.76413">
        <ele>393</ele>
        <time>2016-02-14T08:31:19.000Z</time>
      </trkpt>
      <trkpt lat="47.50182" lon="6.76407">
        <ele>394</ele>
        <time>2016-02-14T08:31:20.000Z</time>
      </trkpt>
      <trkpt lat="47.50178" lon="6.76398">
        <ele>393</ele>
        <time>2016-02-14T08:31:21.000Z</time>
      </trkpt>
      <trkpt lat="47.50175" lon="6.7639">
        <ele>392</ele>
        <time>2016-02-14T08:31:22.000Z</time>
      </trkpt>
      <trkpt lat="47.50174" lon="6.76383">
        <ele>392</ele>
        <time>2016-02-14T08:31:23.000Z</time>
      </trkpt>
      <trkpt lat="47.50171" lon="6.76377">
        <ele>391</ele>
        <time>2016-02-14T08:31:24.000Z</time>
      </trkpt>
      <trkpt lat="47.50165" lon="6.76367">
        <ele>399</ele>
        <time>2016-02-14T08:31:25.000Z</time>
      </trkpt>
      <trkpt lat="47.50162" lon="6.7636">
        <ele>398</ele>
        <time>2016-02-14T08:31:26.000Z</time>
      </trkpt>
      <trkpt lat="47.50163" lon="6.76354">
        <ele>397</ele>
        <time>2016-02-14T08:31:27.000Z</time>
      </trkpt>
      <trkpt lat="47.50163" lon="6.76348">
        <ele>396</ele>
        <time>2016-02-14T08:31:28.000Z</time>
      </trkpt>
      <trkpt lat="47.50162" lon="6.76341">
        <ele>395</ele>
        <time>2016-02-14T08:31:29.000Z</time>
      </trkpt>
      <trkpt lat="47.50161" lon="6.76335">
        <ele>394</ele>
        <time>2016-02-14T08:31:30.000Z</time>
      </trkpt>
      <trkpt lat="47.50158" lon="6.76328">
        <ele>393</ele>
        <time>2016-02-14T08:31:31.000Z</time>
      </trkpt>
      <trkpt lat="47.50157" lon="6.76323">
        <ele>394</ele>
        <time>2016-02-14T08:31:32.000Z</time>
      </trkpt>
      <trkpt lat="47.50153" lon="6.76317">
        <ele>395</ele>
        <time>2016-02-14T08:31:33.000Z</time>
      </trkpt>
      <trkpt lat="47.5015" lon="6.76311">
        <ele>395</ele>
        <time>2016-02-14T08:31:34.000Z</time>
      </trkpt>
      <trkpt lat="47.50151" lon="6.76306">
        <ele>395</ele>
        <time>2016-02-14T08:31:35.000Z</time>
      </trkpt>
      <trkpt lat="47.5015" lon="6.763">
        <ele>395</ele>
        <time>2016-02-14T08:31:36.000Z</time>
      </trkpt>
      <trkpt lat="47.50148" lon="6.76293">
        <ele>395</ele>
        <time>2016-02-14T08:31:37.000Z</time>
      </trkpt>
      <trkpt lat="47.50147" lon="6.76289">
        <ele>395</ele>
        <time>2016-02-14T08:31:38.000Z</time>
      </trkpt>
      <trkpt lat="47.50146" lon="6.7628">
        <ele>395</ele>
        <time>2016-02-14T08:31:39.000Z</time>
      </trkpt>
      <trkpt lat="47.50144" lon="6.76271">
        <ele>394</ele>
        <time>2016-02-14T08:31:40.000Z</time>
      </trkpt>
      <trkpt lat="47.50143" lon="6.7625">
        <ele>389</ele>
        <time>2016-02-14T08:31:41.000Z</time>
      </trkpt>
      <trkpt lat="47.50142" lon="6.7624">
        <ele>390</ele>
        <time>2016-02-14T08:31:42.000Z</time>
      </trkpt>
      <trkpt lat="47.50141" lon="6.76227">
        <ele>390</ele>
        <time>2016-02-14T08:31:43.000Z</time>
      </trkpt>
      <trkpt lat="47.50137" lon="6.76214">
        <ele>389</ele>
        <time>2016-02-14T08:31:44.000Z</time>
      </trkpt>
      <trkpt lat="47.50136" lon="6.76204">
        <ele>389</ele>
        <time>2016-02-14T08:31:45.000Z</time>
      </trkpt>
      <trkpt lat="47.50133" lon="6.76192">
        <ele>389</ele>
        <time>2016-02-14T08:31:46.000Z</time>
      </trkpt>
      <trkpt lat="47.5013" lon="6.7618">
        <ele>389</ele>
        <time>2016-02-14T08:31:47.000Z</time>
      </trkpt>
      <trkpt lat="47.50125" lon="6.76171">
        <ele>389</ele>
        <time>2016-02-14T08:31:48.000Z</time>
      </trkpt>
      <trkpt lat="47.50124" lon="6.76163">
        <ele>385</ele>
        <time>2016-02-14T08:31:49.000Z</time>
      </trkpt>
      <trkpt lat="47.5012" lon="6.76149">
        <ele>385</ele>
        <time>2016-02-14T08:31:50.000Z</time>
      </trkpt>
      <trkpt lat="47.5012" lon="6.7614">
        <ele>385</ele>
        <time>2016-02-14T08:31:51.000Z</time>
      </trkpt>
      <trkpt lat="47.5012" lon="6.76127">
        <ele>385</ele>
        <time>2016-02-14T08:31:52.000Z</time>
      </trkpt>
      <trkpt lat="47.50118" lon="6.76117">
        <ele>384</ele>
        <time>2016-02-14T08:31:53.000Z</time>
      </trkpt>
      <trkpt lat="47.50115" lon="6.76104">
        <ele>385</ele>
        <time>2016-02-14T08:31:54.000Z</time>
      </trkpt>
      <trkpt lat="47.50111" lon="6.7609">
        <ele>385</ele>
        <time>2016-02-14T08:31:55.000Z</time>
      </trkpt>
      <trkpt lat="47.50105" lon="6.76076">
        <ele>382</ele>
        <time>2016-02-14T08:31:56.000Z</time>
      </trkpt>
      <trkpt lat="47.50105" lon="6.76064">
        <ele>381</ele>
        <time>2016-02-14T08:31:57.000Z</time>
      </trkpt>
      <trkpt lat="47.50104" lon="6.76052">
        <ele>381</ele>
        <time>2016-02-14T08:31:58.000Z</time>
      </trkpt>
      <trkpt lat="47.50101" lon="6.76041">
        <ele>380</ele>
        <time>2016-02-14T08:31:59.000Z</time>
      </trkpt>
      <trkpt lat="47.50101" lon="6.76027">
        <ele>379</ele>
        <time>2016-02-14T08:32:00.000Z</time>
      </trkpt>
      <trkpt lat="47.50098" lon="6.76014">
        <ele>379</ele>
        <time>2016-02-14T08:32:01.000Z</time>
      </trkpt>
      <trkpt lat="47.50097" lon="6.75996">
        <ele>377</ele>
        <time>2016-02-14T08:32:02.000Z</time>
      </trkpt>
      <trkpt lat="47.50093" lon="6.75989">
        <ele>377</ele>
        <time>2016-02-14T08:32:03.000Z</time>
      </trkpt>
      <trkpt lat="47.50089" lon="6.75982">
        <ele>376</ele>
        <time>2016-02-14T08:32:04.000Z</time>
      </trkpt>
      <trkpt lat="47.50085" lon="6.75975">
        <ele>375</ele>
        <time>2016-02-14T08:32:05.000Z</time>
      </trkpt>
      <trkpt lat="47.50079" lon="6.75969">
        <ele>379</ele>
        <time>2016-02-14T08:32:06.000Z</time>
      </trkpt>
      <trkpt lat="47.50075" lon="6.75963">
        <ele>378</ele>
        <time>2016-02-14T08:32:07.000Z</time>
      </trkpt>
      <trkpt lat="47.50071" lon="6.75958">
        <ele>378</ele>
        <time>2016-02-14T08:32:08.000Z</time>
      </trkpt>
      <trkpt lat="47.50067" lon="6.75951">
        <ele>378</ele>
        <time>2016-02-14T08:32:09.000Z</time>
      </trkpt>
      <trkpt lat="47.50063" lon="6.75946">
        <ele>378</ele>
        <time>2016-02-14T08:32:10.000Z</time>
      </trkpt>
      <trkpt lat="47.50059" lon="6.75939">
        <ele>378</ele>
        <time>2016-02-14T08:32:11.000Z</time>
      </trkpt>
      <trkpt lat="47.50055" lon="6.7593">
        <ele>377</ele>
        <time>2016-02-14T08:32:12.000Z</time>
      </trkpt>
      <trkpt lat="47.5005" lon="6.75924">
        <ele>377</ele>
        <time>2016-02-14T08:32:13.000Z</time>
      </trkpt>
      <trkpt lat="47.50044" lon="6.75915">
        <ele>376</ele>
        <time>2016-02-14T08:32:14.000Z</time>
      </trkpt>
      <trkpt lat="47.50039" lon="6.75909">
        <ele>376</ele>
        <time>2016-02-14T08:32:15.000Z</time>
      </trkpt>
      <trkpt lat="47.50035" lon="6.75903">
        <ele>376</ele>
        <time>2016-02-14T08:32:16.000Z</time>
      </trkpt>
      <trkpt lat="47.50031" lon="6.75896">
        <ele>376</ele>
        <time>2016-02-14T08:32:17.000Z</time>
      </trkpt>
      <trkpt lat="47.50027" lon="6.75892">
        <ele>376</ele>
        <time>2016-02-14T08:32:18.000Z</time>
      </trkpt>
      <trkpt lat="47.50022" lon="6.75883">
        <ele>377</ele>
        <time>2016-02-14T08:32:19.000Z</time>
      </trkpt>
      <trkpt lat="47.50017" lon="6.75868">
        <ele>377</ele>
        <time>2016-02-14T08:32:20.000Z</time>
      </trkpt>
      <trkpt lat="47.50011" lon="6.75859">
        <ele>377</ele>
        <time>2016-02-14T08:32:21.000Z</time>
      </trkpt>
      <trkpt lat="47.50007" lon="6.75851">
        <ele>377</ele>
        <time>2016-02-14T08:32:22.000Z</time>
      </trkpt>
      <trkpt lat="47.50001" lon="6.75841">
        <ele>378</ele>
        <time>2016-02-14T08:32:23.000Z</time>
      </trkpt>
      <trkpt lat="47.49997" lon="6.7583">
        <ele>378</ele>
        <time>2016-02-14T08:32:24.000Z</time>
      </trkpt>
      <trkpt lat="47.49994" lon="6.75823">
        <ele>377</ele>
        <time>2016-02-14T08:32:25.000Z</time>
      </trkpt>
      <trkpt lat="47.49991" lon="6.75817">
        <ele>376</ele>
        <time>2016-02-14T08:32:26.000Z</time>
      </trkpt>
      <trkpt lat="47.49988" lon="6.75809">
        <ele>376</ele>
        <time>2016-02-14T08:32:27.000Z</time>
      </trkpt>
      <trkpt lat="47.49983" lon="6.75802">
        <ele>375</ele>
        <time>2016-02-14T08:32:28.000Z</time>
      </trkpt>
      <trkpt lat="47.49978" lon="6.75795">
        <ele>375</ele>
        <time>2016-02-14T08:32:29.000Z</time>
      </trkpt>
      <trkpt lat="47.49973" lon="6.75787">
        <ele>374</ele>
        <time>2016-02-14T08:32:30.000Z</time>
      </trkpt>
      <trkpt lat="47.49965" lon="6.7578">
        <ele>374</ele>
        <time>2016-02-14T08:32:31.000Z</time>
      </trkpt>
      <trkpt lat="47.49958" lon="6.75771">
        <ele>374</ele>
        <time>2016-02-14T08:32:32.000Z</time>
      </trkpt>
      <trkpt lat="47.49955" lon="6.75765">
        <ele>373</ele>
        <time>2016-02-14T08:32:33.000Z</time>
      </trkpt>
      <trkpt lat="47.49949" lon="6.7576">
        <ele>373</ele>
        <time>2016-02-14T08:32:34.000Z</time>
      </trkpt>
      <trkpt lat="47.49944" lon="6.75754">
        <ele>372</ele>
        <time>2016-02-14T08:32:35.000Z</time>
      </trkpt>
      <trkpt lat="47.4994" lon="6.75748">
        <ele>370</ele>
        <time>2016-02-14T08:32:36.000Z</time>
      </trkpt>
      <trkpt lat="47.49937" lon="6.75741">
        <ele>370</ele>
        <time>2016-02-14T08:32:37.000Z</time>
      </trkpt>
      <trkpt lat="47.49934" lon="6.75738">
        <ele>370</ele>
        <time>2016-02-14T08:32:38.000Z</time>
      </trkpt>
      <trkpt lat="47.49928" lon="6.7573">
        <ele>370</ele>
        <time>2016-02-14T08:32:39.000Z</time>
      </trkpt>
      <trkpt lat="47.49922" lon="6.75723">
        <ele>370</ele>
        <time>2016-02-14T08:32:40.000Z</time>
      </trkpt>
      <trkpt lat="47.49917" lon="6.75719">
        <ele>370</ele>
        <time>2016-02-14T08:32:41.000Z</time>
      </trkpt>
      <trkpt lat="47.49914" lon="6.75718">
        <ele>365</ele>
        <time>2016-02-14T08:32:42.000Z</time>
      </trkpt>
      <trkpt lat="47.4991" lon="6.75718">
        <ele>365</ele>
        <time>2016-02-14T08:32:43.000Z</time>
      </trkpt>
      <trkpt lat="47.49906" lon="6.75719">
        <ele>365</ele>
        <time>2016-02-14T08:32:44.000Z</time>
      </trkpt>
      <trkpt lat="47.49902" lon="6.75722">
        <ele>365</ele>
        <time>2016-02-14T08:32:45.000Z</time>
      </trkpt>
      <trkpt lat="47.49898" lon="6.75723">
        <ele>364</ele>
        <time>2016-02-14T08:32:46.000Z</time>
      </trkpt>
      <trkpt lat="47.49893" lon="6.75725">
        <ele>364</ele>
        <time>2016-02-14T08:32:47.000Z</time>
      </trkpt>
      <trkpt lat="47.49887" lon="6.75726">
        <ele>364</ele>
        <time>2016-02-14T08:32:48.000Z</time>
      </trkpt>
      <trkpt lat="47.49883" lon="6.75727">
        <ele>363</ele>
        <time>2016-02-14T08:32:49.000Z</time>
      </trkpt>
      <trkpt lat="47.49873" lon="6.75734">
        <ele>363</ele>
        <time>2016-02-14T08:32:50.000Z</time>
      </trkpt>
      <trkpt lat="47.49865" lon="6.75738">
        <ele>362</ele>
        <time>2016-02-14T08:32:51.000Z</time>
      </trkpt>
      <trkpt lat="47.49857" lon="6.75746">
        <ele>361</ele>
        <time>2016-02-14T08:32:52.000Z</time>
      </trkpt>
      <trkpt lat="47.49849" lon="6.7575">
        <ele>361</ele>
        <time>2016-02-14T08:32:53.000Z</time>
      </trkpt>
      <trkpt lat="47.49842" lon="6.75751">
        <ele>361</ele>
        <time>2016-02-14T08:32:54.000Z</time>
      </trkpt>
      <trkpt lat="47.49834" lon="6.75751">
        <ele>359</ele>
        <time>2016-02-14T08:32:55.000Z</time>
      </trkpt>
      <trkpt lat="47.49825" lon="6.75753">
        <ele>359</ele>
        <time>2016-02-14T08:32:56.000Z</time>
      </trkpt>
      <trkpt lat="47.49811" lon="6.75757">
        <ele>360</ele>
        <time>2016-02-14T08:32:57.000Z</time>
      </trkpt>
      <trkpt lat="47.49799" lon="6.75762">
        <ele>359</ele>
        <time>2016-02-14T08:32:58.000Z</time>
      </trkpt>
      <trkpt lat="47.49791" lon="6.75765">
        <ele>359</ele>
        <time>2016-02-14T08:32:59.000Z</time>
      </trkpt>
      <trkpt lat="47.49783" lon="6.75769">
        <ele>359</ele>
        <time>2016-02-14T08:33:00.000Z</time>
      </trkpt>
      <trkpt lat="47.49774" lon="6.7577">
        <ele>358</ele>
        <time>2016-02-14T08:33:01.000Z</time>
      </trkpt>
      <trkpt lat="47.49765" lon="6.7577">
        <ele>358</ele>
        <time>2016-02-14T08:33:02.000Z</time>
      </trkpt>
      <trkpt lat="47.49754" lon="6.7577">
        <ele>357</ele>
        <time>2016-02-14T08:33:03.000Z</time>
      </trkpt>
      <trkpt lat="47.49744" lon="6.75768">
        <ele>353</ele>
        <time>2016-02-14T08:33:04.000Z</time>
      </trkpt>
      <trkpt lat="47.49736" lon="6.75767">
        <ele>353</ele>
        <time>2016-02-14T08:33:05.000Z</time>
      </trkpt>
      <trkpt lat="47.49729" lon="6.75767">
        <ele>353</ele>
        <time>2016-02-14T08:33:06.000Z</time>
      </trkpt>
      <trkpt lat="47.49725" lon="6.75769">
        <ele>353</ele>
        <time>2016-02-14T08:33:07.000Z</time>
      </trkpt>
      <trkpt lat="47.49723" lon="6.75769">
        <ele>353</ele>
        <time>2016-02-14T08:33:08.000Z</time>
      </trkpt>
      <trkpt lat="47.49718" lon="6.75771">
        <ele>353</ele>
        <time>2016-02-14T08:33:09.000Z</time>
      </trkpt>
      <trkpt lat="47.49714" lon="6.75771">
        <ele>353</ele>
        <time>2016-02-14T08:33:10.000Z</time>
      </trkpt>
      <trkpt lat="47.49707" lon="6.75772">
        <ele>353</ele>
        <time>2016-02-14T08:33:11.000Z</time>
      </trkpt>
      <trkpt lat="47.49701" lon="6.75775">
        <ele>353</ele>
        <time>2016-02-14T08:33:12.000Z</time>
      </trkpt>
      <trkpt lat="47.49696" lon="6.75776">
        <ele>353</ele>
        <time>2016-02-14T08:33:13.000Z</time>
      </trkpt>
      <trkpt lat="47.49689" lon="6.75775">
        <ele>352</ele>
        <time>2016-02-14T08:33:14.000Z</time>
      </trkpt>
      <trkpt lat="47.49682" lon="6.75776">
        <ele>352</ele>
        <time>2016-02-14T08:33:15.000Z</time>
      </trkpt>
      <trkpt lat="47.49677" lon="6.75776">
        <ele>351</ele>
        <time>2016-02-14T08:33:16.000Z</time>
      </trkpt>
      <trkpt lat="47.49671" lon="6.75778">
        <ele>352</ele>
        <time>2016-02-14T08:33:17.000Z</time>
      </trkpt>
      <trkpt lat="47.49664" lon="6.75782">
        <ele>347</ele>
        <time>2016-02-14T08:33:18.000Z</time>
      </trkpt>
      <trkpt lat="47.49658" lon="6.75783">
        <ele>347</ele>
        <time>2016-02-14T08:33:19.000Z</time>
      </trkpt>
      <trkpt lat="47.49653" lon="6.75786">
        <ele>347</ele>
        <time>2016-02-14T08:33:20.000Z</time>
      </trkpt>
      <trkpt lat="47.49647" lon="6.75787">
        <ele>347</ele>
        <time>2016-02-14T08:33:21.000Z</time>
      </trkpt>
      <trkpt lat="47.49641" lon="6.75788">
        <ele>347</ele>
        <time>2016-02-14T08:33:22.000Z</time>
      </trkpt>
      <trkpt lat="47.49635" lon="6.75789">
        <ele>347</ele>
        <time>2016-02-14T08:33:23.000Z</time>
      </trkpt>
      <trkpt lat="47.4963" lon="6.7579">
        <ele>346</ele>
        <time>2016-02-14T08:33:24.000Z</time>
      </trkpt>
      <trkpt lat="47.49624" lon="6.7579">
        <ele>346</ele>
        <time>2016-02-14T08:33:25.000Z</time>
      </trkpt>
      <trkpt lat="47.49618" lon="6.7579">
        <ele>346</ele>
        <time>2016-02-14T08:33:26.000Z</time>
      </trkpt>
      <trkpt lat="47.4961" lon="6.75788">
        <ele>345</ele>
        <time>2016-02-14T08:33:27.000Z</time>
      </trkpt>
      <trkpt lat="47.49605" lon="6.75788">
        <ele>345</ele>
        <time>2016-02-14T08:33:28.000Z</time>
      </trkpt>
      <trkpt lat="47.49597" lon="6.75785">
        <ele>344</ele>
        <time>2016-02-14T08:33:29.000Z</time>
      </trkpt>
      <trkpt lat="47.49588" lon="6.75779">
        <ele>343</ele>
        <time>2016-02-14T08:33:30.000Z</time>
      </trkpt>
      <trkpt lat="47.49581" lon="6.75776">
        <ele>336</ele>
        <time>2016-02-14T08:33:31.000Z</time>
      </trkpt>
      <trkpt lat="47.49573" lon="6.75771">
        <ele>336</ele>
        <time>2016-02-14T08:33:32.000Z</time>
      </trkpt>
      <trkpt lat="47.49569" lon="6.75772">
        <ele>336</ele>
        <time>2016-02-14T08:33:33.000Z</time>
      </trkpt>
      <trkpt lat="47.49563" lon="6.75768">
        <ele>335</ele>
        <time>2016-02-14T08:33:34.000Z</time>
      </trkpt>
      <trkpt lat="47.49562" lon="6.75765">
        <ele>335</ele>
        <time>2016-02-14T08:33:35.000Z</time>
      </trkpt>
      <trkpt lat="47.49561" lon="6.75762">
        <ele>335</ele>
        <time>2016-02-14T08:33:36.000Z</time>
      </trkpt>
      <trkpt lat="47.49559" lon="6.75757">
        <ele>335</ele>
        <time>2016-02-14T08:33:39.000Z</time>
      </trkpt>
      <trkpt lat="47.49559" lon="6.75755">
        <ele>335</ele>
        <time>2016-02-14T08:33:40.000Z</time>
      </trkpt>
      <trkpt lat="47.49562" lon="6.75752">
        <ele>335</ele>
        <time>2016-02-14T08:33:41.000Z</time>
      </trkpt>
      <trkpt lat="47.49563" lon="6.75749">
        <ele>329</ele>
        <time>2016-02-14T08:33:42.000Z</time>
      </trkpt>
      <trkpt lat="47.49565" lon="6.75747">
        <ele>329</ele>
        <time>2016-02-14T08:33:43.000Z</time>
      </trkpt>
      <trkpt lat="47.49569" lon="6.75744">
        <ele>330</ele>
        <time>2016-02-14T08:33:44.000Z</time>
      </trkpt>
      <trkpt lat="47.49573" lon="6.75741">
        <ele>330</ele>
        <time>2016-02-14T08:33:45.000Z</time>
      </trkpt>
      <trkpt lat="47.49578" lon="6.75737">
        <ele>330</ele>
        <time>2016-02-14T08:33:46.000Z</time>
      </trkpt>
      <trkpt lat="47.49582" lon="6.75733">
        <ele>329</ele>
        <time>2016-02-14T08:33:47.000Z</time>
      </trkpt>
      <trkpt lat="47.49586" lon="6.75729">
        <ele>332</ele>
        <time>2016-02-14T08:33:48.000Z</time>
      </trkpt>
      <trkpt lat="47.49589" lon="6.7572">
        <ele>331</ele>
        <time>2016-02-14T08:33:49.000Z</time>
      </trkpt>
      <trkpt lat="47.49592" lon="6.75713">
        <ele>331</ele>
        <time>2016-02-14T08:33:50.000Z</time>
      </trkpt>
      <trkpt lat="47.49596" lon="6.75706">
        <ele>330</ele>
        <time>2016-02-14T08:33:51.000Z</time>
      </trkpt>
      <trkpt lat="47.49599" lon="6.757">
        <ele>329</ele>
        <time>2016-02-14T08:33:52.000Z</time>
      </trkpt>
      <trkpt lat="47.49596" lon="6.75691">
        <ele>328</ele>
        <time>2016-02-14T08:33:53.000Z</time>
      </trkpt>
      <trkpt lat="47.49593" lon="6.75683">
        <ele>327</ele>
        <time>2016-02-14T08:33:54.000Z</time>
      </trkpt>
      <trkpt lat="47.4959" lon="6.75677">
        <ele>325</ele>
        <time>2016-02-14T08:33:55.000Z</time>
      </trkpt>
      <trkpt lat="47.49586" lon="6.75671">
        <ele>323</ele>
        <time>2016-02-14T08:33:56.000Z</time>
      </trkpt>
      <trkpt lat="47.49581" lon="6.75665">
        <ele>321</ele>
        <time>2016-02-14T08:33:57.000Z</time>
      </trkpt>
      <trkpt lat="47.49574" lon="6.75666">
        <ele>321</ele>
        <time>2016-02-14T08:33:58.000Z</time>
      </trkpt>
      <trkpt lat="47.49569" lon="6.75668">
        <ele>323</ele>
        <time>2016-02-14T08:33:59.000Z</time>
      </trkpt>
      <trkpt lat="47.49564" lon="6.75673">
        <ele>323</ele>
        <time>2016-02-14T08:34:00.000Z</time>
      </trkpt>
      <trkpt lat="47.4956" lon="6.75679">
        <ele>324</ele>
        <time>2016-02-14T08:34:01.000Z</time>
      </trkpt>
      <trkpt lat="47.49556" lon="6.75684">
        <ele>324</ele>
        <time>2016-02-14T08:34:02.000Z</time>
      </trkpt>
      <trkpt lat="47.49552" lon="6.75689">
        <ele>324</ele>
        <time>2016-02-14T08:34:03.000Z</time>
      </trkpt>
      <trkpt lat="47.49547" lon="6.75695">
        <ele>324</ele>
        <time>2016-02-14T08:34:04.000Z</time>
      </trkpt>
      <trkpt lat="47.49543" lon="6.757">
        <ele>325</ele>
        <time>2016-02-14T08:34:04.999Z</time>
      </trkpt>
      <trkpt lat="47.49539" lon="6.75706">
        <ele>325</ele>
        <time>2016-02-14T08:34:06.000Z</time>
      </trkpt>
      <trkpt lat="47.49534" lon="6.75711">
        <ele>325</ele>
        <time>2016-02-14T08:34:07.000Z</time>
      </trkpt>
      <trkpt lat="47.49529" lon="6.75716">
        <ele>325</ele>
        <time>2016-02-14T08:34:08.000Z</time>
      </trkpt>
      <trkpt lat="47.49523" lon="6.7572">
        <ele>325</ele>
        <time>2016-02-14T08:34:09.000Z</time>
      </trkpt>
      <trkpt lat="47.49518" lon="6.75723">
        <ele>325</ele>
        <time>2016-02-14T08:34:10.000Z</time>
      </trkpt>
      <trkpt lat="47.49512" lon="6.75727">
        <ele>325</ele>
        <time>2016-02-14T08:34:11.000Z</time>
      </trkpt>
      <trkpt lat="47.49507" lon="6.7573">
        <ele>325</ele>
        <time>2016-02-14T08:34:11.999Z</time>
      </trkpt>
      <trkpt lat="47.49501" lon="6.75732">
        <ele>324</ele>
        <time>2016-02-14T08:34:13.000Z</time>
      </trkpt>
      <trkpt lat="47.49495" lon="6.75735">
        <ele>323</ele>
        <time>2016-02-14T08:34:14.000Z</time>
      </trkpt>
      <trkpt lat="47.49489" lon="6.75736">
        <ele>322</ele>
        <time>2016-02-14T08:34:15.000Z</time>
      </trkpt>
      <trkpt lat="47.49483" lon="6.75734">
        <ele>322</ele>
        <time>2016-02-14T08:34:16.000Z</time>
      </trkpt>
      <trkpt lat="47.49477" lon="6.75731">
        <ele>322</ele>
        <time>2016-02-14T08:34:17.001Z</time>
      </trkpt>
      <trkpt lat="47.49474" lon="6.7572">
        <ele>321</ele>
        <time>2016-02-14T08:34:18.000Z</time>
      </trkpt>
      <trkpt lat="47.49471" lon="6.75711">
        <ele>321</ele>
        <time>2016-02-14T08:34:19.000Z</time>
      </trkpt>
      <trkpt lat="47.49469" lon="6.75704">
        <ele>321</ele>
        <time>2016-02-14T08:34:20.000Z</time>
      </trkpt>
      <trkpt lat="47.49467" lon="6.75698">
        <ele>321</ele>
        <time>2016-02-14T08:34:21.000Z</time>
      </trkpt>
      <trkpt lat="47.49465" lon="6.75691">
        <ele>321</ele>
        <time>2016-02-14T08:34:21.999Z</time>
      </trkpt>
      <trkpt lat="47.49457" lon="6.75695">
        <ele>321</ele>
        <time>2016-02-14T08:34:23.000Z</time>
      </trkpt>
      <trkpt lat="47.49454" lon="6.75692">
        <ele>321</ele>
        <time>2016-02-14T08:34:24.000Z</time>
      </trkpt>
      <trkpt lat="47.49451" lon="6.75696">
        <ele>321</ele>
        <time>2016-02-14T08:34:25.000Z</time>
      </trkpt>
      <trkpt lat="47.49447" lon="6.75699">
        <ele>321</ele>
        <time>2016-02-14T08:34:26.000Z</time>
      </trkpt>
      <trkpt lat="47.49445" lon="6.75693">
        <ele>321</ele>
        <time>2016-02-14T08:34:27.000Z</time>
      </trkpt>
      <trkpt lat="47.49441" lon="6.75689">
        <ele>320</ele>
        <time>2016-02-14T08:34:28.000Z</time>
      </trkpt>
      <trkpt lat="47.49438" lon="6.75685">
        <ele>320</ele>
        <time>2016-02-14T08:34:29.000Z</time>
      </trkpt>
      <trkpt lat="47.49435" lon="6.75681">
        <ele>320</ele>
        <time>2016-02-14T08:34:30.000Z</time>
      </trkpt>
      <trkpt lat="47.49433" lon="6.75674">
        <ele>320</ele>
        <time>2016-02-14T08:34:31.000Z</time>
      </trkpt>
      <trkpt lat="47.49431" lon="6.75669">
        <ele>320</ele>
        <time>2016-02-14T08:34:33.000Z</time>
      </trkpt>
      <trkpt lat="47.49429" lon="6.75667">
        <ele>320</ele>
        <time>2016-02-14T08:34:34.000Z</time>
      </trkpt>
      <trkpt lat="47.49426" lon="6.75668">
        <ele>320</ele>
        <time>2016-02-14T08:34:35.000Z</time>
      </trkpt>
      <trkpt lat="47.49422" lon="6.75672">
        <ele>320</ele>
        <time>2016-02-14T08:34:36.000Z</time>
      </trkpt>
      <trkpt lat="47.49418" lon="6.75676">
        <ele>320</ele>
        <time>2016-02-14T08:34:37.000Z</time>
      </trkpt>
      <trkpt lat="47.49415" lon="6.7568">
        <ele>319</ele>
        <time>2016-02-14T08:34:38.000Z</time>
      </trkpt>
      <trkpt lat="47.49412" lon="6.75682">
        <ele>319</ele>
        <time>2016-02-14T08:34:39.000Z</time>
      </trkpt>
      <trkpt lat="47.49409" lon="6.75686">
        <ele>319</ele>
        <time>2016-02-14T08:34:40.000Z</time>
      </trkpt>
      <trkpt lat="47.49404" lon="6.7569">
        <ele>319</ele>
        <time>2016-02-14T08:34:41.000Z</time>
      </trkpt>
      <trkpt lat="47.49399" lon="6.75693">
        <ele>319</ele>
        <time>2016-02-14T08:34:42.000Z</time>
      </trkpt>
      <trkpt lat="47.49393" lon="6.75697">
        <ele>319</ele>
        <time>2016-02-14T08:34:43.000Z</time>
      </trkpt>
      <trkpt lat="47.49389" lon="6.75701">
        <ele>319</ele>
        <time>2016-02-14T08:34:44.000Z</time>
      </trkpt>
      <trkpt lat="47.49386" lon="6.75703">
        <ele>319</ele>
        <time>2016-02-14T08:34:45.000Z</time>
      </trkpt>
      <trkpt lat="47.49387" lon="6.75707">
        <ele>319</ele>
        <time>2016-02-14T08:34:46.000Z</time>
      </trkpt>
      <trkpt lat="47.49386" lon="6.75711">
        <ele>319</ele>
        <time>2016-02-14T08:34:46.998Z</time>
      </trkpt>
      <trkpt lat="47.4938" lon="6.75714">
        <ele>319</ele>
        <time>2016-02-14T08:34:48.000Z</time>
      </trkpt>
      <trkpt lat="47.49377" lon="6.75717">
        <ele>319</ele>
        <time>2016-02-14T08:34:49.000Z</time>
      </trkpt>
      <trkpt lat="47.49372" lon="6.75719">
        <ele>319</ele>
        <time>2016-02-14T08:34:50.000Z</time>
      </trkpt>
      <trkpt lat="47.49368" lon="6.7572">
        <ele>319</ele>
        <time>2016-02-14T08:34:52.000Z</time>
      </trkpt>
      <trkpt lat="47.49366" lon="6.75721">
        <ele>319</ele>
        <time>2016-02-14T08:34:53.000Z</time>
      </trkpt>
      <trkpt lat="47.49362" lon="6.75722">
        <ele>319</ele>
        <time>2016-02-14T08:34:55.000Z</time>
      </trkpt>
      <trkpt lat="47.49359" lon="6.75722">
        <ele>319</ele>
        <time>2016-02-14T08:34:56.000Z</time>
      </trkpt>
      <trkpt lat="47.49356" lon="6.75723">
        <ele>319</ele>
        <time>2016-02-14T08:34:57.000Z</time>
      </trkpt>
      <trkpt lat="47.49354" lon="6.75724">
        <ele>319</ele>
        <time>2016-02-14T08:34:57.999Z</time>
      </trkpt>
      <trkpt lat="47.4935" lon="6.75727">
        <ele>319</ele>
        <time>2016-02-14T08:34:59.000Z</time>
      </trkpt>
      <trkpt lat="47.49346" lon="6.7573">
        <ele>318</ele>
        <time>2016-02-14T08:35:00.000Z</time>
      </trkpt>
      <trkpt lat="47.49341" lon="6.75735">
        <ele>318</ele>
        <time>2016-02-14T08:35:01.000Z</time>
      </trkpt>
      <trkpt lat="47.49337" lon="6.75739">
        <ele>318</ele>
        <time>2016-02-14T08:35:02.000Z</time>
      </trkpt>
      <trkpt lat="47.49324" lon="6.75754">
        <ele>318</ele>
        <time>2016-02-14T08:35:03.000Z</time>
      </trkpt>
      <trkpt lat="47.49317" lon="6.7576">
        <ele>318</ele>
        <time>2016-02-14T08:35:04.000Z</time>
      </trkpt>
      <trkpt lat="47.49311" lon="6.75767">
        <ele>318</ele>
        <time>2016-02-14T08:35:05.000Z</time>
      </trkpt>
      <trkpt lat="47.49307" lon="6.75771">
        <ele>318</ele>
        <time>2016-02-14T08:35:06.000Z</time>
      </trkpt>
      <trkpt lat="47.49301" lon="6.75776">
        <ele>318</ele>
        <time>2016-02-14T08:35:07.000Z</time>
      </trkpt>
      <trkpt lat="47.49296" lon="6.75782">
        <ele>318</ele>
        <time>2016-02-14T08:35:08.000Z</time>
      </trkpt>
      <trkpt lat="47.49291" lon="6.75789">
        <ele>318</ele>
        <time>2016-02-14T08:35:09.000Z</time>
      </trkpt>
      <trkpt lat="47.49288" lon="6.75797">
        <ele>318</ele>
        <time>2016-02-14T08:35:10.000Z</time>
      </trkpt>
      <trkpt lat="47.49282" lon="6.75803">
        <ele>318</ele>
        <time>2016-02-14T08:35:11.000Z</time>
      </trkpt>
      <trkpt lat="47.49278" lon="6.75809">
        <ele>317</ele>
        <time>2016-02-14T08:35:12.000Z</time>
      </trkpt>
      <trkpt lat="47.49275" lon="6.75817">
        <ele>317</ele>
        <time>2016-02-14T08:35:13.000Z</time>
      </trkpt>
      <trkpt lat="47.49271" lon="6.75825">
        <ele>316</ele>
        <time>2016-02-14T08:35:14.000Z</time>
      </trkpt>
      <trkpt lat="47.49264" lon="6.75833">
        <ele>315</ele>
        <time>2016-02-14T08:35:15.000Z</time>
      </trkpt>
      <trkpt lat="47.4926" lon="6.7584">
        <ele>316</ele>
        <time>2016-02-14T08:35:16.000Z</time>
      </trkpt>
      <trkpt lat="47.49255" lon="6.75847">
        <ele>316</ele>
        <time>2016-02-14T08:35:17.000Z</time>
      </trkpt>
      <trkpt lat="47.49251" lon="6.75855">
        <ele>317</ele>
        <time>2016-02-14T08:35:18.000Z</time>
      </trkpt>
      <trkpt lat="47.49247" lon="6.75862">
        <ele>317</ele>
        <time>2016-02-14T08:35:19.000Z</time>
      </trkpt>
      <trkpt lat="47.49244" lon="6.7587">
        <ele>318</ele>
        <time>2016-02-14T08:35:20.000Z</time>
      </trkpt>
      <trkpt lat="47.4924" lon="6.75879">
        <ele>318</ele>
        <time>2016-02-14T08:35:21.000Z</time>
      </trkpt>
      <trkpt lat="47.49238" lon="6.75887">
        <ele>318</ele>
        <time>2016-02-14T08:35:22.000Z</time>
      </trkpt>
      <trkpt lat="47.49233" lon="6.75895">
        <ele>318</ele>
        <time>2016-02-14T08:35:23.000Z</time>
      </trkpt>
      <trkpt lat="47.4923" lon="6.75903">
        <ele>318</ele>
        <time>2016-02-14T08:35:24.000Z</time>
      </trkpt>
      <trkpt lat="47.49226" lon="6.75911">
        <ele>318</ele>
        <time>2016-02-14T08:35:25.000Z</time>
      </trkpt>
      <trkpt lat="47.49222" lon="6.75917">
        <ele>319</ele>
        <time>2016-02-14T08:35:26.000Z</time>
      </trkpt>
      <trkpt lat="47.49218" lon="6.75923">
        <ele>319</ele>
        <time>2016-02-14T08:35:27.000Z</time>
      </trkpt>
      <trkpt lat="47.4922" lon="6.75926">
        <ele>319</ele>
        <time>2016-02-14T08:35:28.000Z</time>
      </trkpt>
      <trkpt lat="47.49217" lon="6.75932">
        <ele>320</ele>
        <time>2016-02-14T08:35:29.000Z</time>
      </trkpt>
      <trkpt lat="47.49217" lon="6.75939">
        <ele>320</ele>
        <time>2016-02-14T08:35:30.000Z</time>
      </trkpt>
      <trkpt lat="47.49209" lon="6.7595">
        <ele>320</ele>
        <time>2016-02-14T08:35:31.000Z</time>
      </trkpt>
      <trkpt lat="47.49199" lon="6.75961">
        <ele>320</ele>
        <time>2016-02-14T08:35:32.000Z</time>
      </trkpt>
      <trkpt lat="47.49197" lon="6.75968">
        <ele>320</ele>
        <time>2016-02-14T08:35:33.000Z</time>
      </trkpt>
      <trkpt lat="47.49194" lon="6.75977">
        <ele>320</ele>
        <time>2016-02-14T08:35:34.000Z</time>
      </trkpt>
      <trkpt lat="47.49191" lon="6.75984">
        <ele>320</ele>
        <time>2016-02-14T08:35:35.000Z</time>
      </trkpt>
      <trkpt lat="47.49188" lon="6.75993">
        <ele>320</ele>
        <time>2016-02-14T08:35:36.000Z</time>
      </trkpt>
      <trkpt lat="47.49183" lon="6.76001">
        <ele>320</ele>
        <time>2016-02-14T08:35:37.000Z</time>
      </trkpt>
      <trkpt lat="47.49179" lon="6.76009">
        <ele>320</ele>
        <time>2016-02-14T08:35:38.000Z</time>
      </trkpt>
      <trkpt lat="47.49177" lon="6.76015">
        <ele>320</ele>
        <time>2016-02-14T08:35:39.000Z</time>
      </trkpt>
      <trkpt lat="47.49174" lon="6.76023">
        <ele>320</ele>
        <time>2016-02-14T08:35:40.000Z</time>
      </trkpt>
      <trkpt lat="47.4917" lon="6.76031">
        <ele>320</ele>
        <time>2016-02-14T08:35:41.000Z</time>
      </trkpt>
      <trkpt lat="47.49166" lon="6.76039">
        <ele>322</ele>
        <time>2016-02-14T08:35:42.000Z</time>
      </trkpt>
      <trkpt lat="47.49163" lon="6.76047">
        <ele>322</ele>
        <time>2016-02-14T08:35:43.000Z</time>
      </trkpt>
      <trkpt lat="47.49161" lon="6.76055">
        <ele>322</ele>
        <time>2016-02-14T08:35:44.000Z</time>
      </trkpt>
      <trkpt lat="47.49158" lon="6.76063">
        <ele>322</ele>
        <time>2016-02-14T08:35:45.000Z</time>
      </trkpt>
      <trkpt lat="47.49155" lon="6.7607">
        <ele>321</ele>
        <time>2016-02-14T08:35:46.000Z</time>
      </trkpt>
      <trkpt lat="47.49152" lon="6.76078">
        <ele>321</ele>
        <time>2016-02-14T08:35:47.000Z</time>
      </trkpt>
      <trkpt lat="47.49151" lon="6.76085">
        <ele>320</ele>
        <time>2016-02-14T08:35:48.000Z</time>
      </trkpt>
      <trkpt lat="47.49149" lon="6.76094">
        <ele>321</ele>
        <time>2016-02-14T08:35:49.000Z</time>
      </trkpt>
      <trkpt lat="47.49146" lon="6.76104">
        <ele>321</ele>
        <time>2016-02-14T08:35:50.000Z</time>
      </trkpt>
      <trkpt lat="47.49144" lon="6.76113">
        <ele>321</ele>
        <time>2016-02-14T08:35:51.000Z</time>
      </trkpt>
      <trkpt lat="47.49142" lon="6.76122">
        <ele>322</ele>
        <time>2016-02-14T08:35:52.000Z</time>
      </trkpt>
      <trkpt lat="47.4914" lon="6.76132">
        <ele>322</ele>
        <time>2016-02-14T08:35:53.000Z</time>
      </trkpt>
      <trkpt lat="47.49138" lon="6.7614">
        <ele>322</ele>
        <time>2016-02-14T08:35:54.000Z</time>
      </trkpt>
      <trkpt lat="47.49136" lon="6.7615">
        <ele>322</ele>
        <time>2016-02-14T08:35:55.000Z</time>
      </trkpt>
      <trkpt lat="47.49134" lon="6.76158">
        <ele>322</ele>
        <time>2016-02-14T08:35:56.000Z</time>
      </trkpt>
      <trkpt lat="47.49133" lon="6.76167">
        <ele>321</ele>
        <time>2016-02-14T08:35:57.000Z</time>
      </trkpt>
      <trkpt lat="47.49131" lon="6.76176">
        <ele>321</ele>
        <time>2016-02-14T08:35:58.000Z</time>
      </trkpt>
      <trkpt lat="47.49129" lon="6.76185">
        <ele>321</ele>
        <time>2016-02-14T08:35:59.000Z</time>
      </trkpt>
      <trkpt lat="47.49128" lon="6.76196">
        <ele>321</ele>
        <time>2016-02-14T08:36:00.000Z</time>
      </trkpt>
      <trkpt lat="47.49128" lon="6.76205">
        <ele>321</ele>
        <time>2016-02-14T08:36:01.000Z</time>
      </trkpt>
      <trkpt lat="47.49127" lon="6.76215">
        <ele>321</ele>
        <time>2016-02-14T08:36:02.000Z</time>
      </trkpt>
      <trkpt lat="47.49127" lon="6.76224">
        <ele>321</ele>
        <time>2016-02-14T08:36:03.000Z</time>
      </trkpt>
      <trkpt lat="47.49127" lon="6.76231">
        <ele>321</ele>
        <time>2016-02-14T08:36:04.000Z</time>
      </trkpt>
      <trkpt lat="47.49125" lon="6.76244">
        <ele>321</ele>
        <time>2016-02-14T08:36:05.000Z</time>
      </trkpt>
      <trkpt lat="47.49125" lon="6.76255">
        <ele>320</ele>
        <time>2016-02-14T08:36:06.000Z</time>
      </trkpt>
      <trkpt lat="47.49125" lon="6.76264">
        <ele>320</ele>
        <time>2016-02-14T08:36:07.000Z</time>
      </trkpt>
      <trkpt lat="47.49127" lon="6.76269">
        <ele>320</ele>
        <time>2016-02-14T08:36:08.000Z</time>
      </trkpt>
      <trkpt lat="47.49127" lon="6.76273">
        <ele>320</ele>
        <time>2016-02-14T08:36:09.000Z</time>
      </trkpt>
      <trkpt lat="47.49127" lon="6.76279">
        <ele>320</ele>
        <time>2016-02-14T08:36:10.000Z</time>
      </trkpt>
      <trkpt lat="47.49127" lon="6.76283">
        <ele>319</ele>
        <time>2016-02-14T08:36:11.000Z</time>
      </trkpt>
      <trkpt lat="47.49127" lon="6.76288">
        <ele>319</ele>
        <time>2016-02-14T08:36:12.000Z</time>
      </trkpt>
      <trkpt lat="47.49125" lon="6.76298">
        <ele>319</ele>
        <time>2016-02-14T08:36:13.000Z</time>
      </trkpt>
      <trkpt lat="47.49125" lon="6.76306">
        <ele>319</ele>
        <time>2016-02-14T08:36:14.000Z</time>
      </trkpt>
      <trkpt lat="47.49124" lon="6.76313">
        <ele>319</ele>
        <time>2016-02-14T08:36:15.000Z</time>
      </trkpt>
      <trkpt lat="47.49124" lon="6.76323">
        <ele>319</ele>
        <time>2016-02-14T08:36:16.000Z</time>
      </trkpt>
      <trkpt lat="47.49125" lon="6.76333">
        <ele>319</ele>
        <time>2016-02-14T08:36:17.000Z</time>
      </trkpt>
      <trkpt lat="47.49126" lon="6.76342">
        <ele>318</ele>
        <time>2016-02-14T08:36:18.000Z</time>
      </trkpt>
      <trkpt lat="47.49126" lon="6.7635">
        <ele>318</ele>
        <time>2016-02-14T08:36:19.000Z</time>
      </trkpt>
      <trkpt lat="47.49128" lon="6.76361">
        <ele>318</ele>
        <time>2016-02-14T08:36:20.000Z</time>
      </trkpt>
      <trkpt lat="47.49128" lon="6.76373">
        <ele>318</ele>
        <time>2016-02-14T08:36:21.000Z</time>
      </trkpt>
      <trkpt lat="47.49127" lon="6.76383">
        <ele>318</ele>
        <time>2016-02-14T08:36:22.000Z</time>
      </trkpt>
      <trkpt lat="47.49126" lon="6.76393">
        <ele>318</ele>
        <time>2016-02-14T08:36:23.000Z</time>
      </trkpt>
      <trkpt lat="47.49125" lon="6.764">
        <ele>318</ele>
        <time>2016-02-14T08:36:24.000Z</time>
      </trkpt>
      <trkpt lat="47.49125" lon="6.76413">
        <ele>318</ele>
        <time>2016-02-14T08:36:25.000Z</time>
      </trkpt>
      <trkpt lat="47.49125" lon="6.76426">
        <ele>317</ele>
        <time>2016-02-14T08:36:26.000Z</time>
      </trkpt>
      <trkpt lat="47.49123" lon="6.76436">
        <ele>317</ele>
        <time>2016-02-14T08:36:27.000Z</time>
      </trkpt>
      <trkpt lat="47.49123" lon="6.76445">
        <ele>317</ele>
        <time>2016-02-14T08:36:28.000Z</time>
      </trkpt>
      <trkpt lat="47.49122" lon="6.76454">
        <ele>317</ele>
        <time>2016-02-14T08:36:29.000Z</time>
      </trkpt>
      <trkpt lat="47.49122" lon="6.76462">
        <ele>317</ele>
        <time>2016-02-14T08:36:30.000Z</time>
      </trkpt>
      <trkpt lat="47.49122" lon="6.76468">
        <ele>317</ele>
        <time>2016-02-14T08:36:31.000Z</time>
      </trkpt>
      <trkpt lat="47.49123" lon="6.76475">
        <ele>317</ele>
        <time>2016-02-14T08:36:32.000Z</time>
      </trkpt>
      <trkpt lat="47.49123" lon="6.76484">
        <ele>317</ele>
        <time>2016-02-14T08:36:33.000Z</time>
      </trkpt>
      <trkpt lat="47.49123" lon="6.76492">
        <ele>317</ele>
        <time>2016-02-14T08:36:34.000Z</time>
      </trkpt>
      <trkpt lat="47.49122" lon="6.765">
        <ele>316</ele>
        <time>2016-02-14T08:36:35.000Z</time>
      </trkpt>
      <trkpt lat="47.49123" lon="6.7651">
        <ele>316</ele>
        <time>2016-02-14T08:36:36.000Z</time>
      </trkpt>
      <trkpt lat="47.49126" lon="6.76517">
        <ele>316</ele>
        <time>2016-02-14T08:36:37.000Z</time>
      </trkpt>
      <trkpt lat="47.49129" lon="6.76521">
        <ele>316</ele>
        <time>2016-02-14T08:36:38.000Z</time>
      </trkpt>
      <trkpt lat="47.49136" lon="6.76522">
        <ele>315</ele>
        <time>2016-02-14T08:36:39.000Z</time>
      </trkpt>
      <trkpt lat="47.49142" lon="6.76521">
        <ele>315</ele>
        <time>2016-02-14T08:36:40.000Z</time>
      </trkpt>
      <trkpt lat="47.49146" lon="6.76519">
        <ele>315</ele>
        <time>2016-02-14T08:36:41.000Z</time>
      </trkpt>
      <trkpt lat="47.49151" lon="6.76516">
        <ele>315</ele>
        <time>2016-02-14T08:36:42.000Z</time>
      </trkpt>
      <trkpt lat="47.49156" lon="6.76513">
        <ele>314</ele>
        <time>2016-02-14T08:36:43.000Z</time>
      </trkpt>
      <trkpt lat="47.4916" lon="6.76509">
        <ele>314</ele>
        <time>2016-02-14T08:36:44.000Z</time>
      </trkpt>
      <trkpt lat="47.49163" lon="6.76508">
        <ele>314</ele>
        <time>2016-02-14T08:36:45.000Z</time>
      </trkpt>
      <trkpt lat="47.49166" lon="6.76506">
        <ele>314</ele>
        <time>2016-02-14T08:36:46.000Z</time>
      </trkpt>
      <trkpt lat="47.49168" lon="6.76503">
        <ele>313</ele>
        <time>2016-02-14T08:36:48.000Z</time>
      </trkpt>
      <trkpt lat="47.49169" lon="6.76502">
        <ele>313</ele>
        <time>2016-02-14T08:36:49.000Z</time>
      </trkpt>
      <trkpt lat="47.49173" lon="6.76499">
        <ele>314</ele>
        <time>2016-02-14T08:36:50.000Z</time>
      </trkpt>
      <trkpt lat="47.49175" lon="6.76497">
        <ele>314</ele>
        <time>2016-02-14T08:36:51.000Z</time>
      </trkpt>
      <trkpt lat="47.49175" lon="6.76491">
        <ele>315</ele>
        <time>2016-02-14T08:36:53.000Z</time>
      </trkpt>
      <trkpt lat="47.49175" lon="6.76489">
        <ele>315</ele>
        <time>2016-02-14T08:36:54.000Z</time>
      </trkpt>
      <trkpt lat="47.4918" lon="6.76488">
        <ele>315</ele>
        <time>2016-02-14T08:40:47.000Z</time>
      </trkpt>
      <trkpt lat="47.4918" lon="6.76487">
        <ele>316</ele>
        <time>2016-02-14T08:40:48.000Z</time>
      </trkpt>
      <trkpt lat="47.49184" lon="6.76489">
        <ele>316</ele>
        <time>2016-02-14T08:43:21.000Z</time>
      </trkpt>
      <trkpt lat="47.49186" lon="6.7649">
        <ele>316</ele>
        <time>2016-02-14T08:43:22.000Z</time>
      </trkpt>
      <trkpt lat="47.49186" lon="6.76495">
        <ele>316</ele>
        <time>2016-02-14T08:43:24.000Z</time>
      </trkpt>
      <trkpt lat="47.49185" lon="6.76496">
        <ele>316</ele>
        <time>2016-02-14T08:43:25.000Z</time>
      </trkpt>
      <trkpt lat="47.4918" lon="6.76496">
        <ele>315</ele>
        <time>2016-02-14T08:43:28.000Z</time>
      </trkpt>
      <trkpt lat="47.49178" lon="6.76495">
        <ele>315</ele>
        <time>2016-02-14T08:43:29.000Z</time>
      </trkpt>
      <trkpt lat="47.49175" lon="6.76496">
        <ele>314</ele>
        <time>2016-02-14T08:45:50.000Z</time>
      </trkpt>
      <trkpt lat="47.49174" lon="6.76497">
        <ele>314</ele>
        <time>2016-02-14T08:45:51.000Z</time>
      </trkpt>
      <trkpt lat="47.49178" lon="6.76494">
        <ele>315</ele>
        <time>2016-02-14T08:46:24.000Z</time>
      </trkpt>
      <trkpt lat="47.49178" lon="6.76494">
        <ele>315</ele>
        <time>2016-02-14T08:46:25.000Z</time>
      </trkpt>
      <trkpt lat="47.49183" lon="6.76496">
        <ele>315</ele>
        <time>2016-02-14T08:46:38.000Z</time>
      </trkpt>
      <trkpt lat="47.49183" lon="6.76496">
        <ele>315</ele>
        <time>2016-02-14T08:46:39.000Z</time>
      </trkpt>
      <trkpt lat="47.49183" lon="6.76501">
        <ele>315</ele>
        <time>2016-02-14T08:48:50.000Z</time>
      </trkpt>
      <trkpt lat="47.49181" lon="6.76502">
        <ele>315</ele>
        <time>2016-02-14T08:48:51.000Z</time>
      </trkpt>
      <trkpt lat="47.49177" lon="6.76504">
        <ele>314</ele>
        <time>2016-02-14T08:48:53.000Z</time>
      </trkpt>
      <trkpt lat="47.49175" lon="6.76505">
        <ele>314</ele>
        <time>2016-02-14T08:48:54.000Z</time>
      </trkpt>
      <trkpt lat="47.49173" lon="6.76506">
        <ele>314</ele>
        <time>2016-02-14T08:48:55.000Z</time>
      </trkpt>
      <trkpt lat="47.4917" lon="6.76507">
        <ele>314</ele>
        <time>2016-02-14T08:48:56.000Z</time>
      </trkpt>
      <trkpt lat="47.49167" lon="6.76509">
        <ele>314</ele>
        <time>2016-02-14T08:48:57.000Z</time>
      </trkpt>
      <trkpt lat="47.49157" lon="6.76513">
        <ele>314</ele>
        <time>2016-02-14T08:48:58.000Z</time>
      </trkpt>
      <trkpt lat="47.49153" lon="6.76516">
        <ele>315</ele>
        <time>2016-02-14T08:48:59.000Z</time>
      </trkpt>
      <trkpt lat="47.49148" lon="6.7652">
        <ele>315</ele>
        <time>2016-02-14T08:49:00.000Z</time>
      </trkpt>
      <trkpt lat="47.49145" lon="6.7652">
        <ele>315</ele>
        <time>2016-02-14T08:49:01.000Z</time>
      </trkpt>
      <trkpt lat="47.49141" lon="6.7652">
        <ele>315</ele>
        <time>2016-02-14T08:49:02.000Z</time>
      </trkpt>
      <trkpt lat="47.49137" lon="6.76519">
        <ele>315</ele>
        <time>2016-02-14T08:49:03.000Z</time>
      </trkpt>
      <trkpt lat="47.49134" lon="6.76519">
        <ele>316</ele>
        <time>2016-02-14T08:49:04.000Z</time>
      </trkpt>
      <trkpt lat="47.49131" lon="6.7652">
        <ele>316</ele>
        <time>2016-02-14T08:49:05.000Z</time>
      </trkpt>
      <trkpt lat="47.49128" lon="6.76523">
        <ele>316</ele>
        <time>2016-02-14T08:49:06.000Z</time>
      </trkpt>
      <trkpt lat="47.49128" lon="6.76528">
        <ele>316</ele>
        <time>2016-02-14T08:49:07.000Z</time>
      </trkpt>
      <trkpt lat="47.49126" lon="6.7653">
        <ele>316</ele>
        <time>2016-02-14T08:49:08.000Z</time>
      </trkpt>
      <trkpt lat="47.49124" lon="6.76534">
        <ele>316</ele>
        <time>2016-02-14T08:49:09.000Z</time>
      </trkpt>
      <trkpt lat="47.49124" lon="6.76539">
        <ele>316</ele>
        <time>2016-02-14T08:49:10.000Z</time>
      </trkpt>
      <trkpt lat="47.49123" lon="6.76544">
        <ele>316</ele>
        <time>2016-02-14T08:49:11.000Z</time>
      </trkpt>
      <trkpt lat="47.49123" lon="6.76551">
        <ele>316</ele>
        <time>2016-02-14T08:49:12.000Z</time>
      </trkpt>
      <trkpt lat="47.49124" lon="6.76558">
        <ele>316</ele>
        <time>2016-02-14T08:49:13.000Z</time>
      </trkpt>
      <trkpt lat="47.49124" lon="6.76564">
        <ele>315</ele>
        <time>2016-02-14T08:49:14.000Z</time>
      </trkpt>
      <trkpt lat="47.49126" lon="6.76574">
        <ele>315</ele>
        <time>2016-02-14T08:49:15.000Z</time>
      </trkpt>
      <trkpt lat="47.49127" lon="6.76581">
        <ele>315</ele>
        <time>2016-02-14T08:49:16.000Z</time>
      </trkpt>
      <trkpt lat="47.49128" lon="6.76587">
        <ele>314</ele>
        <time>2016-02-14T08:49:17.000Z</time>
      </trkpt>
      <trkpt lat="47.49128" lon="6.76593">
        <ele>314</ele>
        <time>2016-02-14T08:49:18.000Z</time>
      </trkpt>
      <trkpt lat="47.49129" lon="6.766">
        <ele>314</ele>
        <time>2016-02-14T08:49:19.000Z</time>
      </trkpt>
      <trkpt lat="47.49131" lon="6.76606">
        <ele>314</ele>
        <time>2016-02-14T08:49:20.000Z</time>
      </trkpt>
      <trkpt lat="47.49132" lon="6.76614">
        <ele>314</ele>
        <time>2016-02-14T08:49:21.000Z</time>
      </trkpt>
      <trkpt lat="47.49133" lon="6.76622">
        <ele>314</ele>
        <time>2016-02-14T08:49:22.000Z</time>
      </trkpt>
      <trkpt lat="47.49134" lon="6.76629">
        <ele>314</ele>
        <time>2016-02-14T08:49:23.000Z</time>
      </trkpt>
      <trkpt lat="47.49136" lon="6.76636">
        <ele>314</ele>
        <time>2016-02-14T08:49:24.000Z</time>
      </trkpt>
      <trkpt lat="47.49137" lon="6.76642">
        <ele>314</ele>
        <time>2016-02-14T08:49:24.999Z</time>
      </trkpt>
      <trkpt lat="47.49137" lon="6.76649">
        <ele>314</ele>
        <time>2016-02-14T08:49:26.000Z</time>
      </trkpt>
      <trkpt lat="47.49136" lon="6.76652">
        <ele>314</ele>
        <time>2016-02-14T08:49:27.000Z</time>
      </trkpt>
      <trkpt lat="47.49137" lon="6.76658">
        <ele>314</ele>
        <time>2016-02-14T08:49:28.000Z</time>
      </trkpt>
      <trkpt lat="47.49137" lon="6.76664">
        <ele>314</ele>
        <time>2016-02-14T08:49:29.000Z</time>
      </trkpt>
      <trkpt lat="47.49137" lon="6.7667">
        <ele>314</ele>
        <time>2016-02-14T08:49:30.000Z</time>
      </trkpt>
      <trkpt lat="47.49138" lon="6.76678">
        <ele>314</ele>
        <time>2016-02-14T08:49:31.000Z</time>
      </trkpt>
      <trkpt lat="47.49138" lon="6.76684">
        <ele>313</ele>
        <time>2016-02-14T08:49:32.000Z</time>
      </trkpt>
      <trkpt lat="47.49138" lon="6.76691">
        <ele>313</ele>
        <time>2016-02-14T08:49:33.000Z</time>
      </trkpt>
      <trkpt lat="47.49139" lon="6.76699">
        <ele>313</ele>
        <time>2016-02-14T08:49:34.000Z</time>
      </trkpt>
      <trkpt lat="47.49139" lon="6.76706">
        <ele>313</ele>
        <time>2016-02-14T08:49:35.000Z</time>
      </trkpt>
      <trkpt lat="47.49141" lon="6.76713">
        <ele>313</ele>
        <time>2016-02-14T08:49:36.000Z</time>
      </trkpt>
      <trkpt lat="47.49142" lon="6.76721">
        <ele>313</ele>
        <time>2016-02-14T08:49:37.000Z</time>
      </trkpt>
      <trkpt lat="47.49144" lon="6.76735">
        <ele>313</ele>
        <time>2016-02-14T08:49:38.000Z</time>
      </trkpt>
      <trkpt lat="47.49145" lon="6.76742">
        <ele>313</ele>
        <time>2016-02-14T08:49:39.000Z</time>
      </trkpt>
      <trkpt lat="47.49147" lon="6.7675">
        <ele>313</ele>
        <time>2016-02-14T08:49:40.000Z</time>
      </trkpt>
      <trkpt lat="47.49148" lon="6.76758">
        <ele>313</ele>
        <time>2016-02-14T08:49:41.000Z</time>
      </trkpt>
      <trkpt lat="47.49149" lon="6.76764">
        <ele>313</ele>
        <time>2016-02-14T08:49:42.000Z</time>
      </trkpt>
      <trkpt lat="47.4915" lon="6.76772">
        <ele>313</ele>
        <time>2016-02-14T08:49:43.000Z</time>
      </trkpt>
      <trkpt lat="47.49151" lon="6.76779">
        <ele>312</ele>
        <time>2016-02-14T08:49:44.000Z</time>
      </trkpt>
      <trkpt lat="47.49151" lon="6.76784">
        <ele>312</ele>
        <time>2016-02-14T08:49:45.000Z</time>
      </trkpt>
      <trkpt lat="47.49152" lon="6.76794">
        <ele>312</ele>
        <time>2016-02-14T08:49:46.000Z</time>
      </trkpt>
      <trkpt lat="47.49152" lon="6.76802">
        <ele>312</ele>
        <time>2016-02-14T08:49:47.000Z</time>
      </trkpt>
      <trkpt lat="47.49152" lon="6.7681">
        <ele>313</ele>
        <time>2016-02-14T08:49:48.000Z</time>
      </trkpt>
      <trkpt lat="47.49152" lon="6.76818">
        <ele>313</ele>
        <time>2016-02-14T08:49:49.000Z</time>
      </trkpt>
      <trkpt lat="47.49152" lon="6.76825">
        <ele>313</ele>
        <time>2016-02-14T08:49:50.000Z</time>
      </trkpt>
      <trkpt lat="47.49152" lon="6.76833">
        <ele>313</ele>
        <time>2016-02-14T08:49:51.000Z</time>
      </trkpt>
      <trkpt lat="47.49155" lon="6.76839">
        <ele>313</ele>
        <time>2016-02-14T08:49:52.000Z</time>
      </trkpt>
      <trkpt lat="47.49155" lon="6.76847">
        <ele>312</ele>
        <time>2016-02-14T08:49:53.000Z</time>
      </trkpt>
      <trkpt lat="47.49156" lon="6.76855">
        <ele>312</ele>
        <time>2016-02-14T08:49:54.000Z</time>
      </trkpt>
      <trkpt lat="47.49155" lon="6.76863">
        <ele>312</ele>
        <time>2016-02-14T08:49:55.000Z</time>
      </trkpt>
      <trkpt lat="47.49154" lon="6.76871">
        <ele>312</ele>
        <time>2016-02-14T08:49:56.000Z</time>
      </trkpt>
      <trkpt lat="47.49153" lon="6.7688">
        <ele>312</ele>
        <time>2016-02-14T08:49:57.000Z</time>
      </trkpt>
      <trkpt lat="47.49153" lon="6.76886">
        <ele>312</ele>
        <time>2016-02-14T08:49:58.000Z</time>
      </trkpt>
      <trkpt lat="47.49154" lon="6.76893">
        <ele>312</ele>
        <time>2016-02-14T08:49:59.000Z</time>
      </trkpt>
      <trkpt lat="47.49154" lon="6.769">
        <ele>312</ele>
        <time>2016-02-14T08:50:00.000Z</time>
      </trkpt>
      <trkpt lat="47.49154" lon="6.76907">
        <ele>313</ele>
        <time>2016-02-14T08:50:01.000Z</time>
      </trkpt>
      <trkpt lat="47.49154" lon="6.76914">
        <ele>313</ele>
        <time>2016-02-14T08:50:02.000Z</time>
      </trkpt>
      <trkpt lat="47.49154" lon="6.76922">
        <ele>312</ele>
        <time>2016-02-14T08:50:03.000Z</time>
      </trkpt>
      <trkpt lat="47.49153" lon="6.7693">
        <ele>312</ele>
        <time>2016-02-14T08:50:04.000Z</time>
      </trkpt>
      <trkpt lat="47.49154" lon="6.76938">
        <ele>312</ele>
        <time>2016-02-14T08:50:05.000Z</time>
      </trkpt>
      <trkpt lat="47.49155" lon="6.76944">
        <ele>312</ele>
        <time>2016-02-14T08:50:06.000Z</time>
      </trkpt>
      <trkpt lat="47.49156" lon="6.76946">
        <ele>312</ele>
        <time>2016-02-14T08:50:07.000Z</time>
      </trkpt>
      <trkpt lat="47.49156" lon="6.76952">
        <ele>312</ele>
        <time>2016-02-14T08:50:09.000Z</time>
      </trkpt>
      <trkpt lat="47.49154" lon="6.76957">
        <ele>312</ele>
        <time>2016-02-14T08:50:10.000Z</time>
      </trkpt>
      <trkpt lat="47.49154" lon="6.76969">
        <ele>312</ele>
        <time>2016-02-14T08:50:11.000Z</time>
      </trkpt>
      <trkpt lat="47.49154" lon="6.76976">
        <ele>312</ele>
        <time>2016-02-14T08:50:12.000Z</time>
      </trkpt>
      <trkpt lat="47.49157" lon="6.76982">
        <ele>312</ele>
        <time>2016-02-14T08:50:13.000Z</time>
      </trkpt>
      <trkpt lat="47.49159" lon="6.76992">
        <ele>312</ele>
        <time>2016-02-14T08:50:14.000Z</time>
      </trkpt>
      <trkpt lat="47.49162" lon="6.76999">
        <ele>312</ele>
        <time>2016-02-14T08:50:15.000Z</time>
      </trkpt>
      <trkpt lat="47.49164" lon="6.77007">
        <ele>312</ele>
        <time>2016-02-14T08:50:16.000Z</time>
      </trkpt>
      <trkpt lat="47.49166" lon="6.77013">
        <ele>312</ele>
        <time>2016-02-14T08:50:17.000Z</time>
      </trkpt>
      <trkpt lat="47.49167" lon="6.7702">
        <ele>313</ele>
        <time>2016-02-14T08:50:18.000Z</time>
      </trkpt>
      <trkpt lat="47.49169" lon="6.77028">
        <ele>313</ele>
        <time>2016-02-14T08:50:19.000Z</time>
      </trkpt>
      <trkpt lat="47.49169" lon="6.77035">
        <ele>313</ele>
        <time>2016-02-14T08:50:20.000Z</time>
      </trkpt>
      <trkpt lat="47.49171" lon="6.77043">
        <ele>313</ele>
        <time>2016-02-14T08:50:21.000Z</time>
      </trkpt>
      <trkpt lat="47.49171" lon="6.7705">
        <ele>313</ele>
        <time>2016-02-14T08:50:22.000Z</time>
      </trkpt>
      <trkpt lat="47.49172" lon="6.77057">
        <ele>313</ele>
        <time>2016-02-14T08:50:23.000Z</time>
      </trkpt>
      <trkpt lat="47.49173" lon="6.77062">
        <ele>313</ele>
        <time>2016-02-14T08:50:24.000Z</time>
      </trkpt>
      <trkpt lat="47.49174" lon="6.77069">
        <ele>313</ele>
        <time>2016-02-14T08:50:25.000Z</time>
      </trkpt>
      <trkpt lat="47.49174" lon="6.77076">
        <ele>312</ele>
        <time>2016-02-14T08:50:26.000Z</time>
      </trkpt>
      <trkpt lat="47.49175" lon="6.77086">
        <ele>312</ele>
        <time>2016-02-14T08:50:27.000Z</time>
      </trkpt>
      <trkpt lat="47.49175" lon="6.77092">
        <ele>312</ele>
        <time>2016-02-14T08:50:28.000Z</time>
      </trkpt>
      <trkpt lat="47.49175" lon="6.77098">
        <ele>312</ele>
        <time>2016-02-14T08:50:29.000Z</time>
      </trkpt>
      <trkpt lat="47.49176" lon="6.77103">
        <ele>312</ele>
        <time>2016-02-14T08:50:30.000Z</time>
      </trkpt>
      <trkpt lat="47.49177" lon="6.77106">
        <ele>313</ele>
        <time>2016-02-14T08:50:31.000Z</time>
      </trkpt>
      <trkpt lat="47.4918" lon="6.77111">
        <ele>313</ele>
        <time>2016-02-14T08:50:32.000Z</time>
      </trkpt>
      <trkpt lat="47.4918" lon="6.77114">
        <ele>313</ele>
        <time>2016-02-14T08:50:33.000Z</time>
      </trkpt>
      <trkpt lat="47.49182" lon="6.77117">
        <ele>313</ele>
        <time>2016-02-14T08:50:34.000Z</time>
      </trkpt>
      <trkpt lat="47.49183" lon="6.77121">
        <ele>313</ele>
        <time>2016-02-14T08:50:35.000Z</time>
      </trkpt>
      <trkpt lat="47.49182" lon="6.77126">
        <ele>313</ele>
        <time>2016-02-14T08:50:39.000Z</time>
      </trkpt>
      <trkpt lat="47.49182" lon="6.77128">
        <ele>313</ele>
        <time>2016-02-14T08:50:40.000Z</time>
      </trkpt>
      <trkpt lat="47.49184" lon="6.77133">
        <ele>313</ele>
        <time>2016-02-14T08:50:42.000Z</time>
      </trkpt>
      <trkpt lat="47.49185" lon="6.77134">
        <ele>313</ele>
        <time>2016-02-14T08:50:43.060Z</time>
      </trkpt>
      <trkpt lat="47.49186" lon="6.7714">
        <ele>313</ele>
        <time>2016-02-14T08:50:44.000Z</time>
      </trkpt>
      <trkpt lat="47.49187" lon="6.77145">
        <ele>313</ele>
        <time>2016-02-14T08:50:45.000Z</time>
      </trkpt>
      <trkpt lat="47.49188" lon="6.7715">
        <ele>313</ele>
        <time>2016-02-14T08:50:46.000Z</time>
      </trkpt>
      <trkpt lat="47.49188" lon="6.77155">
        <ele>313</ele>
        <time>2016-02-14T08:50:47.000Z</time>
      </trkpt>
      <trkpt lat="47.49189" lon="6.77162">
        <ele>313</ele>
        <time>2016-02-14T08:50:48.000Z</time>
      </trkpt>
      <trkpt lat="47.4919" lon="6.77168">
        <ele>313</ele>
        <time>2016-02-14T08:50:49.000Z</time>
      </trkpt>
      <trkpt lat="47.49191" lon="6.77175">
        <ele>313</ele>
        <time>2016-02-14T08:50:50.000Z</time>
      </trkpt>
      <trkpt lat="47.49192" lon="6.7718">
        <ele>313</ele>
        <time>2016-02-14T08:50:51.000Z</time>
      </trkpt>
      <trkpt lat="47.49193" lon="6.77185">
        <ele>312</ele>
        <time>2016-02-14T08:50:52.000Z</time>
      </trkpt>
      <trkpt lat="47.49194" lon="6.7719">
        <ele>312</ele>
        <time>2016-02-14T08:50:53.000Z</time>
      </trkpt>
      <trkpt lat="47.49195" lon="6.77194">
        <ele>312</ele>
        <time>2016-02-14T08:50:54.000Z</time>
      </trkpt>
      <trkpt lat="47.49195" lon="6.77199">
        <ele>312</ele>
        <time>2016-02-14T08:50:55.000Z</time>
      </trkpt>
      <trkpt lat="47.49195" lon="6.77205">
        <ele>312</ele>
        <time>2016-02-14T08:50:56.000Z</time>
      </trkpt>
      <trkpt lat="47.49194" lon="6.77211">
        <ele>312</ele>
        <time>2016-02-14T08:50:57.000Z</time>
      </trkpt>
      <trkpt lat="47.49192" lon="6.77227">
        <ele>312</ele>
        <time>2016-02-14T08:50:58.000Z</time>
      </trkpt>
      <trkpt lat="47.49191" lon="6.77234">
        <ele>312</ele>
        <time>2016-02-14T08:50:59.000Z</time>
      </trkpt>
      <trkpt lat="47.49194" lon="6.77241">
        <ele>312</ele>
        <time>2016-02-14T08:51:00.000Z</time>
      </trkpt>
      <trkpt lat="47.49194" lon="6.77247">
        <ele>312</ele>
        <time>2016-02-14T08:51:01.000Z</time>
      </trkpt>
      <trkpt lat="47.49191" lon="6.77255">
        <ele>311</ele>
        <time>2016-02-14T08:51:02.000Z</time>
      </trkpt>
      <trkpt lat="47.4919" lon="6.77263">
        <ele>311</ele>
        <time>2016-02-14T08:51:03.000Z</time>
      </trkpt>
      <trkpt lat="47.49189" lon="6.77269">
        <ele>311</ele>
        <time>2016-02-14T08:51:04.000Z</time>
      </trkpt>
      <trkpt lat="47.49188" lon="6.77277">
        <ele>311</ele>
        <time>2016-02-14T08:51:05.000Z</time>
      </trkpt>
      <trkpt lat="47.49188" lon="6.77284">
        <ele>311</ele>
        <time>2016-02-14T08:51:06.000Z</time>
      </trkpt>
      <trkpt lat="47.49188" lon="6.77293">
        <ele>311</ele>
        <time>2016-02-14T08:51:07.000Z</time>
      </trkpt>
      <trkpt lat="47.49188" lon="6.77301">
        <ele>311</ele>
        <time>2016-02-14T08:51:08.000Z</time>
      </trkpt>
      <trkpt lat="47.49189" lon="6.77309">
        <ele>311</ele>
        <time>2016-02-14T08:51:09.000Z</time>
      </trkpt>
      <trkpt lat="47.49188" lon="6.77318">
        <ele>310</ele>
        <time>2016-02-14T08:51:10.000Z</time>
      </trkpt>
      <trkpt lat="47.49187" lon="6.77321">
        <ele>310</ele>
        <time>2016-02-14T08:51:11.000Z</time>
      </trkpt>
      <trkpt lat="47.49185" lon="6.77327">
        <ele>310</ele>
        <time>2016-02-14T08:51:12.000Z</time>
      </trkpt>
      <trkpt lat="47.49181" lon="6.7733">
        <ele>310</ele>
        <time>2016-02-14T08:51:13.000Z</time>
      </trkpt>
      <trkpt lat="47.49178" lon="6.77331">
        <ele>310</ele>
        <time>2016-02-14T08:51:14.000Z</time>
      </trkpt>
      <trkpt lat="47.49176" lon="6.77332">
        <ele>310</ele>
        <time>2016-02-14T08:51:15.000Z</time>
      </trkpt>
      <trkpt lat="47.49172" lon="6.77334">
        <ele>310</ele>
        <time>2016-02-14T08:51:16.000Z</time>
      </trkpt>
      <trkpt lat="47.49169" lon="6.77334">
        <ele>310</ele>
        <time>2016-02-14T08:51:17.000Z</time>
      </trkpt>
      <trkpt lat="47.49164" lon="6.77333">
        <ele>310</ele>
        <time>2016-02-14T08:51:18.000Z</time>
      </trkpt>
      <trkpt lat="47.4916" lon="6.77332">
        <ele>310</ele>
        <time>2016-02-14T08:51:19.001Z</time>
      </trkpt>
      <trkpt lat="47.49157" lon="6.77332">
        <ele>310</ele>
        <time>2016-02-14T08:51:20.000Z</time>
      </trkpt>
      <trkpt lat="47.49153" lon="6.77332">
        <ele>311</ele>
        <time>2016-02-14T08:51:21.000Z</time>
      </trkpt>
      <trkpt lat="47.49147" lon="6.77331">
        <ele>311</ele>
        <time>2016-02-14T08:51:22.000Z</time>
      </trkpt>
      <trkpt lat="47.49143" lon="6.77331">
        <ele>311</ele>
        <time>2016-02-14T08:51:23.000Z</time>
      </trkpt>
      <trkpt lat="47.49138" lon="6.77331">
        <ele>311</ele>
        <time>2016-02-14T08:51:24.000Z</time>
      </trkpt>
      <trkpt lat="47.49134" lon="6.77332">
        <ele>311</ele>
        <time>2016-02-14T08:51:25.000Z</time>
      </trkpt>
      <trkpt lat="47.49129" lon="6.77331">
        <ele>311</ele>
        <time>2016-02-14T08:51:26.000Z</time>
      </trkpt>
      <trkpt lat="47.49123" lon="6.7733">
        <ele>311</ele>
        <time>2016-02-14T08:51:27.000Z</time>
      </trkpt>
      <trkpt lat="47.49118" lon="6.7733">
        <ele>311</ele>
        <time>2016-02-14T08:51:28.000Z</time>
      </trkpt>
      <trkpt lat="47.49113" lon="6.7733">
        <ele>311</ele>
        <time>2016-02-14T08:51:29.001Z</time>
      </trkpt>
      <trkpt lat="47.49108" lon="6.77331">
        <ele>311</ele>
        <time>2016-02-14T08:51:30.000Z</time>
      </trkpt>
      <trkpt lat="47.49102" lon="6.77331">
        <ele>311</ele>
        <time>2016-02-14T08:51:31.000Z</time>
      </trkpt>
      <trkpt lat="47.49097" lon="6.77331">
        <ele>311</ele>
        <time>2016-02-14T08:51:32.000Z</time>
      </trkpt>
      <trkpt lat="47.49092" lon="6.77334">
        <ele>311</ele>
        <time>2016-02-14T08:51:33.000Z</time>
      </trkpt>
      <trkpt lat="47.49087" lon="6.77334">
        <ele>311</ele>
        <time>2016-02-14T08:51:34.000Z</time>
      </trkpt>
      <trkpt lat="47.49082" lon="6.77334">
        <ele>311</ele>
        <time>2016-02-14T08:51:35.000Z</time>
      </trkpt>
      <trkpt lat="47.49076" lon="6.77333">
        <ele>311</ele>
        <time>2016-02-14T08:51:36.000Z</time>
      </trkpt>
      <trkpt lat="47.49072" lon="6.77332">
        <ele>311</ele>
        <time>2016-02-14T08:51:37.000Z</time>
      </trkpt>
      <trkpt lat="47.49066" lon="6.77332">
        <ele>311</ele>
        <time>2016-02-14T08:51:38.000Z</time>
      </trkpt>
      <trkpt lat="47.49061" lon="6.77332">
        <ele>311</ele>
        <time>2016-02-14T08:51:39.000Z</time>
      </trkpt>
      <trkpt lat="47.49055" lon="6.77332">
        <ele>311</ele>
        <time>2016-02-14T08:51:40.000Z</time>
      </trkpt>
      <trkpt lat="47.4905" lon="6.77331">
        <ele>311</ele>
        <time>2016-02-14T08:51:41.000Z</time>
      </trkpt>
      <trkpt lat="47.49045" lon="6.77332">
        <ele>311</ele>
        <time>2016-02-14T08:51:42.000Z</time>
      </trkpt>
      <trkpt lat="47.49042" lon="6.77333">
        <ele>311</ele>
        <time>2016-02-14T08:51:43.000Z</time>
      </trkpt>
      <trkpt lat="47.49037" lon="6.77332">
        <ele>311</ele>
        <time>2016-02-14T08:51:44.000Z</time>
      </trkpt>
      <trkpt lat="47.49032" lon="6.7733">
        <ele>311</ele>
        <time>2016-02-14T08:51:45.000Z</time>
      </trkpt>
      <trkpt lat="47.49028" lon="6.7733">
        <ele>311</ele>
        <time>2016-02-14T08:51:46.000Z</time>
      </trkpt>
      <trkpt lat="47.49023" lon="6.77329">
        <ele>311</ele>
        <time>2016-02-14T08:51:47.000Z</time>
      </trkpt>
      <trkpt lat="47.49018" lon="6.77328">
        <ele>311</ele>
        <time>2016-02-14T08:51:48.000Z</time>
      </trkpt>
      <trkpt lat="47.49013" lon="6.77327">
        <ele>311</ele>
        <time>2016-02-14T08:51:49.000Z</time>
      </trkpt>
      <trkpt lat="47.49008" lon="6.77326">
        <ele>311</ele>
        <time>2016-02-14T08:51:50.000Z</time>
      </trkpt>
      <trkpt lat="47.49002" lon="6.77326">
        <ele>311</ele>
        <time>2016-02-14T08:51:51.000Z</time>
      </trkpt>
      <trkpt lat="47.48997" lon="6.77326">
        <ele>311</ele>
        <time>2016-02-14T08:51:52.000Z</time>
      </trkpt>
      <trkpt lat="47.48991" lon="6.77325">
        <ele>311</ele>
        <time>2016-02-14T08:51:53.000Z</time>
      </trkpt>
      <trkpt lat="47.48986" lon="6.77325">
        <ele>311</ele>
        <time>2016-02-14T08:51:54.000Z</time>
      </trkpt>
      <trkpt lat="47.48981" lon="6.77325">
        <ele>311</ele>
        <time>2016-02-14T08:51:55.000Z</time>
      </trkpt>
      <trkpt lat="47.48976" lon="6.77324">
        <ele>311</ele>
        <time>2016-02-14T08:51:56.000Z</time>
      </trkpt>
      <trkpt lat="47.48969" lon="6.77322">
        <ele>311</ele>
        <time>2016-02-14T08:51:57.000Z</time>
      </trkpt>
      <trkpt lat="47.48963" lon="6.7732">
        <ele>311</ele>
        <time>2016-02-14T08:51:58.000Z</time>
      </trkpt>
      <trkpt lat="47.48956" lon="6.77319">
        <ele>311</ele>
        <time>2016-02-14T08:51:59.000Z</time>
      </trkpt>
      <trkpt lat="47.48951" lon="6.77318">
        <ele>311</ele>
        <time>2016-02-14T08:52:00.000Z</time>
      </trkpt>
      <trkpt lat="47.48947" lon="6.77317">
        <ele>311</ele>
        <time>2016-02-14T08:52:01.000Z</time>
      </trkpt>
      <trkpt lat="47.48941" lon="6.77316">
        <ele>311</ele>
        <time>2016-02-14T08:52:02.000Z</time>
      </trkpt>
      <trkpt lat="47.48935" lon="6.77312">
        <ele>311</ele>
        <time>2016-02-14T08:52:03.000Z</time>
      </trkpt>
      <trkpt lat="47.48929" lon="6.77311">
        <ele>311</ele>
        <time>2016-02-14T08:52:04.000Z</time>
      </trkpt>
      <trkpt lat="47.48924" lon="6.77309">
        <ele>310</ele>
        <time>2016-02-14T08:52:05.000Z</time>
      </trkpt>
      <trkpt lat="47.48919" lon="6.77307">
        <ele>311</ele>
        <time>2016-02-14T08:52:06.000Z</time>
      </trkpt>
      <trkpt lat="47.48913" lon="6.77305">
        <ele>310</ele>
        <time>2016-02-14T08:52:07.000Z</time>
      </trkpt>
      <trkpt lat="47.48907" lon="6.77302">
        <ele>310</ele>
        <time>2016-02-14T08:52:08.000Z</time>
      </trkpt>
      <trkpt lat="47.48901" lon="6.773">
        <ele>310</ele>
        <time>2016-02-14T08:52:09.000Z</time>
      </trkpt>
      <trkpt lat="47.48896" lon="6.77298">
        <ele>310</ele>
        <time>2016-02-14T08:52:10.000Z</time>
      </trkpt>
      <trkpt lat="47.4889" lon="6.77296">
        <ele>310</ele>
        <time>2016-02-14T08:52:11.000Z</time>
      </trkpt>
      <trkpt lat="47.48885" lon="6.77294">
        <ele>310</ele>
        <time>2016-02-14T08:52:12.000Z</time>
      </trkpt>
      <trkpt lat="47.48879" lon="6.77293">
        <ele>310</ele>
        <time>2016-02-14T08:52:13.000Z</time>
      </trkpt>
      <trkpt lat="47.48876" lon="6.77291">
        <ele>310</ele>
        <time>2016-02-14T08:52:14.000Z</time>
      </trkpt>
      <trkpt lat="47.48872" lon="6.77289">
        <ele>310</ele>
        <time>2016-02-14T08:52:14.999Z</time>
      </trkpt>
      <trkpt lat="47.48867" lon="6.77287">
        <ele>310</ele>
        <time>2016-02-14T08:52:16.000Z</time>
      </trkpt>
      <trkpt lat="47.48862" lon="6.77285">
        <ele>310</ele>
        <time>2016-02-14T08:52:17.000Z</time>
      </trkpt>
      <trkpt lat="47.48857" lon="6.77283">
        <ele>310</ele>
        <time>2016-02-14T08:52:18.000Z</time>
      </trkpt>
      <trkpt lat="47.48853" lon="6.77281">
        <ele>310</ele>
        <time>2016-02-14T08:52:19.000Z</time>
      </trkpt>
      <trkpt lat="47.48847" lon="6.77278">
        <ele>310</ele>
        <time>2016-02-14T08:52:20.000Z</time>
      </trkpt>
      <trkpt lat="47.48841" lon="6.77274">
        <ele>310</ele>
        <time>2016-02-14T08:52:21.000Z</time>
      </trkpt>
      <trkpt lat="47.48837" lon="6.77272">
        <ele>310</ele>
        <time>2016-02-14T08:52:22.000Z</time>
      </trkpt>
      <trkpt lat="47.48832" lon="6.77268">
        <ele>310</ele>
        <time>2016-02-14T08:52:23.000Z</time>
      </trkpt>
      <trkpt lat="47.48827" lon="6.77264">
        <ele>310</ele>
        <time>2016-02-14T08:52:24.000Z</time>
      </trkpt>
      <trkpt lat="47.48821" lon="6.7726">
        <ele>310</ele>
        <time>2016-02-14T08:52:25.000Z</time>
      </trkpt>
      <trkpt lat="47.48816" lon="6.77257">
        <ele>310</ele>
        <time>2016-02-14T08:52:26.000Z</time>
      </trkpt>
      <trkpt lat="47.48812" lon="6.77254">
        <ele>310</ele>
        <time>2016-02-14T08:52:27.000Z</time>
      </trkpt>
      <trkpt lat="47.48808" lon="6.7725">
        <ele>311</ele>
        <time>2016-02-14T08:52:28.000Z</time>
      </trkpt>
      <trkpt lat="47.48803" lon="6.77245">
        <ele>310</ele>
        <time>2016-02-14T08:52:29.000Z</time>
      </trkpt>
      <trkpt lat="47.48798" lon="6.77241">
        <ele>310</ele>
        <time>2016-02-14T08:52:30.000Z</time>
      </trkpt>
      <trkpt lat="47.48792" lon="6.77237">
        <ele>310</ele>
        <time>2016-02-14T08:52:31.000Z</time>
      </trkpt>
      <trkpt lat="47.48786" lon="6.77234">
        <ele>310</ele>
        <time>2016-02-14T08:52:32.000Z</time>
      </trkpt>
      <trkpt lat="47.48782" lon="6.77231">
        <ele>310</ele>
        <time>2016-02-14T08:52:33.000Z</time>
      </trkpt>
      <trkpt lat="47.48778" lon="6.77228">
        <ele>310</ele>
        <time>2016-02-14T08:52:34.000Z</time>
      </trkpt>
      <trkpt lat="47.48772" lon="6.77223">
        <ele>310</ele>
        <time>2016-02-14T08:52:35.000Z</time>
      </trkpt>
      <trkpt lat="47.48767" lon="6.77221">
        <ele>310</ele>
        <time>2016-02-14T08:52:36.000Z</time>
      </trkpt>
      <trkpt lat="47.48761" lon="6.77215">
        <ele>310</ele>
        <time>2016-02-14T08:52:37.000Z</time>
      </trkpt>
      <trkpt lat="47.48758" lon="6.77212">
        <ele>310</ele>
        <time>2016-02-14T08:52:38.000Z</time>
      </trkpt>
      <trkpt lat="47.48754" lon="6.7721">
        <ele>310</ele>
        <time>2016-02-14T08:52:39.000Z</time>
      </trkpt>
      <trkpt lat="47.48749" lon="6.77206">
        <ele>310</ele>
        <time>2016-02-14T08:52:40.000Z</time>
      </trkpt>
      <trkpt lat="47.48743" lon="6.77201">
        <ele>310</ele>
        <time>2016-02-14T08:52:41.000Z</time>
      </trkpt>
      <trkpt lat="47.48738" lon="6.77197">
        <ele>310</ele>
        <time>2016-02-14T08:52:42.000Z</time>
      </trkpt>
      <trkpt lat="47.48732" lon="6.77194">
        <ele>310</ele>
        <time>2016-02-14T08:52:43.000Z</time>
      </trkpt>
      <trkpt lat="47.48728" lon="6.7719">
        <ele>310</ele>
        <time>2016-02-14T08:52:44.000Z</time>
      </trkpt>
      <trkpt lat="47.48723" lon="6.77186">
        <ele>310</ele>
        <time>2016-02-14T08:52:45.000Z</time>
      </trkpt>
      <trkpt lat="47.48718" lon="6.77182">
        <ele>310</ele>
        <time>2016-02-14T08:52:46.000Z</time>
      </trkpt>
      <trkpt lat="47.48714" lon="6.77178">
        <ele>310</ele>
        <time>2016-02-14T08:52:47.000Z</time>
      </trkpt>
      <trkpt lat="47.4871" lon="6.77174">
        <ele>311</ele>
        <time>2016-02-14T08:52:48.000Z</time>
      </trkpt>
      <trkpt lat="47.48705" lon="6.77169">
        <ele>311</ele>
        <time>2016-02-14T08:52:49.000Z</time>
      </trkpt>
      <trkpt lat="47.48701" lon="6.77165">
        <ele>311</ele>
        <time>2016-02-14T08:52:50.000Z</time>
      </trkpt>
      <trkpt lat="47.48696" lon="6.77161">
        <ele>311</ele>
        <time>2016-02-14T08:52:51.000Z</time>
      </trkpt>
      <trkpt lat="47.48691" lon="6.77157">
        <ele>311</ele>
        <time>2016-02-14T08:52:52.000Z</time>
      </trkpt>
      <trkpt lat="47.48686" lon="6.77152">
        <ele>311</ele>
        <time>2016-02-14T08:52:53.000Z</time>
      </trkpt>
      <trkpt lat="47.48681" lon="6.77147">
        <ele>311</ele>
        <time>2016-02-14T08:52:54.000Z</time>
      </trkpt>
      <trkpt lat="47.48678" lon="6.77142">
        <ele>311</ele>
        <time>2016-02-14T08:52:55.000Z</time>
      </trkpt>
      <trkpt lat="47.48674" lon="6.77137">
        <ele>311</ele>
        <time>2016-02-14T08:52:56.000Z</time>
      </trkpt>
      <trkpt lat="47.4867" lon="6.77132">
        <ele>312</ele>
        <time>2016-02-14T08:52:57.000Z</time>
      </trkpt>
      <trkpt lat="47.48666" lon="6.77129">
        <ele>312</ele>
        <time>2016-02-14T08:52:58.000Z</time>
      </trkpt>
      <trkpt lat="47.48662" lon="6.77124">
        <ele>312</ele>
        <time>2016-02-14T08:52:59.000Z</time>
      </trkpt>
      <trkpt lat="47.48656" lon="6.7712">
        <ele>312</ele>
        <time>2016-02-14T08:53:00.000Z</time>
      </trkpt>
      <trkpt lat="47.48652" lon="6.77115">
        <ele>312</ele>
        <time>2016-02-14T08:53:01.000Z</time>
      </trkpt>
      <trkpt lat="47.48647" lon="6.77111">
        <ele>312</ele>
        <time>2016-02-14T08:53:02.000Z</time>
      </trkpt>
      <trkpt lat="47.48643" lon="6.77106">
        <ele>312</ele>
        <time>2016-02-14T08:53:03.000Z</time>
      </trkpt>
      <trkpt lat="47.48638" lon="6.77101">
        <ele>312</ele>
        <time>2016-02-14T08:53:04.000Z</time>
      </trkpt>
      <trkpt lat="47.48634" lon="6.77097">
        <ele>312</ele>
        <time>2016-02-14T08:53:04.999Z</time>
      </trkpt>
      <trkpt lat="47.4863" lon="6.77093">
        <ele>312</ele>
        <time>2016-02-14T08:53:06.000Z</time>
      </trkpt>
      <trkpt lat="47.48627" lon="6.7709">
        <ele>312</ele>
        <time>2016-02-14T08:53:07.000Z</time>
      </trkpt>
      <trkpt lat="47.48623" lon="6.77087">
        <ele>312</ele>
        <time>2016-02-14T08:53:08.000Z</time>
      </trkpt>
      <trkpt lat="47.48618" lon="6.77085">
        <ele>312</ele>
        <time>2016-02-14T08:53:09.000Z</time>
      </trkpt>
      <trkpt lat="47.48613" lon="6.77082">
        <ele>313</ele>
        <time>2016-02-14T08:53:10.000Z</time>
      </trkpt>
      <trkpt lat="47.4861" lon="6.7708">
        <ele>313</ele>
        <time>2016-02-14T08:53:11.000Z</time>
      </trkpt>
      <trkpt lat="47.48605" lon="6.77077">
        <ele>313</ele>
        <time>2016-02-14T08:53:12.000Z</time>
      </trkpt>
      <trkpt lat="47.48601" lon="6.77073">
        <ele>313</ele>
        <time>2016-02-14T08:53:12.999Z</time>
      </trkpt>
      <trkpt lat="47.48595" lon="6.77069">
        <ele>313</ele>
        <time>2016-02-14T08:53:14.000Z</time>
      </trkpt>
      <trkpt lat="47.48591" lon="6.77066">
        <ele>313</ele>
        <time>2016-02-14T08:53:15.000Z</time>
      </trkpt>
      <trkpt lat="47.48587" lon="6.77062">
        <ele>313</ele>
        <time>2016-02-14T08:53:16.000Z</time>
      </trkpt>
      <trkpt lat="47.48583" lon="6.77059">
        <ele>313</ele>
        <time>2016-02-14T08:53:17.000Z</time>
      </trkpt>
      <trkpt lat="47.4858" lon="6.77055">
        <ele>314</ele>
        <time>2016-02-14T08:53:18.000Z</time>
      </trkpt>
      <trkpt lat="47.48576" lon="6.77053">
        <ele>314</ele>
        <time>2016-02-14T08:53:19.000Z</time>
      </trkpt>
      <trkpt lat="47.48572" lon="6.77048">
        <ele>314</ele>
        <time>2016-02-14T08:53:20.000Z</time>
      </trkpt>
      <trkpt lat="47.48568" lon="6.77045">
        <ele>314</ele>
        <time>2016-02-14T08:53:21.000Z</time>
      </trkpt>
      <trkpt lat="47.48564" lon="6.77042">
        <ele>314</ele>
        <time>2016-02-14T08:53:22.000Z</time>
      </trkpt>
      <trkpt lat="47.48558" lon="6.77042">
        <ele>314</ele>
        <time>2016-02-14T08:53:23.000Z</time>
      </trkpt>
      <trkpt lat="47.48551" lon="6.7704">
        <ele>314</ele>
        <time>2016-02-14T08:53:24.000Z</time>
      </trkpt>
      <trkpt lat="47.48546" lon="6.77035">
        <ele>314</ele>
        <time>2016-02-14T08:53:25.000Z</time>
      </trkpt>
      <trkpt lat="47.4854" lon="6.77032">
        <ele>314</ele>
        <time>2016-02-14T08:53:26.000Z</time>
      </trkpt>
      <trkpt lat="47.48533" lon="6.77027">
        <ele>314</ele>
        <time>2016-02-14T08:53:27.000Z</time>
      </trkpt>
      <trkpt lat="47.48529" lon="6.77024">
        <ele>314</ele>
        <time>2016-02-14T08:53:28.000Z</time>
      </trkpt>
      <trkpt lat="47.48524" lon="6.7702">
        <ele>315</ele>
        <time>2016-02-14T08:53:29.000Z</time>
      </trkpt>
      <trkpt lat="47.48519" lon="6.77016">
        <ele>315</ele>
        <time>2016-02-14T08:53:30.000Z</time>
      </trkpt>
      <trkpt lat="47.48516" lon="6.77014">
        <ele>315</ele>
        <time>2016-02-14T08:53:31.000Z</time>
      </trkpt>
      <trkpt lat="47.48512" lon="6.7701">
        <ele>315</ele>
        <time>2016-02-14T08:53:32.000Z</time>
      </trkpt>
      <trkpt lat="47.48506" lon="6.77008">
        <ele>315</ele>
        <time>2016-02-14T08:53:33.000Z</time>
      </trkpt>
      <trkpt lat="47.48501" lon="6.77006">
        <ele>316</ele>
        <time>2016-02-14T08:53:34.000Z</time>
      </trkpt>
      <trkpt lat="47.48495" lon="6.77004">
        <ele>315</ele>
        <time>2016-02-14T08:53:35.000Z</time>
      </trkpt>
      <trkpt lat="47.4849" lon="6.77001">
        <ele>315</ele>
        <time>2016-02-14T08:53:35.999Z</time>
      </trkpt>
      <trkpt lat="47.48486" lon="6.76999">
        <ele>316</ele>
        <time>2016-02-14T08:53:37.000Z</time>
      </trkpt>
      <trkpt lat="47.48481" lon="6.76994">
        <ele>315</ele>
        <time>2016-02-14T08:53:38.000Z</time>
      </trkpt>
      <trkpt lat="47.48476" lon="6.76991">
        <ele>315</ele>
        <time>2016-02-14T08:53:39.000Z</time>
      </trkpt>
      <trkpt lat="47.4847" lon="6.76988">
        <ele>315</ele>
        <time>2016-02-14T08:53:40.000Z</time>
      </trkpt>
      <trkpt lat="47.48465" lon="6.76984">
        <ele>315</ele>
        <time>2016-02-14T08:53:41.000Z</time>
      </trkpt>
      <trkpt lat="47.4846" lon="6.76981">
        <ele>315</ele>
        <time>2016-02-14T08:53:42.000Z</time>
      </trkpt>
      <trkpt lat="47.48455" lon="6.76977">
        <ele>315</ele>
        <time>2016-02-14T08:53:43.000Z</time>
      </trkpt>
      <trkpt lat="47.48449" lon="6.76973">
        <ele>315</ele>
        <time>2016-02-14T08:53:44.000Z</time>
      </trkpt>
      <trkpt lat="47.48444" lon="6.7697">
        <ele>315</ele>
        <time>2016-02-14T08:53:44.999Z</time>
      </trkpt>
      <trkpt lat="47.48438" lon="6.76968">
        <ele>314</ele>
        <time>2016-02-14T08:53:46.000Z</time>
      </trkpt>
      <trkpt lat="47.48432" lon="6.76965">
        <ele>314</ele>
        <time>2016-02-14T08:53:47.000Z</time>
      </trkpt>
      <trkpt lat="47.48427" lon="6.76964">
        <ele>314</ele>
        <time>2016-02-14T08:53:48.000Z</time>
      </trkpt>
      <trkpt lat="47.48421" lon="6.76962">
        <ele>314</ele>
        <time>2016-02-14T08:53:49.000Z</time>
      </trkpt>
      <trkpt lat="47.48415" lon="6.7696">
        <ele>312</ele>
        <time>2016-02-14T08:53:50.000Z</time>
      </trkpt>
      <trkpt lat="47.48411" lon="6.76958">
        <ele>312</ele>
        <time>2016-02-14T08:53:51.000Z</time>
      </trkpt>
      <trkpt lat="47.48405" lon="6.76954">
        <ele>312</ele>
        <time>2016-02-14T08:53:52.000Z</time>
      </trkpt>
      <trkpt lat="47.484" lon="6.7695">
        <ele>312</ele>
        <time>2016-02-14T08:53:53.000Z</time>
      </trkpt>
      <trkpt lat="47.48394" lon="6.76948">
        <ele>312</ele>
        <time>2016-02-14T08:53:54.000Z</time>
      </trkpt>
      <trkpt lat="47.4839" lon="6.76944">
        <ele>312</ele>
        <time>2016-02-14T08:53:55.000Z</time>
      </trkpt>
      <trkpt lat="47.48385" lon="6.76941">
        <ele>312</ele>
        <time>2016-02-14T08:53:56.000Z</time>
      </trkpt>
      <trkpt lat="47.48379" lon="6.76938">
        <ele>312</ele>
        <time>2016-02-14T08:53:57.000Z</time>
      </trkpt>
      <trkpt lat="47.48374" lon="6.76934">
        <ele>312</ele>
        <time>2016-02-14T08:53:58.000Z</time>
      </trkpt>
      <trkpt lat="47.48368" lon="6.7693">
        <ele>312</ele>
        <time>2016-02-14T08:53:59.000Z</time>
      </trkpt>
      <trkpt lat="47.48363" lon="6.76927">
        <ele>311</ele>
        <time>2016-02-14T08:54:00.000Z</time>
      </trkpt>
      <trkpt lat="47.48357" lon="6.76923">
        <ele>311</ele>
        <time>2016-02-14T08:54:01.000Z</time>
      </trkpt>
      <trkpt lat="47.48352" lon="6.7692">
        <ele>311</ele>
        <time>2016-02-14T08:54:02.000Z</time>
      </trkpt>
      <trkpt lat="47.48347" lon="6.76918">
        <ele>310</ele>
        <time>2016-02-14T08:54:03.000Z</time>
      </trkpt>
      <trkpt lat="47.48343" lon="6.76914">
        <ele>310</ele>
        <time>2016-02-14T08:54:04.000Z</time>
      </trkpt>
      <trkpt lat="47.48338" lon="6.76911">
        <ele>310</ele>
        <time>2016-02-14T08:54:05.000Z</time>
      </trkpt>
      <trkpt lat="47.48333" lon="6.76909">
        <ele>309</ele>
        <time>2016-02-14T08:54:06.000Z</time>
      </trkpt>
      <trkpt lat="47.48328" lon="6.76905">
        <ele>310</ele>
        <time>2016-02-14T08:54:07.000Z</time>
      </trkpt>
      <trkpt lat="47.48323" lon="6.76901">
        <ele>310</ele>
        <time>2016-02-14T08:54:08.000Z</time>
      </trkpt>
      <trkpt lat="47.48318" lon="6.76897">
        <ele>310</ele>
        <time>2016-02-14T08:54:09.000Z</time>
      </trkpt>
      <trkpt lat="47.48313" lon="6.76893">
        <ele>310</ele>
        <time>2016-02-14T08:54:10.000Z</time>
      </trkpt>
      <trkpt lat="47.48308" lon="6.76889">
        <ele>310</ele>
        <time>2016-02-14T08:54:11.000Z</time>
      </trkpt>
      <trkpt lat="47.48303" lon="6.76884">
        <ele>310</ele>
        <time>2016-02-14T08:54:12.000Z</time>
      </trkpt>
      <trkpt lat="47.48299" lon="6.76881">
        <ele>310</ele>
        <time>2016-02-14T08:54:13.000Z</time>
      </trkpt>
      <trkpt lat="47.48294" lon="6.76877">
        <ele>310</ele>
        <time>2016-02-14T08:54:14.000Z</time>
      </trkpt>
      <trkpt lat="47.48289" lon="6.76872">
        <ele>310</ele>
        <time>2016-02-14T08:54:15.000Z</time>
      </trkpt>
      <trkpt lat="47.48285" lon="6.76867">
        <ele>310</ele>
        <time>2016-02-14T08:54:16.000Z</time>
      </trkpt>
      <trkpt lat="47.48282" lon="6.76863">
        <ele>310</ele>
        <time>2016-02-14T08:54:17.000Z</time>
      </trkpt>
      <trkpt lat="47.48279" lon="6.76858">
        <ele>310</ele>
        <time>2016-02-14T08:54:18.000Z</time>
      </trkpt>
      <trkpt lat="47.48275" lon="6.76853">
        <ele>310</ele>
        <time>2016-02-14T08:54:18.999Z</time>
      </trkpt>
      <trkpt lat="47.48272" lon="6.76848">
        <ele>311</ele>
        <time>2016-02-14T08:54:20.000Z</time>
      </trkpt>
      <trkpt lat="47.48268" lon="6.76843">
        <ele>311</ele>
        <time>2016-02-14T08:54:20.999Z</time>
      </trkpt>
      <trkpt lat="47.48265" lon="6.76838">
        <ele>311</ele>
        <time>2016-02-14T08:54:22.000Z</time>
      </trkpt>
      <trkpt lat="47.48262" lon="6.76833">
        <ele>312</ele>
        <time>2016-02-14T08:54:23.000Z</time>
      </trkpt>
      <trkpt lat="47.48258" lon="6.76828">
        <ele>312</ele>
        <time>2016-02-14T08:54:24.000Z</time>
      </trkpt>
      <trkpt lat="47.48255" lon="6.76823">
        <ele>312</ele>
        <time>2016-02-14T08:54:25.000Z</time>
      </trkpt>
      <trkpt lat="47.48251" lon="6.76818">
        <ele>312</ele>
        <time>2016-02-14T08:54:26.000Z</time>
      </trkpt>
      <trkpt lat="47.48247" lon="6.76815">
        <ele>312</ele>
        <time>2016-02-14T08:54:27.000Z</time>
      </trkpt>
      <trkpt lat="47.48242" lon="6.76811">
        <ele>312</ele>
        <time>2016-02-14T08:54:28.000Z</time>
      </trkpt>
      <trkpt lat="47.48237" lon="6.76808">
        <ele>312</ele>
        <time>2016-02-14T08:54:29.000Z</time>
      </trkpt>
      <trkpt lat="47.48232" lon="6.76804">
        <ele>312</ele>
        <time>2016-02-14T08:54:30.000Z</time>
      </trkpt>
      <trkpt lat="47.48227" lon="6.76801">
        <ele>312</ele>
        <time>2016-02-14T08:54:31.000Z</time>
      </trkpt>
      <trkpt lat="47.48221" lon="6.76799">
        <ele>312</ele>
        <time>2016-02-14T08:54:32.000Z</time>
      </trkpt>
      <trkpt lat="47.48217" lon="6.76798">
        <ele>312</ele>
        <time>2016-02-14T08:54:33.000Z</time>
      </trkpt>
      <trkpt lat="47.48212" lon="6.76796">
        <ele>312</ele>
        <time>2016-02-14T08:54:34.000Z</time>
      </trkpt>
      <trkpt lat="47.48207" lon="6.76794">
        <ele>312</ele>
        <time>2016-02-14T08:54:35.000Z</time>
      </trkpt>
      <trkpt lat="47.48201" lon="6.76791">
        <ele>312</ele>
        <time>2016-02-14T08:54:36.000Z</time>
      </trkpt>
      <trkpt lat="47.48196" lon="6.76788">
        <ele>312</ele>
        <time>2016-02-14T08:54:37.001Z</time>
      </trkpt>
      <trkpt lat="47.48192" lon="6.76785">
        <ele>312</ele>
        <time>2016-02-14T08:54:38.000Z</time>
      </trkpt>
      <trkpt lat="47.48187" lon="6.7678">
        <ele>312</ele>
        <time>2016-02-14T08:54:39.000Z</time>
      </trkpt>
      <trkpt lat="47.48182" lon="6.76775">
        <ele>312</ele>
        <time>2016-02-14T08:54:40.000Z</time>
      </trkpt>
      <trkpt lat="47.48177" lon="6.7677">
        <ele>312</ele>
        <time>2016-02-14T08:54:40.999Z</time>
      </trkpt>
      <trkpt lat="47.48173" lon="6.76765">
        <ele>313</ele>
        <time>2016-02-14T08:54:42.000Z</time>
      </trkpt>
      <trkpt lat="47.48169" lon="6.7676">
        <ele>313</ele>
        <time>2016-02-14T08:54:43.000Z</time>
      </trkpt>
      <trkpt lat="47.48165" lon="6.76754">
        <ele>313</ele>
        <time>2016-02-14T08:54:44.000Z</time>
      </trkpt>
      <trkpt lat="47.48161" lon="6.76748">
        <ele>313</ele>
        <time>2016-02-14T08:54:45.000Z</time>
      </trkpt>
      <trkpt lat="47.48157" lon="6.76742">
        <ele>313</ele>
        <time>2016-02-14T08:54:46.000Z</time>
      </trkpt>
      <trkpt lat="47.48153" lon="6.76735">
        <ele>312</ele>
        <time>2016-02-14T08:54:46.999Z</time>
      </trkpt>
      <trkpt lat="47.48151" lon="6.76728">
        <ele>312</ele>
        <time>2016-02-14T08:54:48.000Z</time>
      </trkpt>
      <trkpt lat="47.48147" lon="6.76722">
        <ele>312</ele>
        <time>2016-02-14T08:54:49.000Z</time>
      </trkpt>
      <trkpt lat="47.48142" lon="6.76716">
        <ele>312</ele>
        <time>2016-02-14T08:54:50.000Z</time>
      </trkpt>
      <trkpt lat="47.48137" lon="6.76711">
        <ele>312</ele>
        <time>2016-02-14T08:54:51.000Z</time>
      </trkpt>
      <trkpt lat="47.48137" lon="6.76706">
        <ele>312</ele>
        <time>2016-02-14T08:54:52.000Z</time>
      </trkpt>
      <trkpt lat="47.48135" lon="6.76698">
        <ele>312</ele>
        <time>2016-02-14T08:54:53.000Z</time>
      </trkpt>
      <trkpt lat="47.48132" lon="6.76692">
        <ele>312</ele>
        <time>2016-02-14T08:54:54.000Z</time>
      </trkpt>
      <trkpt lat="47.4813" lon="6.76686">
        <ele>312</ele>
        <time>2016-02-14T08:54:55.000Z</time>
      </trkpt>
      <trkpt lat="47.48128" lon="6.76681">
        <ele>312</ele>
        <time>2016-02-14T08:54:56.000Z</time>
      </trkpt>
      <trkpt lat="47.48124" lon="6.76678">
        <ele>312</ele>
        <time>2016-02-14T08:54:57.000Z</time>
      </trkpt>
      <trkpt lat="47.4812" lon="6.76674">
        <ele>312</ele>
        <time>2016-02-14T08:54:58.000Z</time>
      </trkpt>
      <trkpt lat="47.48116" lon="6.7667">
        <ele>312</ele>
        <time>2016-02-14T08:54:59.001Z</time>
      </trkpt>
      <trkpt lat="47.48114" lon="6.76662">
        <ele>312</ele>
        <time>2016-02-14T08:55:00.000Z</time>
      </trkpt>
      <trkpt lat="47.48112" lon="6.76655">
        <ele>312</ele>
        <time>2016-02-14T08:55:01.000Z</time>
      </trkpt>
      <trkpt lat="47.48107" lon="6.76648">
        <ele>312</ele>
        <time>2016-02-14T08:55:02.000Z</time>
      </trkpt>
      <trkpt lat="47.48104" lon="6.76641">
        <ele>313</ele>
        <time>2016-02-14T08:55:03.002Z</time>
      </trkpt>
      <trkpt lat="47.48101" lon="6.76635">
        <ele>313</ele>
        <time>2016-02-14T08:55:04.000Z</time>
      </trkpt>
      <trkpt lat="47.481" lon="6.76628">
        <ele>313</ele>
        <time>2016-02-14T08:55:05.000Z</time>
      </trkpt>
      <trkpt lat="47.48101" lon="6.76621">
        <ele>313</ele>
        <time>2016-02-14T08:55:06.000Z</time>
      </trkpt>
      <trkpt lat="47.48102" lon="6.76615">
        <ele>313</ele>
        <time>2016-02-14T08:55:07.000Z</time>
      </trkpt>
      <trkpt lat="47.48104" lon="6.76609">
        <ele>313</ele>
        <time>2016-02-14T08:55:08.000Z</time>
      </trkpt>
      <trkpt lat="47.48105" lon="6.76598">
        <ele>313</ele>
        <time>2016-02-14T08:55:09.000Z</time>
      </trkpt>
      <trkpt lat="47.48108" lon="6.76592">
        <ele>313</ele>
        <time>2016-02-14T08:55:10.000Z</time>
      </trkpt>
      <trkpt lat="47.4811" lon="6.76586">
        <ele>313</ele>
        <time>2016-02-14T08:55:11.000Z</time>
      </trkpt>
      <trkpt lat="47.48115" lon="6.76578">
        <ele>317</ele>
        <time>2016-02-14T08:55:12.000Z</time>
      </trkpt>
      <trkpt lat="47.4812" lon="6.76573">
        <ele>318</ele>
        <time>2016-02-14T08:55:13.000Z</time>
      </trkpt>
      <trkpt lat="47.48126" lon="6.76568">
        <ele>319</ele>
        <time>2016-02-14T08:55:14.000Z</time>
      </trkpt>
      <trkpt lat="47.48125" lon="6.7656">
        <ele>319</ele>
        <time>2016-02-14T08:55:15.000Z</time>
      </trkpt>
      <trkpt lat="47.48127" lon="6.76554">
        <ele>319</ele>
        <time>2016-02-14T08:55:16.000Z</time>
      </trkpt>
      <trkpt lat="47.48127" lon="6.76548">
        <ele>320</ele>
        <time>2016-02-14T08:55:18.000Z</time>
      </trkpt>
      <trkpt lat="47.48125" lon="6.76541">
        <ele>320</ele>
        <time>2016-02-14T08:55:19.000Z</time>
      </trkpt>
      <trkpt lat="47.48123" lon="6.76541">
        <ele>320</ele>
        <time>2016-02-14T08:55:20.000Z</time>
      </trkpt>
      <trkpt lat="47.4812" lon="6.76536">
        <ele>320</ele>
        <time>2016-02-14T08:55:21.000Z</time>
      </trkpt>
      <trkpt lat="47.48117" lon="6.76531">
        <ele>320</ele>
        <time>2016-02-14T08:55:22.000Z</time>
      </trkpt>
      <trkpt lat="47.48115" lon="6.76525">
        <ele>320</ele>
        <time>2016-02-14T08:55:23.000Z</time>
      </trkpt>
      <trkpt lat="47.48112" lon="6.76523">
        <ele>319</ele>
        <time>2016-02-14T08:55:24.000Z</time>
      </trkpt>
      <trkpt lat="47.48109" lon="6.76521">
        <ele>319</ele>
        <time>2016-02-14T08:55:25.000Z</time>
      </trkpt>
      <trkpt lat="47.48106" lon="6.76517">
        <ele>318</ele>
        <time>2016-02-14T08:55:26.000Z</time>
      </trkpt>
      <trkpt lat="47.48103" lon="6.76517">
        <ele>318</ele>
        <time>2016-02-14T08:55:27.000Z</time>
      </trkpt>
      <trkpt lat="47.481" lon="6.7652">
        <ele>318</ele>
        <time>2016-02-14T08:55:28.000Z</time>
      </trkpt>
      <trkpt lat="47.48095" lon="6.76525">
        <ele>318</ele>
        <time>2016-02-14T08:55:29.000Z</time>
      </trkpt>
      <trkpt lat="47.48092" lon="6.76528">
        <ele>317</ele>
        <time>2016-02-14T08:55:30.000Z</time>
      </trkpt>
      <trkpt lat="47.48088" lon="6.76531">
        <ele>317</ele>
        <time>2016-02-14T08:55:31.000Z</time>
      </trkpt>
      <trkpt lat="47.48085" lon="6.76533">
        <ele>317</ele>
        <time>2016-02-14T08:55:32.000Z</time>
      </trkpt>
      <trkpt lat="47.48082" lon="6.76536">
        <ele>312</ele>
        <time>2016-02-14T08:55:33.000Z</time>
      </trkpt>
      <trkpt lat="47.4808" lon="6.76539">
        <ele>312</ele>
        <time>2016-02-14T08:55:34.000Z</time>
      </trkpt>
      <trkpt lat="47.48076" lon="6.76542">
        <ele>312</ele>
        <time>2016-02-14T08:55:35.000Z</time>
      </trkpt>
      <trkpt lat="47.48072" lon="6.76545">
        <ele>312</ele>
        <time>2016-02-14T08:55:36.000Z</time>
      </trkpt>
      <trkpt lat="47.48068" lon="6.76549">
        <ele>312</ele>
        <time>2016-02-14T08:55:37.000Z</time>
      </trkpt>
      <trkpt lat="47.48064" lon="6.76553">
        <ele>312</ele>
        <time>2016-02-14T08:55:38.000Z</time>
      </trkpt>
      <trkpt lat="47.4806" lon="6.76557">
        <ele>312</ele>
        <time>2016-02-14T08:55:39.000Z</time>
      </trkpt>
      <trkpt lat="47.48057" lon="6.7656">
        <ele>312</ele>
        <time>2016-02-14T08:55:40.000Z</time>
      </trkpt>
      <trkpt lat="47.48054" lon="6.76562">
        <ele>312</ele>
        <time>2016-02-14T08:55:41.000Z</time>
      </trkpt>
      <trkpt lat="47.48051" lon="6.76565">
        <ele>312</ele>
        <time>2016-02-14T08:55:42.000Z</time>
      </trkpt>
      <trkpt lat="47.48048" lon="6.76568">
        <ele>312</ele>
        <time>2016-02-14T08:55:43.000Z</time>
      </trkpt>
      <trkpt lat="47.48043" lon="6.76572">
        <ele>312</ele>
        <time>2016-02-14T08:55:44.000Z</time>
      </trkpt>
      <trkpt lat="47.48039" lon="6.76575">
        <ele>312</ele>
        <time>2016-02-14T08:55:45.000Z</time>
      </trkpt>
      <trkpt lat="47.48035" lon="6.76578">
        <ele>312</ele>
        <time>2016-02-14T08:55:46.000Z</time>
      </trkpt>
      <trkpt lat="47.48031" lon="6.76582">
        <ele>312</ele>
        <time>2016-02-14T08:55:47.000Z</time>
      </trkpt>
      <trkpt lat="47.48027" lon="6.76585">
        <ele>312</ele>
        <time>2016-02-14T08:55:48.000Z</time>
      </trkpt>
      <trkpt lat="47.48022" lon="6.76587">
        <ele>312</ele>
        <time>2016-02-14T08:55:49.000Z</time>
      </trkpt>
      <trkpt lat="47.48018" lon="6.7659">
        <ele>312</ele>
        <time>2016-02-14T08:55:50.000Z</time>
      </trkpt>
      <trkpt lat="47.48014" lon="6.76592">
        <ele>312</ele>
        <time>2016-02-14T08:55:51.000Z</time>
      </trkpt>
      <trkpt lat="47.4801" lon="6.76595">
        <ele>312</ele>
        <time>2016-02-14T08:55:52.000Z</time>
      </trkpt>
      <trkpt lat="47.48006" lon="6.76597">
        <ele>312</ele>
        <time>2016-02-14T08:55:53.000Z</time>
      </trkpt>
      <trkpt lat="47.48002" lon="6.76599">
        <ele>312</ele>
        <time>2016-02-14T08:55:54.000Z</time>
      </trkpt>
      <trkpt lat="47.47998" lon="6.76602">
        <ele>312</ele>
        <time>2016-02-14T08:55:55.000Z</time>
      </trkpt>
      <trkpt lat="47.47994" lon="6.76604">
        <ele>312</ele>
        <time>2016-02-14T08:55:56.000Z</time>
      </trkpt>
      <trkpt lat="47.4799" lon="6.76607">
        <ele>312</ele>
        <time>2016-02-14T08:55:57.000Z</time>
      </trkpt>
      <trkpt lat="47.47983" lon="6.7661">
        <ele>311</ele>
        <time>2016-02-14T08:55:58.000Z</time>
      </trkpt>
      <trkpt lat="47.47979" lon="6.76613">
        <ele>311</ele>
        <time>2016-02-14T08:55:59.000Z</time>
      </trkpt>
      <trkpt lat="47.47974" lon="6.76615">
        <ele>311</ele>
        <time>2016-02-14T08:56:00.000Z</time>
      </trkpt>
      <trkpt lat="47.4797" lon="6.76617">
        <ele>311</ele>
        <time>2016-02-14T08:56:01.000Z</time>
      </trkpt>
      <trkpt lat="47.47966" lon="6.76619">
        <ele>311</ele>
        <time>2016-02-14T08:56:04.000Z</time>
      </trkpt>
      <trkpt lat="47.47965" lon="6.7662">
        <ele>311</ele>
        <time>2016-02-14T08:56:05.000Z</time>
      </trkpt>
      <trkpt lat="47.47962" lon="6.76621">
        <ele>311</ele>
        <time>2016-02-14T08:56:06.000Z</time>
      </trkpt>
      <trkpt lat="47.4796" lon="6.76622">
        <ele>311</ele>
        <time>2016-02-14T08:56:07.000Z</time>
      </trkpt>
      <trkpt lat="47.47958" lon="6.76623">
        <ele>311</ele>
        <time>2016-02-14T08:56:08.000Z</time>
      </trkpt>
      <trkpt lat="47.47955" lon="6.76624">
        <ele>311</ele>
        <time>2016-02-14T08:56:09.000Z</time>
      </trkpt>
      <trkpt lat="47.47953" lon="6.76626">
        <ele>311</ele>
        <time>2016-02-14T08:56:10.000Z</time>
      </trkpt>
      <trkpt lat="47.4795" lon="6.76628">
        <ele>311</ele>
        <time>2016-02-14T08:56:11.000Z</time>
      </trkpt>
      <trkpt lat="47.47947" lon="6.76632">
        <ele>311</ele>
        <time>2016-02-14T08:56:12.000Z</time>
      </trkpt>
      <trkpt lat="47.47943" lon="6.76635">
        <ele>311</ele>
        <time>2016-02-14T08:56:13.000Z</time>
      </trkpt>
      <trkpt lat="47.47939" lon="6.76638">
        <ele>311</ele>
        <time>2016-02-14T08:56:14.000Z</time>
      </trkpt>
      <trkpt lat="47.47936" lon="6.76641">
        <ele>311</ele>
        <time>2016-02-14T08:56:15.000Z</time>
      </trkpt>
      <trkpt lat="47.47928" lon="6.76645">
        <ele>311</ele>
        <time>2016-02-14T08:56:16.000Z</time>
      </trkpt>
      <trkpt lat="47.47925" lon="6.76646">
        <ele>311</ele>
        <time>2016-02-14T08:56:17.000Z</time>
      </trkpt>
      <trkpt lat="47.47922" lon="6.76649">
        <ele>311</ele>
        <time>2016-02-14T08:56:17.999Z</time>
      </trkpt>
      <trkpt lat="47.47918" lon="6.76653">
        <ele>311</ele>
        <time>2016-02-14T08:56:19.000Z</time>
      </trkpt>
      <trkpt lat="47.47916" lon="6.76655">
        <ele>311</ele>
        <time>2016-02-14T08:56:20.000Z</time>
      </trkpt>
      <trkpt lat="47.47916" lon="6.76659">
        <ele>311</ele>
        <time>2016-02-14T08:56:21.000Z</time>
      </trkpt>
      <trkpt lat="47.47914" lon="6.76664">
        <ele>311</ele>
        <time>2016-02-14T08:56:22.001Z</time>
      </trkpt>
      <trkpt lat="47.47911" lon="6.76667">
        <ele>311</ele>
        <time>2016-02-14T08:56:23.000Z</time>
      </trkpt>
      <trkpt lat="47.47908" lon="6.7667">
        <ele>311</ele>
        <time>2016-02-14T08:56:24.000Z</time>
      </trkpt>
      <trkpt lat="47.47905" lon="6.76674">
        <ele>311</ele>
        <time>2016-02-14T08:56:25.000Z</time>
      </trkpt>
      <trkpt lat="47.47903" lon="6.76677">
        <ele>311</ele>
        <time>2016-02-14T08:56:26.001Z</time>
      </trkpt>
      <trkpt lat="47.47899" lon="6.76682">
        <ele>311</ele>
        <time>2016-02-14T08:56:27.000Z</time>
      </trkpt>
      <trkpt lat="47.47896" lon="6.76687">
        <ele>310</ele>
        <time>2016-02-14T08:56:28.000Z</time>
      </trkpt>
      <trkpt lat="47.47892" lon="6.76698">
        <ele>310</ele>
        <time>2016-02-14T08:56:29.000Z</time>
      </trkpt>
      <trkpt lat="47.4789" lon="6.76707">
        <ele>310</ele>
        <time>2016-02-14T08:56:30.000Z</time>
      </trkpt>
      <trkpt lat="47.47887" lon="6.76715">
        <ele>310</ele>
        <time>2016-02-14T08:56:31.000Z</time>
      </trkpt>
      <trkpt lat="47.47881" lon="6.76716">
        <ele>310</ele>
        <time>2016-02-14T08:56:32.000Z</time>
      </trkpt>
      <trkpt lat="47.47877" lon="6.76721">
        <ele>310</ele>
        <time>2016-02-14T08:56:33.000Z</time>
      </trkpt>
      <trkpt lat="47.47873" lon="6.76725">
        <ele>310</ele>
        <time>2016-02-14T08:56:34.000Z</time>
      </trkpt>
      <trkpt lat="47.47871" lon="6.76734">
        <ele>310</ele>
        <time>2016-02-14T08:56:35.000Z</time>
      </trkpt>
      <trkpt lat="47.47867" lon="6.76743">
        <ele>310</ele>
        <time>2016-02-14T08:56:36.000Z</time>
      </trkpt>
      <trkpt lat="47.47863" lon="6.7675">
        <ele>311</ele>
        <time>2016-02-14T08:56:37.000Z</time>
      </trkpt>
      <trkpt lat="47.47863" lon="6.76754">
        <ele>311</ele>
        <time>2016-02-14T08:56:38.000Z</time>
      </trkpt>
      <trkpt lat="47.47861" lon="6.76762">
        <ele>311</ele>
        <time>2016-02-14T08:56:39.000Z</time>
      </trkpt>
      <trkpt lat="47.47858" lon="6.76771">
        <ele>311</ele>
        <time>2016-02-14T08:56:40.000Z</time>
      </trkpt>
      <trkpt lat="47.47852" lon="6.76779">
        <ele>311</ele>
        <time>2016-02-14T08:56:41.000Z</time>
      </trkpt>
      <trkpt lat="47.47851" lon="6.76785">
        <ele>311</ele>
        <time>2016-02-14T08:56:42.000Z</time>
      </trkpt>
      <trkpt lat="47.47846" lon="6.76791">
        <ele>311</ele>
        <time>2016-02-14T08:56:43.000Z</time>
      </trkpt>
      <trkpt lat="47.4784" lon="6.76798">
        <ele>311</ele>
        <time>2016-02-14T08:56:44.000Z</time>
      </trkpt>
      <trkpt lat="47.47834" lon="6.76803">
        <ele>311</ele>
        <time>2016-02-14T08:56:45.000Z</time>
      </trkpt>
      <trkpt lat="47.47828" lon="6.76803">
        <ele>310</ele>
        <time>2016-02-14T08:56:46.000Z</time>
      </trkpt>
      <trkpt lat="47.47823" lon="6.76804">
        <ele>310</ele>
        <time>2016-02-14T08:56:47.000Z</time>
      </trkpt>
      <trkpt lat="47.47819" lon="6.76803">
        <ele>310</ele>
        <time>2016-02-14T08:56:48.000Z</time>
      </trkpt>
      <trkpt lat="47.47813" lon="6.76804">
        <ele>310</ele>
        <time>2016-02-14T08:56:49.000Z</time>
      </trkpt>
      <trkpt lat="47.47807" lon="6.76804">
        <ele>310</ele>
        <time>2016-02-14T08:56:50.000Z</time>
      </trkpt>
      <trkpt lat="47.47809" lon="6.76808">
        <ele>310</ele>
        <time>2016-02-14T08:56:52.000Z</time>
      </trkpt>
      <trkpt lat="47.47809" lon="6.7681">
        <ele>310</ele>
        <time>2016-02-14T08:56:53.000Z</time>
      </trkpt>
      <trkpt lat="47.4781" lon="6.76815">
        <ele>310</ele>
        <time>2016-02-14T08:56:57.000Z</time>
      </trkpt>
      <trkpt lat="47.47811" lon="6.76816">
        <ele>310</ele>
        <time>2016-02-14T08:56:58.000Z</time>
      </trkpt>
      <trkpt lat="47.47815" lon="6.76816">
        <ele>310</ele>
        <time>2016-02-14T08:57:00.000Z</time>
      </trkpt>
      <trkpt lat="47.47817" lon="6.76817">
        <ele>310</ele>
        <time>2016-02-14T08:57:01.000Z</time>
      </trkpt>
      <trkpt lat="47.4782" lon="6.76819">
        <ele>310</ele>
        <time>2016-02-14T08:57:02.000Z</time>
      </trkpt>
      <trkpt lat="47.47822" lon="6.7682">
        <ele>310</ele>
        <time>2016-02-14T08:57:03.000Z</time>
      </trkpt>
      <trkpt lat="47.47825" lon="6.76822">
        <ele>310</ele>
        <time>2016-02-14T08:57:04.000Z</time>
      </trkpt>
      <trkpt lat="47.47827" lon="6.76824">
        <ele>310</ele>
        <time>2016-02-14T08:57:05.000Z</time>
      </trkpt>
      <trkpt lat="47.4783" lon="6.76828">
        <ele>310</ele>
        <time>2016-02-14T08:57:07.000Z</time>
      </trkpt>
      <trkpt lat="47.47834" lon="6.7683">
        <ele>310</ele>
        <time>2016-02-14T08:57:08.000Z</time>
      </trkpt>
      <trkpt lat="47.47844" lon="6.76836">
        <ele>311</ele>
        <time>2016-02-14T08:57:09.000Z</time>
      </trkpt>
      <trkpt lat="47.47848" lon="6.76839">
        <ele>311</ele>
        <time>2016-02-14T08:57:10.000Z</time>
      </trkpt>
      <trkpt lat="47.47852" lon="6.76844">
        <ele>311</ele>
        <time>2016-02-14T08:57:11.000Z</time>
      </trkpt>
      <trkpt lat="47.47857" lon="6.76847">
        <ele>312</ele>
        <time>2016-02-14T08:57:12.000Z</time>
      </trkpt>
      <trkpt lat="47.47862" lon="6.76849">
        <ele>312</ele>
        <time>2016-02-14T08:57:13.000Z</time>
      </trkpt>
      <trkpt lat="47.47865" lon="6.76851">
        <ele>312</ele>
        <time>2016-02-14T08:57:14.000Z</time>
      </trkpt>
      <trkpt lat="47.47869" lon="6.76854">
        <ele>312</ele>
        <time>2016-02-14T08:57:15.000Z</time>
      </trkpt>
      <trkpt lat="47.47872" lon="6.76855">
        <ele>312</ele>
        <time>2016-02-14T08:57:16.000Z</time>
      </trkpt>
      <trkpt lat="47.47875" lon="6.76857">
        <ele>312</ele>
        <time>2016-02-14T08:57:17.000Z</time>
      </trkpt>
      <trkpt lat="47.47877" lon="6.76857">
        <ele>312</ele>
        <time>2016-02-14T08:57:18.000Z</time>
      </trkpt>
      <trkpt lat="47.47882" lon="6.76859">
        <ele>312</ele>
        <time>2016-02-14T08:57:19.000Z</time>
      </trkpt>
      <trkpt lat="47.47885" lon="6.7686">
        <ele>312</ele>
        <time>2016-02-14T08:57:20.000Z</time>
      </trkpt>
      <trkpt lat="47.47889" lon="6.76863">
        <ele>312</ele>
        <time>2016-02-14T08:57:21.000Z</time>
      </trkpt>
      <trkpt lat="47.47894" lon="6.76866">
        <ele>313</ele>
        <time>2016-02-14T08:57:22.000Z</time>
      </trkpt>
      <trkpt lat="47.47897" lon="6.76868">
        <ele>313</ele>
        <time>2016-02-14T08:57:23.000Z</time>
      </trkpt>
      <trkpt lat="47.47905" lon="6.7687">
        <ele>313</ele>
        <time>2016-02-14T08:57:24.000Z</time>
      </trkpt>
      <trkpt lat="47.4791" lon="6.76873">
        <ele>313</ele>
        <time>2016-02-14T08:57:25.000Z</time>
      </trkpt>
      <trkpt lat="47.47914" lon="6.76876">
        <ele>313</ele>
        <time>2016-02-14T08:57:26.000Z</time>
      </trkpt>
      <trkpt lat="47.47917" lon="6.76879">
        <ele>313</ele>
        <time>2016-02-14T08:57:27.000Z</time>
      </trkpt>
      <trkpt lat="47.4792" lon="6.76882">
        <ele>313</ele>
        <time>2016-02-14T08:57:28.000Z</time>
      </trkpt>
      <trkpt lat="47.47923" lon="6.76883">
        <ele>313</ele>
        <time>2016-02-14T08:57:29.000Z</time>
      </trkpt>
      <trkpt lat="47.47928" lon="6.76886">
        <ele>313</ele>
        <time>2016-02-14T08:57:30.000Z</time>
      </trkpt>
      <trkpt lat="47.47932" lon="6.76889">
        <ele>313</ele>
        <time>2016-02-14T08:57:31.000Z</time>
      </trkpt>
      <trkpt lat="47.47937" lon="6.76892">
        <ele>313</ele>
        <time>2016-02-14T08:57:32.000Z</time>
      </trkpt>
      <trkpt lat="47.47939" lon="6.76894">
        <ele>313</ele>
        <time>2016-02-14T08:57:33.000Z</time>
      </trkpt>
      <trkpt lat="47.47948" lon="6.76897">
        <ele>313</ele>
        <time>2016-02-14T08:57:34.000Z</time>
      </trkpt>
      <trkpt lat="47.47953" lon="6.76899">
        <ele>313</ele>
        <time>2016-02-14T08:57:35.000Z</time>
      </trkpt>
      <trkpt lat="47.47958" lon="6.76901">
        <ele>313</ele>
        <time>2016-02-14T08:57:36.000Z</time>
      </trkpt>
      <trkpt lat="47.47962" lon="6.76903">
        <ele>313</ele>
        <time>2016-02-14T08:57:37.000Z</time>
      </trkpt>
      <trkpt lat="47.47967" lon="6.76905">
        <ele>313</ele>
        <time>2016-02-14T08:57:38.000Z</time>
      </trkpt>
      <trkpt lat="47.47972" lon="6.76906">
        <ele>313</ele>
        <time>2016-02-14T08:57:39.000Z</time>
      </trkpt>
      <trkpt lat="47.47983" lon="6.76907">
        <ele>313</ele>
        <time>2016-02-14T08:57:40.000Z</time>
      </trkpt>
      <trkpt lat="47.47989" lon="6.7691">
        <ele>312</ele>
        <time>2016-02-14T08:57:41.000Z</time>
      </trkpt>
      <trkpt lat="47.47995" lon="6.76912">
        <ele>312</ele>
        <time>2016-02-14T08:57:42.000Z</time>
      </trkpt>
      <trkpt lat="47.48001" lon="6.76914">
        <ele>312</ele>
        <time>2016-02-14T08:57:43.000Z</time>
      </trkpt>
      <trkpt lat="47.48008" lon="6.76915">
        <ele>312</ele>
        <time>2016-02-14T08:57:44.000Z</time>
      </trkpt>
      <trkpt lat="47.48013" lon="6.76917">
        <ele>312</ele>
        <time>2016-02-14T08:57:45.000Z</time>
      </trkpt>
      <trkpt lat="47.48021" lon="6.76919">
        <ele>312</ele>
        <time>2016-02-14T08:57:46.000Z</time>
      </trkpt>
      <trkpt lat="47.48028" lon="6.7692">
        <ele>312</ele>
        <time>2016-02-14T08:57:47.000Z</time>
      </trkpt>
      <trkpt lat="47.48034" lon="6.76922">
        <ele>312</ele>
        <time>2016-02-14T08:57:48.000Z</time>
      </trkpt>
      <trkpt lat="47.4804" lon="6.76922">
        <ele>312</ele>
        <time>2016-02-14T08:57:49.000Z</time>
      </trkpt>
      <trkpt lat="47.48045" lon="6.76923">
        <ele>312</ele>
        <time>2016-02-14T08:57:50.000Z</time>
      </trkpt>
      <trkpt lat="47.48051" lon="6.76926">
        <ele>312</ele>
        <time>2016-02-14T08:57:51.000Z</time>
      </trkpt>
      <trkpt lat="47.48056" lon="6.76928">
        <ele>312</ele>
        <time>2016-02-14T08:57:52.000Z</time>
      </trkpt>
      <trkpt lat="47.48062" lon="6.76931">
        <ele>312</ele>
        <time>2016-02-14T08:57:53.000Z</time>
      </trkpt>
      <trkpt lat="47.48068" lon="6.76934">
        <ele>312</ele>
        <time>2016-02-14T08:57:54.000Z</time>
      </trkpt>
      <trkpt lat="47.48074" lon="6.76936">
        <ele>312</ele>
        <time>2016-02-14T08:57:55.000Z</time>
      </trkpt>
      <trkpt lat="47.48079" lon="6.76939">
        <ele>312</ele>
        <time>2016-02-14T08:57:56.000Z</time>
      </trkpt>
      <trkpt lat="47.48083" lon="6.76941">
        <ele>312</ele>
        <time>2016-02-14T08:57:56.999Z</time>
      </trkpt>
      <trkpt lat="47.4809" lon="6.76943">
        <ele>312</ele>
        <time>2016-02-14T08:57:58.000Z</time>
      </trkpt>
      <trkpt lat="47.48097" lon="6.76944">
        <ele>312</ele>
        <time>2016-02-14T08:57:59.000Z</time>
      </trkpt>
      <trkpt lat="47.48103" lon="6.76946">
        <ele>312</ele>
        <time>2016-02-14T08:58:00.000Z</time>
      </trkpt>
      <trkpt lat="47.4811" lon="6.76948">
        <ele>312</ele>
        <time>2016-02-14T08:58:01.000Z</time>
      </trkpt>
      <trkpt lat="47.48116" lon="6.7695">
        <ele>312</ele>
        <time>2016-02-14T08:58:02.000Z</time>
      </trkpt>
      <trkpt lat="47.48121" lon="6.76953">
        <ele>312</ele>
        <time>2016-02-14T08:58:03.000Z</time>
      </trkpt>
      <trkpt lat="47.48126" lon="6.76955">
        <ele>312</ele>
        <time>2016-02-14T08:58:04.000Z</time>
      </trkpt>
      <trkpt lat="47.48132" lon="6.76957">
        <ele>312</ele>
        <time>2016-02-14T08:58:05.000Z</time>
      </trkpt>
      <trkpt lat="47.48136" lon="6.76958">
        <ele>312</ele>
        <time>2016-02-14T08:58:06.000Z</time>
      </trkpt>
      <trkpt lat="47.48142" lon="6.7696">
        <ele>311</ele>
        <time>2016-02-14T08:58:07.000Z</time>
      </trkpt>
      <trkpt lat="47.48148" lon="6.76961">
        <ele>311</ele>
        <time>2016-02-14T08:58:08.000Z</time>
      </trkpt>
      <trkpt lat="47.48155" lon="6.76962">
        <ele>311</ele>
        <time>2016-02-14T08:58:09.000Z</time>
      </trkpt>
      <trkpt lat="47.48162" lon="6.76964">
        <ele>311</ele>
        <time>2016-02-14T08:58:10.000Z</time>
      </trkpt>
      <trkpt lat="47.48168" lon="6.76966">
        <ele>311</ele>
        <time>2016-02-14T08:58:11.000Z</time>
      </trkpt>
      <trkpt lat="47.48174" lon="6.76968">
        <ele>311</ele>
        <time>2016-02-14T08:58:12.000Z</time>
      </trkpt>
      <trkpt lat="47.48177" lon="6.76971">
        <ele>311</ele>
        <time>2016-02-14T08:58:13.000Z</time>
      </trkpt>
      <trkpt lat="47.48183" lon="6.76974">
        <ele>311</ele>
        <time>2016-02-14T08:58:14.000Z</time>
      </trkpt>
      <trkpt lat="47.48189" lon="6.76976">
        <ele>311</ele>
        <time>2016-02-14T08:58:15.000Z</time>
      </trkpt>
      <trkpt lat="47.48194" lon="6.76978">
        <ele>311</ele>
        <time>2016-02-14T08:58:16.000Z</time>
      </trkpt>
      <trkpt lat="47.48199" lon="6.76982">
        <ele>311</ele>
        <time>2016-02-14T08:58:17.000Z</time>
      </trkpt>
      <trkpt lat="47.48205" lon="6.76986">
        <ele>311</ele>
        <time>2016-02-14T08:58:18.000Z</time>
      </trkpt>
      <trkpt lat="47.48214" lon="6.76987">
        <ele>311</ele>
        <time>2016-02-14T08:58:19.000Z</time>
      </trkpt>
      <trkpt lat="47.48219" lon="6.7699">
        <ele>311</ele>
        <time>2016-02-14T08:58:20.000Z</time>
      </trkpt>
      <trkpt lat="47.48225" lon="6.76991">
        <ele>311</ele>
        <time>2016-02-14T08:58:21.000Z</time>
      </trkpt>
      <trkpt lat="47.48231" lon="6.76994">
        <ele>312</ele>
        <time>2016-02-14T08:58:22.000Z</time>
      </trkpt>
      <trkpt lat="47.48238" lon="6.76996">
        <ele>312</ele>
        <time>2016-02-14T08:58:23.000Z</time>
      </trkpt>
      <trkpt lat="47.48243" lon="6.76998">
        <ele>312</ele>
        <time>2016-02-14T08:58:24.000Z</time>
      </trkpt>
      <trkpt lat="47.48248" lon="6.77001">
        <ele>312</ele>
        <time>2016-02-14T08:58:25.000Z</time>
      </trkpt>
      <trkpt lat="47.48253" lon="6.77001">
        <ele>312</ele>
        <time>2016-02-14T08:58:26.000Z</time>
      </trkpt>
      <trkpt lat="47.48257" lon="6.77004">
        <ele>313</ele>
        <time>2016-02-14T08:58:27.000Z</time>
      </trkpt>
      <trkpt lat="47.48263" lon="6.77007">
        <ele>314</ele>
        <time>2016-02-14T08:58:28.000Z</time>
      </trkpt>
      <trkpt lat="47.48268" lon="6.77009">
        <ele>314</ele>
        <time>2016-02-14T08:58:29.000Z</time>
      </trkpt>
      <trkpt lat="47.48272" lon="6.77012">
        <ele>315</ele>
        <time>2016-02-14T08:58:30.000Z</time>
      </trkpt>
      <trkpt lat="47.48277" lon="6.77015">
        <ele>315</ele>
        <time>2016-02-14T08:58:31.000Z</time>
      </trkpt>
      <trkpt lat="47.48281" lon="6.77019">
        <ele>315</ele>
        <time>2016-02-14T08:58:32.000Z</time>
      </trkpt>
      <trkpt lat="47.48283" lon="6.77023">
        <ele>315</ele>
        <time>2016-02-14T08:58:33.000Z</time>
      </trkpt>
      <trkpt lat="47.48284" lon="6.77029">
        <ele>316</ele>
        <time>2016-02-14T08:58:34.000Z</time>
      </trkpt>
      <trkpt lat="47.4828" lon="6.77037">
        <ele>316</ele>
        <time>2016-02-14T08:58:35.000Z</time>
      </trkpt>
      <trkpt lat="47.4828" lon="6.77044">
        <ele>316</ele>
        <time>2016-02-14T08:58:36.000Z</time>
      </trkpt>
      <trkpt lat="47.48278" lon="6.7705">
        <ele>317</ele>
        <time>2016-02-14T08:58:37.000Z</time>
      </trkpt>
      <trkpt lat="47.48278" lon="6.77055">
        <ele>317</ele>
        <time>2016-02-14T08:58:38.000Z</time>
      </trkpt>
      <trkpt lat="47.48276" lon="6.77061">
        <ele>317</ele>
        <time>2016-02-14T08:58:39.000Z</time>
      </trkpt>
      <trkpt lat="47.48274" lon="6.77067">
        <ele>317</ele>
        <time>2016-02-14T08:58:40.000Z</time>
      </trkpt>
      <trkpt lat="47.48269" lon="6.77078">
        <ele>317</ele>
        <time>2016-02-14T08:58:41.000Z</time>
      </trkpt>
      <trkpt lat="47.48267" lon="6.77085">
        <ele>320</ele>
        <time>2016-02-14T08:58:42.000Z</time>
      </trkpt>
      <trkpt lat="47.48265" lon="6.77093">
        <ele>320</ele>
        <time>2016-02-14T08:58:43.000Z</time>
      </trkpt>
      <trkpt lat="47.48263" lon="6.771">
        <ele>320</ele>
        <time>2016-02-14T08:58:44.000Z</time>
      </trkpt>
      <trkpt lat="47.48261" lon="6.77108">
        <ele>321</ele>
        <time>2016-02-14T08:58:45.000Z</time>
      </trkpt>
      <trkpt lat="47.4826" lon="6.77115">
        <ele>321</ele>
        <time>2016-02-14T08:58:46.000Z</time>
      </trkpt>
      <trkpt lat="47.48258" lon="6.77123">
        <ele>321</ele>
        <time>2016-02-14T08:58:47.000Z</time>
      </trkpt>
      <trkpt lat="47.48257" lon="6.77129">
        <ele>322</ele>
        <time>2016-02-14T08:58:48.000Z</time>
      </trkpt>
      <trkpt lat="47.48254" lon="6.77137">
        <ele>322</ele>
        <time>2016-02-14T08:58:49.000Z</time>
      </trkpt>
      <trkpt lat="47.48252" lon="6.77143">
        <ele>321</ele>
        <time>2016-02-14T08:58:50.000Z</time>
      </trkpt>
      <trkpt lat="47.48252" lon="6.77151">
        <ele>321</ele>
        <time>2016-02-14T08:58:51.000Z</time>
      </trkpt>
      <trkpt lat="47.48253" lon="6.77158">
        <ele>321</ele>
        <time>2016-02-14T08:58:52.000Z</time>
      </trkpt>
      <trkpt lat="47.48251" lon="6.77166">
        <ele>320</ele>
        <time>2016-02-14T08:58:53.000Z</time>
      </trkpt>
      <trkpt lat="47.48253" lon="6.77174">
        <ele>321</ele>
        <time>2016-02-14T08:58:54.000Z</time>
      </trkpt>
      <trkpt lat="47.48254" lon="6.77182">
        <ele>321</ele>
        <time>2016-02-14T08:58:55.000Z</time>
      </trkpt>
      <trkpt lat="47.48253" lon="6.77189">
        <ele>321</ele>
        <time>2016-02-14T08:58:56.000Z</time>
      </trkpt>
      <trkpt lat="47.48251" lon="6.77197">
        <ele>321</ele>
        <time>2016-02-14T08:58:57.000Z</time>
      </trkpt>
      <trkpt lat="47.48252" lon="6.77207">
        <ele>321</ele>
        <time>2016-02-14T08:58:58.000Z</time>
      </trkpt>
      <trkpt lat="47.48256" lon="6.77213">
        <ele>321</ele>
        <time>2016-02-14T08:58:59.000Z</time>
      </trkpt>
      <trkpt lat="47.4826" lon="6.77217">
        <ele>321</ele>
        <time>2016-02-14T08:59:00.000Z</time>
      </trkpt>
      <trkpt lat="47.48262" lon="6.77221">
        <ele>321</ele>
        <time>2016-02-14T08:59:01.000Z</time>
      </trkpt>
      <trkpt lat="47.48266" lon="6.77224">
        <ele>321</ele>
        <time>2016-02-14T08:59:02.000Z</time>
      </trkpt>
      <trkpt lat="47.48268" lon="6.77227">
        <ele>321</ele>
        <time>2016-02-14T08:59:03.000Z</time>
      </trkpt>
      <trkpt lat="47.4827" lon="6.7723">
        <ele>321</ele>
        <time>2016-02-14T08:59:04.000Z</time>
      </trkpt>
      <trkpt lat="47.48272" lon="6.77231">
        <ele>321</ele>
        <time>2016-02-14T08:59:05.000Z</time>
      </trkpt>
      <trkpt lat="47.48275" lon="6.77234">
        <ele>321</ele>
        <time>2016-02-14T08:59:06.000Z</time>
      </trkpt>
      <trkpt lat="47.48279" lon="6.77237">
        <ele>321</ele>
        <time>2016-02-14T08:59:07.000Z</time>
      </trkpt>
      <trkpt lat="47.48283" lon="6.77238">
        <ele>322</ele>
        <time>2016-02-14T08:59:08.000Z</time>
      </trkpt>
      <trkpt lat="47.4829" lon="6.7724">
        <ele>322</ele>
        <time>2016-02-14T08:59:09.000Z</time>
      </trkpt>
      <trkpt lat="47.48296" lon="6.77246">
        <ele>322</ele>
        <time>2016-02-14T08:59:10.000Z</time>
      </trkpt>
      <trkpt lat="47.48301" lon="6.77247">
        <ele>323</ele>
        <time>2016-02-14T08:59:11.000Z</time>
      </trkpt>
      <trkpt lat="47.48305" lon="6.77248">
        <ele>323</ele>
        <time>2016-02-14T08:59:12.000Z</time>
      </trkpt>
      <trkpt lat="47.4831" lon="6.77249">
        <ele>323</ele>
        <time>2016-02-14T08:59:13.000Z</time>
      </trkpt>
      <trkpt lat="47.48317" lon="6.7725">
        <ele>321</ele>
        <time>2016-02-14T08:59:14.000Z</time>
      </trkpt>
      <trkpt lat="47.48323" lon="6.77252">
        <ele>322</ele>
        <time>2016-02-14T08:59:15.000Z</time>
      </trkpt>
      <trkpt lat="47.48329" lon="6.77255">
        <ele>322</ele>
        <time>2016-02-14T08:59:16.000Z</time>
      </trkpt>
      <trkpt lat="47.48335" lon="6.77256">
        <ele>324</ele>
        <time>2016-02-14T08:59:17.000Z</time>
      </trkpt>
      <trkpt lat="47.48341" lon="6.77259">
        <ele>324</ele>
        <time>2016-02-14T08:59:18.000Z</time>
      </trkpt>
      <trkpt lat="47.48346" lon="6.77264">
        <ele>324</ele>
        <time>2016-02-14T08:59:19.000Z</time>
      </trkpt>
      <trkpt lat="47.4835" lon="6.77268">
        <ele>324</ele>
        <time>2016-02-14T08:59:20.000Z</time>
      </trkpt>
      <trkpt lat="47.48356" lon="6.77271">
        <ele>324</ele>
        <time>2016-02-14T08:59:21.000Z</time>
      </trkpt>
      <trkpt lat="47.48359" lon="6.77273">
        <ele>324</ele>
        <time>2016-02-14T08:59:22.000Z</time>
      </trkpt>
      <trkpt lat="47.48363" lon="6.77276">
        <ele>325</ele>
        <time>2016-02-14T08:59:23.000Z</time>
      </trkpt>
      <trkpt lat="47.48367" lon="6.77279">
        <ele>325</ele>
        <time>2016-02-14T08:59:24.000Z</time>
      </trkpt>
      <trkpt lat="47.4837" lon="6.77285">
        <ele>324</ele>
        <time>2016-02-14T08:59:25.000Z</time>
      </trkpt>
      <trkpt lat="47.48375" lon="6.77291">
        <ele>325</ele>
        <time>2016-02-14T08:59:26.000Z</time>
      </trkpt>
      <trkpt lat="47.48382" lon="6.77293">
        <ele>325</ele>
        <time>2016-02-14T08:59:27.000Z</time>
      </trkpt>
      <trkpt lat="47.48388" lon="6.77297">
        <ele>325</ele>
        <time>2016-02-14T08:59:28.000Z</time>
      </trkpt>
      <trkpt lat="47.48392" lon="6.77304">
        <ele>325</ele>
        <time>2016-02-14T08:59:29.000Z</time>
      </trkpt>
      <trkpt lat="47.48397" lon="6.77309">
        <ele>325</ele>
        <time>2016-02-14T08:59:30.000Z</time>
      </trkpt>
      <trkpt lat="47.484" lon="6.77313">
        <ele>325</ele>
        <time>2016-02-14T08:59:31.000Z</time>
      </trkpt>
      <trkpt lat="47.48405" lon="6.77318">
        <ele>325</ele>
        <time>2016-02-14T08:59:32.000Z</time>
      </trkpt>
      <trkpt lat="47.4841" lon="6.77321">
        <ele>325</ele>
        <time>2016-02-14T08:59:33.000Z</time>
      </trkpt>
      <trkpt lat="47.48417" lon="6.77325">
        <ele>329</ele>
        <time>2016-02-14T08:59:34.000Z</time>
      </trkpt>
      <trkpt lat="47.48422" lon="6.77334">
        <ele>326</ele>
        <time>2016-02-14T08:59:35.000Z</time>
      </trkpt>
      <trkpt lat="47.48427" lon="6.77338">
        <ele>326</ele>
        <time>2016-02-14T08:59:36.000Z</time>
      </trkpt>
      <trkpt lat="47.4843" lon="6.77344">
        <ele>326</ele>
        <time>2016-02-14T08:59:37.000Z</time>
      </trkpt>
      <trkpt lat="47.48435" lon="6.77349">
        <ele>326</ele>
        <time>2016-02-14T08:59:38.000Z</time>
      </trkpt>
      <trkpt lat="47.48438" lon="6.77355">
        <ele>326</ele>
        <time>2016-02-14T08:59:39.000Z</time>
      </trkpt>
      <trkpt lat="47.48442" lon="6.7736">
        <ele>326</ele>
        <time>2016-02-14T08:59:40.000Z</time>
      </trkpt>
      <trkpt lat="47.48448" lon="6.77365">
        <ele>326</ele>
        <time>2016-02-14T08:59:41.000Z</time>
      </trkpt>
      <trkpt lat="47.48453" lon="6.77368">
        <ele>327</ele>
        <time>2016-02-14T08:59:42.000Z</time>
      </trkpt>
      <trkpt lat="47.48458" lon="6.77379">
        <ele>326</ele>
        <time>2016-02-14T08:59:43.000Z</time>
      </trkpt>
      <trkpt lat="47.48466" lon="6.77384">
        <ele>326</ele>
        <time>2016-02-14T08:59:44.000Z</time>
      </trkpt>
      <trkpt lat="47.48473" lon="6.77388">
        <ele>327</ele>
        <time>2016-02-14T08:59:45.000Z</time>
      </trkpt>
      <trkpt lat="47.48477" lon="6.77393">
        <ele>326</ele>
        <time>2016-02-14T08:59:46.000Z</time>
      </trkpt>
      <trkpt lat="47.48481" lon="6.77397">
        <ele>326</ele>
        <time>2016-02-14T08:59:47.000Z</time>
      </trkpt>
      <trkpt lat="47.48487" lon="6.774">
        <ele>326</ele>
        <time>2016-02-14T08:59:48.000Z</time>
      </trkpt>
      <trkpt lat="47.48491" lon="6.77404">
        <ele>326</ele>
        <time>2016-02-14T08:59:49.000Z</time>
      </trkpt>
      <trkpt lat="47.48495" lon="6.7741">
        <ele>326</ele>
        <time>2016-02-14T08:59:50.000Z</time>
      </trkpt>
      <trkpt lat="47.485" lon="6.77414">
        <ele>327</ele>
        <time>2016-02-14T08:59:51.000Z</time>
      </trkpt>
      <trkpt lat="47.48505" lon="6.77414">
        <ele>328</ele>
        <time>2016-02-14T08:59:52.000Z</time>
      </trkpt>
      <trkpt lat="47.48511" lon="6.77416">
        <ele>330</ele>
        <time>2016-02-14T08:59:53.000Z</time>
      </trkpt>
      <trkpt lat="47.48515" lon="6.7742">
        <ele>327</ele>
        <time>2016-02-14T08:59:54.000Z</time>
      </trkpt>
      <trkpt lat="47.48519" lon="6.77425">
        <ele>327</ele>
        <time>2016-02-14T08:59:55.000Z</time>
      </trkpt>
      <trkpt lat="47.48523" lon="6.77431">
        <ele>327</ele>
        <time>2016-02-14T08:59:56.000Z</time>
      </trkpt>
      <trkpt lat="47.48526" lon="6.77437">
        <ele>327</ele>
        <time>2016-02-14T08:59:57.000Z</time>
      </trkpt>
      <trkpt lat="47.48531" lon="6.77446">
        <ele>327</ele>
        <time>2016-02-14T08:59:58.000Z</time>
      </trkpt>
      <trkpt lat="47.48536" lon="6.77452">
        <ele>327</ele>
        <time>2016-02-14T08:59:59.000Z</time>
      </trkpt>
      <trkpt lat="47.48539" lon="6.77457">
        <ele>327</ele>
        <time>2016-02-14T09:00:00.000Z</time>
      </trkpt>
      <trkpt lat="47.48542" lon="6.77463">
        <ele>326</ele>
        <time>2016-02-14T09:00:01.000Z</time>
      </trkpt>
      <trkpt lat="47.48545" lon="6.77468">
        <ele>326</ele>
        <time>2016-02-14T09:00:02.000Z</time>
      </trkpt>
      <trkpt lat="47.48548" lon="6.77465">
        <ele>327</ele>
        <time>2016-02-14T09:00:03.000Z</time>
      </trkpt>
      <trkpt lat="47.48552" lon="6.77468">
        <ele>327</ele>
        <time>2016-02-14T09:00:04.000Z</time>
      </trkpt>
      <trkpt lat="47.48556" lon="6.77474">
        <ele>327</ele>
        <time>2016-02-14T09:00:05.000Z</time>
      </trkpt>
      <trkpt lat="47.48561" lon="6.77483">
        <ele>326</ele>
        <time>2016-02-14T09:00:06.000Z</time>
      </trkpt>
      <trkpt lat="47.48563" lon="6.7749">
        <ele>326</ele>
        <time>2016-02-14T09:00:07.000Z</time>
      </trkpt>
      <trkpt lat="47.48564" lon="6.77499">
        <ele>326</ele>
        <time>2016-02-14T09:00:08.000Z</time>
      </trkpt>
      <trkpt lat="47.48569" lon="6.77511">
        <ele>321</ele>
        <time>2016-02-14T09:00:09.000Z</time>
      </trkpt>
      <trkpt lat="47.48573" lon="6.77518">
        <ele>321</ele>
        <time>2016-02-14T09:00:10.000Z</time>
      </trkpt>
      <trkpt lat="47.48576" lon="6.77526">
        <ele>320</ele>
        <time>2016-02-14T09:00:11.000Z</time>
      </trkpt>
      <trkpt lat="47.48579" lon="6.77533">
        <ele>319</ele>
        <time>2016-02-14T09:00:12.000Z</time>
      </trkpt>
      <trkpt lat="47.48581" lon="6.7754">
        <ele>319</ele>
        <time>2016-02-14T09:00:13.000Z</time>
      </trkpt>
      <trkpt lat="47.48585" lon="6.77548">
        <ele>325</ele>
        <time>2016-02-14T09:00:14.000Z</time>
      </trkpt>
      <trkpt lat="47.48587" lon="6.77555">
        <ele>324</ele>
        <time>2016-02-14T09:00:15.000Z</time>
      </trkpt>
      <trkpt lat="47.48593" lon="6.77564">
        <ele>323</ele>
        <time>2016-02-14T09:00:16.000Z</time>
      </trkpt>
      <trkpt lat="47.48597" lon="6.77573">
        <ele>322</ele>
        <time>2016-02-14T09:00:17.000Z</time>
      </trkpt>
      <trkpt lat="47.48601" lon="6.77583">
        <ele>322</ele>
        <time>2016-02-14T09:00:18.000Z</time>
      </trkpt>
      <trkpt lat="47.48604" lon="6.77592">
        <ele>319</ele>
        <time>2016-02-14T09:00:19.000Z</time>
      </trkpt>
      <trkpt lat="47.48607" lon="6.776">
        <ele>319</ele>
        <time>2016-02-14T09:00:20.000Z</time>
      </trkpt>
      <trkpt lat="47.48607" lon="6.7761">
        <ele>319</ele>
        <time>2016-02-14T09:00:21.000Z</time>
      </trkpt>
      <trkpt lat="47.48602" lon="6.77619">
        <ele>318</ele>
        <time>2016-02-14T09:00:22.000Z</time>
      </trkpt>
      <trkpt lat="47.486" lon="6.77627">
        <ele>318</ele>
        <time>2016-02-14T09:00:23.000Z</time>
      </trkpt>
      <trkpt lat="47.48598" lon="6.77639">
        <ele>317</ele>
        <time>2016-02-14T09:00:24.000Z</time>
      </trkpt>
      <trkpt lat="47.48596" lon="6.77646">
        <ele>317</ele>
        <time>2016-02-14T09:00:25.000Z</time>
      </trkpt>
      <trkpt lat="47.48595" lon="6.77656">
        <ele>316</ele>
        <time>2016-02-14T09:00:26.000Z</time>
      </trkpt>
      <trkpt lat="47.48595" lon="6.77665">
        <ele>315</ele>
        <time>2016-02-14T09:00:27.000Z</time>
      </trkpt>
      <trkpt lat="47.48595" lon="6.77675">
        <ele>313</ele>
        <time>2016-02-14T09:00:28.000Z</time>
      </trkpt>
      <trkpt lat="47.48594" lon="6.77683">
        <ele>313</ele>
        <time>2016-02-14T09:00:29.000Z</time>
      </trkpt>
      <trkpt lat="47.48593" lon="6.77691">
        <ele>314</ele>
        <time>2016-02-14T09:00:30.000Z</time>
      </trkpt>
      <trkpt lat="47.48592" lon="6.777">
        <ele>314</ele>
        <time>2016-02-14T09:00:31.000Z</time>
      </trkpt>
      <trkpt lat="47.4859" lon="6.77708">
        <ele>313</ele>
        <time>2016-02-14T09:00:32.000Z</time>
      </trkpt>
      <trkpt lat="47.4859" lon="6.77716">
        <ele>313</ele>
        <time>2016-02-14T09:00:33.000Z</time>
      </trkpt>
      <trkpt lat="47.4859" lon="6.77724">
        <ele>313</ele>
        <time>2016-02-14T09:00:34.000Z</time>
      </trkpt>
      <trkpt lat="47.48589" lon="6.77732">
        <ele>313</ele>
        <time>2016-02-14T09:00:35.000Z</time>
      </trkpt>
      <trkpt lat="47.48588" lon="6.7774">
        <ele>313</ele>
        <time>2016-02-14T09:00:36.000Z</time>
      </trkpt>
      <trkpt lat="47.48588" lon="6.77746">
        <ele>313</ele>
        <time>2016-02-14T09:00:37.000Z</time>
      </trkpt>
      <trkpt lat="47.48587" lon="6.77753">
        <ele>313</ele>
        <time>2016-02-14T09:00:38.000Z</time>
      </trkpt>
      <trkpt lat="47.48586" lon="6.77757">
        <ele>313</ele>
        <time>2016-02-14T09:00:39.000Z</time>
      </trkpt>
      <trkpt lat="47.48586" lon="6.77762">
        <ele>313</ele>
        <time>2016-02-14T09:00:40.000Z</time>
      </trkpt>
      <trkpt lat="47.48585" lon="6.77767">
        <ele>313</ele>
        <time>2016-02-14T09:00:41.000Z</time>
      </trkpt>
      <trkpt lat="47.48583" lon="6.77774">
        <ele>313</ele>
        <time>2016-02-14T09:00:42.000Z</time>
      </trkpt>
      <trkpt lat="47.48582" lon="6.77781">
        <ele>312</ele>
        <time>2016-02-14T09:00:43.000Z</time>
      </trkpt>
      <trkpt lat="47.4858" lon="6.77791">
        <ele>312</ele>
        <time>2016-02-14T09:00:44.000Z</time>
      </trkpt>
      <trkpt lat="47.48579" lon="6.778">
        <ele>312</ele>
        <time>2016-02-14T09:00:45.000Z</time>
      </trkpt>
      <trkpt lat="47.48577" lon="6.77807">
        <ele>312</ele>
        <time>2016-02-14T09:00:46.000Z</time>
      </trkpt>
      <trkpt lat="47.48575" lon="6.77815">
        <ele>312</ele>
        <time>2016-02-14T09:00:47.000Z</time>
      </trkpt>
      <trkpt lat="47.48573" lon="6.77821">
        <ele>312</ele>
        <time>2016-02-14T09:00:48.000Z</time>
      </trkpt>
      <trkpt lat="47.48574" lon="6.7783">
        <ele>312</ele>
        <time>2016-02-14T09:00:49.000Z</time>
      </trkpt>
      <trkpt lat="47.48572" lon="6.77838">
        <ele>312</ele>
        <time>2016-02-14T09:00:50.000Z</time>
      </trkpt>
      <trkpt lat="47.4857" lon="6.77846">
        <ele>312</ele>
        <time>2016-02-14T09:00:51.000Z</time>
      </trkpt>
      <trkpt lat="47.48568" lon="6.77854">
        <ele>312</ele>
        <time>2016-02-14T09:00:52.000Z</time>
      </trkpt>
      <trkpt lat="47.48566" lon="6.77862">
        <ele>312</ele>
        <time>2016-02-14T09:00:53.000Z</time>
      </trkpt>
      <trkpt lat="47.48564" lon="6.77871">
        <ele>312</ele>
        <time>2016-02-14T09:00:54.000Z</time>
      </trkpt>
      <trkpt lat="47.48562" lon="6.7788">
        <ele>312</ele>
        <time>2016-02-14T09:00:55.000Z</time>
      </trkpt>
      <trkpt lat="47.4856" lon="6.77886">
        <ele>312</ele>
        <time>2016-02-14T09:00:56.000Z</time>
      </trkpt>
      <trkpt lat="47.48558" lon="6.77892">
        <ele>312</ele>
        <time>2016-02-14T09:00:57.000Z</time>
      </trkpt>
      <trkpt lat="47.48556" lon="6.77901">
        <ele>312</ele>
        <time>2016-02-14T09:00:58.000Z</time>
      </trkpt>
      <trkpt lat="47.48555" lon="6.77908">
        <ele>312</ele>
        <time>2016-02-14T09:00:59.000Z</time>
      </trkpt>
      <trkpt lat="47.48554" lon="6.77918">
        <ele>313</ele>
        <time>2016-02-14T09:01:00.000Z</time>
      </trkpt>
      <trkpt lat="47.48553" lon="6.77926">
        <ele>313</ele>
        <time>2016-02-14T09:01:01.000Z</time>
      </trkpt>
      <trkpt lat="47.48551" lon="6.77935">
        <ele>313</ele>
        <time>2016-02-14T09:01:02.000Z</time>
      </trkpt>
      <trkpt lat="47.48549" lon="6.77942">
        <ele>313</ele>
        <time>2016-02-14T09:01:03.000Z</time>
      </trkpt>
      <trkpt lat="47.48548" lon="6.7795">
        <ele>313</ele>
        <time>2016-02-14T09:01:04.000Z</time>
      </trkpt>
      <trkpt lat="47.48546" lon="6.77956">
        <ele>313</ele>
        <time>2016-02-14T09:01:05.000Z</time>
      </trkpt>
      <trkpt lat="47.48543" lon="6.77964">
        <ele>313</ele>
        <time>2016-02-14T09:01:06.000Z</time>
      </trkpt>
      <trkpt lat="47.4854" lon="6.77969">
        <ele>313</ele>
        <time>2016-02-14T09:01:07.000Z</time>
      </trkpt>
      <trkpt lat="47.48535" lon="6.77968">
        <ele>313</ele>
        <time>2016-02-14T09:01:08.000Z</time>
      </trkpt>
      <trkpt lat="47.48531" lon="6.7797">
        <ele>313</ele>
        <time>2016-02-14T09:01:09.000Z</time>
      </trkpt>
      <trkpt lat="47.48527" lon="6.77971">
        <ele>313</ele>
        <time>2016-02-14T09:01:10.000Z</time>
      </trkpt>
      <trkpt lat="47.48524" lon="6.77973">
        <ele>313</ele>
        <time>2016-02-14T09:01:11.000Z</time>
      </trkpt>
      <trkpt lat="47.4852" lon="6.77975">
        <ele>313</ele>
        <time>2016-02-14T09:01:12.000Z</time>
      </trkpt>
      <trkpt lat="47.48516" lon="6.77978">
        <ele>313</ele>
        <time>2016-02-14T09:01:13.000Z</time>
      </trkpt>
      <trkpt lat="47.48513" lon="6.77981">
        <ele>313</ele>
        <time>2016-02-14T09:01:14.000Z</time>
      </trkpt>
      <trkpt lat="47.48509" lon="6.77986">
        <ele>314</ele>
        <time>2016-02-14T09:01:15.000Z</time>
      </trkpt>
      <trkpt lat="47.48506" lon="6.77989">
        <ele>314</ele>
        <time>2016-02-14T09:01:16.000Z</time>
      </trkpt>
      <trkpt lat="47.48502" lon="6.77994">
        <ele>314</ele>
        <time>2016-02-14T09:01:17.000Z</time>
      </trkpt>
      <trkpt lat="47.48498" lon="6.77998">
        <ele>314</ele>
        <time>2016-02-14T09:01:18.000Z</time>
      </trkpt>
      <trkpt lat="47.48494" lon="6.78004">
        <ele>314</ele>
        <time>2016-02-14T09:01:19.000Z</time>
      </trkpt>
      <trkpt lat="47.48492" lon="6.78011">
        <ele>314</ele>
        <time>2016-02-14T09:01:20.000Z</time>
      </trkpt>
      <trkpt lat="47.48489" lon="6.78018">
        <ele>314</ele>
        <time>2016-02-14T09:01:21.000Z</time>
      </trkpt>
      <trkpt lat="47.48488" lon="6.78028">
        <ele>313</ele>
        <time>2016-02-14T09:01:22.000Z</time>
      </trkpt>
      <trkpt lat="47.48485" lon="6.78037">
        <ele>313</ele>
        <time>2016-02-14T09:01:23.000Z</time>
      </trkpt>
      <trkpt lat="47.48484" lon="6.78047">
        <ele>313</ele>
        <time>2016-02-14T09:01:24.000Z</time>
      </trkpt>
      <trkpt lat="47.48484" lon="6.78054">
        <ele>313</ele>
        <time>2016-02-14T09:01:25.000Z</time>
      </trkpt>
      <trkpt lat="47.48482" lon="6.78062">
        <ele>313</ele>
        <time>2016-02-14T09:01:26.000Z</time>
      </trkpt>
      <trkpt lat="47.48481" lon="6.78069">
        <ele>313</ele>
        <time>2016-02-14T09:01:27.000Z</time>
      </trkpt>
      <trkpt lat="47.48479" lon="6.78077">
        <ele>313</ele>
        <time>2016-02-14T09:01:28.000Z</time>
      </trkpt>
      <trkpt lat="47.48477" lon="6.78085">
        <ele>313</ele>
        <time>2016-02-14T09:01:29.000Z</time>
      </trkpt>
      <trkpt lat="47.48475" lon="6.78093">
        <ele>313</ele>
        <time>2016-02-14T09:01:30.000Z</time>
      </trkpt>
      <trkpt lat="47.48472" lon="6.78096">
        <ele>313</ele>
        <time>2016-02-14T09:01:31.000Z</time>
      </trkpt>
      <trkpt lat="47.48471" lon="6.78101">
        <ele>313</ele>
        <time>2016-02-14T09:01:32.000Z</time>
      </trkpt>
      <trkpt lat="47.48469" lon="6.78109">
        <ele>313</ele>
        <time>2016-02-14T09:01:33.000Z</time>
      </trkpt>
      <trkpt lat="47.48467" lon="6.78118">
        <ele>313</ele>
        <time>2016-02-14T09:01:34.000Z</time>
      </trkpt>
      <trkpt lat="47.48466" lon="6.78125">
        <ele>312</ele>
        <time>2016-02-14T09:01:35.000Z</time>
      </trkpt>
      <trkpt lat="47.48464" lon="6.7813">
        <ele>312</ele>
        <time>2016-02-14T09:01:36.000Z</time>
      </trkpt>
      <trkpt lat="47.48463" lon="6.78137">
        <ele>312</ele>
        <time>2016-02-14T09:01:37.000Z</time>
      </trkpt>
      <trkpt lat="47.48461" lon="6.78145">
        <ele>312</ele>
        <time>2016-02-14T09:01:38.000Z</time>
      </trkpt>
      <trkpt lat="47.4846" lon="6.78154">
        <ele>312</ele>
        <time>2016-02-14T09:01:39.000Z</time>
      </trkpt>
      <trkpt lat="47.48458" lon="6.78163">
        <ele>312</ele>
        <time>2016-02-14T09:01:40.000Z</time>
      </trkpt>
      <trkpt lat="47.48457" lon="6.78171">
        <ele>312</ele>
        <time>2016-02-14T09:01:41.000Z</time>
      </trkpt>
      <trkpt lat="47.48457" lon="6.78179">
        <ele>312</ele>
        <time>2016-02-14T09:01:42.000Z</time>
      </trkpt>
      <trkpt lat="47.48456" lon="6.78187">
        <ele>312</ele>
        <time>2016-02-14T09:01:43.000Z</time>
      </trkpt>
      <trkpt lat="47.48456" lon="6.78195">
        <ele>312</ele>
        <time>2016-02-14T09:01:44.000Z</time>
      </trkpt>
      <trkpt lat="47.48457" lon="6.78203">
        <ele>312</ele>
        <time>2016-02-14T09:01:45.000Z</time>
      </trkpt>
      <trkpt lat="47.48458" lon="6.78211">
        <ele>312</ele>
        <time>2016-02-14T09:01:46.000Z</time>
      </trkpt>
      <trkpt lat="47.48459" lon="6.78218">
        <ele>312</ele>
        <time>2016-02-14T09:01:47.000Z</time>
      </trkpt>
      <trkpt lat="47.48462" lon="6.78226">
        <ele>312</ele>
        <time>2016-02-14T09:01:48.000Z</time>
      </trkpt>
      <trkpt lat="47.48463" lon="6.78233">
        <ele>312</ele>
        <time>2016-02-14T09:01:49.000Z</time>
      </trkpt>
      <trkpt lat="47.48465" lon="6.7824">
        <ele>312</ele>
        <time>2016-02-14T09:01:50.000Z</time>
      </trkpt>
      <trkpt lat="47.48467" lon="6.78246">
        <ele>312</ele>
        <time>2016-02-14T09:01:51.000Z</time>
      </trkpt>
      <trkpt lat="47.4847" lon="6.78255">
        <ele>312</ele>
        <time>2016-02-14T09:01:52.000Z</time>
      </trkpt>
      <trkpt lat="47.4847" lon="6.78264">
        <ele>312</ele>
        <time>2016-02-14T09:01:53.000Z</time>
      </trkpt>
      <trkpt lat="47.48471" lon="6.78272">
        <ele>312</ele>
        <time>2016-02-14T09:01:54.000Z</time>
      </trkpt>
      <trkpt lat="47.48471" lon="6.7828">
        <ele>312</ele>
        <time>2016-02-14T09:01:55.000Z</time>
      </trkpt>
      <trkpt lat="47.48471" lon="6.7829">
        <ele>312</ele>
        <time>2016-02-14T09:01:56.000Z</time>
      </trkpt>
      <trkpt lat="47.48472" lon="6.78299">
        <ele>312</ele>
        <time>2016-02-14T09:01:57.000Z</time>
      </trkpt>
      <trkpt lat="47.48473" lon="6.78307">
        <ele>312</ele>
        <time>2016-02-14T09:01:58.000Z</time>
      </trkpt>
      <trkpt lat="47.48474" lon="6.78316">
        <ele>312</ele>
        <time>2016-02-14T09:01:59.000Z</time>
      </trkpt>
      <trkpt lat="47.48475" lon="6.78324">
        <ele>312</ele>
        <time>2016-02-14T09:02:00.000Z</time>
      </trkpt>
      <trkpt lat="47.48476" lon="6.78333">
        <ele>312</ele>
        <time>2016-02-14T09:02:01.000Z</time>
      </trkpt>
      <trkpt lat="47.48476" lon="6.7834">
        <ele>313</ele>
        <time>2016-02-14T09:02:02.000Z</time>
      </trkpt>
      <trkpt lat="47.48477" lon="6.78349">
        <ele>313</ele>
        <time>2016-02-14T09:02:03.000Z</time>
      </trkpt>
      <trkpt lat="47.48477" lon="6.78357">
        <ele>313</ele>
        <time>2016-02-14T09:02:04.000Z</time>
      </trkpt>
      <trkpt lat="47.48478" lon="6.78364">
        <ele>313</ele>
        <time>2016-02-14T09:02:05.000Z</time>
      </trkpt>
      <trkpt lat="47.48479" lon="6.78373">
        <ele>313</ele>
        <time>2016-02-14T09:02:06.000Z</time>
      </trkpt>
      <trkpt lat="47.48478" lon="6.7838">
        <ele>313</ele>
        <time>2016-02-14T09:02:07.000Z</time>
      </trkpt>
      <trkpt lat="47.4848" lon="6.78387">
        <ele>313</ele>
        <time>2016-02-14T09:02:08.000Z</time>
      </trkpt>
      <trkpt lat="47.48479" lon="6.78395">
        <ele>313</ele>
        <time>2016-02-14T09:02:09.000Z</time>
      </trkpt>
      <trkpt lat="47.48479" lon="6.78402">
        <ele>313</ele>
        <time>2016-02-14T09:02:10.000Z</time>
      </trkpt>
      <trkpt lat="47.4848" lon="6.78411">
        <ele>313</ele>
        <time>2016-02-14T09:02:11.000Z</time>
      </trkpt>
      <trkpt lat="47.48481" lon="6.78419">
        <ele>313</ele>
        <time>2016-02-14T09:02:12.000Z</time>
      </trkpt>
      <trkpt lat="47.48481" lon="6.78427">
        <ele>313</ele>
        <time>2016-02-14T09:02:13.000Z</time>
      </trkpt>
      <trkpt lat="47.48482" lon="6.78436">
        <ele>313</ele>
        <time>2016-02-14T09:02:14.000Z</time>
      </trkpt>
      <trkpt lat="47.48483" lon="6.78443">
        <ele>313</ele>
        <time>2016-02-14T09:02:15.000Z</time>
      </trkpt>
      <trkpt lat="47.48484" lon="6.78452">
        <ele>313</ele>
        <time>2016-02-14T09:02:16.000Z</time>
      </trkpt>
      <trkpt lat="47.48486" lon="6.78459">
        <ele>312</ele>
        <time>2016-02-14T09:02:17.000Z</time>
      </trkpt>
      <trkpt lat="47.48488" lon="6.78467">
        <ele>312</ele>
        <time>2016-02-14T09:02:18.000Z</time>
      </trkpt>
      <trkpt lat="47.48489" lon="6.78475">
        <ele>312</ele>
        <time>2016-02-14T09:02:19.000Z</time>
      </trkpt>
      <trkpt lat="47.4849" lon="6.78483">
        <ele>312</ele>
        <time>2016-02-14T09:02:20.000Z</time>
      </trkpt>
      <trkpt lat="47.48491" lon="6.7849">
        <ele>312</ele>
        <time>2016-02-14T09:02:21.000Z</time>
      </trkpt>
      <trkpt lat="47.48493" lon="6.78497">
        <ele>311</ele>
        <time>2016-02-14T09:02:22.000Z</time>
      </trkpt>
      <trkpt lat="47.48495" lon="6.78505">
        <ele>311</ele>
        <time>2016-02-14T09:02:23.000Z</time>
      </trkpt>
      <trkpt lat="47.48496" lon="6.78512">
        <ele>311</ele>
        <time>2016-02-14T09:02:24.000Z</time>
      </trkpt>
      <trkpt lat="47.48498" lon="6.7852">
        <ele>312</ele>
        <time>2016-02-14T09:02:25.000Z</time>
      </trkpt>
      <trkpt lat="47.485" lon="6.78528">
        <ele>312</ele>
        <time>2016-02-14T09:02:26.000Z</time>
      </trkpt>
      <trkpt lat="47.48502" lon="6.78536">
        <ele>312</ele>
        <time>2016-02-14T09:02:27.000Z</time>
      </trkpt>
      <trkpt lat="47.48504" lon="6.78545">
        <ele>312</ele>
        <time>2016-02-14T09:02:28.000Z</time>
      </trkpt>
      <trkpt lat="47.48505" lon="6.78552">
        <ele>312</ele>
        <time>2016-02-14T09:02:29.000Z</time>
      </trkpt>
      <trkpt lat="47.48505" lon="6.78561">
        <ele>312</ele>
        <time>2016-02-14T09:02:30.000Z</time>
      </trkpt>
      <trkpt lat="47.48506" lon="6.7857">
        <ele>312</ele>
        <time>2016-02-14T09:02:31.000Z</time>
      </trkpt>
      <trkpt lat="47.48505" lon="6.78578">
        <ele>311</ele>
        <time>2016-02-14T09:02:32.000Z</time>
      </trkpt>
      <trkpt lat="47.48503" lon="6.78585">
        <ele>311</ele>
        <time>2016-02-14T09:02:33.000Z</time>
      </trkpt>
      <trkpt lat="47.48501" lon="6.78593">
        <ele>312</ele>
        <time>2016-02-14T09:02:34.000Z</time>
      </trkpt>
      <trkpt lat="47.48499" lon="6.78602">
        <ele>312</ele>
        <time>2016-02-14T09:02:35.000Z</time>
      </trkpt>
      <trkpt lat="47.48498" lon="6.7861">
        <ele>312</ele>
        <time>2016-02-14T09:02:36.000Z</time>
      </trkpt>
      <trkpt lat="47.48496" lon="6.78619">
        <ele>312</ele>
        <time>2016-02-14T09:02:37.000Z</time>
      </trkpt>
      <trkpt lat="47.48495" lon="6.78627">
        <ele>313</ele>
        <time>2016-02-14T09:02:38.000Z</time>
      </trkpt>
      <trkpt lat="47.48493" lon="6.78635">
        <ele>313</ele>
        <time>2016-02-14T09:02:39.000Z</time>
      </trkpt>
      <trkpt lat="47.48492" lon="6.78642">
        <ele>313</ele>
        <time>2016-02-14T09:02:40.000Z</time>
      </trkpt>
      <trkpt lat="47.48489" lon="6.78651">
        <ele>313</ele>
        <time>2016-02-14T09:02:41.000Z</time>
      </trkpt>
      <trkpt lat="47.48487" lon="6.7866">
        <ele>313</ele>
        <time>2016-02-14T09:02:42.000Z</time>
      </trkpt>
      <trkpt lat="47.48486" lon="6.78668">
        <ele>313</ele>
        <time>2016-02-14T09:02:43.000Z</time>
      </trkpt>
      <trkpt lat="47.48485" lon="6.78677">
        <ele>313</ele>
        <time>2016-02-14T09:02:44.000Z</time>
      </trkpt>
      <trkpt lat="47.48484" lon="6.78686">
        <ele>313</ele>
        <time>2016-02-14T09:02:45.000Z</time>
      </trkpt>
      <trkpt lat="47.48482" lon="6.78694">
        <ele>313</ele>
        <time>2016-02-14T09:02:46.000Z</time>
      </trkpt>
      <trkpt lat="47.4848" lon="6.78702">
        <ele>313</ele>
        <time>2016-02-14T09:02:47.000Z</time>
      </trkpt>
      <trkpt lat="47.48479" lon="6.7871">
        <ele>313</ele>
        <time>2016-02-14T09:02:48.000Z</time>
      </trkpt>
      <trkpt lat="47.48476" lon="6.7872">
        <ele>313</ele>
        <time>2016-02-14T09:02:49.000Z</time>
      </trkpt>
      <trkpt lat="47.48475" lon="6.78728">
        <ele>313</ele>
        <time>2016-02-14T09:02:50.000Z</time>
      </trkpt>
      <trkpt lat="47.48472" lon="6.78736">
        <ele>313</ele>
        <time>2016-02-14T09:02:51.000Z</time>
      </trkpt>
      <trkpt lat="47.4847" lon="6.78744">
        <ele>312</ele>
        <time>2016-02-14T09:02:52.000Z</time>
      </trkpt>
      <trkpt lat="47.48468" lon="6.78752">
        <ele>312</ele>
        <time>2016-02-14T09:02:53.000Z</time>
      </trkpt>
      <trkpt lat="47.48467" lon="6.7876">
        <ele>312</ele>
        <time>2016-02-14T09:02:54.000Z</time>
      </trkpt>
      <trkpt lat="47.48465" lon="6.78768">
        <ele>312</ele>
        <time>2016-02-14T09:02:55.000Z</time>
      </trkpt>
      <trkpt lat="47.48463" lon="6.78776">
        <ele>312</ele>
        <time>2016-02-14T09:02:56.000Z</time>
      </trkpt>
      <trkpt lat="47.48461" lon="6.78785">
        <ele>312</ele>
        <time>2016-02-14T09:02:57.000Z</time>
      </trkpt>
      <trkpt lat="47.48459" lon="6.78793">
        <ele>312</ele>
        <time>2016-02-14T09:02:58.000Z</time>
      </trkpt>
      <trkpt lat="47.48458" lon="6.78801">
        <ele>312</ele>
        <time>2016-02-14T09:02:59.000Z</time>
      </trkpt>
      <trkpt lat="47.48457" lon="6.78809">
        <ele>312</ele>
        <time>2016-02-14T09:03:00.000Z</time>
      </trkpt>
      <trkpt lat="47.48456" lon="6.78817">
        <ele>312</ele>
        <time>2016-02-14T09:03:01.000Z</time>
      </trkpt>
      <trkpt lat="47.48454" lon="6.78824">
        <ele>312</ele>
        <time>2016-02-14T09:03:02.000Z</time>
      </trkpt>
      <trkpt lat="47.48453" lon="6.78833">
        <ele>312</ele>
        <time>2016-02-14T09:03:03.000Z</time>
      </trkpt>
      <trkpt lat="47.48452" lon="6.78842">
        <ele>311</ele>
        <time>2016-02-14T09:03:04.000Z</time>
      </trkpt>
      <trkpt lat="47.48451" lon="6.78851">
        <ele>311</ele>
        <time>2016-02-14T09:03:05.000Z</time>
      </trkpt>
      <trkpt lat="47.4845" lon="6.78859">
        <ele>311</ele>
        <time>2016-02-14T09:03:06.000Z</time>
      </trkpt>
      <trkpt lat="47.48449" lon="6.78867">
        <ele>311</ele>
        <time>2016-02-14T09:03:07.000Z</time>
      </trkpt>
      <trkpt lat="47.48448" lon="6.78876">
        <ele>311</ele>
        <time>2016-02-14T09:03:08.000Z</time>
      </trkpt>
      <trkpt lat="47.48447" lon="6.78883">
        <ele>311</ele>
        <time>2016-02-14T09:03:09.000Z</time>
      </trkpt>
      <trkpt lat="47.48446" lon="6.78889">
        <ele>311</ele>
        <time>2016-02-14T09:03:10.000Z</time>
      </trkpt>
      <trkpt lat="47.48447" lon="6.78895">
        <ele>311</ele>
        <time>2016-02-14T09:03:11.000Z</time>
      </trkpt>
      <trkpt lat="47.48446" lon="6.78903">
        <ele>311</ele>
        <time>2016-02-14T09:03:12.000Z</time>
      </trkpt>
      <trkpt lat="47.48447" lon="6.78909">
        <ele>311</ele>
        <time>2016-02-14T09:03:13.000Z</time>
      </trkpt>
      <trkpt lat="47.48445" lon="6.78915">
        <ele>311</ele>
        <time>2016-02-14T09:03:14.000Z</time>
      </trkpt>
      <trkpt lat="47.48444" lon="6.78923">
        <ele>311</ele>
        <time>2016-02-14T09:03:15.000Z</time>
      </trkpt>
      <trkpt lat="47.48443" lon="6.7893">
        <ele>311</ele>
        <time>2016-02-14T09:03:16.000Z</time>
      </trkpt>
      <trkpt lat="47.48441" lon="6.78938">
        <ele>311</ele>
        <time>2016-02-14T09:03:17.000Z</time>
      </trkpt>
      <trkpt lat="47.48439" lon="6.78951">
        <ele>311</ele>
        <time>2016-02-14T09:03:18.000Z</time>
      </trkpt>
      <trkpt lat="47.48436" lon="6.78959">
        <ele>311</ele>
        <time>2016-02-14T09:03:19.000Z</time>
      </trkpt>
      <trkpt lat="47.48434" lon="6.78968">
        <ele>311</ele>
        <time>2016-02-14T09:03:20.000Z</time>
      </trkpt>
      <trkpt lat="47.48432" lon="6.78976">
        <ele>311</ele>
        <time>2016-02-14T09:03:21.000Z</time>
      </trkpt>
      <trkpt lat="47.48431" lon="6.78985">
        <ele>312</ele>
        <time>2016-02-14T09:03:22.000Z</time>
      </trkpt>
      <trkpt lat="47.48429" lon="6.78992">
        <ele>312</ele>
        <time>2016-02-14T09:03:23.000Z</time>
      </trkpt>
      <trkpt lat="47.48427" lon="6.79001">
        <ele>313</ele>
        <time>2016-02-14T09:03:24.000Z</time>
      </trkpt>
      <trkpt lat="47.48427" lon="6.79009">
        <ele>312</ele>
        <time>2016-02-14T09:03:25.000Z</time>
      </trkpt>
      <trkpt lat="47.48425" lon="6.79018">
        <ele>312</ele>
        <time>2016-02-14T09:03:26.000Z</time>
      </trkpt>
      <trkpt lat="47.48424" lon="6.79024">
        <ele>312</ele>
        <time>2016-02-14T09:03:27.000Z</time>
      </trkpt>
      <trkpt lat="47.48422" lon="6.79031">
        <ele>312</ele>
        <time>2016-02-14T09:03:28.000Z</time>
      </trkpt>
      <trkpt lat="47.48421" lon="6.79037">
        <ele>312</ele>
        <time>2016-02-14T09:03:29.000Z</time>
      </trkpt>
      <trkpt lat="47.4842" lon="6.79046">
        <ele>312</ele>
        <time>2016-02-14T09:03:30.000Z</time>
      </trkpt>
      <trkpt lat="47.48418" lon="6.79055">
        <ele>312</ele>
        <time>2016-02-14T09:03:31.000Z</time>
      </trkpt>
      <trkpt lat="47.48417" lon="6.79061">
        <ele>312</ele>
        <time>2016-02-14T09:03:32.000Z</time>
      </trkpt>
      <trkpt lat="47.48416" lon="6.79067">
        <ele>314</ele>
        <time>2016-02-14T09:03:33.000Z</time>
      </trkpt>
      <trkpt lat="47.48415" lon="6.79075">
        <ele>314</ele>
        <time>2016-02-14T09:03:34.000Z</time>
      </trkpt>
      <trkpt lat="47.48413" lon="6.79081">
        <ele>313</ele>
        <time>2016-02-14T09:03:35.000Z</time>
      </trkpt>
      <trkpt lat="47.48413" lon="6.79085">
        <ele>313</ele>
        <time>2016-02-14T09:03:36.000Z</time>
      </trkpt>
      <trkpt lat="47.48414" lon="6.79091">
        <ele>314</ele>
        <time>2016-02-14T09:03:37.000Z</time>
      </trkpt>
      <trkpt lat="47.48416" lon="6.79095">
        <ele>314</ele>
        <time>2016-02-14T09:03:38.000Z</time>
      </trkpt>
      <trkpt lat="47.48417" lon="6.79101">
        <ele>313</ele>
        <time>2016-02-14T09:03:39.000Z</time>
      </trkpt>
      <trkpt lat="47.48418" lon="6.79108">
        <ele>313</ele>
        <time>2016-02-14T09:03:40.000Z</time>
      </trkpt>
      <trkpt lat="47.4842" lon="6.79116">
        <ele>313</ele>
        <time>2016-02-14T09:03:41.000Z</time>
      </trkpt>
      <trkpt lat="47.48424" lon="6.79125">
        <ele>313</ele>
        <time>2016-02-14T09:03:42.000Z</time>
      </trkpt>
      <trkpt lat="47.48426" lon="6.79133">
        <ele>313</ele>
        <time>2016-02-14T09:03:43.000Z</time>
      </trkpt>
      <trkpt lat="47.48429" lon="6.7914">
        <ele>313</ele>
        <time>2016-02-14T09:03:44.000Z</time>
      </trkpt>
      <trkpt lat="47.48431" lon="6.79148">
        <ele>313</ele>
        <time>2016-02-14T09:03:45.000Z</time>
      </trkpt>
      <trkpt lat="47.48434" lon="6.79156">
        <ele>313</ele>
        <time>2016-02-14T09:03:46.000Z</time>
      </trkpt>
      <trkpt lat="47.48437" lon="6.79163">
        <ele>313</ele>
        <time>2016-02-14T09:03:47.000Z</time>
      </trkpt>
      <trkpt lat="47.48442" lon="6.7917">
        <ele>313</ele>
        <time>2016-02-14T09:03:48.000Z</time>
      </trkpt>
      <trkpt lat="47.48445" lon="6.79178">
        <ele>313</ele>
        <time>2016-02-14T09:03:49.000Z</time>
      </trkpt>
      <trkpt lat="47.48447" lon="6.79186">
        <ele>313</ele>
        <time>2016-02-14T09:03:50.000Z</time>
      </trkpt>
      <trkpt lat="47.48451" lon="6.79193">
        <ele>313</ele>
        <time>2016-02-14T09:03:51.000Z</time>
      </trkpt>
      <trkpt lat="47.48455" lon="6.79202">
        <ele>313</ele>
        <time>2016-02-14T09:03:52.000Z</time>
      </trkpt>
      <trkpt lat="47.48458" lon="6.79209">
        <ele>313</ele>
        <time>2016-02-14T09:03:53.000Z</time>
      </trkpt>
      <trkpt lat="47.48462" lon="6.79215">
        <ele>313</ele>
        <time>2016-02-14T09:03:54.000Z</time>
      </trkpt>
      <trkpt lat="47.48465" lon="6.79222">
        <ele>313</ele>
        <time>2016-02-14T09:03:55.000Z</time>
      </trkpt>
      <trkpt lat="47.48469" lon="6.79229">
        <ele>313</ele>
        <time>2016-02-14T09:03:56.000Z</time>
      </trkpt>
      <trkpt lat="47.48473" lon="6.79236">
        <ele>312</ele>
        <time>2016-02-14T09:03:57.000Z</time>
      </trkpt>
      <trkpt lat="47.48477" lon="6.79243">
        <ele>312</ele>
        <time>2016-02-14T09:03:58.000Z</time>
      </trkpt>
      <trkpt lat="47.4848" lon="6.7925">
        <ele>312</ele>
        <time>2016-02-14T09:03:59.000Z</time>
      </trkpt>
      <trkpt lat="47.48484" lon="6.79257">
        <ele>312</ele>
        <time>2016-02-14T09:04:00.000Z</time>
      </trkpt>
      <trkpt lat="47.48487" lon="6.79265">
        <ele>312</ele>
        <time>2016-02-14T09:04:01.000Z</time>
      </trkpt>
      <trkpt lat="47.4849" lon="6.79271">
        <ele>312</ele>
        <time>2016-02-14T09:04:02.000Z</time>
      </trkpt>
      <trkpt lat="47.48493" lon="6.79279">
        <ele>312</ele>
        <time>2016-02-14T09:04:03.000Z</time>
      </trkpt>
      <trkpt lat="47.48496" lon="6.79286">
        <ele>312</ele>
        <time>2016-02-14T09:04:04.000Z</time>
      </trkpt>
      <trkpt lat="47.48499" lon="6.79292">
        <ele>312</ele>
        <time>2016-02-14T09:04:05.000Z</time>
      </trkpt>
      <trkpt lat="47.48502" lon="6.793">
        <ele>311</ele>
        <time>2016-02-14T09:04:06.000Z</time>
      </trkpt>
      <trkpt lat="47.48504" lon="6.79307">
        <ele>311</ele>
        <time>2016-02-14T09:04:07.000Z</time>
      </trkpt>
      <trkpt lat="47.48508" lon="6.79314">
        <ele>311</ele>
        <time>2016-02-14T09:04:08.000Z</time>
      </trkpt>
      <trkpt lat="47.48512" lon="6.79321">
        <ele>311</ele>
        <time>2016-02-14T09:04:09.000Z</time>
      </trkpt>
      <trkpt lat="47.48516" lon="6.79329">
        <ele>311</ele>
        <time>2016-02-14T09:04:10.000Z</time>
      </trkpt>
      <trkpt lat="47.4852" lon="6.79335">
        <ele>311</ele>
        <time>2016-02-14T09:04:11.000Z</time>
      </trkpt>
      <trkpt lat="47.48523" lon="6.79342">
        <ele>311</ele>
        <time>2016-02-14T09:04:12.000Z</time>
      </trkpt>
      <trkpt lat="47.48527" lon="6.79349">
        <ele>311</ele>
        <time>2016-02-14T09:04:13.000Z</time>
      </trkpt>
      <trkpt lat="47.48531" lon="6.79357">
        <ele>311</ele>
        <time>2016-02-14T09:04:14.000Z</time>
      </trkpt>
      <trkpt lat="47.48535" lon="6.79364">
        <ele>311</ele>
        <time>2016-02-14T09:04:15.000Z</time>
      </trkpt>
      <trkpt lat="47.48539" lon="6.79372">
        <ele>311</ele>
        <time>2016-02-14T09:04:16.000Z</time>
      </trkpt>
      <trkpt lat="47.48541" lon="6.79379">
        <ele>311</ele>
        <time>2016-02-14T09:04:17.000Z</time>
      </trkpt>
      <trkpt lat="47.48545" lon="6.79386">
        <ele>311</ele>
        <time>2016-02-14T09:04:18.000Z</time>
      </trkpt>
      <trkpt lat="47.48548" lon="6.79393">
        <ele>311</ele>
        <time>2016-02-14T09:04:19.000Z</time>
      </trkpt>
      <trkpt lat="47.48552" lon="6.79401">
        <ele>311</ele>
        <time>2016-02-14T09:04:20.000Z</time>
      </trkpt>
      <trkpt lat="47.48555" lon="6.79407">
        <ele>311</ele>
        <time>2016-02-14T09:04:21.000Z</time>
      </trkpt>
      <trkpt lat="47.48559" lon="6.79414">
        <ele>311</ele>
        <time>2016-02-14T09:04:22.000Z</time>
      </trkpt>
      <trkpt lat="47.48563" lon="6.7942">
        <ele>311</ele>
        <time>2016-02-14T09:04:23.000Z</time>
      </trkpt>
      <trkpt lat="47.48566" lon="6.79427">
        <ele>311</ele>
        <time>2016-02-14T09:04:24.000Z</time>
      </trkpt>
      <trkpt lat="47.4857" lon="6.79433">
        <ele>311</ele>
        <time>2016-02-14T09:04:25.000Z</time>
      </trkpt>
      <trkpt lat="47.48573" lon="6.79441">
        <ele>311</ele>
        <time>2016-02-14T09:04:26.000Z</time>
      </trkpt>
      <trkpt lat="47.48576" lon="6.79448">
        <ele>311</ele>
        <time>2016-02-14T09:04:27.000Z</time>
      </trkpt>
      <trkpt lat="47.4858" lon="6.79455">
        <ele>311</ele>
        <time>2016-02-14T09:04:28.000Z</time>
      </trkpt>
      <trkpt lat="47.48584" lon="6.79462">
        <ele>312</ele>
        <time>2016-02-14T09:04:29.000Z</time>
      </trkpt>
      <trkpt lat="47.48587" lon="6.79469">
        <ele>312</ele>
        <time>2016-02-14T09:04:30.000Z</time>
      </trkpt>
      <trkpt lat="47.48591" lon="6.79476">
        <ele>312</ele>
        <time>2016-02-14T09:04:31.000Z</time>
      </trkpt>
      <trkpt lat="47.48594" lon="6.79483">
        <ele>312</ele>
        <time>2016-02-14T09:04:32.000Z</time>
      </trkpt>
      <trkpt lat="47.48598" lon="6.7949">
        <ele>312</ele>
        <time>2016-02-14T09:04:33.000Z</time>
      </trkpt>
      <trkpt lat="47.48601" lon="6.79496">
        <ele>312</ele>
        <time>2016-02-14T09:04:34.000Z</time>
      </trkpt>
      <trkpt lat="47.48605" lon="6.79503">
        <ele>312</ele>
        <time>2016-02-14T09:04:35.000Z</time>
      </trkpt>
      <trkpt lat="47.48608" lon="6.7951">
        <ele>312</ele>
        <time>2016-02-14T09:04:36.000Z</time>
      </trkpt>
      <trkpt lat="47.48611" lon="6.79517">
        <ele>312</ele>
        <time>2016-02-14T09:04:37.000Z</time>
      </trkpt>
      <trkpt lat="47.48614" lon="6.79523">
        <ele>312</ele>
        <time>2016-02-14T09:04:38.000Z</time>
      </trkpt>
      <trkpt lat="47.48618" lon="6.7953">
        <ele>312</ele>
        <time>2016-02-14T09:04:39.000Z</time>
      </trkpt>
      <trkpt lat="47.48622" lon="6.79537">
        <ele>312</ele>
        <time>2016-02-14T09:04:40.000Z</time>
      </trkpt>
      <trkpt lat="47.48625" lon="6.79544">
        <ele>313</ele>
        <time>2016-02-14T09:04:41.000Z</time>
      </trkpt>
      <trkpt lat="47.48628" lon="6.79551">
        <ele>313</ele>
        <time>2016-02-14T09:04:42.000Z</time>
      </trkpt>
      <trkpt lat="47.48632" lon="6.79558">
        <ele>313</ele>
        <time>2016-02-14T09:04:43.000Z</time>
      </trkpt>
      <trkpt lat="47.48636" lon="6.79566">
        <ele>313</ele>
        <time>2016-02-14T09:04:44.000Z</time>
      </trkpt>
      <trkpt lat="47.4864" lon="6.79572">
        <ele>313</ele>
        <time>2016-02-14T09:04:45.000Z</time>
      </trkpt>
      <trkpt lat="47.48644" lon="6.79579">
        <ele>313</ele>
        <time>2016-02-14T09:04:46.000Z</time>
      </trkpt>
      <trkpt lat="47.48647" lon="6.79586">
        <ele>313</ele>
        <time>2016-02-14T09:04:47.000Z</time>
      </trkpt>
      <trkpt lat="47.4865" lon="6.79593">
        <ele>313</ele>
        <time>2016-02-14T09:04:48.000Z</time>
      </trkpt>
      <trkpt lat="47.48653" lon="6.796">
        <ele>313</ele>
        <time>2016-02-14T09:04:49.000Z</time>
      </trkpt>
      <trkpt lat="47.48656" lon="6.79607">
        <ele>313</ele>
        <time>2016-02-14T09:04:50.000Z</time>
      </trkpt>
      <trkpt lat="47.48659" lon="6.79615">
        <ele>313</ele>
        <time>2016-02-14T09:04:51.000Z</time>
      </trkpt>
      <trkpt lat="47.4866" lon="6.79622">
        <ele>313</ele>
        <time>2016-02-14T09:04:52.000Z</time>
      </trkpt>
      <trkpt lat="47.48662" lon="6.79629">
        <ele>313</ele>
        <time>2016-02-14T09:04:53.000Z</time>
      </trkpt>
      <trkpt lat="47.48664" lon="6.79637">
        <ele>313</ele>
        <time>2016-02-14T09:04:54.000Z</time>
      </trkpt>
      <trkpt lat="47.48666" lon="6.79645">
        <ele>313</ele>
        <time>2016-02-14T09:04:55.000Z</time>
      </trkpt>
      <trkpt lat="47.48668" lon="6.79653">
        <ele>313</ele>
        <time>2016-02-14T09:04:56.000Z</time>
      </trkpt>
      <trkpt lat="47.48669" lon="6.79661">
        <ele>313</ele>
        <time>2016-02-14T09:04:57.000Z</time>
      </trkpt>
      <trkpt lat="47.48671" lon="6.79669">
        <ele>313</ele>
        <time>2016-02-14T09:04:58.000Z</time>
      </trkpt>
      <trkpt lat="47.48672" lon="6.79677">
        <ele>313</ele>
        <time>2016-02-14T09:04:59.000Z</time>
      </trkpt>
      <trkpt lat="47.48674" lon="6.79684">
        <ele>313</ele>
        <time>2016-02-14T09:05:00.000Z</time>
      </trkpt>
      <trkpt lat="47.48675" lon="6.79691">
        <ele>313</ele>
        <time>2016-02-14T09:05:01.000Z</time>
      </trkpt>
      <trkpt lat="47.48676" lon="6.79699">
        <ele>313</ele>
        <time>2016-02-14T09:05:02.000Z</time>
      </trkpt>
      <trkpt lat="47.48678" lon="6.79707">
        <ele>313</ele>
        <time>2016-02-14T09:05:03.000Z</time>
      </trkpt>
      <trkpt lat="47.4868" lon="6.79715">
        <ele>312</ele>
        <time>2016-02-14T09:05:04.000Z</time>
      </trkpt>
      <trkpt lat="47.48681" lon="6.79722">
        <ele>312</ele>
        <time>2016-02-14T09:05:05.000Z</time>
      </trkpt>
      <trkpt lat="47.48683" lon="6.7973">
        <ele>312</ele>
        <time>2016-02-14T09:05:06.000Z</time>
      </trkpt>
      <trkpt lat="47.48684" lon="6.79737">
        <ele>312</ele>
        <time>2016-02-14T09:05:07.000Z</time>
      </trkpt>
      <trkpt lat="47.48685" lon="6.79746">
        <ele>312</ele>
        <time>2016-02-14T09:05:08.000Z</time>
      </trkpt>
      <trkpt lat="47.48686" lon="6.79753">
        <ele>312</ele>
        <time>2016-02-14T09:05:09.000Z</time>
      </trkpt>
      <trkpt lat="47.48688" lon="6.79762">
        <ele>312</ele>
        <time>2016-02-14T09:05:10.000Z</time>
      </trkpt>
      <trkpt lat="47.48689" lon="6.79769">
        <ele>312</ele>
        <time>2016-02-14T09:05:11.000Z</time>
      </trkpt>
      <trkpt lat="47.4869" lon="6.79778">
        <ele>312</ele>
        <time>2016-02-14T09:05:12.000Z</time>
      </trkpt>
      <trkpt lat="47.48691" lon="6.79786">
        <ele>312</ele>
        <time>2016-02-14T09:05:13.000Z</time>
      </trkpt>
      <trkpt lat="47.48693" lon="6.79793">
        <ele>312</ele>
        <time>2016-02-14T09:05:14.000Z</time>
      </trkpt>
      <trkpt lat="47.48694" lon="6.79802">
        <ele>312</ele>
        <time>2016-02-14T09:05:15.000Z</time>
      </trkpt>
      <trkpt lat="47.48695" lon="6.7981">
        <ele>312</ele>
        <time>2016-02-14T09:05:16.000Z</time>
      </trkpt>
      <trkpt lat="47.48697" lon="6.79818">
        <ele>312</ele>
        <time>2016-02-14T09:05:17.000Z</time>
      </trkpt>
      <trkpt lat="47.48698" lon="6.79827">
        <ele>312</ele>
        <time>2016-02-14T09:05:18.000Z</time>
      </trkpt>
      <trkpt lat="47.48699" lon="6.79835">
        <ele>312</ele>
        <time>2016-02-14T09:05:19.000Z</time>
      </trkpt>
      <trkpt lat="47.487" lon="6.79844">
        <ele>312</ele>
        <time>2016-02-14T09:05:20.000Z</time>
      </trkpt>
      <trkpt lat="47.487" lon="6.79852">
        <ele>312</ele>
        <time>2016-02-14T09:05:21.000Z</time>
      </trkpt>
      <trkpt lat="47.48701" lon="6.7986">
        <ele>312</ele>
        <time>2016-02-14T09:05:22.000Z</time>
      </trkpt>
      <trkpt lat="47.48701" lon="6.79868">
        <ele>312</ele>
        <time>2016-02-14T09:05:23.000Z</time>
      </trkpt>
      <trkpt lat="47.48702" lon="6.79876">
        <ele>312</ele>
        <time>2016-02-14T09:05:24.000Z</time>
      </trkpt>
      <trkpt lat="47.48703" lon="6.79884">
        <ele>312</ele>
        <time>2016-02-14T09:05:25.000Z</time>
      </trkpt>
      <trkpt lat="47.48704" lon="6.79892">
        <ele>313</ele>
        <time>2016-02-14T09:05:26.000Z</time>
      </trkpt>
      <trkpt lat="47.48705" lon="6.799">
        <ele>313</ele>
        <time>2016-02-14T09:05:27.000Z</time>
      </trkpt>
      <trkpt lat="47.48705" lon="6.79908">
        <ele>313</ele>
        <time>2016-02-14T09:05:28.000Z</time>
      </trkpt>
      <trkpt lat="47.48705" lon="6.79917">
        <ele>313</ele>
        <time>2016-02-14T09:05:29.000Z</time>
      </trkpt>
      <trkpt lat="47.48706" lon="6.79924">
        <ele>312</ele>
        <time>2016-02-14T09:05:30.000Z</time>
      </trkpt>
      <trkpt lat="47.48706" lon="6.79932">
        <ele>312</ele>
        <time>2016-02-14T09:05:31.000Z</time>
      </trkpt>
      <trkpt lat="47.48706" lon="6.7994">
        <ele>312</ele>
        <time>2016-02-14T09:05:32.000Z</time>
      </trkpt>
      <trkpt lat="47.48707" lon="6.79948">
        <ele>312</ele>
        <time>2016-02-14T09:05:33.000Z</time>
      </trkpt>
      <trkpt lat="47.48708" lon="6.79955">
        <ele>312</ele>
        <time>2016-02-14T09:05:34.000Z</time>
      </trkpt>
      <trkpt lat="47.48708" lon="6.79963">
        <ele>311</ele>
        <time>2016-02-14T09:05:35.000Z</time>
      </trkpt>
      <trkpt lat="47.48708" lon="6.7997">
        <ele>311</ele>
        <time>2016-02-14T09:05:36.000Z</time>
      </trkpt>
      <trkpt lat="47.48709" lon="6.79978">
        <ele>311</ele>
        <time>2016-02-14T09:05:37.000Z</time>
      </trkpt>
      <trkpt lat="47.48708" lon="6.79986">
        <ele>311</ele>
        <time>2016-02-14T09:05:38.000Z</time>
      </trkpt>
      <trkpt lat="47.48708" lon="6.79994">
        <ele>311</ele>
        <time>2016-02-14T09:05:39.000Z</time>
      </trkpt>
      <trkpt lat="47.4871" lon="6.80003">
        <ele>311</ele>
        <time>2016-02-14T09:05:40.000Z</time>
      </trkpt>
      <trkpt lat="47.4871" lon="6.80011">
        <ele>311</ele>
        <time>2016-02-14T09:05:41.000Z</time>
      </trkpt>
      <trkpt lat="47.4871" lon="6.80019">
        <ele>311</ele>
        <time>2016-02-14T09:05:42.000Z</time>
      </trkpt>
      <trkpt lat="47.48711" lon="6.80027">
        <ele>311</ele>
        <time>2016-02-14T09:05:43.000Z</time>
      </trkpt>
      <trkpt lat="47.48712" lon="6.80035">
        <ele>311</ele>
        <time>2016-02-14T09:05:44.000Z</time>
      </trkpt>
      <trkpt lat="47.48712" lon="6.80043">
        <ele>311</ele>
        <time>2016-02-14T09:05:45.000Z</time>
      </trkpt>
      <trkpt lat="47.48712" lon="6.80051">
        <ele>311</ele>
        <time>2016-02-14T09:05:46.000Z</time>
      </trkpt>
      <trkpt lat="47.48714" lon="6.80059">
        <ele>311</ele>
        <time>2016-02-14T09:05:47.000Z</time>
      </trkpt>
      <trkpt lat="47.48714" lon="6.80067">
        <ele>311</ele>
        <time>2016-02-14T09:05:48.000Z</time>
      </trkpt>
      <trkpt lat="47.48715" lon="6.80075">
        <ele>311</ele>
        <time>2016-02-14T09:05:49.000Z</time>
      </trkpt>
      <trkpt lat="47.48716" lon="6.80082">
        <ele>311</ele>
        <time>2016-02-14T09:05:50.000Z</time>
      </trkpt>
      <trkpt lat="47.48715" lon="6.8009">
        <ele>312</ele>
        <time>2016-02-14T09:05:51.000Z</time>
      </trkpt>
      <trkpt lat="47.48713" lon="6.80097">
        <ele>312</ele>
        <time>2016-02-14T09:05:52.000Z</time>
      </trkpt>
      <trkpt lat="47.48712" lon="6.80104">
        <ele>313</ele>
        <time>2016-02-14T09:05:53.000Z</time>
      </trkpt>
      <trkpt lat="47.48711" lon="6.80111">
        <ele>313</ele>
        <time>2016-02-14T09:05:54.000Z</time>
      </trkpt>
      <trkpt lat="47.48712" lon="6.80118">
        <ele>313</ele>
        <time>2016-02-14T09:05:55.000Z</time>
      </trkpt>
      <trkpt lat="47.48711" lon="6.80125">
        <ele>313</ele>
        <time>2016-02-14T09:05:56.000Z</time>
      </trkpt>
      <trkpt lat="47.4871" lon="6.80131">
        <ele>313</ele>
        <time>2016-02-14T09:05:57.000Z</time>
      </trkpt>
      <trkpt lat="47.48709" lon="6.80137">
        <ele>313</ele>
        <time>2016-02-14T09:05:58.000Z</time>
      </trkpt>
      <trkpt lat="47.48709" lon="6.80144">
        <ele>313</ele>
        <time>2016-02-14T09:05:59.000Z</time>
      </trkpt>
      <trkpt lat="47.4871" lon="6.80151">
        <ele>313</ele>
        <time>2016-02-14T09:06:00.000Z</time>
      </trkpt>
      <trkpt lat="47.4871" lon="6.80158">
        <ele>313</ele>
        <time>2016-02-14T09:06:01.000Z</time>
      </trkpt>
      <trkpt lat="47.48709" lon="6.80166">
        <ele>313</ele>
        <time>2016-02-14T09:06:02.000Z</time>
      </trkpt>
      <trkpt lat="47.48707" lon="6.80174">
        <ele>314</ele>
        <time>2016-02-14T09:06:03.000Z</time>
      </trkpt>
      <trkpt lat="47.48706" lon="6.80181">
        <ele>314</ele>
        <time>2016-02-14T09:06:04.000Z</time>
      </trkpt>
      <trkpt lat="47.48705" lon="6.80188">
        <ele>314</ele>
        <time>2016-02-14T09:06:05.000Z</time>
      </trkpt>
      <trkpt lat="47.48701" lon="6.80198">
        <ele>314</ele>
        <time>2016-02-14T09:06:06.000Z</time>
      </trkpt>
      <trkpt lat="47.48699" lon="6.80206">
        <ele>314</ele>
        <time>2016-02-14T09:06:07.000Z</time>
      </trkpt>
      <trkpt lat="47.48697" lon="6.80211">
        <ele>314</ele>
        <time>2016-02-14T09:06:08.000Z</time>
      </trkpt>
      <trkpt lat="47.48695" lon="6.80217">
        <ele>314</ele>
        <time>2016-02-14T09:06:09.000Z</time>
      </trkpt>
      <trkpt lat="47.48693" lon="6.80224">
        <ele>314</ele>
        <time>2016-02-14T09:06:10.000Z</time>
      </trkpt>
      <trkpt lat="47.48691" lon="6.8023">
        <ele>314</ele>
        <time>2016-02-14T09:06:11.000Z</time>
      </trkpt>
      <trkpt lat="47.48689" lon="6.80235">
        <ele>314</ele>
        <time>2016-02-14T09:06:12.000Z</time>
      </trkpt>
      <trkpt lat="47.48686" lon="6.80241">
        <ele>314</ele>
        <time>2016-02-14T09:06:13.000Z</time>
      </trkpt>
      <trkpt lat="47.48682" lon="6.80247">
        <ele>315</ele>
        <time>2016-02-14T09:06:14.000Z</time>
      </trkpt>
      <trkpt lat="47.48678" lon="6.80254">
        <ele>315</ele>
        <time>2016-02-14T09:06:15.000Z</time>
      </trkpt>
      <trkpt lat="47.48674" lon="6.80262">
        <ele>315</ele>
        <time>2016-02-14T09:06:16.000Z</time>
      </trkpt>
      <trkpt lat="47.48671" lon="6.80268">
        <ele>314</ele>
        <time>2016-02-14T09:06:17.000Z</time>
      </trkpt>
      <trkpt lat="47.48667" lon="6.80274">
        <ele>314</ele>
        <time>2016-02-14T09:06:18.000Z</time>
      </trkpt>
      <trkpt lat="47.48664" lon="6.80279">
        <ele>314</ele>
        <time>2016-02-14T09:06:19.000Z</time>
      </trkpt>
      <trkpt lat="47.48661" lon="6.80285">
        <ele>314</ele>
        <time>2016-02-14T09:06:20.000Z</time>
      </trkpt>
      <trkpt lat="47.48657" lon="6.80292">
        <ele>314</ele>
        <time>2016-02-14T09:06:21.000Z</time>
      </trkpt>
      <trkpt lat="47.48651" lon="6.803">
        <ele>314</ele>
        <time>2016-02-14T09:06:22.000Z</time>
      </trkpt>
      <trkpt lat="47.48649" lon="6.80306">
        <ele>314</ele>
        <time>2016-02-14T09:06:23.000Z</time>
      </trkpt>
      <trkpt lat="47.48646" lon="6.80311">
        <ele>314</ele>
        <time>2016-02-14T09:06:24.000Z</time>
      </trkpt>
      <trkpt lat="47.48644" lon="6.80316">
        <ele>314</ele>
        <time>2016-02-14T09:06:25.000Z</time>
      </trkpt>
      <trkpt lat="47.48641" lon="6.8032">
        <ele>314</ele>
        <time>2016-02-14T09:06:26.000Z</time>
      </trkpt>
      <trkpt lat="47.48638" lon="6.80327">
        <ele>314</ele>
        <time>2016-02-14T09:06:27.000Z</time>
      </trkpt>
      <trkpt lat="47.48637" lon="6.80332">
        <ele>314</ele>
        <time>2016-02-14T09:06:28.000Z</time>
      </trkpt>
      <trkpt lat="47.48634" lon="6.80337">
        <ele>313</ele>
        <time>2016-02-14T09:06:29.000Z</time>
      </trkpt>
      <trkpt lat="47.48632" lon="6.80342">
        <ele>313</ele>
        <time>2016-02-14T09:06:30.000Z</time>
      </trkpt>
      <trkpt lat="47.4863" lon="6.80346">
        <ele>313</ele>
        <time>2016-02-14T09:06:31.000Z</time>
      </trkpt>
      <trkpt lat="47.48627" lon="6.80351">
        <ele>313</ele>
        <time>2016-02-14T09:06:32.000Z</time>
      </trkpt>
      <trkpt lat="47.48624" lon="6.80356">
        <ele>313</ele>
        <time>2016-02-14T09:06:33.000Z</time>
      </trkpt>
      <trkpt lat="47.48621" lon="6.8036">
        <ele>313</ele>
        <time>2016-02-14T09:06:34.000Z</time>
      </trkpt>
      <trkpt lat="47.48618" lon="6.80365">
        <ele>313</ele>
        <time>2016-02-14T09:06:35.000Z</time>
      </trkpt>
      <trkpt lat="47.48615" lon="6.80369">
        <ele>313</ele>
        <time>2016-02-14T09:06:36.000Z</time>
      </trkpt>
      <trkpt lat="47.48612" lon="6.80374">
        <ele>313</ele>
        <time>2016-02-14T09:06:37.000Z</time>
      </trkpt>
      <trkpt lat="47.48609" lon="6.80379">
        <ele>313</ele>
        <time>2016-02-14T09:06:38.000Z</time>
      </trkpt>
      <trkpt lat="47.48607" lon="6.80385">
        <ele>313</ele>
        <time>2016-02-14T09:06:39.000Z</time>
      </trkpt>
      <trkpt lat="47.48603" lon="6.80391">
        <ele>313</ele>
        <time>2016-02-14T09:06:40.000Z</time>
      </trkpt>
      <trkpt lat="47.486" lon="6.80397">
        <ele>313</ele>
        <time>2016-02-14T09:06:41.000Z</time>
      </trkpt>
      <trkpt lat="47.48597" lon="6.80404">
        <ele>314</ele>
        <time>2016-02-14T09:06:42.000Z</time>
      </trkpt>
      <trkpt lat="47.48594" lon="6.80411">
        <ele>314</ele>
        <time>2016-02-14T09:06:43.000Z</time>
      </trkpt>
      <trkpt lat="47.48586" lon="6.80427">
        <ele>314</ele>
        <time>2016-02-14T09:06:44.000Z</time>
      </trkpt>
      <trkpt lat="47.48583" lon="6.80436">
        <ele>314</ele>
        <time>2016-02-14T09:06:45.000Z</time>
      </trkpt>
      <trkpt lat="47.4858" lon="6.80442">
        <ele>314</ele>
        <time>2016-02-14T09:06:46.000Z</time>
      </trkpt>
      <trkpt lat="47.48578" lon="6.80447">
        <ele>314</ele>
        <time>2016-02-14T09:06:47.000Z</time>
      </trkpt>
      <trkpt lat="47.48576" lon="6.80454">
        <ele>314</ele>
        <time>2016-02-14T09:06:48.000Z</time>
      </trkpt>
      <trkpt lat="47.48575" lon="6.80461">
        <ele>314</ele>
        <time>2016-02-14T09:06:49.000Z</time>
      </trkpt>
      <trkpt lat="47.48573" lon="6.80467">
        <ele>314</ele>
        <time>2016-02-14T09:06:50.000Z</time>
      </trkpt>
      <trkpt lat="47.48571" lon="6.80474">
        <ele>314</ele>
        <time>2016-02-14T09:06:51.000Z</time>
      </trkpt>
      <trkpt lat="47.4857" lon="6.80482">
        <ele>313</ele>
        <time>2016-02-14T09:06:52.000Z</time>
      </trkpt>
      <trkpt lat="47.48569" lon="6.80487">
        <ele>313</ele>
        <time>2016-02-14T09:06:53.000Z</time>
      </trkpt>
      <trkpt lat="47.48567" lon="6.80491">
        <ele>313</ele>
        <time>2016-02-14T09:06:54.000Z</time>
      </trkpt>
      <trkpt lat="47.48567" lon="6.80496">
        <ele>313</ele>
        <time>2016-02-14T09:06:55.000Z</time>
      </trkpt>
      <trkpt lat="47.48566" lon="6.80501">
        <ele>313</ele>
        <time>2016-02-14T09:06:56.000Z</time>
      </trkpt>
      <trkpt lat="47.48565" lon="6.80505">
        <ele>313</ele>
        <time>2016-02-14T09:06:57.000Z</time>
      </trkpt>
      <trkpt lat="47.48564" lon="6.80509">
        <ele>313</ele>
        <time>2016-02-14T09:06:58.000Z</time>
      </trkpt>
      <trkpt lat="47.48563" lon="6.80513">
        <ele>313</ele>
        <time>2016-02-14T09:06:59.000Z</time>
      </trkpt>
      <trkpt lat="47.48562" lon="6.80517">
        <ele>313</ele>
        <time>2016-02-14T09:07:00.000Z</time>
      </trkpt>
      <trkpt lat="47.48561" lon="6.80521">
        <ele>313</ele>
        <time>2016-02-14T09:07:01.000Z</time>
      </trkpt>
      <trkpt lat="47.4856" lon="6.80525">
        <ele>313</ele>
        <time>2016-02-14T09:07:02.000Z</time>
      </trkpt>
      <trkpt lat="47.48559" lon="6.8053">
        <ele>313</ele>
        <time>2016-02-14T09:07:03.000Z</time>
      </trkpt>
      <trkpt lat="47.48557" lon="6.80534">
        <ele>313</ele>
        <time>2016-02-14T09:07:04.000Z</time>
      </trkpt>
      <trkpt lat="47.48555" lon="6.80539">
        <ele>313</ele>
        <time>2016-02-14T09:07:05.000Z</time>
      </trkpt>
      <trkpt lat="47.48553" lon="6.80545">
        <ele>313</ele>
        <time>2016-02-14T09:07:06.000Z</time>
      </trkpt>
      <trkpt lat="47.48551" lon="6.80551">
        <ele>313</ele>
        <time>2016-02-14T09:07:07.000Z</time>
      </trkpt>
      <trkpt lat="47.48548" lon="6.80557">
        <ele>313</ele>
        <time>2016-02-14T09:07:08.000Z</time>
      </trkpt>
      <trkpt lat="47.48546" lon="6.80564">
        <ele>313</ele>
        <time>2016-02-14T09:07:09.000Z</time>
      </trkpt>
      <trkpt lat="47.48543" lon="6.8057">
        <ele>313</ele>
        <time>2016-02-14T09:07:10.000Z</time>
      </trkpt>
      <trkpt lat="47.48534" lon="6.80591">
        <ele>313</ele>
        <time>2016-02-14T09:07:11.000Z</time>
      </trkpt>
      <trkpt lat="47.48532" lon="6.80597">
        <ele>313</ele>
        <time>2016-02-14T09:07:12.000Z</time>
      </trkpt>
      <trkpt lat="47.4853" lon="6.80603">
        <ele>313</ele>
        <time>2016-02-14T09:07:13.000Z</time>
      </trkpt>
      <trkpt lat="47.48528" lon="6.80608">
        <ele>313</ele>
        <time>2016-02-14T09:07:14.000Z</time>
      </trkpt>
      <trkpt lat="47.48527" lon="6.80614">
        <ele>313</ele>
        <time>2016-02-14T09:07:15.000Z</time>
      </trkpt>
      <trkpt lat="47.48526" lon="6.80619">
        <ele>313</ele>
        <time>2016-02-14T09:07:16.000Z</time>
      </trkpt>
      <trkpt lat="47.48525" lon="6.80625">
        <ele>313</ele>
        <time>2016-02-14T09:07:17.000Z</time>
      </trkpt>
      <trkpt lat="47.48523" lon="6.80632">
        <ele>313</ele>
        <time>2016-02-14T09:07:18.000Z</time>
      </trkpt>
      <trkpt lat="47.48522" lon="6.80637">
        <ele>313</ele>
        <time>2016-02-14T09:07:19.000Z</time>
      </trkpt>
      <trkpt lat="47.48521" lon="6.80642">
        <ele>313</ele>
        <time>2016-02-14T09:07:20.000Z</time>
      </trkpt>
      <trkpt lat="47.48519" lon="6.80648">
        <ele>313</ele>
        <time>2016-02-14T09:07:21.000Z</time>
      </trkpt>
      <trkpt lat="47.48517" lon="6.80654">
        <ele>313</ele>
        <time>2016-02-14T09:07:22.000Z</time>
      </trkpt>
      <trkpt lat="47.48516" lon="6.8066">
        <ele>313</ele>
        <time>2016-02-14T09:07:23.000Z</time>
      </trkpt>
      <trkpt lat="47.48514" lon="6.80665">
        <ele>313</ele>
        <time>2016-02-14T09:07:24.000Z</time>
      </trkpt>
      <trkpt lat="47.48512" lon="6.8067">
        <ele>313</ele>
        <time>2016-02-14T09:07:25.000Z</time>
      </trkpt>
      <trkpt lat="47.48505" lon="6.80688">
        <ele>313</ele>
        <time>2016-02-14T09:07:28.000Z</time>
      </trkpt>
      <trkpt lat="47.48503" lon="6.80693">
        <ele>313</ele>
        <time>2016-02-14T09:07:29.000Z</time>
      </trkpt>
      <trkpt lat="47.485" lon="6.80696">
        <ele>313</ele>
        <time>2016-02-14T09:07:30.000Z</time>
      </trkpt>
      <trkpt lat="47.48496" lon="6.80701">
        <ele>316</ele>
        <time>2016-02-14T09:07:31.000Z</time>
      </trkpt>
      <trkpt lat="47.48492" lon="6.80707">
        <ele>316</ele>
        <time>2016-02-14T09:07:32.000Z</time>
      </trkpt>
      <trkpt lat="47.48488" lon="6.80715">
        <ele>316</ele>
        <time>2016-02-14T09:07:33.000Z</time>
      </trkpt>
      <trkpt lat="47.48485" lon="6.80723">
        <ele>316</ele>
        <time>2016-02-14T09:07:34.000Z</time>
      </trkpt>
      <trkpt lat="47.48483" lon="6.80731">
        <ele>316</ele>
        <time>2016-02-14T09:07:35.000Z</time>
      </trkpt>
      <trkpt lat="47.48482" lon="6.80739">
        <ele>315</ele>
        <time>2016-02-14T09:07:36.000Z</time>
      </trkpt>
      <trkpt lat="47.48481" lon="6.80748">
        <ele>315</ele>
        <time>2016-02-14T09:07:37.000Z</time>
      </trkpt>
      <trkpt lat="47.48479" lon="6.80772">
        <ele>316</ele>
        <time>2016-02-14T09:07:38.000Z</time>
      </trkpt>
      <trkpt lat="47.48479" lon="6.80782">
        <ele>316</ele>
        <time>2016-02-14T09:07:39.000Z</time>
      </trkpt>
      <trkpt lat="47.48478" lon="6.80791">
        <ele>316</ele>
        <time>2016-02-14T09:07:40.000Z</time>
      </trkpt>
      <trkpt lat="47.48477" lon="6.80799">
        <ele>316</ele>
        <time>2016-02-14T09:07:41.000Z</time>
      </trkpt>
      <trkpt lat="47.48477" lon="6.80808">
        <ele>316</ele>
        <time>2016-02-14T09:07:42.000Z</time>
      </trkpt>
      <trkpt lat="47.48476" lon="6.80817">
        <ele>316</ele>
        <time>2016-02-14T09:07:43.000Z</time>
      </trkpt>
      <trkpt lat="47.48476" lon="6.80826">
        <ele>316</ele>
        <time>2016-02-14T09:07:44.000Z</time>
      </trkpt>
      <trkpt lat="47.48475" lon="6.80834">
        <ele>316</ele>
        <time>2016-02-14T09:07:45.000Z</time>
      </trkpt>
      <trkpt lat="47.48472" lon="6.80842">
        <ele>316</ele>
        <time>2016-02-14T09:07:46.000Z</time>
      </trkpt>
      <trkpt lat="47.48471" lon="6.80849">
        <ele>316</ele>
        <time>2016-02-14T09:07:47.000Z</time>
      </trkpt>
      <trkpt lat="47.48467" lon="6.80858">
        <ele>316</ele>
        <time>2016-02-14T09:07:48.000Z</time>
      </trkpt>
      <trkpt lat="47.48465" lon="6.80866">
        <ele>316</ele>
        <time>2016-02-14T09:07:49.000Z</time>
      </trkpt>
      <trkpt lat="47.48463" lon="6.80874">
        <ele>316</ele>
        <time>2016-02-14T09:07:50.000Z</time>
      </trkpt>
      <trkpt lat="47.48463" lon="6.8088">
        <ele>316</ele>
        <time>2016-02-14T09:07:51.000Z</time>
      </trkpt>
      <trkpt lat="47.48463" lon="6.80887">
        <ele>316</ele>
        <time>2016-02-14T09:07:52.000Z</time>
      </trkpt>
      <trkpt lat="47.4846" lon="6.80897">
        <ele>316</ele>
        <time>2016-02-14T09:07:53.000Z</time>
      </trkpt>
      <trkpt lat="47.48458" lon="6.80905">
        <ele>316</ele>
        <time>2016-02-14T09:07:54.000Z</time>
      </trkpt>
      <trkpt lat="47.48456" lon="6.80913">
        <ele>316</ele>
        <time>2016-02-14T09:07:55.000Z</time>
      </trkpt>
      <trkpt lat="47.48455" lon="6.8092">
        <ele>316</ele>
        <time>2016-02-14T09:07:56.000Z</time>
      </trkpt>
      <trkpt lat="47.48453" lon="6.80929">
        <ele>316</ele>
        <time>2016-02-14T09:07:57.000Z</time>
      </trkpt>
      <trkpt lat="47.48451" lon="6.80938">
        <ele>316</ele>
        <time>2016-02-14T09:07:58.000Z</time>
      </trkpt>
      <trkpt lat="47.48449" lon="6.80946">
        <ele>316</ele>
        <time>2016-02-14T09:07:59.000Z</time>
      </trkpt>
      <trkpt lat="47.48443" lon="6.80958">
        <ele>316</ele>
        <time>2016-02-14T09:08:00.000Z</time>
      </trkpt>
      <trkpt lat="47.48441" lon="6.80966">
        <ele>316</ele>
        <time>2016-02-14T09:08:01.000Z</time>
      </trkpt>
      <trkpt lat="47.48439" lon="6.80974">
        <ele>316</ele>
        <time>2016-02-14T09:08:02.000Z</time>
      </trkpt>
      <trkpt lat="47.48437" lon="6.80981">
        <ele>316</ele>
        <time>2016-02-14T09:08:03.000Z</time>
      </trkpt>
      <trkpt lat="47.48436" lon="6.80992">
        <ele>316</ele>
        <time>2016-02-14T09:08:04.000Z</time>
      </trkpt>
      <trkpt lat="47.48434" lon="6.81">
        <ele>316</ele>
        <time>2016-02-14T09:08:05.000Z</time>
      </trkpt>
      <trkpt lat="47.48433" lon="6.81007">
        <ele>317</ele>
        <time>2016-02-14T09:08:06.000Z</time>
      </trkpt>
      <trkpt lat="47.48432" lon="6.81018">
        <ele>317</ele>
        <time>2016-02-14T09:08:07.000Z</time>
      </trkpt>
      <trkpt lat="47.4843" lon="6.81025">
        <ele>317</ele>
        <time>2016-02-14T09:08:08.000Z</time>
      </trkpt>
      <trkpt lat="47.48429" lon="6.81032">
        <ele>317</ele>
        <time>2016-02-14T09:08:09.000Z</time>
      </trkpt>
      <trkpt lat="47.48427" lon="6.81044">
        <ele>317</ele>
        <time>2016-02-14T09:08:10.000Z</time>
      </trkpt>
      <trkpt lat="47.48425" lon="6.81053">
        <ele>317</ele>
        <time>2016-02-14T09:08:11.000Z</time>
      </trkpt>
      <trkpt lat="47.48423" lon="6.8106">
        <ele>317</ele>
        <time>2016-02-14T09:08:12.000Z</time>
      </trkpt>
      <trkpt lat="47.48421" lon="6.81069">
        <ele>317</ele>
        <time>2016-02-14T09:08:13.000Z</time>
      </trkpt>
      <trkpt lat="47.4842" lon="6.81076">
        <ele>317</ele>
        <time>2016-02-14T09:08:14.000Z</time>
      </trkpt>
      <trkpt lat="47.48418" lon="6.81085">
        <ele>317</ele>
        <time>2016-02-14T09:08:15.000Z</time>
      </trkpt>
      <trkpt lat="47.48417" lon="6.81093">
        <ele>317</ele>
        <time>2016-02-14T09:08:16.000Z</time>
      </trkpt>
      <trkpt lat="47.48415" lon="6.811">
        <ele>319</ele>
        <time>2016-02-14T09:08:17.000Z</time>
      </trkpt>
      <trkpt lat="47.48414" lon="6.81108">
        <ele>319</ele>
        <time>2016-02-14T09:08:18.000Z</time>
      </trkpt>
      <trkpt lat="47.48413" lon="6.81116">
        <ele>319</ele>
        <time>2016-02-14T09:08:19.000Z</time>
      </trkpt>
      <trkpt lat="47.48413" lon="6.81124">
        <ele>319</ele>
        <time>2016-02-14T09:08:20.000Z</time>
      </trkpt>
      <trkpt lat="47.48411" lon="6.81131">
        <ele>319</ele>
        <time>2016-02-14T09:08:21.000Z</time>
      </trkpt>
      <trkpt lat="47.4841" lon="6.81139">
        <ele>319</ele>
        <time>2016-02-14T09:08:22.000Z</time>
      </trkpt>
      <trkpt lat="47.4841" lon="6.81147">
        <ele>319</ele>
        <time>2016-02-14T09:08:23.000Z</time>
      </trkpt>
      <trkpt lat="47.48409" lon="6.81153">
        <ele>318</ele>
        <time>2016-02-14T09:08:24.000Z</time>
      </trkpt>
      <trkpt lat="47.48408" lon="6.81161">
        <ele>318</ele>
        <time>2016-02-14T09:08:25.000Z</time>
      </trkpt>
      <trkpt lat="47.48406" lon="6.81167">
        <ele>316</ele>
        <time>2016-02-14T09:08:26.000Z</time>
      </trkpt>
      <trkpt lat="47.48405" lon="6.81175">
        <ele>316</ele>
        <time>2016-02-14T09:08:27.000Z</time>
      </trkpt>
      <trkpt lat="47.48404" lon="6.81181">
        <ele>317</ele>
        <time>2016-02-14T09:08:28.000Z</time>
      </trkpt>
      <trkpt lat="47.48403" lon="6.8119">
        <ele>317</ele>
        <time>2016-02-14T09:08:29.000Z</time>
      </trkpt>
      <trkpt lat="47.48403" lon="6.81193">
        <ele>317</ele>
        <time>2016-02-14T09:08:30.000Z</time>
      </trkpt>
      <trkpt lat="47.48402" lon="6.81201">
        <ele>316</ele>
        <time>2016-02-14T09:08:31.000Z</time>
      </trkpt>
      <trkpt lat="47.48401" lon="6.81208">
        <ele>316</ele>
        <time>2016-02-14T09:08:32.000Z</time>
      </trkpt>
      <trkpt lat="47.48401" lon="6.81213">
        <ele>316</ele>
        <time>2016-02-14T09:08:33.000Z</time>
      </trkpt>
      <trkpt lat="47.48398" lon="6.81218">
        <ele>316</ele>
        <time>2016-02-14T09:08:34.000Z</time>
      </trkpt>
      <trkpt lat="47.48396" lon="6.81226">
        <ele>316</ele>
        <time>2016-02-14T09:08:35.000Z</time>
      </trkpt>
      <trkpt lat="47.48395" lon="6.81235">
        <ele>316</ele>
        <time>2016-02-14T09:08:36.000Z</time>
      </trkpt>
      <trkpt lat="47.48392" lon="6.81239">
        <ele>316</ele>
        <time>2016-02-14T09:08:37.000Z</time>
      </trkpt>
      <trkpt lat="47.48391" lon="6.81249">
        <ele>316</ele>
        <time>2016-02-14T09:08:38.000Z</time>
      </trkpt>
      <trkpt lat="47.4839" lon="6.81259">
        <ele>315</ele>
        <time>2016-02-14T09:08:39.000Z</time>
      </trkpt>
      <trkpt lat="47.48389" lon="6.81266">
        <ele>315</ele>
        <time>2016-02-14T09:08:40.000Z</time>
      </trkpt>
      <trkpt lat="47.48387" lon="6.81274">
        <ele>315</ele>
        <time>2016-02-14T09:08:41.000Z</time>
      </trkpt>
      <trkpt lat="47.48386" lon="6.81281">
        <ele>315</ele>
        <time>2016-02-14T09:08:42.000Z</time>
      </trkpt>
      <trkpt lat="47.48385" lon="6.81289">
        <ele>315</ele>
        <time>2016-02-14T09:08:43.000Z</time>
      </trkpt>
      <trkpt lat="47.48384" lon="6.81295">
        <ele>315</ele>
        <time>2016-02-14T09:08:44.000Z</time>
      </trkpt>
      <trkpt lat="47.48384" lon="6.81303">
        <ele>315</ele>
        <time>2016-02-14T09:08:45.000Z</time>
      </trkpt>
      <trkpt lat="47.48384" lon="6.81311">
        <ele>315</ele>
        <time>2016-02-14T09:08:46.000Z</time>
      </trkpt>
      <trkpt lat="47.48385" lon="6.81318">
        <ele>315</ele>
        <time>2016-02-14T09:08:47.000Z</time>
      </trkpt>
      <trkpt lat="47.48386" lon="6.81327">
        <ele>315</ele>
        <time>2016-02-14T09:08:48.000Z</time>
      </trkpt>
      <trkpt lat="47.48387" lon="6.81336">
        <ele>314</ele>
        <time>2016-02-14T09:08:49.000Z</time>
      </trkpt>
      <trkpt lat="47.48387" lon="6.81343">
        <ele>314</ele>
        <time>2016-02-14T09:08:50.000Z</time>
      </trkpt>
      <trkpt lat="47.48387" lon="6.81351">
        <ele>314</ele>
        <time>2016-02-14T09:08:51.000Z</time>
      </trkpt>
      <trkpt lat="47.48387" lon="6.81356">
        <ele>314</ele>
        <time>2016-02-14T09:08:52.000Z</time>
      </trkpt>
      <trkpt lat="47.48388" lon="6.81364">
        <ele>314</ele>
        <time>2016-02-14T09:08:53.000Z</time>
      </trkpt>
      <trkpt lat="47.4839" lon="6.81372">
        <ele>314</ele>
        <time>2016-02-14T09:08:54.000Z</time>
      </trkpt>
      <trkpt lat="47.4839" lon="6.81379">
        <ele>314</ele>
        <time>2016-02-14T09:08:55.000Z</time>
      </trkpt>
      <trkpt lat="47.4839" lon="6.81387">
        <ele>314</ele>
        <time>2016-02-14T09:08:56.000Z</time>
      </trkpt>
      <trkpt lat="47.48391" lon="6.81395">
        <ele>314</ele>
        <time>2016-02-14T09:08:57.000Z</time>
      </trkpt>
      <trkpt lat="47.48392" lon="6.81402">
        <ele>314</ele>
        <time>2016-02-14T09:08:58.000Z</time>
      </trkpt>
      <trkpt lat="47.48392" lon="6.81409">
        <ele>314</ele>
        <time>2016-02-14T09:08:59.000Z</time>
      </trkpt>
      <trkpt lat="47.48393" lon="6.81416">
        <ele>314</ele>
        <time>2016-02-14T09:09:00.000Z</time>
      </trkpt>
      <trkpt lat="47.48394" lon="6.81423">
        <ele>314</ele>
        <time>2016-02-14T09:09:01.000Z</time>
      </trkpt>
      <trkpt lat="47.48395" lon="6.8143">
        <ele>314</ele>
        <time>2016-02-14T09:09:02.000Z</time>
      </trkpt>
      <trkpt lat="47.48396" lon="6.81437">
        <ele>314</ele>
        <time>2016-02-14T09:09:03.000Z</time>
      </trkpt>
      <trkpt lat="47.48396" lon="6.81443">
        <ele>314</ele>
        <time>2016-02-14T09:09:04.000Z</time>
      </trkpt>
      <trkpt lat="47.48398" lon="6.81451">
        <ele>314</ele>
        <time>2016-02-14T09:09:05.000Z</time>
      </trkpt>
      <trkpt lat="47.484" lon="6.81459">
        <ele>314</ele>
        <time>2016-02-14T09:09:06.000Z</time>
      </trkpt>
      <trkpt lat="47.48401" lon="6.81467">
        <ele>314</ele>
        <time>2016-02-14T09:09:07.000Z</time>
      </trkpt>
      <trkpt lat="47.48401" lon="6.81475">
        <ele>314</ele>
        <time>2016-02-14T09:09:08.000Z</time>
      </trkpt>
      <trkpt lat="47.48403" lon="6.81483">
        <ele>314</ele>
        <time>2016-02-14T09:09:09.000Z</time>
      </trkpt>
      <trkpt lat="47.48403" lon="6.81491">
        <ele>313</ele>
        <time>2016-02-14T09:09:10.000Z</time>
      </trkpt>
      <trkpt lat="47.48405" lon="6.81499">
        <ele>313</ele>
        <time>2016-02-14T09:09:11.000Z</time>
      </trkpt>
      <trkpt lat="47.48406" lon="6.81506">
        <ele>313</ele>
        <time>2016-02-14T09:09:12.000Z</time>
      </trkpt>
      <trkpt lat="47.48407" lon="6.81514">
        <ele>314</ele>
        <time>2016-02-14T09:09:13.000Z</time>
      </trkpt>
      <trkpt lat="47.48407" lon="6.81522">
        <ele>314</ele>
        <time>2016-02-14T09:09:14.000Z</time>
      </trkpt>
      <trkpt lat="47.48409" lon="6.8153">
        <ele>314</ele>
        <time>2016-02-14T09:09:15.000Z</time>
      </trkpt>
      <trkpt lat="47.4841" lon="6.81538">
        <ele>314</ele>
        <time>2016-02-14T09:09:16.000Z</time>
      </trkpt>
      <trkpt lat="47.48411" lon="6.81546">
        <ele>314</ele>
        <time>2016-02-14T09:09:17.000Z</time>
      </trkpt>
      <trkpt lat="47.48411" lon="6.81553">
        <ele>314</ele>
        <time>2016-02-14T09:09:18.000Z</time>
      </trkpt>
      <trkpt lat="47.48411" lon="6.81561">
        <ele>314</ele>
        <time>2016-02-14T09:09:19.000Z</time>
      </trkpt>
      <trkpt lat="47.4841" lon="6.81568">
        <ele>314</ele>
        <time>2016-02-14T09:09:20.000Z</time>
      </trkpt>
      <trkpt lat="47.48412" lon="6.81575">
        <ele>313</ele>
        <time>2016-02-14T09:09:21.000Z</time>
      </trkpt>
      <trkpt lat="47.48414" lon="6.8158">
        <ele>313</ele>
        <time>2016-02-14T09:09:22.000Z</time>
      </trkpt>
      <trkpt lat="47.48415" lon="6.81585">
        <ele>313</ele>
        <time>2016-02-14T09:09:23.000Z</time>
      </trkpt>
      <trkpt lat="47.48419" lon="6.8159">
        <ele>313</ele>
        <time>2016-02-14T09:09:24.000Z</time>
      </trkpt>
      <trkpt lat="47.48422" lon="6.81594">
        <ele>313</ele>
        <time>2016-02-14T09:09:25.000Z</time>
      </trkpt>
      <trkpt lat="47.48424" lon="6.81597">
        <ele>313</ele>
        <time>2016-02-14T09:09:26.000Z</time>
      </trkpt>
      <trkpt lat="47.48427" lon="6.81601">
        <ele>313</ele>
        <time>2016-02-14T09:09:27.000Z</time>
      </trkpt>
      <trkpt lat="47.48428" lon="6.81603">
        <ele>313</ele>
        <time>2016-02-14T09:09:28.000Z</time>
      </trkpt>
      <trkpt lat="47.48429" lon="6.81609">
        <ele>313</ele>
        <time>2016-02-14T09:09:30.000Z</time>
      </trkpt>
      <trkpt lat="47.48429" lon="6.81612">
        <ele>313</ele>
        <time>2016-02-14T09:09:31.000Z</time>
      </trkpt>
      <trkpt lat="47.48426" lon="6.81615">
        <ele>313</ele>
        <time>2016-02-14T09:09:33.000Z</time>
      </trkpt>
      <trkpt lat="47.48424" lon="6.81616">
        <ele>313</ele>
        <time>2016-02-14T09:09:34.000Z</time>
      </trkpt>
      <trkpt lat="47.48421" lon="6.81617">
        <ele>313</ele>
        <time>2016-02-14T09:09:35.000Z</time>
      </trkpt>
      <trkpt lat="47.48418" lon="6.81618">
        <ele>313</ele>
        <time>2016-02-14T09:09:36.000Z</time>
      </trkpt>
      <trkpt lat="47.48414" lon="6.81618">
        <ele>314</ele>
        <time>2016-02-14T09:09:37.000Z</time>
      </trkpt>
      <trkpt lat="47.48411" lon="6.81618">
        <ele>314</ele>
        <time>2016-02-14T09:09:38.000Z</time>
      </trkpt>
      <trkpt lat="47.48406" lon="6.81619">
        <ele>314</ele>
        <time>2016-02-14T09:09:39.000Z</time>
      </trkpt>
      <trkpt lat="47.48402" lon="6.8162">
        <ele>314</ele>
        <time>2016-02-14T09:09:40.000Z</time>
      </trkpt>
      <trkpt lat="47.48397" lon="6.81621">
        <ele>314</ele>
        <time>2016-02-14T09:09:41.000Z</time>
      </trkpt>
      <trkpt lat="47.48393" lon="6.81622">
        <ele>314</ele>
        <time>2016-02-14T09:09:42.000Z</time>
      </trkpt>
      <trkpt lat="47.48388" lon="6.81623">
        <ele>314</ele>
        <time>2016-02-14T09:09:43.000Z</time>
      </trkpt>
      <trkpt lat="47.48383" lon="6.81624">
        <ele>314</ele>
        <time>2016-02-14T09:09:44.000Z</time>
      </trkpt>
      <trkpt lat="47.48378" lon="6.81625">
        <ele>314</ele>
        <time>2016-02-14T09:09:45.000Z</time>
      </trkpt>
      <trkpt lat="47.48374" lon="6.81627">
        <ele>315</ele>
        <time>2016-02-14T09:09:46.000Z</time>
      </trkpt>
      <trkpt lat="47.48369" lon="6.81628">
        <ele>315</ele>
        <time>2016-02-14T09:09:47.000Z</time>
      </trkpt>
      <trkpt lat="47.48364" lon="6.81629">
        <ele>315</ele>
        <time>2016-02-14T09:09:48.000Z</time>
      </trkpt>
      <trkpt lat="47.48357" lon="6.81628">
        <ele>315</ele>
        <time>2016-02-14T09:09:49.000Z</time>
      </trkpt>
      <trkpt lat="47.48353" lon="6.81628">
        <ele>315</ele>
        <time>2016-02-14T09:09:50.000Z</time>
      </trkpt>
      <trkpt lat="47.48348" lon="6.81628">
        <ele>315</ele>
        <time>2016-02-14T09:09:51.000Z</time>
      </trkpt>
      <trkpt lat="47.48342" lon="6.81638">
        <ele>315</ele>
        <time>2016-02-14T09:09:52.000Z</time>
      </trkpt>
      <trkpt lat="47.48338" lon="6.81639">
        <ele>315</ele>
        <time>2016-02-14T09:09:53.000Z</time>
      </trkpt>
      <trkpt lat="47.48334" lon="6.81633">
        <ele>315</ele>
        <time>2016-02-14T09:09:54.000Z</time>
      </trkpt>
      <trkpt lat="47.48331" lon="6.81629">
        <ele>315</ele>
        <time>2016-02-14T09:09:55.000Z</time>
      </trkpt>
      <trkpt lat="47.48328" lon="6.81624">
        <ele>315</ele>
        <time>2016-02-14T09:09:56.000Z</time>
      </trkpt>
      <trkpt lat="47.48325" lon="6.81618">
        <ele>315</ele>
        <time>2016-02-14T09:09:57.000Z</time>
      </trkpt>
      <trkpt lat="47.48323" lon="6.81615">
        <ele>315</ele>
        <time>2016-02-14T09:09:58.000Z</time>
      </trkpt>
      <trkpt lat="47.4832" lon="6.81609">
        <ele>315</ele>
        <time>2016-02-14T09:09:59.000Z</time>
      </trkpt>
      <trkpt lat="47.48315" lon="6.81603">
        <ele>315</ele>
        <time>2016-02-14T09:10:00.000Z</time>
      </trkpt>
      <trkpt lat="47.48313" lon="6.81596">
        <ele>316</ele>
        <time>2016-02-14T09:10:01.000Z</time>
      </trkpt>
      <trkpt lat="47.48311" lon="6.81588">
        <ele>316</ele>
        <time>2016-02-14T09:10:02.000Z</time>
      </trkpt>
      <trkpt lat="47.48309" lon="6.81582">
        <ele>316</ele>
        <time>2016-02-14T09:10:03.000Z</time>
      </trkpt>
      <trkpt lat="47.48308" lon="6.81575">
        <ele>316</ele>
        <time>2016-02-14T09:10:04.000Z</time>
      </trkpt>
      <trkpt lat="47.48307" lon="6.81567">
        <ele>316</ele>
        <time>2016-02-14T09:10:05.000Z</time>
      </trkpt>
      <trkpt lat="47.48306" lon="6.81558">
        <ele>316</ele>
        <time>2016-02-14T09:10:06.000Z</time>
      </trkpt>
      <trkpt lat="47.48304" lon="6.8155">
        <ele>316</ele>
        <time>2016-02-14T09:10:07.000Z</time>
      </trkpt>
      <trkpt lat="47.48304" lon="6.81543">
        <ele>316</ele>
        <time>2016-02-14T09:10:08.000Z</time>
      </trkpt>
      <trkpt lat="47.48302" lon="6.81537">
        <ele>316</ele>
        <time>2016-02-14T09:10:09.000Z</time>
      </trkpt>
      <trkpt lat="47.48301" lon="6.81531">
        <ele>316</ele>
        <time>2016-02-14T09:10:10.000Z</time>
      </trkpt>
      <trkpt lat="47.48299" lon="6.81524">
        <ele>316</ele>
        <time>2016-02-14T09:10:11.000Z</time>
      </trkpt>
      <trkpt lat="47.48297" lon="6.81516">
        <ele>316</ele>
        <time>2016-02-14T09:10:12.000Z</time>
      </trkpt>
      <trkpt lat="47.48295" lon="6.8151">
        <ele>316</ele>
        <time>2016-02-14T09:10:13.000Z</time>
      </trkpt>
      <trkpt lat="47.48292" lon="6.81505">
        <ele>316</ele>
        <time>2016-02-14T09:10:14.000Z</time>
      </trkpt>
      <trkpt lat="47.4829" lon="6.81499">
        <ele>317</ele>
        <time>2016-02-14T09:10:15.000Z</time>
      </trkpt>
      <trkpt lat="47.48288" lon="6.81493">
        <ele>317</ele>
        <time>2016-02-14T09:10:16.000Z</time>
      </trkpt>
      <trkpt lat="47.48284" lon="6.81487">
        <ele>318</ele>
        <time>2016-02-14T09:10:17.000Z</time>
      </trkpt>
      <trkpt lat="47.48282" lon="6.81479">
        <ele>318</ele>
        <time>2016-02-14T09:10:18.000Z</time>
      </trkpt>
      <trkpt lat="47.4828" lon="6.81472">
        <ele>318</ele>
        <time>2016-02-14T09:10:19.000Z</time>
      </trkpt>
      <trkpt lat="47.48279" lon="6.81466">
        <ele>318</ele>
        <time>2016-02-14T09:10:20.000Z</time>
      </trkpt>
      <trkpt lat="47.48278" lon="6.8146">
        <ele>318</ele>
        <time>2016-02-14T09:10:21.000Z</time>
      </trkpt>
      <trkpt lat="47.48279" lon="6.81453">
        <ele>319</ele>
        <time>2016-02-14T09:10:22.000Z</time>
      </trkpt>
      <trkpt lat="47.48278" lon="6.81447">
        <ele>319</ele>
        <time>2016-02-14T09:10:23.000Z</time>
      </trkpt>
      <trkpt lat="47.48277" lon="6.81441">
        <ele>319</ele>
        <time>2016-02-14T09:10:24.000Z</time>
      </trkpt>
      <trkpt lat="47.48278" lon="6.81435">
        <ele>319</ele>
        <time>2016-02-14T09:10:25.000Z</time>
      </trkpt>
      <trkpt lat="47.48278" lon="6.81429">
        <ele>320</ele>
        <time>2016-02-14T09:10:26.000Z</time>
      </trkpt>
      <trkpt lat="47.48278" lon="6.81423">
        <ele>320</ele>
        <time>2016-02-14T09:10:27.000Z</time>
      </trkpt>
      <trkpt lat="47.48279" lon="6.81417">
        <ele>320</ele>
        <time>2016-02-14T09:10:28.000Z</time>
      </trkpt>
      <trkpt lat="47.48279" lon="6.81411">
        <ele>322</ele>
        <time>2016-02-14T09:10:29.000Z</time>
      </trkpt>
      <trkpt lat="47.48278" lon="6.81407">
        <ele>322</ele>
        <time>2016-02-14T09:10:30.000Z</time>
      </trkpt>
      <trkpt lat="47.48277" lon="6.81404">
        <ele>322</ele>
        <time>2016-02-14T09:10:31.000Z</time>
      </trkpt>
      <trkpt lat="47.48274" lon="6.81406">
        <ele>323</ele>
        <time>2016-02-14T09:10:37.000Z</time>
      </trkpt>
      <trkpt lat="47.48273" lon="6.81409">
        <ele>323</ele>
        <time>2016-02-14T09:10:38.000Z</time>
      </trkpt>
      <trkpt lat="47.48272" lon="6.81412">
        <ele>323</ele>
        <time>2016-02-14T09:10:39.000Z</time>
      </trkpt>
      <trkpt lat="47.4827" lon="6.81414">
        <ele>323</ele>
        <time>2016-02-14T09:10:40.000Z</time>
      </trkpt>
      <trkpt lat="47.48268" lon="6.81417">
        <ele>321</ele>
        <time>2016-02-14T09:10:41.000Z</time>
      </trkpt>
      <trkpt lat="47.48264" lon="6.81419">
        <ele>322</ele>
        <time>2016-02-14T09:10:42.000Z</time>
      </trkpt>
      <trkpt lat="47.48259" lon="6.81421">
        <ele>323</ele>
        <time>2016-02-14T09:10:43.000Z</time>
      </trkpt>
      <trkpt lat="47.48254" lon="6.81422">
        <ele>323</ele>
        <time>2016-02-14T09:10:44.000Z</time>
      </trkpt>
      <trkpt lat="47.48249" lon="6.81424">
        <ele>326</ele>
        <time>2016-02-14T09:10:45.000Z</time>
      </trkpt>
      <trkpt lat="47.48243" lon="6.81427">
        <ele>326</ele>
        <time>2016-02-14T09:10:46.000Z</time>
      </trkpt>
      <trkpt lat="47.48238" lon="6.81429">
        <ele>327</ele>
        <time>2016-02-14T09:10:47.000Z</time>
      </trkpt>
      <trkpt lat="47.48233" lon="6.81431">
        <ele>327</ele>
        <time>2016-02-14T09:10:48.000Z</time>
      </trkpt>
      <trkpt lat="47.48229" lon="6.81434">
        <ele>328</ele>
        <time>2016-02-14T09:10:49.000Z</time>
      </trkpt>
      <trkpt lat="47.48225" lon="6.81436">
        <ele>328</ele>
        <time>2016-02-14T09:10:50.000Z</time>
      </trkpt>
      <trkpt lat="47.48221" lon="6.81437">
        <ele>329</ele>
        <time>2016-02-14T09:10:51.000Z</time>
      </trkpt>
      <trkpt lat="47.48217" lon="6.81438">
        <ele>329</ele>
        <time>2016-02-14T09:10:52.000Z</time>
      </trkpt>
      <trkpt lat="47.48214" lon="6.81439">
        <ele>329</ele>
        <time>2016-02-14T09:10:53.000Z</time>
      </trkpt>
      <trkpt lat="47.48211" lon="6.81439">
        <ele>330</ele>
        <time>2016-02-14T09:10:54.000Z</time>
      </trkpt>
      <trkpt lat="47.48208" lon="6.81439">
        <ele>330</ele>
        <time>2016-02-14T09:10:55.000Z</time>
      </trkpt>
      <trkpt lat="47.48204" lon="6.8144">
        <ele>330</ele>
        <time>2016-02-14T09:10:57.000Z</time>
      </trkpt>
      <trkpt lat="47.48203" lon="6.8144">
        <ele>330</ele>
        <time>2016-02-14T09:10:58.000Z</time>
      </trkpt>
      <trkpt lat="47.482" lon="6.81439">
        <ele>331</ele>
        <time>2016-02-14T09:11:01.000Z</time>
      </trkpt>
      <trkpt lat="47.48198" lon="6.81438">
        <ele>331</ele>
        <time>2016-02-14T09:11:02.000Z</time>
      </trkpt>
      <trkpt lat="47.48195" lon="6.81437">
        <ele>332</ele>
        <time>2016-02-14T09:11:04.000Z</time>
      </trkpt>
      <trkpt lat="47.48193" lon="6.81436">
        <ele>332</ele>
        <time>2016-02-14T09:11:05.000Z</time>
      </trkpt>
      <trkpt lat="47.4819" lon="6.81436">
        <ele>332</ele>
        <time>2016-02-14T09:11:07.000Z</time>
      </trkpt>
      <trkpt lat="47.48188" lon="6.81436">
        <ele>333</ele>
        <time>2016-02-14T09:11:08.000Z</time>
      </trkpt>
      <trkpt lat="47.48185" lon="6.81436">
        <ele>333</ele>
        <time>2016-02-14T09:11:10.000Z</time>
      </trkpt>
      <trkpt lat="47.48183" lon="6.81436">
        <ele>333</ele>
        <time>2016-02-14T09:11:11.000Z</time>
      </trkpt>
      <trkpt lat="47.4818" lon="6.81436">
        <ele>334</ele>
        <time>2016-02-14T09:11:13.000Z</time>
      </trkpt>
      <trkpt lat="47.48178" lon="6.81435">
        <ele>334</ele>
        <time>2016-02-14T09:11:14.000Z</time>
      </trkpt>
      <trkpt lat="47.48175" lon="6.81433">
        <ele>335</ele>
        <time>2016-02-14T09:11:16.000Z</time>
      </trkpt>
      <trkpt lat="47.48173" lon="6.81433">
        <ele>335</ele>
        <time>2016-02-14T09:11:17.000Z</time>
      </trkpt>
      <trkpt lat="47.4817" lon="6.81432">
        <ele>335</ele>
        <time>2016-02-14T09:11:19.000Z</time>
      </trkpt>
      <trkpt lat="47.48169" lon="6.81432">
        <ele>336</ele>
        <time>2016-02-14T09:11:20.000Z</time>
      </trkpt>
      <trkpt lat="47.48166" lon="6.81432">
        <ele>341</ele>
        <time>2016-02-14T09:11:22.000Z</time>
      </trkpt>
      <trkpt lat="47.48164" lon="6.81432">
        <ele>341</ele>
        <time>2016-02-14T09:11:23.000Z</time>
      </trkpt>
      <trkpt lat="47.4816" lon="6.81432">
        <ele>341</ele>
        <time>2016-02-14T09:11:26.000Z</time>
      </trkpt>
      <trkpt lat="47.48159" lon="6.81432">
        <ele>341</ele>
        <time>2016-02-14T09:11:27.000Z</time>
      </trkpt>
      <trkpt lat="47.48154" lon="6.81431">
        <ele>341</ele>
        <time>2016-02-14T09:11:29.000Z</time>
      </trkpt>
      <trkpt lat="47.48152" lon="6.81431">
        <ele>341</ele>
        <time>2016-02-14T09:11:30.000Z</time>
      </trkpt>
      <trkpt lat="47.48148" lon="6.81431">
        <ele>341</ele>
        <time>2016-02-14T09:11:32.000Z</time>
      </trkpt>
      <trkpt lat="47.48145" lon="6.81431">
        <ele>341</ele>
        <time>2016-02-14T09:11:33.000Z</time>
      </trkpt>
      <trkpt lat="47.48143" lon="6.81432">
        <ele>341</ele>
        <time>2016-02-14T09:11:34.000Z</time>
      </trkpt>
      <trkpt lat="47.48141" lon="6.81432">
        <ele>342</ele>
        <time>2016-02-14T09:11:35.000Z</time>
      </trkpt>
      <trkpt lat="47.48137" lon="6.81432">
        <ele>342</ele>
        <time>2016-02-14T09:11:37.000Z</time>
      </trkpt>
      <trkpt lat="47.48135" lon="6.81431">
        <ele>342</ele>
        <time>2016-02-14T09:11:38.000Z</time>
      </trkpt>
      <trkpt lat="47.48131" lon="6.81432">
        <ele>342</ele>
        <time>2016-02-14T09:11:41.000Z</time>
      </trkpt>
      <trkpt lat="47.4813" lon="6.81432">
        <ele>342</ele>
        <time>2016-02-14T09:11:42.000Z</time>
      </trkpt>
      <trkpt lat="47.48126" lon="6.81434">
        <ele>342</ele>
        <time>2016-02-14T09:11:45.000Z</time>
      </trkpt>
      <trkpt lat="47.48125" lon="6.81434">
        <ele>342</ele>
        <time>2016-02-14T09:11:46.000Z</time>
      </trkpt>
      <trkpt lat="47.48121" lon="6.81434">
        <ele>342</ele>
        <time>2016-02-14T09:11:49.000Z</time>
      </trkpt>
      <trkpt lat="47.48119" lon="6.81434">
        <ele>343</ele>
        <time>2016-02-14T09:11:50.000Z</time>
      </trkpt>
      <trkpt lat="47.48115" lon="6.81435">
        <ele>343</ele>
        <time>2016-02-14T09:11:52.000Z</time>
      </trkpt>
      <trkpt lat="47.48113" lon="6.81435">
        <ele>343</ele>
        <time>2016-02-14T09:11:53.000Z</time>
      </trkpt>
      <trkpt lat="47.48109" lon="6.81435">
        <ele>343</ele>
        <time>2016-02-14T09:11:55.000Z</time>
      </trkpt>
      <trkpt lat="47.48108" lon="6.81435">
        <ele>343</ele>
        <time>2016-02-14T09:11:56.000Z</time>
      </trkpt>
      <trkpt lat="47.48104" lon="6.81433">
        <ele>343</ele>
        <time>2016-02-14T09:12:01.000Z</time>
      </trkpt>
      <trkpt lat="47.48102" lon="6.81433">
        <ele>344</ele>
        <time>2016-02-14T09:12:02.000Z</time>
      </trkpt>
      <trkpt lat="47.48099" lon="6.81433">
        <ele>344</ele>
        <time>2016-02-14T09:12:04.000Z</time>
      </trkpt>
      <trkpt lat="47.48097" lon="6.81433">
        <ele>344</ele>
        <time>2016-02-14T09:12:05.000Z</time>
      </trkpt>
      <trkpt lat="47.48095" lon="6.81433">
        <ele>344</ele>
        <time>2016-02-14T09:12:06.000Z</time>
      </trkpt>
      <trkpt lat="47.48092" lon="6.81433">
        <ele>344</ele>
        <time>2016-02-14T09:12:07.000Z</time>
      </trkpt>
      <trkpt lat="47.48089" lon="6.81433">
        <ele>344</ele>
        <time>2016-02-14T09:12:08.000Z</time>
      </trkpt>
      <trkpt lat="47.48086" lon="6.81433">
        <ele>344</ele>
        <time>2016-02-14T09:12:09.000Z</time>
      </trkpt>
      <trkpt lat="47.48082" lon="6.81433">
        <ele>348</ele>
        <time>2016-02-14T09:12:11.000Z</time>
      </trkpt>
      <trkpt lat="47.4808" lon="6.81433">
        <ele>348</ele>
        <time>2016-02-14T09:12:12.000Z</time>
      </trkpt>
      <trkpt lat="47.48077" lon="6.81436">
        <ele>348</ele>
        <time>2016-02-14T09:12:14.000Z</time>
      </trkpt>
      <trkpt lat="47.48076" lon="6.81439">
        <ele>349</ele>
        <time>2016-02-14T09:12:15.000Z</time>
      </trkpt>
      <trkpt lat="47.48074" lon="6.81442">
        <ele>349</ele>
        <time>2016-02-14T09:12:16.000Z</time>
      </trkpt>
      <trkpt lat="47.48072" lon="6.81445">
        <ele>349</ele>
        <time>2016-02-14T09:12:17.000Z</time>
      </trkpt>
      <trkpt lat="47.48071" lon="6.81447">
        <ele>349</ele>
        <time>2016-02-14T09:12:18.000Z</time>
      </trkpt>
      <trkpt lat="47.48067" lon="6.8145">
        <ele>349</ele>
        <time>2016-02-14T09:12:19.000Z</time>
      </trkpt>
      <trkpt lat="47.48064" lon="6.81453">
        <ele>349</ele>
        <time>2016-02-14T09:12:21.000Z</time>
      </trkpt>
      <trkpt lat="47.48063" lon="6.81453">
        <ele>349</ele>
        <time>2016-02-14T09:12:22.000Z</time>
      </trkpt>
      <trkpt lat="47.4806" lon="6.81457">
        <ele>350</ele>
        <time>2016-02-14T09:12:30.000Z</time>
      </trkpt>
      <trkpt lat="47.48059" lon="6.81458">
        <ele>350</ele>
        <time>2016-02-14T09:12:31.000Z</time>
      </trkpt>
      <trkpt lat="47.48057" lon="6.81463">
        <ele>350</ele>
        <time>2016-02-14T09:12:37.000Z</time>
      </trkpt>
      <trkpt lat="47.48057" lon="6.81465">
        <ele>350</ele>
        <time>2016-02-14T09:12:38.000Z</time>
      </trkpt>
      <trkpt lat="47.48054" lon="6.81469">
        <ele>350</ele>
        <time>2016-02-14T09:12:42.000Z</time>
      </trkpt>
      <trkpt lat="47.48053" lon="6.8147">
        <ele>350</ele>
        <time>2016-02-14T09:12:43.000Z</time>
      </trkpt>
      <trkpt lat="47.48051" lon="6.81475">
        <ele>350</ele>
        <time>2016-02-14T09:12:47.000Z</time>
      </trkpt>
      <trkpt lat="47.48052" lon="6.81477">
        <ele>350</ele>
        <time>2016-02-14T09:12:48.000Z</time>
      </trkpt>
      <trkpt lat="47.48047" lon="6.81478">
        <ele>350</ele>
        <time>2016-02-14T09:13:17.000Z</time>
      </trkpt>
      <trkpt lat="47.48047" lon="6.81479">
        <ele>351</ele>
        <time>2016-02-14T09:13:18.000Z</time>
      </trkpt>
      <trkpt lat="47.48043" lon="6.8148">
        <ele>351</ele>
        <time>2016-02-14T09:13:21.000Z</time>
      </trkpt>
      <trkpt lat="47.48041" lon="6.81479">
        <ele>351</ele>
        <time>2016-02-14T09:13:22.000Z</time>
      </trkpt>
      <trkpt lat="47.48037" lon="6.81478">
        <ele>351</ele>
        <time>2016-02-14T09:13:24.000Z</time>
      </trkpt>
      <trkpt lat="47.48035" lon="6.81478">
        <ele>351</ele>
        <time>2016-02-14T09:13:25.000Z</time>
      </trkpt>
      <trkpt lat="47.48031" lon="6.81478">
        <ele>352</ele>
        <time>2016-02-14T09:13:28.000Z</time>
      </trkpt>
      <trkpt lat="47.48029" lon="6.81479">
        <ele>352</ele>
        <time>2016-02-14T09:13:29.000Z</time>
      </trkpt>
      <trkpt lat="47.48025" lon="6.8148">
        <ele>352</ele>
        <time>2016-02-14T09:13:32.000Z</time>
      </trkpt>
      <trkpt lat="47.48024" lon="6.81481">
        <ele>352</ele>
        <time>2016-02-14T09:13:33.000Z</time>
      </trkpt>
      <trkpt lat="47.48021" lon="6.81482">
        <ele>353</ele>
        <time>2016-02-14T09:13:35.000Z</time>
      </trkpt>
      <trkpt lat="47.48019" lon="6.81483">
        <ele>353</ele>
        <time>2016-02-14T09:13:36.000Z</time>
      </trkpt>
      <trkpt lat="47.48016" lon="6.81483">
        <ele>353</ele>
        <time>2016-02-14T09:13:38.000Z</time>
      </trkpt>
      <trkpt lat="47.48015" lon="6.81483">
        <ele>353</ele>
        <time>2016-02-14T09:13:39.000Z</time>
      </trkpt>
      <trkpt lat="47.4801" lon="6.81484">
        <ele>353</ele>
        <time>2016-02-14T09:13:50.000Z</time>
      </trkpt>
      <trkpt lat="47.48009" lon="6.81484">
        <ele>354</ele>
        <time>2016-02-14T09:13:51.000Z</time>
      </trkpt>
      <trkpt lat="47.48006" lon="6.81483">
        <ele>354</ele>
        <time>2016-02-14T09:13:54.000Z</time>
      </trkpt>
      <trkpt lat="47.48004" lon="6.81483">
        <ele>354</ele>
        <time>2016-02-14T09:13:55.000Z</time>
      </trkpt>
      <trkpt lat="47.48001" lon="6.81486">
        <ele>354</ele>
        <time>2016-02-14T09:13:58.000Z</time>
      </trkpt>
      <trkpt lat="47.48" lon="6.81488">
        <ele>357</ele>
        <time>2016-02-14T09:13:59.000Z</time>
      </trkpt>
      <trkpt lat="47.47997" lon="6.81492">
        <ele>357</ele>
        <time>2016-02-14T09:14:01.000Z</time>
      </trkpt>
      <trkpt lat="47.47996" lon="6.81493">
        <ele>357</ele>
        <time>2016-02-14T09:14:02.000Z</time>
      </trkpt>
      <trkpt lat="47.47993" lon="6.81496">
        <ele>357</ele>
        <time>2016-02-14T09:14:04.000Z</time>
      </trkpt>
      <trkpt lat="47.47992" lon="6.81498">
        <ele>357</ele>
        <time>2016-02-14T09:14:05.000Z</time>
      </trkpt>
      <trkpt lat="47.47989" lon="6.81501">
        <ele>358</ele>
        <time>2016-02-14T09:14:07.000Z</time>
      </trkpt>
      <trkpt lat="47.47988" lon="6.81503">
        <ele>358</ele>
        <time>2016-02-14T09:14:08.000Z</time>
      </trkpt>
      <trkpt lat="47.47985" lon="6.81506">
        <ele>359</ele>
        <time>2016-02-14T09:14:10.000Z</time>
      </trkpt>
      <trkpt lat="47.47983" lon="6.81508">
        <ele>359</ele>
        <time>2016-02-14T09:14:11.000Z</time>
      </trkpt>
      <trkpt lat="47.47981" lon="6.81511">
        <ele>359</ele>
        <time>2016-02-14T09:14:13.000Z</time>
      </trkpt>
      <trkpt lat="47.4798" lon="6.81513">
        <ele>359</ele>
        <time>2016-02-14T09:14:14.000Z</time>
      </trkpt>
      <trkpt lat="47.47977" lon="6.81517">
        <ele>359</ele>
        <time>2016-02-14T09:14:16.000Z</time>
      </trkpt>
      <trkpt lat="47.47976" lon="6.81519">
        <ele>360</ele>
        <time>2016-02-14T09:14:17.000Z</time>
      </trkpt>
      <trkpt lat="47.47974" lon="6.81522">
        <ele>360</ele>
        <time>2016-02-14T09:14:18.000Z</time>
      </trkpt>
      <trkpt lat="47.47973" lon="6.81525">
        <ele>360</ele>
        <time>2016-02-14T09:14:19.000Z</time>
      </trkpt>
      <trkpt lat="47.47971" lon="6.81528">
        <ele>360</ele>
        <time>2016-02-14T09:14:20.000Z</time>
      </trkpt>
      <trkpt lat="47.47969" lon="6.81531">
        <ele>360</ele>
        <time>2016-02-14T09:14:21.000Z</time>
      </trkpt>
      <trkpt lat="47.47967" lon="6.81534">
        <ele>360</ele>
        <time>2016-02-14T09:14:22.000Z</time>
      </trkpt>
      <trkpt lat="47.47965" lon="6.81537">
        <ele>360</ele>
        <time>2016-02-14T09:14:23.000Z</time>
      </trkpt>
      <trkpt lat="47.47963" lon="6.81541">
        <ele>360</ele>
        <time>2016-02-14T09:14:24.000Z</time>
      </trkpt>
      <trkpt lat="47.47962" lon="6.81545">
        <ele>360</ele>
        <time>2016-02-14T09:14:25.000Z</time>
      </trkpt>
      <trkpt lat="47.47961" lon="6.8155">
        <ele>360</ele>
        <time>2016-02-14T09:14:26.000Z</time>
      </trkpt>
      <trkpt lat="47.47959" lon="6.81555">
        <ele>361</ele>
        <time>2016-02-14T09:14:27.000Z</time>
      </trkpt>
      <trkpt lat="47.47958" lon="6.81561">
        <ele>361</ele>
        <time>2016-02-14T09:14:28.000Z</time>
      </trkpt>
      <trkpt lat="47.47957" lon="6.81566">
        <ele>361</ele>
        <time>2016-02-14T09:14:29.000Z</time>
      </trkpt>
      <trkpt lat="47.47955" lon="6.81572">
        <ele>361</ele>
        <time>2016-02-14T09:14:30.000Z</time>
      </trkpt>
      <trkpt lat="47.47953" lon="6.81577">
        <ele>361</ele>
        <time>2016-02-14T09:14:31.000Z</time>
      </trkpt>
      <trkpt lat="47.47951" lon="6.81582">
        <ele>361</ele>
        <time>2016-02-14T09:14:32.000Z</time>
      </trkpt>
      <trkpt lat="47.4795" lon="6.81587">
        <ele>360</ele>
        <time>2016-02-14T09:14:33.000Z</time>
      </trkpt>
      <trkpt lat="47.47947" lon="6.81591">
        <ele>360</ele>
        <time>2016-02-14T09:14:34.000Z</time>
      </trkpt>
      <trkpt lat="47.47945" lon="6.81595">
        <ele>360</ele>
        <time>2016-02-14T09:14:35.000Z</time>
      </trkpt>
      <trkpt lat="47.47943" lon="6.81599">
        <ele>360</ele>
        <time>2016-02-14T09:14:36.000Z</time>
      </trkpt>
      <trkpt lat="47.47941" lon="6.81602">
        <ele>360</ele>
        <time>2016-02-14T09:14:37.000Z</time>
      </trkpt>
      <trkpt lat="47.4794" lon="6.81605">
        <ele>360</ele>
        <time>2016-02-14T09:14:38.000Z</time>
      </trkpt>
      <trkpt lat="47.47938" lon="6.81608">
        <ele>360</ele>
        <time>2016-02-14T09:14:39.000Z</time>
      </trkpt>
      <trkpt lat="47.47937" lon="6.81611">
        <ele>360</ele>
        <time>2016-02-14T09:14:40.000Z</time>
      </trkpt>
      <trkpt lat="47.47936" lon="6.81614">
        <ele>360</ele>
        <time>2016-02-14T09:14:41.000Z</time>
      </trkpt>
      <trkpt lat="47.47933" lon="6.81619">
        <ele>360</ele>
        <time>2016-02-14T09:14:43.000Z</time>
      </trkpt>
      <trkpt lat="47.47932" lon="6.81622">
        <ele>359</ele>
        <time>2016-02-14T09:14:44.000Z</time>
      </trkpt>
      <trkpt lat="47.4793" lon="6.81627">
        <ele>359</ele>
        <time>2016-02-14T09:14:46.000Z</time>
      </trkpt>
      <trkpt lat="47.47929" lon="6.81629">
        <ele>359</ele>
        <time>2016-02-14T09:14:47.000Z</time>
      </trkpt>
      <trkpt lat="47.47926" lon="6.81634">
        <ele>359</ele>
        <time>2016-02-14T09:14:49.000Z</time>
      </trkpt>
      <trkpt lat="47.47925" lon="6.81637">
        <ele>359</ele>
        <time>2016-02-14T09:14:50.000Z</time>
      </trkpt>
      <trkpt lat="47.47924" lon="6.81641">
        <ele>359</ele>
        <time>2016-02-14T09:14:51.000Z</time>
      </trkpt>
      <trkpt lat="47.47922" lon="6.81643">
        <ele>358</ele>
        <time>2016-02-14T09:14:52.000Z</time>
      </trkpt>
      <trkpt lat="47.47921" lon="6.81646">
        <ele>358</ele>
        <time>2016-02-14T09:14:53.000Z</time>
      </trkpt>
      <trkpt lat="47.4792" lon="6.81649">
        <ele>358</ele>
        <time>2016-02-14T09:14:54.000Z</time>
      </trkpt>
      <trkpt lat="47.47918" lon="6.81652">
        <ele>358</ele>
        <time>2016-02-14T09:14:55.000Z</time>
      </trkpt>
      <trkpt lat="47.47916" lon="6.81656">
        <ele>359</ele>
        <time>2016-02-14T09:14:56.000Z</time>
      </trkpt>
      <trkpt lat="47.47915" lon="6.81659">
        <ele>359</ele>
        <time>2016-02-14T09:14:57.000Z</time>
      </trkpt>
      <trkpt lat="47.47913" lon="6.81663">
        <ele>358</ele>
        <time>2016-02-14T09:14:58.000Z</time>
      </trkpt>
      <trkpt lat="47.47912" lon="6.81666">
        <ele>358</ele>
        <time>2016-02-14T09:14:59.000Z</time>
      </trkpt>
      <trkpt lat="47.4791" lon="6.81669">
        <ele>357</ele>
        <time>2016-02-14T09:15:00.000Z</time>
      </trkpt>
      <trkpt lat="47.4791" lon="6.81674">
        <ele>357</ele>
        <time>2016-02-14T09:15:02.000Z</time>
      </trkpt>
      <trkpt lat="47.4791" lon="6.81677">
        <ele>357</ele>
        <time>2016-02-14T09:15:03.000Z</time>
      </trkpt>
      <trkpt lat="47.4791" lon="6.81681">
        <ele>357</ele>
        <time>2016-02-14T09:15:04.000Z</time>
      </trkpt>
      <trkpt lat="47.47909" lon="6.81684">
        <ele>357</ele>
        <time>2016-02-14T09:15:05.000Z</time>
      </trkpt>
      <trkpt lat="47.47907" lon="6.81687">
        <ele>357</ele>
        <time>2016-02-14T09:15:06.000Z</time>
      </trkpt>
      <trkpt lat="47.47906" lon="6.8169">
        <ele>357</ele>
        <time>2016-02-14T09:15:07.000Z</time>
      </trkpt>
      <trkpt lat="47.47903" lon="6.81696">
        <ele>357</ele>
        <time>2016-02-14T09:15:09.000Z</time>
      </trkpt>
      <trkpt lat="47.47903" lon="6.81698">
        <ele>357</ele>
        <time>2016-02-14T09:15:10.000Z</time>
      </trkpt>
      <trkpt lat="47.47902" lon="6.81704">
        <ele>357</ele>
        <time>2016-02-14T09:15:13.000Z</time>
      </trkpt>
      <trkpt lat="47.47902" lon="6.81706">
        <ele>357</ele>
        <time>2016-02-14T09:15:14.000Z</time>
      </trkpt>
      <trkpt lat="47.47903" lon="6.8171">
        <ele>357</ele>
        <time>2016-02-14T09:15:18.000Z</time>
      </trkpt>
      <trkpt lat="47.47903" lon="6.81712">
        <ele>357</ele>
        <time>2016-02-14T09:15:19.000Z</time>
      </trkpt>
      <trkpt lat="47.47902" lon="6.81718">
        <ele>357</ele>
        <time>2016-02-14T09:15:21.000Z</time>
      </trkpt>
      <trkpt lat="47.47901" lon="6.81722">
        <ele>356</ele>
        <time>2016-02-14T09:15:22.000Z</time>
      </trkpt>
      <trkpt lat="47.47901" lon="6.81725">
        <ele>356</ele>
        <time>2016-02-14T09:15:23.000Z</time>
      </trkpt>
      <trkpt lat="47.47902" lon="6.81729">
        <ele>356</ele>
        <time>2016-02-14T09:15:24.000Z</time>
      </trkpt>
      <trkpt lat="47.47902" lon="6.81734">
        <ele>356</ele>
        <time>2016-02-14T09:15:26.000Z</time>
      </trkpt>
      <trkpt lat="47.47901" lon="6.81737">
        <ele>356</ele>
        <time>2016-02-14T09:15:27.000Z</time>
      </trkpt>
      <trkpt lat="47.479" lon="6.81741">
        <ele>356</ele>
        <time>2016-02-14T09:15:29.000Z</time>
      </trkpt>
      <trkpt lat="47.479" lon="6.81744">
        <ele>356</ele>
        <time>2016-02-14T09:15:30.000Z</time>
      </trkpt>
      <trkpt lat="47.47901" lon="6.81749">
        <ele>356</ele>
        <time>2016-02-14T09:15:32.000Z</time>
      </trkpt>
      <trkpt lat="47.479" lon="6.81751">
        <ele>355</ele>
        <time>2016-02-14T09:15:33.000Z</time>
      </trkpt>
      <trkpt lat="47.479" lon="6.81756">
        <ele>355</ele>
        <time>2016-02-14T09:15:35.000Z</time>
      </trkpt>
      <trkpt lat="47.479" lon="6.81758">
        <ele>355</ele>
        <time>2016-02-14T09:15:36.000Z</time>
      </trkpt>
      <trkpt lat="47.47901" lon="6.81762">
        <ele>355</ele>
        <time>2016-02-14T09:15:38.000Z</time>
      </trkpt>
      <trkpt lat="47.47901" lon="6.81764">
        <ele>355</ele>
        <time>2016-02-14T09:15:39.000Z</time>
      </trkpt>
      <trkpt lat="47.47901" lon="6.81768">
        <ele>355</ele>
        <time>2016-02-14T09:15:40.000Z</time>
      </trkpt>
      <trkpt lat="47.47901" lon="6.81771">
        <ele>355</ele>
        <time>2016-02-14T09:15:41.000Z</time>
      </trkpt>
      <trkpt lat="47.479" lon="6.81776">
        <ele>355</ele>
        <time>2016-02-14T09:15:43.000Z</time>
      </trkpt>
      <trkpt lat="47.47899" lon="6.81777">
        <ele>355</ele>
        <time>2016-02-14T09:15:44.000Z</time>
      </trkpt>
      <trkpt lat="47.47895" lon="6.8178">
        <ele>354</ele>
        <time>2016-02-14T09:15:46.000Z</time>
      </trkpt>
      <trkpt lat="47.47893" lon="6.81782">
        <ele>354</ele>
        <time>2016-02-14T09:15:47.000Z</time>
      </trkpt>
      <trkpt lat="47.47891" lon="6.81786">
        <ele>354</ele>
        <time>2016-02-14T09:15:49.000Z</time>
      </trkpt>
      <trkpt lat="47.4789" lon="6.81789">
        <ele>354</ele>
        <time>2016-02-14T09:15:50.000Z</time>
      </trkpt>
      <trkpt lat="47.47889" lon="6.81794">
        <ele>354</ele>
        <time>2016-02-14T09:15:52.000Z</time>
      </trkpt>
      <trkpt lat="47.47889" lon="6.81797">
        <ele>354</ele>
        <time>2016-02-14T09:15:53.000Z</time>
      </trkpt>
      <trkpt lat="47.47888" lon="6.81803">
        <ele>355</ele>
        <time>2016-02-14T09:15:55.000Z</time>
      </trkpt>
      <trkpt lat="47.47888" lon="6.81807">
        <ele>355</ele>
        <time>2016-02-14T09:15:56.000Z</time>
      </trkpt>
      <trkpt lat="47.47887" lon="6.8181">
        <ele>355</ele>
        <time>2016-02-14T09:15:57.000Z</time>
      </trkpt>
      <trkpt lat="47.47887" lon="6.81813">
        <ele>355</ele>
        <time>2016-02-14T09:15:58.000Z</time>
      </trkpt>
      <trkpt lat="47.47887" lon="6.81817">
        <ele>355</ele>
        <time>2016-02-14T09:15:59.000Z</time>
      </trkpt>
      <trkpt lat="47.47886" lon="6.81821">
        <ele>355</ele>
        <time>2016-02-14T09:16:00.000Z</time>
      </trkpt>
      <trkpt lat="47.47886" lon="6.81824">
        <ele>355</ele>
        <time>2016-02-14T09:16:01.000Z</time>
      </trkpt>
      <trkpt lat="47.47886" lon="6.81827">
        <ele>355</ele>
        <time>2016-02-14T09:16:02.000Z</time>
      </trkpt>
      <trkpt lat="47.47887" lon="6.81833">
        <ele>355</ele>
        <time>2016-02-14T09:16:04.000Z</time>
      </trkpt>
      <trkpt lat="47.47887" lon="6.81836">
        <ele>356</ele>
        <time>2016-02-14T09:16:05.000Z</time>
      </trkpt>
      <trkpt lat="47.47888" lon="6.81839">
        <ele>356</ele>
        <time>2016-02-14T09:16:06.000Z</time>
      </trkpt>
      <trkpt lat="47.47888" lon="6.81842">
        <ele>356</ele>
        <time>2016-02-14T09:16:07.000Z</time>
      </trkpt>
      <trkpt lat="47.47889" lon="6.81846">
        <ele>357</ele>
        <time>2016-02-14T09:16:08.000Z</time>
      </trkpt>
      <trkpt lat="47.47889" lon="6.8185">
        <ele>357</ele>
        <time>2016-02-14T09:16:09.000Z</time>
      </trkpt>
      <trkpt lat="47.4789" lon="6.81854">
        <ele>357</ele>
        <time>2016-02-14T09:16:10.000Z</time>
      </trkpt>
      <trkpt lat="47.4789" lon="6.81858">
        <ele>357</ele>
        <time>2016-02-14T09:16:11.000Z</time>
      </trkpt>
      <trkpt lat="47.47891" lon="6.81862">
        <ele>357</ele>
        <time>2016-02-14T09:16:12.000Z</time>
      </trkpt>
      <trkpt lat="47.47891" lon="6.81866">
        <ele>357</ele>
        <time>2016-02-14T09:16:13.000Z</time>
      </trkpt>
      <trkpt lat="47.47892" lon="6.8187">
        <ele>357</ele>
        <time>2016-02-14T09:16:14.000Z</time>
      </trkpt>
      <trkpt lat="47.47892" lon="6.81874">
        <ele>357</ele>
        <time>2016-02-14T09:16:15.000Z</time>
      </trkpt>
      <trkpt lat="47.47892" lon="6.81877">
        <ele>357</ele>
        <time>2016-02-14T09:16:16.000Z</time>
      </trkpt>
      <trkpt lat="47.47892" lon="6.81881">
        <ele>357</ele>
        <time>2016-02-14T09:16:17.000Z</time>
      </trkpt>
      <trkpt lat="47.47893" lon="6.81885">
        <ele>357</ele>
        <time>2016-02-14T09:16:18.000Z</time>
      </trkpt>
      <trkpt lat="47.47893" lon="6.81889">
        <ele>358</ele>
        <time>2016-02-14T09:16:19.000Z</time>
      </trkpt>
      <trkpt lat="47.47893" lon="6.81893">
        <ele>358</ele>
        <time>2016-02-14T09:16:20.000Z</time>
      </trkpt>
      <trkpt lat="47.47893" lon="6.81897">
        <ele>358</ele>
        <time>2016-02-14T09:16:21.000Z</time>
      </trkpt>
      <trkpt lat="47.47893" lon="6.81901">
        <ele>358</ele>
        <time>2016-02-14T09:16:22.000Z</time>
      </trkpt>
      <trkpt lat="47.47894" lon="6.81905">
        <ele>358</ele>
        <time>2016-02-14T09:16:23.000Z</time>
      </trkpt>
      <trkpt lat="47.47894" lon="6.81909">
        <ele>358</ele>
        <time>2016-02-14T09:16:24.000Z</time>
      </trkpt>
      <trkpt lat="47.47894" lon="6.81913">
        <ele>358</ele>
        <time>2016-02-14T09:16:25.000Z</time>
      </trkpt>
      <trkpt lat="47.47895" lon="6.81916">
        <ele>358</ele>
        <time>2016-02-14T09:16:26.000Z</time>
      </trkpt>
      <trkpt lat="47.47895" lon="6.8192">
        <ele>360</ele>
        <time>2016-02-14T09:16:27.000Z</time>
      </trkpt>
      <trkpt lat="47.47896" lon="6.81923">
        <ele>360</ele>
        <time>2016-02-14T09:16:28.000Z</time>
      </trkpt>
      <trkpt lat="47.47897" lon="6.81927">
        <ele>360</ele>
        <time>2016-02-14T09:16:29.000Z</time>
      </trkpt>
      <trkpt lat="47.47898" lon="6.81931">
        <ele>360</ele>
        <time>2016-02-14T09:16:30.000Z</time>
      </trkpt>
      <trkpt lat="47.47899" lon="6.81934">
        <ele>360</ele>
        <time>2016-02-14T09:16:31.000Z</time>
      </trkpt>
      <trkpt lat="47.47899" lon="6.81939">
        <ele>360</ele>
        <time>2016-02-14T09:16:33.000Z</time>
      </trkpt>
      <trkpt lat="47.47899" lon="6.81942">
        <ele>360</ele>
        <time>2016-02-14T09:16:34.000Z</time>
      </trkpt>
      <trkpt lat="47.479" lon="6.81947">
        <ele>360</ele>
        <time>2016-02-14T09:16:36.000Z</time>
      </trkpt>
      <trkpt lat="47.47901" lon="6.8195">
        <ele>360</ele>
        <time>2016-02-14T09:16:37.000Z</time>
      </trkpt>
      <trkpt lat="47.47903" lon="6.81954">
        <ele>360</ele>
        <time>2016-02-14T09:16:39.000Z</time>
      </trkpt>
      <trkpt lat="47.47904" lon="6.81957">
        <ele>360</ele>
        <time>2016-02-14T09:16:40.000Z</time>
      </trkpt>
      <trkpt lat="47.47906" lon="6.81961">
        <ele>360</ele>
        <time>2016-02-14T09:16:42.000Z</time>
      </trkpt>
      <trkpt lat="47.47907" lon="6.81963">
        <ele>360</ele>
        <time>2016-02-14T09:16:43.000Z</time>
      </trkpt>
      <trkpt lat="47.4791" lon="6.81968">
        <ele>360</ele>
        <time>2016-02-14T09:16:45.000Z</time>
      </trkpt>
      <trkpt lat="47.47911" lon="6.8197">
        <ele>360</ele>
        <time>2016-02-14T09:16:46.000Z</time>
      </trkpt>
      <trkpt lat="47.47913" lon="6.81974">
        <ele>360</ele>
        <time>2016-02-14T09:16:48.000Z</time>
      </trkpt>
      <trkpt lat="47.47914" lon="6.81976">
        <ele>360</ele>
        <time>2016-02-14T09:16:49.000Z</time>
      </trkpt>
      <trkpt lat="47.47917" lon="6.81981">
        <ele>360</ele>
        <time>2016-02-14T09:16:52.000Z</time>
      </trkpt>
      <trkpt lat="47.47918" lon="6.81982">
        <ele>357</ele>
        <time>2016-02-14T09:16:53.000Z</time>
      </trkpt>
      <trkpt lat="47.47921" lon="6.81985">
        <ele>357</ele>
        <time>2016-02-14T09:16:55.000Z</time>
      </trkpt>
      <trkpt lat="47.47922" lon="6.81987">
        <ele>357</ele>
        <time>2016-02-14T09:16:56.000Z</time>
      </trkpt>
      <trkpt lat="47.47924" lon="6.81992">
        <ele>357</ele>
        <time>2016-02-14T09:16:59.000Z</time>
      </trkpt>
      <trkpt lat="47.47924" lon="6.81995">
        <ele>357</ele>
        <time>2016-02-14T09:17:00.000Z</time>
      </trkpt>
      <trkpt lat="47.47925" lon="6.82001">
        <ele>358</ele>
        <time>2016-02-14T09:17:02.000Z</time>
      </trkpt>
      <trkpt lat="47.47925" lon="6.82005">
        <ele>358</ele>
        <time>2016-02-14T09:17:03.000Z</time>
      </trkpt>
      <trkpt lat="47.47925" lon="6.82009">
        <ele>358</ele>
        <time>2016-02-14T09:17:04.000Z</time>
      </trkpt>
      <trkpt lat="47.47926" lon="6.82014">
        <ele>358</ele>
        <time>2016-02-14T09:17:05.000Z</time>
      </trkpt>
      <trkpt lat="47.47927" lon="6.82018">
        <ele>358</ele>
        <time>2016-02-14T09:17:06.000Z</time>
      </trkpt>
      <trkpt lat="47.47928" lon="6.82021">
        <ele>358</ele>
        <time>2016-02-14T09:17:07.000Z</time>
      </trkpt>
      <trkpt lat="47.4793" lon="6.82027">
        <ele>359</ele>
        <time>2016-02-14T09:17:09.000Z</time>
      </trkpt>
      <trkpt lat="47.4793" lon="6.8203">
        <ele>359</ele>
        <time>2016-02-14T09:17:10.000Z</time>
      </trkpt>
      <trkpt lat="47.47932" lon="6.82036">
        <ele>359</ele>
        <time>2016-02-14T09:17:12.000Z</time>
      </trkpt>
      <trkpt lat="47.47933" lon="6.82039">
        <ele>359</ele>
        <time>2016-02-14T09:17:13.000Z</time>
      </trkpt>
      <trkpt lat="47.47934" lon="6.82043">
        <ele>359</ele>
        <time>2016-02-14T09:17:14.000Z</time>
      </trkpt>
      <trkpt lat="47.47934" lon="6.82046">
        <ele>359</ele>
        <time>2016-02-14T09:17:15.000Z</time>
      </trkpt>
      <trkpt lat="47.47935" lon="6.8205">
        <ele>359</ele>
        <time>2016-02-14T09:17:16.000Z</time>
      </trkpt>
      <trkpt lat="47.47936" lon="6.82055">
        <ele>359</ele>
        <time>2016-02-14T09:17:17.000Z</time>
      </trkpt>
      <trkpt lat="47.47936" lon="6.82058">
        <ele>359</ele>
        <time>2016-02-14T09:17:18.000Z</time>
      </trkpt>
      <trkpt lat="47.47937" lon="6.82062">
        <ele>360</ele>
        <time>2016-02-14T09:17:19.000Z</time>
      </trkpt>
      <trkpt lat="47.47937" lon="6.82067">
        <ele>360</ele>
        <time>2016-02-14T09:17:20.000Z</time>
      </trkpt>
      <trkpt lat="47.47937" lon="6.82071">
        <ele>360</ele>
        <time>2016-02-14T09:17:21.000Z</time>
      </trkpt>
      <trkpt lat="47.47937" lon="6.82075">
        <ele>360</ele>
        <time>2016-02-14T09:17:22.000Z</time>
      </trkpt>
      <trkpt lat="47.47936" lon="6.8208">
        <ele>360</ele>
        <time>2016-02-14T09:17:23.000Z</time>
      </trkpt>
      <trkpt lat="47.47936" lon="6.82084">
        <ele>361</ele>
        <time>2016-02-14T09:17:24.000Z</time>
      </trkpt>
      <trkpt lat="47.47937" lon="6.82089">
        <ele>361</ele>
        <time>2016-02-14T09:17:25.000Z</time>
      </trkpt>
      <trkpt lat="47.47937" lon="6.82093">
        <ele>361</ele>
        <time>2016-02-14T09:17:26.000Z</time>
      </trkpt>
      <trkpt lat="47.47937" lon="6.82097">
        <ele>361</ele>
        <time>2016-02-14T09:17:27.000Z</time>
      </trkpt>
      <trkpt lat="47.47937" lon="6.821">
        <ele>361</ele>
        <time>2016-02-14T09:17:28.000Z</time>
      </trkpt>
      <trkpt lat="47.47936" lon="6.82103">
        <ele>361</ele>
        <time>2016-02-14T09:17:29.000Z</time>
      </trkpt>
      <trkpt lat="47.47935" lon="6.82109">
        <ele>361</ele>
        <time>2016-02-14T09:17:31.000Z</time>
      </trkpt>
      <trkpt lat="47.47934" lon="6.82111">
        <ele>361</ele>
        <time>2016-02-14T09:17:32.000Z</time>
      </trkpt>
      <trkpt lat="47.47932" lon="6.82116">
        <ele>361</ele>
        <time>2016-02-14T09:17:34.000Z</time>
      </trkpt>
      <trkpt lat="47.47931" lon="6.82119">
        <ele>361</ele>
        <time>2016-02-14T09:17:35.000Z</time>
      </trkpt>
      <trkpt lat="47.47928" lon="6.82123">
        <ele>361</ele>
        <time>2016-02-14T09:17:37.000Z</time>
      </trkpt>
      <trkpt lat="47.47926" lon="6.82125">
        <ele>361</ele>
        <time>2016-02-14T09:17:38.000Z</time>
      </trkpt>
      <trkpt lat="47.47923" lon="6.82129">
        <ele>361</ele>
        <time>2016-02-14T09:17:40.000Z</time>
      </trkpt>
      <trkpt lat="47.47921" lon="6.82131">
        <ele>361</ele>
        <time>2016-02-14T09:17:41.000Z</time>
      </trkpt>
      <trkpt lat="47.4792" lon="6.82133">
        <ele>361</ele>
        <time>2016-02-14T09:17:42.000Z</time>
      </trkpt>
      <trkpt lat="47.47917" lon="6.82135">
        <ele>361</ele>
        <time>2016-02-14T09:17:43.000Z</time>
      </trkpt>
      <trkpt lat="47.47914" lon="6.82137">
        <ele>362</ele>
        <time>2016-02-14T09:17:44.000Z</time>
      </trkpt>
      <trkpt lat="47.47911" lon="6.82139">
        <ele>362</ele>
        <time>2016-02-14T09:17:45.000Z</time>
      </trkpt>
      <trkpt lat="47.47907" lon="6.82142">
        <ele>362</ele>
        <time>2016-02-14T09:17:46.000Z</time>
      </trkpt>
      <trkpt lat="47.47903" lon="6.82145">
        <ele>362</ele>
        <time>2016-02-14T09:17:47.000Z</time>
      </trkpt>
      <trkpt lat="47.47898" lon="6.82148">
        <ele>362</ele>
        <time>2016-02-14T09:17:48.000Z</time>
      </trkpt>
      <trkpt lat="47.47894" lon="6.82151">
        <ele>362</ele>
        <time>2016-02-14T09:17:49.000Z</time>
      </trkpt>
      <trkpt lat="47.47891" lon="6.82152">
        <ele>362</ele>
        <time>2016-02-14T09:17:50.000Z</time>
      </trkpt>
      <trkpt lat="47.47887" lon="6.82154">
        <ele>362</ele>
        <time>2016-02-14T09:17:52.000Z</time>
      </trkpt>
      <trkpt lat="47.47885" lon="6.82154">
        <ele>362</ele>
        <time>2016-02-14T09:17:53.000Z</time>
      </trkpt>
      <trkpt lat="47.47882" lon="6.82154">
        <ele>362</ele>
        <time>2016-02-14T09:17:55.000Z</time>
      </trkpt>
      <trkpt lat="47.47881" lon="6.82153">
        <ele>362</ele>
        <time>2016-02-14T09:17:56.000Z</time>
      </trkpt>
      <trkpt lat="47.47876" lon="6.82153">
        <ele>362</ele>
        <time>2016-02-14T09:17:58.000Z</time>
      </trkpt>
      <trkpt lat="47.47874" lon="6.82152">
        <ele>362</ele>
        <time>2016-02-14T09:17:59.000Z</time>
      </trkpt>
      <trkpt lat="47.47871" lon="6.82152">
        <ele>362</ele>
        <time>2016-02-14T09:18:00.000Z</time>
      </trkpt>
      <trkpt lat="47.47868" lon="6.82152">
        <ele>362</ele>
        <time>2016-02-14T09:18:01.000Z</time>
      </trkpt>
      <trkpt lat="47.47864" lon="6.82152">
        <ele>362</ele>
        <time>2016-02-14T09:18:03.000Z</time>
      </trkpt>
      <trkpt lat="47.47863" lon="6.82151">
        <ele>362</ele>
        <time>2016-02-14T09:18:04.000Z</time>
      </trkpt>
      <trkpt lat="47.47859" lon="6.8215">
        <ele>362</ele>
        <time>2016-02-14T09:18:07.000Z</time>
      </trkpt>
      <trkpt lat="47.47857" lon="6.8215">
        <ele>362</ele>
        <time>2016-02-14T09:18:08.000Z</time>
      </trkpt>
      <trkpt lat="47.47854" lon="6.82151">
        <ele>362</ele>
        <time>2016-02-14T09:18:10.000Z</time>
      </trkpt>
      <trkpt lat="47.47852" lon="6.82151">
        <ele>362</ele>
        <time>2016-02-14T09:18:11.000Z</time>
      </trkpt>
      <trkpt lat="47.47848" lon="6.82152">
        <ele>362</ele>
        <time>2016-02-14T09:18:13.000Z</time>
      </trkpt>
      <trkpt lat="47.47846" lon="6.82152">
        <ele>362</ele>
        <time>2016-02-14T09:18:14.000Z</time>
      </trkpt>
      <trkpt lat="47.47843" lon="6.82153">
        <ele>362</ele>
        <time>2016-02-14T09:18:15.000Z</time>
      </trkpt>
      <trkpt lat="47.47841" lon="6.82153">
        <ele>362</ele>
        <time>2016-02-14T09:18:16.000Z</time>
      </trkpt>
      <trkpt lat="47.47837" lon="6.82153">
        <ele>362</ele>
        <time>2016-02-14T09:18:18.000Z</time>
      </trkpt>
      <trkpt lat="47.47835" lon="6.82153">
        <ele>362</ele>
        <time>2016-02-14T09:18:19.000Z</time>
      </trkpt>
      <trkpt lat="47.4783" lon="6.82154">
        <ele>365</ele>
        <time>2016-02-14T09:18:21.000Z</time>
      </trkpt>
      <trkpt lat="47.47828" lon="6.82154">
        <ele>365</ele>
        <time>2016-02-14T09:18:22.000Z</time>
      </trkpt>
      <trkpt lat="47.47824" lon="6.82153">
        <ele>365</ele>
        <time>2016-02-14T09:18:24.000Z</time>
      </trkpt>
      <trkpt lat="47.47823" lon="6.82152">
        <ele>366</ele>
        <time>2016-02-14T09:18:25.000Z</time>
      </trkpt>
      <trkpt lat="47.4782" lon="6.8215">
        <ele>366</ele>
        <time>2016-02-14T09:18:29.000Z</time>
      </trkpt>
      <trkpt lat="47.47819" lon="6.8215">
        <ele>366</ele>
        <time>2016-02-14T09:18:30.000Z</time>
      </trkpt>
      <trkpt lat="47.47814" lon="6.82148">
        <ele>367</ele>
        <time>2016-02-14T09:18:33.000Z</time>
      </trkpt>
      <trkpt lat="47.47813" lon="6.82147">
        <ele>367</ele>
        <time>2016-02-14T09:18:34.000Z</time>
      </trkpt>
      <trkpt lat="47.4781" lon="6.82145">
        <ele>367</ele>
        <time>2016-02-14T09:18:40.000Z</time>
      </trkpt>
      <trkpt lat="47.47809" lon="6.82144">
        <ele>368</ele>
        <time>2016-02-14T09:18:41.000Z</time>
      </trkpt>
      <trkpt lat="47.47806" lon="6.82142">
        <ele>368</ele>
        <time>2016-02-14T09:18:44.000Z</time>
      </trkpt>
      <trkpt lat="47.47805" lon="6.82142">
        <ele>368</ele>
        <time>2016-02-14T09:18:45.000Z</time>
      </trkpt>
      <trkpt lat="47.47801" lon="6.82142">
        <ele>368</ele>
        <time>2016-02-14T09:18:48.000Z</time>
      </trkpt>
      <trkpt lat="47.47799" lon="6.82142">
        <ele>368</ele>
        <time>2016-02-14T09:18:49.000Z</time>
      </trkpt>
      <trkpt lat="47.47796" lon="6.8214">
        <ele>369</ele>
        <time>2016-02-14T09:18:52.000Z</time>
      </trkpt>
      <trkpt lat="47.47795" lon="6.82139">
        <ele>369</ele>
        <time>2016-02-14T09:18:53.000Z</time>
      </trkpt>
      <trkpt lat="47.47791" lon="6.82136">
        <ele>369</ele>
        <time>2016-02-14T09:18:56.000Z</time>
      </trkpt>
      <trkpt lat="47.4779" lon="6.82136">
        <ele>369</ele>
        <time>2016-02-14T09:18:57.000Z</time>
      </trkpt>
      <trkpt lat="47.47787" lon="6.82135">
        <ele>369</ele>
        <time>2016-02-14T09:18:59.000Z</time>
      </trkpt>
      <trkpt lat="47.47785" lon="6.82135">
        <ele>370</ele>
        <time>2016-02-14T09:19:00.000Z</time>
      </trkpt>
      <trkpt lat="47.47782" lon="6.82135">
        <ele>370</ele>
        <time>2016-02-14T09:19:02.000Z</time>
      </trkpt>
      <trkpt lat="47.4778" lon="6.82135">
        <ele>370</ele>
        <time>2016-02-14T09:19:03.000Z</time>
      </trkpt>
      <trkpt lat="47.47777" lon="6.82136">
        <ele>370</ele>
        <time>2016-02-14T09:19:05.000Z</time>
      </trkpt>
      <trkpt lat="47.47775" lon="6.82137">
        <ele>370</ele>
        <time>2016-02-14T09:19:06.000Z</time>
      </trkpt>
      <trkpt lat="47.47772" lon="6.82138">
        <ele>370</ele>
        <time>2016-02-14T09:19:08.000Z</time>
      </trkpt>
      <trkpt lat="47.4777" lon="6.82139">
        <ele>371</ele>
        <time>2016-02-14T09:19:09.000Z</time>
      </trkpt>
      <trkpt lat="47.47766" lon="6.8214">
        <ele>371</ele>
        <time>2016-02-14T09:19:11.000Z</time>
      </trkpt>
      <trkpt lat="47.47764" lon="6.8214">
        <ele>371</ele>
        <time>2016-02-14T09:19:12.000Z</time>
      </trkpt>
      <trkpt lat="47.47759" lon="6.82141">
        <ele>371</ele>
        <time>2016-02-14T09:19:16.000Z</time>
      </trkpt>
      <trkpt lat="47.47758" lon="6.82142">
        <ele>371</ele>
        <time>2016-02-14T09:19:17.000Z</time>
      </trkpt>
      <trkpt lat="47.47755" lon="6.82143">
        <ele>371</ele>
        <time>2016-02-14T09:19:20.000Z</time>
      </trkpt>
      <trkpt lat="47.47753" lon="6.82143">
        <ele>371</ele>
        <time>2016-02-14T09:19:21.000Z</time>
      </trkpt>
      <trkpt lat="47.4775" lon="6.82142">
        <ele>375</ele>
        <time>2016-02-14T09:19:24.000Z</time>
      </trkpt>
      <trkpt lat="47.47748" lon="6.82141">
        <ele>375</ele>
        <time>2016-02-14T09:19:25.000Z</time>
      </trkpt>
      <trkpt lat="47.47744" lon="6.82139">
        <ele>376</ele>
        <time>2016-02-14T09:19:28.000Z</time>
      </trkpt>
      <trkpt lat="47.47743" lon="6.82138">
        <ele>376</ele>
        <time>2016-02-14T09:19:29.000Z</time>
      </trkpt>
      <trkpt lat="47.4774" lon="6.82138">
        <ele>376</ele>
        <time>2016-02-14T09:19:33.000Z</time>
      </trkpt>
      <trkpt lat="47.47738" lon="6.82137">
        <ele>376</ele>
        <time>2016-02-14T09:19:34.000Z</time>
      </trkpt>
      <trkpt lat="47.47735" lon="6.82136">
        <ele>376</ele>
        <time>2016-02-14T09:19:36.000Z</time>
      </trkpt>
      <trkpt lat="47.47733" lon="6.82136">
        <ele>376</ele>
        <time>2016-02-14T09:19:37.000Z</time>
      </trkpt>
      <trkpt lat="47.4773" lon="6.82134">
        <ele>376</ele>
        <time>2016-02-14T09:19:39.000Z</time>
      </trkpt>
      <trkpt lat="47.47727" lon="6.82133">
        <ele>376</ele>
        <time>2016-02-14T09:19:40.000Z</time>
      </trkpt>
      <trkpt lat="47.47723" lon="6.82132">
        <ele>376</ele>
        <time>2016-02-14T09:19:42.000Z</time>
      </trkpt>
      <trkpt lat="47.47721" lon="6.82131">
        <ele>376</ele>
        <time>2016-02-14T09:19:43.000Z</time>
      </trkpt>
      <trkpt lat="47.47718" lon="6.82129">
        <ele>376</ele>
        <time>2016-02-14T09:19:45.000Z</time>
      </trkpt>
      <trkpt lat="47.47717" lon="6.82128">
        <ele>376</ele>
        <time>2016-02-14T09:19:46.000Z</time>
      </trkpt>
      <trkpt lat="47.47714" lon="6.82126">
        <ele>376</ele>
        <time>2016-02-14T09:19:48.000Z</time>
      </trkpt>
      <trkpt lat="47.47712" lon="6.82125">
        <ele>376</ele>
        <time>2016-02-14T09:19:49.000Z</time>
      </trkpt>
      <trkpt lat="47.47709" lon="6.82122">
        <ele>377</ele>
        <time>2016-02-14T09:19:51.000Z</time>
      </trkpt>
      <trkpt lat="47.47707" lon="6.82121">
        <ele>377</ele>
        <time>2016-02-14T09:19:52.000Z</time>
      </trkpt>
      <trkpt lat="47.47704" lon="6.82118">
        <ele>377</ele>
        <time>2016-02-14T09:19:54.000Z</time>
      </trkpt>
      <trkpt lat="47.47702" lon="6.82117">
        <ele>377</ele>
        <time>2016-02-14T09:19:55.000Z</time>
      </trkpt>
      <trkpt lat="47.47699" lon="6.82115">
        <ele>377</ele>
        <time>2016-02-14T09:19:57.000Z</time>
      </trkpt>
      <trkpt lat="47.47698" lon="6.82114">
        <ele>377</ele>
        <time>2016-02-14T09:19:58.000Z</time>
      </trkpt>
      <trkpt lat="47.47694" lon="6.82112">
        <ele>377</ele>
        <time>2016-02-14T09:20:00.000Z</time>
      </trkpt>
      <trkpt lat="47.47692" lon="6.82111">
        <ele>377</ele>
        <time>2016-02-14T09:20:01.000Z</time>
      </trkpt>
      <trkpt lat="47.47689" lon="6.8211">
        <ele>377</ele>
        <time>2016-02-14T09:20:03.000Z</time>
      </trkpt>
      <trkpt lat="47.47687" lon="6.82109">
        <ele>377</ele>
        <time>2016-02-14T09:20:04.000Z</time>
      </trkpt>
      <trkpt lat="47.47683" lon="6.82108">
        <ele>378</ele>
        <time>2016-02-14T09:20:06.000Z</time>
      </trkpt>
      <trkpt lat="47.47681" lon="6.82107">
        <ele>378</ele>
        <time>2016-02-14T09:20:07.000Z</time>
      </trkpt>
      <trkpt lat="47.47678" lon="6.82104">
        <ele>378</ele>
        <time>2016-02-14T09:20:09.000Z</time>
      </trkpt>
      <trkpt lat="47.47675" lon="6.82103">
        <ele>378</ele>
        <time>2016-02-14T09:20:10.000Z</time>
      </trkpt>
      <trkpt lat="47.47672" lon="6.82101">
        <ele>378</ele>
        <time>2016-02-14T09:20:11.000Z</time>
      </trkpt>
      <trkpt lat="47.47669" lon="6.82098">
        <ele>378</ele>
        <time>2016-02-14T09:20:12.000Z</time>
      </trkpt>
      <trkpt lat="47.47666" lon="6.82096">
        <ele>380</ele>
        <time>2016-02-14T09:20:13.000Z</time>
      </trkpt>
      <trkpt lat="47.47664" lon="6.82094">
        <ele>380</ele>
        <time>2016-02-14T09:20:14.000Z</time>
      </trkpt>
      <trkpt lat="47.47659" lon="6.82091">
        <ele>380</ele>
        <time>2016-02-14T09:20:16.000Z</time>
      </trkpt>
      <trkpt lat="47.47658" lon="6.8209">
        <ele>380</ele>
        <time>2016-02-14T09:20:17.000Z</time>
      </trkpt>
      <trkpt lat="47.47654" lon="6.82088">
        <ele>380</ele>
        <time>2016-02-14T09:20:19.000Z</time>
      </trkpt>
      <trkpt lat="47.47652" lon="6.82087">
        <ele>380</ele>
        <time>2016-02-14T09:20:20.000Z</time>
      </trkpt>
      <trkpt lat="47.47649" lon="6.82084">
        <ele>380</ele>
        <time>2016-02-14T09:20:22.000Z</time>
      </trkpt>
      <trkpt lat="47.47647" lon="6.82083">
        <ele>382</ele>
        <time>2016-02-14T09:20:23.000Z</time>
      </trkpt>
      <trkpt lat="47.47644" lon="6.82081">
        <ele>382</ele>
        <time>2016-02-14T09:20:24.000Z</time>
      </trkpt>
      <trkpt lat="47.47641" lon="6.8208">
        <ele>382</ele>
        <time>2016-02-14T09:20:25.000Z</time>
      </trkpt>
      <trkpt lat="47.47639" lon="6.8208">
        <ele>382</ele>
        <time>2016-02-14T09:20:26.000Z</time>
      </trkpt>
      <trkpt lat="47.47636" lon="6.82079">
        <ele>383</ele>
        <time>2016-02-14T09:20:27.000Z</time>
      </trkpt>
      <trkpt lat="47.47633" lon="6.82079">
        <ele>383</ele>
        <time>2016-02-14T09:20:28.000Z</time>
      </trkpt>
      <trkpt lat="47.4763" lon="6.82079">
        <ele>383</ele>
        <time>2016-02-14T09:20:29.000Z</time>
      </trkpt>
      <trkpt lat="47.47628" lon="6.82079">
        <ele>383</ele>
        <time>2016-02-14T09:20:30.000Z</time>
      </trkpt>
      <trkpt lat="47.47626" lon="6.82078">
        <ele>383</ele>
        <time>2016-02-14T09:20:31.000Z</time>
      </trkpt>
      <trkpt lat="47.47623" lon="6.82078">
        <ele>383</ele>
        <time>2016-02-14T09:20:32.000Z</time>
      </trkpt>
      <trkpt lat="47.47621" lon="6.82077">
        <ele>384</ele>
        <time>2016-02-14T09:20:33.000Z</time>
      </trkpt>
      <trkpt lat="47.47617" lon="6.82075">
        <ele>384</ele>
        <time>2016-02-14T09:20:35.000Z</time>
      </trkpt>
      <trkpt lat="47.47616" lon="6.82074">
        <ele>384</ele>
        <time>2016-02-14T09:20:36.000Z</time>
      </trkpt>
      <trkpt lat="47.47613" lon="6.82071">
        <ele>384</ele>
        <time>2016-02-14T09:20:40.000Z</time>
      </trkpt>
      <trkpt lat="47.47612" lon="6.82069">
        <ele>384</ele>
        <time>2016-02-14T09:20:41.000Z</time>
      </trkpt>
      <trkpt lat="47.47608" lon="6.82066">
        <ele>384</ele>
        <time>2016-02-14T09:20:44.000Z</time>
      </trkpt>
      <trkpt lat="47.47607" lon="6.82065">
        <ele>384</ele>
        <time>2016-02-14T09:20:45.000Z</time>
      </trkpt>
      <trkpt lat="47.47604" lon="6.82064">
        <ele>384</ele>
        <time>2016-02-14T09:20:47.000Z</time>
      </trkpt>
      <trkpt lat="47.47602" lon="6.82063">
        <ele>385</ele>
        <time>2016-02-14T09:20:48.000Z</time>
      </trkpt>
      <trkpt lat="47.47597" lon="6.82061">
        <ele>385</ele>
        <time>2016-02-14T09:20:50.000Z</time>
      </trkpt>
      <trkpt lat="47.47595" lon="6.8206">
        <ele>385</ele>
        <time>2016-02-14T09:20:51.000Z</time>
      </trkpt>
      <trkpt lat="47.47591" lon="6.82058">
        <ele>385</ele>
        <time>2016-02-14T09:20:53.000Z</time>
      </trkpt>
      <trkpt lat="47.47589" lon="6.82056">
        <ele>385</ele>
        <time>2016-02-14T09:20:54.000Z</time>
      </trkpt>
      <trkpt lat="47.47587" lon="6.82054">
        <ele>385</ele>
        <time>2016-02-14T09:20:55.000Z</time>
      </trkpt>
      <trkpt lat="47.47585" lon="6.82052">
        <ele>385</ele>
        <time>2016-02-14T09:20:56.000Z</time>
      </trkpt>
      <trkpt lat="47.47581" lon="6.82049">
        <ele>387</ele>
        <time>2016-02-14T09:20:58.000Z</time>
      </trkpt>
      <trkpt lat="47.47579" lon="6.82048">
        <ele>387</ele>
        <time>2016-02-14T09:20:59.000Z</time>
      </trkpt>
      <trkpt lat="47.47575" lon="6.82048">
        <ele>387</ele>
        <time>2016-02-14T09:21:01.000Z</time>
      </trkpt>
      <trkpt lat="47.47573" lon="6.82047">
        <ele>387</ele>
        <time>2016-02-14T09:21:02.000Z</time>
      </trkpt>
      <trkpt lat="47.4757" lon="6.82047">
        <ele>387</ele>
        <time>2016-02-14T09:21:03.000Z</time>
      </trkpt>
      <trkpt lat="47.47568" lon="6.82046">
        <ele>387</ele>
        <time>2016-02-14T09:21:04.000Z</time>
      </trkpt>
      <trkpt lat="47.47564" lon="6.82046">
        <ele>387</ele>
        <time>2016-02-14T09:21:05.000Z</time>
      </trkpt>
      <trkpt lat="47.47562" lon="6.82045">
        <ele>387</ele>
        <time>2016-02-14T09:21:06.000Z</time>
      </trkpt>
      <trkpt lat="47.47559" lon="6.82045">
        <ele>387</ele>
        <time>2016-02-14T09:21:07.000Z</time>
      </trkpt>
      <trkpt lat="47.47557" lon="6.82045">
        <ele>387</ele>
        <time>2016-02-14T09:21:08.000Z</time>
      </trkpt>
      <trkpt lat="47.47554" lon="6.82045">
        <ele>387</ele>
        <time>2016-02-14T09:21:09.000Z</time>
      </trkpt>
      <trkpt lat="47.47551" lon="6.82045">
        <ele>387</ele>
        <time>2016-02-14T09:21:10.000Z</time>
      </trkpt>
      <trkpt lat="47.47548" lon="6.82044">
        <ele>387</ele>
        <time>2016-02-14T09:21:11.000Z</time>
      </trkpt>
      <trkpt lat="47.47546" lon="6.82044">
        <ele>387</ele>
        <time>2016-02-14T09:21:12.000Z</time>
      </trkpt>
      <trkpt lat="47.47542" lon="6.82044">
        <ele>387</ele>
        <time>2016-02-14T09:21:13.000Z</time>
      </trkpt>
      <trkpt lat="47.47539" lon="6.82044">
        <ele>387</ele>
        <time>2016-02-14T09:21:14.000Z</time>
      </trkpt>
      <trkpt lat="47.47536" lon="6.82044">
        <ele>387</ele>
        <time>2016-02-14T09:21:15.000Z</time>
      </trkpt>
      <trkpt lat="47.47533" lon="6.82044">
        <ele>387</ele>
        <time>2016-02-14T09:21:16.000Z</time>
      </trkpt>
      <trkpt lat="47.4753" lon="6.82045">
        <ele>386</ele>
        <time>2016-02-14T09:21:17.000Z</time>
      </trkpt>
      <trkpt lat="47.47526" lon="6.82045">
        <ele>386</ele>
        <time>2016-02-14T09:21:18.000Z</time>
      </trkpt>
      <trkpt lat="47.47522" lon="6.82045">
        <ele>386</ele>
        <time>2016-02-14T09:21:19.000Z</time>
      </trkpt>
      <trkpt lat="47.47517" lon="6.82044">
        <ele>386</ele>
        <time>2016-02-14T09:21:20.000Z</time>
      </trkpt>
      <trkpt lat="47.47512" lon="6.82044">
        <ele>386</ele>
        <time>2016-02-14T09:21:21.000Z</time>
      </trkpt>
      <trkpt lat="47.47507" lon="6.82043">
        <ele>386</ele>
        <time>2016-02-14T09:21:22.000Z</time>
      </trkpt>
      <trkpt lat="47.47502" lon="6.82042">
        <ele>386</ele>
        <time>2016-02-14T09:21:23.000Z</time>
      </trkpt>
      <trkpt lat="47.47498" lon="6.82042">
        <ele>384</ele>
        <time>2016-02-14T09:21:24.000Z</time>
      </trkpt>
      <trkpt lat="47.47494" lon="6.82042">
        <ele>384</ele>
        <time>2016-02-14T09:21:25.000Z</time>
      </trkpt>
      <trkpt lat="47.47491" lon="6.82043">
        <ele>383</ele>
        <time>2016-02-14T09:21:26.000Z</time>
      </trkpt>
      <trkpt lat="47.47487" lon="6.82044">
        <ele>383</ele>
        <time>2016-02-14T09:21:27.000Z</time>
      </trkpt>
      <trkpt lat="47.47484" lon="6.82045">
        <ele>383</ele>
        <time>2016-02-14T09:21:28.000Z</time>
      </trkpt>
      <trkpt lat="47.47481" lon="6.82046">
        <ele>383</ele>
        <time>2016-02-14T09:21:29.000Z</time>
      </trkpt>
      <trkpt lat="47.47478" lon="6.82046">
        <ele>383</ele>
        <time>2016-02-14T09:21:30.000Z</time>
      </trkpt>
      <trkpt lat="47.47475" lon="6.82047">
        <ele>383</ele>
        <time>2016-02-14T09:21:31.000Z</time>
      </trkpt>
      <trkpt lat="47.47472" lon="6.82047">
        <ele>383</ele>
        <time>2016-02-14T09:21:32.000Z</time>
      </trkpt>
      <trkpt lat="47.4747" lon="6.82047">
        <ele>383</ele>
        <time>2016-02-14T09:21:33.000Z</time>
      </trkpt>
      <trkpt lat="47.47467" lon="6.82049">
        <ele>382</ele>
        <time>2016-02-14T09:21:35.000Z</time>
      </trkpt>
      <trkpt lat="47.47466" lon="6.82049">
        <ele>382</ele>
        <time>2016-02-14T09:21:36.000Z</time>
      </trkpt>
      <trkpt lat="47.47461" lon="6.82051">
        <ele>382</ele>
        <time>2016-02-14T09:21:40.000Z</time>
      </trkpt>
      <trkpt lat="47.4746" lon="6.82051">
        <ele>382</ele>
        <time>2016-02-14T09:21:41.000Z</time>
      </trkpt>
      <trkpt lat="47.47456" lon="6.82053">
        <ele>382</ele>
        <time>2016-02-14T09:21:43.000Z</time>
      </trkpt>
      <trkpt lat="47.47453" lon="6.82053">
        <ele>382</ele>
        <time>2016-02-14T09:21:44.000Z</time>
      </trkpt>
      <trkpt lat="47.47451" lon="6.82053">
        <ele>382</ele>
        <time>2016-02-14T09:21:45.000Z</time>
      </trkpt>
      <trkpt lat="47.47448" lon="6.82052">
        <ele>382</ele>
        <time>2016-02-14T09:21:46.000Z</time>
      </trkpt>
      <trkpt lat="47.47446" lon="6.82052">
        <ele>382</ele>
        <time>2016-02-14T09:21:47.000Z</time>
      </trkpt>
      <trkpt lat="47.47444" lon="6.82051">
        <ele>382</ele>
        <time>2016-02-14T09:21:48.000Z</time>
      </trkpt>
      <trkpt lat="47.47441" lon="6.82051">
        <ele>381</ele>
        <time>2016-02-14T09:21:49.000Z</time>
      </trkpt>
      <trkpt lat="47.47439" lon="6.82051">
        <ele>381</ele>
        <time>2016-02-14T09:21:50.000Z</time>
      </trkpt>
      <trkpt lat="47.47437" lon="6.82051">
        <ele>381</ele>
        <time>2016-02-14T09:21:51.000Z</time>
      </trkpt>
      <trkpt lat="47.47434" lon="6.82051">
        <ele>381</ele>
        <time>2016-02-14T09:21:52.000Z</time>
      </trkpt>
      <trkpt lat="47.47432" lon="6.82049">
        <ele>381</ele>
        <time>2016-02-14T09:21:53.000Z</time>
      </trkpt>
      <trkpt lat="47.4743" lon="6.82048">
        <ele>381</ele>
        <time>2016-02-14T09:21:54.000Z</time>
      </trkpt>
      <trkpt lat="47.47428" lon="6.82046">
        <ele>381</ele>
        <time>2016-02-14T09:21:55.000Z</time>
      </trkpt>
      <trkpt lat="47.47426" lon="6.82045">
        <ele>381</ele>
        <time>2016-02-14T09:21:56.000Z</time>
      </trkpt>
      <trkpt lat="47.47424" lon="6.82043">
        <ele>381</ele>
        <time>2016-02-14T09:21:57.000Z</time>
      </trkpt>
      <trkpt lat="47.47422" lon="6.82041">
        <ele>381</ele>
        <time>2016-02-14T09:21:58.000Z</time>
      </trkpt>
      <trkpt lat="47.47418" lon="6.82039">
        <ele>382</ele>
        <time>2016-02-14T09:22:00.000Z</time>
      </trkpt>
      <trkpt lat="47.47415" lon="6.82038">
        <ele>379</ele>
        <time>2016-02-14T09:22:01.000Z</time>
      </trkpt>
      <trkpt lat="47.47412" lon="6.82038">
        <ele>379</ele>
        <time>2016-02-14T09:22:02.000Z</time>
      </trkpt>
      <trkpt lat="47.4741" lon="6.82039">
        <ele>379</ele>
        <time>2016-02-14T09:22:03.000Z</time>
      </trkpt>
      <trkpt lat="47.47407" lon="6.82038">
        <ele>379</ele>
        <time>2016-02-14T09:22:04.000Z</time>
      </trkpt>
      <trkpt lat="47.47405" lon="6.82038">
        <ele>379</ele>
        <time>2016-02-14T09:22:05.000Z</time>
      </trkpt>
      <trkpt lat="47.474" lon="6.82036">
        <ele>379</ele>
        <time>2016-02-14T09:22:07.000Z</time>
      </trkpt>
      <trkpt lat="47.47399" lon="6.82035">
        <ele>379</ele>
        <time>2016-02-14T09:22:08.000Z</time>
      </trkpt>
      <trkpt lat="47.47397" lon="6.82031">
        <ele>379</ele>
        <time>2016-02-14T09:22:10.000Z</time>
      </trkpt>
      <trkpt lat="47.47395" lon="6.8203">
        <ele>379</ele>
        <time>2016-02-14T09:22:11.000Z</time>
      </trkpt>
      <trkpt lat="47.47393" lon="6.82028">
        <ele>379</ele>
        <time>2016-02-14T09:22:12.000Z</time>
      </trkpt>
      <trkpt lat="47.47391" lon="6.82026">
        <ele>379</ele>
        <time>2016-02-14T09:22:13.000Z</time>
      </trkpt>
      <trkpt lat="47.47388" lon="6.82024">
        <ele>379</ele>
        <time>2016-02-14T09:22:14.000Z</time>
      </trkpt>
      <trkpt lat="47.47385" lon="6.82023">
        <ele>379</ele>
        <time>2016-02-14T09:22:15.000Z</time>
      </trkpt>
      <trkpt lat="47.47382" lon="6.82021">
        <ele>379</ele>
        <time>2016-02-14T09:22:16.000Z</time>
      </trkpt>
      <trkpt lat="47.47377" lon="6.8202">
        <ele>379</ele>
        <time>2016-02-14T09:22:17.000Z</time>
      </trkpt>
      <trkpt lat="47.47372" lon="6.82019">
        <ele>378</ele>
        <time>2016-02-14T09:22:18.000Z</time>
      </trkpt>
      <trkpt lat="47.47367" lon="6.82018">
        <ele>378</ele>
        <time>2016-02-14T09:22:19.000Z</time>
      </trkpt>
      <trkpt lat="47.47363" lon="6.82019">
        <ele>378</ele>
        <time>2016-02-14T09:22:20.000Z</time>
      </trkpt>
      <trkpt lat="47.47359" lon="6.8202">
        <ele>378</ele>
        <time>2016-02-14T09:22:21.000Z</time>
      </trkpt>
      <trkpt lat="47.47355" lon="6.82022">
        <ele>378</ele>
        <time>2016-02-14T09:22:22.000Z</time>
      </trkpt>
      <trkpt lat="47.47352" lon="6.82023">
        <ele>378</ele>
        <time>2016-02-14T09:22:23.000Z</time>
      </trkpt>
      <trkpt lat="47.4735" lon="6.82025">
        <ele>378</ele>
        <time>2016-02-14T09:22:24.000Z</time>
      </trkpt>
      <trkpt lat="47.47347" lon="6.82026">
        <ele>378</ele>
        <time>2016-02-14T09:22:25.000Z</time>
      </trkpt>
      <trkpt lat="47.47344" lon="6.82029">
        <ele>378</ele>
        <time>2016-02-14T09:22:26.000Z</time>
      </trkpt>
      <trkpt lat="47.47342" lon="6.82031">
        <ele>378</ele>
        <time>2016-02-14T09:22:27.000Z</time>
      </trkpt>
      <trkpt lat="47.4734" lon="6.82035">
        <ele>378</ele>
        <time>2016-02-14T09:22:28.000Z</time>
      </trkpt>
      <trkpt lat="47.47337" lon="6.82038">
        <ele>378</ele>
        <time>2016-02-14T09:22:29.000Z</time>
      </trkpt>
      <trkpt lat="47.47335" lon="6.82042">
        <ele>378</ele>
        <time>2016-02-14T09:22:30.000Z</time>
      </trkpt>
      <trkpt lat="47.47332" lon="6.82045">
        <ele>381</ele>
        <time>2016-02-14T09:22:31.000Z</time>
      </trkpt>
      <trkpt lat="47.4733" lon="6.82049">
        <ele>381</ele>
        <time>2016-02-14T09:22:32.000Z</time>
      </trkpt>
      <trkpt lat="47.47328" lon="6.82052">
        <ele>381</ele>
        <time>2016-02-14T09:22:33.000Z</time>
      </trkpt>
      <trkpt lat="47.47327" lon="6.82056">
        <ele>381</ele>
        <time>2016-02-14T09:22:34.000Z</time>
      </trkpt>
      <trkpt lat="47.47325" lon="6.82059">
        <ele>381</ele>
        <time>2016-02-14T09:22:35.000Z</time>
      </trkpt>
      <trkpt lat="47.47323" lon="6.82062">
        <ele>381</ele>
        <time>2016-02-14T09:22:36.000Z</time>
      </trkpt>
      <trkpt lat="47.47321" lon="6.82065">
        <ele>381</ele>
        <time>2016-02-14T09:22:37.000Z</time>
      </trkpt>
      <trkpt lat="47.47319" lon="6.82067">
        <ele>381</ele>
        <time>2016-02-14T09:22:38.000Z</time>
      </trkpt>
      <trkpt lat="47.47317" lon="6.82069">
        <ele>381</ele>
        <time>2016-02-14T09:22:39.000Z</time>
      </trkpt>
      <trkpt lat="47.47315" lon="6.82071">
        <ele>381</ele>
        <time>2016-02-14T09:22:40.000Z</time>
      </trkpt>
      <trkpt lat="47.47312" lon="6.82075">
        <ele>381</ele>
        <time>2016-02-14T09:22:42.000Z</time>
      </trkpt>
      <trkpt lat="47.47311" lon="6.82078">
        <ele>381</ele>
        <time>2016-02-14T09:22:43.000Z</time>
      </trkpt>
      <trkpt lat="47.47309" lon="6.82083">
        <ele>382</ele>
        <time>2016-02-14T09:22:45.000Z</time>
      </trkpt>
      <trkpt lat="47.47308" lon="6.82085">
        <ele>381</ele>
        <time>2016-02-14T09:22:46.000Z</time>
      </trkpt>
      <trkpt lat="47.47306" lon="6.82087">
        <ele>382</ele>
        <time>2016-02-14T09:22:47.000Z</time>
      </trkpt>
      <trkpt lat="47.47304" lon="6.82089">
        <ele>382</ele>
        <time>2016-02-14T09:22:48.000Z</time>
      </trkpt>
      <trkpt lat="47.473" lon="6.82092">
        <ele>382</ele>
        <time>2016-02-14T09:22:50.000Z</time>
      </trkpt>
      <trkpt lat="47.47299" lon="6.82095">
        <ele>383</ele>
        <time>2016-02-14T09:22:51.000Z</time>
      </trkpt>
      <trkpt lat="47.47297" lon="6.821">
        <ele>383</ele>
        <time>2016-02-14T09:22:53.000Z</time>
      </trkpt>
      <trkpt lat="47.47296" lon="6.82102">
        <ele>383</ele>
        <time>2016-02-14T09:22:54.000Z</time>
      </trkpt>
      <trkpt lat="47.47294" lon="6.82106">
        <ele>383</ele>
        <time>2016-02-14T09:22:56.000Z</time>
      </trkpt>
      <trkpt lat="47.47292" lon="6.82108">
        <ele>383</ele>
        <time>2016-02-14T09:22:57.000Z</time>
      </trkpt>
      <trkpt lat="47.47291" lon="6.82111">
        <ele>383</ele>
        <time>2016-02-14T09:22:58.000Z</time>
      </trkpt>
      <trkpt lat="47.4729" lon="6.82115">
        <ele>383</ele>
        <time>2016-02-14T09:22:59.000Z</time>
      </trkpt>
      <trkpt lat="47.47289" lon="6.82118">
        <ele>383</ele>
        <time>2016-02-14T09:23:00.000Z</time>
      </trkpt>
      <trkpt lat="47.47288" lon="6.82122">
        <ele>383</ele>
        <time>2016-02-14T09:23:01.000Z</time>
      </trkpt>
      <trkpt lat="47.47287" lon="6.82126">
        <ele>383</ele>
        <time>2016-02-14T09:23:02.000Z</time>
      </trkpt>
      <trkpt lat="47.47286" lon="6.82129">
        <ele>383</ele>
        <time>2016-02-14T09:23:03.000Z</time>
      </trkpt>
      <trkpt lat="47.47284" lon="6.82135">
        <ele>384</ele>
        <time>2016-02-14T09:23:05.000Z</time>
      </trkpt>
      <trkpt lat="47.47283" lon="6.82138">
        <ele>384</ele>
        <time>2016-02-14T09:23:06.000Z</time>
      </trkpt>
      <trkpt lat="47.47282" lon="6.82141">
        <ele>384</ele>
        <time>2016-02-14T09:23:07.000Z</time>
      </trkpt>
      <trkpt lat="47.4728" lon="6.82144">
        <ele>384</ele>
        <time>2016-02-14T09:23:08.000Z</time>
      </trkpt>
      <trkpt lat="47.47279" lon="6.82147">
        <ele>384</ele>
        <time>2016-02-14T09:23:09.000Z</time>
      </trkpt>
      <trkpt lat="47.47278" lon="6.8215">
        <ele>384</ele>
        <time>2016-02-14T09:23:10.000Z</time>
      </trkpt>
      <trkpt lat="47.47275" lon="6.82154">
        <ele>385</ele>
        <time>2016-02-14T09:23:12.000Z</time>
      </trkpt>
      <trkpt lat="47.47274" lon="6.82157">
        <ele>385</ele>
        <time>2016-02-14T09:23:13.000Z</time>
      </trkpt>
      <trkpt lat="47.47273" lon="6.8216">
        <ele>385</ele>
        <time>2016-02-14T09:23:14.000Z</time>
      </trkpt>
      <trkpt lat="47.47272" lon="6.82164">
        <ele>385</ele>
        <time>2016-02-14T09:23:15.000Z</time>
      </trkpt>
      <trkpt lat="47.4727" lon="6.82167">
        <ele>385</ele>
        <time>2016-02-14T09:23:16.000Z</time>
      </trkpt>
      <trkpt lat="47.47269" lon="6.8217">
        <ele>385</ele>
        <time>2016-02-14T09:23:17.000Z</time>
      </trkpt>
      <trkpt lat="47.47268" lon="6.82173">
        <ele>385</ele>
        <time>2016-02-14T09:23:18.000Z</time>
      </trkpt>
      <trkpt lat="47.47267" lon="6.82176">
        <ele>385</ele>
        <time>2016-02-14T09:23:19.000Z</time>
      </trkpt>
      <trkpt lat="47.47265" lon="6.82179">
        <ele>385</ele>
        <time>2016-02-14T09:23:20.000Z</time>
      </trkpt>
      <trkpt lat="47.47264" lon="6.82181">
        <ele>385</ele>
        <time>2016-02-14T09:23:21.000Z</time>
      </trkpt>
      <trkpt lat="47.47262" lon="6.82183">
        <ele>385</ele>
        <time>2016-02-14T09:23:22.000Z</time>
      </trkpt>
      <trkpt lat="47.47261" lon="6.82186">
        <ele>385</ele>
        <time>2016-02-14T09:23:23.000Z</time>
      </trkpt>
      <trkpt lat="47.4726" lon="6.82189">
        <ele>385</ele>
        <time>2016-02-14T09:23:24.000Z</time>
      </trkpt>
      <trkpt lat="47.47258" lon="6.82193">
        <ele>385</ele>
        <time>2016-02-14T09:23:25.000Z</time>
      </trkpt>
      <trkpt lat="47.47256" lon="6.82196">
        <ele>384</ele>
        <time>2016-02-14T09:23:26.000Z</time>
      </trkpt>
      <trkpt lat="47.47254" lon="6.82199">
        <ele>384</ele>
        <time>2016-02-14T09:23:27.000Z</time>
      </trkpt>
      <trkpt lat="47.47253" lon="6.82202">
        <ele>384</ele>
        <time>2016-02-14T09:23:28.000Z</time>
      </trkpt>
      <trkpt lat="47.47252" lon="6.82206">
        <ele>384</ele>
        <time>2016-02-14T09:23:29.000Z</time>
      </trkpt>
      <trkpt lat="47.47251" lon="6.82211">
        <ele>384</ele>
        <time>2016-02-14T09:23:30.000Z</time>
      </trkpt>
      <trkpt lat="47.47252" lon="6.82218">
        <ele>384</ele>
        <time>2016-02-14T09:23:31.000Z</time>
      </trkpt>
      <trkpt lat="47.47252" lon="6.82223">
        <ele>384</ele>
        <time>2016-02-14T09:23:32.000Z</time>
      </trkpt>
      <trkpt lat="47.47251" lon="6.82229">
        <ele>385</ele>
        <time>2016-02-14T09:23:33.000Z</time>
      </trkpt>
      <trkpt lat="47.47251" lon="6.82234">
        <ele>385</ele>
        <time>2016-02-14T09:23:34.000Z</time>
      </trkpt>
      <trkpt lat="47.47251" lon="6.82239">
        <ele>386</ele>
        <time>2016-02-14T09:23:35.000Z</time>
      </trkpt>
      <trkpt lat="47.4725" lon="6.82243">
        <ele>389</ele>
        <time>2016-02-14T09:23:36.000Z</time>
      </trkpt>
      <trkpt lat="47.47249" lon="6.82245">
        <ele>389</ele>
        <time>2016-02-14T09:23:37.000Z</time>
      </trkpt>
      <trkpt lat="47.47246" lon="6.82248">
        <ele>389</ele>
        <time>2016-02-14T09:23:39.000Z</time>
      </trkpt>
      <trkpt lat="47.47244" lon="6.82248">
        <ele>389</ele>
        <time>2016-02-14T09:23:40.000Z</time>
      </trkpt>
      <trkpt lat="47.4724" lon="6.82247">
        <ele>390</ele>
        <time>2016-02-14T09:23:42.000Z</time>
      </trkpt>
      <trkpt lat="47.47239" lon="6.82246">
        <ele>390</ele>
        <time>2016-02-14T09:23:43.000Z</time>
      </trkpt>
      <trkpt lat="47.47235" lon="6.82243">
        <ele>391</ele>
        <time>2016-02-14T09:23:46.000Z</time>
      </trkpt>
      <trkpt lat="47.47235" lon="6.82242">
        <ele>391</ele>
        <time>2016-02-14T09:23:47.000Z</time>
      </trkpt>
      <trkpt lat="47.47232" lon="6.82238">
        <ele>391</ele>
        <time>2016-02-14T09:23:51.000Z</time>
      </trkpt>
      <trkpt lat="47.47231" lon="6.82236">
        <ele>392</ele>
        <time>2016-02-14T09:23:52.000Z</time>
      </trkpt>
      <trkpt lat="47.47228" lon="6.82233">
        <ele>392</ele>
        <time>2016-02-14T09:23:55.000Z</time>
      </trkpt>
      <trkpt lat="47.47226" lon="6.82232">
        <ele>392</ele>
        <time>2016-02-14T09:23:56.000Z</time>
      </trkpt>
      <trkpt lat="47.47222" lon="6.82231">
        <ele>393</ele>
        <time>2016-02-14T09:23:58.000Z</time>
      </trkpt>
      <trkpt lat="47.47221" lon="6.8223">
        <ele>393</ele>
        <time>2016-02-14T09:23:59.000Z</time>
      </trkpt>
      <trkpt lat="47.47217" lon="6.82229">
        <ele>393</ele>
        <time>2016-02-14T09:24:01.000Z</time>
      </trkpt>
      <trkpt lat="47.47215" lon="6.82228">
        <ele>393</ele>
        <time>2016-02-14T09:24:02.000Z</time>
      </trkpt>
      <trkpt lat="47.47211" lon="6.82227">
        <ele>393</ele>
        <time>2016-02-14T09:24:04.000Z</time>
      </trkpt>
      <trkpt lat="47.47209" lon="6.82226">
        <ele>394</ele>
        <time>2016-02-14T09:24:05.000Z</time>
      </trkpt>
      <trkpt lat="47.47205" lon="6.82223">
        <ele>394</ele>
        <time>2016-02-14T09:24:07.000Z</time>
      </trkpt>
      <trkpt lat="47.47203" lon="6.82222">
        <ele>394</ele>
        <time>2016-02-14T09:24:08.000Z</time>
      </trkpt>
      <trkpt lat="47.472" lon="6.82219">
        <ele>394</ele>
        <time>2016-02-14T09:24:10.000Z</time>
      </trkpt>
      <trkpt lat="47.47197" lon="6.82217">
        <ele>394</ele>
        <time>2016-02-14T09:24:11.000Z</time>
      </trkpt>
      <trkpt lat="47.47195" lon="6.82216">
        <ele>394</ele>
        <time>2016-02-14T09:24:12.000Z</time>
      </trkpt>
      <trkpt lat="47.47192" lon="6.82215">
        <ele>395</ele>
        <time>2016-02-14T09:24:13.000Z</time>
      </trkpt>
      <trkpt lat="47.4719" lon="6.82213">
        <ele>395</ele>
        <time>2016-02-14T09:24:14.000Z</time>
      </trkpt>
      <trkpt lat="47.47188" lon="6.82212">
        <ele>395</ele>
        <time>2016-02-14T09:24:15.000Z</time>
      </trkpt>
      <trkpt lat="47.47185" lon="6.82211">
        <ele>395</ele>
        <time>2016-02-14T09:24:16.000Z</time>
      </trkpt>
      <trkpt lat="47.47183" lon="6.8221">
        <ele>395</ele>
        <time>2016-02-14T09:24:17.000Z</time>
      </trkpt>
      <trkpt lat="47.4718" lon="6.82208">
        <ele>395</ele>
        <time>2016-02-14T09:24:18.000Z</time>
      </trkpt>
      <trkpt lat="47.47178" lon="6.82206">
        <ele>395</ele>
        <time>2016-02-14T09:24:19.000Z</time>
      </trkpt>
      <trkpt lat="47.47175" lon="6.82205">
        <ele>395</ele>
        <time>2016-02-14T09:24:20.000Z</time>
      </trkpt>
      <trkpt lat="47.47173" lon="6.82203">
        <ele>395</ele>
        <time>2016-02-14T09:24:21.000Z</time>
      </trkpt>
      <trkpt lat="47.47171" lon="6.82202">
        <ele>396</ele>
        <time>2016-02-14T09:24:22.000Z</time>
      </trkpt>
      <trkpt lat="47.47169" lon="6.82201">
        <ele>396</ele>
        <time>2016-02-14T09:24:23.000Z</time>
      </trkpt>
      <trkpt lat="47.47166" lon="6.822">
        <ele>399</ele>
        <time>2016-02-14T09:24:24.000Z</time>
      </trkpt>
      <trkpt lat="47.47164" lon="6.82199">
        <ele>399</ele>
        <time>2016-02-14T09:24:25.000Z</time>
      </trkpt>
      <trkpt lat="47.4716" lon="6.82197">
        <ele>399</ele>
        <time>2016-02-14T09:24:27.000Z</time>
      </trkpt>
      <trkpt lat="47.47158" lon="6.82196">
        <ele>399</ele>
        <time>2016-02-14T09:24:28.000Z</time>
      </trkpt>
      <trkpt lat="47.47154" lon="6.82195">
        <ele>399</ele>
        <time>2016-02-14T09:24:32.000Z</time>
      </trkpt>
      <trkpt lat="47.47153" lon="6.82195">
        <ele>399</ele>
        <time>2016-02-14T09:24:33.000Z</time>
      </trkpt>
      <trkpt lat="47.4715" lon="6.82194">
        <ele>399</ele>
        <time>2016-02-14T09:24:35.000Z</time>
      </trkpt>
      <trkpt lat="47.47148" lon="6.82193">
        <ele>399</ele>
        <time>2016-02-14T09:24:36.000Z</time>
      </trkpt>
      <trkpt lat="47.47145" lon="6.82191">
        <ele>399</ele>
        <time>2016-02-14T09:24:38.000Z</time>
      </trkpt>
      <trkpt lat="47.47143" lon="6.82191">
        <ele>399</ele>
        <time>2016-02-14T09:24:39.000Z</time>
      </trkpt>
      <trkpt lat="47.47141" lon="6.82191">
        <ele>400</ele>
        <time>2016-02-14T09:24:40.000Z</time>
      </trkpt>
      <trkpt lat="47.47138" lon="6.82191">
        <ele>400</ele>
        <time>2016-02-14T09:24:41.000Z</time>
      </trkpt>
      <trkpt lat="47.47134" lon="6.82194">
        <ele>400</ele>
        <time>2016-02-14T09:24:43.000Z</time>
      </trkpt>
      <trkpt lat="47.47132" lon="6.82194">
        <ele>400</ele>
        <time>2016-02-14T09:24:44.000Z</time>
      </trkpt>
      <trkpt lat="47.4713" lon="6.82195">
        <ele>400</ele>
        <time>2016-02-14T09:24:45.000Z</time>
      </trkpt>
      <trkpt lat="47.47127" lon="6.82195">
        <ele>400</ele>
        <time>2016-02-14T09:24:46.000Z</time>
      </trkpt>
      <trkpt lat="47.47125" lon="6.82195">
        <ele>400</ele>
        <time>2016-02-14T09:24:47.000Z</time>
      </trkpt>
      <trkpt lat="47.47122" lon="6.82195">
        <ele>400</ele>
        <time>2016-02-14T09:24:48.000Z</time>
      </trkpt>
      <trkpt lat="47.47119" lon="6.82196">
        <ele>400</ele>
        <time>2016-02-14T09:24:50.000Z</time>
      </trkpt>
      <trkpt lat="47.47116" lon="6.82196">
        <ele>400</ele>
        <time>2016-02-14T09:24:51.000Z</time>
      </trkpt>
      <trkpt lat="47.47114" lon="6.82196">
        <ele>400</ele>
        <time>2016-02-14T09:24:52.000Z</time>
      </trkpt>
      <trkpt lat="47.47112" lon="6.82196">
        <ele>400</ele>
        <time>2016-02-14T09:24:53.000Z</time>
      </trkpt>
      <trkpt lat="47.47108" lon="6.82197">
        <ele>400</ele>
        <time>2016-02-14T09:24:55.000Z</time>
      </trkpt>
      <trkpt lat="47.47106" lon="6.82198">
        <ele>400</ele>
        <time>2016-02-14T09:24:56.000Z</time>
      </trkpt>
      <trkpt lat="47.47102" lon="6.82201">
        <ele>400</ele>
        <time>2016-02-14T09:24:58.000Z</time>
      </trkpt>
      <trkpt lat="47.471" lon="6.82203">
        <ele>400</ele>
        <time>2016-02-14T09:24:59.000Z</time>
      </trkpt>
      <trkpt lat="47.47097" lon="6.82204">
        <ele>400</ele>
        <time>2016-02-14T09:25:00.000Z</time>
      </trkpt>
      <trkpt lat="47.47094" lon="6.82206">
        <ele>400</ele>
        <time>2016-02-14T09:25:01.000Z</time>
      </trkpt>
      <trkpt lat="47.47091" lon="6.82207">
        <ele>400</ele>
        <time>2016-02-14T09:25:02.000Z</time>
      </trkpt>
      <trkpt lat="47.47087" lon="6.82208">
        <ele>400</ele>
        <time>2016-02-14T09:25:03.000Z</time>
      </trkpt>
      <trkpt lat="47.47083" lon="6.82209">
        <ele>400</ele>
        <time>2016-02-14T09:25:04.000Z</time>
      </trkpt>
      <trkpt lat="47.4708" lon="6.82209">
        <ele>399</ele>
        <time>2016-02-14T09:25:05.000Z</time>
      </trkpt>
      <trkpt lat="47.47077" lon="6.82209">
        <ele>399</ele>
        <time>2016-02-14T09:25:06.000Z</time>
      </trkpt>
      <trkpt lat="47.47073" lon="6.82208">
        <ele>399</ele>
        <time>2016-02-14T09:25:07.000Z</time>
      </trkpt>
      <trkpt lat="47.4707" lon="6.82207">
        <ele>399</ele>
        <time>2016-02-14T09:25:08.000Z</time>
      </trkpt>
      <trkpt lat="47.47066" lon="6.82205">
        <ele>399</ele>
        <time>2016-02-14T09:25:09.000Z</time>
      </trkpt>
      <trkpt lat="47.47063" lon="6.82203">
        <ele>399</ele>
        <time>2016-02-14T09:25:10.000Z</time>
      </trkpt>
      <trkpt lat="47.47059" lon="6.82201">
        <ele>399</ele>
        <time>2016-02-14T09:25:11.000Z</time>
      </trkpt>
      <trkpt lat="47.47056" lon="6.82201">
        <ele>399</ele>
        <time>2016-02-14T09:25:12.000Z</time>
      </trkpt>
      <trkpt lat="47.47053" lon="6.82202">
        <ele>399</ele>
        <time>2016-02-14T09:25:13.000Z</time>
      </trkpt>
      <trkpt lat="47.4705" lon="6.82202">
        <ele>399</ele>
        <time>2016-02-14T09:25:14.000Z</time>
      </trkpt>
      <trkpt lat="47.47047" lon="6.82203">
        <ele>398</ele>
        <time>2016-02-14T09:25:15.000Z</time>
      </trkpt>
      <trkpt lat="47.47043" lon="6.82204">
        <ele>398</ele>
        <time>2016-02-14T09:25:16.000Z</time>
      </trkpt>
      <trkpt lat="47.4704" lon="6.82205">
        <ele>398</ele>
        <time>2016-02-14T09:25:17.000Z</time>
      </trkpt>
      <trkpt lat="47.47037" lon="6.82205">
        <ele>398</ele>
        <time>2016-02-14T09:25:18.000Z</time>
      </trkpt>
      <trkpt lat="47.47033" lon="6.82205">
        <ele>398</ele>
        <time>2016-02-14T09:25:19.000Z</time>
      </trkpt>
      <trkpt lat="47.4703" lon="6.82205">
        <ele>398</ele>
        <time>2016-02-14T09:25:20.000Z</time>
      </trkpt>
      <trkpt lat="47.47026" lon="6.82205">
        <ele>398</ele>
        <time>2016-02-14T09:25:21.000Z</time>
      </trkpt>
      <trkpt lat="47.47022" lon="6.82205">
        <ele>398</ele>
        <time>2016-02-14T09:25:22.000Z</time>
      </trkpt>
      <trkpt lat="47.47018" lon="6.82205">
        <ele>398</ele>
        <time>2016-02-14T09:25:23.000Z</time>
      </trkpt>
      <trkpt lat="47.47014" lon="6.82205">
        <ele>397</ele>
        <time>2016-02-14T09:25:24.000Z</time>
      </trkpt>
      <trkpt lat="47.4701" lon="6.82204">
        <ele>397</ele>
        <time>2016-02-14T09:25:25.000Z</time>
      </trkpt>
      <trkpt lat="47.47007" lon="6.82203">
        <ele>397</ele>
        <time>2016-02-14T09:25:26.000Z</time>
      </trkpt>
      <trkpt lat="47.47003" lon="6.82202">
        <ele>397</ele>
        <time>2016-02-14T09:25:27.000Z</time>
      </trkpt>
      <trkpt lat="47.47" lon="6.82201">
        <ele>395</ele>
        <time>2016-02-14T09:25:28.000Z</time>
      </trkpt>
      <trkpt lat="47.46996" lon="6.822">
        <ele>395</ele>
        <time>2016-02-14T09:25:29.000Z</time>
      </trkpt>
      <trkpt lat="47.46994" lon="6.822">
        <ele>395</ele>
        <time>2016-02-14T09:25:30.000Z</time>
      </trkpt>
      <trkpt lat="47.46991" lon="6.822">
        <ele>395</ele>
        <time>2016-02-14T09:25:31.000Z</time>
      </trkpt>
      <trkpt lat="47.46987" lon="6.82199">
        <ele>395</ele>
        <time>2016-02-14T09:25:32.000Z</time>
      </trkpt>
      <trkpt lat="47.46984" lon="6.82199">
        <ele>395</ele>
        <time>2016-02-14T09:25:33.000Z</time>
      </trkpt>
      <trkpt lat="47.4698" lon="6.82199">
        <ele>395</ele>
        <time>2016-02-14T09:25:34.000Z</time>
      </trkpt>
      <trkpt lat="47.46976" lon="6.82199">
        <ele>395</ele>
        <time>2016-02-14T09:25:35.000Z</time>
      </trkpt>
      <trkpt lat="47.46972" lon="6.82199">
        <ele>395</ele>
        <time>2016-02-14T09:25:36.000Z</time>
      </trkpt>
      <trkpt lat="47.46969" lon="6.82199">
        <ele>395</ele>
        <time>2016-02-14T09:25:37.000Z</time>
      </trkpt>
      <trkpt lat="47.46966" lon="6.82198">
        <ele>395</ele>
        <time>2016-02-14T09:25:38.000Z</time>
      </trkpt>
      <trkpt lat="47.46962" lon="6.82197">
        <ele>395</ele>
        <time>2016-02-14T09:25:39.000Z</time>
      </trkpt>
      <trkpt lat="47.46959" lon="6.82196">
        <ele>395</ele>
        <time>2016-02-14T09:25:40.000Z</time>
      </trkpt>
      <trkpt lat="47.46956" lon="6.82195">
        <ele>395</ele>
        <time>2016-02-14T09:25:41.000Z</time>
      </trkpt>
      <trkpt lat="47.46952" lon="6.82194">
        <ele>395</ele>
        <time>2016-02-14T09:25:42.000Z</time>
      </trkpt>
      <trkpt lat="47.46949" lon="6.82193">
        <ele>395</ele>
        <time>2016-02-14T09:25:43.000Z</time>
      </trkpt>
      <trkpt lat="47.46945" lon="6.82191">
        <ele>395</ele>
        <time>2016-02-14T09:25:44.000Z</time>
      </trkpt>
      <trkpt lat="47.46941" lon="6.82188">
        <ele>396</ele>
        <time>2016-02-14T09:25:45.000Z</time>
      </trkpt>
      <trkpt lat="47.46937" lon="6.82186">
        <ele>396</ele>
        <time>2016-02-14T09:25:46.000Z</time>
      </trkpt>
      <trkpt lat="47.46933" lon="6.82184">
        <ele>396</ele>
        <time>2016-02-14T09:25:47.000Z</time>
      </trkpt>
      <trkpt lat="47.46929" lon="6.82182">
        <ele>396</ele>
        <time>2016-02-14T09:25:48.000Z</time>
      </trkpt>
      <trkpt lat="47.46926" lon="6.8218">
        <ele>397</ele>
        <time>2016-02-14T09:25:49.000Z</time>
      </trkpt>
      <trkpt lat="47.46923" lon="6.82178">
        <ele>397</ele>
        <time>2016-02-14T09:25:50.000Z</time>
      </trkpt>
      <trkpt lat="47.4692" lon="6.82176">
        <ele>397</ele>
        <time>2016-02-14T09:25:51.000Z</time>
      </trkpt>
      <trkpt lat="47.46917" lon="6.82174">
        <ele>398</ele>
        <time>2016-02-14T09:25:52.000Z</time>
      </trkpt>
      <trkpt lat="47.46915" lon="6.82171">
        <ele>398</ele>
        <time>2016-02-14T09:25:53.000Z</time>
      </trkpt>
      <trkpt lat="47.46912" lon="6.8217">
        <ele>398</ele>
        <time>2016-02-14T09:25:54.000Z</time>
      </trkpt>
      <trkpt lat="47.4691" lon="6.82169">
        <ele>397</ele>
        <time>2016-02-14T09:25:55.000Z</time>
      </trkpt>
      <trkpt lat="47.46907" lon="6.82168">
        <ele>397</ele>
        <time>2016-02-14T09:25:56.000Z</time>
      </trkpt>
      <trkpt lat="47.46905" lon="6.82167">
        <ele>397</ele>
        <time>2016-02-14T09:25:57.000Z</time>
      </trkpt>
      <trkpt lat="47.46903" lon="6.82165">
        <ele>400</ele>
        <time>2016-02-14T09:25:58.000Z</time>
      </trkpt>
      <trkpt lat="47.46901" lon="6.82164">
        <ele>400</ele>
        <time>2016-02-14T09:25:59.000Z</time>
      </trkpt>
      <trkpt lat="47.46898" lon="6.82161">
        <ele>400</ele>
        <time>2016-02-14T09:26:00.000Z</time>
      </trkpt>
      <trkpt lat="47.46896" lon="6.82158">
        <ele>401</ele>
        <time>2016-02-14T09:26:01.000Z</time>
      </trkpt>
      <trkpt lat="47.46894" lon="6.82155">
        <ele>401</ele>
        <time>2016-02-14T09:26:02.000Z</time>
      </trkpt>
      <trkpt lat="47.46891" lon="6.82152">
        <ele>401</ele>
        <time>2016-02-14T09:26:03.000Z</time>
      </trkpt>
      <trkpt lat="47.46889" lon="6.82149">
        <ele>401</ele>
        <time>2016-02-14T09:26:04.000Z</time>
      </trkpt>
      <trkpt lat="47.46887" lon="6.82148">
        <ele>401</ele>
        <time>2016-02-14T09:26:05.000Z</time>
      </trkpt>
      <trkpt lat="47.46884" lon="6.82147">
        <ele>401</ele>
        <time>2016-02-14T09:26:06.000Z</time>
      </trkpt>
      <trkpt lat="47.46882" lon="6.82146">
        <ele>401</ele>
        <time>2016-02-14T09:26:07.000Z</time>
      </trkpt>
      <trkpt lat="47.46879" lon="6.82144">
        <ele>401</ele>
        <time>2016-02-14T09:26:09.000Z</time>
      </trkpt>
      <trkpt lat="47.46877" lon="6.82142">
        <ele>402</ele>
        <time>2016-02-14T09:26:10.000Z</time>
      </trkpt>
      <trkpt lat="47.46876" lon="6.8214">
        <ele>402</ele>
        <time>2016-02-14T09:26:11.000Z</time>
      </trkpt>
      <trkpt lat="47.46874" lon="6.82137">
        <ele>402</ele>
        <time>2016-02-14T09:26:12.000Z</time>
      </trkpt>
      <trkpt lat="47.46872" lon="6.82135">
        <ele>402</ele>
        <time>2016-02-14T09:26:13.000Z</time>
      </trkpt>
      <trkpt lat="47.4687" lon="6.82133">
        <ele>402</ele>
        <time>2016-02-14T09:26:14.000Z</time>
      </trkpt>
      <trkpt lat="47.46868" lon="6.82131">
        <ele>402</ele>
        <time>2016-02-14T09:26:15.000Z</time>
      </trkpt>
      <trkpt lat="47.46866" lon="6.82129">
        <ele>402</ele>
        <time>2016-02-14T09:26:16.000Z</time>
      </trkpt>
      <trkpt lat="47.46862" lon="6.82126">
        <ele>402</ele>
        <time>2016-02-14T09:26:18.000Z</time>
      </trkpt>
      <trkpt lat="47.4686" lon="6.82124">
        <ele>403</ele>
        <time>2016-02-14T09:26:19.000Z</time>
      </trkpt>
      <trkpt lat="47.46856" lon="6.82121">
        <ele>403</ele>
        <time>2016-02-14T09:26:21.000Z</time>
      </trkpt>
      <trkpt lat="47.46854" lon="6.8212">
        <ele>403</ele>
        <time>2016-02-14T09:26:22.000Z</time>
      </trkpt>
      <trkpt lat="47.46852" lon="6.82118">
        <ele>403</ele>
        <time>2016-02-14T09:26:23.000Z</time>
      </trkpt>
      <trkpt lat="47.4685" lon="6.82117">
        <ele>403</ele>
        <time>2016-02-14T09:26:24.000Z</time>
      </trkpt>
      <trkpt lat="47.46848" lon="6.82115">
        <ele>403</ele>
        <time>2016-02-14T09:26:25.000Z</time>
      </trkpt>
      <trkpt lat="47.46845" lon="6.82114">
        <ele>404</ele>
        <time>2016-02-14T09:26:26.000Z</time>
      </trkpt>
      <trkpt lat="47.46842" lon="6.82113">
        <ele>404</ele>
        <time>2016-02-14T09:26:27.000Z</time>
      </trkpt>
      <trkpt lat="47.46839" lon="6.82113">
        <ele>404</ele>
        <time>2016-02-14T09:26:28.000Z</time>
      </trkpt>
      <trkpt lat="47.46836" lon="6.82112">
        <ele>404</ele>
        <time>2016-02-14T09:26:29.000Z</time>
      </trkpt>
      <trkpt lat="47.46833" lon="6.8211">
        <ele>405</ele>
        <time>2016-02-14T09:26:30.000Z</time>
      </trkpt>
      <trkpt lat="47.4683" lon="6.82108">
        <ele>405</ele>
        <time>2016-02-14T09:26:31.000Z</time>
      </trkpt>
      <trkpt lat="47.46827" lon="6.82106">
        <ele>406</ele>
        <time>2016-02-14T09:26:32.000Z</time>
      </trkpt>
      <trkpt lat="47.46825" lon="6.82103">
        <ele>406</ele>
        <time>2016-02-14T09:26:33.000Z</time>
      </trkpt>
      <trkpt lat="47.46822" lon="6.82101">
        <ele>406</ele>
        <time>2016-02-14T09:26:34.000Z</time>
      </trkpt>
      <trkpt lat="47.4682" lon="6.82099">
        <ele>406</ele>
        <time>2016-02-14T09:26:35.000Z</time>
      </trkpt>
      <trkpt lat="47.46817" lon="6.82097">
        <ele>406</ele>
        <time>2016-02-14T09:26:36.000Z</time>
      </trkpt>
      <trkpt lat="47.46815" lon="6.82095">
        <ele>406</ele>
        <time>2016-02-14T09:26:37.000Z</time>
      </trkpt>
      <trkpt lat="47.46812" lon="6.82093">
        <ele>406</ele>
        <time>2016-02-14T09:26:38.000Z</time>
      </trkpt>
      <trkpt lat="47.4681" lon="6.82091">
        <ele>406</ele>
        <time>2016-02-14T09:26:39.000Z</time>
      </trkpt>
      <trkpt lat="47.46807" lon="6.82089">
        <ele>406</ele>
        <time>2016-02-14T09:26:40.000Z</time>
      </trkpt>
      <trkpt lat="47.46804" lon="6.82087">
        <ele>406</ele>
        <time>2016-02-14T09:26:41.000Z</time>
      </trkpt>
      <trkpt lat="47.46801" lon="6.82085">
        <ele>406</ele>
        <time>2016-02-14T09:26:42.000Z</time>
      </trkpt>
      <trkpt lat="47.46797" lon="6.82082">
        <ele>409</ele>
        <time>2016-02-14T09:26:43.000Z</time>
      </trkpt>
      <trkpt lat="47.46794" lon="6.82079">
        <ele>409</ele>
        <time>2016-02-14T09:26:44.000Z</time>
      </trkpt>
      <trkpt lat="47.46791" lon="6.82077">
        <ele>410</ele>
        <time>2016-02-14T09:26:45.000Z</time>
      </trkpt>
      <trkpt lat="47.46787" lon="6.82074">
        <ele>410</ele>
        <time>2016-02-14T09:26:46.000Z</time>
      </trkpt>
      <trkpt lat="47.46785" lon="6.82072">
        <ele>410</ele>
        <time>2016-02-14T09:26:47.000Z</time>
      </trkpt>
      <trkpt lat="47.46782" lon="6.82069">
        <ele>410</ele>
        <time>2016-02-14T09:26:48.000Z</time>
      </trkpt>
      <trkpt lat="47.46779" lon="6.82065">
        <ele>410</ele>
        <time>2016-02-14T09:26:49.000Z</time>
      </trkpt>
      <trkpt lat="47.46776" lon="6.82062">
        <ele>410</ele>
        <time>2016-02-14T09:26:50.000Z</time>
      </trkpt>
      <trkpt lat="47.46773" lon="6.8206">
        <ele>410</ele>
        <time>2016-02-14T09:26:51.000Z</time>
      </trkpt>
      <trkpt lat="47.4677" lon="6.82057">
        <ele>410</ele>
        <time>2016-02-14T09:26:52.000Z</time>
      </trkpt>
      <trkpt lat="47.46766" lon="6.82054">
        <ele>410</ele>
        <time>2016-02-14T09:26:53.000Z</time>
      </trkpt>
      <trkpt lat="47.46762" lon="6.82051">
        <ele>410</ele>
        <time>2016-02-14T09:26:54.000Z</time>
      </trkpt>
      <trkpt lat="47.46757" lon="6.82049">
        <ele>410</ele>
        <time>2016-02-14T09:26:55.000Z</time>
      </trkpt>
      <trkpt lat="47.46754" lon="6.82047">
        <ele>410</ele>
        <time>2016-02-14T09:26:56.000Z</time>
      </trkpt>
      <trkpt lat="47.4675" lon="6.82046">
        <ele>410</ele>
        <time>2016-02-14T09:26:57.000Z</time>
      </trkpt>
      <trkpt lat="47.46746" lon="6.82044">
        <ele>408</ele>
        <time>2016-02-14T09:26:58.000Z</time>
      </trkpt>
      <trkpt lat="47.46741" lon="6.82043">
        <ele>408</ele>
        <time>2016-02-14T09:26:59.000Z</time>
      </trkpt>
      <trkpt lat="47.46736" lon="6.82042">
        <ele>408</ele>
        <time>2016-02-14T09:27:00.000Z</time>
      </trkpt>
      <trkpt lat="47.46724" lon="6.82041">
        <ele>408</ele>
        <time>2016-02-14T09:27:01.000Z</time>
      </trkpt>
      <trkpt lat="47.4672" lon="6.82041">
        <ele>407</ele>
        <time>2016-02-14T09:27:02.000Z</time>
      </trkpt>
      <trkpt lat="47.46716" lon="6.82042">
        <ele>407</ele>
        <time>2016-02-14T09:27:03.000Z</time>
      </trkpt>
      <trkpt lat="47.46712" lon="6.82044">
        <ele>407</ele>
        <time>2016-02-14T09:27:04.000Z</time>
      </trkpt>
      <trkpt lat="47.46707" lon="6.82046">
        <ele>407</ele>
        <time>2016-02-14T09:27:05.000Z</time>
      </trkpt>
      <trkpt lat="47.46702" lon="6.82047">
        <ele>407</ele>
        <time>2016-02-14T09:27:06.000Z</time>
      </trkpt>
      <trkpt lat="47.46697" lon="6.82047">
        <ele>406</ele>
        <time>2016-02-14T09:27:07.000Z</time>
      </trkpt>
      <trkpt lat="47.46688" lon="6.82046">
        <ele>406</ele>
        <time>2016-02-14T09:27:08.000Z</time>
      </trkpt>
      <trkpt lat="47.46681" lon="6.82046">
        <ele>406</ele>
        <time>2016-02-14T09:27:09.000Z</time>
      </trkpt>
      <trkpt lat="47.46674" lon="6.82046">
        <ele>406</ele>
        <time>2016-02-14T09:27:10.000Z</time>
      </trkpt>
      <trkpt lat="47.46663" lon="6.82047">
        <ele>400</ele>
        <time>2016-02-14T09:27:11.000Z</time>
      </trkpt>
      <trkpt lat="47.46655" lon="6.82045">
        <ele>400</ele>
        <time>2016-02-14T09:27:12.000Z</time>
      </trkpt>
      <trkpt lat="47.46649" lon="6.82043">
        <ele>400</ele>
        <time>2016-02-14T09:27:13.000Z</time>
      </trkpt>
      <trkpt lat="47.46644" lon="6.8204">
        <ele>399</ele>
        <time>2016-02-14T09:27:14.000Z</time>
      </trkpt>
      <trkpt lat="47.46638" lon="6.82036">
        <ele>399</ele>
        <time>2016-02-14T09:27:15.000Z</time>
      </trkpt>
      <trkpt lat="47.46632" lon="6.82034">
        <ele>399</ele>
        <time>2016-02-14T09:27:16.000Z</time>
      </trkpt>
      <trkpt lat="47.46625" lon="6.82032">
        <ele>398</ele>
        <time>2016-02-14T09:27:17.000Z</time>
      </trkpt>
      <trkpt lat="47.46618" lon="6.82027">
        <ele>398</ele>
        <time>2016-02-14T09:27:18.000Z</time>
      </trkpt>
      <trkpt lat="47.46615" lon="6.82031">
        <ele>398</ele>
        <time>2016-02-14T09:27:19.000Z</time>
      </trkpt>
      <trkpt lat="47.46611" lon="6.82031">
        <ele>398</ele>
        <time>2016-02-14T09:27:20.000Z</time>
      </trkpt>
      <trkpt lat="47.46606" lon="6.82028">
        <ele>397</ele>
        <time>2016-02-14T09:27:21.000Z</time>
      </trkpt>
      <trkpt lat="47.46601" lon="6.82022">
        <ele>397</ele>
        <time>2016-02-14T09:27:22.000Z</time>
      </trkpt>
      <trkpt lat="47.46599" lon="6.82018">
        <ele>397</ele>
        <time>2016-02-14T09:27:23.000Z</time>
      </trkpt>
      <trkpt lat="47.46595" lon="6.82016">
        <ele>397</ele>
        <time>2016-02-14T09:27:24.000Z</time>
      </trkpt>
      <trkpt lat="47.46592" lon="6.82013">
        <ele>396</ele>
        <time>2016-02-14T09:27:25.000Z</time>
      </trkpt>
      <trkpt lat="47.46589" lon="6.82012">
        <ele>396</ele>
        <time>2016-02-14T09:27:26.000Z</time>
      </trkpt>
      <trkpt lat="47.46586" lon="6.8201">
        <ele>396</ele>
        <time>2016-02-14T09:27:28.000Z</time>
      </trkpt>
      <trkpt lat="47.46585" lon="6.82008">
        <ele>396</ele>
        <time>2016-02-14T09:27:29.000Z</time>
      </trkpt>
      <trkpt lat="47.46582" lon="6.82004">
        <ele>394</ele>
        <time>2016-02-14T09:27:31.000Z</time>
      </trkpt>
      <trkpt lat="47.46582" lon="6.82001">
        <ele>395</ele>
        <time>2016-02-14T09:27:32.000Z</time>
      </trkpt>
      <trkpt lat="47.46582" lon="6.81997">
        <ele>395</ele>
        <time>2016-02-14T09:27:33.000Z</time>
      </trkpt>
      <trkpt lat="47.46583" lon="6.81993">
        <ele>396</ele>
        <time>2016-02-14T09:27:34.000Z</time>
      </trkpt>
      <trkpt lat="47.46585" lon="6.81989">
        <ele>397</ele>
        <time>2016-02-14T09:27:35.000Z</time>
      </trkpt>
      <trkpt lat="47.46586" lon="6.81983">
        <ele>398</ele>
        <time>2016-02-14T09:27:36.000Z</time>
      </trkpt>
      <trkpt lat="47.46588" lon="6.81977">
        <ele>398</ele>
        <time>2016-02-14T09:27:37.000Z</time>
      </trkpt>
      <trkpt lat="47.4659" lon="6.81972">
        <ele>398</ele>
        <time>2016-02-14T09:27:38.000Z</time>
      </trkpt>
      <trkpt lat="47.46591" lon="6.81967">
        <ele>399</ele>
        <time>2016-02-14T09:27:39.000Z</time>
      </trkpt>
      <trkpt lat="47.46593" lon="6.81962">
        <ele>399</ele>
        <time>2016-02-14T09:27:40.000Z</time>
      </trkpt>
      <trkpt lat="47.46595" lon="6.81959">
        <ele>399</ele>
        <time>2016-02-14T09:27:41.000Z</time>
      </trkpt>
      <trkpt lat="47.46597" lon="6.81948">
        <ele>399</ele>
        <time>2016-02-14T09:27:42.000Z</time>
      </trkpt>
      <trkpt lat="47.46598" lon="6.81945">
        <ele>399</ele>
        <time>2016-02-14T09:27:43.000Z</time>
      </trkpt>
      <trkpt lat="47.466" lon="6.81942">
        <ele>399</ele>
        <time>2016-02-14T09:27:44.000Z</time>
      </trkpt>
      <trkpt lat="47.46602" lon="6.81941">
        <ele>399</ele>
        <time>2016-02-14T09:27:45.000Z</time>
      </trkpt>
      <trkpt lat="47.46603" lon="6.81936">
        <ele>399</ele>
        <time>2016-02-14T09:27:46.000Z</time>
      </trkpt>
      <trkpt lat="47.46605" lon="6.81932">
        <ele>399</ele>
        <time>2016-02-14T09:27:47.000Z</time>
      </trkpt>
      <trkpt lat="47.46606" lon="6.8193">
        <ele>399</ele>
        <time>2016-02-14T09:27:48.000Z</time>
      </trkpt>
      <trkpt lat="47.46607" lon="6.81927">
        <ele>400</ele>
        <time>2016-02-14T09:27:49.000Z</time>
      </trkpt>
      <trkpt lat="47.46609" lon="6.81923">
        <ele>400</ele>
        <time>2016-02-14T09:27:50.000Z</time>
      </trkpt>
      <trkpt lat="47.4661" lon="6.8192">
        <ele>400</ele>
        <time>2016-02-14T09:27:51.000Z</time>
      </trkpt>
      <trkpt lat="47.46612" lon="6.81917">
        <ele>400</ele>
        <time>2016-02-14T09:27:52.000Z</time>
      </trkpt>
      <trkpt lat="47.46613" lon="6.81914">
        <ele>400</ele>
        <time>2016-02-14T09:27:53.000Z</time>
      </trkpt>
      <trkpt lat="47.46615" lon="6.81911">
        <ele>400</ele>
        <time>2016-02-14T09:27:54.000Z</time>
      </trkpt>
      <trkpt lat="47.46616" lon="6.81907">
        <ele>400</ele>
        <time>2016-02-14T09:27:55.000Z</time>
      </trkpt>
      <trkpt lat="47.46618" lon="6.81904">
        <ele>400</ele>
        <time>2016-02-14T09:27:56.000Z</time>
      </trkpt>
      <trkpt lat="47.46619" lon="6.819">
        <ele>400</ele>
        <time>2016-02-14T09:27:57.000Z</time>
      </trkpt>
      <trkpt lat="47.46621" lon="6.81895">
        <ele>400</ele>
        <time>2016-02-14T09:27:58.000Z</time>
      </trkpt>
      <trkpt lat="47.46623" lon="6.8189">
        <ele>400</ele>
        <time>2016-02-14T09:27:59.000Z</time>
      </trkpt>
      <trkpt lat="47.46625" lon="6.81885">
        <ele>401</ele>
        <time>2016-02-14T09:28:00.000Z</time>
      </trkpt>
      <trkpt lat="47.46628" lon="6.8188">
        <ele>401</ele>
        <time>2016-02-14T09:28:01.000Z</time>
      </trkpt>
      <trkpt lat="47.4663" lon="6.81876">
        <ele>401</ele>
        <time>2016-02-14T09:28:02.000Z</time>
      </trkpt>
      <trkpt lat="47.46632" lon="6.81871">
        <ele>401</ele>
        <time>2016-02-14T09:28:03.000Z</time>
      </trkpt>
      <trkpt lat="47.46635" lon="6.81866">
        <ele>401</ele>
        <time>2016-02-14T09:28:04.000Z</time>
      </trkpt>
      <trkpt lat="47.46637" lon="6.81861">
        <ele>401</ele>
        <time>2016-02-14T09:28:05.000Z</time>
      </trkpt>
      <trkpt lat="47.46639" lon="6.81856">
        <ele>401</ele>
        <time>2016-02-14T09:28:06.000Z</time>
      </trkpt>
      <trkpt lat="47.46641" lon="6.81852">
        <ele>401</ele>
        <time>2016-02-14T09:28:07.000Z</time>
      </trkpt>
      <trkpt lat="47.46643" lon="6.81848">
        <ele>401</ele>
        <time>2016-02-14T09:28:08.000Z</time>
      </trkpt>
      <trkpt lat="47.46645" lon="6.81844">
        <ele>401</ele>
        <time>2016-02-14T09:28:09.000Z</time>
      </trkpt>
      <trkpt lat="47.46646" lon="6.81839">
        <ele>401</ele>
        <time>2016-02-14T09:28:10.000Z</time>
      </trkpt>
      <trkpt lat="47.46648" lon="6.81835">
        <ele>401</ele>
        <time>2016-02-14T09:28:11.000Z</time>
      </trkpt>
      <trkpt lat="47.4665" lon="6.8183">
        <ele>400</ele>
        <time>2016-02-14T09:28:12.000Z</time>
      </trkpt>
      <trkpt lat="47.46652" lon="6.81826">
        <ele>400</ele>
        <time>2016-02-14T09:28:13.000Z</time>
      </trkpt>
      <trkpt lat="47.46654" lon="6.81821">
        <ele>400</ele>
        <time>2016-02-14T09:28:14.000Z</time>
      </trkpt>
      <trkpt lat="47.46656" lon="6.81816">
        <ele>400</ele>
        <time>2016-02-14T09:28:15.000Z</time>
      </trkpt>
      <trkpt lat="47.46657" lon="6.81811">
        <ele>400</ele>
        <time>2016-02-14T09:28:16.000Z</time>
      </trkpt>
      <trkpt lat="47.46659" lon="6.81806">
        <ele>400</ele>
        <time>2016-02-14T09:28:17.000Z</time>
      </trkpt>
      <trkpt lat="47.4666" lon="6.818">
        <ele>399</ele>
        <time>2016-02-14T09:28:18.000Z</time>
      </trkpt>
      <trkpt lat="47.46661" lon="6.81795">
        <ele>399</ele>
        <time>2016-02-14T09:28:19.000Z</time>
      </trkpt>
      <trkpt lat="47.46663" lon="6.81789">
        <ele>399</ele>
        <time>2016-02-14T09:28:20.000Z</time>
      </trkpt>
      <trkpt lat="47.46664" lon="6.81783">
        <ele>399</ele>
        <time>2016-02-14T09:28:21.000Z</time>
      </trkpt>
      <trkpt lat="47.46666" lon="6.81777">
        <ele>399</ele>
        <time>2016-02-14T09:28:22.000Z</time>
      </trkpt>
      <trkpt lat="47.46667" lon="6.8177">
        <ele>401</ele>
        <time>2016-02-14T09:28:23.000Z</time>
      </trkpt>
      <trkpt lat="47.46669" lon="6.81764">
        <ele>401</ele>
        <time>2016-02-14T09:28:24.000Z</time>
      </trkpt>
      <trkpt lat="47.46671" lon="6.81759">
        <ele>400</ele>
        <time>2016-02-14T09:28:25.000Z</time>
      </trkpt>
      <trkpt lat="47.46673" lon="6.81752">
        <ele>399</ele>
        <time>2016-02-14T09:28:26.000Z</time>
      </trkpt>
      <trkpt lat="47.46674" lon="6.81746">
        <ele>399</ele>
        <time>2016-02-14T09:28:27.000Z</time>
      </trkpt>
      <trkpt lat="47.46675" lon="6.8174">
        <ele>400</ele>
        <time>2016-02-14T09:28:28.000Z</time>
      </trkpt>
      <trkpt lat="47.46677" lon="6.81733">
        <ele>400</ele>
        <time>2016-02-14T09:28:29.000Z</time>
      </trkpt>
      <trkpt lat="47.46678" lon="6.81727">
        <ele>400</ele>
        <time>2016-02-14T09:28:30.000Z</time>
      </trkpt>
      <trkpt lat="47.46681" lon="6.81722">
        <ele>400</ele>
        <time>2016-02-14T09:28:31.000Z</time>
      </trkpt>
      <trkpt lat="47.46682" lon="6.81715">
        <ele>400</ele>
        <time>2016-02-14T09:28:32.000Z</time>
      </trkpt>
      <trkpt lat="47.46684" lon="6.81709">
        <ele>401</ele>
        <time>2016-02-14T09:28:33.000Z</time>
      </trkpt>
      <trkpt lat="47.46686" lon="6.81702">
        <ele>400</ele>
        <time>2016-02-14T09:28:34.000Z</time>
      </trkpt>
      <trkpt lat="47.46688" lon="6.81695">
        <ele>400</ele>
        <time>2016-02-14T09:28:35.000Z</time>
      </trkpt>
      <trkpt lat="47.4669" lon="6.81689">
        <ele>400</ele>
        <time>2016-02-14T09:28:36.000Z</time>
      </trkpt>
      <trkpt lat="47.46692" lon="6.81682">
        <ele>400</ele>
        <time>2016-02-14T09:28:37.000Z</time>
      </trkpt>
      <trkpt lat="47.46694" lon="6.81675">
        <ele>400</ele>
        <time>2016-02-14T09:28:38.000Z</time>
      </trkpt>
      <trkpt lat="47.46695" lon="6.81668">
        <ele>400</ele>
        <time>2016-02-14T09:28:39.000Z</time>
      </trkpt>
      <trkpt lat="47.46697" lon="6.81662">
        <ele>398</ele>
        <time>2016-02-14T09:28:40.000Z</time>
      </trkpt>
      <trkpt lat="47.46698" lon="6.81655">
        <ele>398</ele>
        <time>2016-02-14T09:28:41.000Z</time>
      </trkpt>
      <trkpt lat="47.467" lon="6.81648">
        <ele>398</ele>
        <time>2016-02-14T09:28:42.000Z</time>
      </trkpt>
      <trkpt lat="47.46702" lon="6.81643">
        <ele>398</ele>
        <time>2016-02-14T09:28:43.000Z</time>
      </trkpt>
      <trkpt lat="47.46703" lon="6.81637">
        <ele>398</ele>
        <time>2016-02-14T09:28:44.000Z</time>
      </trkpt>
      <trkpt lat="47.46704" lon="6.81631">
        <ele>398</ele>
        <time>2016-02-14T09:28:45.000Z</time>
      </trkpt>
      <trkpt lat="47.46705" lon="6.81626">
        <ele>398</ele>
        <time>2016-02-14T09:28:46.000Z</time>
      </trkpt>
      <trkpt lat="47.46707" lon="6.8162">
        <ele>398</ele>
        <time>2016-02-14T09:28:47.000Z</time>
      </trkpt>
      <trkpt lat="47.46708" lon="6.81619">
        <ele>398</ele>
        <time>2016-02-14T09:28:48.000Z</time>
      </trkpt>
      <trkpt lat="47.46709" lon="6.81612">
        <ele>398</ele>
        <time>2016-02-14T09:28:49.000Z</time>
      </trkpt>
      <trkpt lat="47.46709" lon="6.81607">
        <ele>398</ele>
        <time>2016-02-14T09:28:50.000Z</time>
      </trkpt>
      <trkpt lat="47.4671" lon="6.81602">
        <ele>398</ele>
        <time>2016-02-14T09:28:51.000Z</time>
      </trkpt>
      <trkpt lat="47.46711" lon="6.81597">
        <ele>398</ele>
        <time>2016-02-14T09:28:52.000Z</time>
      </trkpt>
      <trkpt lat="47.46712" lon="6.81592">
        <ele>398</ele>
        <time>2016-02-14T09:28:53.000Z</time>
      </trkpt>
      <trkpt lat="47.46713" lon="6.81586">
        <ele>398</ele>
        <time>2016-02-14T09:28:54.000Z</time>
      </trkpt>
      <trkpt lat="47.46714" lon="6.81581">
        <ele>395</ele>
        <time>2016-02-14T09:28:55.000Z</time>
      </trkpt>
      <trkpt lat="47.46715" lon="6.81576">
        <ele>395</ele>
        <time>2016-02-14T09:28:56.000Z</time>
      </trkpt>
      <trkpt lat="47.46717" lon="6.81571">
        <ele>395</ele>
        <time>2016-02-14T09:28:57.000Z</time>
      </trkpt>
      <trkpt lat="47.46718" lon="6.81567">
        <ele>395</ele>
        <time>2016-02-14T09:28:58.000Z</time>
      </trkpt>
      <trkpt lat="47.4672" lon="6.81562">
        <ele>395</ele>
        <time>2016-02-14T09:28:59.000Z</time>
      </trkpt>
      <trkpt lat="47.46722" lon="6.81558">
        <ele>395</ele>
        <time>2016-02-14T09:29:00.000Z</time>
      </trkpt>
      <trkpt lat="47.46724" lon="6.81553">
        <ele>394</ele>
        <time>2016-02-14T09:29:01.000Z</time>
      </trkpt>
      <trkpt lat="47.46726" lon="6.81547">
        <ele>394</ele>
        <time>2016-02-14T09:29:02.000Z</time>
      </trkpt>
      <trkpt lat="47.46728" lon="6.81542">
        <ele>394</ele>
        <time>2016-02-14T09:29:03.000Z</time>
      </trkpt>
      <trkpt lat="47.46729" lon="6.81536">
        <ele>394</ele>
        <time>2016-02-14T09:29:04.000Z</time>
      </trkpt>
      <trkpt lat="47.4673" lon="6.81531">
        <ele>394</ele>
        <time>2016-02-14T09:29:05.000Z</time>
      </trkpt>
      <trkpt lat="47.46729" lon="6.81527">
        <ele>394</ele>
        <time>2016-02-14T09:29:06.000Z</time>
      </trkpt>
      <trkpt lat="47.46728" lon="6.81523">
        <ele>393</ele>
        <time>2016-02-14T09:29:07.000Z</time>
      </trkpt>
      <trkpt lat="47.46726" lon="6.81519">
        <ele>393</ele>
        <time>2016-02-14T09:29:08.000Z</time>
      </trkpt>
      <trkpt lat="47.46724" lon="6.81515">
        <ele>393</ele>
        <time>2016-02-14T09:29:09.000Z</time>
      </trkpt>
      <trkpt lat="47.46722" lon="6.81512">
        <ele>393</ele>
        <time>2016-02-14T09:29:10.000Z</time>
      </trkpt>
      <trkpt lat="47.4672" lon="6.81509">
        <ele>393</ele>
        <time>2016-02-14T09:29:11.000Z</time>
      </trkpt>
      <trkpt lat="47.46717" lon="6.81506">
        <ele>393</ele>
        <time>2016-02-14T09:29:12.000Z</time>
      </trkpt>
      <trkpt lat="47.46714" lon="6.81503">
        <ele>393</ele>
        <time>2016-02-14T09:29:13.000Z</time>
      </trkpt>
      <trkpt lat="47.46711" lon="6.81499">
        <ele>391</ele>
        <time>2016-02-14T09:29:14.000Z</time>
      </trkpt>
      <trkpt lat="47.46707" lon="6.81496">
        <ele>391</ele>
        <time>2016-02-14T09:29:15.000Z</time>
      </trkpt>
      <trkpt lat="47.46704" lon="6.81493">
        <ele>391</ele>
        <time>2016-02-14T09:29:16.000Z</time>
      </trkpt>
      <trkpt lat="47.46702" lon="6.81489">
        <ele>391</ele>
        <time>2016-02-14T09:29:17.000Z</time>
      </trkpt>
      <trkpt lat="47.46699" lon="6.81486">
        <ele>391</ele>
        <time>2016-02-14T09:29:18.000Z</time>
      </trkpt>
      <trkpt lat="47.46696" lon="6.81484">
        <ele>391</ele>
        <time>2016-02-14T09:29:19.000Z</time>
      </trkpt>
      <trkpt lat="47.46693" lon="6.81481">
        <ele>391</ele>
        <time>2016-02-14T09:29:20.000Z</time>
      </trkpt>
      <trkpt lat="47.4669" lon="6.81477">
        <ele>391</ele>
        <time>2016-02-14T09:29:21.000Z</time>
      </trkpt>
      <trkpt lat="47.46686" lon="6.81473">
        <ele>391</ele>
        <time>2016-02-14T09:29:22.000Z</time>
      </trkpt>
      <trkpt lat="47.46681" lon="6.81469">
        <ele>391</ele>
        <time>2016-02-14T09:29:23.000Z</time>
      </trkpt>
      <trkpt lat="47.46677" lon="6.81466">
        <ele>391</ele>
        <time>2016-02-14T09:29:24.000Z</time>
      </trkpt>
      <trkpt lat="47.46673" lon="6.81464">
        <ele>391</ele>
        <time>2016-02-14T09:29:25.000Z</time>
      </trkpt>
      <trkpt lat="47.46669" lon="6.81462">
        <ele>391</ele>
        <time>2016-02-14T09:29:26.000Z</time>
      </trkpt>
      <trkpt lat="47.46665" lon="6.8146">
        <ele>392</ele>
        <time>2016-02-14T09:29:27.000Z</time>
      </trkpt>
      <trkpt lat="47.46663" lon="6.8146">
        <ele>392</ele>
        <time>2016-02-14T09:29:28.000Z</time>
      </trkpt>
      <trkpt lat="47.46659" lon="6.81459">
        <ele>392</ele>
        <time>2016-02-14T09:29:30.000Z</time>
      </trkpt>
      <trkpt lat="47.46658" lon="6.81459">
        <ele>392</ele>
        <time>2016-02-14T09:29:31.000Z</time>
      </trkpt>
      <trkpt lat="47.46656" lon="6.81459">
        <ele>392</ele>
        <time>2016-02-14T09:29:32.000Z</time>
      </trkpt>
      <trkpt lat="47.46653" lon="6.81459">
        <ele>392</ele>
        <time>2016-02-14T09:29:33.000Z</time>
      </trkpt>
      <trkpt lat="47.4665" lon="6.8146">
        <ele>392</ele>
        <time>2016-02-14T09:29:34.000Z</time>
      </trkpt>
      <trkpt lat="47.46647" lon="6.81461">
        <ele>393</ele>
        <time>2016-02-14T09:29:35.000Z</time>
      </trkpt>
      <trkpt lat="47.46644" lon="6.81462">
        <ele>393</ele>
        <time>2016-02-14T09:29:36.000Z</time>
      </trkpt>
      <trkpt lat="47.4664" lon="6.81464">
        <ele>393</ele>
        <time>2016-02-14T09:29:37.000Z</time>
      </trkpt>
      <trkpt lat="47.46637" lon="6.81465">
        <ele>393</ele>
        <time>2016-02-14T09:29:38.000Z</time>
      </trkpt>
      <trkpt lat="47.46634" lon="6.81465">
        <ele>393</ele>
        <time>2016-02-14T09:29:39.000Z</time>
      </trkpt>
      <trkpt lat="47.46631" lon="6.81464">
        <ele>393</ele>
        <time>2016-02-14T09:29:40.000Z</time>
      </trkpt>
      <trkpt lat="47.46628" lon="6.81462">
        <ele>393</ele>
        <time>2016-02-14T09:29:41.000Z</time>
      </trkpt>
      <trkpt lat="47.46626" lon="6.81461">
        <ele>393</ele>
        <time>2016-02-14T09:29:42.000Z</time>
      </trkpt>
      <trkpt lat="47.46624" lon="6.81459">
        <ele>394</ele>
        <time>2016-02-14T09:29:43.000Z</time>
      </trkpt>
      <trkpt lat="47.46621" lon="6.81458">
        <ele>394</ele>
        <time>2016-02-14T09:29:44.000Z</time>
      </trkpt>
      <trkpt lat="47.46619" lon="6.81456">
        <ele>394</ele>
        <time>2016-02-14T09:29:45.000Z</time>
      </trkpt>
      <trkpt lat="47.46617" lon="6.81455">
        <ele>394</ele>
        <time>2016-02-14T09:29:46.000Z</time>
      </trkpt>
      <trkpt lat="47.46614" lon="6.81454">
        <ele>394</ele>
        <time>2016-02-14T09:29:47.000Z</time>
      </trkpt>
      <trkpt lat="47.46612" lon="6.81454">
        <ele>394</ele>
        <time>2016-02-14T09:29:48.000Z</time>
      </trkpt>
      <trkpt lat="47.46609" lon="6.81453">
        <ele>394</ele>
        <time>2016-02-14T09:29:49.000Z</time>
      </trkpt>
      <trkpt lat="47.46605" lon="6.81452">
        <ele>394</ele>
        <time>2016-02-14T09:29:51.000Z</time>
      </trkpt>
      <trkpt lat="47.46603" lon="6.81451">
        <ele>394</ele>
        <time>2016-02-14T09:29:52.000Z</time>
      </trkpt>
      <trkpt lat="47.466" lon="6.81448">
        <ele>394</ele>
        <time>2016-02-14T09:29:54.000Z</time>
      </trkpt>
      <trkpt lat="47.46598" lon="6.81447">
        <ele>394</ele>
        <time>2016-02-14T09:29:55.000Z</time>
      </trkpt>
      <trkpt lat="47.46595" lon="6.81445">
        <ele>394</ele>
        <time>2016-02-14T09:29:57.000Z</time>
      </trkpt>
      <trkpt lat="47.46594" lon="6.81444">
        <ele>394</ele>
        <time>2016-02-14T09:29:58.000Z</time>
      </trkpt>
      <trkpt lat="47.46591" lon="6.81443">
        <ele>394</ele>
        <time>2016-02-14T09:29:59.000Z</time>
      </trkpt>
      <trkpt lat="47.46589" lon="6.81442">
        <ele>395</ele>
        <time>2016-02-14T09:30:00.000Z</time>
      </trkpt>
      <trkpt lat="47.46586" lon="6.81441">
        <ele>395</ele>
        <time>2016-02-14T09:30:01.000Z</time>
      </trkpt>
      <trkpt lat="47.46583" lon="6.81441">
        <ele>395</ele>
        <time>2016-02-14T09:30:02.000Z</time>
      </trkpt>
      <trkpt lat="47.4658" lon="6.81439">
        <ele>399</ele>
        <time>2016-02-14T09:30:04.000Z</time>
      </trkpt>
      <trkpt lat="47.46578" lon="6.81438">
        <ele>399</ele>
        <time>2016-02-14T09:30:05.000Z</time>
      </trkpt>
      <trkpt lat="47.46574" lon="6.81437">
        <ele>399</ele>
        <time>2016-02-14T09:30:09.000Z</time>
      </trkpt>
      <trkpt lat="47.46573" lon="6.81437">
        <ele>399</ele>
        <time>2016-02-14T09:30:10.000Z</time>
      </trkpt>
      <trkpt lat="47.4657" lon="6.81436">
        <ele>399</ele>
        <time>2016-02-14T09:30:13.000Z</time>
      </trkpt>
      <trkpt lat="47.46568" lon="6.81435">
        <ele>400</ele>
        <time>2016-02-14T09:30:14.000Z</time>
      </trkpt>
      <trkpt lat="47.46566" lon="6.81434">
        <ele>400</ele>
        <time>2016-02-14T09:30:15.000Z</time>
      </trkpt>
      <trkpt lat="47.46563" lon="6.81433">
        <ele>400</ele>
        <time>2016-02-14T09:30:16.000Z</time>
      </trkpt>
      <trkpt lat="47.46559" lon="6.81432">
        <ele>400</ele>
        <time>2016-02-14T09:30:17.000Z</time>
      </trkpt>
      <trkpt lat="47.46555" lon="6.81431">
        <ele>401</ele>
        <time>2016-02-14T09:30:18.000Z</time>
      </trkpt>
      <trkpt lat="47.46551" lon="6.8143">
        <ele>401</ele>
        <time>2016-02-14T09:30:19.000Z</time>
      </trkpt>
      <trkpt lat="47.46548" lon="6.81429">
        <ele>401</ele>
        <time>2016-02-14T09:30:20.000Z</time>
      </trkpt>
      <trkpt lat="47.46544" lon="6.81428">
        <ele>401</ele>
        <time>2016-02-14T09:30:21.000Z</time>
      </trkpt>
      <trkpt lat="47.46541" lon="6.81427">
        <ele>402</ele>
        <time>2016-02-14T09:30:22.000Z</time>
      </trkpt>
      <trkpt lat="47.46538" lon="6.81427">
        <ele>402</ele>
        <time>2016-02-14T09:30:23.000Z</time>
      </trkpt>
      <trkpt lat="47.46535" lon="6.81426">
        <ele>402</ele>
        <time>2016-02-14T09:30:24.000Z</time>
      </trkpt>
      <trkpt lat="47.46533" lon="6.81426">
        <ele>402</ele>
        <time>2016-02-14T09:30:25.000Z</time>
      </trkpt>
      <trkpt lat="47.4653" lon="6.81426">
        <ele>402</ele>
        <time>2016-02-14T09:30:26.000Z</time>
      </trkpt>
      <trkpt lat="47.46526" lon="6.81425">
        <ele>403</ele>
        <time>2016-02-14T09:30:28.000Z</time>
      </trkpt>
      <trkpt lat="47.46524" lon="6.81425">
        <ele>403</ele>
        <time>2016-02-14T09:30:29.000Z</time>
      </trkpt>
      <trkpt lat="47.4652" lon="6.81424">
        <ele>403</ele>
        <time>2016-02-14T09:30:31.000Z</time>
      </trkpt>
      <trkpt lat="47.46518" lon="6.81424">
        <ele>403</ele>
        <time>2016-02-14T09:30:32.000Z</time>
      </trkpt>
      <trkpt lat="47.46515" lon="6.81423">
        <ele>403</ele>
        <time>2016-02-14T09:30:34.000Z</time>
      </trkpt>
      <trkpt lat="47.46513" lon="6.81423">
        <ele>403</ele>
        <time>2016-02-14T09:30:35.000Z</time>
      </trkpt>
      <trkpt lat="47.46509" lon="6.81423">
        <ele>403</ele>
        <time>2016-02-14T09:30:37.000Z</time>
      </trkpt>
      <trkpt lat="47.46507" lon="6.81423">
        <ele>404</ele>
        <time>2016-02-14T09:30:38.000Z</time>
      </trkpt>
      <trkpt lat="47.46503" lon="6.81423">
        <ele>404</ele>
        <time>2016-02-14T09:30:40.000Z</time>
      </trkpt>
      <trkpt lat="47.46501" lon="6.81423">
        <ele>404</ele>
        <time>2016-02-14T09:30:41.000Z</time>
      </trkpt>
      <trkpt lat="47.46496" lon="6.81423">
        <ele>406</ele>
        <time>2016-02-14T09:30:43.000Z</time>
      </trkpt>
      <trkpt lat="47.46494" lon="6.81422">
        <ele>406</ele>
        <time>2016-02-14T09:30:44.000Z</time>
      </trkpt>
      <trkpt lat="47.4649" lon="6.81421">
        <ele>406</ele>
        <time>2016-02-14T09:30:46.000Z</time>
      </trkpt>
      <trkpt lat="47.46488" lon="6.8142">
        <ele>407</ele>
        <time>2016-02-14T09:30:47.000Z</time>
      </trkpt>
      <trkpt lat="47.46486" lon="6.81419">
        <ele>407</ele>
        <time>2016-02-14T09:30:48.000Z</time>
      </trkpt>
      <trkpt lat="47.46483" lon="6.81418">
        <ele>407</ele>
        <time>2016-02-14T09:30:49.000Z</time>
      </trkpt>
      <trkpt lat="47.46481" lon="6.81416">
        <ele>406</ele>
        <time>2016-02-14T09:30:50.000Z</time>
      </trkpt>
      <trkpt lat="47.46479" lon="6.81415">
        <ele>406</ele>
        <time>2016-02-14T09:30:51.000Z</time>
      </trkpt>
      <trkpt lat="47.46476" lon="6.81413">
        <ele>406</ele>
        <time>2016-02-14T09:30:52.000Z</time>
      </trkpt>
      <trkpt lat="47.46474" lon="6.81412">
        <ele>406</ele>
        <time>2016-02-14T09:30:53.000Z</time>
      </trkpt>
      <trkpt lat="47.46472" lon="6.81411">
        <ele>406</ele>
        <time>2016-02-14T09:30:54.000Z</time>
      </trkpt>
      <trkpt lat="47.4647" lon="6.81409">
        <ele>406</ele>
        <time>2016-02-14T09:30:55.000Z</time>
      </trkpt>
      <trkpt lat="47.46467" lon="6.81407">
        <ele>406</ele>
        <time>2016-02-14T09:30:56.000Z</time>
      </trkpt>
      <trkpt lat="47.46465" lon="6.81405">
        <ele>407</ele>
        <time>2016-02-14T09:30:57.000Z</time>
      </trkpt>
      <trkpt lat="47.46463" lon="6.81402">
        <ele>407</ele>
        <time>2016-02-14T09:30:58.000Z</time>
      </trkpt>
      <trkpt lat="47.4646" lon="6.814">
        <ele>407</ele>
        <time>2016-02-14T09:30:59.000Z</time>
      </trkpt>
      <trkpt lat="47.46458" lon="6.81398">
        <ele>407</ele>
        <time>2016-02-14T09:31:00.000Z</time>
      </trkpt>
      <trkpt lat="47.46456" lon="6.81396">
        <ele>407</ele>
        <time>2016-02-14T09:31:01.000Z</time>
      </trkpt>
      <trkpt lat="47.46454" lon="6.81394">
        <ele>407</ele>
        <time>2016-02-14T09:31:02.000Z</time>
      </trkpt>
      <trkpt lat="47.46452" lon="6.81392">
        <ele>407</ele>
        <time>2016-02-14T09:31:03.000Z</time>
      </trkpt>
      <trkpt lat="47.46448" lon="6.8139">
        <ele>408</ele>
        <time>2016-02-14T09:31:05.000Z</time>
      </trkpt>
      <trkpt lat="47.46446" lon="6.81388">
        <ele>408</ele>
        <time>2016-02-14T09:31:06.000Z</time>
      </trkpt>
      <trkpt lat="47.46444" lon="6.81387">
        <ele>408</ele>
        <time>2016-02-14T09:31:07.000Z</time>
      </trkpt>
      <trkpt lat="47.46442" lon="6.81386">
        <ele>408</ele>
        <time>2016-02-14T09:31:08.000Z</time>
      </trkpt>
      <trkpt lat="47.46439" lon="6.81384">
        <ele>408</ele>
        <time>2016-02-14T09:31:09.999Z</time>
      </trkpt>
      <trkpt lat="47.46437" lon="6.81383">
        <ele>408</ele>
        <time>2016-02-14T09:31:11.000Z</time>
      </trkpt>
      <trkpt lat="47.46434" lon="6.81382">
        <ele>408</ele>
        <time>2016-02-14T09:31:13.000Z</time>
      </trkpt>
      <trkpt lat="47.46432" lon="6.81381">
        <ele>408</ele>
        <time>2016-02-14T09:31:14.000Z</time>
      </trkpt>
      <trkpt lat="47.46428" lon="6.81379">
        <ele>408</ele>
        <time>2016-02-14T09:31:16.000Z</time>
      </trkpt>
      <trkpt lat="47.46426" lon="6.81378">
        <ele>408</ele>
        <time>2016-02-14T09:31:17.000Z</time>
      </trkpt>
      <trkpt lat="47.46423" lon="6.81377">
        <ele>408</ele>
        <time>2016-02-14T09:31:18.000Z</time>
      </trkpt>
      <trkpt lat="47.46421" lon="6.81375">
        <ele>408</ele>
        <time>2016-02-14T09:31:19.000Z</time>
      </trkpt>
      <trkpt lat="47.46419" lon="6.81374">
        <ele>409</ele>
        <time>2016-02-14T09:31:20.000Z</time>
      </trkpt>
      <trkpt lat="47.46417" lon="6.81372">
        <ele>409</ele>
        <time>2016-02-14T09:31:21.000Z</time>
      </trkpt>
      <trkpt lat="47.46415" lon="6.8137">
        <ele>415</ele>
        <time>2016-02-14T09:31:22.000Z</time>
      </trkpt>
      <trkpt lat="47.46413" lon="6.81368">
        <ele>415</ele>
        <time>2016-02-14T09:31:23.000Z</time>
      </trkpt>
      <trkpt lat="47.4641" lon="6.81366">
        <ele>415</ele>
        <time>2016-02-14T09:31:25.000Z</time>
      </trkpt>
      <trkpt lat="47.46408" lon="6.81366">
        <ele>415</ele>
        <time>2016-02-14T09:31:26.000Z</time>
      </trkpt>
      <trkpt lat="47.46405" lon="6.81363">
        <ele>415</ele>
        <time>2016-02-14T09:31:29.000Z</time>
      </trkpt>
      <trkpt lat="47.46404" lon="6.81362">
        <ele>415</ele>
        <time>2016-02-14T09:31:30.000Z</time>
      </trkpt>
      <trkpt lat="47.46401" lon="6.81359">
        <ele>415</ele>
        <time>2016-02-14T09:31:33.000Z</time>
      </trkpt>
      <trkpt lat="47.46399" lon="6.81358">
        <ele>415</ele>
        <time>2016-02-14T09:31:34.000Z</time>
      </trkpt>
      <trkpt lat="47.46396" lon="6.81355">
        <ele>415</ele>
        <time>2016-02-14T09:31:36.000Z</time>
      </trkpt>
      <trkpt lat="47.46395" lon="6.81354">
        <ele>415</ele>
        <time>2016-02-14T09:31:37.000Z</time>
      </trkpt>
      <trkpt lat="47.46391" lon="6.81351">
        <ele>415</ele>
        <time>2016-02-14T09:31:39.000Z</time>
      </trkpt>
      <trkpt lat="47.46389" lon="6.8135">
        <ele>415</ele>
        <time>2016-02-14T09:31:40.000Z</time>
      </trkpt>
      <trkpt lat="47.46385" lon="6.81348">
        <ele>415</ele>
        <time>2016-02-14T09:31:42.000Z</time>
      </trkpt>
      <trkpt lat="47.46383" lon="6.81346">
        <ele>416</ele>
        <time>2016-02-14T09:31:43.000Z</time>
      </trkpt>
      <trkpt lat="47.4638" lon="6.81343">
        <ele>416</ele>
        <time>2016-02-14T09:31:45.000Z</time>
      </trkpt>
      <trkpt lat="47.46378" lon="6.81341">
        <ele>416</ele>
        <time>2016-02-14T09:31:46.000Z</time>
      </trkpt>
      <trkpt lat="47.46375" lon="6.81338">
        <ele>416</ele>
        <time>2016-02-14T09:31:48.000Z</time>
      </trkpt>
      <trkpt lat="47.46373" lon="6.81337">
        <ele>416</ele>
        <time>2016-02-14T09:31:49.000Z</time>
      </trkpt>
      <trkpt lat="47.46371" lon="6.81336">
        <ele>416</ele>
        <time>2016-02-14T09:31:50.000Z</time>
      </trkpt>
      <trkpt lat="47.46369" lon="6.81334">
        <ele>417</ele>
        <time>2016-02-14T09:31:51.000Z</time>
      </trkpt>
      <trkpt lat="47.46366" lon="6.81333">
        <ele>415</ele>
        <time>2016-02-14T09:31:52.000Z</time>
      </trkpt>
      <trkpt lat="47.46364" lon="6.81331">
        <ele>415</ele>
        <time>2016-02-14T09:31:53.000Z</time>
      </trkpt>
      <trkpt lat="47.46362" lon="6.8133">
        <ele>415</ele>
        <time>2016-02-14T09:31:54.000Z</time>
      </trkpt>
      <trkpt lat="47.4636" lon="6.81328">
        <ele>415</ele>
        <time>2016-02-14T09:31:55.000Z</time>
      </trkpt>
      <trkpt lat="47.46357" lon="6.81326">
        <ele>415</ele>
        <time>2016-02-14T09:31:56.000Z</time>
      </trkpt>
      <trkpt lat="47.46355" lon="6.81324">
        <ele>415</ele>
        <time>2016-02-14T09:31:57.000Z</time>
      </trkpt>
      <trkpt lat="47.46352" lon="6.8132">
        <ele>415</ele>
        <time>2016-02-14T09:31:59.000Z</time>
      </trkpt>
      <trkpt lat="47.4635" lon="6.81319">
        <ele>416</ele>
        <time>2016-02-14T09:32:00.000Z</time>
      </trkpt>
      <trkpt lat="47.46347" lon="6.81316">
        <ele>416</ele>
        <time>2016-02-14T09:32:02.000Z</time>
      </trkpt>
      <trkpt lat="47.46345" lon="6.81315">
        <ele>416</ele>
        <time>2016-02-14T09:32:03.000Z</time>
      </trkpt>
      <trkpt lat="47.46342" lon="6.81312">
        <ele>415</ele>
        <time>2016-02-14T09:32:05.000Z</time>
      </trkpt>
      <trkpt lat="47.4634" lon="6.8131">
        <ele>415</ele>
        <time>2016-02-14T09:32:06.000Z</time>
      </trkpt>
      <trkpt lat="47.46338" lon="6.81308">
        <ele>415</ele>
        <time>2016-02-14T09:32:07.000Z</time>
      </trkpt>
      <trkpt lat="47.46336" lon="6.81306">
        <ele>415</ele>
        <time>2016-02-14T09:32:08.000Z</time>
      </trkpt>
      <trkpt lat="47.46334" lon="6.81304">
        <ele>415</ele>
        <time>2016-02-14T09:32:09.000Z</time>
      </trkpt>
      <trkpt lat="47.46332" lon="6.81303">
        <ele>417</ele>
        <time>2016-02-14T09:32:10.000Z</time>
      </trkpt>
      <trkpt lat="47.46328" lon="6.813">
        <ele>417</ele>
        <time>2016-02-14T09:32:12.000Z</time>
      </trkpt>
      <trkpt lat="47.46326" lon="6.81299">
        <ele>417</ele>
        <time>2016-02-14T09:32:13.000Z</time>
      </trkpt>
      <trkpt lat="47.46323" lon="6.81298">
        <ele>417</ele>
        <time>2016-02-14T09:32:14.000Z</time>
      </trkpt>
      <trkpt lat="47.46321" lon="6.81297">
        <ele>417</ele>
        <time>2016-02-14T09:32:15.000Z</time>
      </trkpt>
      <trkpt lat="47.46318" lon="6.81296">
        <ele>417</ele>
        <time>2016-02-14T09:32:16.000Z</time>
      </trkpt>
      <trkpt lat="47.46316" lon="6.81296">
        <ele>417</ele>
        <time>2016-02-14T09:32:17.000Z</time>
      </trkpt>
      <trkpt lat="47.46313" lon="6.81295">
        <ele>417</ele>
        <time>2016-02-14T09:32:18.000Z</time>
      </trkpt>
      <trkpt lat="47.46311" lon="6.81293">
        <ele>417</ele>
        <time>2016-02-14T09:32:19.000Z</time>
      </trkpt>
      <trkpt lat="47.46309" lon="6.81292">
        <ele>417</ele>
        <time>2016-02-14T09:32:20.000Z</time>
      </trkpt>
      <trkpt lat="47.46306" lon="6.81291">
        <ele>417</ele>
        <time>2016-02-14T09:32:21.000Z</time>
      </trkpt>
      <trkpt lat="47.46303" lon="6.8129">
        <ele>416</ele>
        <time>2016-02-14T09:32:22.000Z</time>
      </trkpt>
      <trkpt lat="47.463" lon="6.81289">
        <ele>416</ele>
        <time>2016-02-14T09:32:23.000Z</time>
      </trkpt>
      <trkpt lat="47.46297" lon="6.81287">
        <ele>416</ele>
        <time>2016-02-14T09:32:24.000Z</time>
      </trkpt>
      <trkpt lat="47.46294" lon="6.81286">
        <ele>416</ele>
        <time>2016-02-14T09:32:25.000Z</time>
      </trkpt>
      <trkpt lat="47.46291" lon="6.81285">
        <ele>416</ele>
        <time>2016-02-14T09:32:26.000Z</time>
      </trkpt>
      <trkpt lat="47.46288" lon="6.81283">
        <ele>416</ele>
        <time>2016-02-14T09:32:27.000Z</time>
      </trkpt>
      <trkpt lat="47.46285" lon="6.81281">
        <ele>416</ele>
        <time>2016-02-14T09:32:28.000Z</time>
      </trkpt>
      <trkpt lat="47.46282" lon="6.81279">
        <ele>416</ele>
        <time>2016-02-14T09:32:29.000Z</time>
      </trkpt>
      <trkpt lat="47.4628" lon="6.81277">
        <ele>416</ele>
        <time>2016-02-14T09:32:30.000Z</time>
      </trkpt>
      <trkpt lat="47.46278" lon="6.81274">
        <ele>416</ele>
        <time>2016-02-14T09:32:31.000Z</time>
      </trkpt>
      <trkpt lat="47.46275" lon="6.81271">
        <ele>416</ele>
        <time>2016-02-14T09:32:32.000Z</time>
      </trkpt>
      <trkpt lat="47.46273" lon="6.81268">
        <ele>415</ele>
        <time>2016-02-14T09:32:33.000Z</time>
      </trkpt>
      <trkpt lat="47.4627" lon="6.81264">
        <ele>415</ele>
        <time>2016-02-14T09:32:34.000Z</time>
      </trkpt>
      <trkpt lat="47.46268" lon="6.81261">
        <ele>415</ele>
        <time>2016-02-14T09:32:35.000Z</time>
      </trkpt>
      <trkpt lat="47.46266" lon="6.81259">
        <ele>415</ele>
        <time>2016-02-14T09:32:36.000Z</time>
      </trkpt>
      <trkpt lat="47.46263" lon="6.81257">
        <ele>415</ele>
        <time>2016-02-14T09:32:37.000Z</time>
      </trkpt>
      <trkpt lat="47.4626" lon="6.81257">
        <ele>414</ele>
        <time>2016-02-14T09:32:38.000Z</time>
      </trkpt>
      <trkpt lat="47.46257" lon="6.81256">
        <ele>414</ele>
        <time>2016-02-14T09:32:39.000Z</time>
      </trkpt>
      <trkpt lat="47.46254" lon="6.81256">
        <ele>414</ele>
        <time>2016-02-14T09:32:40.000Z</time>
      </trkpt>
      <trkpt lat="47.46251" lon="6.81256">
        <ele>414</ele>
        <time>2016-02-14T09:32:41.000Z</time>
      </trkpt>
      <trkpt lat="47.46248" lon="6.81254">
        <ele>414</ele>
        <time>2016-02-14T09:32:42.000Z</time>
      </trkpt>
      <trkpt lat="47.46246" lon="6.81253">
        <ele>414</ele>
        <time>2016-02-14T09:32:43.000Z</time>
      </trkpt>
      <trkpt lat="47.46243" lon="6.81252">
        <ele>414</ele>
        <time>2016-02-14T09:32:44.000Z</time>
      </trkpt>
      <trkpt lat="47.4624" lon="6.8125">
        <ele>413</ele>
        <time>2016-02-14T09:32:45.000Z</time>
      </trkpt>
      <trkpt lat="47.46238" lon="6.81248">
        <ele>413</ele>
        <time>2016-02-14T09:32:46.000Z</time>
      </trkpt>
      <trkpt lat="47.46235" lon="6.81246">
        <ele>413</ele>
        <time>2016-02-14T09:32:47.000Z</time>
      </trkpt>
      <trkpt lat="47.46233" lon="6.81245">
        <ele>413</ele>
        <time>2016-02-14T09:32:48.000Z</time>
      </trkpt>
      <trkpt lat="47.4623" lon="6.81243">
        <ele>413</ele>
        <time>2016-02-14T09:32:49.000Z</time>
      </trkpt>
      <trkpt lat="47.46227" lon="6.81242">
        <ele>413</ele>
        <time>2016-02-14T09:32:50.000Z</time>
      </trkpt>
      <trkpt lat="47.46224" lon="6.8124">
        <ele>413</ele>
        <time>2016-02-14T09:32:51.000Z</time>
      </trkpt>
      <trkpt lat="47.46221" lon="6.81239">
        <ele>413</ele>
        <time>2016-02-14T09:32:52.000Z</time>
      </trkpt>
      <trkpt lat="47.46218" lon="6.81237">
        <ele>413</ele>
        <time>2016-02-14T09:32:53.000Z</time>
      </trkpt>
      <trkpt lat="47.46216" lon="6.81235">
        <ele>413</ele>
        <time>2016-02-14T09:32:54.000Z</time>
      </trkpt>
      <trkpt lat="47.46213" lon="6.81232">
        <ele>413</ele>
        <time>2016-02-14T09:32:55.000Z</time>
      </trkpt>
      <trkpt lat="47.4621" lon="6.81229">
        <ele>413</ele>
        <time>2016-02-14T09:32:56.000Z</time>
      </trkpt>
      <trkpt lat="47.46207" lon="6.81226">
        <ele>413</ele>
        <time>2016-02-14T09:32:57.000Z</time>
      </trkpt>
      <trkpt lat="47.46204" lon="6.81223">
        <ele>413</ele>
        <time>2016-02-14T09:32:58.000Z</time>
      </trkpt>
      <trkpt lat="47.46201" lon="6.81222">
        <ele>413</ele>
        <time>2016-02-14T09:32:59.000Z</time>
      </trkpt>
      <trkpt lat="47.46198" lon="6.8122">
        <ele>413</ele>
        <time>2016-02-14T09:33:00.000Z</time>
      </trkpt>
      <trkpt lat="47.46195" lon="6.81219">
        <ele>413</ele>
        <time>2016-02-14T09:33:01.000Z</time>
      </trkpt>
      <trkpt lat="47.46192" lon="6.81218">
        <ele>413</ele>
        <time>2016-02-14T09:33:02.000Z</time>
      </trkpt>
      <trkpt lat="47.46189" lon="6.81217">
        <ele>413</ele>
        <time>2016-02-14T09:33:03.000Z</time>
      </trkpt>
      <trkpt lat="47.46185" lon="6.81216">
        <ele>413</ele>
        <time>2016-02-14T09:33:04.000Z</time>
      </trkpt>
      <trkpt lat="47.46181" lon="6.81215">
        <ele>413</ele>
        <time>2016-02-14T09:33:05.000Z</time>
      </trkpt>
      <trkpt lat="47.46177" lon="6.81213">
        <ele>413</ele>
        <time>2016-02-14T09:33:06.000Z</time>
      </trkpt>
      <trkpt lat="47.46174" lon="6.81211">
        <ele>413</ele>
        <time>2016-02-14T09:33:07.000Z</time>
      </trkpt>
      <trkpt lat="47.4617" lon="6.81209">
        <ele>413</ele>
        <time>2016-02-14T09:33:08.000Z</time>
      </trkpt>
      <trkpt lat="47.46167" lon="6.81206">
        <ele>412</ele>
        <time>2016-02-14T09:33:09.000Z</time>
      </trkpt>
      <trkpt lat="47.46162" lon="6.81203">
        <ele>412</ele>
        <time>2016-02-14T09:33:10.000Z</time>
      </trkpt>
      <trkpt lat="47.46157" lon="6.81201">
        <ele>412</ele>
        <time>2016-02-14T09:33:11.000Z</time>
      </trkpt>
      <trkpt lat="47.46151" lon="6.81198">
        <ele>412</ele>
        <time>2016-02-14T09:33:12.000Z</time>
      </trkpt>
      <trkpt lat="47.46146" lon="6.81194">
        <ele>411</ele>
        <time>2016-02-14T09:33:13.000Z</time>
      </trkpt>
      <trkpt lat="47.46141" lon="6.81192">
        <ele>411</ele>
        <time>2016-02-14T09:33:14.000Z</time>
      </trkpt>
      <trkpt lat="47.46136" lon="6.81189">
        <ele>411</ele>
        <time>2016-02-14T09:33:15.000Z</time>
      </trkpt>
      <trkpt lat="47.46131" lon="6.81185">
        <ele>411</ele>
        <time>2016-02-14T09:33:16.000Z</time>
      </trkpt>
      <trkpt lat="47.46125" lon="6.81181">
        <ele>410</ele>
        <time>2016-02-14T09:33:17.000Z</time>
      </trkpt>
      <trkpt lat="47.4612" lon="6.81176">
        <ele>410</ele>
        <time>2016-02-14T09:33:18.000Z</time>
      </trkpt>
      <trkpt lat="47.46115" lon="6.81169">
        <ele>410</ele>
        <time>2016-02-14T09:33:19.000Z</time>
      </trkpt>
      <trkpt lat="47.46096" lon="6.81148">
        <ele>407</ele>
        <time>2016-02-14T09:33:20.000Z</time>
      </trkpt>
      <trkpt lat="47.4609" lon="6.8114">
        <ele>406</ele>
        <time>2016-02-14T09:33:21.000Z</time>
      </trkpt>
      <trkpt lat="47.46085" lon="6.81133">
        <ele>406</ele>
        <time>2016-02-14T09:33:22.000Z</time>
      </trkpt>
      <trkpt lat="47.46077" lon="6.81128">
        <ele>404</ele>
        <time>2016-02-14T09:33:23.000Z</time>
      </trkpt>
      <trkpt lat="47.46071" lon="6.81117">
        <ele>403</ele>
        <time>2016-02-14T09:33:24.000Z</time>
      </trkpt>
      <trkpt lat="47.46065" lon="6.81105">
        <ele>403</ele>
        <time>2016-02-14T09:33:25.000Z</time>
      </trkpt>
      <trkpt lat="47.4606" lon="6.811">
        <ele>403</ele>
        <time>2016-02-14T09:33:26.000Z</time>
      </trkpt>
      <trkpt lat="47.46055" lon="6.81097">
        <ele>403</ele>
        <time>2016-02-14T09:33:27.000Z</time>
      </trkpt>
      <trkpt lat="47.46049" lon="6.81096">
        <ele>402</ele>
        <time>2016-02-14T09:33:28.000Z</time>
      </trkpt>
      <trkpt lat="47.46043" lon="6.81094">
        <ele>402</ele>
        <time>2016-02-14T09:33:29.000Z</time>
      </trkpt>
      <trkpt lat="47.46037" lon="6.81092">
        <ele>402</ele>
        <time>2016-02-14T09:33:30.000Z</time>
      </trkpt>
      <trkpt lat="47.46032" lon="6.81089">
        <ele>401</ele>
        <time>2016-02-14T09:33:31.000Z</time>
      </trkpt>
      <trkpt lat="47.46027" lon="6.81086">
        <ele>401</ele>
        <time>2016-02-14T09:33:32.000Z</time>
      </trkpt>
      <trkpt lat="47.46024" lon="6.8108">
        <ele>399</ele>
        <time>2016-02-14T09:33:33.000Z</time>
      </trkpt>
      <trkpt lat="47.46019" lon="6.81075">
        <ele>399</ele>
        <time>2016-02-14T09:33:34.000Z</time>
      </trkpt>
      <trkpt lat="47.46017" lon="6.81072">
        <ele>398</ele>
        <time>2016-02-14T09:33:35.000Z</time>
      </trkpt>
      <trkpt lat="47.46015" lon="6.81068">
        <ele>398</ele>
        <time>2016-02-14T09:33:36.000Z</time>
      </trkpt>
      <trkpt lat="47.46014" lon="6.81064">
        <ele>398</ele>
        <time>2016-02-14T09:33:37.000Z</time>
      </trkpt>
      <trkpt lat="47.46014" lon="6.81061">
        <ele>398</ele>
        <time>2016-02-14T09:33:38.000Z</time>
      </trkpt>
      <trkpt lat="47.46012" lon="6.81055">
        <ele>398</ele>
        <time>2016-02-14T09:33:40.000Z</time>
      </trkpt>
      <trkpt lat="47.46011" lon="6.81052">
        <ele>398</ele>
        <time>2016-02-14T09:33:41.000Z</time>
      </trkpt>
      <trkpt lat="47.46011" lon="6.81048">
        <ele>398</ele>
        <time>2016-02-14T09:33:42.000Z</time>
      </trkpt>
      <trkpt lat="47.46009" lon="6.81044">
        <ele>398</ele>
        <time>2016-02-14T09:33:43.000Z</time>
      </trkpt>
      <trkpt lat="47.46008" lon="6.81039">
        <ele>398</ele>
        <time>2016-02-14T09:33:44.000Z</time>
      </trkpt>
      <trkpt lat="47.46007" lon="6.81034">
        <ele>398</ele>
        <time>2016-02-14T09:33:45.000Z</time>
      </trkpt>
      <trkpt lat="47.46006" lon="6.81029">
        <ele>397</ele>
        <time>2016-02-14T09:33:46.000Z</time>
      </trkpt>
      <trkpt lat="47.46005" lon="6.81023">
        <ele>397</ele>
        <time>2016-02-14T09:33:47.000Z</time>
      </trkpt>
      <trkpt lat="47.46004" lon="6.81018">
        <ele>396</ele>
        <time>2016-02-14T09:33:48.000Z</time>
      </trkpt>
      <trkpt lat="47.46003" lon="6.81013">
        <ele>396</ele>
        <time>2016-02-14T09:33:49.000Z</time>
      </trkpt>
      <trkpt lat="47.46002" lon="6.81008">
        <ele>395</ele>
        <time>2016-02-14T09:33:50.000Z</time>
      </trkpt>
      <trkpt lat="47.46002" lon="6.81003">
        <ele>394</ele>
        <time>2016-02-14T09:33:51.000Z</time>
      </trkpt>
      <trkpt lat="47.46001" lon="6.80998">
        <ele>393</ele>
        <time>2016-02-14T09:33:52.000Z</time>
      </trkpt>
      <trkpt lat="47.46" lon="6.80993">
        <ele>394</ele>
        <time>2016-02-14T09:33:53.000Z</time>
      </trkpt>
      <trkpt lat="47.46" lon="6.80988">
        <ele>391</ele>
        <time>2016-02-14T09:33:54.000Z</time>
      </trkpt>
      <trkpt lat="47.45999" lon="6.80983">
        <ele>390</ele>
        <time>2016-02-14T09:33:55.000Z</time>
      </trkpt>
      <trkpt lat="47.45997" lon="6.80977">
        <ele>390</ele>
        <time>2016-02-14T09:33:56.000Z</time>
      </trkpt>
      <trkpt lat="47.45996" lon="6.80972">
        <ele>389</ele>
        <time>2016-02-14T09:33:57.000Z</time>
      </trkpt>
      <trkpt lat="47.45994" lon="6.80966">
        <ele>389</ele>
        <time>2016-02-14T09:33:58.000Z</time>
      </trkpt>
      <trkpt lat="47.45993" lon="6.8096">
        <ele>388</ele>
        <time>2016-02-14T09:33:59.000Z</time>
      </trkpt>
      <trkpt lat="47.45992" lon="6.80955">
        <ele>388</ele>
        <time>2016-02-14T09:34:00.000Z</time>
      </trkpt>
      <trkpt lat="47.45991" lon="6.80949">
        <ele>388</ele>
        <time>2016-02-14T09:34:01.000Z</time>
      </trkpt>
      <trkpt lat="47.4599" lon="6.80938">
        <ele>388</ele>
        <time>2016-02-14T09:34:02.000Z</time>
      </trkpt>
      <trkpt lat="47.45989" lon="6.80931">
        <ele>388</ele>
        <time>2016-02-14T09:34:03.000Z</time>
      </trkpt>
      <trkpt lat="47.45988" lon="6.80927">
        <ele>388</ele>
        <time>2016-02-14T09:34:04.000Z</time>
      </trkpt>
      <trkpt lat="47.45987" lon="6.80924">
        <ele>388</ele>
        <time>2016-02-14T09:34:05.000Z</time>
      </trkpt>
      <trkpt lat="47.45986" lon="6.80918">
        <ele>388</ele>
        <time>2016-02-14T09:34:08.000Z</time>
      </trkpt>
      <trkpt lat="47.45986" lon="6.80916">
        <ele>388</ele>
        <time>2016-02-14T09:34:09.000Z</time>
      </trkpt>
      <trkpt lat="47.45985" lon="6.8091">
        <ele>388</ele>
        <time>2016-02-14T09:34:12.000Z</time>
      </trkpt>
      <trkpt lat="47.45984" lon="6.80908">
        <ele>388</ele>
        <time>2016-02-14T09:34:13.000Z</time>
      </trkpt>
      <trkpt lat="47.45982" lon="6.80902">
        <ele>387</ele>
        <time>2016-02-14T09:34:19.000Z</time>
      </trkpt>
      <trkpt lat="47.45981" lon="6.80902">
        <ele>387</ele>
        <time>2016-02-14T09:34:20.000Z</time>
      </trkpt>
      <trkpt lat="47.4598" lon="6.80897">
        <ele>387</ele>
        <time>2016-02-14T09:34:31.000Z</time>
      </trkpt>
      <trkpt lat="47.4598" lon="6.80895">
        <ele>387</ele>
        <time>2016-02-14T09:34:32.000Z</time>
      </trkpt>
      <trkpt lat="47.45979" lon="6.8089">
        <ele>387</ele>
        <time>2016-02-14T09:34:36.000Z</time>
      </trkpt>
      <trkpt lat="47.45979" lon="6.80888">
        <ele>387</ele>
        <time>2016-02-14T09:34:37.000Z</time>
      </trkpt>
      <trkpt lat="47.45979" lon="6.80882">
        <ele>387</ele>
        <time>2016-02-14T09:34:44.000Z</time>
      </trkpt>
      <trkpt lat="47.45979" lon="6.80881">
        <ele>387</ele>
        <time>2016-02-14T09:34:45.000Z</time>
      </trkpt>
      <trkpt lat="47.45979" lon="6.80875">
        <ele>387</ele>
        <time>2016-02-14T09:34:48.000Z</time>
      </trkpt>
      <trkpt lat="47.45979" lon="6.80873">
        <ele>387</ele>
        <time>2016-02-14T09:34:49.000Z</time>
      </trkpt>
      <trkpt lat="47.45979" lon="6.80867">
        <ele>387</ele>
        <time>2016-02-14T09:34:53.000Z</time>
      </trkpt>
      <trkpt lat="47.45979" lon="6.80866">
        <ele>387</ele>
        <time>2016-02-14T09:34:54.000Z</time>
      </trkpt>
      <trkpt lat="47.4598" lon="6.8086">
        <ele>387</ele>
        <time>2016-02-14T09:34:57.000Z</time>
      </trkpt>
      <trkpt lat="47.4598" lon="6.80858">
        <ele>387</ele>
        <time>2016-02-14T09:34:58.000Z</time>
      </trkpt>
      <trkpt lat="47.4598" lon="6.80851">
        <ele>387</ele>
        <time>2016-02-14T09:35:03.000Z</time>
      </trkpt>
      <trkpt lat="47.4598" lon="6.8085">
        <ele>387</ele>
        <time>2016-02-14T09:35:04.000Z</time>
      </trkpt>
      <trkpt lat="47.45979" lon="6.80845">
        <ele>388</ele>
        <time>2016-02-14T09:35:16.000Z</time>
      </trkpt>
      <trkpt lat="47.4598" lon="6.80843">
        <ele>388</ele>
        <time>2016-02-14T09:35:17.000Z</time>
      </trkpt>
      <trkpt lat="47.45981" lon="6.80839">
        <ele>388</ele>
        <time>2016-02-14T09:35:20.000Z</time>
      </trkpt>
      <trkpt lat="47.45982" lon="6.80837">
        <ele>388</ele>
        <time>2016-02-14T09:35:21.000Z</time>
      </trkpt>
      <trkpt lat="47.45982" lon="6.80832">
        <ele>388</ele>
        <time>2016-02-14T09:35:24.000Z</time>
      </trkpt>
      <trkpt lat="47.45982" lon="6.8083">
        <ele>388</ele>
        <time>2016-02-14T09:35:25.000Z</time>
      </trkpt>
      <trkpt lat="47.45985" lon="6.80825">
        <ele>388</ele>
        <time>2016-02-14T09:35:28.000Z</time>
      </trkpt>
      <trkpt lat="47.45986" lon="6.80823">
        <ele>388</ele>
        <time>2016-02-14T09:35:29.000Z</time>
      </trkpt>
      <trkpt lat="47.45987" lon="6.80818">
        <ele>388</ele>
        <time>2016-02-14T09:35:31.000Z</time>
      </trkpt>
      <trkpt lat="47.45988" lon="6.80816">
        <ele>388</ele>
        <time>2016-02-14T09:35:32.000Z</time>
      </trkpt>
      <trkpt lat="47.45989" lon="6.80811">
        <ele>388</ele>
        <time>2016-02-14T09:35:34.000Z</time>
      </trkpt>
      <trkpt lat="47.45989" lon="6.80808">
        <ele>388</ele>
        <time>2016-02-14T09:35:35.000Z</time>
      </trkpt>
      <trkpt lat="47.45989" lon="6.80803">
        <ele>388</ele>
        <time>2016-02-14T09:35:37.000Z</time>
      </trkpt>
      <trkpt lat="47.45989" lon="6.80801">
        <ele>388</ele>
        <time>2016-02-14T09:35:38.000Z</time>
      </trkpt>
      <trkpt lat="47.45988" lon="6.80794">
        <ele>387</ele>
        <time>2016-02-14T09:35:41.000Z</time>
      </trkpt>
      <trkpt lat="47.45988" lon="6.80793">
        <ele>387</ele>
        <time>2016-02-14T09:35:42.000Z</time>
      </trkpt>
      <trkpt lat="47.45989" lon="6.80787">
        <ele>387</ele>
        <time>2016-02-14T09:35:45.000Z</time>
      </trkpt>
      <trkpt lat="47.45989" lon="6.80785">
        <ele>387</ele>
        <time>2016-02-14T09:35:46.000Z</time>
      </trkpt>
      <trkpt lat="47.45989" lon="6.80779">
        <ele>388</ele>
        <time>2016-02-14T09:35:49.000Z</time>
      </trkpt>
      <trkpt lat="47.4599" lon="6.80778">
        <ele>388</ele>
        <time>2016-02-14T09:35:50.000Z</time>
      </trkpt>
      <trkpt lat="47.45992" lon="6.80772">
        <ele>388</ele>
        <time>2016-02-14T09:35:53.000Z</time>
      </trkpt>
      <trkpt lat="47.45992" lon="6.8077">
        <ele>388</ele>
        <time>2016-02-14T09:35:54.000Z</time>
      </trkpt>
      <trkpt lat="47.45994" lon="6.80765">
        <ele>389</ele>
        <time>2016-02-14T09:35:57.000Z</time>
      </trkpt>
      <trkpt lat="47.45994" lon="6.80763">
        <ele>389</ele>
        <time>2016-02-14T09:35:58.000Z</time>
      </trkpt>
      <trkpt lat="47.45994" lon="6.80757">
        <ele>389</ele>
        <time>2016-02-14T09:36:01.000Z</time>
      </trkpt>
      <trkpt lat="47.45994" lon="6.80754">
        <ele>390</ele>
        <time>2016-02-14T09:36:02.000Z</time>
      </trkpt>
      <trkpt lat="47.45994" lon="6.80748">
        <ele>389</ele>
        <time>2016-02-14T09:36:06.000Z</time>
      </trkpt>
      <trkpt lat="47.45995" lon="6.80746">
        <ele>389</ele>
        <time>2016-02-14T09:36:07.000Z</time>
      </trkpt>
      <trkpt lat="47.45995" lon="6.8074">
        <ele>388</ele>
        <time>2016-02-14T09:36:11.000Z</time>
      </trkpt>
      <trkpt lat="47.45996" lon="6.80738">
        <ele>388</ele>
        <time>2016-02-14T09:36:12.000Z</time>
      </trkpt>
      <trkpt lat="47.45998" lon="6.80732">
        <ele>388</ele>
        <time>2016-02-14T09:36:15.000Z</time>
      </trkpt>
      <trkpt lat="47.45998" lon="6.8073">
        <ele>387</ele>
        <time>2016-02-14T09:36:16.000Z</time>
      </trkpt>
      <trkpt lat="47.45999" lon="6.80725">
        <ele>387</ele>
        <time>2016-02-14T09:36:18.000Z</time>
      </trkpt>
      <trkpt lat="47.45999" lon="6.80723">
        <ele>387</ele>
        <time>2016-02-14T09:36:19.000Z</time>
      </trkpt>
      <trkpt lat="47.46" lon="6.80717">
        <ele>391</ele>
        <time>2016-02-14T09:36:21.000Z</time>
      </trkpt>
      <trkpt lat="47.46001" lon="6.80715">
        <ele>391</ele>
        <time>2016-02-14T09:36:22.000Z</time>
      </trkpt>
      <trkpt lat="47.46003" lon="6.8071">
        <ele>391</ele>
        <time>2016-02-14T09:36:25.000Z</time>
      </trkpt>
      <trkpt lat="47.46004" lon="6.80708">
        <ele>391</ele>
        <time>2016-02-14T09:36:26.000Z</time>
      </trkpt>
      <trkpt lat="47.46006" lon="6.80704">
        <ele>391</ele>
        <time>2016-02-14T09:36:29.000Z</time>
      </trkpt>
      <trkpt lat="47.46007" lon="6.80701">
        <ele>391</ele>
        <time>2016-02-14T09:36:30.000Z</time>
      </trkpt>
      <trkpt lat="47.46008" lon="6.80696">
        <ele>391</ele>
        <time>2016-02-14T09:36:32.000Z</time>
      </trkpt>
      <trkpt lat="47.46009" lon="6.80694">
        <ele>391</ele>
        <time>2016-02-14T09:36:33.000Z</time>
      </trkpt>
      <trkpt lat="47.46011" lon="6.80689">
        <ele>391</ele>
        <time>2016-02-14T09:36:36.000Z</time>
      </trkpt>
      <trkpt lat="47.46012" lon="6.80688">
        <ele>391</ele>
        <time>2016-02-14T09:36:37.000Z</time>
      </trkpt>
      <trkpt lat="47.46015" lon="6.80685">
        <ele>391</ele>
        <time>2016-02-14T09:36:40.000Z</time>
      </trkpt>
      <trkpt lat="47.46016" lon="6.80683">
        <ele>391</ele>
        <time>2016-02-14T09:36:41.000Z</time>
      </trkpt>
      <trkpt lat="47.46018" lon="6.80679">
        <ele>391</ele>
        <time>2016-02-14T09:36:43.000Z</time>
      </trkpt>
      <trkpt lat="47.46018" lon="6.80676">
        <ele>391</ele>
        <time>2016-02-14T09:36:44.000Z</time>
      </trkpt>
      <trkpt lat="47.46019" lon="6.80672">
        <ele>391</ele>
        <time>2016-02-14T09:36:45.000Z</time>
      </trkpt>
      <trkpt lat="47.4602" lon="6.80668">
        <ele>391</ele>
        <time>2016-02-14T09:36:46.000Z</time>
      </trkpt>
      <trkpt lat="47.4602" lon="6.80665">
        <ele>393</ele>
        <time>2016-02-14T09:36:47.000Z</time>
      </trkpt>
      <trkpt lat="47.46021" lon="6.80661">
        <ele>393</ele>
        <time>2016-02-14T09:36:48.000Z</time>
      </trkpt>
      <trkpt lat="47.46023" lon="6.80656">
        <ele>394</ele>
        <time>2016-02-14T09:36:51.000Z</time>
      </trkpt>
      <trkpt lat="47.46024" lon="6.80654">
        <ele>394</ele>
        <time>2016-02-14T09:36:52.000Z</time>
      </trkpt>
      <trkpt lat="47.46026" lon="6.80651">
        <ele>394</ele>
        <time>2016-02-14T09:36:54.000Z</time>
      </trkpt>
      <trkpt lat="47.46027" lon="6.80648">
        <ele>394</ele>
        <time>2016-02-14T09:36:55.000Z</time>
      </trkpt>
      <trkpt lat="47.46029" lon="6.80643">
        <ele>394</ele>
        <time>2016-02-14T09:36:57.000Z</time>
      </trkpt>
      <trkpt lat="47.46029" lon="6.8064">
        <ele>394</ele>
        <time>2016-02-14T09:36:58.000Z</time>
      </trkpt>
      <trkpt lat="47.4603" lon="6.80634">
        <ele>395</ele>
        <time>2016-02-14T09:37:00.000Z</time>
      </trkpt>
      <trkpt lat="47.46032" lon="6.80633">
        <ele>395</ele>
        <time>2016-02-14T09:37:01.000Z</time>
      </trkpt>
      <trkpt lat="47.46034" lon="6.80629">
        <ele>395</ele>
        <time>2016-02-14T09:37:03.000Z</time>
      </trkpt>
      <trkpt lat="47.46034" lon="6.80627">
        <ele>395</ele>
        <time>2016-02-14T09:37:04.000Z</time>
      </trkpt>
      <trkpt lat="47.46036" lon="6.80621">
        <ele>395</ele>
        <time>2016-02-14T09:37:07.000Z</time>
      </trkpt>
      <trkpt lat="47.46036" lon="6.80618">
        <ele>395</ele>
        <time>2016-02-14T09:37:08.000Z</time>
      </trkpt>
      <trkpt lat="47.46037" lon="6.80614">
        <ele>395</ele>
        <time>2016-02-14T09:37:10.000Z</time>
      </trkpt>
      <trkpt lat="47.46038" lon="6.80611">
        <ele>396</ele>
        <time>2016-02-14T09:37:11.000Z</time>
      </trkpt>
      <trkpt lat="47.46038" lon="6.80608">
        <ele>396</ele>
        <time>2016-02-14T09:37:12.000Z</time>
      </trkpt>
      <trkpt lat="47.46039" lon="6.80604">
        <ele>396</ele>
        <time>2016-02-14T09:37:13.000Z</time>
      </trkpt>
      <trkpt lat="47.46039" lon="6.806">
        <ele>396</ele>
        <time>2016-02-14T09:37:14.000Z</time>
      </trkpt>
      <trkpt lat="47.46039" lon="6.80595">
        <ele>396</ele>
        <time>2016-02-14T09:37:15.000Z</time>
      </trkpt>
      <trkpt lat="47.46039" lon="6.80591">
        <ele>396</ele>
        <time>2016-02-14T09:37:16.000Z</time>
      </trkpt>
      <trkpt lat="47.46039" lon="6.80587">
        <ele>396</ele>
        <time>2016-02-14T09:37:17.000Z</time>
      </trkpt>
      <trkpt lat="47.4604" lon="6.80583">
        <ele>398</ele>
        <time>2016-02-14T09:37:18.000Z</time>
      </trkpt>
      <trkpt lat="47.4604" lon="6.8058">
        <ele>398</ele>
        <time>2016-02-14T09:37:19.000Z</time>
      </trkpt>
      <trkpt lat="47.46041" lon="6.80574">
        <ele>398</ele>
        <time>2016-02-14T09:37:21.000Z</time>
      </trkpt>
      <trkpt lat="47.46041" lon="6.80571">
        <ele>398</ele>
        <time>2016-02-14T09:37:22.000Z</time>
      </trkpt>
      <trkpt lat="47.46042" lon="6.80565">
        <ele>398</ele>
        <time>2016-02-14T09:37:24.000Z</time>
      </trkpt>
      <trkpt lat="47.46042" lon="6.80562">
        <ele>398</ele>
        <time>2016-02-14T09:37:25.000Z</time>
      </trkpt>
      <trkpt lat="47.46043" lon="6.80558">
        <ele>398</ele>
        <time>2016-02-14T09:37:26.000Z</time>
      </trkpt>
      <trkpt lat="47.46043" lon="6.80555">
        <ele>398</ele>
        <time>2016-02-14T09:37:27.000Z</time>
      </trkpt>
      <trkpt lat="47.46045" lon="6.80549">
        <ele>398</ele>
        <time>2016-02-14T09:37:29.000Z</time>
      </trkpt>
      <trkpt lat="47.46046" lon="6.80546">
        <ele>398</ele>
        <time>2016-02-14T09:37:30.000Z</time>
      </trkpt>
      <trkpt lat="47.46046" lon="6.8054">
        <ele>398</ele>
        <time>2016-02-14T09:37:32.000Z</time>
      </trkpt>
      <trkpt lat="47.46046" lon="6.80537">
        <ele>398</ele>
        <time>2016-02-14T09:37:33.000Z</time>
      </trkpt>
      <trkpt lat="47.46048" lon="6.80533">
        <ele>398</ele>
        <time>2016-02-14T09:37:36.000Z</time>
      </trkpt>
      <trkpt lat="47.46048" lon="6.80531">
        <ele>398</ele>
        <time>2016-02-14T09:37:37.000Z</time>
      </trkpt>
      <trkpt lat="47.4605" lon="6.80525">
        <ele>399</ele>
        <time>2016-02-14T09:37:40.000Z</time>
      </trkpt>
      <trkpt lat="47.46051" lon="6.80523">
        <ele>399</ele>
        <time>2016-02-14T09:37:41.000Z</time>
      </trkpt>
      <trkpt lat="47.46053" lon="6.80518">
        <ele>399</ele>
        <time>2016-02-14T09:37:43.000Z</time>
      </trkpt>
      <trkpt lat="47.46053" lon="6.80515">
        <ele>399</ele>
        <time>2016-02-14T09:37:44.000Z</time>
      </trkpt>
      <trkpt lat="47.46055" lon="6.8051">
        <ele>399</ele>
        <time>2016-02-14T09:37:46.000Z</time>
      </trkpt>
      <trkpt lat="47.46056" lon="6.80508">
        <ele>399</ele>
        <time>2016-02-14T09:37:47.000Z</time>
      </trkpt>
      <trkpt lat="47.46058" lon="6.80502">
        <ele>399</ele>
        <time>2016-02-14T09:37:49.000Z</time>
      </trkpt>
      <trkpt lat="47.46058" lon="6.805">
        <ele>400</ele>
        <time>2016-02-14T09:37:50.000Z</time>
      </trkpt>
      <trkpt lat="47.46058" lon="6.80494">
        <ele>400</ele>
        <time>2016-02-14T09:37:52.000Z</time>
      </trkpt>
      <trkpt lat="47.46058" lon="6.80491">
        <ele>400</ele>
        <time>2016-02-14T09:37:53.000Z</time>
      </trkpt>
      <trkpt lat="47.46058" lon="6.80486">
        <ele>400</ele>
        <time>2016-02-14T09:37:55.000Z</time>
      </trkpt>
      <trkpt lat="47.46058" lon="6.80483">
        <ele>400</ele>
        <time>2016-02-14T09:37:56.000Z</time>
      </trkpt>
      <trkpt lat="47.46058" lon="6.80477">
        <ele>400</ele>
        <time>2016-02-14T09:37:58.000Z</time>
      </trkpt>
      <trkpt lat="47.46057" lon="6.80474">
        <ele>400</ele>
        <time>2016-02-14T09:37:59.000Z</time>
      </trkpt>
      <trkpt lat="47.46057" lon="6.80468">
        <ele>400</ele>
        <time>2016-02-14T09:38:01.000Z</time>
      </trkpt>
      <trkpt lat="47.46057" lon="6.80466">
        <ele>400</ele>
        <time>2016-02-14T09:38:02.000Z</time>
      </trkpt>
      <trkpt lat="47.46056" lon="6.80461">
        <ele>400</ele>
        <time>2016-02-14T09:38:04.000Z</time>
      </trkpt>
      <trkpt lat="47.46056" lon="6.80459">
        <ele>400</ele>
        <time>2016-02-14T09:38:05.000Z</time>
      </trkpt>
      <trkpt lat="47.46056" lon="6.80454">
        <ele>400</ele>
        <time>2016-02-14T09:38:07.000Z</time>
      </trkpt>
      <trkpt lat="47.46056" lon="6.80452">
        <ele>400</ele>
        <time>2016-02-14T09:38:08.000Z</time>
      </trkpt>
      <trkpt lat="47.46056" lon="6.80446">
        <ele>400</ele>
        <time>2016-02-14T09:38:10.000Z</time>
      </trkpt>
      <trkpt lat="47.46056" lon="6.80443">
        <ele>400</ele>
        <time>2016-02-14T09:38:11.000Z</time>
      </trkpt>
      <trkpt lat="47.46056" lon="6.80439">
        <ele>401</ele>
        <time>2016-02-14T09:38:12.000Z</time>
      </trkpt>
      <trkpt lat="47.46056" lon="6.80435">
        <ele>401</ele>
        <time>2016-02-14T09:38:13.000Z</time>
      </trkpt>
      <trkpt lat="47.46056" lon="6.8043">
        <ele>401</ele>
        <time>2016-02-14T09:38:14.000Z</time>
      </trkpt>
      <trkpt lat="47.46056" lon="6.80426">
        <ele>401</ele>
        <time>2016-02-14T09:38:15.000Z</time>
      </trkpt>
      <trkpt lat="47.46056" lon="6.80421">
        <ele>401</ele>
        <time>2016-02-14T09:38:16.000Z</time>
      </trkpt>
      <trkpt lat="47.46055" lon="6.80417">
        <ele>401</ele>
        <time>2016-02-14T09:38:17.000Z</time>
      </trkpt>
      <trkpt lat="47.46055" lon="6.80413">
        <ele>403</ele>
        <time>2016-02-14T09:38:18.000Z</time>
      </trkpt>
      <trkpt lat="47.46055" lon="6.80409">
        <ele>402</ele>
        <time>2016-02-14T09:38:19.000Z</time>
      </trkpt>
      <trkpt lat="47.46053" lon="6.80403">
        <ele>402</ele>
        <time>2016-02-14T09:38:21.000Z</time>
      </trkpt>
      <trkpt lat="47.46053" lon="6.804">
        <ele>402</ele>
        <time>2016-02-14T09:38:22.000Z</time>
      </trkpt>
      <trkpt lat="47.46051" lon="6.80395">
        <ele>402</ele>
        <time>2016-02-14T09:38:24.000Z</time>
      </trkpt>
      <trkpt lat="47.46051" lon="6.80393">
        <ele>402</ele>
        <time>2016-02-14T09:38:25.000Z</time>
      </trkpt>
      <trkpt lat="47.4605" lon="6.80388">
        <ele>402</ele>
        <time>2016-02-14T09:38:27.000Z</time>
      </trkpt>
      <trkpt lat="47.46049" lon="6.80385">
        <ele>402</ele>
        <time>2016-02-14T09:38:28.000Z</time>
      </trkpt>
      <trkpt lat="47.46047" lon="6.80381">
        <ele>402</ele>
        <time>2016-02-14T09:38:30.000Z</time>
      </trkpt>
      <trkpt lat="47.46047" lon="6.80378">
        <ele>402</ele>
        <time>2016-02-14T09:38:31.000Z</time>
      </trkpt>
      <trkpt lat="47.46047" lon="6.80372">
        <ele>402</ele>
        <time>2016-02-14T09:38:33.000Z</time>
      </trkpt>
      <trkpt lat="47.46046" lon="6.8037">
        <ele>402</ele>
        <time>2016-02-14T09:38:34.000Z</time>
      </trkpt>
      <trkpt lat="47.46045" lon="6.80364">
        <ele>402</ele>
        <time>2016-02-14T09:38:36.000Z</time>
      </trkpt>
      <trkpt lat="47.46045" lon="6.80362">
        <ele>402</ele>
        <time>2016-02-14T09:38:37.000Z</time>
      </trkpt>
      <trkpt lat="47.46044" lon="6.80356">
        <ele>402</ele>
        <time>2016-02-14T09:38:39.000Z</time>
      </trkpt>
      <trkpt lat="47.46043" lon="6.80353">
        <ele>402</ele>
        <time>2016-02-14T09:38:40.000Z</time>
      </trkpt>
      <trkpt lat="47.46041" lon="6.80347">
        <ele>402</ele>
        <time>2016-02-14T09:38:42.000Z</time>
      </trkpt>
      <trkpt lat="47.4604" lon="6.80344">
        <ele>402</ele>
        <time>2016-02-14T09:38:43.000Z</time>
      </trkpt>
      <trkpt lat="47.46039" lon="6.80339">
        <ele>402</ele>
        <time>2016-02-14T09:38:45.000Z</time>
      </trkpt>
      <trkpt lat="47.46038" lon="6.80337">
        <ele>402</ele>
        <time>2016-02-14T09:38:46.000Z</time>
      </trkpt>
      <trkpt lat="47.46037" lon="6.80333">
        <ele>403</ele>
        <time>2016-02-14T09:38:48.000Z</time>
      </trkpt>
      <trkpt lat="47.46036" lon="6.8033">
        <ele>403</ele>
        <time>2016-02-14T09:38:49.000Z</time>
      </trkpt>
      <trkpt lat="47.46034" lon="6.80326">
        <ele>403</ele>
        <time>2016-02-14T09:38:51.000Z</time>
      </trkpt>
      <trkpt lat="47.46033" lon="6.80323">
        <ele>403</ele>
        <time>2016-02-14T09:38:52.000Z</time>
      </trkpt>
      <trkpt lat="47.46031" lon="6.80318">
        <ele>403</ele>
        <time>2016-02-14T09:38:54.000Z</time>
      </trkpt>
      <trkpt lat="47.46031" lon="6.80316">
        <ele>403</ele>
        <time>2016-02-14T09:38:55.000Z</time>
      </trkpt>
      <trkpt lat="47.46029" lon="6.80311">
        <ele>403</ele>
        <time>2016-02-14T09:38:57.000Z</time>
      </trkpt>
      <trkpt lat="47.46028" lon="6.80307">
        <ele>403</ele>
        <time>2016-02-14T09:38:58.000Z</time>
      </trkpt>
      <trkpt lat="47.46027" lon="6.80303">
        <ele>403</ele>
        <time>2016-02-14T09:38:59.000Z</time>
      </trkpt>
      <trkpt lat="47.46026" lon="6.80299">
        <ele>403</ele>
        <time>2016-02-14T09:39:00.000Z</time>
      </trkpt>
      <trkpt lat="47.46025" lon="6.80293">
        <ele>403</ele>
        <time>2016-02-14T09:39:02.000Z</time>
      </trkpt>
      <trkpt lat="47.46025" lon="6.80291">
        <ele>403</ele>
        <time>2016-02-14T09:39:03.000Z</time>
      </trkpt>
      <trkpt lat="47.46022" lon="6.80287">
        <ele>403</ele>
        <time>2016-02-14T09:39:09.000Z</time>
      </trkpt>
      <trkpt lat="47.46021" lon="6.80285">
        <ele>403</ele>
        <time>2016-02-14T09:39:10.000Z</time>
      </trkpt>
      <trkpt lat="47.4602" lon="6.80279">
        <ele>403</ele>
        <time>2016-02-14T09:39:12.000Z</time>
      </trkpt>
      <trkpt lat="47.46019" lon="6.80276">
        <ele>403</ele>
        <time>2016-02-14T09:39:13.000Z</time>
      </trkpt>
      <trkpt lat="47.46017" lon="6.80271">
        <ele>402</ele>
        <time>2016-02-14T09:39:15.000Z</time>
      </trkpt>
      <trkpt lat="47.46017" lon="6.80268">
        <ele>402</ele>
        <time>2016-02-14T09:39:16.000Z</time>
      </trkpt>
      <trkpt lat="47.46015" lon="6.80263">
        <ele>402</ele>
        <time>2016-02-14T09:39:18.000Z</time>
      </trkpt>
      <trkpt lat="47.46015" lon="6.8026">
        <ele>402</ele>
        <time>2016-02-14T09:39:19.000Z</time>
      </trkpt>
      <trkpt lat="47.46014" lon="6.80254">
        <ele>402</ele>
        <time>2016-02-14T09:39:21.000Z</time>
      </trkpt>
      <trkpt lat="47.46014" lon="6.80251">
        <ele>402</ele>
        <time>2016-02-14T09:39:22.000Z</time>
      </trkpt>
      <trkpt lat="47.46013" lon="6.80246">
        <ele>402</ele>
        <time>2016-02-14T09:39:24.000Z</time>
      </trkpt>
      <trkpt lat="47.46013" lon="6.80243">
        <ele>403</ele>
        <time>2016-02-14T09:39:25.000Z</time>
      </trkpt>
      <trkpt lat="47.46013" lon="6.80239">
        <ele>403</ele>
        <time>2016-02-14T09:39:26.000Z</time>
      </trkpt>
      <trkpt lat="47.46013" lon="6.80236">
        <ele>403</ele>
        <time>2016-02-14T09:39:27.000Z</time>
      </trkpt>
      <trkpt lat="47.46013" lon="6.80232">
        <ele>403</ele>
        <time>2016-02-14T09:39:28.000Z</time>
      </trkpt>
      <trkpt lat="47.46013" lon="6.80228">
        <ele>404</ele>
        <time>2016-02-14T09:39:29.000Z</time>
      </trkpt>
      <trkpt lat="47.46013" lon="6.80224">
        <ele>404</ele>
        <time>2016-02-14T09:39:30.000Z</time>
      </trkpt>
      <trkpt lat="47.46012" lon="6.8022">
        <ele>404</ele>
        <time>2016-02-14T09:39:31.000Z</time>
      </trkpt>
      <trkpt lat="47.46012" lon="6.80217">
        <ele>404</ele>
        <time>2016-02-14T09:39:32.000Z</time>
      </trkpt>
      <trkpt lat="47.46012" lon="6.80214">
        <ele>404</ele>
        <time>2016-02-14T09:39:33.000Z</time>
      </trkpt>
      <trkpt lat="47.46011" lon="6.80207">
        <ele>404</ele>
        <time>2016-02-14T09:39:35.000Z</time>
      </trkpt>
      <trkpt lat="47.46011" lon="6.80204">
        <ele>404</ele>
        <time>2016-02-14T09:39:36.000Z</time>
      </trkpt>
      <trkpt lat="47.4601" lon="6.80198">
        <ele>405</ele>
        <time>2016-02-14T09:39:38.000Z</time>
      </trkpt>
      <trkpt lat="47.4601" lon="6.80194">
        <ele>405</ele>
        <time>2016-02-14T09:39:39.000Z</time>
      </trkpt>
      <trkpt lat="47.4601" lon="6.80191">
        <ele>404</ele>
        <time>2016-02-14T09:39:40.000Z</time>
      </trkpt>
      <trkpt lat="47.46009" lon="6.80186">
        <ele>404</ele>
        <time>2016-02-14T09:39:41.000Z</time>
      </trkpt>
      <trkpt lat="47.46008" lon="6.8018">
        <ele>404</ele>
        <time>2016-02-14T09:39:42.000Z</time>
      </trkpt>
      <trkpt lat="47.46007" lon="6.80174">
        <ele>404</ele>
        <time>2016-02-14T09:39:43.000Z</time>
      </trkpt>
      <trkpt lat="47.46006" lon="6.80168">
        <ele>404</ele>
        <time>2016-02-14T09:39:44.000Z</time>
      </trkpt>
      <trkpt lat="47.46006" lon="6.80162">
        <ele>404</ele>
        <time>2016-02-14T09:39:45.000Z</time>
      </trkpt>
      <trkpt lat="47.46005" lon="6.80156">
        <ele>405</ele>
        <time>2016-02-14T09:39:46.000Z</time>
      </trkpt>
      <trkpt lat="47.46005" lon="6.8015">
        <ele>405</ele>
        <time>2016-02-14T09:39:47.000Z</time>
      </trkpt>
      <trkpt lat="47.46004" lon="6.80145">
        <ele>405</ele>
        <time>2016-02-14T09:39:48.000Z</time>
      </trkpt>
      <trkpt lat="47.46004" lon="6.8014">
        <ele>405</ele>
        <time>2016-02-14T09:39:49.000Z</time>
      </trkpt>
      <trkpt lat="47.46004" lon="6.80135">
        <ele>406</ele>
        <time>2016-02-14T09:39:50.000Z</time>
      </trkpt>
      <trkpt lat="47.46004" lon="6.8013">
        <ele>406</ele>
        <time>2016-02-14T09:39:51.000Z</time>
      </trkpt>
      <trkpt lat="47.46004" lon="6.80125">
        <ele>406</ele>
        <time>2016-02-14T09:39:52.000Z</time>
      </trkpt>
      <trkpt lat="47.46004" lon="6.8012">
        <ele>406</ele>
        <time>2016-02-14T09:39:53.000Z</time>
      </trkpt>
      <trkpt lat="47.46004" lon="6.80114">
        <ele>406</ele>
        <time>2016-02-14T09:39:54.000Z</time>
      </trkpt>
      <trkpt lat="47.46004" lon="6.80109">
        <ele>406</ele>
        <time>2016-02-14T09:39:55.000Z</time>
      </trkpt>
      <trkpt lat="47.46003" lon="6.80103">
        <ele>405</ele>
        <time>2016-02-14T09:39:56.000Z</time>
      </trkpt>
      <trkpt lat="47.46003" lon="6.80098">
        <ele>405</ele>
        <time>2016-02-14T09:39:57.000Z</time>
      </trkpt>
      <trkpt lat="47.46003" lon="6.80093">
        <ele>405</ele>
        <time>2016-02-14T09:39:58.000Z</time>
      </trkpt>
      <trkpt lat="47.46002" lon="6.80089">
        <ele>405</ele>
        <time>2016-02-14T09:39:59.000Z</time>
      </trkpt>
      <trkpt lat="47.46001" lon="6.80085">
        <ele>404</ele>
        <time>2016-02-14T09:40:00.000Z</time>
      </trkpt>
      <trkpt lat="47.46" lon="6.80082">
        <ele>404</ele>
        <time>2016-02-14T09:40:01.000Z</time>
      </trkpt>
      <trkpt lat="47.46" lon="6.80078">
        <ele>401</ele>
        <time>2016-02-14T09:40:02.000Z</time>
      </trkpt>
      <trkpt lat="47.45999" lon="6.80074">
        <ele>399</ele>
        <time>2016-02-14T09:40:03.000Z</time>
      </trkpt>
      <trkpt lat="47.45998" lon="6.8007">
        <ele>397</ele>
        <time>2016-02-14T09:40:04.000Z</time>
      </trkpt>
      <trkpt lat="47.45998" lon="6.80066">
        <ele>396</ele>
        <time>2016-02-14T09:40:05.000Z</time>
      </trkpt>
      <trkpt lat="47.45997" lon="6.80062">
        <ele>395</ele>
        <time>2016-02-14T09:40:06.000Z</time>
      </trkpt>
      <trkpt lat="47.45997" lon="6.80057">
        <ele>394</ele>
        <time>2016-02-14T09:40:07.000Z</time>
      </trkpt>
      <trkpt lat="47.45997" lon="6.80052">
        <ele>393</ele>
        <time>2016-02-14T09:40:08.000Z</time>
      </trkpt>
      <trkpt lat="47.45996" lon="6.80047">
        <ele>393</ele>
        <time>2016-02-14T09:40:09.000Z</time>
      </trkpt>
      <trkpt lat="47.45996" lon="6.80042">
        <ele>392</ele>
        <time>2016-02-14T09:40:10.000Z</time>
      </trkpt>
      <trkpt lat="47.45996" lon="6.80036">
        <ele>392</ele>
        <time>2016-02-14T09:40:11.000Z</time>
      </trkpt>
      <trkpt lat="47.45995" lon="6.8003">
        <ele>393</ele>
        <time>2016-02-14T09:40:12.000Z</time>
      </trkpt>
      <trkpt lat="47.45995" lon="6.80024">
        <ele>393</ele>
        <time>2016-02-14T09:40:13.000Z</time>
      </trkpt>
      <trkpt lat="47.45995" lon="6.80018">
        <ele>394</ele>
        <time>2016-02-14T09:40:14.000Z</time>
      </trkpt>
      <trkpt lat="47.45995" lon="6.80013">
        <ele>396</ele>
        <time>2016-02-14T09:40:15.000Z</time>
      </trkpt>
      <trkpt lat="47.45996" lon="6.80007">
        <ele>398</ele>
        <time>2016-02-14T09:40:16.000Z</time>
      </trkpt>
      <trkpt lat="47.45996" lon="6.80001">
        <ele>400</ele>
        <time>2016-02-14T09:40:17.000Z</time>
      </trkpt>
      <trkpt lat="47.45997" lon="6.79996">
        <ele>399</ele>
        <time>2016-02-14T09:40:18.000Z</time>
      </trkpt>
      <trkpt lat="47.45997" lon="6.7999">
        <ele>397</ele>
        <time>2016-02-14T09:40:19.000Z</time>
      </trkpt>
      <trkpt lat="47.45998" lon="6.79985">
        <ele>395</ele>
        <time>2016-02-14T09:40:20.000Z</time>
      </trkpt>
      <trkpt lat="47.45998" lon="6.7998">
        <ele>394</ele>
        <time>2016-02-14T09:40:21.000Z</time>
      </trkpt>
      <trkpt lat="47.45999" lon="6.79974">
        <ele>393</ele>
        <time>2016-02-14T09:40:22.000Z</time>
      </trkpt>
      <trkpt lat="47.46" lon="6.79969">
        <ele>403</ele>
        <time>2016-02-14T09:40:23.000Z</time>
      </trkpt>
      <trkpt lat="47.46002" lon="6.79963">
        <ele>403</ele>
        <time>2016-02-14T09:40:24.000Z</time>
      </trkpt>
      <trkpt lat="47.46003" lon="6.79958">
        <ele>403</ele>
        <time>2016-02-14T09:40:25.000Z</time>
      </trkpt>
      <trkpt lat="47.46005" lon="6.79952">
        <ele>403</ele>
        <time>2016-02-14T09:40:26.000Z</time>
      </trkpt>
      <trkpt lat="47.46008" lon="6.79946">
        <ele>403</ele>
        <time>2016-02-14T09:40:27.000Z</time>
      </trkpt>
      <trkpt lat="47.46011" lon="6.79941">
        <ele>403</ele>
        <time>2016-02-14T09:40:28.000Z</time>
      </trkpt>
      <trkpt lat="47.46015" lon="6.79935">
        <ele>403</ele>
        <time>2016-02-14T09:40:29.000Z</time>
      </trkpt>
      <trkpt lat="47.46019" lon="6.7993">
        <ele>403</ele>
        <time>2016-02-14T09:40:30.000Z</time>
      </trkpt>
      <trkpt lat="47.46023" lon="6.79924">
        <ele>403</ele>
        <time>2016-02-14T09:40:31.000Z</time>
      </trkpt>
      <trkpt lat="47.46027" lon="6.79918">
        <ele>403</ele>
        <time>2016-02-14T09:40:32.000Z</time>
      </trkpt>
      <trkpt lat="47.4603" lon="6.79912">
        <ele>403</ele>
        <time>2016-02-14T09:40:33.000Z</time>
      </trkpt>
      <trkpt lat="47.46034" lon="6.79905">
        <ele>403</ele>
        <time>2016-02-14T09:40:34.000Z</time>
      </trkpt>
      <trkpt lat="47.46036" lon="6.79898">
        <ele>403</ele>
        <time>2016-02-14T09:40:35.000Z</time>
      </trkpt>
      <trkpt lat="47.46038" lon="6.79892">
        <ele>403</ele>
        <time>2016-02-14T09:40:36.000Z</time>
      </trkpt>
      <trkpt lat="47.46039" lon="6.79885">
        <ele>403</ele>
        <time>2016-02-14T09:40:37.000Z</time>
      </trkpt>
      <trkpt lat="47.46039" lon="6.79878">
        <ele>403</ele>
        <time>2016-02-14T09:40:38.000Z</time>
      </trkpt>
      <trkpt lat="47.4604" lon="6.79871">
        <ele>403</ele>
        <time>2016-02-14T09:40:39.000Z</time>
      </trkpt>
      <trkpt lat="47.4604" lon="6.79864">
        <ele>402</ele>
        <time>2016-02-14T09:40:40.000Z</time>
      </trkpt>
      <trkpt lat="47.46041" lon="6.79858">
        <ele>402</ele>
        <time>2016-02-14T09:40:41.000Z</time>
      </trkpt>
      <trkpt lat="47.46041" lon="6.79852">
        <ele>402</ele>
        <time>2016-02-14T09:40:42.000Z</time>
      </trkpt>
      <trkpt lat="47.46042" lon="6.79846">
        <ele>402</ele>
        <time>2016-02-14T09:40:43.000Z</time>
      </trkpt>
      <trkpt lat="47.46043" lon="6.7984">
        <ele>402</ele>
        <time>2016-02-14T09:40:44.000Z</time>
      </trkpt>
      <trkpt lat="47.46044" lon="6.79833">
        <ele>401</ele>
        <time>2016-02-14T09:40:45.000Z</time>
      </trkpt>
      <trkpt lat="47.46044" lon="6.79826">
        <ele>401</ele>
        <time>2016-02-14T09:40:46.000Z</time>
      </trkpt>
      <trkpt lat="47.46044" lon="6.79819">
        <ele>400</ele>
        <time>2016-02-14T09:40:47.000Z</time>
      </trkpt>
      <trkpt lat="47.46045" lon="6.79812">
        <ele>400</ele>
        <time>2016-02-14T09:40:48.000Z</time>
      </trkpt>
      <trkpt lat="47.46045" lon="6.79806">
        <ele>400</ele>
        <time>2016-02-14T09:40:49.000Z</time>
      </trkpt>
      <trkpt lat="47.46045" lon="6.79798">
        <ele>400</ele>
        <time>2016-02-14T09:40:50.000Z</time>
      </trkpt>
      <trkpt lat="47.46045" lon="6.79791">
        <ele>400</ele>
        <time>2016-02-14T09:40:51.000Z</time>
      </trkpt>
      <trkpt lat="47.46045" lon="6.79783">
        <ele>400</ele>
        <time>2016-02-14T09:40:52.000Z</time>
      </trkpt>
      <trkpt lat="47.46047" lon="6.79744">
        <ele>396</ele>
        <time>2016-02-14T09:40:53.000Z</time>
      </trkpt>
      <trkpt lat="47.46047" lon="6.79737">
        <ele>396</ele>
        <time>2016-02-14T09:40:54.000Z</time>
      </trkpt>
      <trkpt lat="47.46049" lon="6.79721">
        <ele>396</ele>
        <time>2016-02-14T09:40:55.000Z</time>
      </trkpt>
      <trkpt lat="47.46049" lon="6.79712">
        <ele>395</ele>
        <time>2016-02-14T09:40:56.000Z</time>
      </trkpt>
      <trkpt lat="47.4605" lon="6.79702">
        <ele>395</ele>
        <time>2016-02-14T09:40:57.000Z</time>
      </trkpt>
      <trkpt lat="47.46051" lon="6.79692">
        <ele>395</ele>
        <time>2016-02-14T09:40:58.000Z</time>
      </trkpt>
      <trkpt lat="47.46052" lon="6.79685">
        <ele>395</ele>
        <time>2016-02-14T09:40:59.000Z</time>
      </trkpt>
      <trkpt lat="47.46052" lon="6.79678">
        <ele>395</ele>
        <time>2016-02-14T09:41:00.000Z</time>
      </trkpt>
      <trkpt lat="47.46052" lon="6.79668">
        <ele>395</ele>
        <time>2016-02-14T09:41:01.000Z</time>
      </trkpt>
      <trkpt lat="47.46054" lon="6.79661">
        <ele>392</ele>
        <time>2016-02-14T09:41:02.000Z</time>
      </trkpt>
      <trkpt lat="47.46055" lon="6.79651">
        <ele>391</ele>
        <time>2016-02-14T09:41:03.000Z</time>
      </trkpt>
      <trkpt lat="47.46055" lon="6.79638">
        <ele>391</ele>
        <time>2016-02-14T09:41:04.000Z</time>
      </trkpt>
      <trkpt lat="47.46056" lon="6.7963">
        <ele>391</ele>
        <time>2016-02-14T09:41:05.000Z</time>
      </trkpt>
      <trkpt lat="47.46055" lon="6.79624">
        <ele>390</ele>
        <time>2016-02-14T09:41:06.000Z</time>
      </trkpt>
      <trkpt lat="47.46055" lon="6.79617">
        <ele>390</ele>
        <time>2016-02-14T09:41:07.000Z</time>
      </trkpt>
      <trkpt lat="47.46056" lon="6.79611">
        <ele>390</ele>
        <time>2016-02-14T09:41:08.000Z</time>
      </trkpt>
      <trkpt lat="47.46057" lon="6.79605">
        <ele>390</ele>
        <time>2016-02-14T09:41:09.000Z</time>
      </trkpt>
      <trkpt lat="47.46057" lon="6.796">
        <ele>390</ele>
        <time>2016-02-14T09:41:10.000Z</time>
      </trkpt>
      <trkpt lat="47.46058" lon="6.79593">
        <ele>390</ele>
        <time>2016-02-14T09:41:11.000Z</time>
      </trkpt>
      <trkpt lat="47.46058" lon="6.79586">
        <ele>390</ele>
        <time>2016-02-14T09:41:12.000Z</time>
      </trkpt>
      <trkpt lat="47.46059" lon="6.79579">
        <ele>389</ele>
        <time>2016-02-14T09:41:13.000Z</time>
      </trkpt>
      <trkpt lat="47.4606" lon="6.79572">
        <ele>388</ele>
        <time>2016-02-14T09:41:14.000Z</time>
      </trkpt>
      <trkpt lat="47.46061" lon="6.79565">
        <ele>388</ele>
        <time>2016-02-14T09:41:15.000Z</time>
      </trkpt>
      <trkpt lat="47.46062" lon="6.79557">
        <ele>388</ele>
        <time>2016-02-14T09:41:16.000Z</time>
      </trkpt>
      <trkpt lat="47.46063" lon="6.79549">
        <ele>388</ele>
        <time>2016-02-14T09:41:17.000Z</time>
      </trkpt>
      <trkpt lat="47.46065" lon="6.79541">
        <ele>388</ele>
        <time>2016-02-14T09:41:18.000Z</time>
      </trkpt>
      <trkpt lat="47.46066" lon="6.79534">
        <ele>388</ele>
        <time>2016-02-14T09:41:19.000Z</time>
      </trkpt>
      <trkpt lat="47.46067" lon="6.79527">
        <ele>388</ele>
        <time>2016-02-14T09:41:20.000Z</time>
      </trkpt>
      <trkpt lat="47.46068" lon="6.7952">
        <ele>388</ele>
        <time>2016-02-14T09:41:21.000Z</time>
      </trkpt>
      <trkpt lat="47.46069" lon="6.79514">
        <ele>389</ele>
        <time>2016-02-14T09:41:22.000Z</time>
      </trkpt>
      <trkpt lat="47.4607" lon="6.79508">
        <ele>389</ele>
        <time>2016-02-14T09:41:23.000Z</time>
      </trkpt>
      <trkpt lat="47.46071" lon="6.79502">
        <ele>389</ele>
        <time>2016-02-14T09:41:24.000Z</time>
      </trkpt>
      <trkpt lat="47.46071" lon="6.79496">
        <ele>389</ele>
        <time>2016-02-14T09:41:25.000Z</time>
      </trkpt>
      <trkpt lat="47.46072" lon="6.7949">
        <ele>388</ele>
        <time>2016-02-14T09:41:26.000Z</time>
      </trkpt>
      <trkpt lat="47.46073" lon="6.79483">
        <ele>388</ele>
        <time>2016-02-14T09:41:27.000Z</time>
      </trkpt>
      <trkpt lat="47.46073" lon="6.79477">
        <ele>387</ele>
        <time>2016-02-14T09:41:28.000Z</time>
      </trkpt>
      <trkpt lat="47.46074" lon="6.79471">
        <ele>387</ele>
        <time>2016-02-14T09:41:29.000Z</time>
      </trkpt>
      <trkpt lat="47.46074" lon="6.79466">
        <ele>387</ele>
        <time>2016-02-14T09:41:30.000Z</time>
      </trkpt>
      <trkpt lat="47.46075" lon="6.79461">
        <ele>387</ele>
        <time>2016-02-14T09:41:31.000Z</time>
      </trkpt>
      <trkpt lat="47.46075" lon="6.79455">
        <ele>387</ele>
        <time>2016-02-14T09:41:32.000Z</time>
      </trkpt>
      <trkpt lat="47.46076" lon="6.7945">
        <ele>387</ele>
        <time>2016-02-14T09:41:33.000Z</time>
      </trkpt>
      <trkpt lat="47.46077" lon="6.79444">
        <ele>387</ele>
        <time>2016-02-14T09:41:34.000Z</time>
      </trkpt>
      <trkpt lat="47.46077" lon="6.79438">
        <ele>388</ele>
        <time>2016-02-14T09:41:35.000Z</time>
      </trkpt>
      <trkpt lat="47.46078" lon="6.79431">
        <ele>388</ele>
        <time>2016-02-14T09:41:36.000Z</time>
      </trkpt>
      <trkpt lat="47.46078" lon="6.79425">
        <ele>389</ele>
        <time>2016-02-14T09:41:37.000Z</time>
      </trkpt>
      <trkpt lat="47.46078" lon="6.79419">
        <ele>390</ele>
        <time>2016-02-14T09:41:38.000Z</time>
      </trkpt>
      <trkpt lat="47.46077" lon="6.79412">
        <ele>390</ele>
        <time>2016-02-14T09:41:39.000Z</time>
      </trkpt>
      <trkpt lat="47.46077" lon="6.79406">
        <ele>389</ele>
        <time>2016-02-14T09:41:40.000Z</time>
      </trkpt>
      <trkpt lat="47.46077" lon="6.79399">
        <ele>388</ele>
        <time>2016-02-14T09:41:41.000Z</time>
      </trkpt>
      <trkpt lat="47.46077" lon="6.79393">
        <ele>387</ele>
        <time>2016-02-14T09:41:42.000Z</time>
      </trkpt>
      <trkpt lat="47.46077" lon="6.79387">
        <ele>386</ele>
        <time>2016-02-14T09:41:43.000Z</time>
      </trkpt>
      <trkpt lat="47.46077" lon="6.79381">
        <ele>386</ele>
        <time>2016-02-14T09:41:44.000Z</time>
      </trkpt>
      <trkpt lat="47.46077" lon="6.79375">
        <ele>386</ele>
        <time>2016-02-14T09:41:45.000Z</time>
      </trkpt>
      <trkpt lat="47.46076" lon="6.79368">
        <ele>386</ele>
        <time>2016-02-14T09:41:46.000Z</time>
      </trkpt>
      <trkpt lat="47.46076" lon="6.79361">
        <ele>386</ele>
        <time>2016-02-14T09:41:47.000Z</time>
      </trkpt>
      <trkpt lat="47.46075" lon="6.79355">
        <ele>386</ele>
        <time>2016-02-14T09:41:48.000Z</time>
      </trkpt>
      <trkpt lat="47.46074" lon="6.79348">
        <ele>386</ele>
        <time>2016-02-14T09:41:49.000Z</time>
      </trkpt>
      <trkpt lat="47.46073" lon="6.79341">
        <ele>387</ele>
        <time>2016-02-14T09:41:50.000Z</time>
      </trkpt>
      <trkpt lat="47.46072" lon="6.79335">
        <ele>387</ele>
        <time>2016-02-14T09:41:51.000Z</time>
      </trkpt>
      <trkpt lat="47.46071" lon="6.79329">
        <ele>387</ele>
        <time>2016-02-14T09:41:52.000Z</time>
      </trkpt>
      <trkpt lat="47.4607" lon="6.79322">
        <ele>386</ele>
        <time>2016-02-14T09:41:53.000Z</time>
      </trkpt>
      <trkpt lat="47.46069" lon="6.79316">
        <ele>386</ele>
        <time>2016-02-14T09:41:54.000Z</time>
      </trkpt>
      <trkpt lat="47.46067" lon="6.7931">
        <ele>385</ele>
        <time>2016-02-14T09:41:55.000Z</time>
      </trkpt>
      <trkpt lat="47.46066" lon="6.79305">
        <ele>385</ele>
        <time>2016-02-14T09:41:56.000Z</time>
      </trkpt>
      <trkpt lat="47.46066" lon="6.793">
        <ele>385</ele>
        <time>2016-02-14T09:41:57.000Z</time>
      </trkpt>
      <trkpt lat="47.46065" lon="6.79295">
        <ele>385</ele>
        <time>2016-02-14T09:41:58.000Z</time>
      </trkpt>
      <trkpt lat="47.46064" lon="6.7929">
        <ele>385</ele>
        <time>2016-02-14T09:41:59.000Z</time>
      </trkpt>
      <trkpt lat="47.46064" lon="6.79285">
        <ele>385</ele>
        <time>2016-02-14T09:42:00.000Z</time>
      </trkpt>
      <trkpt lat="47.46062" lon="6.7928">
        <ele>385</ele>
        <time>2016-02-14T09:42:01.000Z</time>
      </trkpt>
      <trkpt lat="47.46061" lon="6.79275">
        <ele>385</ele>
        <time>2016-02-14T09:42:02.000Z</time>
      </trkpt>
      <trkpt lat="47.4606" lon="6.79269">
        <ele>385</ele>
        <time>2016-02-14T09:42:03.000Z</time>
      </trkpt>
      <trkpt lat="47.46058" lon="6.79258">
        <ele>385</ele>
        <time>2016-02-14T09:42:04.000Z</time>
      </trkpt>
      <trkpt lat="47.46057" lon="6.7925">
        <ele>385</ele>
        <time>2016-02-14T09:42:05.000Z</time>
      </trkpt>
      <trkpt lat="47.46055" lon="6.79241">
        <ele>385</ele>
        <time>2016-02-14T09:42:06.000Z</time>
      </trkpt>
      <trkpt lat="47.46054" lon="6.79235">
        <ele>385</ele>
        <time>2016-02-14T09:42:07.000Z</time>
      </trkpt>
      <trkpt lat="47.46053" lon="6.79228">
        <ele>385</ele>
        <time>2016-02-14T09:42:08.000Z</time>
      </trkpt>
      <trkpt lat="47.46052" lon="6.79223">
        <ele>385</ele>
        <time>2016-02-14T09:42:09.000Z</time>
      </trkpt>
      <trkpt lat="47.46051" lon="6.79217">
        <ele>385</ele>
        <time>2016-02-14T09:42:10.000Z</time>
      </trkpt>
      <trkpt lat="47.4605" lon="6.7921">
        <ele>385</ele>
        <time>2016-02-14T09:42:11.000Z</time>
      </trkpt>
      <trkpt lat="47.46051" lon="6.79205">
        <ele>385</ele>
        <time>2016-02-14T09:42:12.000Z</time>
      </trkpt>
      <trkpt lat="47.46054" lon="6.79204">
        <ele>385</ele>
        <time>2016-02-14T09:42:13.000Z</time>
      </trkpt>
      <trkpt lat="47.46056" lon="6.79199">
        <ele>385</ele>
        <time>2016-02-14T09:42:14.000Z</time>
      </trkpt>
      <trkpt lat="47.46058" lon="6.79197">
        <ele>385</ele>
        <time>2016-02-14T09:42:15.000Z</time>
      </trkpt>
      <trkpt lat="47.46061" lon="6.79198">
        <ele>385</ele>
        <time>2016-02-14T09:42:16.000Z</time>
      </trkpt>
      <trkpt lat="47.46064" lon="6.792">
        <ele>385</ele>
        <time>2016-02-14T09:42:17.000Z</time>
      </trkpt>
      <trkpt lat="47.46067" lon="6.79203">
        <ele>386</ele>
        <time>2016-02-14T09:42:18.000Z</time>
      </trkpt>
      <trkpt lat="47.4607" lon="6.79207">
        <ele>386</ele>
        <time>2016-02-14T09:42:19.000Z</time>
      </trkpt>
      <trkpt lat="47.46073" lon="6.7921">
        <ele>386</ele>
        <time>2016-02-14T09:42:20.000Z</time>
      </trkpt>
      <trkpt lat="47.46077" lon="6.79213">
        <ele>386</ele>
        <time>2016-02-14T09:42:21.000Z</time>
      </trkpt>
      <trkpt lat="47.46079" lon="6.79215">
        <ele>386</ele>
        <time>2016-02-14T09:42:22.000Z</time>
      </trkpt>
      <trkpt lat="47.46082" lon="6.79217">
        <ele>386</ele>
        <time>2016-02-14T09:42:23.000Z</time>
      </trkpt>
      <trkpt lat="47.46084" lon="6.7922">
        <ele>390</ele>
        <time>2016-02-14T09:42:24.000Z</time>
      </trkpt>
      <trkpt lat="47.46087" lon="6.79222">
        <ele>390</ele>
        <time>2016-02-14T09:42:25.000Z</time>
      </trkpt>
      <trkpt lat="47.46089" lon="6.79224">
        <ele>390</ele>
        <time>2016-02-14T09:42:26.000Z</time>
      </trkpt>
      <trkpt lat="47.46091" lon="6.79226">
        <ele>390</ele>
        <time>2016-02-14T09:42:27.000Z</time>
      </trkpt>
      <trkpt lat="47.46093" lon="6.79227">
        <ele>390</ele>
        <time>2016-02-14T09:42:28.000Z</time>
      </trkpt>
      <trkpt lat="47.46095" lon="6.7923">
        <ele>390</ele>
        <time>2016-02-14T09:42:29.000Z</time>
      </trkpt>
      <trkpt lat="47.46098" lon="6.79232">
        <ele>390</ele>
        <time>2016-02-14T09:42:30.000Z</time>
      </trkpt>
      <trkpt lat="47.461" lon="6.79235">
        <ele>390</ele>
        <time>2016-02-14T09:42:31.000Z</time>
      </trkpt>
      <trkpt lat="47.46103" lon="6.79237">
        <ele>390</ele>
        <time>2016-02-14T09:42:32.000Z</time>
      </trkpt>
      <trkpt lat="47.46106" lon="6.7924">
        <ele>391</ele>
        <time>2016-02-14T09:42:33.000Z</time>
      </trkpt>
      <trkpt lat="47.46109" lon="6.79243">
        <ele>391</ele>
        <time>2016-02-14T09:42:34.000Z</time>
      </trkpt>
      <trkpt lat="47.46112" lon="6.79245">
        <ele>391</ele>
        <time>2016-02-14T09:42:35.000Z</time>
      </trkpt>
      <trkpt lat="47.46114" lon="6.79248">
        <ele>391</ele>
        <time>2016-02-14T09:42:36.000Z</time>
      </trkpt>
      <trkpt lat="47.46117" lon="6.79251">
        <ele>391</ele>
        <time>2016-02-14T09:42:37.000Z</time>
      </trkpt>
      <trkpt lat="47.46119" lon="6.79253">
        <ele>391</ele>
        <time>2016-02-14T09:42:38.000Z</time>
      </trkpt>
      <trkpt lat="47.46122" lon="6.79256">
        <ele>391</ele>
        <time>2016-02-14T09:42:39.000Z</time>
      </trkpt>
      <trkpt lat="47.46125" lon="6.79259">
        <ele>392</ele>
        <time>2016-02-14T09:42:40.000Z</time>
      </trkpt>
      <trkpt lat="47.46128" lon="6.79262">
        <ele>392</ele>
        <time>2016-02-14T09:42:41.000Z</time>
      </trkpt>
      <trkpt lat="47.46131" lon="6.79265">
        <ele>392</ele>
        <time>2016-02-14T09:42:42.000Z</time>
      </trkpt>
      <trkpt lat="47.46133" lon="6.79269">
        <ele>392</ele>
        <time>2016-02-14T09:42:43.000Z</time>
      </trkpt>
      <trkpt lat="47.46136" lon="6.79272">
        <ele>392</ele>
        <time>2016-02-14T09:42:44.000Z</time>
      </trkpt>
      <trkpt lat="47.46138" lon="6.79277">
        <ele>392</ele>
        <time>2016-02-14T09:42:45.000Z</time>
      </trkpt>
      <trkpt lat="47.4614" lon="6.79282">
        <ele>392</ele>
        <time>2016-02-14T09:42:46.000Z</time>
      </trkpt>
      <trkpt lat="47.46141" lon="6.79287">
        <ele>392</ele>
        <time>2016-02-14T09:42:47.000Z</time>
      </trkpt>
      <trkpt lat="47.46143" lon="6.79292">
        <ele>392</ele>
        <time>2016-02-14T09:42:48.000Z</time>
      </trkpt>
      <trkpt lat="47.46144" lon="6.79296">
        <ele>392</ele>
        <time>2016-02-14T09:42:49.000Z</time>
      </trkpt>
      <trkpt lat="47.46146" lon="6.793">
        <ele>392</ele>
        <time>2016-02-14T09:42:50.000Z</time>
      </trkpt>
      <trkpt lat="47.46147" lon="6.79305">
        <ele>392</ele>
        <time>2016-02-14T09:42:51.000Z</time>
      </trkpt>
      <trkpt lat="47.46149" lon="6.79309">
        <ele>392</ele>
        <time>2016-02-14T09:42:52.000Z</time>
      </trkpt>
      <trkpt lat="47.4615" lon="6.79314">
        <ele>392</ele>
        <time>2016-02-14T09:42:53.000Z</time>
      </trkpt>
      <trkpt lat="47.46153" lon="6.79317">
        <ele>393</ele>
        <time>2016-02-14T09:42:54.000Z</time>
      </trkpt>
      <trkpt lat="47.46155" lon="6.79319">
        <ele>393</ele>
        <time>2016-02-14T09:42:55.000Z</time>
      </trkpt>
      <trkpt lat="47.46159" lon="6.79319">
        <ele>393</ele>
        <time>2016-02-14T09:42:57.000Z</time>
      </trkpt>
      <trkpt lat="47.4616" lon="6.79317">
        <ele>393</ele>
        <time>2016-02-14T09:42:58.000Z</time>
      </trkpt>
      <trkpt lat="47.46162" lon="6.79315">
        <ele>393</ele>
        <time>2016-02-14T09:42:59.000Z</time>
      </trkpt>
      <trkpt lat="47.46164" lon="6.79312">
        <ele>393</ele>
        <time>2016-02-14T09:43:00.000Z</time>
      </trkpt>
      <trkpt lat="47.46166" lon="6.79309">
        <ele>393</ele>
        <time>2016-02-14T09:43:01.000Z</time>
      </trkpt>
      <trkpt lat="47.46168" lon="6.79306">
        <ele>393</ele>
        <time>2016-02-14T09:43:02.000Z</time>
      </trkpt>
      <trkpt lat="47.46171" lon="6.79303">
        <ele>393</ele>
        <time>2016-02-14T09:43:03.000Z</time>
      </trkpt>
      <trkpt lat="47.46174" lon="6.793">
        <ele>393</ele>
        <time>2016-02-14T09:43:04.000Z</time>
      </trkpt>
      <trkpt lat="47.46177" lon="6.79298">
        <ele>393</ele>
        <time>2016-02-14T09:43:05.000Z</time>
      </trkpt>
      <trkpt lat="47.46179" lon="6.79295">
        <ele>393</ele>
        <time>2016-02-14T09:43:06.000Z</time>
      </trkpt>
      <trkpt lat="47.46182" lon="6.79292">
        <ele>393</ele>
        <time>2016-02-14T09:43:07.000Z</time>
      </trkpt>
      <trkpt lat="47.46184" lon="6.79288">
        <ele>393</ele>
        <time>2016-02-14T09:43:08.000Z</time>
      </trkpt>
      <trkpt lat="47.46185" lon="6.79284">
        <ele>393</ele>
        <time>2016-02-14T09:43:09.000Z</time>
      </trkpt>
      <trkpt lat="47.46187" lon="6.79281">
        <ele>393</ele>
        <time>2016-02-14T09:43:10.000Z</time>
      </trkpt>
      <trkpt lat="47.4619" lon="6.79277">
        <ele>393</ele>
        <time>2016-02-14T09:43:12.000Z</time>
      </trkpt>
      <trkpt lat="47.46192" lon="6.79277">
        <ele>393</ele>
        <time>2016-02-14T09:43:13.000Z</time>
      </trkpt>
      <trkpt lat="47.46196" lon="6.79277">
        <ele>393</ele>
        <time>2016-02-14T09:43:15.000Z</time>
      </trkpt>
      <trkpt lat="47.46198" lon="6.79277">
        <ele>393</ele>
        <time>2016-02-14T09:43:16.000Z</time>
      </trkpt>
      <trkpt lat="47.462" lon="6.79279">
        <ele>393</ele>
        <time>2016-02-14T09:43:18.000Z</time>
      </trkpt>
      <trkpt lat="47.46202" lon="6.79282">
        <ele>393</ele>
        <time>2016-02-14T09:43:19.000Z</time>
      </trkpt>
      <trkpt lat="47.46204" lon="6.79284">
        <ele>393</ele>
        <time>2016-02-14T09:43:20.000Z</time>
      </trkpt>
      <trkpt lat="47.46206" lon="6.79287">
        <ele>393</ele>
        <time>2016-02-14T09:43:21.000Z</time>
      </trkpt>
      <trkpt lat="47.46208" lon="6.79289">
        <ele>393</ele>
        <time>2016-02-14T09:43:22.000Z</time>
      </trkpt>
      <trkpt lat="47.46211" lon="6.79293">
        <ele>392</ele>
        <time>2016-02-14T09:43:23.000Z</time>
      </trkpt>
      <trkpt lat="47.46213" lon="6.79296">
        <ele>392</ele>
        <time>2016-02-14T09:43:24.000Z</time>
      </trkpt>
      <trkpt lat="47.46216" lon="6.793">
        <ele>392</ele>
        <time>2016-02-14T09:43:25.000Z</time>
      </trkpt>
      <trkpt lat="47.46219" lon="6.79303">
        <ele>392</ele>
        <time>2016-02-14T09:43:26.000Z</time>
      </trkpt>
      <trkpt lat="47.46222" lon="6.79307">
        <ele>392</ele>
        <time>2016-02-14T09:43:27.000Z</time>
      </trkpt>
      <trkpt lat="47.46224" lon="6.7931">
        <ele>392</ele>
        <time>2016-02-14T09:43:28.000Z</time>
      </trkpt>
      <trkpt lat="47.46226" lon="6.79313">
        <ele>392</ele>
        <time>2016-02-14T09:43:29.000Z</time>
      </trkpt>
      <trkpt lat="47.46227" lon="6.79316">
        <ele>392</ele>
        <time>2016-02-14T09:43:30.000Z</time>
      </trkpt>
      <trkpt lat="47.46229" lon="6.79318">
        <ele>392</ele>
        <time>2016-02-14T09:43:31.000Z</time>
      </trkpt>
      <trkpt lat="47.4623" lon="6.79321">
        <ele>392</ele>
        <time>2016-02-14T09:43:32.000Z</time>
      </trkpt>
      <trkpt lat="47.46232" lon="6.79324">
        <ele>391</ele>
        <time>2016-02-14T09:43:33.000Z</time>
      </trkpt>
      <trkpt lat="47.46234" lon="6.79326">
        <ele>391</ele>
        <time>2016-02-14T09:43:34.000Z</time>
      </trkpt>
      <trkpt lat="47.46236" lon="6.79328">
        <ele>391</ele>
        <time>2016-02-14T09:43:35.000Z</time>
      </trkpt>
      <trkpt lat="47.46237" lon="6.79331">
        <ele>391</ele>
        <time>2016-02-14T09:43:36.000Z</time>
      </trkpt>
      <trkpt lat="47.4624" lon="6.79333">
        <ele>391</ele>
        <time>2016-02-14T09:43:37.000Z</time>
      </trkpt>
      <trkpt lat="47.46242" lon="6.79336">
        <ele>390</ele>
        <time>2016-02-14T09:43:38.000Z</time>
      </trkpt>
      <trkpt lat="47.46244" lon="6.79338">
        <ele>390</ele>
        <time>2016-02-14T09:43:39.000Z</time>
      </trkpt>
      <trkpt lat="47.46247" lon="6.7934">
        <ele>390</ele>
        <time>2016-02-14T09:43:40.000Z</time>
      </trkpt>
      <trkpt lat="47.46249" lon="6.79342">
        <ele>390</ele>
        <time>2016-02-14T09:43:41.000Z</time>
      </trkpt>
      <trkpt lat="47.46251" lon="6.79344">
        <ele>389</ele>
        <time>2016-02-14T09:43:42.000Z</time>
      </trkpt>
      <trkpt lat="47.46254" lon="6.79347">
        <ele>389</ele>
        <time>2016-02-14T09:43:43.000Z</time>
      </trkpt>
      <trkpt lat="47.46256" lon="6.79349">
        <ele>389</ele>
        <time>2016-02-14T09:43:44.000Z</time>
      </trkpt>
      <trkpt lat="47.46259" lon="6.79351">
        <ele>389</ele>
        <time>2016-02-14T09:43:45.000Z</time>
      </trkpt>
      <trkpt lat="47.46262" lon="6.79353">
        <ele>389</ele>
        <time>2016-02-14T09:43:46.000Z</time>
      </trkpt>
      <trkpt lat="47.46265" lon="6.79354">
        <ele>389</ele>
        <time>2016-02-14T09:43:47.000Z</time>
      </trkpt>
      <trkpt lat="47.46268" lon="6.79356">
        <ele>388</ele>
        <time>2016-02-14T09:43:48.000Z</time>
      </trkpt>
      <trkpt lat="47.4627" lon="6.79358">
        <ele>388</ele>
        <time>2016-02-14T09:43:49.000Z</time>
      </trkpt>
      <trkpt lat="47.46273" lon="6.79359">
        <ele>388</ele>
        <time>2016-02-14T09:43:50.000Z</time>
      </trkpt>
      <trkpt lat="47.46275" lon="6.79361">
        <ele>388</ele>
        <time>2016-02-14T09:43:51.000Z</time>
      </trkpt>
      <trkpt lat="47.46277" lon="6.79364">
        <ele>388</ele>
        <time>2016-02-14T09:43:52.000Z</time>
      </trkpt>
      <trkpt lat="47.4628" lon="6.79366">
        <ele>388</ele>
        <time>2016-02-14T09:43:53.000Z</time>
      </trkpt>
      <trkpt lat="47.46282" lon="6.7937">
        <ele>388</ele>
        <time>2016-02-14T09:43:54.000Z</time>
      </trkpt>
      <trkpt lat="47.46285" lon="6.79373">
        <ele>388</ele>
        <time>2016-02-14T09:43:55.000Z</time>
      </trkpt>
      <trkpt lat="47.46287" lon="6.79377">
        <ele>388</ele>
        <time>2016-02-14T09:43:56.000Z</time>
      </trkpt>
      <trkpt lat="47.4629" lon="6.79381">
        <ele>388</ele>
        <time>2016-02-14T09:43:57.000Z</time>
      </trkpt>
      <trkpt lat="47.46293" lon="6.79386">
        <ele>388</ele>
        <time>2016-02-14T09:43:58.000Z</time>
      </trkpt>
      <trkpt lat="47.46296" lon="6.79389">
        <ele>388</ele>
        <time>2016-02-14T09:43:59.000Z</time>
      </trkpt>
      <trkpt lat="47.46298" lon="6.79392">
        <ele>388</ele>
        <time>2016-02-14T09:44:00.000Z</time>
      </trkpt>
      <trkpt lat="47.463" lon="6.79395">
        <ele>387</ele>
        <time>2016-02-14T09:44:01.000Z</time>
      </trkpt>
      <trkpt lat="47.46303" lon="6.79398">
        <ele>387</ele>
        <time>2016-02-14T09:44:02.000Z</time>
      </trkpt>
      <trkpt lat="47.46306" lon="6.794">
        <ele>387</ele>
        <time>2016-02-14T09:44:03.000Z</time>
      </trkpt>
      <trkpt lat="47.46308" lon="6.79402">
        <ele>387</ele>
        <time>2016-02-14T09:44:04.000Z</time>
      </trkpt>
      <trkpt lat="47.4631" lon="6.79405">
        <ele>387</ele>
        <time>2016-02-14T09:44:05.000Z</time>
      </trkpt>
      <trkpt lat="47.46312" lon="6.79408">
        <ele>387</ele>
        <time>2016-02-14T09:44:06.000Z</time>
      </trkpt>
      <trkpt lat="47.46314" lon="6.79412">
        <ele>387</ele>
        <time>2016-02-14T09:44:07.000Z</time>
      </trkpt>
      <trkpt lat="47.46316" lon="6.79416">
        <ele>387</ele>
        <time>2016-02-14T09:44:08.000Z</time>
      </trkpt>
      <trkpt lat="47.46317" lon="6.7942">
        <ele>387</ele>
        <time>2016-02-14T09:44:09.000Z</time>
      </trkpt>
      <trkpt lat="47.46319" lon="6.79425">
        <ele>387</ele>
        <time>2016-02-14T09:44:10.000Z</time>
      </trkpt>
      <trkpt lat="47.4632" lon="6.79429">
        <ele>387</ele>
        <time>2016-02-14T09:44:11.000Z</time>
      </trkpt>
      <trkpt lat="47.46321" lon="6.79434">
        <ele>387</ele>
        <time>2016-02-14T09:44:12.000Z</time>
      </trkpt>
      <trkpt lat="47.46322" lon="6.79439">
        <ele>388</ele>
        <time>2016-02-14T09:44:13.000Z</time>
      </trkpt>
      <trkpt lat="47.46324" lon="6.79443">
        <ele>388</ele>
        <time>2016-02-14T09:44:14.000Z</time>
      </trkpt>
      <trkpt lat="47.46326" lon="6.79448">
        <ele>388</ele>
        <time>2016-02-14T09:44:15.000Z</time>
      </trkpt>
      <trkpt lat="47.46328" lon="6.79452">
        <ele>388</ele>
        <time>2016-02-14T09:44:16.000Z</time>
      </trkpt>
      <trkpt lat="47.46331" lon="6.79456">
        <ele>388</ele>
        <time>2016-02-14T09:44:17.000Z</time>
      </trkpt>
      <trkpt lat="47.46334" lon="6.79459">
        <ele>387</ele>
        <time>2016-02-14T09:44:18.000Z</time>
      </trkpt>
      <trkpt lat="47.46337" lon="6.79463">
        <ele>387</ele>
        <time>2016-02-14T09:44:19.000Z</time>
      </trkpt>
      <trkpt lat="47.4634" lon="6.79466">
        <ele>387</ele>
        <time>2016-02-14T09:44:20.000Z</time>
      </trkpt>
      <trkpt lat="47.46342" lon="6.79469">
        <ele>387</ele>
        <time>2016-02-14T09:44:21.000Z</time>
      </trkpt>
      <trkpt lat="47.46344" lon="6.79472">
        <ele>387</ele>
        <time>2016-02-14T09:44:22.000Z</time>
      </trkpt>
      <trkpt lat="47.46345" lon="6.79474">
        <ele>387</ele>
        <time>2016-02-14T09:44:23.000Z</time>
      </trkpt>
      <trkpt lat="47.46347" lon="6.79478">
        <ele>387</ele>
        <time>2016-02-14T09:44:25.000Z</time>
      </trkpt>
      <trkpt lat="47.46349" lon="6.7948">
        <ele>387</ele>
        <time>2016-02-14T09:44:26.000Z</time>
      </trkpt>
      <trkpt lat="47.46351" lon="6.79484">
        <ele>387</ele>
        <time>2016-02-14T09:44:28.000Z</time>
      </trkpt>
      <trkpt lat="47.46351" lon="6.79489">
        <ele>387</ele>
        <time>2016-02-14T09:44:29.000Z</time>
      </trkpt>
      <trkpt lat="47.46352" lon="6.79495">
        <ele>387</ele>
        <time>2016-02-14T09:44:34.000Z</time>
      </trkpt>
      <trkpt lat="47.46352" lon="6.79495">
        <ele>387</ele>
        <time>2016-02-14T09:44:35.000Z</time>
      </trkpt>
      <trkpt lat="47.46352" lon="6.79502">
        <ele>387</ele>
        <time>2016-02-14T09:44:46.000Z</time>
      </trkpt>
      <trkpt lat="47.46352" lon="6.79503">
        <ele>387</ele>
        <time>2016-02-14T09:44:47.000Z</time>
      </trkpt>
      <trkpt lat="47.4635" lon="6.79509">
        <ele>387</ele>
        <time>2016-02-14T09:44:52.000Z</time>
      </trkpt>
      <trkpt lat="47.4635" lon="6.7951">
        <ele>387</ele>
        <time>2016-02-14T09:44:53.000Z</time>
      </trkpt>
      <trkpt lat="47.46346" lon="6.79508">
        <ele>387</ele>
        <time>2016-02-14T09:45:09.000Z</time>
      </trkpt>
      <trkpt lat="47.46346" lon="6.79507">
        <ele>387</ele>
        <time>2016-02-14T09:45:10.000Z</time>
      </trkpt>
      <trkpt lat="47.46348" lon="6.79501">
        <ele>387</ele>
        <time>2016-02-14T09:45:19.000Z</time>
      </trkpt>
      <trkpt lat="47.46348" lon="6.795">
        <ele>387</ele>
        <time>2016-02-14T09:45:20.000Z</time>
      </trkpt>
      <trkpt lat="47.4635" lon="6.79496">
        <ele>387</ele>
        <time>2016-02-14T09:45:24.000Z</time>
      </trkpt>
      <trkpt lat="47.4635" lon="6.79494">
        <ele>387</ele>
        <time>2016-02-14T09:45:25.000Z</time>
      </trkpt>
      <trkpt lat="47.46352" lon="6.7949">
        <ele>387</ele>
        <time>2016-02-14T09:45:27.000Z</time>
      </trkpt>
      <trkpt lat="47.46353" lon="6.79488">
        <ele>387</ele>
        <time>2016-02-14T09:45:28.000Z</time>
      </trkpt>
      <trkpt lat="47.46354" lon="6.79482">
        <ele>387</ele>
        <time>2016-02-14T09:45:31.000Z</time>
      </trkpt>
      <trkpt lat="47.46354" lon="6.7948">
        <ele>387</ele>
        <time>2016-02-14T09:45:32.000Z</time>
      </trkpt>
      <trkpt lat="47.46356" lon="6.79475">
        <ele>387</ele>
        <time>2016-02-14T09:45:36.000Z</time>
      </trkpt>
      <trkpt lat="47.46356" lon="6.79475">
        <ele>387</ele>
        <time>2016-02-14T09:45:37.000Z</time>
      </trkpt>
      <trkpt lat="47.46361" lon="6.79475">
        <ele>387</ele>
        <time>2016-02-14T09:45:42.000Z</time>
      </trkpt>
      <trkpt lat="47.46361" lon="6.79475">
        <ele>387</ele>
        <time>2016-02-14T09:45:43.000Z</time>
      </trkpt>
      <trkpt lat="47.46365" lon="6.79475">
        <ele>387</ele>
        <time>2016-02-14T09:45:48.000Z</time>
      </trkpt>
      <trkpt lat="47.46367" lon="6.79475">
        <ele>386</ele>
        <time>2016-02-14T09:45:49.000Z</time>
      </trkpt>
      <trkpt lat="47.46369" lon="6.79472">
        <ele>386</ele>
        <time>2016-02-14T09:45:51.000Z</time>
      </trkpt>
      <trkpt lat="47.46371" lon="6.79471">
        <ele>386</ele>
        <time>2016-02-14T09:45:52.000Z</time>
      </trkpt>
      <trkpt lat="47.46372" lon="6.79469">
        <ele>386</ele>
        <time>2016-02-14T09:45:53.000Z</time>
      </trkpt>
      <trkpt lat="47.46374" lon="6.79466">
        <ele>386</ele>
        <time>2016-02-14T09:45:54.000Z</time>
      </trkpt>
      <trkpt lat="47.46376" lon="6.79464">
        <ele>386</ele>
        <time>2016-02-14T09:45:55.000Z</time>
      </trkpt>
      <trkpt lat="47.46377" lon="6.79461">
        <ele>386</ele>
        <time>2016-02-14T09:45:56.000Z</time>
      </trkpt>
      <trkpt lat="47.46381" lon="6.79457">
        <ele>386</ele>
        <time>2016-02-14T09:45:58.000Z</time>
      </trkpt>
      <trkpt lat="47.46382" lon="6.79454">
        <ele>386</ele>
        <time>2016-02-14T09:45:59.000Z</time>
      </trkpt>
      <trkpt lat="47.46384" lon="6.79452">
        <ele>386</ele>
        <time>2016-02-14T09:46:00.000Z</time>
      </trkpt>
      <trkpt lat="47.46385" lon="6.79449">
        <ele>386</ele>
        <time>2016-02-14T09:46:01.000Z</time>
      </trkpt>
      <trkpt lat="47.46388" lon="6.79444">
        <ele>386</ele>
        <time>2016-02-14T09:46:03.000Z</time>
      </trkpt>
      <trkpt lat="47.46389" lon="6.79442">
        <ele>386</ele>
        <time>2016-02-14T09:46:04.000Z</time>
      </trkpt>
      <trkpt lat="47.4639" lon="6.79437">
        <ele>386</ele>
        <time>2016-02-14T09:46:06.000Z</time>
      </trkpt>
      <trkpt lat="47.4639" lon="6.79435">
        <ele>386</ele>
        <time>2016-02-14T09:46:07.000Z</time>
      </trkpt>
      <trkpt lat="47.46391" lon="6.7943">
        <ele>386</ele>
        <time>2016-02-14T09:46:09.000Z</time>
      </trkpt>
      <trkpt lat="47.46392" lon="6.79427">
        <ele>386</ele>
        <time>2016-02-14T09:46:10.000Z</time>
      </trkpt>
      <trkpt lat="47.46393" lon="6.79423">
        <ele>386</ele>
        <time>2016-02-14T09:46:12.000Z</time>
      </trkpt>
      <trkpt lat="47.46394" lon="6.79421">
        <ele>386</ele>
        <time>2016-02-14T09:46:13.000Z</time>
      </trkpt>
      <trkpt lat="47.46396" lon="6.79416">
        <ele>385</ele>
        <time>2016-02-14T09:46:16.000Z</time>
      </trkpt>
      <trkpt lat="47.46398" lon="6.79415">
        <ele>385</ele>
        <time>2016-02-14T09:46:17.000Z</time>
      </trkpt>
      <trkpt lat="47.46401" lon="6.79413">
        <ele>385</ele>
        <time>2016-02-14T09:46:19.000Z</time>
      </trkpt>
      <trkpt lat="47.46404" lon="6.79411">
        <ele>385</ele>
        <time>2016-02-14T09:46:20.000Z</time>
      </trkpt>
      <trkpt lat="47.46407" lon="6.79407">
        <ele>385</ele>
        <time>2016-02-14T09:46:22.000Z</time>
      </trkpt>
      <trkpt lat="47.46408" lon="6.79404">
        <ele>385</ele>
        <time>2016-02-14T09:46:23.000Z</time>
      </trkpt>
      <trkpt lat="47.46409" lon="6.79398">
        <ele>385</ele>
        <time>2016-02-14T09:46:32.000Z</time>
      </trkpt>
      <trkpt lat="47.46409" lon="6.79398">
        <ele>385</ele>
        <time>2016-02-14T09:46:33.000Z</time>
      </trkpt>
      <trkpt lat="47.46412" lon="6.79395">
        <ele>385</ele>
        <time>2016-02-14T09:46:51.000Z</time>
      </trkpt>
      <trkpt lat="47.46413" lon="6.79393">
        <ele>385</ele>
        <time>2016-02-14T09:46:52.000Z</time>
      </trkpt>
      <trkpt lat="47.46416" lon="6.79389">
        <ele>385</ele>
        <time>2016-02-14T09:47:00.000Z</time>
      </trkpt>
      <trkpt lat="47.46417" lon="6.79389">
        <ele>385</ele>
        <time>2016-02-14T09:47:01.000Z</time>
      </trkpt>
      <trkpt lat="47.46419" lon="6.79385">
        <ele>384</ele>
        <time>2016-02-14T09:47:05.000Z</time>
      </trkpt>
      <trkpt lat="47.4642" lon="6.79383">
        <ele>384</ele>
        <time>2016-02-14T09:47:06.000Z</time>
      </trkpt>
      <trkpt lat="47.46421" lon="6.79379">
        <ele>384</ele>
        <time>2016-02-14T09:47:08.000Z</time>
      </trkpt>
      <trkpt lat="47.46422" lon="6.79377">
        <ele>384</ele>
        <time>2016-02-14T09:47:09.000Z</time>
      </trkpt>
      <trkpt lat="47.46423" lon="6.79372">
        <ele>384</ele>
        <time>2016-02-14T09:47:11.000Z</time>
      </trkpt>
      <trkpt lat="47.46424" lon="6.79369">
        <ele>384</ele>
        <time>2016-02-14T09:47:12.000Z</time>
      </trkpt>
      <trkpt lat="47.46425" lon="6.79365">
        <ele>384</ele>
        <time>2016-02-14T09:47:14.000Z</time>
      </trkpt>
      <trkpt lat="47.46426" lon="6.79363">
        <ele>384</ele>
        <time>2016-02-14T09:47:15.000Z</time>
      </trkpt>
      <trkpt lat="47.46427" lon="6.79358">
        <ele>384</ele>
        <time>2016-02-14T09:47:18.000Z</time>
      </trkpt>
      <trkpt lat="47.46429" lon="6.79356">
        <ele>384</ele>
        <time>2016-02-14T09:47:19.000Z</time>
      </trkpt>
      <trkpt lat="47.46432" lon="6.79352">
        <ele>384</ele>
        <time>2016-02-14T09:47:21.000Z</time>
      </trkpt>
      <trkpt lat="47.46433" lon="6.79349">
        <ele>384</ele>
        <time>2016-02-14T09:47:22.000Z</time>
      </trkpt>
      <trkpt lat="47.46434" lon="6.79344">
        <ele>384</ele>
        <time>2016-02-14T09:47:24.000Z</time>
      </trkpt>
      <trkpt lat="47.46435" lon="6.79342">
        <ele>384</ele>
        <time>2016-02-14T09:47:25.000Z</time>
      </trkpt>
      <trkpt lat="47.46438" lon="6.7934">
        <ele>384</ele>
        <time>2016-02-14T09:47:27.000Z</time>
      </trkpt>
      <trkpt lat="47.4644" lon="6.79339">
        <ele>384</ele>
        <time>2016-02-14T09:47:28.000Z</time>
      </trkpt>
      <trkpt lat="47.46443" lon="6.79337">
        <ele>384</ele>
        <time>2016-02-14T09:47:30.000Z</time>
      </trkpt>
      <trkpt lat="47.46444" lon="6.79336">
        <ele>384</ele>
        <time>2016-02-14T09:47:31.000Z</time>
      </trkpt>
      <trkpt lat="47.46447" lon="6.79332">
        <ele>386</ele>
        <time>2016-02-14T09:47:33.000Z</time>
      </trkpt>
      <trkpt lat="47.46449" lon="6.7933">
        <ele>386</ele>
        <time>2016-02-14T09:47:34.000Z</time>
      </trkpt>
      <trkpt lat="47.46452" lon="6.79326">
        <ele>386</ele>
        <time>2016-02-14T09:47:36.000Z</time>
      </trkpt>
      <trkpt lat="47.46453" lon="6.79324">
        <ele>386</ele>
        <time>2016-02-14T09:47:37.000Z</time>
      </trkpt>
      <trkpt lat="47.46456" lon="6.79319">
        <ele>386</ele>
        <time>2016-02-14T09:47:39.000Z</time>
      </trkpt>
      <trkpt lat="47.46457" lon="6.79316">
        <ele>386</ele>
        <time>2016-02-14T09:47:40.000Z</time>
      </trkpt>
      <trkpt lat="47.46458" lon="6.7931">
        <ele>386</ele>
        <time>2016-02-14T09:47:42.000Z</time>
      </trkpt>
      <trkpt lat="47.46458" lon="6.79307">
        <ele>386</ele>
        <time>2016-02-14T09:47:43.000Z</time>
      </trkpt>
      <trkpt lat="47.4646" lon="6.79302">
        <ele>386</ele>
        <time>2016-02-14T09:47:45.000Z</time>
      </trkpt>
      <trkpt lat="47.46463" lon="6.79299">
        <ele>386</ele>
        <time>2016-02-14T09:47:46.000Z</time>
      </trkpt>
      <trkpt lat="47.46465" lon="6.79297">
        <ele>386</ele>
        <time>2016-02-14T09:47:47.000Z</time>
      </trkpt>
      <trkpt lat="47.46467" lon="6.79294">
        <ele>386</ele>
        <time>2016-02-14T09:47:48.000Z</time>
      </trkpt>
      <trkpt lat="47.46469" lon="6.79292">
        <ele>386</ele>
        <time>2016-02-14T09:47:49.000Z</time>
      </trkpt>
      <trkpt lat="47.46471" lon="6.79289">
        <ele>386</ele>
        <time>2016-02-14T09:47:50.000Z</time>
      </trkpt>
      <trkpt lat="47.46473" lon="6.79285">
        <ele>386</ele>
        <time>2016-02-14T09:47:52.000Z</time>
      </trkpt>
      <trkpt lat="47.46474" lon="6.79283">
        <ele>386</ele>
        <time>2016-02-14T09:47:53.000Z</time>
      </trkpt>
      <trkpt lat="47.46476" lon="6.79278">
        <ele>387</ele>
        <time>2016-02-14T09:47:56.000Z</time>
      </trkpt>
      <trkpt lat="47.46477" lon="6.79276">
        <ele>387</ele>
        <time>2016-02-14T09:47:57.000Z</time>
      </trkpt>
      <trkpt lat="47.4648" lon="6.79272">
        <ele>387</ele>
        <time>2016-02-14T09:47:59.000Z</time>
      </trkpt>
      <trkpt lat="47.4648" lon="6.79269">
        <ele>387</ele>
        <time>2016-02-14T09:48:00.000Z</time>
      </trkpt>
      <trkpt lat="47.46482" lon="6.79265">
        <ele>387</ele>
        <time>2016-02-14T09:48:02.000Z</time>
      </trkpt>
      <trkpt lat="47.46482" lon="6.79262">
        <ele>387</ele>
        <time>2016-02-14T09:48:03.000Z</time>
      </trkpt>
      <trkpt lat="47.46484" lon="6.79256">
        <ele>387</ele>
        <time>2016-02-14T09:48:06.000Z</time>
      </trkpt>
      <trkpt lat="47.46485" lon="6.79254">
        <ele>387</ele>
        <time>2016-02-14T09:48:07.000Z</time>
      </trkpt>
      <trkpt lat="47.46487" lon="6.79249">
        <ele>388</ele>
        <time>2016-02-14T09:48:09.000Z</time>
      </trkpt>
      <trkpt lat="47.46488" lon="6.79247">
        <ele>388</ele>
        <time>2016-02-14T09:48:10.000Z</time>
      </trkpt>
      <trkpt lat="47.4649" lon="6.79242">
        <ele>388</ele>
        <time>2016-02-14T09:48:14.000Z</time>
      </trkpt>
      <trkpt lat="47.46492" lon="6.79241">
        <ele>388</ele>
        <time>2016-02-14T09:48:15.000Z</time>
      </trkpt>
      <trkpt lat="47.46494" lon="6.79238">
        <ele>388</ele>
        <time>2016-02-14T09:48:17.000Z</time>
      </trkpt>
      <trkpt lat="47.46496" lon="6.79237">
        <ele>388</ele>
        <time>2016-02-14T09:48:18.000Z</time>
      </trkpt>
      <trkpt lat="47.46499" lon="6.79235">
        <ele>388</ele>
        <time>2016-02-14T09:48:21.000Z</time>
      </trkpt>
      <trkpt lat="47.46501" lon="6.79234">
        <ele>387</ele>
        <time>2016-02-14T09:48:22.000Z</time>
      </trkpt>
      <trkpt lat="47.46503" lon="6.79229">
        <ele>387</ele>
        <time>2016-02-14T09:48:25.000Z</time>
      </trkpt>
      <trkpt lat="47.46504" lon="6.79227">
        <ele>387</ele>
        <time>2016-02-14T09:48:26.000Z</time>
      </trkpt>
      <trkpt lat="47.46504" lon="6.79222">
        <ele>387</ele>
        <time>2016-02-14T09:48:28.000Z</time>
      </trkpt>
      <trkpt lat="47.46505" lon="6.7922">
        <ele>387</ele>
        <time>2016-02-14T09:48:29.000Z</time>
      </trkpt>
      <trkpt lat="47.46505" lon="6.79214">
        <ele>387</ele>
        <time>2016-02-14T09:48:31.000Z</time>
      </trkpt>
      <trkpt lat="47.46505" lon="6.7921">
        <ele>387</ele>
        <time>2016-02-14T09:48:32.000Z</time>
      </trkpt>
      <trkpt lat="47.46505" lon="6.79207">
        <ele>387</ele>
        <time>2016-02-14T09:48:33.000Z</time>
      </trkpt>
      <trkpt lat="47.46506" lon="6.79203">
        <ele>387</ele>
        <time>2016-02-14T09:48:34.000Z</time>
      </trkpt>
      <trkpt lat="47.46506" lon="6.79197">
        <ele>387</ele>
        <time>2016-02-14T09:48:36.000Z</time>
      </trkpt>
      <trkpt lat="47.46506" lon="6.79193">
        <ele>387</ele>
        <time>2016-02-14T09:48:37.000Z</time>
      </trkpt>
      <trkpt lat="47.46508" lon="6.79188">
        <ele>388</ele>
        <time>2016-02-14T09:48:39.000Z</time>
      </trkpt>
      <trkpt lat="47.46508" lon="6.79185">
        <ele>388</ele>
        <time>2016-02-14T09:48:40.000Z</time>
      </trkpt>
      <trkpt lat="47.4651" lon="6.79179">
        <ele>388</ele>
        <time>2016-02-14T09:48:42.000Z</time>
      </trkpt>
      <trkpt lat="47.46511" lon="6.79176">
        <ele>388</ele>
        <time>2016-02-14T09:48:43.000Z</time>
      </trkpt>
      <trkpt lat="47.46513" lon="6.79173">
        <ele>388</ele>
        <time>2016-02-14T09:48:44.000Z</time>
      </trkpt>
      <trkpt lat="47.46514" lon="6.7917">
        <ele>388</ele>
        <time>2016-02-14T09:48:45.000Z</time>
      </trkpt>
      <trkpt lat="47.46516" lon="6.79165">
        <ele>388</ele>
        <time>2016-02-14T09:48:47.000Z</time>
      </trkpt>
      <trkpt lat="47.46518" lon="6.79163">
        <ele>388</ele>
        <time>2016-02-14T09:48:48.000Z</time>
      </trkpt>
      <trkpt lat="47.46522" lon="6.7916">
        <ele>388</ele>
        <time>2016-02-14T09:48:50.000Z</time>
      </trkpt>
      <trkpt lat="47.46524" lon="6.79158">
        <ele>387</ele>
        <time>2016-02-14T09:48:51.000Z</time>
      </trkpt>
      <trkpt lat="47.46525" lon="6.79156">
        <ele>387</ele>
        <time>2016-02-14T09:48:52.000Z</time>
      </trkpt>
      <trkpt lat="47.46527" lon="6.79153">
        <ele>387</ele>
        <time>2016-02-14T09:48:53.000Z</time>
      </trkpt>
      <trkpt lat="47.46528" lon="6.7915">
        <ele>387</ele>
        <time>2016-02-14T09:48:54.000Z</time>
      </trkpt>
      <trkpt lat="47.4653" lon="6.79148">
        <ele>387</ele>
        <time>2016-02-14T09:48:55.000Z</time>
      </trkpt>
      <trkpt lat="47.46532" lon="6.79146">
        <ele>387</ele>
        <time>2016-02-14T09:48:56.000Z</time>
      </trkpt>
      <trkpt lat="47.46534" lon="6.79143">
        <ele>387</ele>
        <time>2016-02-14T09:48:57.000Z</time>
      </trkpt>
      <trkpt lat="47.46536" lon="6.79141">
        <ele>387</ele>
        <time>2016-02-14T09:48:58.000Z</time>
      </trkpt>
      <trkpt lat="47.46537" lon="6.79139">
        <ele>387</ele>
        <time>2016-02-14T09:48:59.000Z</time>
      </trkpt>
      <trkpt lat="47.4654" lon="6.79136">
        <ele>387</ele>
        <time>2016-02-14T09:49:01.000Z</time>
      </trkpt>
      <trkpt lat="47.46541" lon="6.79134">
        <ele>387</ele>
        <time>2016-02-14T09:49:02.000Z</time>
      </trkpt>
      <trkpt lat="47.46543" lon="6.7913">
        <ele>387</ele>
        <time>2016-02-14T09:49:04.000Z</time>
      </trkpt>
      <trkpt lat="47.46544" lon="6.79128">
        <ele>387</ele>
        <time>2016-02-14T09:49:05.000Z</time>
      </trkpt>
      <trkpt lat="47.46544" lon="6.79122">
        <ele>387</ele>
        <time>2016-02-14T09:49:09.000Z</time>
      </trkpt>
      <trkpt lat="47.46544" lon="6.79121">
        <ele>387</ele>
        <time>2016-02-14T09:49:10.000Z</time>
      </trkpt>
      <trkpt lat="47.46542" lon="6.79115">
        <ele>387</ele>
        <time>2016-02-14T09:49:15.000Z</time>
      </trkpt>
      <trkpt lat="47.46542" lon="6.79114">
        <ele>387</ele>
        <time>2016-02-14T09:49:16.000Z</time>
      </trkpt>
      <trkpt lat="47.46539" lon="6.7911">
        <ele>387</ele>
        <time>2016-02-14T09:49:21.000Z</time>
      </trkpt>
      <trkpt lat="47.46538" lon="6.79108">
        <ele>387</ele>
        <time>2016-02-14T09:49:22.000Z</time>
      </trkpt>
      <trkpt lat="47.46537" lon="6.79102">
        <ele>387</ele>
        <time>2016-02-14T09:49:25.000Z</time>
      </trkpt>
      <trkpt lat="47.46536" lon="6.791">
        <ele>387</ele>
        <time>2016-02-14T09:49:26.000Z</time>
      </trkpt>
      <trkpt lat="47.46534" lon="6.79096">
        <ele>387</ele>
        <time>2016-02-14T09:49:28.000Z</time>
      </trkpt>
      <trkpt lat="47.46533" lon="6.79094">
        <ele>387</ele>
        <time>2016-02-14T09:49:29.000Z</time>
      </trkpt>
      <trkpt lat="47.46531" lon="6.7909">
        <ele>387</ele>
        <time>2016-02-14T09:49:31.000Z</time>
      </trkpt>
      <trkpt lat="47.4653" lon="6.79088">
        <ele>388</ele>
        <time>2016-02-14T09:49:32.000Z</time>
      </trkpt>
      <trkpt lat="47.46527" lon="6.79085">
        <ele>388</ele>
        <time>2016-02-14T09:49:34.000Z</time>
      </trkpt>
      <trkpt lat="47.46526" lon="6.79084">
        <ele>388</ele>
        <time>2016-02-14T09:49:35.000Z</time>
      </trkpt>
      <trkpt lat="47.46523" lon="6.79078">
        <ele>388</ele>
        <time>2016-02-14T09:49:38.000Z</time>
      </trkpt>
      <trkpt lat="47.46523" lon="6.79076">
        <ele>388</ele>
        <time>2016-02-14T09:49:39.000Z</time>
      </trkpt>
      <trkpt lat="47.46522" lon="6.7907">
        <ele>388</ele>
        <time>2016-02-14T09:49:42.000Z</time>
      </trkpt>
      <trkpt lat="47.46521" lon="6.79068">
        <ele>388</ele>
        <time>2016-02-14T09:49:43.000Z</time>
      </trkpt>
      <trkpt lat="47.46519" lon="6.79064">
        <ele>388</ele>
        <time>2016-02-14T09:49:45.000Z</time>
      </trkpt>
      <trkpt lat="47.46517" lon="6.79063">
        <ele>388</ele>
        <time>2016-02-14T09:49:46.000Z</time>
      </trkpt>
      <trkpt lat="47.46515" lon="6.79059">
        <ele>388</ele>
        <time>2016-02-14T09:49:48.000Z</time>
      </trkpt>
      <trkpt lat="47.46514" lon="6.79057">
        <ele>388</ele>
        <time>2016-02-14T09:49:49.000Z</time>
      </trkpt>
      <trkpt lat="47.46512" lon="6.79052">
        <ele>388</ele>
        <time>2016-02-14T09:49:51.000Z</time>
      </trkpt>
      <trkpt lat="47.46511" lon="6.7905">
        <ele>388</ele>
        <time>2016-02-14T09:49:52.000Z</time>
      </trkpt>
      <trkpt lat="47.46509" lon="6.79045">
        <ele>388</ele>
        <time>2016-02-14T09:49:54.000Z</time>
      </trkpt>
      <trkpt lat="47.46508" lon="6.79043">
        <ele>388</ele>
        <time>2016-02-14T09:49:55.000Z</time>
      </trkpt>
      <trkpt lat="47.46507" lon="6.79037">
        <ele>388</ele>
        <time>2016-02-14T09:49:57.000Z</time>
      </trkpt>
      <trkpt lat="47.46506" lon="6.79034">
        <ele>388</ele>
        <time>2016-02-14T09:49:58.000Z</time>
      </trkpt>
      <trkpt lat="47.46506" lon="6.79029">
        <ele>388</ele>
        <time>2016-02-14T09:50:00.000Z</time>
      </trkpt>
      <trkpt lat="47.46507" lon="6.79027">
        <ele>388</ele>
        <time>2016-02-14T09:50:01.000Z</time>
      </trkpt>
      <trkpt lat="47.46508" lon="6.79023">
        <ele>388</ele>
        <time>2016-02-14T09:50:03.000Z</time>
      </trkpt>
      <trkpt lat="47.4651" lon="6.79021">
        <ele>388</ele>
        <time>2016-02-14T09:50:04.000Z</time>
      </trkpt>
      <trkpt lat="47.46512" lon="6.79016">
        <ele>389</ele>
        <time>2016-02-14T09:50:06.000Z</time>
      </trkpt>
      <trkpt lat="47.46512" lon="6.79013">
        <ele>389</ele>
        <time>2016-02-14T09:50:07.000Z</time>
      </trkpt>
      <trkpt lat="47.46512" lon="6.79007">
        <ele>389</ele>
        <time>2016-02-14T09:50:09.000Z</time>
      </trkpt>
      <trkpt lat="47.46513" lon="6.79005">
        <ele>389</ele>
        <time>2016-02-14T09:50:10.000Z</time>
      </trkpt>
      <trkpt lat="47.46513" lon="6.78999">
        <ele>390</ele>
        <time>2016-02-14T09:50:13.000Z</time>
      </trkpt>
      <trkpt lat="47.46513" lon="6.78996">
        <ele>390</ele>
        <time>2016-02-14T09:50:14.000Z</time>
      </trkpt>
      <trkpt lat="47.46512" lon="6.78992">
        <ele>390</ele>
        <time>2016-02-14T09:50:16.000Z</time>
      </trkpt>
      <trkpt lat="47.46511" lon="6.7899">
        <ele>390</ele>
        <time>2016-02-14T09:50:17.000Z</time>
      </trkpt>
      <trkpt lat="47.46511" lon="6.78985">
        <ele>390</ele>
        <time>2016-02-14T09:50:19.000Z</time>
      </trkpt>
      <trkpt lat="47.4651" lon="6.78982">
        <ele>390</ele>
        <time>2016-02-14T09:50:20.000Z</time>
      </trkpt>
      <trkpt lat="47.46509" lon="6.78978">
        <ele>390</ele>
        <time>2016-02-14T09:50:22.000Z</time>
      </trkpt>
      <trkpt lat="47.46509" lon="6.78975">
        <ele>390</ele>
        <time>2016-02-14T09:50:23.000Z</time>
      </trkpt>
      <trkpt lat="47.46508" lon="6.78971">
        <ele>390</ele>
        <time>2016-02-14T09:50:25.000Z</time>
      </trkpt>
      <trkpt lat="47.46507" lon="6.78968">
        <ele>390</ele>
        <time>2016-02-14T09:50:26.000Z</time>
      </trkpt>
      <trkpt lat="47.46505" lon="6.78962">
        <ele>390</ele>
        <time>2016-02-14T09:50:28.000Z</time>
      </trkpt>
      <trkpt lat="47.46504" lon="6.7896">
        <ele>390</ele>
        <time>2016-02-14T09:50:29.000Z</time>
      </trkpt>
      <trkpt lat="47.46502" lon="6.78955">
        <ele>391</ele>
        <time>2016-02-14T09:50:31.000Z</time>
      </trkpt>
      <trkpt lat="47.46501" lon="6.78953">
        <ele>391</ele>
        <time>2016-02-14T09:50:32.000Z</time>
      </trkpt>
      <trkpt lat="47.46499" lon="6.78948">
        <ele>397</ele>
        <time>2016-02-14T09:50:34.000Z</time>
      </trkpt>
      <trkpt lat="47.46499" lon="6.78946">
        <ele>397</ele>
        <time>2016-02-14T09:50:35.000Z</time>
      </trkpt>
      <trkpt lat="47.46498" lon="6.78941">
        <ele>397</ele>
        <time>2016-02-14T09:50:37.000Z</time>
      </trkpt>
      <trkpt lat="47.46497" lon="6.78939">
        <ele>397</ele>
        <time>2016-02-14T09:50:38.000Z</time>
      </trkpt>
      <trkpt lat="47.46496" lon="6.78935">
        <ele>397</ele>
        <time>2016-02-14T09:50:40.000Z</time>
      </trkpt>
      <trkpt lat="47.46496" lon="6.78932">
        <ele>397</ele>
        <time>2016-02-14T09:50:41.000Z</time>
      </trkpt>
      <trkpt lat="47.46494" lon="6.78927">
        <ele>397</ele>
        <time>2016-02-14T09:50:44.000Z</time>
      </trkpt>
      <trkpt lat="47.46492" lon="6.78924">
        <ele>397</ele>
        <time>2016-02-14T09:50:45.000Z</time>
      </trkpt>
      <trkpt lat="47.46489" lon="6.7892">
        <ele>397</ele>
        <time>2016-02-14T09:50:52.000Z</time>
      </trkpt>
      <trkpt lat="47.46489" lon="6.7892">
        <ele>397</ele>
        <time>2016-02-14T09:50:53.000Z</time>
      </trkpt>
      <trkpt lat="47.46487" lon="6.78916">
        <ele>399</ele>
        <time>2016-02-14T09:51:09.000Z</time>
      </trkpt>
      <trkpt lat="47.46486" lon="6.78914">
        <ele>400</ele>
        <time>2016-02-14T09:51:10.000Z</time>
      </trkpt>
      <trkpt lat="47.46483" lon="6.7891">
        <ele>400</ele>
        <time>2016-02-14T09:51:12.000Z</time>
      </trkpt>
      <trkpt lat="47.46482" lon="6.78907">
        <ele>401</ele>
        <time>2016-02-14T09:51:13.000Z</time>
      </trkpt>
      <trkpt lat="47.4648" lon="6.78905">
        <ele>401</ele>
        <time>2016-02-14T09:51:14.000Z</time>
      </trkpt>
      <trkpt lat="47.46479" lon="6.78902">
        <ele>401</ele>
        <time>2016-02-14T09:51:15.000Z</time>
      </trkpt>
      <trkpt lat="47.46477" lon="6.78899">
        <ele>402</ele>
        <time>2016-02-14T09:51:16.000Z</time>
      </trkpt>
      <trkpt lat="47.46476" lon="6.78897">
        <ele>402</ele>
        <time>2016-02-14T09:51:17.000Z</time>
      </trkpt>
      <trkpt lat="47.46475" lon="6.78894">
        <ele>402</ele>
        <time>2016-02-14T09:51:18.000Z</time>
      </trkpt>
      <trkpt lat="47.46474" lon="6.78891">
        <ele>402</ele>
        <time>2016-02-14T09:51:19.000Z</time>
      </trkpt>
      <trkpt lat="47.46472" lon="6.78888">
        <ele>403</ele>
        <time>2016-02-14T09:51:20.000Z</time>
      </trkpt>
      <trkpt lat="47.46471" lon="6.78885">
        <ele>403</ele>
        <time>2016-02-14T09:51:21.000Z</time>
      </trkpt>
      <trkpt lat="47.46469" lon="6.7888">
        <ele>403</ele>
        <time>2016-02-14T09:51:23.000Z</time>
      </trkpt>
      <trkpt lat="47.46468" lon="6.78877">
        <ele>403</ele>
        <time>2016-02-14T09:51:24.000Z</time>
      </trkpt>
      <trkpt lat="47.46467" lon="6.78872">
        <ele>403</ele>
        <time>2016-02-14T09:51:26.000Z</time>
      </trkpt>
      <trkpt lat="47.46466" lon="6.7887">
        <ele>404</ele>
        <time>2016-02-14T09:51:27.000Z</time>
      </trkpt>
      <trkpt lat="47.46465" lon="6.78865">
        <ele>404</ele>
        <time>2016-02-14T09:51:29.000Z</time>
      </trkpt>
      <trkpt lat="47.46465" lon="6.78863">
        <ele>404</ele>
        <time>2016-02-14T09:51:30.000Z</time>
      </trkpt>
      <trkpt lat="47.46462" lon="6.78857">
        <ele>404</ele>
        <time>2016-02-14T09:51:33.000Z</time>
      </trkpt>
      <trkpt lat="47.46462" lon="6.78855">
        <ele>404</ele>
        <time>2016-02-14T09:51:34.000Z</time>
      </trkpt>
      <trkpt lat="47.4646" lon="6.7885">
        <ele>404</ele>
        <time>2016-02-14T09:51:36.000Z</time>
      </trkpt>
      <trkpt lat="47.4646" lon="6.78848">
        <ele>404</ele>
        <time>2016-02-14T09:51:37.000Z</time>
      </trkpt>
      <trkpt lat="47.46458" lon="6.78843">
        <ele>405</ele>
        <time>2016-02-14T09:51:39.000Z</time>
      </trkpt>
      <trkpt lat="47.46458" lon="6.78841">
        <ele>405</ele>
        <time>2016-02-14T09:51:40.000Z</time>
      </trkpt>
      <trkpt lat="47.46456" lon="6.78836">
        <ele>405</ele>
        <time>2016-02-14T09:51:42.000Z</time>
      </trkpt>
      <trkpt lat="47.46454" lon="6.78834">
        <ele>405</ele>
        <time>2016-02-14T09:51:43.000Z</time>
      </trkpt>
      <trkpt lat="47.46453" lon="6.78828">
        <ele>407</ele>
        <time>2016-02-14T09:51:45.000Z</time>
      </trkpt>
      <trkpt lat="47.46453" lon="6.78825">
        <ele>407</ele>
        <time>2016-02-14T09:51:46.000Z</time>
      </trkpt>
      <trkpt lat="47.46452" lon="6.78819">
        <ele>407</ele>
        <time>2016-02-14T09:51:48.000Z</time>
      </trkpt>
      <trkpt lat="47.46451" lon="6.78815">
        <ele>407</ele>
        <time>2016-02-14T09:51:49.000Z</time>
      </trkpt>
      <trkpt lat="47.4645" lon="6.78809">
        <ele>407</ele>
        <time>2016-02-14T09:51:51.000Z</time>
      </trkpt>
      <trkpt lat="47.46449" lon="6.78806">
        <ele>407</ele>
        <time>2016-02-14T09:51:52.000Z</time>
      </trkpt>
      <trkpt lat="47.46448" lon="6.788">
        <ele>408</ele>
        <time>2016-02-14T09:51:54.000Z</time>
      </trkpt>
      <trkpt lat="47.46447" lon="6.78797">
        <ele>408</ele>
        <time>2016-02-14T09:51:55.000Z</time>
      </trkpt>
      <trkpt lat="47.46446" lon="6.78794">
        <ele>408</ele>
        <time>2016-02-14T09:51:56.000Z</time>
      </trkpt>
      <trkpt lat="47.46444" lon="6.78791">
        <ele>408</ele>
        <time>2016-02-14T09:51:57.000Z</time>
      </trkpt>
      <trkpt lat="47.46442" lon="6.78786">
        <ele>408</ele>
        <time>2016-02-14T09:51:59.000Z</time>
      </trkpt>
      <trkpt lat="47.46441" lon="6.78783">
        <ele>408</ele>
        <time>2016-02-14T09:52:00.000Z</time>
      </trkpt>
      <trkpt lat="47.46439" lon="6.7878">
        <ele>409</ele>
        <time>2016-02-14T09:52:02.000Z</time>
      </trkpt>
      <trkpt lat="47.46438" lon="6.78778">
        <ele>409</ele>
        <time>2016-02-14T09:52:03.000Z</time>
      </trkpt>
      <trkpt lat="47.46435" lon="6.78774">
        <ele>409</ele>
        <time>2016-02-14T09:52:05.000Z</time>
      </trkpt>
      <trkpt lat="47.46433" lon="6.78771">
        <ele>410</ele>
        <time>2016-02-14T09:52:06.000Z</time>
      </trkpt>
      <trkpt lat="47.46432" lon="6.78768">
        <ele>410</ele>
        <time>2016-02-14T09:52:07.000Z</time>
      </trkpt>
      <trkpt lat="47.4643" lon="6.78766">
        <ele>410</ele>
        <time>2016-02-14T09:52:08.000Z</time>
      </trkpt>
      <trkpt lat="47.46429" lon="6.78763">
        <ele>411</ele>
        <time>2016-02-14T09:52:09.000Z</time>
      </trkpt>
      <trkpt lat="47.46428" lon="6.78758">
        <ele>411</ele>
        <time>2016-02-14T09:52:10.000Z</time>
      </trkpt>
      <trkpt lat="47.46427" lon="6.78754">
        <ele>412</ele>
        <time>2016-02-14T09:52:11.000Z</time>
      </trkpt>
      <trkpt lat="47.46426" lon="6.78749">
        <ele>413</ele>
        <time>2016-02-14T09:52:12.000Z</time>
      </trkpt>
      <trkpt lat="47.46426" lon="6.78745">
        <ele>413</ele>
        <time>2016-02-14T09:52:13.000Z</time>
      </trkpt>
      <trkpt lat="47.46425" lon="6.78741">
        <ele>412</ele>
        <time>2016-02-14T09:52:14.000Z</time>
      </trkpt>
      <trkpt lat="47.46425" lon="6.78736">
        <ele>412</ele>
        <time>2016-02-14T09:52:15.000Z</time>
      </trkpt>
      <trkpt lat="47.46425" lon="6.78732">
        <ele>412</ele>
        <time>2016-02-14T09:52:16.000Z</time>
      </trkpt>
      <trkpt lat="47.46423" lon="6.78727">
        <ele>411</ele>
        <time>2016-02-14T09:52:18.000Z</time>
      </trkpt>
      <trkpt lat="47.46423" lon="6.78724">
        <ele>411</ele>
        <time>2016-02-14T09:52:19.000Z</time>
      </trkpt>
      <trkpt lat="47.46421" lon="6.7872">
        <ele>411</ele>
        <time>2016-02-14T09:52:21.000Z</time>
      </trkpt>
      <trkpt lat="47.4642" lon="6.78717">
        <ele>411</ele>
        <time>2016-02-14T09:52:22.000Z</time>
      </trkpt>
      <trkpt lat="47.46419" lon="6.78713">
        <ele>411</ele>
        <time>2016-02-14T09:52:24.000Z</time>
      </trkpt>
      <trkpt lat="47.46419" lon="6.78711">
        <ele>411</ele>
        <time>2016-02-14T09:52:25.000Z</time>
      </trkpt>
      <trkpt lat="47.46419" lon="6.78704">
        <ele>411</ele>
        <time>2016-02-14T09:52:36.000Z</time>
      </trkpt>
      <trkpt lat="47.46419" lon="6.78704">
        <ele>411</ele>
        <time>2016-02-14T09:52:37.000Z</time>
      </trkpt>
      <trkpt lat="47.46418" lon="6.78699">
        <ele>411</ele>
        <time>2016-02-14T09:52:42.000Z</time>
      </trkpt>
      <trkpt lat="47.46418" lon="6.78697">
        <ele>411</ele>
        <time>2016-02-14T09:52:43.000Z</time>
      </trkpt>
      <trkpt lat="47.46416" lon="6.78691">
        <ele>414</ele>
        <time>2016-02-14T09:52:45.000Z</time>
      </trkpt>
      <trkpt lat="47.46415" lon="6.78687">
        <ele>414</ele>
        <time>2016-02-14T09:52:46.000Z</time>
      </trkpt>
      <trkpt lat="47.46414" lon="6.78683">
        <ele>414</ele>
        <time>2016-02-14T09:52:47.000Z</time>
      </trkpt>
      <trkpt lat="47.46413" lon="6.78678">
        <ele>414</ele>
        <time>2016-02-14T09:52:48.000Z</time>
      </trkpt>
      <trkpt lat="47.46412" lon="6.78673">
        <ele>415</ele>
        <time>2016-02-14T09:52:49.000Z</time>
      </trkpt>
      <trkpt lat="47.46411" lon="6.78668">
        <ele>415</ele>
        <time>2016-02-14T09:52:50.000Z</time>
      </trkpt>
      <trkpt lat="47.4641" lon="6.78663">
        <ele>414</ele>
        <time>2016-02-14T09:52:51.000Z</time>
      </trkpt>
      <trkpt lat="47.46409" lon="6.78658">
        <ele>414</ele>
        <time>2016-02-14T09:52:52.000Z</time>
      </trkpt>
      <trkpt lat="47.46408" lon="6.78653">
        <ele>413</ele>
        <time>2016-02-14T09:52:53.000Z</time>
      </trkpt>
      <trkpt lat="47.46407" lon="6.78648">
        <ele>413</ele>
        <time>2016-02-14T09:52:54.000Z</time>
      </trkpt>
      <trkpt lat="47.46406" lon="6.78644">
        <ele>413</ele>
        <time>2016-02-14T09:52:55.000Z</time>
      </trkpt>
      <trkpt lat="47.46405" lon="6.7864">
        <ele>413</ele>
        <time>2016-02-14T09:52:56.000Z</time>
      </trkpt>
      <trkpt lat="47.46404" lon="6.78636">
        <ele>413</ele>
        <time>2016-02-14T09:52:57.000Z</time>
      </trkpt>
      <trkpt lat="47.46402" lon="6.78631">
        <ele>412</ele>
        <time>2016-02-14T09:52:58.000Z</time>
      </trkpt>
      <trkpt lat="47.46401" lon="6.78625">
        <ele>412</ele>
        <time>2016-02-14T09:52:59.000Z</time>
      </trkpt>
      <trkpt lat="47.464" lon="6.78619">
        <ele>412</ele>
        <time>2016-02-14T09:53:00.000Z</time>
      </trkpt>
      <trkpt lat="47.46398" lon="6.78614">
        <ele>412</ele>
        <time>2016-02-14T09:53:01.000Z</time>
      </trkpt>
      <trkpt lat="47.46398" lon="6.78598">
        <ele>412</ele>
        <time>2016-02-14T09:53:02.000Z</time>
      </trkpt>
      <trkpt lat="47.46397" lon="6.78589">
        <ele>412</ele>
        <time>2016-02-14T09:53:03.000Z</time>
      </trkpt>
      <trkpt lat="47.46394" lon="6.78586">
        <ele>412</ele>
        <time>2016-02-14T09:53:04.000Z</time>
      </trkpt>
      <trkpt lat="47.46392" lon="6.78581">
        <ele>410</ele>
        <time>2016-02-14T09:53:05.000Z</time>
      </trkpt>
      <trkpt lat="47.46391" lon="6.78575">
        <ele>410</ele>
        <time>2016-02-14T09:53:06.000Z</time>
      </trkpt>
      <trkpt lat="47.46392" lon="6.78566">
        <ele>410</ele>
        <time>2016-02-14T09:53:07.000Z</time>
      </trkpt>
      <trkpt lat="47.46391" lon="6.78556">
        <ele>409</ele>
        <time>2016-02-14T09:53:08.000Z</time>
      </trkpt>
      <trkpt lat="47.46391" lon="6.78548">
        <ele>409</ele>
        <time>2016-02-14T09:53:09.000Z</time>
      </trkpt>
      <trkpt lat="47.46391" lon="6.7854">
        <ele>409</ele>
        <time>2016-02-14T09:53:10.000Z</time>
      </trkpt>
      <trkpt lat="47.46391" lon="6.78536">
        <ele>409</ele>
        <time>2016-02-14T09:53:11.000Z</time>
      </trkpt>
      <trkpt lat="47.46392" lon="6.78531">
        <ele>409</ele>
        <time>2016-02-14T09:53:12.000Z</time>
      </trkpt>
      <trkpt lat="47.46392" lon="6.78526">
        <ele>408</ele>
        <time>2016-02-14T09:53:13.000Z</time>
      </trkpt>
      <trkpt lat="47.46394" lon="6.78521">
        <ele>408</ele>
        <time>2016-02-14T09:53:14.000Z</time>
      </trkpt>
      <trkpt lat="47.46395" lon="6.78516">
        <ele>408</ele>
        <time>2016-02-14T09:53:15.000Z</time>
      </trkpt>
      <trkpt lat="47.46394" lon="6.78506">
        <ele>408</ele>
        <time>2016-02-14T09:53:16.000Z</time>
      </trkpt>
      <trkpt lat="47.46394" lon="6.78502">
        <ele>408</ele>
        <time>2016-02-14T09:53:17.000Z</time>
      </trkpt>
      <trkpt lat="47.46394" lon="6.78497">
        <ele>406</ele>
        <time>2016-02-14T09:53:18.000Z</time>
      </trkpt>
      <trkpt lat="47.46394" lon="6.78493">
        <ele>405</ele>
        <time>2016-02-14T09:53:19.000Z</time>
      </trkpt>
      <trkpt lat="47.46394" lon="6.78488">
        <ele>405</ele>
        <time>2016-02-14T09:53:20.000Z</time>
      </trkpt>
      <trkpt lat="47.46394" lon="6.78484">
        <ele>405</ele>
        <time>2016-02-14T09:53:21.000Z</time>
      </trkpt>
      <trkpt lat="47.46393" lon="6.78479">
        <ele>405</ele>
        <time>2016-02-14T09:53:22.000Z</time>
      </trkpt>
      <trkpt lat="47.4639" lon="6.78474">
        <ele>404</ele>
        <time>2016-02-14T09:53:24.000Z</time>
      </trkpt>
      <trkpt lat="47.46389" lon="6.78473">
        <ele>404</ele>
        <time>2016-02-14T09:53:25.000Z</time>
      </trkpt>
      <trkpt lat="47.46388" lon="6.78467">
        <ele>404</ele>
        <time>2016-02-14T09:53:30.000Z</time>
      </trkpt>
      <trkpt lat="47.46387" lon="6.78466">
        <ele>404</ele>
        <time>2016-02-14T09:53:31.000Z</time>
      </trkpt>
      <trkpt lat="47.46386" lon="6.78461">
        <ele>404</ele>
        <time>2016-02-14T09:53:35.000Z</time>
      </trkpt>
      <trkpt lat="47.46386" lon="6.78459">
        <ele>404</ele>
        <time>2016-02-14T09:53:36.000Z</time>
      </trkpt>
      <trkpt lat="47.46386" lon="6.78453">
        <ele>403</ele>
        <time>2016-02-14T09:53:40.000Z</time>
      </trkpt>
      <trkpt lat="47.46387" lon="6.78452">
        <ele>403</ele>
        <time>2016-02-14T09:53:41.000Z</time>
      </trkpt>
      <trkpt lat="47.4639" lon="6.78448">
        <ele>403</ele>
        <time>2016-02-14T09:53:44.000Z</time>
      </trkpt>
      <trkpt lat="47.46391" lon="6.78448">
        <ele>403</ele>
        <time>2016-02-14T09:53:45.000Z</time>
      </trkpt>
      <trkpt lat="47.46394" lon="6.78446">
        <ele>403</ele>
        <time>2016-02-14T09:53:48.000Z</time>
      </trkpt>
      <trkpt lat="47.46396" lon="6.78445">
        <ele>403</ele>
        <time>2016-02-14T09:53:49.000Z</time>
      </trkpt>
      <trkpt lat="47.464" lon="6.78445">
        <ele>403</ele>
        <time>2016-02-14T09:53:52.000Z</time>
      </trkpt>
      <trkpt lat="47.46401" lon="6.78445">
        <ele>403</ele>
        <time>2016-02-14T09:53:53.000Z</time>
      </trkpt>
      <trkpt lat="47.46404" lon="6.78445">
        <ele>403</ele>
        <time>2016-02-14T09:53:55.000Z</time>
      </trkpt>
      <trkpt lat="47.46406" lon="6.78444">
        <ele>403</ele>
        <time>2016-02-14T09:53:56.000Z</time>
      </trkpt>
      <trkpt lat="47.46409" lon="6.78443">
        <ele>403</ele>
        <time>2016-02-14T09:53:58.000Z</time>
      </trkpt>
      <trkpt lat="47.46411" lon="6.78443">
        <ele>403</ele>
        <time>2016-02-14T09:53:59.000Z</time>
      </trkpt>
      <trkpt lat="47.46415" lon="6.78443">
        <ele>403</ele>
        <time>2016-02-14T09:54:01.000Z</time>
      </trkpt>
      <trkpt lat="47.46416" lon="6.78444">
        <ele>403</ele>
        <time>2016-02-14T09:54:02.000Z</time>
      </trkpt>
      <trkpt lat="47.4642" lon="6.78443">
        <ele>402</ele>
        <time>2016-02-14T09:54:05.000Z</time>
      </trkpt>
      <trkpt lat="47.46421" lon="6.78442">
        <ele>401</ele>
        <time>2016-02-14T09:54:06.000Z</time>
      </trkpt>
      <trkpt lat="47.46425" lon="6.78442">
        <ele>401</ele>
        <time>2016-02-14T09:54:11.000Z</time>
      </trkpt>
      <trkpt lat="47.46426" lon="6.78443">
        <ele>401</ele>
        <time>2016-02-14T09:54:12.000Z</time>
      </trkpt>
      <trkpt lat="47.4643" lon="6.78444">
        <ele>401</ele>
        <time>2016-02-14T09:54:16.000Z</time>
      </trkpt>
      <trkpt lat="47.46431" lon="6.78444">
        <ele>401</ele>
        <time>2016-02-14T09:54:17.000Z</time>
      </trkpt>
      <trkpt lat="47.46434" lon="6.78444">
        <ele>401</ele>
        <time>2016-02-14T09:54:19.000Z</time>
      </trkpt>
      <trkpt lat="47.46437" lon="6.78443">
        <ele>401</ele>
        <time>2016-02-14T09:54:20.000Z</time>
      </trkpt>
      <trkpt lat="47.46439" lon="6.78443">
        <ele>401</ele>
        <time>2016-02-14T09:54:21.000Z</time>
      </trkpt>
      <trkpt lat="47.46442" lon="6.78443">
        <ele>401</ele>
        <time>2016-02-14T09:54:22.000Z</time>
      </trkpt>
      <trkpt lat="47.46445" lon="6.78443">
        <ele>401</ele>
        <time>2016-02-14T09:54:23.000Z</time>
      </trkpt>
      <trkpt lat="47.46448" lon="6.78442">
        <ele>401</ele>
        <time>2016-02-14T09:54:24.000Z</time>
      </trkpt>
      <trkpt lat="47.4645" lon="6.78442">
        <ele>401</ele>
        <time>2016-02-14T09:54:25.000Z</time>
      </trkpt>
      <trkpt lat="47.46452" lon="6.78442">
        <ele>401</ele>
        <time>2016-02-14T09:54:26.000Z</time>
      </trkpt>
      <trkpt lat="47.46455" lon="6.78441">
        <ele>400</ele>
        <time>2016-02-14T09:54:27.000Z</time>
      </trkpt>
      <trkpt lat="47.46457" lon="6.78441">
        <ele>400</ele>
        <time>2016-02-14T09:54:28.000Z</time>
      </trkpt>
      <trkpt lat="47.46462" lon="6.78442">
        <ele>400</ele>
        <time>2016-02-14T09:54:30.000Z</time>
      </trkpt>
      <trkpt lat="47.46463" lon="6.78442">
        <ele>400</ele>
        <time>2016-02-14T09:54:31.000Z</time>
      </trkpt>
      <trkpt lat="47.46467" lon="6.78442">
        <ele>400</ele>
        <time>2016-02-14T09:54:33.000Z</time>
      </trkpt>
      <trkpt lat="47.46469" lon="6.78442">
        <ele>400</ele>
        <time>2016-02-14T09:54:34.000Z</time>
      </trkpt>
      <trkpt lat="47.46473" lon="6.78442">
        <ele>400</ele>
        <time>2016-02-14T09:54:37.000Z</time>
      </trkpt>
      <trkpt lat="47.46475" lon="6.78442">
        <ele>399</ele>
        <time>2016-02-14T09:54:38.000Z</time>
      </trkpt>
      <trkpt lat="47.46478" lon="6.78442">
        <ele>399</ele>
        <time>2016-02-14T09:54:39.000Z</time>
      </trkpt>
      <trkpt lat="47.46482" lon="6.78442">
        <ele>399</ele>
        <time>2016-02-14T09:54:40.000Z</time>
      </trkpt>
      <trkpt lat="47.46485" lon="6.78441">
        <ele>399</ele>
        <time>2016-02-14T09:54:41.000Z</time>
      </trkpt>
      <trkpt lat="47.46488" lon="6.7844">
        <ele>399</ele>
        <time>2016-02-14T09:54:42.000Z</time>
      </trkpt>
      <trkpt lat="47.4649" lon="6.78439">
        <ele>399</ele>
        <time>2016-02-14T09:54:43.000Z</time>
      </trkpt>
      <trkpt lat="47.46493" lon="6.78438">
        <ele>399</ele>
        <time>2016-02-14T09:54:44.000Z</time>
      </trkpt>
      <trkpt lat="47.46495" lon="6.78437">
        <ele>398</ele>
        <time>2016-02-14T09:54:45.000Z</time>
      </trkpt>
      <trkpt lat="47.46497" lon="6.78437">
        <ele>398</ele>
        <time>2016-02-14T09:54:46.000Z</time>
      </trkpt>
      <trkpt lat="47.46502" lon="6.78438">
        <ele>394</ele>
        <time>2016-02-14T09:54:48.000Z</time>
      </trkpt>
      <trkpt lat="47.46504" lon="6.78438">
        <ele>394</ele>
        <time>2016-02-14T09:54:49.000Z</time>
      </trkpt>
      <trkpt lat="47.46508" lon="6.78437">
        <ele>394</ele>
        <time>2016-02-14T09:54:51.000Z</time>
      </trkpt>
      <trkpt lat="47.4651" lon="6.78437">
        <ele>394</ele>
        <time>2016-02-14T09:54:52.000Z</time>
      </trkpt>
      <trkpt lat="47.46513" lon="6.78439">
        <ele>393</ele>
        <time>2016-02-14T09:54:54.000Z</time>
      </trkpt>
      <trkpt lat="47.46514" lon="6.78441">
        <ele>393</ele>
        <time>2016-02-14T09:54:55.000Z</time>
      </trkpt>
      <trkpt lat="47.46516" lon="6.78446">
        <ele>393</ele>
        <time>2016-02-14T09:54:58.000Z</time>
      </trkpt>
      <trkpt lat="47.46517" lon="6.78447">
        <ele>393</ele>
        <time>2016-02-14T09:54:59.000Z</time>
      </trkpt>
      <trkpt lat="47.46518" lon="6.78452">
        <ele>393</ele>
        <time>2016-02-14T09:55:02.000Z</time>
      </trkpt>
      <trkpt lat="47.46518" lon="6.78455">
        <ele>393</ele>
        <time>2016-02-14T09:55:03.000Z</time>
      </trkpt>
      <trkpt lat="47.46518" lon="6.78459">
        <ele>393</ele>
        <time>2016-02-14T09:55:04.000Z</time>
      </trkpt>
      <trkpt lat="47.46519" lon="6.78463">
        <ele>393</ele>
        <time>2016-02-14T09:55:05.000Z</time>
      </trkpt>
      <trkpt lat="47.4652" lon="6.78468">
        <ele>393</ele>
        <time>2016-02-14T09:55:08.000Z</time>
      </trkpt>
      <trkpt lat="47.46521" lon="6.78469">
        <ele>393</ele>
        <time>2016-02-14T09:55:09.000Z</time>
      </trkpt>
      <trkpt lat="47.46522" lon="6.78473">
        <ele>393</ele>
        <time>2016-02-14T09:55:11.000Z</time>
      </trkpt>
      <trkpt lat="47.46522" lon="6.78476">
        <ele>393</ele>
        <time>2016-02-14T09:55:12.000Z</time>
      </trkpt>
      <trkpt lat="47.46524" lon="6.78481">
        <ele>393</ele>
        <time>2016-02-14T09:55:14.000Z</time>
      </trkpt>
      <trkpt lat="47.46524" lon="6.78483">
        <ele>393</ele>
        <time>2016-02-14T09:55:15.000Z</time>
      </trkpt>
      <trkpt lat="47.46525" lon="6.78488">
        <ele>393</ele>
        <time>2016-02-14T09:55:17.000Z</time>
      </trkpt>
      <trkpt lat="47.46526" lon="6.7849">
        <ele>393</ele>
        <time>2016-02-14T09:55:18.000Z</time>
      </trkpt>
      <trkpt lat="47.46527" lon="6.78495">
        <ele>393</ele>
        <time>2016-02-14T09:55:20.000Z</time>
      </trkpt>
      <trkpt lat="47.46528" lon="6.78498">
        <ele>393</ele>
        <time>2016-02-14T09:55:21.000Z</time>
      </trkpt>
      <trkpt lat="47.46529" lon="6.78503">
        <ele>394</ele>
        <time>2016-02-14T09:55:23.000Z</time>
      </trkpt>
      <trkpt lat="47.4653" lon="6.78505">
        <ele>394</ele>
        <time>2016-02-14T09:55:24.000Z</time>
      </trkpt>
      <trkpt lat="47.46531" lon="6.78511">
        <ele>394</ele>
        <time>2016-02-14T09:55:27.000Z</time>
      </trkpt>
      <trkpt lat="47.46532" lon="6.78513">
        <ele>394</ele>
        <time>2016-02-14T09:55:28.000Z</time>
      </trkpt>
      <trkpt lat="47.46533" lon="6.78517">
        <ele>394</ele>
        <time>2016-02-14T09:55:30.000Z</time>
      </trkpt>
      <trkpt lat="47.46533" lon="6.78519">
        <ele>394</ele>
        <time>2016-02-14T09:55:31.000Z</time>
      </trkpt>
      <trkpt lat="47.46534" lon="6.78524">
        <ele>394</ele>
        <time>2016-02-14T09:55:33.000Z</time>
      </trkpt>
      <trkpt lat="47.46533" lon="6.78526">
        <ele>394</ele>
        <time>2016-02-14T09:55:34.000Z</time>
      </trkpt>
      <trkpt lat="47.46533" lon="6.7853">
        <ele>394</ele>
        <time>2016-02-14T09:55:36.000Z</time>
      </trkpt>
      <trkpt lat="47.46533" lon="6.78533">
        <ele>394</ele>
        <time>2016-02-14T09:55:37.000Z</time>
      </trkpt>
      <trkpt lat="47.46533" lon="6.78537">
        <ele>394</ele>
        <time>2016-02-14T09:55:39.000Z</time>
      </trkpt>
      <trkpt lat="47.46534" lon="6.7854">
        <ele>395</ele>
        <time>2016-02-14T09:55:40.000Z</time>
      </trkpt>
      <trkpt lat="47.46534" lon="6.78545">
        <ele>395</ele>
        <time>2016-02-14T09:55:42.000Z</time>
      </trkpt>
      <trkpt lat="47.46534" lon="6.78548">
        <ele>395</ele>
        <time>2016-02-14T09:55:43.000Z</time>
      </trkpt>
      <trkpt lat="47.46535" lon="6.78554">
        <ele>395</ele>
        <time>2016-02-14T09:55:45.000Z</time>
      </trkpt>
      <trkpt lat="47.46535" lon="6.78557">
        <ele>395</ele>
        <time>2016-02-14T09:55:46.000Z</time>
      </trkpt>
      <trkpt lat="47.46536" lon="6.78561">
        <ele>395</ele>
        <time>2016-02-14T09:55:47.000Z</time>
      </trkpt>
      <trkpt lat="47.46536" lon="6.78564">
        <ele>395</ele>
        <time>2016-02-14T09:55:48.000Z</time>
      </trkpt>
      <trkpt lat="47.46537" lon="6.78568">
        <ele>395</ele>
        <time>2016-02-14T09:55:49.000Z</time>
      </trkpt>
      <trkpt lat="47.46538" lon="6.78571">
        <ele>395</ele>
        <time>2016-02-14T09:55:50.000Z</time>
      </trkpt>
      <trkpt lat="47.4654" lon="6.78577">
        <ele>395</ele>
        <time>2016-02-14T09:55:52.000Z</time>
      </trkpt>
      <trkpt lat="47.46541" lon="6.7858">
        <ele>395</ele>
        <time>2016-02-14T09:55:53.000Z</time>
      </trkpt>
      <trkpt lat="47.46541" lon="6.78584">
        <ele>396</ele>
        <time>2016-02-14T09:55:54.000Z</time>
      </trkpt>
      <trkpt lat="47.46541" lon="6.78588">
        <ele>396</ele>
        <time>2016-02-14T09:55:55.000Z</time>
      </trkpt>
      <trkpt lat="47.46542" lon="6.78591">
        <ele>396</ele>
        <time>2016-02-14T09:55:56.000Z</time>
      </trkpt>
      <trkpt lat="47.46542" lon="6.78595">
        <ele>396</ele>
        <time>2016-02-14T09:55:57.000Z</time>
      </trkpt>
      <trkpt lat="47.46542" lon="6.78598">
        <ele>396</ele>
        <time>2016-02-14T09:55:58.000Z</time>
      </trkpt>
      <trkpt lat="47.46543" lon="6.78601">
        <ele>395</ele>
        <time>2016-02-14T09:55:59.000Z</time>
      </trkpt>
      <trkpt lat="47.46544" lon="6.78605">
        <ele>395</ele>
        <time>2016-02-14T09:56:00.000Z</time>
      </trkpt>
      <trkpt lat="47.46544" lon="6.78608">
        <ele>395</ele>
        <time>2016-02-14T09:56:01.000Z</time>
      </trkpt>
      <trkpt lat="47.46544" lon="6.78611">
        <ele>395</ele>
        <time>2016-02-14T09:56:02.000Z</time>
      </trkpt>
      <trkpt lat="47.46544" lon="6.78615">
        <ele>395</ele>
        <time>2016-02-14T09:56:03.000Z</time>
      </trkpt>
      <trkpt lat="47.46545" lon="6.78618">
        <ele>395</ele>
        <time>2016-02-14T09:56:04.000Z</time>
      </trkpt>
      <trkpt lat="47.46545" lon="6.78621">
        <ele>395</ele>
        <time>2016-02-14T09:56:05.000Z</time>
      </trkpt>
      <trkpt lat="47.46545" lon="6.78625">
        <ele>395</ele>
        <time>2016-02-14T09:56:06.000Z</time>
      </trkpt>
      <trkpt lat="47.46546" lon="6.78628">
        <ele>395</ele>
        <time>2016-02-14T09:56:07.000Z</time>
      </trkpt>
      <trkpt lat="47.46547" lon="6.78633">
        <ele>395</ele>
        <time>2016-02-14T09:56:09.000Z</time>
      </trkpt>
      <trkpt lat="47.46547" lon="6.78635">
        <ele>395</ele>
        <time>2016-02-14T09:56:10.000Z</time>
      </trkpt>
      <trkpt lat="47.46548" lon="6.78641">
        <ele>395</ele>
        <time>2016-02-14T09:56:13.000Z</time>
      </trkpt>
      <trkpt lat="47.46549" lon="6.78643">
        <ele>395</ele>
        <time>2016-02-14T09:56:14.000Z</time>
      </trkpt>
      <trkpt lat="47.46549" lon="6.78648">
        <ele>394</ele>
        <time>2016-02-14T09:56:16.000Z</time>
      </trkpt>
      <trkpt lat="47.4655" lon="6.7865">
        <ele>394</ele>
        <time>2016-02-14T09:56:17.000Z</time>
      </trkpt>
      <trkpt lat="47.46551" lon="6.78654">
        <ele>394</ele>
        <time>2016-02-14T09:56:19.000Z</time>
      </trkpt>
      <trkpt lat="47.46551" lon="6.78656">
        <ele>394</ele>
        <time>2016-02-14T09:56:20.000Z</time>
      </trkpt>
      <trkpt lat="47.46552" lon="6.78662">
        <ele>394</ele>
        <time>2016-02-14T09:56:22.000Z</time>
      </trkpt>
      <trkpt lat="47.46553" lon="6.78668">
        <ele>392</ele>
        <time>2016-02-14T09:56:23.000Z</time>
      </trkpt>
      <trkpt lat="47.46554" lon="6.78671">
        <ele>392</ele>
        <time>2016-02-14T09:56:24.000Z</time>
      </trkpt>
      <trkpt lat="47.46554" lon="6.78674">
        <ele>392</ele>
        <time>2016-02-14T09:56:25.000Z</time>
      </trkpt>
      <trkpt lat="47.46555" lon="6.78679">
        <ele>392</ele>
        <time>2016-02-14T09:56:28.000Z</time>
      </trkpt>
      <trkpt lat="47.46555" lon="6.78681">
        <ele>392</ele>
        <time>2016-02-14T09:56:29.000Z</time>
      </trkpt>
      <trkpt lat="47.46555" lon="6.78685">
        <ele>392</ele>
        <time>2016-02-14T09:56:43.000Z</time>
      </trkpt>
      <trkpt lat="47.46557" lon="6.78687">
        <ele>392</ele>
        <time>2016-02-14T09:56:44.000Z</time>
      </trkpt>
      <trkpt lat="47.4656" lon="6.78688">
        <ele>391</ele>
        <time>2016-02-14T09:56:46.000Z</time>
      </trkpt>
      <trkpt lat="47.46563" lon="6.78689">
        <ele>391</ele>
        <time>2016-02-14T09:56:47.000Z</time>
      </trkpt>
      <trkpt lat="47.46566" lon="6.7869">
        <ele>391</ele>
        <time>2016-02-14T09:56:48.000Z</time>
      </trkpt>
      <trkpt lat="47.4657" lon="6.78689">
        <ele>390</ele>
        <time>2016-02-14T09:56:49.000Z</time>
      </trkpt>
      <trkpt lat="47.46573" lon="6.78689">
        <ele>390</ele>
        <time>2016-02-14T09:56:50.000Z</time>
      </trkpt>
      <trkpt lat="47.46577" lon="6.78689">
        <ele>390</ele>
        <time>2016-02-14T09:56:51.000Z</time>
      </trkpt>
      <trkpt lat="47.4658" lon="6.7869">
        <ele>390</ele>
        <time>2016-02-14T09:56:52.000Z</time>
      </trkpt>
      <trkpt lat="47.46583" lon="6.7869">
        <ele>390</ele>
        <time>2016-02-14T09:56:53.000Z</time>
      </trkpt>
      <trkpt lat="47.46586" lon="6.78691">
        <ele>383</ele>
        <time>2016-02-14T09:56:54.000Z</time>
      </trkpt>
      <trkpt lat="47.46589" lon="6.78692">
        <ele>383</ele>
        <time>2016-02-14T09:56:55.000Z</time>
      </trkpt>
      <trkpt lat="47.46593" lon="6.78693">
        <ele>383</ele>
        <time>2016-02-14T09:56:56.000Z</time>
      </trkpt>
      <trkpt lat="47.46596" lon="6.78693">
        <ele>383</ele>
        <time>2016-02-14T09:56:57.000Z</time>
      </trkpt>
      <trkpt lat="47.466" lon="6.78694">
        <ele>383</ele>
        <time>2016-02-14T09:56:58.000Z</time>
      </trkpt>
      <trkpt lat="47.46604" lon="6.78695">
        <ele>383</ele>
        <time>2016-02-14T09:56:59.000Z</time>
      </trkpt>
      <trkpt lat="47.46608" lon="6.78695">
        <ele>382</ele>
        <time>2016-02-14T09:57:00.000Z</time>
      </trkpt>
      <trkpt lat="47.46612" lon="6.78695">
        <ele>382</ele>
        <time>2016-02-14T09:57:01.000Z</time>
      </trkpt>
      <trkpt lat="47.46616" lon="6.78695">
        <ele>382</ele>
        <time>2016-02-14T09:57:02.000Z</time>
      </trkpt>
      <trkpt lat="47.4662" lon="6.78695">
        <ele>382</ele>
        <time>2016-02-14T09:57:03.000Z</time>
      </trkpt>
      <trkpt lat="47.46625" lon="6.78694">
        <ele>382</ele>
        <time>2016-02-14T09:57:04.000Z</time>
      </trkpt>
      <trkpt lat="47.4663" lon="6.78694">
        <ele>382</ele>
        <time>2016-02-14T09:57:05.000Z</time>
      </trkpt>
      <trkpt lat="47.46634" lon="6.78694">
        <ele>382</ele>
        <time>2016-02-14T09:57:06.000Z</time>
      </trkpt>
      <trkpt lat="47.46638" lon="6.78694">
        <ele>381</ele>
        <time>2016-02-14T09:57:07.000Z</time>
      </trkpt>
      <trkpt lat="47.46642" lon="6.78695">
        <ele>381</ele>
        <time>2016-02-14T09:57:08.000Z</time>
      </trkpt>
      <trkpt lat="47.46645" lon="6.78695">
        <ele>381</ele>
        <time>2016-02-14T09:57:09.000Z</time>
      </trkpt>
      <trkpt lat="47.46648" lon="6.78696">
        <ele>381</ele>
        <time>2016-02-14T09:57:10.000Z</time>
      </trkpt>
      <trkpt lat="47.46652" lon="6.78697">
        <ele>381</ele>
        <time>2016-02-14T09:57:11.000Z</time>
      </trkpt>
      <trkpt lat="47.46654" lon="6.78697">
        <ele>381</ele>
        <time>2016-02-14T09:57:12.000Z</time>
      </trkpt>
      <trkpt lat="47.46657" lon="6.78697">
        <ele>381</ele>
        <time>2016-02-14T09:57:13.000Z</time>
      </trkpt>
      <trkpt lat="47.4666" lon="6.78697">
        <ele>381</ele>
        <time>2016-02-14T09:57:14.000Z</time>
      </trkpt>
      <trkpt lat="47.46663" lon="6.78697">
        <ele>381</ele>
        <time>2016-02-14T09:57:15.000Z</time>
      </trkpt>
      <trkpt lat="47.46666" lon="6.78698">
        <ele>381</ele>
        <time>2016-02-14T09:57:16.000Z</time>
      </trkpt>
      <trkpt lat="47.46669" lon="6.78698">
        <ele>376</ele>
        <time>2016-02-14T09:57:17.000Z</time>
      </trkpt>
      <trkpt lat="47.46672" lon="6.78699">
        <ele>376</ele>
        <time>2016-02-14T09:57:18.000Z</time>
      </trkpt>
      <trkpt lat="47.46675" lon="6.78699">
        <ele>376</ele>
        <time>2016-02-14T09:57:19.000Z</time>
      </trkpt>
      <trkpt lat="47.46678" lon="6.787">
        <ele>376</ele>
        <time>2016-02-14T09:57:20.000Z</time>
      </trkpt>
      <trkpt lat="47.46681" lon="6.78701">
        <ele>376</ele>
        <time>2016-02-14T09:57:21.000Z</time>
      </trkpt>
      <trkpt lat="47.46684" lon="6.78701">
        <ele>376</ele>
        <time>2016-02-14T09:57:22.000Z</time>
      </trkpt>
      <trkpt lat="47.46686" lon="6.78699">
        <ele>376</ele>
        <time>2016-02-14T09:57:23.000Z</time>
      </trkpt>
      <trkpt lat="47.46689" lon="6.78697">
        <ele>375</ele>
        <time>2016-02-14T09:57:24.000Z</time>
      </trkpt>
      <trkpt lat="47.46692" lon="6.78695">
        <ele>375</ele>
        <time>2016-02-14T09:57:25.000Z</time>
      </trkpt>
      <trkpt lat="47.46695" lon="6.78693">
        <ele>375</ele>
        <time>2016-02-14T09:57:26.000Z</time>
      </trkpt>
      <trkpt lat="47.46697" lon="6.78692">
        <ele>375</ele>
        <time>2016-02-14T09:57:27.000Z</time>
      </trkpt>
      <trkpt lat="47.467" lon="6.78692">
        <ele>375</ele>
        <time>2016-02-14T09:57:28.000Z</time>
      </trkpt>
      <trkpt lat="47.46703" lon="6.78691">
        <ele>375</ele>
        <time>2016-02-14T09:57:29.000Z</time>
      </trkpt>
      <trkpt lat="47.46705" lon="6.7869">
        <ele>375</ele>
        <time>2016-02-14T09:57:30.000Z</time>
      </trkpt>
      <trkpt lat="47.46708" lon="6.78689">
        <ele>375</ele>
        <time>2016-02-14T09:57:31.000Z</time>
      </trkpt>
      <trkpt lat="47.4671" lon="6.78689">
        <ele>374</ele>
        <time>2016-02-14T09:57:32.000Z</time>
      </trkpt>
      <trkpt lat="47.46712" lon="6.78689">
        <ele>374</ele>
        <time>2016-02-14T09:57:33.000Z</time>
      </trkpt>
      <trkpt lat="47.46714" lon="6.7869">
        <ele>374</ele>
        <time>2016-02-14T09:57:34.000Z</time>
      </trkpt>
      <trkpt lat="47.46717" lon="6.7869">
        <ele>374</ele>
        <time>2016-02-14T09:57:35.000Z</time>
      </trkpt>
      <trkpt lat="47.46719" lon="6.78692">
        <ele>374</ele>
        <time>2016-02-14T09:57:36.000Z</time>
      </trkpt>
      <trkpt lat="47.46722" lon="6.78693">
        <ele>374</ele>
        <time>2016-02-14T09:57:37.000Z</time>
      </trkpt>
      <trkpt lat="47.46725" lon="6.78693">
        <ele>374</ele>
        <time>2016-02-14T09:57:38.000Z</time>
      </trkpt>
      <trkpt lat="47.46727" lon="6.78693">
        <ele>373</ele>
        <time>2016-02-14T09:57:39.000Z</time>
      </trkpt>
      <trkpt lat="47.46729" lon="6.78692">
        <ele>373</ele>
        <time>2016-02-14T09:57:40.000Z</time>
      </trkpt>
      <trkpt lat="47.46732" lon="6.7869">
        <ele>373</ele>
        <time>2016-02-14T09:57:41.000Z</time>
      </trkpt>
      <trkpt lat="47.46734" lon="6.78686">
        <ele>373</ele>
        <time>2016-02-14T09:57:42.000Z</time>
      </trkpt>
      <trkpt lat="47.46736" lon="6.78682">
        <ele>373</ele>
        <time>2016-02-14T09:57:43.000Z</time>
      </trkpt>
      <trkpt lat="47.46738" lon="6.78678">
        <ele>373</ele>
        <time>2016-02-14T09:57:44.000Z</time>
      </trkpt>
      <trkpt lat="47.4674" lon="6.78675">
        <ele>373</ele>
        <time>2016-02-14T09:57:45.000Z</time>
      </trkpt>
      <trkpt lat="47.46742" lon="6.78672">
        <ele>373</ele>
        <time>2016-02-14T09:57:46.000Z</time>
      </trkpt>
      <trkpt lat="47.46744" lon="6.78669">
        <ele>372</ele>
        <time>2016-02-14T09:57:47.000Z</time>
      </trkpt>
      <trkpt lat="47.46747" lon="6.78667">
        <ele>372</ele>
        <time>2016-02-14T09:57:48.000Z</time>
      </trkpt>
      <trkpt lat="47.46749" lon="6.78665">
        <ele>372</ele>
        <time>2016-02-14T09:57:49.000Z</time>
      </trkpt>
      <trkpt lat="47.46751" lon="6.78663">
        <ele>371</ele>
        <time>2016-02-14T09:57:50.000Z</time>
      </trkpt>
      <trkpt lat="47.46753" lon="6.78661">
        <ele>371</ele>
        <time>2016-02-14T09:57:51.000Z</time>
      </trkpt>
      <trkpt lat="47.46756" lon="6.78659">
        <ele>371</ele>
        <time>2016-02-14T09:57:52.000Z</time>
      </trkpt>
      <trkpt lat="47.46757" lon="6.78657">
        <ele>370</ele>
        <time>2016-02-14T09:57:53.000Z</time>
      </trkpt>
      <trkpt lat="47.4676" lon="6.78654">
        <ele>370</ele>
        <time>2016-02-14T09:57:54.000Z</time>
      </trkpt>
      <trkpt lat="47.46761" lon="6.78653">
        <ele>370</ele>
        <time>2016-02-14T09:57:55.000Z</time>
      </trkpt>
      <trkpt lat="47.46765" lon="6.78653">
        <ele>369</ele>
        <time>2016-02-14T09:58:03.000Z</time>
      </trkpt>
      <trkpt lat="47.46766" lon="6.78654">
        <ele>369</ele>
        <time>2016-02-14T09:58:04.000Z</time>
      </trkpt>
      <trkpt lat="47.46769" lon="6.78651">
        <ele>369</ele>
        <time>2016-02-14T09:58:11.000Z</time>
      </trkpt>
      <trkpt lat="47.46771" lon="6.78649">
        <ele>369</ele>
        <time>2016-02-14T09:58:12.000Z</time>
      </trkpt>
      <trkpt lat="47.46773" lon="6.78647">
        <ele>369</ele>
        <time>2016-02-14T09:58:13.000Z</time>
      </trkpt>
      <trkpt lat="47.46775" lon="6.78644">
        <ele>368</ele>
        <time>2016-02-14T09:58:14.000Z</time>
      </trkpt>
      <trkpt lat="47.46777" lon="6.78641">
        <ele>368</ele>
        <time>2016-02-14T09:58:15.000Z</time>
      </trkpt>
      <trkpt lat="47.4678" lon="6.78637">
        <ele>368</ele>
        <time>2016-02-14T09:58:16.000Z</time>
      </trkpt>
      <trkpt lat="47.46783" lon="6.78633">
        <ele>368</ele>
        <time>2016-02-14T09:58:17.000Z</time>
      </trkpt>
      <trkpt lat="47.46785" lon="6.78629">
        <ele>368</ele>
        <time>2016-02-14T09:58:18.000Z</time>
      </trkpt>
      <trkpt lat="47.46788" lon="6.78626">
        <ele>368</ele>
        <time>2016-02-14T09:58:19.000Z</time>
      </trkpt>
      <trkpt lat="47.4679" lon="6.78622">
        <ele>367</ele>
        <time>2016-02-14T09:58:20.000Z</time>
      </trkpt>
      <trkpt lat="47.46793" lon="6.78618">
        <ele>367</ele>
        <time>2016-02-14T09:58:21.000Z</time>
      </trkpt>
      <trkpt lat="47.46795" lon="6.78614">
        <ele>367</ele>
        <time>2016-02-14T09:58:22.000Z</time>
      </trkpt>
      <trkpt lat="47.46798" lon="6.78609">
        <ele>367</ele>
        <time>2016-02-14T09:58:23.000Z</time>
      </trkpt>
      <trkpt lat="47.468" lon="6.78604">
        <ele>366</ele>
        <time>2016-02-14T09:58:24.000Z</time>
      </trkpt>
      <trkpt lat="47.46803" lon="6.78599">
        <ele>366</ele>
        <time>2016-02-14T09:58:25.000Z</time>
      </trkpt>
      <trkpt lat="47.46805" lon="6.78593">
        <ele>366</ele>
        <time>2016-02-14T09:58:26.000Z</time>
      </trkpt>
      <trkpt lat="47.46808" lon="6.78589">
        <ele>365</ele>
        <time>2016-02-14T09:58:27.000Z</time>
      </trkpt>
      <trkpt lat="47.46811" lon="6.78585">
        <ele>365</ele>
        <time>2016-02-14T09:58:28.000Z</time>
      </trkpt>
      <trkpt lat="47.46814" lon="6.78583">
        <ele>364</ele>
        <time>2016-02-14T09:58:29.000Z</time>
      </trkpt>
      <trkpt lat="47.46818" lon="6.78582">
        <ele>363</ele>
        <time>2016-02-14T09:58:30.000Z</time>
      </trkpt>
      <trkpt lat="47.46821" lon="6.78581">
        <ele>363</ele>
        <time>2016-02-14T09:58:31.000Z</time>
      </trkpt>
      <trkpt lat="47.46825" lon="6.78581">
        <ele>362</ele>
        <time>2016-02-14T09:58:32.000Z</time>
      </trkpt>
      <trkpt lat="47.46827" lon="6.7858">
        <ele>362</ele>
        <time>2016-02-14T09:58:33.000Z</time>
      </trkpt>
      <trkpt lat="47.46829" lon="6.7858">
        <ele>361</ele>
        <time>2016-02-14T09:58:34.000Z</time>
      </trkpt>
      <trkpt lat="47.46833" lon="6.78581">
        <ele>361</ele>
        <time>2016-02-14T09:58:36.000Z</time>
      </trkpt>
      <trkpt lat="47.46835" lon="6.78582">
        <ele>359</ele>
        <time>2016-02-14T09:58:37.000Z</time>
      </trkpt>
      <trkpt lat="47.46839" lon="6.78583">
        <ele>359</ele>
        <time>2016-02-14T09:58:38.000Z</time>
      </trkpt>
      <trkpt lat="47.46843" lon="6.78585">
        <ele>359</ele>
        <time>2016-02-14T09:58:39.000Z</time>
      </trkpt>
      <trkpt lat="47.46848" lon="6.78588">
        <ele>358</ele>
        <time>2016-02-14T09:58:40.000Z</time>
      </trkpt>
      <trkpt lat="47.46869" lon="6.78595">
        <ele>356</ele>
        <time>2016-02-14T09:58:41.000Z</time>
      </trkpt>
      <trkpt lat="47.46873" lon="6.78598">
        <ele>356</ele>
        <time>2016-02-14T09:58:42.000Z</time>
      </trkpt>
      <trkpt lat="47.46876" lon="6.78599">
        <ele>355</ele>
        <time>2016-02-14T09:58:43.000Z</time>
      </trkpt>
      <trkpt lat="47.4688" lon="6.786">
        <ele>355</ele>
        <time>2016-02-14T09:58:44.000Z</time>
      </trkpt>
      <trkpt lat="47.46883" lon="6.78602">
        <ele>355</ele>
        <time>2016-02-14T09:58:45.000Z</time>
      </trkpt>
      <trkpt lat="47.46885" lon="6.78603">
        <ele>355</ele>
        <time>2016-02-14T09:58:46.000Z</time>
      </trkpt>
      <trkpt lat="47.46888" lon="6.78603">
        <ele>354</ele>
        <time>2016-02-14T09:58:47.000Z</time>
      </trkpt>
      <trkpt lat="47.46891" lon="6.78603">
        <ele>354</ele>
        <time>2016-02-14T09:58:48.000Z</time>
      </trkpt>
      <trkpt lat="47.46894" lon="6.78604">
        <ele>354</ele>
        <time>2016-02-14T09:58:49.000Z</time>
      </trkpt>
      <trkpt lat="47.46897" lon="6.78604">
        <ele>353</ele>
        <time>2016-02-14T09:58:50.000Z</time>
      </trkpt>
      <trkpt lat="47.46901" lon="6.78604">
        <ele>353</ele>
        <time>2016-02-14T09:58:51.000Z</time>
      </trkpt>
      <trkpt lat="47.46904" lon="6.78605">
        <ele>353</ele>
        <time>2016-02-14T09:58:52.000Z</time>
      </trkpt>
      <trkpt lat="47.46907" lon="6.78605">
        <ele>353</ele>
        <time>2016-02-14T09:58:53.000Z</time>
      </trkpt>
      <trkpt lat="47.4691" lon="6.78605">
        <ele>353</ele>
        <time>2016-02-14T09:58:54.000Z</time>
      </trkpt>
      <trkpt lat="47.46913" lon="6.78605">
        <ele>352</ele>
        <time>2016-02-14T09:58:55.000Z</time>
      </trkpt>
      <trkpt lat="47.46916" lon="6.78605">
        <ele>352</ele>
        <time>2016-02-14T09:58:56.000Z</time>
      </trkpt>
      <trkpt lat="47.46918" lon="6.78604">
        <ele>352</ele>
        <time>2016-02-14T09:58:57.000Z</time>
      </trkpt>
      <trkpt lat="47.46921" lon="6.78604">
        <ele>352</ele>
        <time>2016-02-14T09:58:58.000Z</time>
      </trkpt>
      <trkpt lat="47.46923" lon="6.78603">
        <ele>353</ele>
        <time>2016-02-14T09:58:59.000Z</time>
      </trkpt>
      <trkpt lat="47.46926" lon="6.78602">
        <ele>353</ele>
        <time>2016-02-14T09:59:00.000Z</time>
      </trkpt>
      <trkpt lat="47.46928" lon="6.78601">
        <ele>353</ele>
        <time>2016-02-14T09:59:01.000Z</time>
      </trkpt>
      <trkpt lat="47.46931" lon="6.78601">
        <ele>353</ele>
        <time>2016-02-14T09:59:02.000Z</time>
      </trkpt>
      <trkpt lat="47.46933" lon="6.78599">
        <ele>353</ele>
        <time>2016-02-14T09:59:03.000Z</time>
      </trkpt>
      <trkpt lat="47.46935" lon="6.78598">
        <ele>353</ele>
        <time>2016-02-14T09:59:04.000Z</time>
      </trkpt>
      <trkpt lat="47.46939" lon="6.78596">
        <ele>354</ele>
        <time>2016-02-14T09:59:06.000Z</time>
      </trkpt>
      <trkpt lat="47.46941" lon="6.78595">
        <ele>354</ele>
        <time>2016-02-14T09:59:07.000Z</time>
      </trkpt>
      <trkpt lat="47.46944" lon="6.78593">
        <ele>354</ele>
        <time>2016-02-14T09:59:10.000Z</time>
      </trkpt>
      <trkpt lat="47.46945" lon="6.78592">
        <ele>354</ele>
        <time>2016-02-14T09:59:11.000Z</time>
      </trkpt>
      <trkpt lat="47.46949" lon="6.7859">
        <ele>355</ele>
        <time>2016-02-14T09:59:15.000Z</time>
      </trkpt>
      <trkpt lat="47.46951" lon="6.7859">
        <ele>355</ele>
        <time>2016-02-14T09:59:16.000Z</time>
      </trkpt>
      <trkpt lat="47.46955" lon="6.7859">
        <ele>355</ele>
        <time>2016-02-14T09:59:19.000Z</time>
      </trkpt>
      <trkpt lat="47.46956" lon="6.78589">
        <ele>355</ele>
        <time>2016-02-14T09:59:20.000Z</time>
      </trkpt>
      <trkpt lat="47.4696" lon="6.78588">
        <ele>356</ele>
        <time>2016-02-14T09:59:23.000Z</time>
      </trkpt>
      <trkpt lat="47.46961" lon="6.78587">
        <ele>356</ele>
        <time>2016-02-14T09:59:24.000Z</time>
      </trkpt>
      <trkpt lat="47.46965" lon="6.78586">
        <ele>356</ele>
        <time>2016-02-14T09:59:27.000Z</time>
      </trkpt>
      <trkpt lat="47.46966" lon="6.78586">
        <ele>356</ele>
        <time>2016-02-14T09:59:28.000Z</time>
      </trkpt>
      <trkpt lat="47.46969" lon="6.78585">
        <ele>357</ele>
        <time>2016-02-14T09:59:31.000Z</time>
      </trkpt>
      <trkpt lat="47.4697" lon="6.78585">
        <ele>357</ele>
        <time>2016-02-14T09:59:32.000Z</time>
      </trkpt>
      <trkpt lat="47.46975" lon="6.78583">
        <ele>357</ele>
        <time>2016-02-14T09:59:35.000Z</time>
      </trkpt>
      <trkpt lat="47.46976" lon="6.78583">
        <ele>356</ele>
        <time>2016-02-14T09:59:36.000Z</time>
      </trkpt>
      <trkpt lat="47.4698" lon="6.78581">
        <ele>357</ele>
        <time>2016-02-14T09:59:40.000Z</time>
      </trkpt>
      <trkpt lat="47.46982" lon="6.7858">
        <ele>357</ele>
        <time>2016-02-14T09:59:41.000Z</time>
      </trkpt>
      <trkpt lat="47.46985" lon="6.78578">
        <ele>358</ele>
        <time>2016-02-14T09:59:44.000Z</time>
      </trkpt>
      <trkpt lat="47.46986" lon="6.78577">
        <ele>358</ele>
        <time>2016-02-14T09:59:45.000Z</time>
      </trkpt>
      <trkpt lat="47.4699" lon="6.78576">
        <ele>358</ele>
        <time>2016-02-14T09:59:48.000Z</time>
      </trkpt>
      <trkpt lat="47.46991" lon="6.78576">
        <ele>358</ele>
        <time>2016-02-14T09:59:49.000Z</time>
      </trkpt>
      <trkpt lat="47.46994" lon="6.78575">
        <ele>359</ele>
        <time>2016-02-14T09:59:52.000Z</time>
      </trkpt>
      <trkpt lat="47.46995" lon="6.78574">
        <ele>359</ele>
        <time>2016-02-14T09:59:53.000Z</time>
      </trkpt>
      <trkpt lat="47.46998" lon="6.78573">
        <ele>359</ele>
        <time>2016-02-14T09:59:55.000Z</time>
      </trkpt>
      <trkpt lat="47.46999" lon="6.78572">
        <ele>358</ele>
        <time>2016-02-14T09:59:56.000Z</time>
      </trkpt>
      <trkpt lat="47.47002" lon="6.78571">
        <ele>361</ele>
        <time>2016-02-14T09:59:58.000Z</time>
      </trkpt>
      <trkpt lat="47.47004" lon="6.7857">
        <ele>361</ele>
        <time>2016-02-14T09:59:59.000Z</time>
      </trkpt>
      <trkpt lat="47.47007" lon="6.78567">
        <ele>361</ele>
        <time>2016-02-14T10:00:01.000Z</time>
      </trkpt>
      <trkpt lat="47.47009" lon="6.78565">
        <ele>361</ele>
        <time>2016-02-14T10:00:02.000Z</time>
      </trkpt>
      <trkpt lat="47.47011" lon="6.78561">
        <ele>361</ele>
        <time>2016-02-14T10:00:04.000Z</time>
      </trkpt>
      <trkpt lat="47.47012" lon="6.78559">
        <ele>361</ele>
        <time>2016-02-14T10:00:05.000Z</time>
      </trkpt>
      <trkpt lat="47.47015" lon="6.78555">
        <ele>361</ele>
        <time>2016-02-14T10:00:08.000Z</time>
      </trkpt>
      <trkpt lat="47.47016" lon="6.78554">
        <ele>361</ele>
        <time>2016-02-14T10:00:09.000Z</time>
      </trkpt>
      <trkpt lat="47.47019" lon="6.78552">
        <ele>361</ele>
        <time>2016-02-14T10:00:11.000Z</time>
      </trkpt>
      <trkpt lat="47.4702" lon="6.78551">
        <ele>361</ele>
        <time>2016-02-14T10:00:12.000Z</time>
      </trkpt>
      <trkpt lat="47.47024" lon="6.78549">
        <ele>361</ele>
        <time>2016-02-14T10:00:14.000Z</time>
      </trkpt>
      <trkpt lat="47.47025" lon="6.78548">
        <ele>361</ele>
        <time>2016-02-14T10:00:15.000Z</time>
      </trkpt>
      <trkpt lat="47.47029" lon="6.78547">
        <ele>361</ele>
        <time>2016-02-14T10:00:17.000Z</time>
      </trkpt>
      <trkpt lat="47.4703" lon="6.78547">
        <ele>361</ele>
        <time>2016-02-14T10:00:18.000Z</time>
      </trkpt>
      <trkpt lat="47.47034" lon="6.78545">
        <ele>361</ele>
        <time>2016-02-14T10:00:21.000Z</time>
      </trkpt>
      <trkpt lat="47.47036" lon="6.78545">
        <ele>361</ele>
        <time>2016-02-14T10:00:22.000Z</time>
      </trkpt>
      <trkpt lat="47.47039" lon="6.78543">
        <ele>361</ele>
        <time>2016-02-14T10:00:25.000Z</time>
      </trkpt>
      <trkpt lat="47.4704" lon="6.78542">
        <ele>361</ele>
        <time>2016-02-14T10:00:26.000Z</time>
      </trkpt>
      <trkpt lat="47.47044" lon="6.7854">
        <ele>362</ele>
        <time>2016-02-14T10:00:29.000Z</time>
      </trkpt>
      <trkpt lat="47.47045" lon="6.7854">
        <ele>362</ele>
        <time>2016-02-14T10:00:30.000Z</time>
      </trkpt>
      <trkpt lat="47.47048" lon="6.78537">
        <ele>361</ele>
        <time>2016-02-14T10:00:33.000Z</time>
      </trkpt>
      <trkpt lat="47.47049" lon="6.78536">
        <ele>361</ele>
        <time>2016-02-14T10:00:34.000Z</time>
      </trkpt>
      <trkpt lat="47.47052" lon="6.78533">
        <ele>361</ele>
        <time>2016-02-14T10:00:36.000Z</time>
      </trkpt>
      <trkpt lat="47.47053" lon="6.78532">
        <ele>361</ele>
        <time>2016-02-14T10:00:37.000Z</time>
      </trkpt>
      <trkpt lat="47.47057" lon="6.7853">
        <ele>361</ele>
        <time>2016-02-14T10:00:39.000Z</time>
      </trkpt>
      <trkpt lat="47.47059" lon="6.78528">
        <ele>361</ele>
        <time>2016-02-14T10:00:40.000Z</time>
      </trkpt>
      <trkpt lat="47.47063" lon="6.78526">
        <ele>361</ele>
        <time>2016-02-14T10:00:42.000Z</time>
      </trkpt>
      <trkpt lat="47.47065" lon="6.78525">
        <ele>361</ele>
        <time>2016-02-14T10:00:43.000Z</time>
      </trkpt>
      <trkpt lat="47.47068" lon="6.78522">
        <ele>361</ele>
        <time>2016-02-14T10:00:45.000Z</time>
      </trkpt>
      <trkpt lat="47.47071" lon="6.7852">
        <ele>361</ele>
        <time>2016-02-14T10:00:46.000Z</time>
      </trkpt>
      <trkpt lat="47.47074" lon="6.78519">
        <ele>361</ele>
        <time>2016-02-14T10:00:47.000Z</time>
      </trkpt>
      <trkpt lat="47.47076" lon="6.78517">
        <ele>361</ele>
        <time>2016-02-14T10:00:48.000Z</time>
      </trkpt>
      <trkpt lat="47.47079" lon="6.78516">
        <ele>361</ele>
        <time>2016-02-14T10:00:49.000Z</time>
      </trkpt>
      <trkpt lat="47.47081" lon="6.78515">
        <ele>361</ele>
        <time>2016-02-14T10:00:50.000Z</time>
      </trkpt>
      <trkpt lat="47.47084" lon="6.78513">
        <ele>361</ele>
        <time>2016-02-14T10:00:52.000Z</time>
      </trkpt>
      <trkpt lat="47.47085" lon="6.78512">
        <ele>361</ele>
        <time>2016-02-14T10:00:53.000Z</time>
      </trkpt>
      <trkpt lat="47.47089" lon="6.78509">
        <ele>361</ele>
        <time>2016-02-14T10:00:55.000Z</time>
      </trkpt>
      <trkpt lat="47.47089" lon="6.78507">
        <ele>361</ele>
        <time>2016-02-14T10:00:56.000Z</time>
      </trkpt>
      <trkpt lat="47.47091" lon="6.78503">
        <ele>361</ele>
        <time>2016-02-14T10:00:58.000Z</time>
      </trkpt>
      <trkpt lat="47.47092" lon="6.78501">
        <ele>361</ele>
        <time>2016-02-14T10:00:59.000Z</time>
      </trkpt>
      <trkpt lat="47.47095" lon="6.78499">
        <ele>359</ele>
        <time>2016-02-14T10:01:01.000Z</time>
      </trkpt>
      <trkpt lat="47.47097" lon="6.78498">
        <ele>359</ele>
        <time>2016-02-14T10:01:02.000Z</time>
      </trkpt>
      <trkpt lat="47.471" lon="6.78496">
        <ele>359</ele>
        <time>2016-02-14T10:01:04.000Z</time>
      </trkpt>
      <trkpt lat="47.47101" lon="6.78495">
        <ele>359</ele>
        <time>2016-02-14T10:01:05.000Z</time>
      </trkpt>
      <trkpt lat="47.47104" lon="6.78493">
        <ele>359</ele>
        <time>2016-02-14T10:01:07.000Z</time>
      </trkpt>
      <trkpt lat="47.47106" lon="6.78491">
        <ele>359</ele>
        <time>2016-02-14T10:01:08.000Z</time>
      </trkpt>
      <trkpt lat="47.4711" lon="6.78489">
        <ele>359</ele>
        <time>2016-02-14T10:01:10.000Z</time>
      </trkpt>
      <trkpt lat="47.47111" lon="6.78487">
        <ele>359</ele>
        <time>2016-02-14T10:01:11.000Z</time>
      </trkpt>
      <trkpt lat="47.47114" lon="6.78485">
        <ele>359</ele>
        <time>2016-02-14T10:01:13.000Z</time>
      </trkpt>
      <trkpt lat="47.47116" lon="6.78483">
        <ele>359</ele>
        <time>2016-02-14T10:01:14.000Z</time>
      </trkpt>
      <trkpt lat="47.4712" lon="6.7848">
        <ele>359</ele>
        <time>2016-02-14T10:01:16.000Z</time>
      </trkpt>
      <trkpt lat="47.47121" lon="6.78478">
        <ele>359</ele>
        <time>2016-02-14T10:01:17.000Z</time>
      </trkpt>
      <trkpt lat="47.47124" lon="6.78474">
        <ele>359</ele>
        <time>2016-02-14T10:01:19.000Z</time>
      </trkpt>
      <trkpt lat="47.47125" lon="6.78473">
        <ele>359</ele>
        <time>2016-02-14T10:01:20.000Z</time>
      </trkpt>
      <trkpt lat="47.47129" lon="6.78472">
        <ele>359</ele>
        <time>2016-02-14T10:01:22.000Z</time>
      </trkpt>
      <trkpt lat="47.47131" lon="6.7847">
        <ele>359</ele>
        <time>2016-02-14T10:01:23.000Z</time>
      </trkpt>
      <trkpt lat="47.47134" lon="6.78468">
        <ele>359</ele>
        <time>2016-02-14T10:01:24.000Z</time>
      </trkpt>
      <trkpt lat="47.47137" lon="6.78466">
        <ele>358</ele>
        <time>2016-02-14T10:01:25.000Z</time>
      </trkpt>
      <trkpt lat="47.47139" lon="6.78463">
        <ele>358</ele>
        <time>2016-02-14T10:01:26.000Z</time>
      </trkpt>
      <trkpt lat="47.47142" lon="6.78461">
        <ele>358</ele>
        <time>2016-02-14T10:01:27.000Z</time>
      </trkpt>
      <trkpt lat="47.47146" lon="6.78459">
        <ele>358</ele>
        <time>2016-02-14T10:01:29.000Z</time>
      </trkpt>
      <trkpt lat="47.47148" lon="6.78459">
        <ele>358</ele>
        <time>2016-02-14T10:01:30.000Z</time>
      </trkpt>
      <trkpt lat="47.47151" lon="6.78459">
        <ele>358</ele>
        <time>2016-02-14T10:01:32.000Z</time>
      </trkpt>
      <trkpt lat="47.47154" lon="6.78458">
        <ele>358</ele>
        <time>2016-02-14T10:01:33.000Z</time>
      </trkpt>
      <trkpt lat="47.47156" lon="6.78458">
        <ele>358</ele>
        <time>2016-02-14T10:01:34.000Z</time>
      </trkpt>
      <trkpt lat="47.47159" lon="6.78458">
        <ele>358</ele>
        <time>2016-02-14T10:01:35.000Z</time>
      </trkpt>
      <trkpt lat="47.47163" lon="6.78458">
        <ele>359</ele>
        <time>2016-02-14T10:01:37.000Z</time>
      </trkpt>
      <trkpt lat="47.47164" lon="6.78459">
        <ele>359</ele>
        <time>2016-02-14T10:01:38.000Z</time>
      </trkpt>
      <trkpt lat="47.47168" lon="6.78463">
        <ele>360</ele>
        <time>2016-02-14T10:01:42.000Z</time>
      </trkpt>
      <trkpt lat="47.47169" lon="6.78463">
        <ele>360</ele>
        <time>2016-02-14T10:01:43.000Z</time>
      </trkpt>
      <trkpt lat="47.47173" lon="6.78465">
        <ele>360</ele>
        <time>2016-02-14T10:01:46.000Z</time>
      </trkpt>
      <trkpt lat="47.47174" lon="6.78465">
        <ele>360</ele>
        <time>2016-02-14T10:01:47.000Z</time>
      </trkpt>
      <trkpt lat="47.47178" lon="6.78467">
        <ele>360</ele>
        <time>2016-02-14T10:01:50.000Z</time>
      </trkpt>
      <trkpt lat="47.47179" lon="6.78467">
        <ele>360</ele>
        <time>2016-02-14T10:01:51.000Z</time>
      </trkpt>
      <trkpt lat="47.47183" lon="6.78469">
        <ele>360</ele>
        <time>2016-02-14T10:01:57.000Z</time>
      </trkpt>
      <trkpt lat="47.47184" lon="6.78469">
        <ele>360</ele>
        <time>2016-02-14T10:01:58.000Z</time>
      </trkpt>
      <trkpt lat="47.47187" lon="6.7847">
        <ele>360</ele>
        <time>2016-02-14T10:02:01.000Z</time>
      </trkpt>
      <trkpt lat="47.47188" lon="6.78471">
        <ele>360</ele>
        <time>2016-02-14T10:02:02.000Z</time>
      </trkpt>
      <trkpt lat="47.47191" lon="6.78472">
        <ele>360</ele>
        <time>2016-02-14T10:02:04.000Z</time>
      </trkpt>
      <trkpt lat="47.47192" lon="6.78473">
        <ele>360</ele>
        <time>2016-02-14T10:02:05.000Z</time>
      </trkpt>
      <trkpt lat="47.47195" lon="6.78475">
        <ele>360</ele>
        <time>2016-02-14T10:02:07.000Z</time>
      </trkpt>
      <trkpt lat="47.47197" lon="6.78476">
        <ele>360</ele>
        <time>2016-02-14T10:02:08.000Z</time>
      </trkpt>
      <trkpt lat="47.47201" lon="6.78478">
        <ele>360</ele>
        <time>2016-02-14T10:02:10.000Z</time>
      </trkpt>
      <trkpt lat="47.47202" lon="6.78479">
        <ele>360</ele>
        <time>2016-02-14T10:02:11.000Z</time>
      </trkpt>
      <trkpt lat="47.47206" lon="6.78481">
        <ele>360</ele>
        <time>2016-02-14T10:02:13.000Z</time>
      </trkpt>
      <trkpt lat="47.47208" lon="6.78482">
        <ele>360</ele>
        <time>2016-02-14T10:02:14.000Z</time>
      </trkpt>
      <trkpt lat="47.47212" lon="6.78483">
        <ele>360</ele>
        <time>2016-02-14T10:02:16.000Z</time>
      </trkpt>
      <trkpt lat="47.47214" lon="6.78484">
        <ele>360</ele>
        <time>2016-02-14T10:02:17.000Z</time>
      </trkpt>
      <trkpt lat="47.47218" lon="6.78486">
        <ele>360</ele>
        <time>2016-02-14T10:02:19.000Z</time>
      </trkpt>
      <trkpt lat="47.4722" lon="6.78487">
        <ele>361</ele>
        <time>2016-02-14T10:02:20.000Z</time>
      </trkpt>
      <trkpt lat="47.47224" lon="6.78488">
        <ele>361</ele>
        <time>2016-02-14T10:02:23.000Z</time>
      </trkpt>
      <trkpt lat="47.47226" lon="6.78488">
        <ele>361</ele>
        <time>2016-02-14T10:02:24.000Z</time>
      </trkpt>
      <trkpt lat="47.47229" lon="6.78489">
        <ele>361</ele>
        <time>2016-02-14T10:02:26.000Z</time>
      </trkpt>
      <trkpt lat="47.47231" lon="6.7849">
        <ele>361</ele>
        <time>2016-02-14T10:02:27.000Z</time>
      </trkpt>
      <trkpt lat="47.47235" lon="6.78491">
        <ele>361</ele>
        <time>2016-02-14T10:02:29.000Z</time>
      </trkpt>
      <trkpt lat="47.47236" lon="6.78492">
        <ele>361</ele>
        <time>2016-02-14T10:02:30.000Z</time>
      </trkpt>
      <trkpt lat="47.47239" lon="6.78493">
        <ele>361</ele>
        <time>2016-02-14T10:02:32.000Z</time>
      </trkpt>
      <trkpt lat="47.47241" lon="6.78493">
        <ele>361</ele>
        <time>2016-02-14T10:02:33.000Z</time>
      </trkpt>
      <trkpt lat="47.47244" lon="6.78494">
        <ele>361</ele>
        <time>2016-02-14T10:02:35.000Z</time>
      </trkpt>
      <trkpt lat="47.47246" lon="6.78494">
        <ele>361</ele>
        <time>2016-02-14T10:02:36.000Z</time>
      </trkpt>
      <trkpt lat="47.47249" lon="6.78494">
        <ele>362</ele>
        <time>2016-02-14T10:02:38.000Z</time>
      </trkpt>
      <trkpt lat="47.47251" lon="6.78494">
        <ele>362</ele>
        <time>2016-02-14T10:02:39.000Z</time>
      </trkpt>
      <trkpt lat="47.47253" lon="6.78496">
        <ele>362</ele>
        <time>2016-02-14T10:02:40.000Z</time>
      </trkpt>
      <trkpt lat="47.47256" lon="6.78497">
        <ele>362</ele>
        <time>2016-02-14T10:02:41.000Z</time>
      </trkpt>
      <trkpt lat="47.47259" lon="6.78498">
        <ele>362</ele>
        <time>2016-02-14T10:02:42.000Z</time>
      </trkpt>
      <trkpt lat="47.47261" lon="6.785">
        <ele>363</ele>
        <time>2016-02-14T10:02:43.000Z</time>
      </trkpt>
      <trkpt lat="47.47264" lon="6.78503">
        <ele>363</ele>
        <time>2016-02-14T10:02:44.000Z</time>
      </trkpt>
      <trkpt lat="47.47266" lon="6.78505">
        <ele>363</ele>
        <time>2016-02-14T10:02:45.000Z</time>
      </trkpt>
      <trkpt lat="47.47269" lon="6.78507">
        <ele>363</ele>
        <time>2016-02-14T10:02:47.000Z</time>
      </trkpt>
      <trkpt lat="47.4727" lon="6.78508">
        <ele>363</ele>
        <time>2016-02-14T10:02:48.000Z</time>
      </trkpt>
      <trkpt lat="47.47274" lon="6.78509">
        <ele>363</ele>
        <time>2016-02-14T10:02:52.000Z</time>
      </trkpt>
      <trkpt lat="47.47275" lon="6.7851">
        <ele>363</ele>
        <time>2016-02-14T10:02:53.000Z</time>
      </trkpt>
      <trkpt lat="47.47279" lon="6.78513">
        <ele>363</ele>
        <time>2016-02-14T10:02:56.000Z</time>
      </trkpt>
      <trkpt lat="47.4728" lon="6.78514">
        <ele>363</ele>
        <time>2016-02-14T10:02:57.000Z</time>
      </trkpt>
      <trkpt lat="47.47283" lon="6.78517">
        <ele>363</ele>
        <time>2016-02-14T10:02:59.000Z</time>
      </trkpt>
      <trkpt lat="47.47284" lon="6.78518">
        <ele>363</ele>
        <time>2016-02-14T10:03:00.000Z</time>
      </trkpt>
      <trkpt lat="47.47287" lon="6.78521">
        <ele>363</ele>
        <time>2016-02-14T10:03:02.000Z</time>
      </trkpt>
      <trkpt lat="47.47288" lon="6.78522">
        <ele>363</ele>
        <time>2016-02-14T10:03:03.000Z</time>
      </trkpt>
      <trkpt lat="47.47291" lon="6.78524">
        <ele>363</ele>
        <time>2016-02-14T10:03:05.000Z</time>
      </trkpt>
      <trkpt lat="47.47293" lon="6.78525">
        <ele>364</ele>
        <time>2016-02-14T10:03:06.000Z</time>
      </trkpt>
      <trkpt lat="47.47296" lon="6.78527">
        <ele>364</ele>
        <time>2016-02-14T10:03:08.000Z</time>
      </trkpt>
      <trkpt lat="47.47298" lon="6.78527">
        <ele>364</ele>
        <time>2016-02-14T10:03:09.000Z</time>
      </trkpt>
      <trkpt lat="47.47301" lon="6.78528">
        <ele>364</ele>
        <time>2016-02-14T10:03:11.000Z</time>
      </trkpt>
      <trkpt lat="47.47303" lon="6.78529">
        <ele>364</ele>
        <time>2016-02-14T10:03:12.000Z</time>
      </trkpt>
      <trkpt lat="47.47306" lon="6.78531">
        <ele>364</ele>
        <time>2016-02-14T10:03:14.000Z</time>
      </trkpt>
      <trkpt lat="47.47308" lon="6.78532">
        <ele>364</ele>
        <time>2016-02-14T10:03:15.000Z</time>
      </trkpt>
      <trkpt lat="47.47312" lon="6.78534">
        <ele>364</ele>
        <time>2016-02-14T10:03:17.000Z</time>
      </trkpt>
      <trkpt lat="47.47313" lon="6.78535">
        <ele>364</ele>
        <time>2016-02-14T10:03:18.000Z</time>
      </trkpt>
      <trkpt lat="47.47317" lon="6.78538">
        <ele>364</ele>
        <time>2016-02-14T10:03:21.000Z</time>
      </trkpt>
      <trkpt lat="47.47318" lon="6.78539">
        <ele>364</ele>
        <time>2016-02-14T10:03:22.000Z</time>
      </trkpt>
      <trkpt lat="47.47322" lon="6.78541">
        <ele>364</ele>
        <time>2016-02-14T10:03:24.000Z</time>
      </trkpt>
      <trkpt lat="47.47323" lon="6.78542">
        <ele>364</ele>
        <time>2016-02-14T10:03:25.000Z</time>
      </trkpt>
      <trkpt lat="47.47327" lon="6.78543">
        <ele>364</ele>
        <time>2016-02-14T10:03:27.000Z</time>
      </trkpt>
      <trkpt lat="47.47329" lon="6.78543">
        <ele>364</ele>
        <time>2016-02-14T10:03:28.000Z</time>
      </trkpt>
      <trkpt lat="47.47332" lon="6.78543">
        <ele>364</ele>
        <time>2016-02-14T10:03:29.000Z</time>
      </trkpt>
      <trkpt lat="47.47334" lon="6.78544">
        <ele>365</ele>
        <time>2016-02-14T10:03:30.000Z</time>
      </trkpt>
      <trkpt lat="47.47338" lon="6.78546">
        <ele>365</ele>
        <time>2016-02-14T10:03:32.000Z</time>
      </trkpt>
      <trkpt lat="47.4734" lon="6.78547">
        <ele>365</ele>
        <time>2016-02-14T10:03:33.000Z</time>
      </trkpt>
      <trkpt lat="47.47343" lon="6.78548">
        <ele>365</ele>
        <time>2016-02-14T10:03:35.000Z</time>
      </trkpt>
      <trkpt lat="47.47345" lon="6.7855">
        <ele>365</ele>
        <time>2016-02-14T10:03:36.000Z</time>
      </trkpt>
      <trkpt lat="47.47349" lon="6.78552">
        <ele>365</ele>
        <time>2016-02-14T10:03:38.000Z</time>
      </trkpt>
      <trkpt lat="47.47351" lon="6.78553">
        <ele>365</ele>
        <time>2016-02-14T10:03:39.000Z</time>
      </trkpt>
      <trkpt lat="47.47353" lon="6.78556">
        <ele>365</ele>
        <time>2016-02-14T10:03:41.000Z</time>
      </trkpt>
      <trkpt lat="47.47355" lon="6.78557">
        <ele>365</ele>
        <time>2016-02-14T10:03:42.000Z</time>
      </trkpt>
      <trkpt lat="47.47358" lon="6.78558">
        <ele>365</ele>
        <time>2016-02-14T10:03:43.000Z</time>
      </trkpt>
      <trkpt lat="47.4736" lon="6.7856">
        <ele>365</ele>
        <time>2016-02-14T10:03:44.000Z</time>
      </trkpt>
      <trkpt lat="47.47363" lon="6.78561">
        <ele>365</ele>
        <time>2016-02-14T10:03:45.000Z</time>
      </trkpt>
      <trkpt lat="47.47366" lon="6.78562">
        <ele>365</ele>
        <time>2016-02-14T10:03:46.000Z</time>
      </trkpt>
      <trkpt lat="47.47369" lon="6.78565">
        <ele>365</ele>
        <time>2016-02-14T10:03:48.000Z</time>
      </trkpt>
      <trkpt lat="47.4737" lon="6.78566">
        <ele>365</ele>
        <time>2016-02-14T10:03:49.000Z</time>
      </trkpt>
      <trkpt lat="47.47373" lon="6.78568">
        <ele>365</ele>
        <time>2016-02-14T10:03:51.000Z</time>
      </trkpt>
      <trkpt lat="47.47375" lon="6.78569">
        <ele>365</ele>
        <time>2016-02-14T10:03:52.000Z</time>
      </trkpt>
      <trkpt lat="47.47379" lon="6.78571">
        <ele>365</ele>
        <time>2016-02-14T10:03:54.000Z</time>
      </trkpt>
      <trkpt lat="47.47381" lon="6.78572">
        <ele>365</ele>
        <time>2016-02-14T10:03:55.000Z</time>
      </trkpt>
      <trkpt lat="47.47384" lon="6.78574">
        <ele>365</ele>
        <time>2016-02-14T10:03:57.000Z</time>
      </trkpt>
      <trkpt lat="47.47386" lon="6.78575">
        <ele>365</ele>
        <time>2016-02-14T10:03:58.000Z</time>
      </trkpt>
      <trkpt lat="47.4739" lon="6.78577">
        <ele>365</ele>
        <time>2016-02-14T10:04:00.000Z</time>
      </trkpt>
      <trkpt lat="47.47392" lon="6.78578">
        <ele>365</ele>
        <time>2016-02-14T10:04:01.000Z</time>
      </trkpt>
      <trkpt lat="47.47395" lon="6.78578">
        <ele>365</ele>
        <time>2016-02-14T10:04:02.000Z</time>
      </trkpt>
      <trkpt lat="47.47397" lon="6.78579">
        <ele>365</ele>
        <time>2016-02-14T10:04:03.000Z</time>
      </trkpt>
      <trkpt lat="47.47401" lon="6.7858">
        <ele>365</ele>
        <time>2016-02-14T10:04:05.000Z</time>
      </trkpt>
      <trkpt lat="47.47403" lon="6.78582">
        <ele>366</ele>
        <time>2016-02-14T10:04:06.000Z</time>
      </trkpt>
      <trkpt lat="47.47407" lon="6.78584">
        <ele>366</ele>
        <time>2016-02-14T10:04:08.000Z</time>
      </trkpt>
      <trkpt lat="47.47409" lon="6.78584">
        <ele>366</ele>
        <time>2016-02-14T10:04:09.000Z</time>
      </trkpt>
      <trkpt lat="47.47413" lon="6.78586">
        <ele>366</ele>
        <time>2016-02-14T10:04:11.000Z</time>
      </trkpt>
      <trkpt lat="47.47415" lon="6.78586">
        <ele>366</ele>
        <time>2016-02-14T10:04:12.000Z</time>
      </trkpt>
      <trkpt lat="47.47418" lon="6.78588">
        <ele>366</ele>
        <time>2016-02-14T10:04:14.000Z</time>
      </trkpt>
      <trkpt lat="47.4742" lon="6.78589">
        <ele>366</ele>
        <time>2016-02-14T10:04:15.000Z</time>
      </trkpt>
      <trkpt lat="47.47423" lon="6.78592">
        <ele>365</ele>
        <time>2016-02-14T10:04:18.000Z</time>
      </trkpt>
      <trkpt lat="47.47424" lon="6.78593">
        <ele>365</ele>
        <time>2016-02-14T10:04:19.000Z</time>
      </trkpt>
      <trkpt lat="47.47426" lon="6.78593">
        <ele>365</ele>
        <time>2016-02-14T10:04:21.000Z</time>
      </trkpt>
      <trkpt lat="47.47428" lon="6.78593">
        <ele>365</ele>
        <time>2016-02-14T10:04:22.000Z</time>
      </trkpt>
      <trkpt lat="47.47433" lon="6.78594">
        <ele>365</ele>
        <time>2016-02-14T10:04:24.000Z</time>
      </trkpt>
      <trkpt lat="47.47435" lon="6.78594">
        <ele>365</ele>
        <time>2016-02-14T10:04:25.000Z</time>
      </trkpt>
      <trkpt lat="47.47437" lon="6.78594">
        <ele>365</ele>
        <time>2016-02-14T10:04:26.000Z</time>
      </trkpt>
      <trkpt lat="47.4744" lon="6.78595">
        <ele>364</ele>
        <time>2016-02-14T10:04:27.000Z</time>
      </trkpt>
      <trkpt lat="47.47443" lon="6.78596">
        <ele>364</ele>
        <time>2016-02-14T10:04:29.000Z</time>
      </trkpt>
      <trkpt lat="47.47445" lon="6.78597">
        <ele>364</ele>
        <time>2016-02-14T10:04:30.000Z</time>
      </trkpt>
      <trkpt lat="47.47448" lon="6.78598">
        <ele>364</ele>
        <time>2016-02-14T10:04:32.000Z</time>
      </trkpt>
      <trkpt lat="47.4745" lon="6.78599">
        <ele>364</ele>
        <time>2016-02-14T10:04:33.000Z</time>
      </trkpt>
      <trkpt lat="47.47452" lon="6.78598">
        <ele>364</ele>
        <time>2016-02-14T10:04:34.000Z</time>
      </trkpt>
      <trkpt lat="47.47455" lon="6.78596">
        <ele>364</ele>
        <time>2016-02-14T10:04:35.000Z</time>
      </trkpt>
      <trkpt lat="47.47458" lon="6.78592">
        <ele>364</ele>
        <time>2016-02-14T10:04:36.000Z</time>
      </trkpt>
      <trkpt lat="47.47462" lon="6.78588">
        <ele>364</ele>
        <time>2016-02-14T10:04:37.000Z</time>
      </trkpt>
      <trkpt lat="47.47466" lon="6.78584">
        <ele>363</ele>
        <time>2016-02-14T10:04:38.000Z</time>
      </trkpt>
      <trkpt lat="47.4747" lon="6.78579">
        <ele>363</ele>
        <time>2016-02-14T10:04:39.000Z</time>
      </trkpt>
      <trkpt lat="47.47474" lon="6.78574">
        <ele>363</ele>
        <time>2016-02-14T10:04:40.000Z</time>
      </trkpt>
      <trkpt lat="47.47479" lon="6.78569">
        <ele>362</ele>
        <time>2016-02-14T10:04:41.000Z</time>
      </trkpt>
      <trkpt lat="47.47484" lon="6.78566">
        <ele>362</ele>
        <time>2016-02-14T10:04:42.000Z</time>
      </trkpt>
      <trkpt lat="47.47488" lon="6.78562">
        <ele>362</ele>
        <time>2016-02-14T10:04:43.000Z</time>
      </trkpt>
      <trkpt lat="47.47493" lon="6.7856">
        <ele>362</ele>
        <time>2016-02-14T10:04:44.000Z</time>
      </trkpt>
      <trkpt lat="47.47497" lon="6.78556">
        <ele>362</ele>
        <time>2016-02-14T10:04:45.000Z</time>
      </trkpt>
      <trkpt lat="47.47502" lon="6.78552">
        <ele>358</ele>
        <time>2016-02-14T10:04:46.000Z</time>
      </trkpt>
      <trkpt lat="47.47505" lon="6.78548">
        <ele>358</ele>
        <time>2016-02-14T10:04:47.000Z</time>
      </trkpt>
      <trkpt lat="47.47508" lon="6.78544">
        <ele>358</ele>
        <time>2016-02-14T10:04:48.000Z</time>
      </trkpt>
      <trkpt lat="47.47511" lon="6.78539">
        <ele>358</ele>
        <time>2016-02-14T10:04:49.000Z</time>
      </trkpt>
      <trkpt lat="47.47514" lon="6.78535">
        <ele>358</ele>
        <time>2016-02-14T10:04:50.000Z</time>
      </trkpt>
      <trkpt lat="47.47517" lon="6.78531">
        <ele>358</ele>
        <time>2016-02-14T10:04:51.000Z</time>
      </trkpt>
      <trkpt lat="47.4752" lon="6.78527">
        <ele>358</ele>
        <time>2016-02-14T10:04:52.000Z</time>
      </trkpt>
      <trkpt lat="47.47523" lon="6.78523">
        <ele>358</ele>
        <time>2016-02-14T10:04:53.000Z</time>
      </trkpt>
      <trkpt lat="47.47526" lon="6.78519">
        <ele>357</ele>
        <time>2016-02-14T10:04:54.000Z</time>
      </trkpt>
      <trkpt lat="47.47529" lon="6.78516">
        <ele>357</ele>
        <time>2016-02-14T10:04:55.000Z</time>
      </trkpt>
      <trkpt lat="47.47533" lon="6.78511">
        <ele>357</ele>
        <time>2016-02-14T10:04:56.000Z</time>
      </trkpt>
      <trkpt lat="47.47537" lon="6.78507">
        <ele>357</ele>
        <time>2016-02-14T10:04:57.000Z</time>
      </trkpt>
      <trkpt lat="47.4754" lon="6.78503">
        <ele>356</ele>
        <time>2016-02-14T10:04:58.000Z</time>
      </trkpt>
      <trkpt lat="47.47544" lon="6.785">
        <ele>356</ele>
        <time>2016-02-14T10:04:59.000Z</time>
      </trkpt>
      <trkpt lat="47.47548" lon="6.78497">
        <ele>356</ele>
        <time>2016-02-14T10:05:00.000Z</time>
      </trkpt>
      <trkpt lat="47.47551" lon="6.78494">
        <ele>356</ele>
        <time>2016-02-14T10:05:01.000Z</time>
      </trkpt>
      <trkpt lat="47.47555" lon="6.78492">
        <ele>355</ele>
        <time>2016-02-14T10:05:02.000Z</time>
      </trkpt>
      <trkpt lat="47.47558" lon="6.78489">
        <ele>355</ele>
        <time>2016-02-14T10:05:03.000Z</time>
      </trkpt>
      <trkpt lat="47.47562" lon="6.78485">
        <ele>355</ele>
        <time>2016-02-14T10:05:04.000Z</time>
      </trkpt>
      <trkpt lat="47.47565" lon="6.78482">
        <ele>355</ele>
        <time>2016-02-14T10:05:05.000Z</time>
      </trkpt>
      <trkpt lat="47.47569" lon="6.78478">
        <ele>355</ele>
        <time>2016-02-14T10:05:06.000Z</time>
      </trkpt>
      <trkpt lat="47.47573" lon="6.78474">
        <ele>355</ele>
        <time>2016-02-14T10:05:07.000Z</time>
      </trkpt>
      <trkpt lat="47.47576" lon="6.7847">
        <ele>355</ele>
        <time>2016-02-14T10:05:08.000Z</time>
      </trkpt>
      <trkpt lat="47.47579" lon="6.78466">
        <ele>355</ele>
        <time>2016-02-14T10:05:09.000Z</time>
      </trkpt>
      <trkpt lat="47.47582" lon="6.78463">
        <ele>355</ele>
        <time>2016-02-14T10:05:10.000Z</time>
      </trkpt>
      <trkpt lat="47.47586" lon="6.7846">
        <ele>349</ele>
        <time>2016-02-14T10:05:11.000Z</time>
      </trkpt>
      <trkpt lat="47.47589" lon="6.78456">
        <ele>349</ele>
        <time>2016-02-14T10:05:12.000Z</time>
      </trkpt>
      <trkpt lat="47.47591" lon="6.78452">
        <ele>349</ele>
        <time>2016-02-14T10:05:13.000Z</time>
      </trkpt>
      <trkpt lat="47.47594" lon="6.78447">
        <ele>349</ele>
        <time>2016-02-14T10:05:14.000Z</time>
      </trkpt>
      <trkpt lat="47.47596" lon="6.78443">
        <ele>349</ele>
        <time>2016-02-14T10:05:15.000Z</time>
      </trkpt>
      <trkpt lat="47.47599" lon="6.78438">
        <ele>349</ele>
        <time>2016-02-14T10:05:16.000Z</time>
      </trkpt>
      <trkpt lat="47.47602" lon="6.78433">
        <ele>349</ele>
        <time>2016-02-14T10:05:17.000Z</time>
      </trkpt>
      <trkpt lat="47.47606" lon="6.78428">
        <ele>348</ele>
        <time>2016-02-14T10:05:18.000Z</time>
      </trkpt>
      <trkpt lat="47.4761" lon="6.78423">
        <ele>348</ele>
        <time>2016-02-14T10:05:19.000Z</time>
      </trkpt>
      <trkpt lat="47.47613" lon="6.78418">
        <ele>348</ele>
        <time>2016-02-14T10:05:20.000Z</time>
      </trkpt>
      <trkpt lat="47.47616" lon="6.78413">
        <ele>348</ele>
        <time>2016-02-14T10:05:21.000Z</time>
      </trkpt>
      <trkpt lat="47.47618" lon="6.78408">
        <ele>347</ele>
        <time>2016-02-14T10:05:22.000Z</time>
      </trkpt>
      <trkpt lat="47.47622" lon="6.78406">
        <ele>347</ele>
        <time>2016-02-14T10:05:27.000Z</time>
      </trkpt>
      <trkpt lat="47.47623" lon="6.78406">
        <ele>347</ele>
        <time>2016-02-14T10:05:28.000Z</time>
      </trkpt>
      <trkpt lat="47.47627" lon="6.78404">
        <ele>347</ele>
        <time>2016-02-14T10:05:34.000Z</time>
      </trkpt>
      <trkpt lat="47.47628" lon="6.78403">
        <ele>347</ele>
        <time>2016-02-14T10:05:35.000Z</time>
      </trkpt>
      <trkpt lat="47.47632" lon="6.78403">
        <ele>346</ele>
        <time>2016-02-14T10:05:44.000Z</time>
      </trkpt>
      <trkpt lat="47.47633" lon="6.78402">
        <ele>346</ele>
        <time>2016-02-14T10:05:45.000Z</time>
      </trkpt>
      <trkpt lat="47.47635" lon="6.78406">
        <ele>346</ele>
        <time>2016-02-14T10:05:50.000Z</time>
      </trkpt>
      <trkpt lat="47.47636" lon="6.7841">
        <ele>346</ele>
        <time>2016-02-14T10:05:51.000Z</time>
      </trkpt>
      <trkpt lat="47.47638" lon="6.78414">
        <ele>346</ele>
        <time>2016-02-14T10:05:52.000Z</time>
      </trkpt>
      <trkpt lat="47.4764" lon="6.78419">
        <ele>345</ele>
        <time>2016-02-14T10:05:53.000Z</time>
      </trkpt>
      <trkpt lat="47.47642" lon="6.78424">
        <ele>345</ele>
        <time>2016-02-14T10:05:54.000Z</time>
      </trkpt>
      <trkpt lat="47.47643" lon="6.78427">
        <ele>345</ele>
        <time>2016-02-14T10:05:55.000Z</time>
      </trkpt>
      <trkpt lat="47.47647" lon="6.78425">
        <ele>344</ele>
        <time>2016-02-14T10:06:00.000Z</time>
      </trkpt>
      <trkpt lat="47.47648" lon="6.78422">
        <ele>344</ele>
        <time>2016-02-14T10:06:01.000Z</time>
      </trkpt>
      <trkpt lat="47.47651" lon="6.7842">
        <ele>344</ele>
        <time>2016-02-14T10:06:03.000Z</time>
      </trkpt>
      <trkpt lat="47.47652" lon="6.78418">
        <ele>344</ele>
        <time>2016-02-14T10:06:04.000Z</time>
      </trkpt>
      <trkpt lat="47.47655" lon="6.78413">
        <ele>343</ele>
        <time>2016-02-14T10:06:11.000Z</time>
      </trkpt>
      <trkpt lat="47.47656" lon="6.78414">
        <ele>343</ele>
        <time>2016-02-14T10:06:12.000Z</time>
      </trkpt>
      <trkpt lat="47.4766" lon="6.78415">
        <ele>343</ele>
        <time>2016-02-14T10:06:18.000Z</time>
      </trkpt>
      <trkpt lat="47.4766" lon="6.78415">
        <ele>342</ele>
        <time>2016-02-14T10:06:19.000Z</time>
      </trkpt>
      <trkpt lat="47.47662" lon="6.78412">
        <ele>342</ele>
        <time>2016-02-14T10:06:51.000Z</time>
      </trkpt>
      <trkpt lat="47.47664" lon="6.78409">
        <ele>343</ele>
        <time>2016-02-14T10:06:52.000Z</time>
      </trkpt>
      <trkpt lat="47.47665" lon="6.78406">
        <ele>343</ele>
        <time>2016-02-14T10:06:53.000Z</time>
      </trkpt>
      <trkpt lat="47.47667" lon="6.78404">
        <ele>341</ele>
        <time>2016-02-14T10:06:54.000Z</time>
      </trkpt>
      <trkpt lat="47.47668" lon="6.78401">
        <ele>341</ele>
        <time>2016-02-14T10:06:55.000Z</time>
      </trkpt>
      <trkpt lat="47.47671" lon="6.78398">
        <ele>341</ele>
        <time>2016-02-14T10:06:56.000Z</time>
      </trkpt>
      <trkpt lat="47.47675" lon="6.78394">
        <ele>341</ele>
        <time>2016-02-14T10:06:57.000Z</time>
      </trkpt>
      <trkpt lat="47.47679" lon="6.7839">
        <ele>341</ele>
        <time>2016-02-14T10:06:58.000Z</time>
      </trkpt>
      <trkpt lat="47.47683" lon="6.78385">
        <ele>341</ele>
        <time>2016-02-14T10:06:59.000Z</time>
      </trkpt>
      <trkpt lat="47.47687" lon="6.78381">
        <ele>341</ele>
        <time>2016-02-14T10:07:00.000Z</time>
      </trkpt>
      <trkpt lat="47.4769" lon="6.78376">
        <ele>341</ele>
        <time>2016-02-14T10:07:01.000Z</time>
      </trkpt>
      <trkpt lat="47.47693" lon="6.78371">
        <ele>341</ele>
        <time>2016-02-14T10:07:02.000Z</time>
      </trkpt>
      <trkpt lat="47.47696" lon="6.78366">
        <ele>341</ele>
        <time>2016-02-14T10:07:03.000Z</time>
      </trkpt>
      <trkpt lat="47.47698" lon="6.7836">
        <ele>341</ele>
        <time>2016-02-14T10:07:04.000Z</time>
      </trkpt>
      <trkpt lat="47.477" lon="6.78354">
        <ele>341</ele>
        <time>2016-02-14T10:07:05.000Z</time>
      </trkpt>
      <trkpt lat="47.47703" lon="6.78348">
        <ele>341</ele>
        <time>2016-02-14T10:07:06.000Z</time>
      </trkpt>
      <trkpt lat="47.47705" lon="6.78343">
        <ele>341</ele>
        <time>2016-02-14T10:07:07.000Z</time>
      </trkpt>
      <trkpt lat="47.47707" lon="6.78338">
        <ele>340</ele>
        <time>2016-02-14T10:07:08.000Z</time>
      </trkpt>
      <trkpt lat="47.47709" lon="6.78332">
        <ele>338</ele>
        <time>2016-02-14T10:07:09.000Z</time>
      </trkpt>
      <trkpt lat="47.47711" lon="6.78327">
        <ele>338</ele>
        <time>2016-02-14T10:07:10.000Z</time>
      </trkpt>
      <trkpt lat="47.47713" lon="6.7832">
        <ele>338</ele>
        <time>2016-02-14T10:07:11.000Z</time>
      </trkpt>
      <trkpt lat="47.47713" lon="6.78313">
        <ele>338</ele>
        <time>2016-02-14T10:07:12.000Z</time>
      </trkpt>
      <trkpt lat="47.47712" lon="6.78299">
        <ele>338</ele>
        <time>2016-02-14T10:07:13.000Z</time>
      </trkpt>
      <trkpt lat="47.47712" lon="6.78291">
        <ele>337</ele>
        <time>2016-02-14T10:07:14.000Z</time>
      </trkpt>
      <trkpt lat="47.4771" lon="6.78282">
        <ele>337</ele>
        <time>2016-02-14T10:07:15.000Z</time>
      </trkpt>
      <trkpt lat="47.47709" lon="6.78274">
        <ele>337</ele>
        <time>2016-02-14T10:07:16.000Z</time>
      </trkpt>
      <trkpt lat="47.47706" lon="6.78265">
        <ele>337</ele>
        <time>2016-02-14T10:07:17.000Z</time>
      </trkpt>
      <trkpt lat="47.47705" lon="6.78256">
        <ele>337</ele>
        <time>2016-02-14T10:07:18.000Z</time>
      </trkpt>
      <trkpt lat="47.47701" lon="6.78249">
        <ele>334</ele>
        <time>2016-02-14T10:07:19.000Z</time>
      </trkpt>
      <trkpt lat="47.47698" lon="6.7824">
        <ele>334</ele>
        <time>2016-02-14T10:07:20.000Z</time>
      </trkpt>
      <trkpt lat="47.47695" lon="6.78233">
        <ele>334</ele>
        <time>2016-02-14T10:07:21.000Z</time>
      </trkpt>
      <trkpt lat="47.47692" lon="6.78224">
        <ele>333</ele>
        <time>2016-02-14T10:07:22.000Z</time>
      </trkpt>
      <trkpt lat="47.4769" lon="6.78217">
        <ele>333</ele>
        <time>2016-02-14T10:07:23.000Z</time>
      </trkpt>
      <trkpt lat="47.47689" lon="6.78209">
        <ele>333</ele>
        <time>2016-02-14T10:07:24.000Z</time>
      </trkpt>
      <trkpt lat="47.47688" lon="6.782">
        <ele>332</ele>
        <time>2016-02-14T10:07:25.000Z</time>
      </trkpt>
      <trkpt lat="47.47689" lon="6.78189">
        <ele>332</ele>
        <time>2016-02-14T10:07:26.000Z</time>
      </trkpt>
      <trkpt lat="47.4769" lon="6.78179">
        <ele>332</ele>
        <time>2016-02-14T10:07:27.000Z</time>
      </trkpt>
      <trkpt lat="47.47692" lon="6.7817">
        <ele>332</ele>
        <time>2016-02-14T10:07:28.000Z</time>
      </trkpt>
      <trkpt lat="47.47694" lon="6.78159">
        <ele>328</ele>
        <time>2016-02-14T10:07:29.000Z</time>
      </trkpt>
      <trkpt lat="47.47697" lon="6.78149">
        <ele>328</ele>
        <time>2016-02-14T10:07:30.000Z</time>
      </trkpt>
      <trkpt lat="47.47701" lon="6.78137">
        <ele>327</ele>
        <time>2016-02-14T10:07:31.000Z</time>
      </trkpt>
      <trkpt lat="47.47705" lon="6.78125">
        <ele>326</ele>
        <time>2016-02-14T10:07:32.000Z</time>
      </trkpt>
      <trkpt lat="47.47709" lon="6.78113">
        <ele>326</ele>
        <time>2016-02-14T10:07:33.000Z</time>
      </trkpt>
      <trkpt lat="47.47713" lon="6.78101">
        <ele>325</ele>
        <time>2016-02-14T10:07:34.000Z</time>
      </trkpt>
      <trkpt lat="47.47717" lon="6.7809">
        <ele>325</ele>
        <time>2016-02-14T10:07:35.000Z</time>
      </trkpt>
      <trkpt lat="47.47721" lon="6.78079">
        <ele>322</ele>
        <time>2016-02-14T10:07:36.000Z</time>
      </trkpt>
      <trkpt lat="47.47725" lon="6.78066">
        <ele>322</ele>
        <time>2016-02-14T10:07:37.000Z</time>
      </trkpt>
      <trkpt lat="47.47728" lon="6.78054">
        <ele>322</ele>
        <time>2016-02-14T10:07:38.000Z</time>
      </trkpt>
      <trkpt lat="47.47731" lon="6.78044">
        <ele>322</ele>
        <time>2016-02-14T10:07:39.000Z</time>
      </trkpt>
      <trkpt lat="47.4773" lon="6.78033">
        <ele>322</ele>
        <time>2016-02-14T10:07:40.000Z</time>
      </trkpt>
      <trkpt lat="47.47731" lon="6.7802">
        <ele>321</ele>
        <time>2016-02-14T10:07:41.000Z</time>
      </trkpt>
      <trkpt lat="47.4773" lon="6.78009">
        <ele>321</ele>
        <time>2016-02-14T10:07:42.000Z</time>
      </trkpt>
      <trkpt lat="47.47728" lon="6.78001">
        <ele>321</ele>
        <time>2016-02-14T10:07:43.000Z</time>
      </trkpt>
      <trkpt lat="47.47727" lon="6.7799">
        <ele>320</ele>
        <time>2016-02-14T10:07:44.000Z</time>
      </trkpt>
      <trkpt lat="47.47725" lon="6.77978">
        <ele>320</ele>
        <time>2016-02-14T10:07:45.000Z</time>
      </trkpt>
      <trkpt lat="47.47723" lon="6.77967">
        <ele>320</ele>
        <time>2016-02-14T10:07:46.000Z</time>
      </trkpt>
      <trkpt lat="47.47721" lon="6.77959">
        <ele>320</ele>
        <time>2016-02-14T10:07:47.000Z</time>
      </trkpt>
      <trkpt lat="47.4772" lon="6.77949">
        <ele>320</ele>
        <time>2016-02-14T10:07:48.000Z</time>
      </trkpt>
      <trkpt lat="47.47719" lon="6.7794">
        <ele>320</ele>
        <time>2016-02-14T10:07:49.000Z</time>
      </trkpt>
      <trkpt lat="47.47717" lon="6.77933">
        <ele>320</ele>
        <time>2016-02-14T10:07:50.000Z</time>
      </trkpt>
      <trkpt lat="47.47715" lon="6.77924">
        <ele>320</ele>
        <time>2016-02-14T10:07:51.000Z</time>
      </trkpt>
      <trkpt lat="47.47714" lon="6.77916">
        <ele>318</ele>
        <time>2016-02-14T10:07:52.000Z</time>
      </trkpt>
      <trkpt lat="47.47712" lon="6.77909">
        <ele>318</ele>
        <time>2016-02-14T10:07:53.000Z</time>
      </trkpt>
      <trkpt lat="47.47711" lon="6.77901">
        <ele>318</ele>
        <time>2016-02-14T10:07:54.000Z</time>
      </trkpt>
      <trkpt lat="47.47709" lon="6.77896">
        <ele>318</ele>
        <time>2016-02-14T10:07:55.000Z</time>
      </trkpt>
      <trkpt lat="47.47708" lon="6.77888">
        <ele>318</ele>
        <time>2016-02-14T10:07:56.000Z</time>
      </trkpt>
      <trkpt lat="47.47707" lon="6.77881">
        <ele>318</ele>
        <time>2016-02-14T10:07:57.000Z</time>
      </trkpt>
      <trkpt lat="47.47706" lon="6.77873">
        <ele>318</ele>
        <time>2016-02-14T10:07:58.000Z</time>
      </trkpt>
      <trkpt lat="47.47706" lon="6.77864">
        <ele>318</ele>
        <time>2016-02-14T10:07:59.000Z</time>
      </trkpt>
      <trkpt lat="47.47705" lon="6.77855">
        <ele>318</ele>
        <time>2016-02-14T10:08:00.000Z</time>
      </trkpt>
      <trkpt lat="47.47705" lon="6.77848">
        <ele>318</ele>
        <time>2016-02-14T10:08:01.000Z</time>
      </trkpt>
      <trkpt lat="47.47705" lon="6.77839">
        <ele>318</ele>
        <time>2016-02-14T10:08:02.000Z</time>
      </trkpt>
      <trkpt lat="47.47705" lon="6.77831">
        <ele>317</ele>
        <time>2016-02-14T10:08:03.000Z</time>
      </trkpt>
      <trkpt lat="47.47705" lon="6.77823">
        <ele>317</ele>
        <time>2016-02-14T10:08:04.000Z</time>
      </trkpt>
      <trkpt lat="47.47705" lon="6.77814">
        <ele>317</ele>
        <time>2016-02-14T10:08:05.000Z</time>
      </trkpt>
      <trkpt lat="47.47705" lon="6.77805">
        <ele>317</ele>
        <time>2016-02-14T10:08:06.000Z</time>
      </trkpt>
      <trkpt lat="47.47706" lon="6.77796">
        <ele>317</ele>
        <time>2016-02-14T10:08:07.000Z</time>
      </trkpt>
      <trkpt lat="47.47706" lon="6.77788">
        <ele>317</ele>
        <time>2016-02-14T10:08:08.000Z</time>
      </trkpt>
      <trkpt lat="47.47706" lon="6.7778">
        <ele>316</ele>
        <time>2016-02-14T10:08:09.000Z</time>
      </trkpt>
      <trkpt lat="47.47706" lon="6.77771">
        <ele>316</ele>
        <time>2016-02-14T10:08:10.000Z</time>
      </trkpt>
      <trkpt lat="47.47707" lon="6.77766">
        <ele>316</ele>
        <time>2016-02-14T10:08:11.000Z</time>
      </trkpt>
      <trkpt lat="47.47708" lon="6.77759">
        <ele>316</ele>
        <time>2016-02-14T10:08:12.000Z</time>
      </trkpt>
      <trkpt lat="47.47708" lon="6.77752">
        <ele>316</ele>
        <time>2016-02-14T10:08:13.000Z</time>
      </trkpt>
      <trkpt lat="47.47709" lon="6.77744">
        <ele>316</ele>
        <time>2016-02-14T10:08:14.000Z</time>
      </trkpt>
      <trkpt lat="47.4771" lon="6.77737">
        <ele>316</ele>
        <time>2016-02-14T10:08:15.000Z</time>
      </trkpt>
      <trkpt lat="47.47711" lon="6.7773">
        <ele>316</ele>
        <time>2016-02-14T10:08:16.000Z</time>
      </trkpt>
      <trkpt lat="47.47713" lon="6.77722">
        <ele>316</ele>
        <time>2016-02-14T10:08:17.000Z</time>
      </trkpt>
      <trkpt lat="47.47715" lon="6.77715">
        <ele>315</ele>
        <time>2016-02-14T10:08:18.000Z</time>
      </trkpt>
      <trkpt lat="47.47717" lon="6.77711">
        <ele>315</ele>
        <time>2016-02-14T10:08:19.000Z</time>
      </trkpt>
      <trkpt lat="47.47719" lon="6.77707">
        <ele>315</ele>
        <time>2016-02-14T10:08:20.000Z</time>
      </trkpt>
      <trkpt lat="47.4772" lon="6.77703">
        <ele>315</ele>
        <time>2016-02-14T10:08:21.000Z</time>
      </trkpt>
      <trkpt lat="47.4772" lon="6.77698">
        <ele>315</ele>
        <time>2016-02-14T10:08:22.000Z</time>
      </trkpt>
      <trkpt lat="47.47718" lon="6.77692">
        <ele>315</ele>
        <time>2016-02-14T10:08:23.000Z</time>
      </trkpt>
      <trkpt lat="47.47717" lon="6.77686">
        <ele>315</ele>
        <time>2016-02-14T10:08:24.000Z</time>
      </trkpt>
      <trkpt lat="47.47716" lon="6.77683">
        <ele>315</ele>
        <time>2016-02-14T10:08:25.000Z</time>
      </trkpt>
      <trkpt lat="47.47714" lon="6.77677">
        <ele>315</ele>
        <time>2016-02-14T10:08:26.000Z</time>
      </trkpt>
      <trkpt lat="47.47713" lon="6.77673">
        <ele>315</ele>
        <time>2016-02-14T10:08:27.000Z</time>
      </trkpt>
      <trkpt lat="47.47712" lon="6.77665">
        <ele>314</ele>
        <time>2016-02-14T10:08:28.000Z</time>
      </trkpt>
      <trkpt lat="47.4771" lon="6.77658">
        <ele>314</ele>
        <time>2016-02-14T10:08:29.000Z</time>
      </trkpt>
      <trkpt lat="47.47709" lon="6.77653">
        <ele>314</ele>
        <time>2016-02-14T10:08:30.000Z</time>
      </trkpt>
      <trkpt lat="47.47707" lon="6.77646">
        <ele>314</ele>
        <time>2016-02-14T10:08:31.000Z</time>
      </trkpt>
      <trkpt lat="47.47707" lon="6.77638">
        <ele>314</ele>
        <time>2016-02-14T10:08:32.000Z</time>
      </trkpt>
      <trkpt lat="47.47706" lon="6.77632">
        <ele>314</ele>
        <time>2016-02-14T10:08:33.000Z</time>
      </trkpt>
      <trkpt lat="47.47705" lon="6.77624">
        <ele>314</ele>
        <time>2016-02-14T10:08:34.000Z</time>
      </trkpt>
      <trkpt lat="47.47704" lon="6.77617">
        <ele>314</ele>
        <time>2016-02-14T10:08:35.000Z</time>
      </trkpt>
      <trkpt lat="47.47702" lon="6.77612">
        <ele>314</ele>
        <time>2016-02-14T10:08:36.000Z</time>
      </trkpt>
      <trkpt lat="47.477" lon="6.77606">
        <ele>314</ele>
        <time>2016-02-14T10:08:37.000Z</time>
      </trkpt>
      <trkpt lat="47.47697" lon="6.77599">
        <ele>314</ele>
        <time>2016-02-14T10:08:38.000Z</time>
      </trkpt>
      <trkpt lat="47.47694" lon="6.77593">
        <ele>314</ele>
        <time>2016-02-14T10:08:39.000Z</time>
      </trkpt>
      <trkpt lat="47.4769" lon="6.77587">
        <ele>314</ele>
        <time>2016-02-14T10:08:40.000Z</time>
      </trkpt>
      <trkpt lat="47.47686" lon="6.77581">
        <ele>314</ele>
        <time>2016-02-14T10:08:41.000Z</time>
      </trkpt>
      <trkpt lat="47.47681" lon="6.77574">
        <ele>314</ele>
        <time>2016-02-14T10:08:42.000Z</time>
      </trkpt>
      <trkpt lat="47.47678" lon="6.77569">
        <ele>314</ele>
        <time>2016-02-14T10:08:43.000Z</time>
      </trkpt>
      <trkpt lat="47.47673" lon="6.77561">
        <ele>314</ele>
        <time>2016-02-14T10:08:44.000Z</time>
      </trkpt>
      <trkpt lat="47.4767" lon="6.77557">
        <ele>314</ele>
        <time>2016-02-14T10:08:45.000Z</time>
      </trkpt>
      <trkpt lat="47.47666" lon="6.7755">
        <ele>315</ele>
        <time>2016-02-14T10:08:46.000Z</time>
      </trkpt>
      <trkpt lat="47.47662" lon="6.77545">
        <ele>315</ele>
        <time>2016-02-14T10:08:47.000Z</time>
      </trkpt>
      <trkpt lat="47.47659" lon="6.77539">
        <ele>315</ele>
        <time>2016-02-14T10:08:48.000Z</time>
      </trkpt>
      <trkpt lat="47.47657" lon="6.77534">
        <ele>315</ele>
        <time>2016-02-14T10:08:49.000Z</time>
      </trkpt>
      <trkpt lat="47.47653" lon="6.77529">
        <ele>315</ele>
        <time>2016-02-14T10:08:50.000Z</time>
      </trkpt>
      <trkpt lat="47.4765" lon="6.77524">
        <ele>315</ele>
        <time>2016-02-14T10:08:51.000Z</time>
      </trkpt>
      <trkpt lat="47.47647" lon="6.7752">
        <ele>315</ele>
        <time>2016-02-14T10:08:52.000Z</time>
      </trkpt>
      <trkpt lat="47.47645" lon="6.77515">
        <ele>315</ele>
        <time>2016-02-14T10:08:53.000Z</time>
      </trkpt>
      <trkpt lat="47.47642" lon="6.77511">
        <ele>315</ele>
        <time>2016-02-14T10:08:54.000Z</time>
      </trkpt>
      <trkpt lat="47.47638" lon="6.77504">
        <ele>315</ele>
        <time>2016-02-14T10:08:55.000Z</time>
      </trkpt>
      <trkpt lat="47.47635" lon="6.775">
        <ele>314</ele>
        <time>2016-02-14T10:08:56.000Z</time>
      </trkpt>
      <trkpt lat="47.47631" lon="6.77495">
        <ele>314</ele>
        <time>2016-02-14T10:08:57.000Z</time>
      </trkpt>
      <trkpt lat="47.47627" lon="6.7749">
        <ele>314</ele>
        <time>2016-02-14T10:08:58.000Z</time>
      </trkpt>
      <trkpt lat="47.47624" lon="6.77487">
        <ele>314</ele>
        <time>2016-02-14T10:08:59.000Z</time>
      </trkpt>
      <trkpt lat="47.4762" lon="6.77483">
        <ele>314</ele>
        <time>2016-02-14T10:09:00.000Z</time>
      </trkpt>
      <trkpt lat="47.47617" lon="6.77479">
        <ele>314</ele>
        <time>2016-02-14T10:09:01.000Z</time>
      </trkpt>
      <trkpt lat="47.47613" lon="6.77477">
        <ele>314</ele>
        <time>2016-02-14T10:09:02.000Z</time>
      </trkpt>
      <trkpt lat="47.47609" lon="6.77474">
        <ele>314</ele>
        <time>2016-02-14T10:09:03.000Z</time>
      </trkpt>
      <trkpt lat="47.47605" lon="6.7747">
        <ele>314</ele>
        <time>2016-02-14T10:09:04.000Z</time>
      </trkpt>
      <trkpt lat="47.47601" lon="6.77464">
        <ele>314</ele>
        <time>2016-02-14T10:09:05.000Z</time>
      </trkpt>
      <trkpt lat="47.47598" lon="6.7746">
        <ele>314</ele>
        <time>2016-02-14T10:09:06.000Z</time>
      </trkpt>
      <trkpt lat="47.47595" lon="6.77456">
        <ele>314</ele>
        <time>2016-02-14T10:09:07.000Z</time>
      </trkpt>
      <trkpt lat="47.47592" lon="6.77452">
        <ele>314</ele>
        <time>2016-02-14T10:09:08.000Z</time>
      </trkpt>
      <trkpt lat="47.4759" lon="6.77448">
        <ele>314</ele>
        <time>2016-02-14T10:09:09.000Z</time>
      </trkpt>
      <trkpt lat="47.47589" lon="6.77445">
        <ele>314</ele>
        <time>2016-02-14T10:09:10.000Z</time>
      </trkpt>
      <trkpt lat="47.4759" lon="6.77441">
        <ele>314</ele>
        <time>2016-02-14T10:09:11.000Z</time>
      </trkpt>
      <trkpt lat="47.47592" lon="6.77437">
        <ele>314</ele>
        <time>2016-02-14T10:09:12.000Z</time>
      </trkpt>
      <trkpt lat="47.47595" lon="6.77432">
        <ele>314</ele>
        <time>2016-02-14T10:09:13.000Z</time>
      </trkpt>
      <trkpt lat="47.47598" lon="6.77427">
        <ele>314</ele>
        <time>2016-02-14T10:09:14.000Z</time>
      </trkpt>
      <trkpt lat="47.47601" lon="6.77421">
        <ele>314</ele>
        <time>2016-02-14T10:09:15.000Z</time>
      </trkpt>
      <trkpt lat="47.47603" lon="6.77419">
        <ele>314</ele>
        <time>2016-02-14T10:09:16.000Z</time>
      </trkpt>
      <trkpt lat="47.47605" lon="6.77417">
        <ele>313</ele>
        <time>2016-02-14T10:09:17.000Z</time>
      </trkpt>
      <trkpt lat="47.47608" lon="6.77414">
        <ele>313</ele>
        <time>2016-02-14T10:09:18.000Z</time>
      </trkpt>
      <trkpt lat="47.4761" lon="6.77411">
        <ele>313</ele>
        <time>2016-02-14T10:09:19.000Z</time>
      </trkpt>
      <trkpt lat="47.47613" lon="6.77407">
        <ele>313</ele>
        <time>2016-02-14T10:09:20.000Z</time>
      </trkpt>
      <trkpt lat="47.47617" lon="6.77398">
        <ele>312</ele>
        <time>2016-02-14T10:09:21.000Z</time>
      </trkpt>
      <trkpt lat="47.4762" lon="6.7739">
        <ele>312</ele>
        <time>2016-02-14T10:09:22.000Z</time>
      </trkpt>
      <trkpt lat="47.47623" lon="6.77384">
        <ele>312</ele>
        <time>2016-02-14T10:09:23.000Z</time>
      </trkpt>
      <trkpt lat="47.47626" lon="6.77378">
        <ele>312</ele>
        <time>2016-02-14T10:09:24.000Z</time>
      </trkpt>
      <trkpt lat="47.47628" lon="6.77371">
        <ele>312</ele>
        <time>2016-02-14T10:09:25.000Z</time>
      </trkpt>
      <trkpt lat="47.4763" lon="6.77365">
        <ele>312</ele>
        <time>2016-02-14T10:09:26.000Z</time>
      </trkpt>
      <trkpt lat="47.47632" lon="6.77359">
        <ele>312</ele>
        <time>2016-02-14T10:09:27.000Z</time>
      </trkpt>
      <trkpt lat="47.47634" lon="6.77352">
        <ele>312</ele>
        <time>2016-02-14T10:09:28.000Z</time>
      </trkpt>
      <trkpt lat="47.47637" lon="6.77346">
        <ele>311</ele>
        <time>2016-02-14T10:09:29.000Z</time>
      </trkpt>
      <trkpt lat="47.47639" lon="6.77339">
        <ele>311</ele>
        <time>2016-02-14T10:09:30.000Z</time>
      </trkpt>
      <trkpt lat="47.47641" lon="6.77333">
        <ele>311</ele>
        <time>2016-02-14T10:09:31.000Z</time>
      </trkpt>
      <trkpt lat="47.47642" lon="6.77326">
        <ele>311</ele>
        <time>2016-02-14T10:09:32.000Z</time>
      </trkpt>
      <trkpt lat="47.47643" lon="6.7732">
        <ele>311</ele>
        <time>2016-02-14T10:09:33.000Z</time>
      </trkpt>
      <trkpt lat="47.47643" lon="6.77311">
        <ele>311</ele>
        <time>2016-02-14T10:09:34.000Z</time>
      </trkpt>
      <trkpt lat="47.47642" lon="6.77304">
        <ele>311</ele>
        <time>2016-02-14T10:09:35.000Z</time>
      </trkpt>
      <trkpt lat="47.4764" lon="6.77299">
        <ele>311</ele>
        <time>2016-02-14T10:09:36.000Z</time>
      </trkpt>
      <trkpt lat="47.47637" lon="6.7729">
        <ele>311</ele>
        <time>2016-02-14T10:09:37.000Z</time>
      </trkpt>
      <trkpt lat="47.47631" lon="6.77279">
        <ele>311</ele>
        <time>2016-02-14T10:09:39.000Z</time>
      </trkpt>
      <trkpt lat="47.47628" lon="6.77274">
        <ele>311</ele>
        <time>2016-02-14T10:09:40.000Z</time>
      </trkpt>
      <trkpt lat="47.47625" lon="6.77271">
        <ele>311</ele>
        <time>2016-02-14T10:09:41.000Z</time>
      </trkpt>
      <trkpt lat="47.47621" lon="6.77269">
        <ele>311</ele>
        <time>2016-02-14T10:09:42.000Z</time>
      </trkpt>
      <trkpt lat="47.47618" lon="6.77266">
        <ele>311</ele>
        <time>2016-02-14T10:09:43.000Z</time>
      </trkpt>
      <trkpt lat="47.47612" lon="6.7726">
        <ele>311</ele>
        <time>2016-02-14T10:09:44.000Z</time>
      </trkpt>
      <trkpt lat="47.47605" lon="6.77254">
        <ele>311</ele>
        <time>2016-02-14T10:09:45.000Z</time>
      </trkpt>
      <trkpt lat="47.476" lon="6.77249">
        <ele>311</ele>
        <time>2016-02-14T10:09:46.000Z</time>
      </trkpt>
      <trkpt lat="47.47595" lon="6.77244">
        <ele>311</ele>
        <time>2016-02-14T10:09:47.000Z</time>
      </trkpt>
      <trkpt lat="47.47591" lon="6.77239">
        <ele>311</ele>
        <time>2016-02-14T10:09:48.000Z</time>
      </trkpt>
      <trkpt lat="47.47586" lon="6.77235">
        <ele>311</ele>
        <time>2016-02-14T10:09:49.000Z</time>
      </trkpt>
      <trkpt lat="47.47581" lon="6.7723">
        <ele>311</ele>
        <time>2016-02-14T10:09:50.000Z</time>
      </trkpt>
      <trkpt lat="47.47577" lon="6.77227">
        <ele>311</ele>
        <time>2016-02-14T10:09:51.000Z</time>
      </trkpt>
      <trkpt lat="47.47572" lon="6.77223">
        <ele>311</ele>
        <time>2016-02-14T10:09:52.000Z</time>
      </trkpt>
      <trkpt lat="47.47567" lon="6.7722">
        <ele>311</ele>
        <time>2016-02-14T10:09:53.000Z</time>
      </trkpt>
      <trkpt lat="47.47563" lon="6.77218">
        <ele>311</ele>
        <time>2016-02-14T10:09:54.000Z</time>
      </trkpt>
      <trkpt lat="47.47559" lon="6.77213">
        <ele>311</ele>
        <time>2016-02-14T10:09:55.000Z</time>
      </trkpt>
      <trkpt lat="47.47556" lon="6.7721">
        <ele>311</ele>
        <time>2016-02-14T10:09:56.000Z</time>
      </trkpt>
      <trkpt lat="47.47553" lon="6.77206">
        <ele>310</ele>
        <time>2016-02-14T10:09:57.000Z</time>
      </trkpt>
      <trkpt lat="47.4755" lon="6.77203">
        <ele>310</ele>
        <time>2016-02-14T10:09:58.000Z</time>
      </trkpt>
      <trkpt lat="47.47545" lon="6.77201">
        <ele>310</ele>
        <time>2016-02-14T10:09:59.000Z</time>
      </trkpt>
      <trkpt lat="47.47542" lon="6.77198">
        <ele>310</ele>
        <time>2016-02-14T10:10:00.000Z</time>
      </trkpt>
      <trkpt lat="47.47537" lon="6.77194">
        <ele>310</ele>
        <time>2016-02-14T10:10:01.000Z</time>
      </trkpt>
      <trkpt lat="47.47533" lon="6.77191">
        <ele>310</ele>
        <time>2016-02-14T10:10:02.000Z</time>
      </trkpt>
      <trkpt lat="47.47529" lon="6.77189">
        <ele>310</ele>
        <time>2016-02-14T10:10:03.000Z</time>
      </trkpt>
      <trkpt lat="47.47525" lon="6.77188">
        <ele>310</ele>
        <time>2016-02-14T10:10:04.000Z</time>
      </trkpt>
      <trkpt lat="47.47521" lon="6.77185">
        <ele>310</ele>
        <time>2016-02-14T10:10:05.000Z</time>
      </trkpt>
      <trkpt lat="47.47519" lon="6.77182">
        <ele>310</ele>
        <time>2016-02-14T10:10:06.000Z</time>
      </trkpt>
      <trkpt lat="47.47517" lon="6.77179">
        <ele>310</ele>
        <time>2016-02-14T10:10:07.000Z</time>
      </trkpt>
      <trkpt lat="47.47516" lon="6.77175">
        <ele>310</ele>
        <time>2016-02-14T10:10:08.000Z</time>
      </trkpt>
      <trkpt lat="47.47516" lon="6.77169">
        <ele>310</ele>
        <time>2016-02-14T10:10:09.000Z</time>
      </trkpt>
      <trkpt lat="47.47515" lon="6.77164">
        <ele>309</ele>
        <time>2016-02-14T10:10:10.000Z</time>
      </trkpt>
      <trkpt lat="47.47515" lon="6.7716">
        <ele>309</ele>
        <time>2016-02-14T10:10:11.000Z</time>
      </trkpt>
      <trkpt lat="47.47515" lon="6.77156">
        <ele>310</ele>
        <time>2016-02-14T10:10:12.000Z</time>
      </trkpt>
      <trkpt lat="47.47518" lon="6.77152">
        <ele>310</ele>
        <time>2016-02-14T10:10:13.000Z</time>
      </trkpt>
      <trkpt lat="47.47521" lon="6.77149">
        <ele>310</ele>
        <time>2016-02-14T10:10:14.000Z</time>
      </trkpt>
      <trkpt lat="47.47525" lon="6.77147">
        <ele>310</ele>
        <time>2016-02-14T10:10:15.000Z</time>
      </trkpt>
      <trkpt lat="47.47529" lon="6.77147">
        <ele>310</ele>
        <time>2016-02-14T10:10:16.000Z</time>
      </trkpt>
      <trkpt lat="47.47534" lon="6.7715">
        <ele>310</ele>
        <time>2016-02-14T10:10:17.000Z</time>
      </trkpt>
      <trkpt lat="47.47539" lon="6.77153">
        <ele>310</ele>
        <time>2016-02-14T10:10:18.000Z</time>
      </trkpt>
      <trkpt lat="47.47543" lon="6.77157">
        <ele>310</ele>
        <time>2016-02-14T10:10:19.000Z</time>
      </trkpt>
      <trkpt lat="47.47548" lon="6.7716">
        <ele>310</ele>
        <time>2016-02-14T10:10:20.000Z</time>
      </trkpt>
      <trkpt lat="47.47553" lon="6.77163">
        <ele>310</ele>
        <time>2016-02-14T10:10:21.000Z</time>
      </trkpt>
      <trkpt lat="47.47561" lon="6.77167">
        <ele>310</ele>
        <time>2016-02-14T10:10:22.000Z</time>
      </trkpt>
      <trkpt lat="47.47567" lon="6.77167">
        <ele>310</ele>
        <time>2016-02-14T10:10:23.000Z</time>
      </trkpt>
      <trkpt lat="47.47572" lon="6.77171">
        <ele>310</ele>
        <time>2016-02-14T10:10:24.000Z</time>
      </trkpt>
      <trkpt lat="47.47576" lon="6.77175">
        <ele>310</ele>
        <time>2016-02-14T10:10:25.000Z</time>
      </trkpt>
      <trkpt lat="47.47581" lon="6.77178">
        <ele>310</ele>
        <time>2016-02-14T10:10:26.000Z</time>
      </trkpt>
      <trkpt lat="47.47586" lon="6.77183">
        <ele>310</ele>
        <time>2016-02-14T10:10:27.000Z</time>
      </trkpt>
      <trkpt lat="47.4759" lon="6.77185">
        <ele>310</ele>
        <time>2016-02-14T10:10:28.000Z</time>
      </trkpt>
      <trkpt lat="47.47594" lon="6.77187">
        <ele>310</ele>
        <time>2016-02-14T10:10:29.000Z</time>
      </trkpt>
      <trkpt lat="47.47599" lon="6.77189">
        <ele>310</ele>
        <time>2016-02-14T10:10:30.000Z</time>
      </trkpt>
      <trkpt lat="47.47604" lon="6.77188">
        <ele>310</ele>
        <time>2016-02-14T10:10:31.000Z</time>
      </trkpt>
      <trkpt lat="47.47608" lon="6.77183">
        <ele>310</ele>
        <time>2016-02-14T10:10:32.000Z</time>
      </trkpt>
      <trkpt lat="47.47612" lon="6.77178">
        <ele>310</ele>
        <time>2016-02-14T10:10:33.000Z</time>
      </trkpt>
      <trkpt lat="47.47615" lon="6.77172">
        <ele>310</ele>
        <time>2016-02-14T10:10:34.000Z</time>
      </trkpt>
      <trkpt lat="47.47617" lon="6.77167">
        <ele>310</ele>
        <time>2016-02-14T10:10:35.000Z</time>
      </trkpt>
      <trkpt lat="47.47619" lon="6.77162">
        <ele>310</ele>
        <time>2016-02-14T10:10:36.000Z</time>
      </trkpt>
      <trkpt lat="47.47621" lon="6.77157">
        <ele>310</ele>
        <time>2016-02-14T10:10:37.000Z</time>
      </trkpt>
      <trkpt lat="47.47624" lon="6.77152">
        <ele>310</ele>
        <time>2016-02-14T10:10:38.000Z</time>
      </trkpt>
      <trkpt lat="47.47626" lon="6.77148">
        <ele>310</ele>
        <time>2016-02-14T10:10:39.000Z</time>
      </trkpt>
      <trkpt lat="47.47628" lon="6.77143">
        <ele>310</ele>
        <time>2016-02-14T10:10:40.000Z</time>
      </trkpt>
      <trkpt lat="47.4763" lon="6.77138">
        <ele>310</ele>
        <time>2016-02-14T10:10:41.000Z</time>
      </trkpt>
      <trkpt lat="47.47632" lon="6.77134">
        <ele>310</ele>
        <time>2016-02-14T10:10:42.000Z</time>
      </trkpt>
      <trkpt lat="47.47634" lon="6.77129">
        <ele>310</ele>
        <time>2016-02-14T10:10:43.000Z</time>
      </trkpt>
      <trkpt lat="47.47635" lon="6.77124">
        <ele>310</ele>
        <time>2016-02-14T10:10:44.000Z</time>
      </trkpt>
      <trkpt lat="47.47636" lon="6.77118">
        <ele>310</ele>
        <time>2016-02-14T10:10:45.000Z</time>
      </trkpt>
      <trkpt lat="47.47637" lon="6.77113">
        <ele>310</ele>
        <time>2016-02-14T10:10:46.000Z</time>
      </trkpt>
      <trkpt lat="47.47637" lon="6.77108">
        <ele>310</ele>
        <time>2016-02-14T10:10:47.000Z</time>
      </trkpt>
      <trkpt lat="47.47638" lon="6.77102">
        <ele>310</ele>
        <time>2016-02-14T10:10:48.000Z</time>
      </trkpt>
      <trkpt lat="47.47639" lon="6.77097">
        <ele>311</ele>
        <time>2016-02-14T10:10:49.000Z</time>
      </trkpt>
      <trkpt lat="47.4764" lon="6.77092">
        <ele>311</ele>
        <time>2016-02-14T10:10:50.000Z</time>
      </trkpt>
      <trkpt lat="47.47641" lon="6.77088">
        <ele>311</ele>
        <time>2016-02-14T10:10:51.000Z</time>
      </trkpt>
      <trkpt lat="47.47641" lon="6.77084">
        <ele>311</ele>
        <time>2016-02-14T10:10:52.000Z</time>
      </trkpt>
      <trkpt lat="47.47642" lon="6.77079">
        <ele>311</ele>
        <time>2016-02-14T10:10:53.000Z</time>
      </trkpt>
      <trkpt lat="47.47643" lon="6.77074">
        <ele>311</ele>
        <time>2016-02-14T10:10:54.000Z</time>
      </trkpt>
      <trkpt lat="47.47644" lon="6.77069">
        <ele>311</ele>
        <time>2016-02-14T10:10:55.000Z</time>
      </trkpt>
      <trkpt lat="47.47646" lon="6.77064">
        <ele>311</ele>
        <time>2016-02-14T10:10:56.000Z</time>
      </trkpt>
      <trkpt lat="47.47646" lon="6.77059">
        <ele>311</ele>
        <time>2016-02-14T10:10:57.000Z</time>
      </trkpt>
      <trkpt lat="47.47648" lon="6.77053">
        <ele>311</ele>
        <time>2016-02-14T10:10:58.000Z</time>
      </trkpt>
      <trkpt lat="47.47649" lon="6.77047">
        <ele>311</ele>
        <time>2016-02-14T10:10:59.000Z</time>
      </trkpt>
      <trkpt lat="47.47651" lon="6.77039">
        <ele>311</ele>
        <time>2016-02-14T10:11:00.000Z</time>
      </trkpt>
      <trkpt lat="47.47652" lon="6.77029">
        <ele>311</ele>
        <time>2016-02-14T10:11:01.000Z</time>
      </trkpt>
      <trkpt lat="47.47653" lon="6.77019">
        <ele>311</ele>
        <time>2016-02-14T10:11:02.000Z</time>
      </trkpt>
      <trkpt lat="47.47654" lon="6.77011">
        <ele>311</ele>
        <time>2016-02-14T10:11:03.000Z</time>
      </trkpt>
      <trkpt lat="47.47656" lon="6.77003">
        <ele>311</ele>
        <time>2016-02-14T10:11:04.000Z</time>
      </trkpt>
      <trkpt lat="47.47659" lon="6.76994">
        <ele>311</ele>
        <time>2016-02-14T10:11:05.000Z</time>
      </trkpt>
      <trkpt lat="47.47662" lon="6.76985">
        <ele>311</ele>
        <time>2016-02-14T10:11:06.000Z</time>
      </trkpt>
      <trkpt lat="47.47665" lon="6.76976">
        <ele>311</ele>
        <time>2016-02-14T10:11:07.000Z</time>
      </trkpt>
      <trkpt lat="47.4767" lon="6.76966">
        <ele>311</ele>
        <time>2016-02-14T10:11:08.000Z</time>
      </trkpt>
      <trkpt lat="47.47673" lon="6.76955">
        <ele>311</ele>
        <time>2016-02-14T10:11:09.000Z</time>
      </trkpt>
      <trkpt lat="47.47678" lon="6.76944">
        <ele>311</ele>
        <time>2016-02-14T10:11:10.000Z</time>
      </trkpt>
      <trkpt lat="47.47681" lon="6.76936">
        <ele>311</ele>
        <time>2016-02-14T10:11:11.000Z</time>
      </trkpt>
      <trkpt lat="47.47684" lon="6.76927">
        <ele>311</ele>
        <time>2016-02-14T10:11:12.000Z</time>
      </trkpt>
      <trkpt lat="47.47687" lon="6.76919">
        <ele>311</ele>
        <time>2016-02-14T10:11:13.000Z</time>
      </trkpt>
      <trkpt lat="47.4769" lon="6.76912">
        <ele>311</ele>
        <time>2016-02-14T10:11:14.000Z</time>
      </trkpt>
      <trkpt lat="47.47692" lon="6.76904">
        <ele>311</ele>
        <time>2016-02-14T10:11:15.000Z</time>
      </trkpt>
      <trkpt lat="47.47695" lon="6.76897">
        <ele>311</ele>
        <time>2016-02-14T10:11:16.000Z</time>
      </trkpt>
      <trkpt lat="47.47698" lon="6.76889">
        <ele>311</ele>
        <time>2016-02-14T10:11:17.000Z</time>
      </trkpt>
      <trkpt lat="47.47701" lon="6.76881">
        <ele>311</ele>
        <time>2016-02-14T10:11:18.000Z</time>
      </trkpt>
      <trkpt lat="47.47701" lon="6.76873">
        <ele>311</ele>
        <time>2016-02-14T10:11:19.000Z</time>
      </trkpt>
      <trkpt lat="47.47704" lon="6.76864">
        <ele>311</ele>
        <time>2016-02-14T10:11:20.000Z</time>
      </trkpt>
      <trkpt lat="47.47708" lon="6.76856">
        <ele>311</ele>
        <time>2016-02-14T10:11:21.000Z</time>
      </trkpt>
      <trkpt lat="47.47712" lon="6.76848">
        <ele>311</ele>
        <time>2016-02-14T10:11:22.000Z</time>
      </trkpt>
      <trkpt lat="47.47715" lon="6.76841">
        <ele>311</ele>
        <time>2016-02-14T10:11:23.000Z</time>
      </trkpt>
      <trkpt lat="47.47718" lon="6.76834">
        <ele>311</ele>
        <time>2016-02-14T10:11:24.000Z</time>
      </trkpt>
      <trkpt lat="47.47721" lon="6.76827">
        <ele>311</ele>
        <time>2016-02-14T10:11:25.000Z</time>
      </trkpt>
      <trkpt lat="47.47724" lon="6.76821">
        <ele>311</ele>
        <time>2016-02-14T10:11:26.000Z</time>
      </trkpt>
      <trkpt lat="47.47727" lon="6.76814">
        <ele>311</ele>
        <time>2016-02-14T10:11:27.000Z</time>
      </trkpt>
      <trkpt lat="47.4773" lon="6.76807">
        <ele>311</ele>
        <time>2016-02-14T10:11:28.000Z</time>
      </trkpt>
      <trkpt lat="47.47734" lon="6.76804">
        <ele>311</ele>
        <time>2016-02-14T10:11:29.000Z</time>
      </trkpt>
      <trkpt lat="47.47736" lon="6.76798">
        <ele>311</ele>
        <time>2016-02-14T10:11:30.000Z</time>
      </trkpt>
      <trkpt lat="47.4774" lon="6.76794">
        <ele>311</ele>
        <time>2016-02-14T10:11:31.000Z</time>
      </trkpt>
      <trkpt lat="47.47743" lon="6.76796">
        <ele>311</ele>
        <time>2016-02-14T10:11:32.000Z</time>
      </trkpt>
      <trkpt lat="47.47746" lon="6.76792">
        <ele>311</ele>
        <time>2016-02-14T10:11:33.000Z</time>
      </trkpt>
      <trkpt lat="47.4775" lon="6.76793">
        <ele>311</ele>
        <time>2016-02-14T10:11:35.000Z</time>
      </trkpt>
      <trkpt lat="47.47755" lon="6.76793">
        <ele>311</ele>
        <time>2016-02-14T10:11:36.000Z</time>
      </trkpt>
      <trkpt lat="47.47758" lon="6.76793">
        <ele>311</ele>
        <time>2016-02-14T10:11:37.000Z</time>
      </trkpt>
      <trkpt lat="47.47762" lon="6.76793">
        <ele>311</ele>
        <time>2016-02-14T10:11:38.000Z</time>
      </trkpt>
      <trkpt lat="47.47767" lon="6.76793">
        <ele>311</ele>
        <time>2016-02-14T10:11:39.000Z</time>
      </trkpt>
      <trkpt lat="47.47771" lon="6.76795">
        <ele>311</ele>
        <time>2016-02-14T10:11:40.000Z</time>
      </trkpt>
      <trkpt lat="47.47776" lon="6.76798">
        <ele>311</ele>
        <time>2016-02-14T10:11:41.000Z</time>
      </trkpt>
      <trkpt lat="47.47781" lon="6.768">
        <ele>311</ele>
        <time>2016-02-14T10:11:42.000Z</time>
      </trkpt>
      <trkpt lat="47.47786" lon="6.76802">
        <ele>311</ele>
        <time>2016-02-14T10:11:43.000Z</time>
      </trkpt>
      <trkpt lat="47.4779" lon="6.76805">
        <ele>311</ele>
        <time>2016-02-14T10:11:44.000Z</time>
      </trkpt>
      <trkpt lat="47.47796" lon="6.76807">
        <ele>310</ele>
        <time>2016-02-14T10:11:45.000Z</time>
      </trkpt>
      <trkpt lat="47.47801" lon="6.76809">
        <ele>310</ele>
        <time>2016-02-14T10:11:46.000Z</time>
      </trkpt>
      <trkpt lat="47.47805" lon="6.76811">
        <ele>310</ele>
        <time>2016-02-14T10:11:47.000Z</time>
      </trkpt>
      <trkpt lat="47.47811" lon="6.76813">
        <ele>310</ele>
        <time>2016-02-14T10:11:48.000Z</time>
      </trkpt>
      <trkpt lat="47.47816" lon="6.76813">
        <ele>310</ele>
        <time>2016-02-14T10:11:49.000Z</time>
      </trkpt>
      <trkpt lat="47.47821" lon="6.76812">
        <ele>310</ele>
        <time>2016-02-14T10:11:50.000Z</time>
      </trkpt>
      <trkpt lat="47.47826" lon="6.76808">
        <ele>310</ele>
        <time>2016-02-14T10:11:51.000Z</time>
      </trkpt>
      <trkpt lat="47.4783" lon="6.76804">
        <ele>310</ele>
        <time>2016-02-14T10:11:52.000Z</time>
      </trkpt>
      <trkpt lat="47.47833" lon="6.76796">
        <ele>310</ele>
        <time>2016-02-14T10:11:53.000Z</time>
      </trkpt>
      <trkpt lat="47.47836" lon="6.76789">
        <ele>311</ele>
        <time>2016-02-14T10:11:54.000Z</time>
      </trkpt>
      <trkpt lat="47.4784" lon="6.76781">
        <ele>311</ele>
        <time>2016-02-14T10:11:55.000Z</time>
      </trkpt>
      <trkpt lat="47.47843" lon="6.76773">
        <ele>311</ele>
        <time>2016-02-14T10:11:56.000Z</time>
      </trkpt>
      <trkpt lat="47.47846" lon="6.76766">
        <ele>311</ele>
        <time>2016-02-14T10:11:57.000Z</time>
      </trkpt>
      <trkpt lat="47.4785" lon="6.76759">
        <ele>311</ele>
        <time>2016-02-14T10:11:58.000Z</time>
      </trkpt>
      <trkpt lat="47.47853" lon="6.76752">
        <ele>311</ele>
        <time>2016-02-14T10:11:59.000Z</time>
      </trkpt>
      <trkpt lat="47.47856" lon="6.76746">
        <ele>310</ele>
        <time>2016-02-14T10:12:00.000Z</time>
      </trkpt>
      <trkpt lat="47.47859" lon="6.7674">
        <ele>310</ele>
        <time>2016-02-14T10:12:01.000Z</time>
      </trkpt>
      <trkpt lat="47.47863" lon="6.76733">
        <ele>310</ele>
        <time>2016-02-14T10:12:02.000Z</time>
      </trkpt>
      <trkpt lat="47.47866" lon="6.76726">
        <ele>310</ele>
        <time>2016-02-14T10:12:03.000Z</time>
      </trkpt>
      <trkpt lat="47.47869" lon="6.76719">
        <ele>310</ele>
        <time>2016-02-14T10:12:04.000Z</time>
      </trkpt>
      <trkpt lat="47.47873" lon="6.76712">
        <ele>310</ele>
        <time>2016-02-14T10:12:05.000Z</time>
      </trkpt>
      <trkpt lat="47.47877" lon="6.76704">
        <ele>310</ele>
        <time>2016-02-14T10:12:06.000Z</time>
      </trkpt>
      <trkpt lat="47.4788" lon="6.76697">
        <ele>310</ele>
        <time>2016-02-14T10:12:07.000Z</time>
      </trkpt>
      <trkpt lat="47.47884" lon="6.7669">
        <ele>310</ele>
        <time>2016-02-14T10:12:08.000Z</time>
      </trkpt>
      <trkpt lat="47.47887" lon="6.76683">
        <ele>310</ele>
        <time>2016-02-14T10:12:09.000Z</time>
      </trkpt>
      <trkpt lat="47.47891" lon="6.76676">
        <ele>310</ele>
        <time>2016-02-14T10:12:10.000Z</time>
      </trkpt>
      <trkpt lat="47.47895" lon="6.76671">
        <ele>310</ele>
        <time>2016-02-14T10:12:11.000Z</time>
      </trkpt>
      <trkpt lat="47.47898" lon="6.76663">
        <ele>310</ele>
        <time>2016-02-14T10:12:12.000Z</time>
      </trkpt>
      <trkpt lat="47.47901" lon="6.76657">
        <ele>310</ele>
        <time>2016-02-14T10:12:13.000Z</time>
      </trkpt>
      <trkpt lat="47.47906" lon="6.76654">
        <ele>310</ele>
        <time>2016-02-14T10:12:14.000Z</time>
      </trkpt>
      <trkpt lat="47.47911" lon="6.76648">
        <ele>310</ele>
        <time>2016-02-14T10:12:15.000Z</time>
      </trkpt>
      <trkpt lat="47.47915" lon="6.76644">
        <ele>310</ele>
        <time>2016-02-14T10:12:16.000Z</time>
      </trkpt>
      <trkpt lat="47.4792" lon="6.76641">
        <ele>311</ele>
        <time>2016-02-14T10:12:17.000Z</time>
      </trkpt>
      <trkpt lat="47.47927" lon="6.76636">
        <ele>311</ele>
        <time>2016-02-14T10:12:18.000Z</time>
      </trkpt>
      <trkpt lat="47.47932" lon="6.76633">
        <ele>311</ele>
        <time>2016-02-14T10:12:19.000Z</time>
      </trkpt>
      <trkpt lat="47.47936" lon="6.76628">
        <ele>311</ele>
        <time>2016-02-14T10:12:20.000Z</time>
      </trkpt>
      <trkpt lat="47.47941" lon="6.76623">
        <ele>311</ele>
        <time>2016-02-14T10:12:21.000Z</time>
      </trkpt>
      <trkpt lat="47.47946" lon="6.76619">
        <ele>311</ele>
        <time>2016-02-14T10:12:22.000Z</time>
      </trkpt>
      <trkpt lat="47.47951" lon="6.76615">
        <ele>311</ele>
        <time>2016-02-14T10:12:23.000Z</time>
      </trkpt>
      <trkpt lat="47.47956" lon="6.76612">
        <ele>311</ele>
        <time>2016-02-14T10:12:24.000Z</time>
      </trkpt>
      <trkpt lat="47.4796" lon="6.76616">
        <ele>311</ele>
        <time>2016-02-14T10:12:25.000Z</time>
      </trkpt>
      <trkpt lat="47.47964" lon="6.76614">
        <ele>311</ele>
        <time>2016-02-14T10:12:26.000Z</time>
      </trkpt>
      <trkpt lat="47.47967" lon="6.76612">
        <ele>311</ele>
        <time>2016-02-14T10:12:27.000Z</time>
      </trkpt>
      <trkpt lat="47.47971" lon="6.7661">
        <ele>311</ele>
        <time>2016-02-14T10:12:28.000Z</time>
      </trkpt>
      <trkpt lat="47.47975" lon="6.76608">
        <ele>311</ele>
        <time>2016-02-14T10:12:29.000Z</time>
      </trkpt>
      <trkpt lat="47.47979" lon="6.76606">
        <ele>311</ele>
        <time>2016-02-14T10:12:30.000Z</time>
      </trkpt>
      <trkpt lat="47.47983" lon="6.76604">
        <ele>311</ele>
        <time>2016-02-14T10:12:31.000Z</time>
      </trkpt>
      <trkpt lat="47.47986" lon="6.76603">
        <ele>312</ele>
        <time>2016-02-14T10:12:32.000Z</time>
      </trkpt>
      <trkpt lat="47.47989" lon="6.76601">
        <ele>312</ele>
        <time>2016-02-14T10:12:33.000Z</time>
      </trkpt>
      <trkpt lat="47.47992" lon="6.766">
        <ele>312</ele>
        <time>2016-02-14T10:12:34.000Z</time>
      </trkpt>
      <trkpt lat="47.47996" lon="6.76598">
        <ele>312</ele>
        <time>2016-02-14T10:12:35.000Z</time>
      </trkpt>
      <trkpt lat="47.47999" lon="6.76595">
        <ele>312</ele>
        <time>2016-02-14T10:12:36.000Z</time>
      </trkpt>
      <trkpt lat="47.48002" lon="6.76593">
        <ele>312</ele>
        <time>2016-02-14T10:12:37.000Z</time>
      </trkpt>
      <trkpt lat="47.48005" lon="6.7659">
        <ele>312</ele>
        <time>2016-02-14T10:12:38.000Z</time>
      </trkpt>
      <trkpt lat="47.48009" lon="6.76587">
        <ele>312</ele>
        <time>2016-02-14T10:12:39.000Z</time>
      </trkpt>
      <trkpt lat="47.48015" lon="6.76584">
        <ele>312</ele>
        <time>2016-02-14T10:12:40.000Z</time>
      </trkpt>
      <trkpt lat="47.4802" lon="6.7658">
        <ele>312</ele>
        <time>2016-02-14T10:12:41.000Z</time>
      </trkpt>
      <trkpt lat="47.48024" lon="6.76576">
        <ele>312</ele>
        <time>2016-02-14T10:12:42.000Z</time>
      </trkpt>
      <trkpt lat="47.48029" lon="6.76572">
        <ele>312</ele>
        <time>2016-02-14T10:12:43.000Z</time>
      </trkpt>
      <trkpt lat="47.48033" lon="6.76568">
        <ele>312</ele>
        <time>2016-02-14T10:12:44.000Z</time>
      </trkpt>
      <trkpt lat="47.48038" lon="6.76564">
        <ele>312</ele>
        <time>2016-02-14T10:12:45.000Z</time>
      </trkpt>
      <trkpt lat="47.48042" lon="6.76559">
        <ele>312</ele>
        <time>2016-02-14T10:12:46.000Z</time>
      </trkpt>
      <trkpt lat="47.48046" lon="6.76556">
        <ele>312</ele>
        <time>2016-02-14T10:12:47.000Z</time>
      </trkpt>
      <trkpt lat="47.48049" lon="6.76552">
        <ele>312</ele>
        <time>2016-02-14T10:12:48.000Z</time>
      </trkpt>
      <trkpt lat="47.48054" lon="6.76548">
        <ele>312</ele>
        <time>2016-02-14T10:12:49.000Z</time>
      </trkpt>
      <trkpt lat="47.48057" lon="6.76544">
        <ele>312</ele>
        <time>2016-02-14T10:12:50.000Z</time>
      </trkpt>
      <trkpt lat="47.48061" lon="6.76539">
        <ele>312</ele>
        <time>2016-02-14T10:12:51.000Z</time>
      </trkpt>
      <trkpt lat="47.48064" lon="6.76536">
        <ele>312</ele>
        <time>2016-02-14T10:12:52.000Z</time>
      </trkpt>
      <trkpt lat="47.48066" lon="6.76531">
        <ele>312</ele>
        <time>2016-02-14T10:12:53.000Z</time>
      </trkpt>
      <trkpt lat="47.48074" lon="6.76527">
        <ele>312</ele>
        <time>2016-02-14T10:12:54.000Z</time>
      </trkpt>
      <trkpt lat="47.48078" lon="6.76522">
        <ele>313</ele>
        <time>2016-02-14T10:12:55.000Z</time>
      </trkpt>
      <trkpt lat="47.48083" lon="6.76518">
        <ele>313</ele>
        <time>2016-02-14T10:12:56.000Z</time>
      </trkpt>
      <trkpt lat="47.48087" lon="6.76517">
        <ele>316</ele>
        <time>2016-02-14T10:12:57.000Z</time>
      </trkpt>
      <trkpt lat="47.48089" lon="6.76514">
        <ele>316</ele>
        <time>2016-02-14T10:12:58.000Z</time>
      </trkpt>
      <trkpt lat="47.48091" lon="6.76515">
        <ele>317</ele>
        <time>2016-02-14T10:12:59.000Z</time>
      </trkpt>
      <trkpt lat="47.48092" lon="6.76523">
        <ele>317</ele>
        <time>2016-02-14T10:13:00.000Z</time>
      </trkpt>
      <trkpt lat="47.48096" lon="6.76526">
        <ele>318</ele>
        <time>2016-02-14T10:13:02.000Z</time>
      </trkpt>
      <trkpt lat="47.48097" lon="6.76528">
        <ele>318</ele>
        <time>2016-02-14T10:13:03.000Z</time>
      </trkpt>
      <trkpt lat="47.48097" lon="6.76531">
        <ele>318</ele>
        <time>2016-02-14T10:13:04.000Z</time>
      </trkpt>
      <trkpt lat="47.48102" lon="6.76539">
        <ele>318</ele>
        <time>2016-02-14T10:13:05.000Z</time>
      </trkpt>
      <trkpt lat="47.48103" lon="6.76547">
        <ele>318</ele>
        <time>2016-02-14T10:13:06.000Z</time>
      </trkpt>
      <trkpt lat="47.48103" lon="6.76554">
        <ele>318</ele>
        <time>2016-02-14T10:13:07.000Z</time>
      </trkpt>
      <trkpt lat="47.48103" lon="6.76558">
        <ele>317</ele>
        <time>2016-02-14T10:13:08.000Z</time>
      </trkpt>
      <trkpt lat="47.48102" lon="6.76565">
        <ele>317</ele>
        <time>2016-02-14T10:13:10.000Z</time>
      </trkpt>
      <trkpt lat="47.48101" lon="6.76571">
        <ele>316</ele>
        <time>2016-02-14T10:13:11.000Z</time>
      </trkpt>
      <trkpt lat="47.48099" lon="6.76576">
        <ele>316</ele>
        <time>2016-02-14T10:13:12.000Z</time>
      </trkpt>
      <trkpt lat="47.48097" lon="6.76582">
        <ele>315</ele>
        <time>2016-02-14T10:13:13.000Z</time>
      </trkpt>
      <trkpt lat="47.48097" lon="6.76587">
        <ele>313</ele>
        <time>2016-02-14T10:13:14.000Z</time>
      </trkpt>
      <trkpt lat="47.48098" lon="6.76593">
        <ele>313</ele>
        <time>2016-02-14T10:13:15.000Z</time>
      </trkpt>
      <trkpt lat="47.48102" lon="6.76596">
        <ele>313</ele>
        <time>2016-02-14T10:13:16.000Z</time>
      </trkpt>
      <trkpt lat="47.48102" lon="6.76601">
        <ele>313</ele>
        <time>2016-02-14T10:13:17.000Z</time>
      </trkpt>
      <trkpt lat="47.48102" lon="6.76605">
        <ele>313</ele>
        <time>2016-02-14T10:13:18.000Z</time>
      </trkpt>
      <trkpt lat="47.48104" lon="6.7661">
        <ele>313</ele>
        <time>2016-02-14T10:13:19.000Z</time>
      </trkpt>
      <trkpt lat="47.48107" lon="6.76623">
        <ele>313</ele>
        <time>2016-02-14T10:13:20.000Z</time>
      </trkpt>
      <trkpt lat="47.48109" lon="6.7663">
        <ele>313</ele>
        <time>2016-02-14T10:13:21.000Z</time>
      </trkpt>
      <trkpt lat="47.48113" lon="6.76638">
        <ele>313</ele>
        <time>2016-02-14T10:13:22.000Z</time>
      </trkpt>
      <trkpt lat="47.48115" lon="6.76646">
        <ele>313</ele>
        <time>2016-02-14T10:13:23.000Z</time>
      </trkpt>
      <trkpt lat="47.48117" lon="6.76653">
        <ele>313</ele>
        <time>2016-02-14T10:13:24.000Z</time>
      </trkpt>
      <trkpt lat="47.4812" lon="6.76659">
        <ele>313</ele>
        <time>2016-02-14T10:13:25.000Z</time>
      </trkpt>
      <trkpt lat="47.48123" lon="6.76667">
        <ele>312</ele>
        <time>2016-02-14T10:13:26.000Z</time>
      </trkpt>
      <trkpt lat="47.48127" lon="6.76674">
        <ele>312</ele>
        <time>2016-02-14T10:13:27.000Z</time>
      </trkpt>
      <trkpt lat="47.48131" lon="6.76681">
        <ele>312</ele>
        <time>2016-02-14T10:13:28.000Z</time>
      </trkpt>
      <trkpt lat="47.48135" lon="6.76688">
        <ele>312</ele>
        <time>2016-02-14T10:13:29.000Z</time>
      </trkpt>
      <trkpt lat="47.48138" lon="6.76696">
        <ele>312</ele>
        <time>2016-02-14T10:13:30.000Z</time>
      </trkpt>
      <trkpt lat="47.48141" lon="6.76704">
        <ele>312</ele>
        <time>2016-02-14T10:13:31.000Z</time>
      </trkpt>
      <trkpt lat="47.48144" lon="6.76713">
        <ele>312</ele>
        <time>2016-02-14T10:13:32.000Z</time>
      </trkpt>
      <trkpt lat="47.48148" lon="6.76721">
        <ele>312</ele>
        <time>2016-02-14T10:13:33.000Z</time>
      </trkpt>
      <trkpt lat="47.48151" lon="6.76729">
        <ele>312</ele>
        <time>2016-02-14T10:13:34.000Z</time>
      </trkpt>
      <trkpt lat="47.48154" lon="6.76736">
        <ele>312</ele>
        <time>2016-02-14T10:13:35.000Z</time>
      </trkpt>
      <trkpt lat="47.48157" lon="6.76743">
        <ele>313</ele>
        <time>2016-02-14T10:13:36.000Z</time>
      </trkpt>
      <trkpt lat="47.48162" lon="6.7675">
        <ele>313</ele>
        <time>2016-02-14T10:13:37.000Z</time>
      </trkpt>
      <trkpt lat="47.48166" lon="6.76757">
        <ele>313</ele>
        <time>2016-02-14T10:13:38.000Z</time>
      </trkpt>
      <trkpt lat="47.4817" lon="6.76762">
        <ele>313</ele>
        <time>2016-02-14T10:13:39.000Z</time>
      </trkpt>
      <trkpt lat="47.48175" lon="6.76768">
        <ele>312</ele>
        <time>2016-02-14T10:13:40.000Z</time>
      </trkpt>
      <trkpt lat="47.48179" lon="6.76773">
        <ele>312</ele>
        <time>2016-02-14T10:13:41.000Z</time>
      </trkpt>
      <trkpt lat="47.48184" lon="6.76777">
        <ele>312</ele>
        <time>2016-02-14T10:13:42.000Z</time>
      </trkpt>
      <trkpt lat="47.4819" lon="6.76781">
        <ele>312</ele>
        <time>2016-02-14T10:13:43.000Z</time>
      </trkpt>
      <trkpt lat="47.48196" lon="6.76785">
        <ele>312</ele>
        <time>2016-02-14T10:13:44.000Z</time>
      </trkpt>
      <trkpt lat="47.48202" lon="6.76787">
        <ele>312</ele>
        <time>2016-02-14T10:13:45.000Z</time>
      </trkpt>
      <trkpt lat="47.48208" lon="6.76791">
        <ele>312</ele>
        <time>2016-02-14T10:13:46.000Z</time>
      </trkpt>
      <trkpt lat="47.48214" lon="6.76793">
        <ele>312</ele>
        <time>2016-02-14T10:13:47.000Z</time>
      </trkpt>
      <trkpt lat="47.48219" lon="6.76796">
        <ele>312</ele>
        <time>2016-02-14T10:13:48.000Z</time>
      </trkpt>
      <trkpt lat="47.48225" lon="6.76798">
        <ele>312</ele>
        <time>2016-02-14T10:13:49.000Z</time>
      </trkpt>
      <trkpt lat="47.48231" lon="6.768">
        <ele>312</ele>
        <time>2016-02-14T10:13:50.000Z</time>
      </trkpt>
      <trkpt lat="47.48236" lon="6.76805">
        <ele>312</ele>
        <time>2016-02-14T10:13:51.000Z</time>
      </trkpt>
      <trkpt lat="47.4824" lon="6.76811">
        <ele>312</ele>
        <time>2016-02-14T10:13:52.000Z</time>
      </trkpt>
      <trkpt lat="47.48245" lon="6.76816">
        <ele>312</ele>
        <time>2016-02-14T10:13:53.000Z</time>
      </trkpt>
      <trkpt lat="47.4825" lon="6.76823">
        <ele>311</ele>
        <time>2016-02-14T10:13:54.000Z</time>
      </trkpt>
      <trkpt lat="47.48255" lon="6.76832">
        <ele>311</ele>
        <time>2016-02-14T10:13:55.000Z</time>
      </trkpt>
      <trkpt lat="47.48258" lon="6.76838">
        <ele>311</ele>
        <time>2016-02-14T10:13:56.000Z</time>
      </trkpt>
      <trkpt lat="47.48262" lon="6.76844">
        <ele>311</ele>
        <time>2016-02-14T10:13:57.000Z</time>
      </trkpt>
      <trkpt lat="47.48267" lon="6.76851">
        <ele>311</ele>
        <time>2016-02-14T10:13:58.000Z</time>
      </trkpt>
      <trkpt lat="47.48271" lon="6.76857">
        <ele>310</ele>
        <time>2016-02-14T10:13:59.000Z</time>
      </trkpt>
      <trkpt lat="47.48275" lon="6.76863">
        <ele>310</ele>
        <time>2016-02-14T10:14:00.000Z</time>
      </trkpt>
      <trkpt lat="47.4828" lon="6.76869">
        <ele>310</ele>
        <time>2016-02-14T10:14:01.000Z</time>
      </trkpt>
      <trkpt lat="47.48285" lon="6.76876">
        <ele>310</ele>
        <time>2016-02-14T10:14:02.000Z</time>
      </trkpt>
      <trkpt lat="47.4829" lon="6.76881">
        <ele>310</ele>
        <time>2016-02-14T10:14:03.000Z</time>
      </trkpt>
      <trkpt lat="47.48295" lon="6.76886">
        <ele>310</ele>
        <time>2016-02-14T10:14:04.000Z</time>
      </trkpt>
      <trkpt lat="47.48301" lon="6.76891">
        <ele>310</ele>
        <time>2016-02-14T10:14:05.000Z</time>
      </trkpt>
      <trkpt lat="47.48306" lon="6.76897">
        <ele>310</ele>
        <time>2016-02-14T10:14:06.000Z</time>
      </trkpt>
      <trkpt lat="47.48311" lon="6.76902">
        <ele>310</ele>
        <time>2016-02-14T10:14:07.000Z</time>
      </trkpt>
      <trkpt lat="47.48317" lon="6.76906">
        <ele>310</ele>
        <time>2016-02-14T10:14:08.000Z</time>
      </trkpt>
      <trkpt lat="47.48322" lon="6.76911">
        <ele>310</ele>
        <time>2016-02-14T10:14:09.000Z</time>
      </trkpt>
      <trkpt lat="47.48327" lon="6.76915">
        <ele>309</ele>
        <time>2016-02-14T10:14:10.000Z</time>
      </trkpt>
      <trkpt lat="47.48334" lon="6.7692">
        <ele>309</ele>
        <time>2016-02-14T10:14:11.000Z</time>
      </trkpt>
      <trkpt lat="47.48339" lon="6.76923">
        <ele>310</ele>
        <time>2016-02-14T10:14:12.000Z</time>
      </trkpt>
      <trkpt lat="47.48345" lon="6.76926">
        <ele>310</ele>
        <time>2016-02-14T10:14:13.000Z</time>
      </trkpt>
      <trkpt lat="47.48351" lon="6.76929">
        <ele>311</ele>
        <time>2016-02-14T10:14:14.000Z</time>
      </trkpt>
      <trkpt lat="47.48357" lon="6.76933">
        <ele>311</ele>
        <time>2016-02-14T10:14:15.000Z</time>
      </trkpt>
      <trkpt lat="47.48363" lon="6.76936">
        <ele>311</ele>
        <time>2016-02-14T10:14:16.000Z</time>
      </trkpt>
      <trkpt lat="47.48369" lon="6.7694">
        <ele>312</ele>
        <time>2016-02-14T10:14:17.000Z</time>
      </trkpt>
      <trkpt lat="47.48374" lon="6.76942">
        <ele>312</ele>
        <time>2016-02-14T10:14:18.000Z</time>
      </trkpt>
      <trkpt lat="47.4838" lon="6.76945">
        <ele>312</ele>
        <time>2016-02-14T10:14:19.000Z</time>
      </trkpt>
      <trkpt lat="47.48385" lon="6.76948">
        <ele>312</ele>
        <time>2016-02-14T10:14:20.000Z</time>
      </trkpt>
      <trkpt lat="47.48391" lon="6.76951">
        <ele>312</ele>
        <time>2016-02-14T10:14:21.000Z</time>
      </trkpt>
      <trkpt lat="47.48397" lon="6.76955">
        <ele>312</ele>
        <time>2016-02-14T10:14:22.000Z</time>
      </trkpt>
      <trkpt lat="47.48403" lon="6.76958">
        <ele>312</ele>
        <time>2016-02-14T10:14:23.000Z</time>
      </trkpt>
      <trkpt lat="47.4841" lon="6.76961">
        <ele>312</ele>
        <time>2016-02-14T10:14:24.000Z</time>
      </trkpt>
      <trkpt lat="47.48416" lon="6.76963">
        <ele>312</ele>
        <time>2016-02-14T10:14:25.000Z</time>
      </trkpt>
      <trkpt lat="47.48421" lon="6.76965">
        <ele>314</ele>
        <time>2016-02-14T10:14:26.000Z</time>
      </trkpt>
      <trkpt lat="47.48427" lon="6.76969">
        <ele>314</ele>
        <time>2016-02-14T10:14:27.000Z</time>
      </trkpt>
      <trkpt lat="47.48433" lon="6.76971">
        <ele>314</ele>
        <time>2016-02-14T10:14:28.000Z</time>
      </trkpt>
      <trkpt lat="47.48438" lon="6.76976">
        <ele>314</ele>
        <time>2016-02-14T10:14:29.000Z</time>
      </trkpt>
      <trkpt lat="47.48444" lon="6.7698">
        <ele>315</ele>
        <time>2016-02-14T10:14:30.000Z</time>
      </trkpt>
      <trkpt lat="47.48449" lon="6.76983">
        <ele>315</ele>
        <time>2016-02-14T10:14:31.000Z</time>
      </trkpt>
      <trkpt lat="47.48455" lon="6.76987">
        <ele>315</ele>
        <time>2016-02-14T10:14:32.000Z</time>
      </trkpt>
      <trkpt lat="47.4846" lon="6.76991">
        <ele>315</ele>
        <time>2016-02-14T10:14:33.000Z</time>
      </trkpt>
      <trkpt lat="47.48466" lon="6.76994">
        <ele>315</ele>
        <time>2016-02-14T10:14:34.000Z</time>
      </trkpt>
      <trkpt lat="47.48471" lon="6.76999">
        <ele>315</ele>
        <time>2016-02-14T10:14:35.000Z</time>
      </trkpt>
      <trkpt lat="47.48476" lon="6.77003">
        <ele>314</ele>
        <time>2016-02-14T10:14:36.000Z</time>
      </trkpt>
      <trkpt lat="47.48481" lon="6.77006">
        <ele>315</ele>
        <time>2016-02-14T10:14:37.000Z</time>
      </trkpt>
      <trkpt lat="47.48486" lon="6.77009">
        <ele>315</ele>
        <time>2016-02-14T10:14:38.000Z</time>
      </trkpt>
      <trkpt lat="47.48491" lon="6.77012">
        <ele>315</ele>
        <time>2016-02-14T10:14:39.000Z</time>
      </trkpt>
      <trkpt lat="47.48497" lon="6.77016">
        <ele>315</ele>
        <time>2016-02-14T10:14:40.000Z</time>
      </trkpt>
      <trkpt lat="47.48503" lon="6.77019">
        <ele>315</ele>
        <time>2016-02-14T10:14:41.000Z</time>
      </trkpt>
      <trkpt lat="47.48508" lon="6.77023">
        <ele>315</ele>
        <time>2016-02-14T10:14:42.000Z</time>
      </trkpt>
      <trkpt lat="47.48514" lon="6.77027">
        <ele>314</ele>
        <time>2016-02-14T10:14:43.000Z</time>
      </trkpt>
      <trkpt lat="47.48518" lon="6.77031">
        <ele>314</ele>
        <time>2016-02-14T10:14:44.000Z</time>
      </trkpt>
      <trkpt lat="47.48524" lon="6.77035">
        <ele>314</ele>
        <time>2016-02-14T10:14:45.000Z</time>
      </trkpt>
      <trkpt lat="47.4853" lon="6.77039">
        <ele>314</ele>
        <time>2016-02-14T10:14:46.000Z</time>
      </trkpt>
      <trkpt lat="47.48535" lon="6.77042">
        <ele>314</ele>
        <time>2016-02-14T10:14:47.000Z</time>
      </trkpt>
      <trkpt lat="47.48541" lon="6.77046">
        <ele>314</ele>
        <time>2016-02-14T10:14:48.000Z</time>
      </trkpt>
      <trkpt lat="47.48549" lon="6.77047">
        <ele>314</ele>
        <time>2016-02-14T10:14:49.000Z</time>
      </trkpt>
      <trkpt lat="47.48555" lon="6.77048">
        <ele>314</ele>
        <time>2016-02-14T10:14:50.000Z</time>
      </trkpt>
      <trkpt lat="47.48561" lon="6.77049">
        <ele>314</ele>
        <time>2016-02-14T10:14:51.000Z</time>
      </trkpt>
      <trkpt lat="47.48571" lon="6.7705">
        <ele>314</ele>
        <time>2016-02-14T10:14:52.000Z</time>
      </trkpt>
      <trkpt lat="47.48572" lon="6.77053">
        <ele>314</ele>
        <time>2016-02-14T10:14:53.000Z</time>
      </trkpt>
      <trkpt lat="47.48576" lon="6.77056">
        <ele>314</ele>
        <time>2016-02-14T10:14:54.000Z</time>
      </trkpt>
      <trkpt lat="47.4858" lon="6.77057">
        <ele>314</ele>
        <time>2016-02-14T10:14:55.000Z</time>
      </trkpt>
      <trkpt lat="47.48583" lon="6.7706">
        <ele>314</ele>
        <time>2016-02-14T10:14:56.000Z</time>
      </trkpt>
      <trkpt lat="47.48587" lon="6.77061">
        <ele>313</ele>
        <time>2016-02-14T10:14:57.000Z</time>
      </trkpt>
      <trkpt lat="47.48592" lon="6.77064">
        <ele>313</ele>
        <time>2016-02-14T10:14:58.000Z</time>
      </trkpt>
      <trkpt lat="47.48597" lon="6.77068">
        <ele>313</ele>
        <time>2016-02-14T10:14:59.000Z</time>
      </trkpt>
      <trkpt lat="47.48602" lon="6.77073">
        <ele>313</ele>
        <time>2016-02-14T10:15:00.000Z</time>
      </trkpt>
      <trkpt lat="47.48607" lon="6.77077">
        <ele>313</ele>
        <time>2016-02-14T10:15:01.000Z</time>
      </trkpt>
      <trkpt lat="47.48613" lon="6.77082">
        <ele>313</ele>
        <time>2016-02-14T10:15:02.000Z</time>
      </trkpt>
      <trkpt lat="47.48618" lon="6.77085">
        <ele>312</ele>
        <time>2016-02-14T10:15:03.000Z</time>
      </trkpt>
      <trkpt lat="47.48623" lon="6.77088">
        <ele>312</ele>
        <time>2016-02-14T10:15:04.000Z</time>
      </trkpt>
      <trkpt lat="47.48628" lon="6.77091">
        <ele>312</ele>
        <time>2016-02-14T10:15:05.000Z</time>
      </trkpt>
      <trkpt lat="47.48632" lon="6.77096">
        <ele>312</ele>
        <time>2016-02-14T10:15:06.000Z</time>
      </trkpt>
      <trkpt lat="47.48638" lon="6.77101">
        <ele>312</ele>
        <time>2016-02-14T10:15:07.000Z</time>
      </trkpt>
      <trkpt lat="47.48643" lon="6.77107">
        <ele>312</ele>
        <time>2016-02-14T10:15:08.000Z</time>
      </trkpt>
      <trkpt lat="47.48648" lon="6.77112">
        <ele>312</ele>
        <time>2016-02-14T10:15:09.000Z</time>
      </trkpt>
      <trkpt lat="47.48653" lon="6.77118">
        <ele>312</ele>
        <time>2016-02-14T10:15:10.000Z</time>
      </trkpt>
      <trkpt lat="47.48658" lon="6.77124">
        <ele>312</ele>
        <time>2016-02-14T10:15:11.000Z</time>
      </trkpt>
      <trkpt lat="47.48663" lon="6.7713">
        <ele>312</ele>
        <time>2016-02-14T10:15:12.000Z</time>
      </trkpt>
      <trkpt lat="47.48668" lon="6.77135">
        <ele>312</ele>
        <time>2016-02-14T10:15:13.000Z</time>
      </trkpt>
      <trkpt lat="47.48673" lon="6.77141">
        <ele>311</ele>
        <time>2016-02-14T10:15:14.000Z</time>
      </trkpt>
      <trkpt lat="47.48679" lon="6.77146">
        <ele>311</ele>
        <time>2016-02-14T10:15:15.000Z</time>
      </trkpt>
      <trkpt lat="47.48684" lon="6.77152">
        <ele>311</ele>
        <time>2016-02-14T10:15:16.000Z</time>
      </trkpt>
      <trkpt lat="47.48689" lon="6.77157">
        <ele>311</ele>
        <time>2016-02-14T10:15:17.000Z</time>
      </trkpt>
      <trkpt lat="47.48694" lon="6.77163">
        <ele>311</ele>
        <time>2016-02-14T10:15:18.000Z</time>
      </trkpt>
      <trkpt lat="47.48699" lon="6.77168">
        <ele>311</ele>
        <time>2016-02-14T10:15:19.000Z</time>
      </trkpt>
      <trkpt lat="47.48705" lon="6.77172">
        <ele>311</ele>
        <time>2016-02-14T10:15:20.000Z</time>
      </trkpt>
      <trkpt lat="47.4871" lon="6.77177">
        <ele>310</ele>
        <time>2016-02-14T10:15:21.000Z</time>
      </trkpt>
      <trkpt lat="47.48716" lon="6.77181">
        <ele>310</ele>
        <time>2016-02-14T10:15:22.000Z</time>
      </trkpt>
      <trkpt lat="47.48722" lon="6.77185">
        <ele>310</ele>
        <time>2016-02-14T10:15:23.000Z</time>
      </trkpt>
      <trkpt lat="47.48727" lon="6.77189">
        <ele>310</ele>
        <time>2016-02-14T10:15:24.000Z</time>
      </trkpt>
      <trkpt lat="47.48732" lon="6.77192">
        <ele>310</ele>
        <time>2016-02-14T10:15:25.000Z</time>
      </trkpt>
      <trkpt lat="47.48739" lon="6.77196">
        <ele>310</ele>
        <time>2016-02-14T10:15:26.000Z</time>
      </trkpt>
      <trkpt lat="47.48744" lon="6.77201">
        <ele>310</ele>
        <time>2016-02-14T10:15:27.000Z</time>
      </trkpt>
      <trkpt lat="47.4875" lon="6.77205">
        <ele>310</ele>
        <time>2016-02-14T10:15:28.000Z</time>
      </trkpt>
      <trkpt lat="47.48756" lon="6.7721">
        <ele>310</ele>
        <time>2016-02-14T10:15:29.000Z</time>
      </trkpt>
      <trkpt lat="47.48761" lon="6.77214">
        <ele>310</ele>
        <time>2016-02-14T10:15:30.000Z</time>
      </trkpt>
      <trkpt lat="47.48767" lon="6.77218">
        <ele>310</ele>
        <time>2016-02-14T10:15:31.000Z</time>
      </trkpt>
      <trkpt lat="47.48772" lon="6.77223">
        <ele>310</ele>
        <time>2016-02-14T10:15:32.000Z</time>
      </trkpt>
      <trkpt lat="47.48778" lon="6.77227">
        <ele>310</ele>
        <time>2016-02-14T10:15:33.000Z</time>
      </trkpt>
      <trkpt lat="47.48784" lon="6.77231">
        <ele>310</ele>
        <time>2016-02-14T10:15:34.000Z</time>
      </trkpt>
      <trkpt lat="47.48789" lon="6.77235">
        <ele>310</ele>
        <time>2016-02-14T10:15:35.000Z</time>
      </trkpt>
      <trkpt lat="47.48794" lon="6.77238">
        <ele>310</ele>
        <time>2016-02-14T10:15:36.000Z</time>
      </trkpt>
      <trkpt lat="47.488" lon="6.77242">
        <ele>310</ele>
        <time>2016-02-14T10:15:37.000Z</time>
      </trkpt>
      <trkpt lat="47.48805" lon="6.77245">
        <ele>311</ele>
        <time>2016-02-14T10:15:38.000Z</time>
      </trkpt>
      <trkpt lat="47.48811" lon="6.7725">
        <ele>310</ele>
        <time>2016-02-14T10:15:39.000Z</time>
      </trkpt>
      <trkpt lat="47.48816" lon="6.77254">
        <ele>310</ele>
        <time>2016-02-14T10:15:40.000Z</time>
      </trkpt>
      <trkpt lat="47.48822" lon="6.77259">
        <ele>310</ele>
        <time>2016-02-14T10:15:41.000Z</time>
      </trkpt>
      <trkpt lat="47.48827" lon="6.77265">
        <ele>310</ele>
        <time>2016-02-14T10:15:42.000Z</time>
      </trkpt>
      <trkpt lat="47.48831" lon="6.77267">
        <ele>310</ele>
        <time>2016-02-14T10:15:43.000Z</time>
      </trkpt>
      <trkpt lat="47.48836" lon="6.7727">
        <ele>310</ele>
        <time>2016-02-14T10:15:44.000Z</time>
      </trkpt>
      <trkpt lat="47.48841" lon="6.77272">
        <ele>310</ele>
        <time>2016-02-14T10:15:45.000Z</time>
      </trkpt>
      <trkpt lat="47.48846" lon="6.77275">
        <ele>310</ele>
        <time>2016-02-14T10:15:46.000Z</time>
      </trkpt>
      <trkpt lat="47.48851" lon="6.77278">
        <ele>310</ele>
        <time>2016-02-14T10:15:47.000Z</time>
      </trkpt>
      <trkpt lat="47.48855" lon="6.7728">
        <ele>310</ele>
        <time>2016-02-14T10:15:48.000Z</time>
      </trkpt>
      <trkpt lat="47.4886" lon="6.77282">
        <ele>310</ele>
        <time>2016-02-14T10:15:49.000Z</time>
      </trkpt>
      <trkpt lat="47.48865" lon="6.77284">
        <ele>310</ele>
        <time>2016-02-14T10:15:50.000Z</time>
      </trkpt>
      <trkpt lat="47.48871" lon="6.77287">
        <ele>310</ele>
        <time>2016-02-14T10:15:51.000Z</time>
      </trkpt>
      <trkpt lat="47.48878" lon="6.77291">
        <ele>310</ele>
        <time>2016-02-14T10:15:52.000Z</time>
      </trkpt>
      <trkpt lat="47.48882" lon="6.77293">
        <ele>310</ele>
        <time>2016-02-14T10:15:53.000Z</time>
      </trkpt>
      <trkpt lat="47.48888" lon="6.77294">
        <ele>310</ele>
        <time>2016-02-14T10:15:54.000Z</time>
      </trkpt>
      <trkpt lat="47.48894" lon="6.77296">
        <ele>310</ele>
        <time>2016-02-14T10:15:55.000Z</time>
      </trkpt>
      <trkpt lat="47.48899" lon="6.77298">
        <ele>310</ele>
        <time>2016-02-14T10:15:56.000Z</time>
      </trkpt>
      <trkpt lat="47.48903" lon="6.773">
        <ele>310</ele>
        <time>2016-02-14T10:15:57.000Z</time>
      </trkpt>
      <trkpt lat="47.48908" lon="6.77302">
        <ele>310</ele>
        <time>2016-02-14T10:15:58.000Z</time>
      </trkpt>
      <trkpt lat="47.48913" lon="6.77304">
        <ele>310</ele>
        <time>2016-02-14T10:15:59.000Z</time>
      </trkpt>
      <trkpt lat="47.48918" lon="6.77306">
        <ele>311</ele>
        <time>2016-02-14T10:16:00.000Z</time>
      </trkpt>
      <trkpt lat="47.48923" lon="6.77309">
        <ele>311</ele>
        <time>2016-02-14T10:16:01.000Z</time>
      </trkpt>
      <trkpt lat="47.48928" lon="6.77312">
        <ele>310</ele>
        <time>2016-02-14T10:16:02.000Z</time>
      </trkpt>
      <trkpt lat="47.48932" lon="6.77314">
        <ele>310</ele>
        <time>2016-02-14T10:16:03.000Z</time>
      </trkpt>
      <trkpt lat="47.48938" lon="6.77316">
        <ele>311</ele>
        <time>2016-02-14T10:16:04.000Z</time>
      </trkpt>
      <trkpt lat="47.48943" lon="6.77319">
        <ele>311</ele>
        <time>2016-02-14T10:16:05.000Z</time>
      </trkpt>
      <trkpt lat="47.48948" lon="6.77321">
        <ele>311</ele>
        <time>2016-02-14T10:16:06.000Z</time>
      </trkpt>
      <trkpt lat="47.48954" lon="6.77322">
        <ele>311</ele>
        <time>2016-02-14T10:16:07.000Z</time>
      </trkpt>
      <trkpt lat="47.48959" lon="6.77323">
        <ele>311</ele>
        <time>2016-02-14T10:16:08.000Z</time>
      </trkpt>
      <trkpt lat="47.48964" lon="6.77323">
        <ele>311</ele>
        <time>2016-02-14T10:16:09.000Z</time>
      </trkpt>
      <trkpt lat="47.4897" lon="6.77323">
        <ele>311</ele>
        <time>2016-02-14T10:16:10.000Z</time>
      </trkpt>
      <trkpt lat="47.48976" lon="6.77323">
        <ele>311</ele>
        <time>2016-02-14T10:16:11.000Z</time>
      </trkpt>
      <trkpt lat="47.48981" lon="6.77324">
        <ele>311</ele>
        <time>2016-02-14T10:16:12.000Z</time>
      </trkpt>
      <trkpt lat="47.48986" lon="6.77324">
        <ele>311</ele>
        <time>2016-02-14T10:16:13.000Z</time>
      </trkpt>
      <trkpt lat="47.48991" lon="6.77324">
        <ele>311</ele>
        <time>2016-02-14T10:16:14.000Z</time>
      </trkpt>
      <trkpt lat="47.48997" lon="6.77324">
        <ele>311</ele>
        <time>2016-02-14T10:16:15.000Z</time>
      </trkpt>
      <trkpt lat="47.49002" lon="6.77325">
        <ele>311</ele>
        <time>2016-02-14T10:16:16.000Z</time>
      </trkpt>
      <trkpt lat="47.49007" lon="6.77324">
        <ele>311</ele>
        <time>2016-02-14T10:16:17.000Z</time>
      </trkpt>
      <trkpt lat="47.49013" lon="6.77324">
        <ele>311</ele>
        <time>2016-02-14T10:16:18.000Z</time>
      </trkpt>
      <trkpt lat="47.49018" lon="6.77326">
        <ele>311</ele>
        <time>2016-02-14T10:16:19.000Z</time>
      </trkpt>
      <trkpt lat="47.49023" lon="6.77326">
        <ele>311</ele>
        <time>2016-02-14T10:16:20.000Z</time>
      </trkpt>
      <trkpt lat="47.49028" lon="6.77327">
        <ele>311</ele>
        <time>2016-02-14T10:16:21.000Z</time>
      </trkpt>
      <trkpt lat="47.49034" lon="6.77326">
        <ele>311</ele>
        <time>2016-02-14T10:16:22.000Z</time>
      </trkpt>
      <trkpt lat="47.4904" lon="6.77328">
        <ele>311</ele>
        <time>2016-02-14T10:16:23.000Z</time>
      </trkpt>
      <trkpt lat="47.49044" lon="6.77329">
        <ele>311</ele>
        <time>2016-02-14T10:16:24.000Z</time>
      </trkpt>
      <trkpt lat="47.49048" lon="6.77329">
        <ele>311</ele>
        <time>2016-02-14T10:16:25.000Z</time>
      </trkpt>
      <trkpt lat="47.49054" lon="6.7733">
        <ele>311</ele>
        <time>2016-02-14T10:16:26.000Z</time>
      </trkpt>
      <trkpt lat="47.49059" lon="6.77331">
        <ele>311</ele>
        <time>2016-02-14T10:16:27.000Z</time>
      </trkpt>
      <trkpt lat="47.49065" lon="6.77331">
        <ele>311</ele>
        <time>2016-02-14T10:16:28.000Z</time>
      </trkpt>
      <trkpt lat="47.49069" lon="6.77331">
        <ele>311</ele>
        <time>2016-02-14T10:16:29.000Z</time>
      </trkpt>
      <trkpt lat="47.49073" lon="6.7733">
        <ele>311</ele>
        <time>2016-02-14T10:16:30.000Z</time>
      </trkpt>
      <trkpt lat="47.49077" lon="6.77331">
        <ele>311</ele>
        <time>2016-02-14T10:16:31.000Z</time>
      </trkpt>
      <trkpt lat="47.49082" lon="6.77331">
        <ele>311</ele>
        <time>2016-02-14T10:16:32.000Z</time>
      </trkpt>
      <trkpt lat="47.49087" lon="6.77331">
        <ele>311</ele>
        <time>2016-02-14T10:16:33.000Z</time>
      </trkpt>
      <trkpt lat="47.49091" lon="6.77331">
        <ele>311</ele>
        <time>2016-02-14T10:16:34.000Z</time>
      </trkpt>
      <trkpt lat="47.49096" lon="6.77331">
        <ele>311</ele>
        <time>2016-02-14T10:16:35.000Z</time>
      </trkpt>
      <trkpt lat="47.491" lon="6.77331">
        <ele>311</ele>
        <time>2016-02-14T10:16:36.000Z</time>
      </trkpt>
      <trkpt lat="47.49106" lon="6.77331">
        <ele>311</ele>
        <time>2016-02-14T10:16:37.000Z</time>
      </trkpt>
      <trkpt lat="47.4911" lon="6.77331">
        <ele>311</ele>
        <time>2016-02-14T10:16:38.000Z</time>
      </trkpt>
      <trkpt lat="47.49116" lon="6.77333">
        <ele>311</ele>
        <time>2016-02-14T10:16:39.000Z</time>
      </trkpt>
      <trkpt lat="47.49121" lon="6.77333">
        <ele>311</ele>
        <time>2016-02-14T10:16:40.000Z</time>
      </trkpt>
      <trkpt lat="47.49126" lon="6.77333">
        <ele>311</ele>
        <time>2016-02-14T10:16:41.000Z</time>
      </trkpt>
      <trkpt lat="47.49131" lon="6.77334">
        <ele>310</ele>
        <time>2016-02-14T10:16:42.000Z</time>
      </trkpt>
      <trkpt lat="47.49136" lon="6.77333">
        <ele>310</ele>
        <time>2016-02-14T10:16:43.000Z</time>
      </trkpt>
      <trkpt lat="47.49139" lon="6.77334">
        <ele>310</ele>
        <time>2016-02-14T10:16:44.000Z</time>
      </trkpt>
      <trkpt lat="47.49144" lon="6.77334">
        <ele>310</ele>
        <time>2016-02-14T10:16:45.000Z</time>
      </trkpt>
      <trkpt lat="47.49148" lon="6.77334">
        <ele>310</ele>
        <time>2016-02-14T10:16:46.000Z</time>
      </trkpt>
      <trkpt lat="47.49152" lon="6.77334">
        <ele>310</ele>
        <time>2016-02-14T10:16:47.000Z</time>
      </trkpt>
      <trkpt lat="47.49156" lon="6.77335">
        <ele>310</ele>
        <time>2016-02-14T10:16:48.000Z</time>
      </trkpt>
      <trkpt lat="47.49159" lon="6.77334">
        <ele>310</ele>
        <time>2016-02-14T10:16:49.000Z</time>
      </trkpt>
      <trkpt lat="47.49163" lon="6.77335">
        <ele>310</ele>
        <time>2016-02-14T10:16:50.000Z</time>
      </trkpt>
      <trkpt lat="47.49167" lon="6.77335">
        <ele>310</ele>
        <time>2016-02-14T10:16:51.000Z</time>
      </trkpt>
      <trkpt lat="47.49171" lon="6.77334">
        <ele>310</ele>
        <time>2016-02-14T10:16:52.000Z</time>
      </trkpt>
      <trkpt lat="47.49176" lon="6.77334">
        <ele>310</ele>
        <time>2016-02-14T10:16:53.000Z</time>
      </trkpt>
      <trkpt lat="47.49181" lon="6.77334">
        <ele>310</ele>
        <time>2016-02-14T10:16:54.000Z</time>
      </trkpt>
      <trkpt lat="47.49187" lon="6.77334">
        <ele>310</ele>
        <time>2016-02-14T10:16:55.000Z</time>
      </trkpt>
      <trkpt lat="47.49192" lon="6.77334">
        <ele>309</ele>
        <time>2016-02-14T10:16:56.000Z</time>
      </trkpt>
      <trkpt lat="47.49198" lon="6.77335">
        <ele>309</ele>
        <time>2016-02-14T10:16:57.000Z</time>
      </trkpt>
      <trkpt lat="47.49204" lon="6.77335">
        <ele>309</ele>
        <time>2016-02-14T10:16:58.000Z</time>
      </trkpt>
      <trkpt lat="47.4921" lon="6.77336">
        <ele>309</ele>
        <time>2016-02-14T10:16:59.000Z</time>
      </trkpt>
      <trkpt lat="47.49215" lon="6.77337">
        <ele>309</ele>
        <time>2016-02-14T10:17:00.000Z</time>
      </trkpt>
      <trkpt lat="47.49221" lon="6.77337">
        <ele>309</ele>
        <time>2016-02-14T10:17:01.000Z</time>
      </trkpt>
      <trkpt lat="47.49227" lon="6.77338">
        <ele>309</ele>
        <time>2016-02-14T10:17:02.000Z</time>
      </trkpt>
      <trkpt lat="47.49232" lon="6.77338">
        <ele>310</ele>
        <time>2016-02-14T10:17:03.000Z</time>
      </trkpt>
      <trkpt lat="47.49238" lon="6.77338">
        <ele>310</ele>
        <time>2016-02-14T10:17:04.000Z</time>
      </trkpt>
      <trkpt lat="47.49243" lon="6.77338">
        <ele>310</ele>
        <time>2016-02-14T10:17:05.000Z</time>
      </trkpt>
      <trkpt lat="47.49247" lon="6.77337">
        <ele>310</ele>
        <time>2016-02-14T10:17:06.000Z</time>
      </trkpt>
      <trkpt lat="47.4925" lon="6.77336">
        <ele>310</ele>
        <time>2016-02-14T10:17:07.000Z</time>
      </trkpt>
      <trkpt lat="47.49251" lon="6.77331">
        <ele>310</ele>
        <time>2016-02-14T10:18:36.000Z</time>
      </trkpt>
      <trkpt lat="47.49253" lon="6.77329">
        <ele>310</ele>
        <time>2016-02-14T10:18:37.000Z</time>
      </trkpt>
      <trkpt lat="47.49256" lon="6.77326">
        <ele>310</ele>
        <time>2016-02-14T10:18:39.000Z</time>
      </trkpt>
      <trkpt lat="47.49258" lon="6.77324">
        <ele>310</ele>
        <time>2016-02-14T10:18:40.000Z</time>
      </trkpt>
      <trkpt lat="47.4926" lon="6.77322">
        <ele>310</ele>
        <time>2016-02-14T10:18:41.000Z</time>
      </trkpt>
      <trkpt lat="47.49264" lon="6.7732">
        <ele>310</ele>
        <time>2016-02-14T10:18:42.000Z</time>
      </trkpt>
      <trkpt lat="47.49268" lon="6.77319">
        <ele>310</ele>
        <time>2016-02-14T10:18:43.000Z</time>
      </trkpt>
      <trkpt lat="47.49272" lon="6.77319">
        <ele>310</ele>
        <time>2016-02-14T10:18:44.000Z</time>
      </trkpt>
      <trkpt lat="47.4928" lon="6.77322">
        <ele>310</ele>
        <time>2016-02-14T10:18:45.000Z</time>
      </trkpt>
      <trkpt lat="47.49285" lon="6.77323">
        <ele>310</ele>
        <time>2016-02-14T10:18:46.000Z</time>
      </trkpt>
      <trkpt lat="47.49289" lon="6.77324">
        <ele>311</ele>
        <time>2016-02-14T10:18:47.000Z</time>
      </trkpt>
      <trkpt lat="47.49296" lon="6.77324">
        <ele>311</ele>
        <time>2016-02-14T10:18:48.000Z</time>
      </trkpt>
      <trkpt lat="47.49301" lon="6.77325">
        <ele>310</ele>
        <time>2016-02-14T10:18:49.000Z</time>
      </trkpt>
      <trkpt lat="47.49307" lon="6.77326">
        <ele>310</ele>
        <time>2016-02-14T10:18:50.000Z</time>
      </trkpt>
      <trkpt lat="47.49313" lon="6.77327">
        <ele>310</ele>
        <time>2016-02-14T10:18:51.000Z</time>
      </trkpt>
      <trkpt lat="47.49318" lon="6.77328">
        <ele>310</ele>
        <time>2016-02-14T10:18:52.000Z</time>
      </trkpt>
      <trkpt lat="47.49322" lon="6.7733">
        <ele>310</ele>
        <time>2016-02-14T10:18:53.000Z</time>
      </trkpt>
      <trkpt lat="47.49327" lon="6.77334">
        <ele>310</ele>
        <time>2016-02-14T10:18:54.000Z</time>
      </trkpt>
      <trkpt lat="47.4933" lon="6.77336">
        <ele>310</ele>
        <time>2016-02-14T10:18:55.000Z</time>
      </trkpt>
      <trkpt lat="47.49335" lon="6.77341">
        <ele>310</ele>
        <time>2016-02-14T10:18:56.000Z</time>
      </trkpt>
      <trkpt lat="47.49341" lon="6.77344">
        <ele>310</ele>
        <time>2016-02-14T10:18:57.000Z</time>
      </trkpt>
      <trkpt lat="47.49346" lon="6.77344">
        <ele>310</ele>
        <time>2016-02-14T10:18:58.000Z</time>
      </trkpt>
      <trkpt lat="47.49351" lon="6.77345">
        <ele>310</ele>
        <time>2016-02-14T10:18:59.000Z</time>
      </trkpt>
      <trkpt lat="47.49356" lon="6.77345">
        <ele>310</ele>
        <time>2016-02-14T10:19:00.000Z</time>
      </trkpt>
      <trkpt lat="47.49361" lon="6.77345">
        <ele>310</ele>
        <time>2016-02-14T10:19:01.000Z</time>
      </trkpt>
      <trkpt lat="47.49367" lon="6.77345">
        <ele>310</ele>
        <time>2016-02-14T10:19:02.000Z</time>
      </trkpt>
      <trkpt lat="47.49373" lon="6.77346">
        <ele>310</ele>
        <time>2016-02-14T10:19:03.000Z</time>
      </trkpt>
      <trkpt lat="47.49379" lon="6.77346">
        <ele>310</ele>
        <time>2016-02-14T10:19:04.000Z</time>
      </trkpt>
      <trkpt lat="47.49385" lon="6.77346">
        <ele>310</ele>
        <time>2016-02-14T10:19:05.000Z</time>
      </trkpt>
      <trkpt lat="47.4939" lon="6.77347">
        <ele>310</ele>
        <time>2016-02-14T10:19:06.000Z</time>
      </trkpt>
      <trkpt lat="47.49396" lon="6.77347">
        <ele>310</ele>
        <time>2016-02-14T10:19:07.000Z</time>
      </trkpt>
      <trkpt lat="47.49402" lon="6.77348">
        <ele>310</ele>
        <time>2016-02-14T10:19:08.000Z</time>
      </trkpt>
      <trkpt lat="47.49407" lon="6.77349">
        <ele>311</ele>
        <time>2016-02-14T10:19:09.000Z</time>
      </trkpt>
      <trkpt lat="47.49413" lon="6.77348">
        <ele>311</ele>
        <time>2016-02-14T10:19:10.000Z</time>
      </trkpt>
      <trkpt lat="47.49418" lon="6.77349">
        <ele>311</ele>
        <time>2016-02-14T10:19:11.000Z</time>
      </trkpt>
      <trkpt lat="47.49424" lon="6.77349">
        <ele>311</ele>
        <time>2016-02-14T10:19:12.000Z</time>
      </trkpt>
      <trkpt lat="47.4943" lon="6.7735">
        <ele>311</ele>
        <time>2016-02-14T10:19:13.000Z</time>
      </trkpt>
      <trkpt lat="47.49435" lon="6.77351">
        <ele>311</ele>
        <time>2016-02-14T10:19:14.000Z</time>
      </trkpt>
      <trkpt lat="47.49441" lon="6.77351">
        <ele>311</ele>
        <time>2016-02-14T10:19:15.000Z</time>
      </trkpt>
      <trkpt lat="47.49446" lon="6.77351">
        <ele>311</ele>
        <time>2016-02-14T10:19:16.000Z</time>
      </trkpt>
      <trkpt lat="47.49452" lon="6.77351">
        <ele>311</ele>
        <time>2016-02-14T10:19:17.000Z</time>
      </trkpt>
      <trkpt lat="47.49457" lon="6.77351">
        <ele>311</ele>
        <time>2016-02-14T10:19:18.000Z</time>
      </trkpt>
      <trkpt lat="47.49463" lon="6.77352">
        <ele>311</ele>
        <time>2016-02-14T10:19:19.000Z</time>
      </trkpt>
      <trkpt lat="47.49468" lon="6.77353">
        <ele>311</ele>
        <time>2016-02-14T10:19:20.000Z</time>
      </trkpt>
      <trkpt lat="47.49474" lon="6.77353">
        <ele>311</ele>
        <time>2016-02-14T10:19:21.000Z</time>
      </trkpt>
      <trkpt lat="47.49479" lon="6.77354">
        <ele>311</ele>
        <time>2016-02-14T10:19:22.000Z</time>
      </trkpt>
      <trkpt lat="47.49485" lon="6.77354">
        <ele>311</ele>
        <time>2016-02-14T10:19:23.000Z</time>
      </trkpt>
      <trkpt lat="47.49491" lon="6.77355">
        <ele>312</ele>
        <time>2016-02-14T10:19:24.000Z</time>
      </trkpt>
      <trkpt lat="47.49496" lon="6.77355">
        <ele>312</ele>
        <time>2016-02-14T10:19:25.000Z</time>
      </trkpt>
      <trkpt lat="47.49502" lon="6.77355">
        <ele>312</ele>
        <time>2016-02-14T10:19:26.000Z</time>
      </trkpt>
      <trkpt lat="47.49508" lon="6.77355">
        <ele>312</ele>
        <time>2016-02-14T10:19:27.000Z</time>
      </trkpt>
      <trkpt lat="47.49514" lon="6.77356">
        <ele>312</ele>
        <time>2016-02-14T10:19:28.000Z</time>
      </trkpt>
      <trkpt lat="47.49519" lon="6.77357">
        <ele>312</ele>
        <time>2016-02-14T10:19:29.000Z</time>
      </trkpt>
      <trkpt lat="47.49525" lon="6.77357">
        <ele>312</ele>
        <time>2016-02-14T10:19:30.000Z</time>
      </trkpt>
      <trkpt lat="47.49531" lon="6.77356">
        <ele>312</ele>
        <time>2016-02-14T10:19:31.000Z</time>
      </trkpt>
      <trkpt lat="47.49537" lon="6.77357">
        <ele>312</ele>
        <time>2016-02-14T10:19:32.000Z</time>
      </trkpt>
      <trkpt lat="47.49542" lon="6.77358">
        <ele>312</ele>
        <time>2016-02-14T10:19:33.000Z</time>
      </trkpt>
      <trkpt lat="47.49548" lon="6.77358">
        <ele>312</ele>
        <time>2016-02-14T10:19:34.000Z</time>
      </trkpt>
      <trkpt lat="47.49553" lon="6.77358">
        <ele>312</ele>
        <time>2016-02-14T10:19:35.000Z</time>
      </trkpt>
      <trkpt lat="47.49558" lon="6.77359">
        <ele>312</ele>
        <time>2016-02-14T10:19:36.000Z</time>
      </trkpt>
      <trkpt lat="47.49563" lon="6.77359">
        <ele>312</ele>
        <time>2016-02-14T10:19:37.000Z</time>
      </trkpt>
      <trkpt lat="47.49568" lon="6.77359">
        <ele>313</ele>
        <time>2016-02-14T10:19:38.000Z</time>
      </trkpt>
      <trkpt lat="47.49573" lon="6.7736">
        <ele>313</ele>
        <time>2016-02-14T10:19:39.000Z</time>
      </trkpt>
      <trkpt lat="47.49578" lon="6.7736">
        <ele>313</ele>
        <time>2016-02-14T10:19:40.000Z</time>
      </trkpt>
      <trkpt lat="47.49583" lon="6.7736">
        <ele>313</ele>
        <time>2016-02-14T10:19:41.000Z</time>
      </trkpt>
      <trkpt lat="47.49589" lon="6.77359">
        <ele>313</ele>
        <time>2016-02-14T10:19:42.000Z</time>
      </trkpt>
      <trkpt lat="47.49594" lon="6.77359">
        <ele>313</ele>
        <time>2016-02-14T10:19:43.000Z</time>
      </trkpt>
      <trkpt lat="47.49599" lon="6.77359">
        <ele>313</ele>
        <time>2016-02-14T10:19:44.000Z</time>
      </trkpt>
      <trkpt lat="47.49604" lon="6.77358">
        <ele>313</ele>
        <time>2016-02-14T10:19:45.000Z</time>
      </trkpt>
      <trkpt lat="47.49609" lon="6.77358">
        <ele>313</ele>
        <time>2016-02-14T10:19:46.000Z</time>
      </trkpt>
      <trkpt lat="47.49614" lon="6.77356">
        <ele>313</ele>
        <time>2016-02-14T10:19:47.000Z</time>
      </trkpt>
      <trkpt lat="47.49619" lon="6.77355">
        <ele>313</ele>
        <time>2016-02-14T10:19:48.000Z</time>
      </trkpt>
      <trkpt lat="47.49625" lon="6.77354">
        <ele>313</ele>
        <time>2016-02-14T10:19:49.000Z</time>
      </trkpt>
      <trkpt lat="47.49631" lon="6.77352">
        <ele>313</ele>
        <time>2016-02-14T10:19:50.000Z</time>
      </trkpt>
      <trkpt lat="47.49636" lon="6.7735">
        <ele>313</ele>
        <time>2016-02-14T10:19:51.000Z</time>
      </trkpt>
      <trkpt lat="47.49642" lon="6.77348">
        <ele>313</ele>
        <time>2016-02-14T10:19:52.000Z</time>
      </trkpt>
      <trkpt lat="47.49647" lon="6.77346">
        <ele>313</ele>
        <time>2016-02-14T10:19:53.000Z</time>
      </trkpt>
      <trkpt lat="47.49651" lon="6.77345">
        <ele>313</ele>
        <time>2016-02-14T10:19:54.000Z</time>
      </trkpt>
      <trkpt lat="47.49656" lon="6.77343">
        <ele>313</ele>
        <time>2016-02-14T10:19:55.000Z</time>
      </trkpt>
      <trkpt lat="47.4966" lon="6.77342">
        <ele>314</ele>
        <time>2016-02-14T10:19:56.000Z</time>
      </trkpt>
      <trkpt lat="47.49665" lon="6.7734">
        <ele>314</ele>
        <time>2016-02-14T10:19:57.000Z</time>
      </trkpt>
      <trkpt lat="47.4967" lon="6.77339">
        <ele>314</ele>
        <time>2016-02-14T10:19:58.000Z</time>
      </trkpt>
      <trkpt lat="47.49674" lon="6.77338">
        <ele>313</ele>
        <time>2016-02-14T10:19:59.000Z</time>
      </trkpt>
      <trkpt lat="47.49678" lon="6.77337">
        <ele>313</ele>
        <time>2016-02-14T10:20:00.000Z</time>
      </trkpt>
      <trkpt lat="47.49681" lon="6.77336">
        <ele>313</ele>
        <time>2016-02-14T10:20:01.000Z</time>
      </trkpt>
      <trkpt lat="47.49684" lon="6.77335">
        <ele>313</ele>
        <time>2016-02-14T10:20:02.000Z</time>
      </trkpt>
      <trkpt lat="47.49688" lon="6.77334">
        <ele>313</ele>
        <time>2016-02-14T10:20:03.000Z</time>
      </trkpt>
      <trkpt lat="47.49692" lon="6.77333">
        <ele>315</ele>
        <time>2016-02-14T10:20:04.000Z</time>
      </trkpt>
      <trkpt lat="47.49697" lon="6.77333">
        <ele>315</ele>
        <time>2016-02-14T10:20:05.000Z</time>
      </trkpt>
      <trkpt lat="47.49702" lon="6.77332">
        <ele>315</ele>
        <time>2016-02-14T10:20:06.000Z</time>
      </trkpt>
      <trkpt lat="47.49706" lon="6.77331">
        <ele>315</ele>
        <time>2016-02-14T10:20:07.000Z</time>
      </trkpt>
      <trkpt lat="47.4971" lon="6.7733">
        <ele>315</ele>
        <time>2016-02-14T10:20:08.000Z</time>
      </trkpt>
      <trkpt lat="47.49713" lon="6.7733">
        <ele>315</ele>
        <time>2016-02-14T10:20:09.000Z</time>
      </trkpt>
      <trkpt lat="47.49717" lon="6.77329">
        <ele>315</ele>
        <time>2016-02-14T10:20:10.000Z</time>
      </trkpt>
      <trkpt lat="47.4972" lon="6.77328">
        <ele>314</ele>
        <time>2016-02-14T10:20:11.000Z</time>
      </trkpt>
      <trkpt lat="47.49723" lon="6.77327">
        <ele>314</ele>
        <time>2016-02-14T10:20:12.000Z</time>
      </trkpt>
      <trkpt lat="47.49725" lon="6.77326">
        <ele>314</ele>
        <time>2016-02-14T10:20:13.000Z</time>
      </trkpt>
      <trkpt lat="47.49728" lon="6.77324">
        <ele>314</ele>
        <time>2016-02-14T10:20:14.000Z</time>
      </trkpt>
      <trkpt lat="47.4973" lon="6.77322">
        <ele>314</ele>
        <time>2016-02-14T10:20:15.000Z</time>
      </trkpt>
      <trkpt lat="47.49733" lon="6.7732">
        <ele>314</ele>
        <time>2016-02-14T10:20:16.000Z</time>
      </trkpt>
      <trkpt lat="47.49735" lon="6.77318">
        <ele>314</ele>
        <time>2016-02-14T10:20:17.000Z</time>
      </trkpt>
      <trkpt lat="47.49738" lon="6.77316">
        <ele>314</ele>
        <time>2016-02-14T10:20:18.000Z</time>
      </trkpt>
      <trkpt lat="47.49741" lon="6.77314">
        <ele>314</ele>
        <time>2016-02-14T10:20:19.000Z</time>
      </trkpt>
      <trkpt lat="47.49745" lon="6.77312">
        <ele>314</ele>
        <time>2016-02-14T10:20:20.000Z</time>
      </trkpt>
      <trkpt lat="47.49749" lon="6.7731">
        <ele>315</ele>
        <time>2016-02-14T10:20:21.000Z</time>
      </trkpt>
      <trkpt lat="47.49753" lon="6.77309">
        <ele>316</ele>
        <time>2016-02-14T10:20:22.000Z</time>
      </trkpt>
      <trkpt lat="47.49758" lon="6.77308">
        <ele>316</ele>
        <time>2016-02-14T10:20:23.000Z</time>
      </trkpt>
      <trkpt lat="47.49763" lon="6.77307">
        <ele>316</ele>
        <time>2016-02-14T10:20:24.000Z</time>
      </trkpt>
      <trkpt lat="47.49772" lon="6.77307">
        <ele>316</ele>
        <time>2016-02-14T10:20:25.000Z</time>
      </trkpt>
      <trkpt lat="47.49776" lon="6.77307">
        <ele>317</ele>
        <time>2016-02-14T10:20:26.000Z</time>
      </trkpt>
      <trkpt lat="47.49781" lon="6.77307">
        <ele>317</ele>
        <time>2016-02-14T10:20:27.000Z</time>
      </trkpt>
      <trkpt lat="47.49786" lon="6.77307">
        <ele>317</ele>
        <time>2016-02-14T10:20:28.000Z</time>
      </trkpt>
      <trkpt lat="47.4979" lon="6.77306">
        <ele>317</ele>
        <time>2016-02-14T10:20:29.000Z</time>
      </trkpt>
      <trkpt lat="47.49795" lon="6.77304">
        <ele>317</ele>
        <time>2016-02-14T10:20:30.000Z</time>
      </trkpt>
      <trkpt lat="47.498" lon="6.77303">
        <ele>317</ele>
        <time>2016-02-14T10:20:31.000Z</time>
      </trkpt>
      <trkpt lat="47.49804" lon="6.77303">
        <ele>317</ele>
        <time>2016-02-14T10:20:32.000Z</time>
      </trkpt>
      <trkpt lat="47.49809" lon="6.77302">
        <ele>317</ele>
        <time>2016-02-14T10:20:33.000Z</time>
      </trkpt>
      <trkpt lat="47.49813" lon="6.773">
        <ele>318</ele>
        <time>2016-02-14T10:20:34.000Z</time>
      </trkpt>
      <trkpt lat="47.49818" lon="6.77299">
        <ele>318</ele>
        <time>2016-02-14T10:20:35.000Z</time>
      </trkpt>
      <trkpt lat="47.49823" lon="6.77295">
        <ele>318</ele>
        <time>2016-02-14T10:20:36.000Z</time>
      </trkpt>
      <trkpt lat="47.49827" lon="6.77292">
        <ele>318</ele>
        <time>2016-02-14T10:20:37.000Z</time>
      </trkpt>
      <trkpt lat="47.49833" lon="6.77292">
        <ele>319</ele>
        <time>2016-02-14T10:20:38.000Z</time>
      </trkpt>
      <trkpt lat="47.49839" lon="6.77292">
        <ele>319</ele>
        <time>2016-02-14T10:20:39.000Z</time>
      </trkpt>
      <trkpt lat="47.49843" lon="6.77291">
        <ele>319</ele>
        <time>2016-02-14T10:20:40.000Z</time>
      </trkpt>
      <trkpt lat="47.49847" lon="6.7729">
        <ele>319</ele>
        <time>2016-02-14T10:20:41.000Z</time>
      </trkpt>
      <trkpt lat="47.49851" lon="6.77289">
        <ele>320</ele>
        <time>2016-02-14T10:20:42.000Z</time>
      </trkpt>
      <trkpt lat="47.49854" lon="6.7729">
        <ele>319</ele>
        <time>2016-02-14T10:20:43.000Z</time>
      </trkpt>
      <trkpt lat="47.49857" lon="6.7729">
        <ele>319</ele>
        <time>2016-02-14T10:20:44.000Z</time>
      </trkpt>
      <trkpt lat="47.49861" lon="6.77291">
        <ele>319</ele>
        <time>2016-02-14T10:20:45.000Z</time>
      </trkpt>
      <trkpt lat="47.49866" lon="6.7729">
        <ele>319</ele>
        <time>2016-02-14T10:20:46.000Z</time>
      </trkpt>
      <trkpt lat="47.49869" lon="6.7729">
        <ele>319</ele>
        <time>2016-02-14T10:20:47.000Z</time>
      </trkpt>
      <trkpt lat="47.49874" lon="6.77285">
        <ele>320</ele>
        <time>2016-02-14T10:20:48.000Z</time>
      </trkpt>
      <trkpt lat="47.49878" lon="6.77284">
        <ele>320</ele>
        <time>2016-02-14T10:20:49.000Z</time>
      </trkpt>
      <trkpt lat="47.49882" lon="6.77282">
        <ele>320</ele>
        <time>2016-02-14T10:20:50.000Z</time>
      </trkpt>
      <trkpt lat="47.49886" lon="6.7728">
        <ele>320</ele>
        <time>2016-02-14T10:20:51.000Z</time>
      </trkpt>
      <trkpt lat="47.4989" lon="6.77279">
        <ele>320</ele>
        <time>2016-02-14T10:20:52.000Z</time>
      </trkpt>
      <trkpt lat="47.49894" lon="6.77277">
        <ele>320</ele>
        <time>2016-02-14T10:20:53.000Z</time>
      </trkpt>
      <trkpt lat="47.49899" lon="6.77275">
        <ele>321</ele>
        <time>2016-02-14T10:20:54.000Z</time>
      </trkpt>
      <trkpt lat="47.49903" lon="6.77273">
        <ele>321</ele>
        <time>2016-02-14T10:20:55.000Z</time>
      </trkpt>
      <trkpt lat="47.49908" lon="6.77271">
        <ele>321</ele>
        <time>2016-02-14T10:20:56.000Z</time>
      </trkpt>
      <trkpt lat="47.49913" lon="6.77269">
        <ele>322</ele>
        <time>2016-02-14T10:20:57.000Z</time>
      </trkpt>
      <trkpt lat="47.49918" lon="6.77267">
        <ele>320</ele>
        <time>2016-02-14T10:20:58.000Z</time>
      </trkpt>
      <trkpt lat="47.49923" lon="6.77265">
        <ele>320</ele>
        <time>2016-02-14T10:20:59.000Z</time>
      </trkpt>
      <trkpt lat="47.49929" lon="6.77262">
        <ele>320</ele>
        <time>2016-02-14T10:21:00.000Z</time>
      </trkpt>
      <trkpt lat="47.49934" lon="6.7726">
        <ele>320</ele>
        <time>2016-02-14T10:21:01.000Z</time>
      </trkpt>
      <trkpt lat="47.49948" lon="6.77252">
        <ele>318</ele>
        <time>2016-02-14T10:21:02.000Z</time>
      </trkpt>
      <trkpt lat="47.49954" lon="6.77248">
        <ele>329</ele>
        <time>2016-02-14T10:21:03.000Z</time>
      </trkpt>
      <trkpt lat="47.4996" lon="6.77245">
        <ele>329</ele>
        <time>2016-02-14T10:21:04.000Z</time>
      </trkpt>
      <trkpt lat="47.49966" lon="6.77243">
        <ele>329</ele>
        <time>2016-02-14T10:21:05.000Z</time>
      </trkpt>
      <trkpt lat="47.4997" lon="6.77241">
        <ele>328</ele>
        <time>2016-02-14T10:21:06.000Z</time>
      </trkpt>
      <trkpt lat="47.49976" lon="6.77239">
        <ele>328</ele>
        <time>2016-02-14T10:21:07.000Z</time>
      </trkpt>
      <trkpt lat="47.49981" lon="6.77237">
        <ele>327</ele>
        <time>2016-02-14T10:21:08.000Z</time>
      </trkpt>
      <trkpt lat="47.49985" lon="6.77235">
        <ele>327</ele>
        <time>2016-02-14T10:21:09.000Z</time>
      </trkpt>
      <trkpt lat="47.49991" lon="6.77233">
        <ele>326</ele>
        <time>2016-02-14T10:21:10.000Z</time>
      </trkpt>
      <trkpt lat="47.49996" lon="6.77231">
        <ele>327</ele>
        <time>2016-02-14T10:21:11.000Z</time>
      </trkpt>
      <trkpt lat="47.5" lon="6.77229">
        <ele>325</ele>
        <time>2016-02-14T10:21:12.000Z</time>
      </trkpt>
      <trkpt lat="47.50004" lon="6.77227">
        <ele>326</ele>
        <time>2016-02-14T10:21:13.000Z</time>
      </trkpt>
      <trkpt lat="47.50008" lon="6.77225">
        <ele>326</ele>
        <time>2016-02-14T10:21:14.000Z</time>
      </trkpt>
      <trkpt lat="47.50013" lon="6.77223">
        <ele>327</ele>
        <time>2016-02-14T10:21:15.000Z</time>
      </trkpt>
      <trkpt lat="47.50018" lon="6.77221">
        <ele>328</ele>
        <time>2016-02-14T10:21:16.000Z</time>
      </trkpt>
      <trkpt lat="47.50029" lon="6.77217">
        <ele>329</ele>
        <time>2016-02-14T10:21:17.000Z</time>
      </trkpt>
      <trkpt lat="47.50035" lon="6.77215">
        <ele>329</ele>
        <time>2016-02-14T10:21:18.000Z</time>
      </trkpt>
      <trkpt lat="47.5004" lon="6.77213">
        <ele>329</ele>
        <time>2016-02-14T10:21:19.000Z</time>
      </trkpt>
      <trkpt lat="47.50045" lon="6.77212">
        <ele>329</ele>
        <time>2016-02-14T10:21:20.000Z</time>
      </trkpt>
      <trkpt lat="47.50052" lon="6.77211">
        <ele>329</ele>
        <time>2016-02-14T10:21:21.000Z</time>
      </trkpt>
      <trkpt lat="47.50057" lon="6.77209">
        <ele>329</ele>
        <time>2016-02-14T10:21:22.000Z</time>
      </trkpt>
      <trkpt lat="47.50062" lon="6.77208">
        <ele>329</ele>
        <time>2016-02-14T10:21:23.000Z</time>
      </trkpt>
      <trkpt lat="47.50068" lon="6.77205">
        <ele>330</ele>
        <time>2016-02-14T10:21:24.000Z</time>
      </trkpt>
      <trkpt lat="47.50072" lon="6.77203">
        <ele>330</ele>
        <time>2016-02-14T10:21:25.000Z</time>
      </trkpt>
      <trkpt lat="47.50078" lon="6.77201">
        <ele>331</ele>
        <time>2016-02-14T10:21:26.000Z</time>
      </trkpt>
      <trkpt lat="47.50083" lon="6.772">
        <ele>331</ele>
        <time>2016-02-14T10:21:27.000Z</time>
      </trkpt>
      <trkpt lat="47.50088" lon="6.772">
        <ele>326</ele>
        <time>2016-02-14T10:21:28.000Z</time>
      </trkpt>
      <trkpt lat="47.50093" lon="6.772">
        <ele>326</ele>
        <time>2016-02-14T10:21:29.000Z</time>
      </trkpt>
      <trkpt lat="47.501" lon="6.77201">
        <ele>325</ele>
        <time>2016-02-14T10:21:30.000Z</time>
      </trkpt>
      <trkpt lat="47.50107" lon="6.77202">
        <ele>325</ele>
        <time>2016-02-14T10:21:31.000Z</time>
      </trkpt>
      <trkpt lat="47.50114" lon="6.77203">
        <ele>324</ele>
        <time>2016-02-14T10:21:32.000Z</time>
      </trkpt>
      <trkpt lat="47.50122" lon="6.77203">
        <ele>323</ele>
        <time>2016-02-14T10:21:33.000Z</time>
      </trkpt>
      <trkpt lat="47.50129" lon="6.77204">
        <ele>323</ele>
        <time>2016-02-14T10:21:34.000Z</time>
      </trkpt>
      <trkpt lat="47.50137" lon="6.77208">
        <ele>322</ele>
        <time>2016-02-14T10:21:35.000Z</time>
      </trkpt>
      <trkpt lat="47.50143" lon="6.77213">
        <ele>321</ele>
        <time>2016-02-14T10:21:36.000Z</time>
      </trkpt>
      <trkpt lat="47.50149" lon="6.77217">
        <ele>321</ele>
        <time>2016-02-14T10:21:37.000Z</time>
      </trkpt>
      <trkpt lat="47.50155" lon="6.77222">
        <ele>320</ele>
        <time>2016-02-14T10:21:38.000Z</time>
      </trkpt>
      <trkpt lat="47.50161" lon="6.77227">
        <ele>319</ele>
        <time>2016-02-14T10:21:39.000Z</time>
      </trkpt>
      <trkpt lat="47.50166" lon="6.77231">
        <ele>318</ele>
        <time>2016-02-14T10:21:40.000Z</time>
      </trkpt>
      <trkpt lat="47.50172" lon="6.77235">
        <ele>315</ele>
        <time>2016-02-14T10:21:41.000Z</time>
      </trkpt>
      <trkpt lat="47.50176" lon="6.77239">
        <ele>315</ele>
        <time>2016-02-14T10:21:42.000Z</time>
      </trkpt>
      <trkpt lat="47.50182" lon="6.77243">
        <ele>315</ele>
        <time>2016-02-14T10:21:43.000Z</time>
      </trkpt>
      <trkpt lat="47.50188" lon="6.77249">
        <ele>315</ele>
        <time>2016-02-14T10:21:44.000Z</time>
      </trkpt>
      <trkpt lat="47.50193" lon="6.77253">
        <ele>313</ele>
        <time>2016-02-14T10:21:45.000Z</time>
      </trkpt>
      <trkpt lat="47.50198" lon="6.77257">
        <ele>313</ele>
        <time>2016-02-14T10:21:46.000Z</time>
      </trkpt>
      <trkpt lat="47.50203" lon="6.7726">
        <ele>313</ele>
        <time>2016-02-14T10:21:47.000Z</time>
      </trkpt>
      <trkpt lat="47.50208" lon="6.77264">
        <ele>313</ele>
        <time>2016-02-14T10:21:48.000Z</time>
      </trkpt>
      <trkpt lat="47.50213" lon="6.77267">
        <ele>313</ele>
        <time>2016-02-14T10:21:49.000Z</time>
      </trkpt>
      <trkpt lat="47.50219" lon="6.77271">
        <ele>313</ele>
        <time>2016-02-14T10:21:50.000Z</time>
      </trkpt>
      <trkpt lat="47.50224" lon="6.77273">
        <ele>313</ele>
        <time>2016-02-14T10:21:51.000Z</time>
      </trkpt>
      <trkpt lat="47.50227" lon="6.77275">
        <ele>313</ele>
        <time>2016-02-14T10:21:52.000Z</time>
      </trkpt>
      <trkpt lat="47.50232" lon="6.77279">
        <ele>313</ele>
        <time>2016-02-14T10:21:53.000Z</time>
      </trkpt>
      <trkpt lat="47.50237" lon="6.77283">
        <ele>313</ele>
        <time>2016-02-14T10:21:54.000Z</time>
      </trkpt>
      <trkpt lat="47.50241" lon="6.77288">
        <ele>313</ele>
        <time>2016-02-14T10:21:55.000Z</time>
      </trkpt>
      <trkpt lat="47.50246" lon="6.7729">
        <ele>313</ele>
        <time>2016-02-14T10:21:56.000Z</time>
      </trkpt>
      <trkpt lat="47.50251" lon="6.77294">
        <ele>313</ele>
        <time>2016-02-14T10:21:57.000Z</time>
      </trkpt>
      <trkpt lat="47.50255" lon="6.77297">
        <ele>313</ele>
        <time>2016-02-14T10:21:58.000Z</time>
      </trkpt>
      <trkpt lat="47.5026" lon="6.773">
        <ele>313</ele>
        <time>2016-02-14T10:21:59.000Z</time>
      </trkpt>
      <trkpt lat="47.50265" lon="6.77303">
        <ele>313</ele>
        <time>2016-02-14T10:22:00.000Z</time>
      </trkpt>
      <trkpt lat="47.5027" lon="6.77306">
        <ele>313</ele>
        <time>2016-02-14T10:22:01.000Z</time>
      </trkpt>
      <trkpt lat="47.50275" lon="6.77309">
        <ele>313</ele>
        <time>2016-02-14T10:22:02.000Z</time>
      </trkpt>
      <trkpt lat="47.5028" lon="6.77312">
        <ele>313</ele>
        <time>2016-02-14T10:22:03.000Z</time>
      </trkpt>
      <trkpt lat="47.50285" lon="6.77317">
        <ele>313</ele>
        <time>2016-02-14T10:22:04.000Z</time>
      </trkpt>
      <trkpt lat="47.5029" lon="6.7732">
        <ele>313</ele>
        <time>2016-02-14T10:22:05.000Z</time>
      </trkpt>
      <trkpt lat="47.50295" lon="6.77324">
        <ele>312</ele>
        <time>2016-02-14T10:22:06.000Z</time>
      </trkpt>
      <trkpt lat="47.50301" lon="6.7733">
        <ele>312</ele>
        <time>2016-02-14T10:22:07.000Z</time>
      </trkpt>
      <trkpt lat="47.50306" lon="6.77334">
        <ele>312</ele>
        <time>2016-02-14T10:22:08.000Z</time>
      </trkpt>
      <trkpt lat="47.50311" lon="6.77337">
        <ele>312</ele>
        <time>2016-02-14T10:22:09.000Z</time>
      </trkpt>
      <trkpt lat="47.50316" lon="6.77342">
        <ele>312</ele>
        <time>2016-02-14T10:22:10.000Z</time>
      </trkpt>
      <trkpt lat="47.50322" lon="6.77346">
        <ele>312</ele>
        <time>2016-02-14T10:22:11.000Z</time>
      </trkpt>
      <trkpt lat="47.50327" lon="6.77349">
        <ele>312</ele>
        <time>2016-02-14T10:22:12.000Z</time>
      </trkpt>
      <trkpt lat="47.50332" lon="6.77353">
        <ele>312</ele>
        <time>2016-02-14T10:22:13.000Z</time>
      </trkpt>
      <trkpt lat="47.5034" lon="6.77362">
        <ele>312</ele>
        <time>2016-02-14T10:22:14.000Z</time>
      </trkpt>
      <trkpt lat="47.50345" lon="6.77367">
        <ele>312</ele>
        <time>2016-02-14T10:22:15.000Z</time>
      </trkpt>
      <trkpt lat="47.50349" lon="6.7737">
        <ele>312</ele>
        <time>2016-02-14T10:22:16.000Z</time>
      </trkpt>
      <trkpt lat="47.50355" lon="6.77374">
        <ele>312</ele>
        <time>2016-02-14T10:22:17.000Z</time>
      </trkpt>
      <trkpt lat="47.50359" lon="6.77378">
        <ele>312</ele>
        <time>2016-02-14T10:22:18.000Z</time>
      </trkpt>
      <trkpt lat="47.50365" lon="6.77382">
        <ele>312</ele>
        <time>2016-02-14T10:22:19.000Z</time>
      </trkpt>
      <trkpt lat="47.5037" lon="6.77386">
        <ele>312</ele>
        <time>2016-02-14T10:22:20.000Z</time>
      </trkpt>
      <trkpt lat="47.50375" lon="6.7739">
        <ele>312</ele>
        <time>2016-02-14T10:22:21.000Z</time>
      </trkpt>
      <trkpt lat="47.5038" lon="6.77394">
        <ele>312</ele>
        <time>2016-02-14T10:22:22.000Z</time>
      </trkpt>
      <trkpt lat="47.50384" lon="6.77397">
        <ele>312</ele>
        <time>2016-02-14T10:22:23.000Z</time>
      </trkpt>
      <trkpt lat="47.50389" lon="6.77401">
        <ele>312</ele>
        <time>2016-02-14T10:22:24.000Z</time>
      </trkpt>
      <trkpt lat="47.50394" lon="6.77405">
        <ele>312</ele>
        <time>2016-02-14T10:22:25.000Z</time>
      </trkpt>
      <trkpt lat="47.50398" lon="6.77409">
        <ele>312</ele>
        <time>2016-02-14T10:22:26.000Z</time>
      </trkpt>
      <trkpt lat="47.50403" lon="6.77413">
        <ele>311</ele>
        <time>2016-02-14T10:22:27.000Z</time>
      </trkpt>
      <trkpt lat="47.50407" lon="6.77417">
        <ele>311</ele>
        <time>2016-02-14T10:22:28.000Z</time>
      </trkpt>
      <trkpt lat="47.50412" lon="6.77421">
        <ele>311</ele>
        <time>2016-02-14T10:22:29.000Z</time>
      </trkpt>
      <trkpt lat="47.50416" lon="6.77424">
        <ele>311</ele>
        <time>2016-02-14T10:22:30.000Z</time>
      </trkpt>
      <trkpt lat="47.50421" lon="6.77429">
        <ele>312</ele>
        <time>2016-02-14T10:22:31.000Z</time>
      </trkpt>
      <trkpt lat="47.50425" lon="6.77433">
        <ele>312</ele>
        <time>2016-02-14T10:22:32.000Z</time>
      </trkpt>
      <trkpt lat="47.50429" lon="6.77438">
        <ele>312</ele>
        <time>2016-02-14T10:22:33.000Z</time>
      </trkpt>
      <trkpt lat="47.50434" lon="6.77443">
        <ele>312</ele>
        <time>2016-02-14T10:22:34.000Z</time>
      </trkpt>
      <trkpt lat="47.5044" lon="6.77448">
        <ele>312</ele>
        <time>2016-02-14T10:22:35.000Z</time>
      </trkpt>
      <trkpt lat="47.50445" lon="6.77451">
        <ele>312</ele>
        <time>2016-02-14T10:22:36.000Z</time>
      </trkpt>
      <trkpt lat="47.50451" lon="6.77455">
        <ele>312</ele>
        <time>2016-02-14T10:22:37.000Z</time>
      </trkpt>
      <trkpt lat="47.50457" lon="6.77461">
        <ele>312</ele>
        <time>2016-02-14T10:22:38.000Z</time>
      </trkpt>
      <trkpt lat="47.50462" lon="6.77465">
        <ele>313</ele>
        <time>2016-02-14T10:22:39.000Z</time>
      </trkpt>
      <trkpt lat="47.50467" lon="6.77469">
        <ele>313</ele>
        <time>2016-02-14T10:22:40.000Z</time>
      </trkpt>
      <trkpt lat="47.50471" lon="6.77473">
        <ele>313</ele>
        <time>2016-02-14T10:22:41.000Z</time>
      </trkpt>
      <trkpt lat="47.50477" lon="6.77477">
        <ele>313</ele>
        <time>2016-02-14T10:22:42.000Z</time>
      </trkpt>
      <trkpt lat="47.50482" lon="6.77481">
        <ele>313</ele>
        <time>2016-02-14T10:22:43.000Z</time>
      </trkpt>
      <trkpt lat="47.50487" lon="6.77486">
        <ele>313</ele>
        <time>2016-02-14T10:22:44.000Z</time>
      </trkpt>
      <trkpt lat="47.50492" lon="6.7749">
        <ele>313</ele>
        <time>2016-02-14T10:22:45.000Z</time>
      </trkpt>
      <trkpt lat="47.50498" lon="6.77493">
        <ele>314</ele>
        <time>2016-02-14T10:22:46.000Z</time>
      </trkpt>
      <trkpt lat="47.50503" lon="6.77497">
        <ele>314</ele>
        <time>2016-02-14T10:22:47.000Z</time>
      </trkpt>
      <trkpt lat="47.50506" lon="6.77498">
        <ele>314</ele>
        <time>2016-02-14T10:22:48.000Z</time>
      </trkpt>
      <trkpt lat="47.5051" lon="6.77501">
        <ele>314</ele>
        <time>2016-02-14T10:22:49.000Z</time>
      </trkpt>
      <trkpt lat="47.50514" lon="6.77504">
        <ele>314</ele>
        <time>2016-02-14T10:22:50.000Z</time>
      </trkpt>
      <trkpt lat="47.50519" lon="6.77507">
        <ele>314</ele>
        <time>2016-02-14T10:22:51.000Z</time>
      </trkpt>
      <trkpt lat="47.50522" lon="6.77511">
        <ele>314</ele>
        <time>2016-02-14T10:22:52.000Z</time>
      </trkpt>
      <trkpt lat="47.50526" lon="6.77514">
        <ele>313</ele>
        <time>2016-02-14T10:22:53.000Z</time>
      </trkpt>
      <trkpt lat="47.50529" lon="6.77518">
        <ele>313</ele>
        <time>2016-02-14T10:22:54.000Z</time>
      </trkpt>
      <trkpt lat="47.50533" lon="6.77523">
        <ele>313</ele>
        <time>2016-02-14T10:22:55.000Z</time>
      </trkpt>
      <trkpt lat="47.50536" lon="6.77529">
        <ele>313</ele>
        <time>2016-02-14T10:22:56.000Z</time>
      </trkpt>
      <trkpt lat="47.50539" lon="6.77535">
        <ele>313</ele>
        <time>2016-02-14T10:22:57.000Z</time>
      </trkpt>
      <trkpt lat="47.50543" lon="6.77542">
        <ele>313</ele>
        <time>2016-02-14T10:22:58.000Z</time>
      </trkpt>
      <trkpt lat="47.50545" lon="6.77548">
        <ele>313</ele>
        <time>2016-02-14T10:22:59.000Z</time>
      </trkpt>
      <trkpt lat="47.50549" lon="6.77551">
        <ele>313</ele>
        <time>2016-02-14T10:23:00.000Z</time>
      </trkpt>
      <trkpt lat="47.50554" lon="6.77555">
        <ele>313</ele>
        <time>2016-02-14T10:23:01.000Z</time>
      </trkpt>
      <trkpt lat="47.50557" lon="6.77555">
        <ele>313</ele>
        <time>2016-02-14T10:23:02.000Z</time>
      </trkpt>
      <trkpt lat="47.50562" lon="6.77553">
        <ele>313</ele>
        <time>2016-02-14T10:23:03.000Z</time>
      </trkpt>
      <trkpt lat="47.50565" lon="6.7755">
        <ele>313</ele>
        <time>2016-02-14T10:23:04.000Z</time>
      </trkpt>
      <trkpt lat="47.50567" lon="6.77543">
        <ele>313</ele>
        <time>2016-02-14T10:23:05.000Z</time>
      </trkpt>
      <trkpt lat="47.50569" lon="6.77538">
        <ele>313</ele>
        <time>2016-02-14T10:23:06.000Z</time>
      </trkpt>
      <trkpt lat="47.50573" lon="6.77538">
        <ele>313</ele>
        <time>2016-02-14T10:23:07.000Z</time>
      </trkpt>
      <trkpt lat="47.50577" lon="6.77538">
        <ele>313</ele>
        <time>2016-02-14T10:23:08.000Z</time>
      </trkpt>
      <trkpt lat="47.50581" lon="6.77537">
        <ele>313</ele>
        <time>2016-02-14T10:23:09.000Z</time>
      </trkpt>
      <trkpt lat="47.50583" lon="6.77536">
        <ele>313</ele>
        <time>2016-02-14T10:23:10.000Z</time>
      </trkpt>
      <trkpt lat="47.50587" lon="6.77536">
        <ele>313</ele>
        <time>2016-02-14T10:23:11.000Z</time>
      </trkpt>
      <trkpt lat="47.5059" lon="6.77535">
        <ele>313</ele>
        <time>2016-02-14T10:23:12.000Z</time>
      </trkpt>
      <trkpt lat="47.50593" lon="6.77535">
        <ele>313</ele>
        <time>2016-02-14T10:23:13.000Z</time>
      </trkpt>
      <trkpt lat="47.50597" lon="6.77535">
        <ele>313</ele>
        <time>2016-02-14T10:23:14.000Z</time>
      </trkpt>
      <trkpt lat="47.50601" lon="6.77535">
        <ele>313</ele>
        <time>2016-02-14T10:23:15.000Z</time>
      </trkpt>
      <trkpt lat="47.50605" lon="6.77534">
        <ele>313</ele>
        <time>2016-02-14T10:23:16.000Z</time>
      </trkpt>
      <trkpt lat="47.5061" lon="6.77532">
        <ele>313</ele>
        <time>2016-02-14T10:23:17.000Z</time>
      </trkpt>
      <trkpt lat="47.50615" lon="6.7753">
        <ele>313</ele>
        <time>2016-02-14T10:23:18.000Z</time>
      </trkpt>
      <trkpt lat="47.50619" lon="6.77528">
        <ele>313</ele>
        <time>2016-02-14T10:23:19.000Z</time>
      </trkpt>
      <trkpt lat="47.50624" lon="6.77528">
        <ele>313</ele>
        <time>2016-02-14T10:23:20.000Z</time>
      </trkpt>
      <trkpt lat="47.50629" lon="6.77528">
        <ele>313</ele>
        <time>2016-02-14T10:23:21.000Z</time>
      </trkpt>
      <trkpt lat="47.50641" lon="6.77528">
        <ele>313</ele>
        <time>2016-02-14T10:23:22.000Z</time>
      </trkpt>
      <trkpt lat="47.50646" lon="6.77526">
        <ele>313</ele>
        <time>2016-02-14T10:23:23.000Z</time>
      </trkpt>
      <trkpt lat="47.50649" lon="6.77524">
        <ele>313</ele>
        <time>2016-02-14T10:23:24.000Z</time>
      </trkpt>
      <trkpt lat="47.50653" lon="6.77525">
        <ele>313</ele>
        <time>2016-02-14T10:23:25.000Z</time>
      </trkpt>
      <trkpt lat="47.5066" lon="6.77526">
        <ele>313</ele>
        <time>2016-02-14T10:23:26.000Z</time>
      </trkpt>
      <trkpt lat="47.50666" lon="6.77527">
        <ele>313</ele>
        <time>2016-02-14T10:23:27.000Z</time>
      </trkpt>
      <trkpt lat="47.50672" lon="6.77526">
        <ele>313</ele>
        <time>2016-02-14T10:23:28.000Z</time>
      </trkpt>
      <trkpt lat="47.50678" lon="6.77527">
        <ele>313</ele>
        <time>2016-02-14T10:23:29.000Z</time>
      </trkpt>
      <trkpt lat="47.50683" lon="6.77527">
        <ele>313</ele>
        <time>2016-02-14T10:23:30.000Z</time>
      </trkpt>
      <trkpt lat="47.50688" lon="6.77529">
        <ele>313</ele>
        <time>2016-02-14T10:23:31.000Z</time>
      </trkpt>
      <trkpt lat="47.50693" lon="6.77529">
        <ele>313</ele>
        <time>2016-02-14T10:23:32.000Z</time>
      </trkpt>
      <trkpt lat="47.507" lon="6.77531">
        <ele>313</ele>
        <time>2016-02-14T10:23:33.000Z</time>
      </trkpt>
      <trkpt lat="47.50705" lon="6.77534">
        <ele>313</ele>
        <time>2016-02-14T10:23:34.000Z</time>
      </trkpt>
      <trkpt lat="47.50711" lon="6.77538">
        <ele>313</ele>
        <time>2016-02-14T10:23:35.000Z</time>
      </trkpt>
      <trkpt lat="47.50716" lon="6.77542">
        <ele>313</ele>
        <time>2016-02-14T10:23:36.000Z</time>
      </trkpt>
      <trkpt lat="47.50719" lon="6.77548">
        <ele>313</ele>
        <time>2016-02-14T10:23:37.000Z</time>
      </trkpt>
      <trkpt lat="47.50722" lon="6.77552">
        <ele>313</ele>
        <time>2016-02-14T10:23:38.000Z</time>
      </trkpt>
      <trkpt lat="47.50725" lon="6.77556">
        <ele>313</ele>
        <time>2016-02-14T10:23:39.000Z</time>
      </trkpt>
      <trkpt lat="47.50728" lon="6.77559">
        <ele>313</ele>
        <time>2016-02-14T10:23:40.000Z</time>
      </trkpt>
      <trkpt lat="47.50733" lon="6.77563">
        <ele>313</ele>
        <time>2016-02-14T10:23:41.000Z</time>
      </trkpt>
      <trkpt lat="47.50735" lon="6.77566">
        <ele>313</ele>
        <time>2016-02-14T10:23:42.000Z</time>
      </trkpt>
      <trkpt lat="47.50738" lon="6.77569">
        <ele>313</ele>
        <time>2016-02-14T10:23:43.000Z</time>
      </trkpt>
      <trkpt lat="47.50742" lon="6.77573">
        <ele>313</ele>
        <time>2016-02-14T10:23:44.000Z</time>
      </trkpt>
      <trkpt lat="47.50746" lon="6.77575">
        <ele>313</ele>
        <time>2016-02-14T10:23:45.000Z</time>
      </trkpt>
      <trkpt lat="47.50749" lon="6.77578">
        <ele>313</ele>
        <time>2016-02-14T10:23:46.000Z</time>
      </trkpt>
      <trkpt lat="47.50753" lon="6.7758">
        <ele>313</ele>
        <time>2016-02-14T10:23:47.000Z</time>
      </trkpt>
      <trkpt lat="47.50757" lon="6.77583">
        <ele>313</ele>
        <time>2016-02-14T10:23:48.000Z</time>
      </trkpt>
      <trkpt lat="47.50761" lon="6.77586">
        <ele>314</ele>
        <time>2016-02-14T10:23:49.000Z</time>
      </trkpt>
      <trkpt lat="47.50765" lon="6.77588">
        <ele>314</ele>
        <time>2016-02-14T10:23:50.000Z</time>
      </trkpt>
      <trkpt lat="47.5077" lon="6.77591">
        <ele>314</ele>
        <time>2016-02-14T10:23:51.000Z</time>
      </trkpt>
      <trkpt lat="47.50775" lon="6.77595">
        <ele>314</ele>
        <time>2016-02-14T10:23:52.000Z</time>
      </trkpt>
      <trkpt lat="47.50781" lon="6.77598">
        <ele>315</ele>
        <time>2016-02-14T10:23:53.000Z</time>
      </trkpt>
      <trkpt lat="47.50786" lon="6.77602">
        <ele>315</ele>
        <time>2016-02-14T10:23:54.000Z</time>
      </trkpt>
      <trkpt lat="47.5079" lon="6.77605">
        <ele>315</ele>
        <time>2016-02-14T10:23:55.000Z</time>
      </trkpt>
      <trkpt lat="47.50795" lon="6.7761">
        <ele>315</ele>
        <time>2016-02-14T10:23:56.000Z</time>
      </trkpt>
      <trkpt lat="47.50799" lon="6.77613">
        <ele>315</ele>
        <time>2016-02-14T10:23:57.000Z</time>
      </trkpt>
      <trkpt lat="47.50803" lon="6.77616">
        <ele>315</ele>
        <time>2016-02-14T10:23:58.000Z</time>
      </trkpt>
      <trkpt lat="47.50807" lon="6.77619">
        <ele>315</ele>
        <time>2016-02-14T10:23:59.000Z</time>
      </trkpt>
      <trkpt lat="47.5081" lon="6.77621">
        <ele>315</ele>
        <time>2016-02-14T10:24:00.000Z</time>
      </trkpt>
      <trkpt lat="47.50813" lon="6.77624">
        <ele>315</ele>
        <time>2016-02-14T10:24:01.000Z</time>
      </trkpt>
      <trkpt lat="47.50816" lon="6.77627">
        <ele>316</ele>
        <time>2016-02-14T10:24:02.000Z</time>
      </trkpt>
      <trkpt lat="47.50819" lon="6.7763">
        <ele>316</ele>
        <time>2016-02-14T10:24:03.000Z</time>
      </trkpt>
      <trkpt lat="47.50821" lon="6.77634">
        <ele>316</ele>
        <time>2016-02-14T10:24:04.000Z</time>
      </trkpt>
      <trkpt lat="47.50825" lon="6.77639">
        <ele>316</ele>
        <time>2016-02-14T10:24:05.000Z</time>
      </trkpt>
      <trkpt lat="47.50828" lon="6.77643">
        <ele>316</ele>
        <time>2016-02-14T10:24:06.000Z</time>
      </trkpt>
      <trkpt lat="47.50832" lon="6.77648">
        <ele>316</ele>
        <time>2016-02-14T10:24:07.000Z</time>
      </trkpt>
      <trkpt lat="47.50836" lon="6.77653">
        <ele>317</ele>
        <time>2016-02-14T10:24:08.000Z</time>
      </trkpt>
      <trkpt lat="47.50839" lon="6.77658">
        <ele>317</ele>
        <time>2016-02-14T10:24:09.000Z</time>
      </trkpt>
      <trkpt lat="47.50843" lon="6.77663">
        <ele>317</ele>
        <time>2016-02-14T10:24:10.000Z</time>
      </trkpt>
      <trkpt lat="47.5085" lon="6.77676">
        <ele>316</ele>
        <time>2016-02-14T10:24:11.000Z</time>
      </trkpt>
      <trkpt lat="47.50854" lon="6.77681">
        <ele>316</ele>
        <time>2016-02-14T10:24:12.000Z</time>
      </trkpt>
      <trkpt lat="47.50858" lon="6.77689">
        <ele>316</ele>
        <time>2016-02-14T10:24:13.000Z</time>
      </trkpt>
      <trkpt lat="47.50864" lon="6.77695">
        <ele>316</ele>
        <time>2016-02-14T10:24:14.000Z</time>
      </trkpt>
      <trkpt lat="47.50866" lon="6.77696">
        <ele>316</ele>
        <time>2016-02-14T10:24:15.000Z</time>
      </trkpt>
      <trkpt lat="47.50872" lon="6.77698">
        <ele>316</ele>
        <time>2016-02-14T10:24:16.000Z</time>
      </trkpt>
      <trkpt lat="47.50878" lon="6.77697">
        <ele>316</ele>
        <time>2016-02-14T10:24:17.000Z</time>
      </trkpt>
      <trkpt lat="47.50883" lon="6.77698">
        <ele>316</ele>
        <time>2016-02-14T10:24:18.000Z</time>
      </trkpt>
      <trkpt lat="47.50888" lon="6.77698">
        <ele>316</ele>
        <time>2016-02-14T10:24:19.000Z</time>
      </trkpt>
      <trkpt lat="47.50892" lon="6.77698">
        <ele>316</ele>
        <time>2016-02-14T10:24:20.000Z</time>
      </trkpt>
      <trkpt lat="47.50896" lon="6.77697">
        <ele>316</ele>
        <time>2016-02-14T10:24:21.000Z</time>
      </trkpt>
      <trkpt lat="47.509" lon="6.77696">
        <ele>316</ele>
        <time>2016-02-14T10:24:22.000Z</time>
      </trkpt>
      <trkpt lat="47.50903" lon="6.77695">
        <ele>316</ele>
        <time>2016-02-14T10:24:23.000Z</time>
      </trkpt>
      <trkpt lat="47.50907" lon="6.77695">
        <ele>316</ele>
        <time>2016-02-14T10:24:24.000Z</time>
      </trkpt>
      <trkpt lat="47.50909" lon="6.77694">
        <ele>316</ele>
        <time>2016-02-14T10:24:25.000Z</time>
      </trkpt>
      <trkpt lat="47.50911" lon="6.77695">
        <ele>316</ele>
        <time>2016-02-14T10:24:26.000Z</time>
      </trkpt>
      <trkpt lat="47.50914" lon="6.77695">
        <ele>316</ele>
        <time>2016-02-14T10:24:27.000Z</time>
      </trkpt>
      <trkpt lat="47.50917" lon="6.77695">
        <ele>315</ele>
        <time>2016-02-14T10:24:28.000Z</time>
      </trkpt>
      <trkpt lat="47.50919" lon="6.77696">
        <ele>315</ele>
        <time>2016-02-14T10:24:29.000Z</time>
      </trkpt>
      <trkpt lat="47.50922" lon="6.77696">
        <ele>315</ele>
        <time>2016-02-14T10:24:30.000Z</time>
      </trkpt>
      <trkpt lat="47.50926" lon="6.77697">
        <ele>315</ele>
        <time>2016-02-14T10:24:35.000Z</time>
      </trkpt>
      <trkpt lat="47.50926" lon="6.77698">
        <ele>315</ele>
        <time>2016-02-14T10:24:36.000Z</time>
      </trkpt>
      <trkpt lat="47.5093" lon="6.77699">
        <ele>315</ele>
        <time>2016-02-14T10:24:45.000Z</time>
      </trkpt>
      <trkpt lat="47.50932" lon="6.77699">
        <ele>315</ele>
        <time>2016-02-14T10:24:46.000Z</time>
      </trkpt>
      <trkpt lat="47.50936" lon="6.77698">
        <ele>315</ele>
        <time>2016-02-14T10:24:48.000Z</time>
      </trkpt>
      <trkpt lat="47.50939" lon="6.77697">
        <ele>315</ele>
        <time>2016-02-14T10:24:49.000Z</time>
      </trkpt>
      <trkpt lat="47.50942" lon="6.77697">
        <ele>315</ele>
        <time>2016-02-14T10:24:50.000Z</time>
      </trkpt>
      <trkpt lat="47.50946" lon="6.77697">
        <ele>315</ele>
        <time>2016-02-14T10:24:51.000Z</time>
      </trkpt>
      <trkpt lat="47.50949" lon="6.77697">
        <ele>315</ele>
        <time>2016-02-14T10:24:52.000Z</time>
      </trkpt>
      <trkpt lat="47.50952" lon="6.77698">
        <ele>315</ele>
        <time>2016-02-14T10:24:53.000Z</time>
      </trkpt>
      <trkpt lat="47.50954" lon="6.77703">
        <ele>315</ele>
        <time>2016-02-14T10:24:55.000Z</time>
      </trkpt>
      <trkpt lat="47.50954" lon="6.77706">
        <ele>315</ele>
        <time>2016-02-14T10:24:56.000Z</time>
      </trkpt>
      <trkpt lat="47.50954" lon="6.77709">
        <ele>315</ele>
        <time>2016-02-14T10:24:57.000Z</time>
      </trkpt>
      <trkpt lat="47.50955" lon="6.77713">
        <ele>315</ele>
        <time>2016-02-14T10:24:58.000Z</time>
      </trkpt>
      <trkpt lat="47.50956" lon="6.77716">
        <ele>315</ele>
        <time>2016-02-14T10:24:59.000Z</time>
      </trkpt>
      <trkpt lat="47.50958" lon="6.7772">
        <ele>315</ele>
        <time>2016-02-14T10:25:00.000Z</time>
      </trkpt>
      <trkpt lat="47.5096" lon="6.77724">
        <ele>315</ele>
        <time>2016-02-14T10:25:01.000Z</time>
      </trkpt>
      <trkpt lat="47.50963" lon="6.77728">
        <ele>315</ele>
        <time>2016-02-14T10:25:02.000Z</time>
      </trkpt>
      <trkpt lat="47.50966" lon="6.77731">
        <ele>315</ele>
        <time>2016-02-14T10:25:03.000Z</time>
      </trkpt>
      <trkpt lat="47.50968" lon="6.77734">
        <ele>315</ele>
        <time>2016-02-14T10:25:04.000Z</time>
      </trkpt>
      <trkpt lat="47.5097" lon="6.77737">
        <ele>315</ele>
        <time>2016-02-14T10:25:05.000Z</time>
      </trkpt>
      <trkpt lat="47.50972" lon="6.7774">
        <ele>315</ele>
        <time>2016-02-14T10:25:06.000Z</time>
      </trkpt>
      <trkpt lat="47.50974" lon="6.77743">
        <ele>315</ele>
        <time>2016-02-14T10:25:07.000Z</time>
      </trkpt>
      <trkpt lat="47.50976" lon="6.77746">
        <ele>315</ele>
        <time>2016-02-14T10:25:08.000Z</time>
      </trkpt>
      <trkpt lat="47.50978" lon="6.77748">
        <ele>316</ele>
        <time>2016-02-14T10:25:09.000Z</time>
      </trkpt>
      <trkpt lat="47.5098" lon="6.7775">
        <ele>316</ele>
        <time>2016-02-14T10:25:10.000Z</time>
      </trkpt>
      <trkpt lat="47.50982" lon="6.77752">
        <ele>316</ele>
        <time>2016-02-14T10:25:11.000Z</time>
      </trkpt>
      <trkpt lat="47.50985" lon="6.77754">
        <ele>316</ele>
        <time>2016-02-14T10:25:12.000Z</time>
      </trkpt>
      <trkpt lat="47.50987" lon="6.77756">
        <ele>316</ele>
        <time>2016-02-14T10:25:13.000Z</time>
      </trkpt>
      <trkpt lat="47.5099" lon="6.77758">
        <ele>316</ele>
        <time>2016-02-14T10:25:14.000Z</time>
      </trkpt>
      <trkpt lat="47.50994" lon="6.7776">
        <ele>316</ele>
        <time>2016-02-14T10:25:15.000Z</time>
      </trkpt>
      <trkpt lat="47.50997" lon="6.77762">
        <ele>316</ele>
        <time>2016-02-14T10:25:16.000Z</time>
      </trkpt>
      <trkpt lat="47.51" lon="6.77763">
        <ele>317</ele>
        <time>2016-02-14T10:25:17.000Z</time>
      </trkpt>
      <trkpt lat="47.51004" lon="6.77765">
        <ele>317</ele>
        <time>2016-02-14T10:25:18.000Z</time>
      </trkpt>
      <trkpt lat="47.51009" lon="6.77766">
        <ele>317</ele>
        <time>2016-02-14T10:25:19.000Z</time>
      </trkpt>
      <trkpt lat="47.51014" lon="6.77767">
        <ele>317</ele>
        <time>2016-02-14T10:25:20.000Z</time>
      </trkpt>
      <trkpt lat="47.51018" lon="6.77767">
        <ele>317</ele>
        <time>2016-02-14T10:25:21.000Z</time>
      </trkpt>
      <trkpt lat="47.51022" lon="6.77767">
        <ele>317</ele>
        <time>2016-02-14T10:25:22.000Z</time>
      </trkpt>
      <trkpt lat="47.51027" lon="6.77768">
        <ele>317</ele>
        <time>2016-02-14T10:25:23.000Z</time>
      </trkpt>
      <trkpt lat="47.51034" lon="6.77769">
        <ele>318</ele>
        <time>2016-02-14T10:25:24.000Z</time>
      </trkpt>
      <trkpt lat="47.51039" lon="6.77771">
        <ele>318</ele>
        <time>2016-02-14T10:25:25.000Z</time>
      </trkpt>
      <trkpt lat="47.51045" lon="6.77773">
        <ele>318</ele>
        <time>2016-02-14T10:25:26.000Z</time>
      </trkpt>
      <trkpt lat="47.51049" lon="6.77775">
        <ele>318</ele>
        <time>2016-02-14T10:25:27.000Z</time>
      </trkpt>
      <trkpt lat="47.51054" lon="6.77777">
        <ele>318</ele>
        <time>2016-02-14T10:25:28.000Z</time>
      </trkpt>
      <trkpt lat="47.51058" lon="6.77778">
        <ele>318</ele>
        <time>2016-02-14T10:25:29.000Z</time>
      </trkpt>
      <trkpt lat="47.51063" lon="6.7778">
        <ele>318</ele>
        <time>2016-02-14T10:25:30.000Z</time>
      </trkpt>
      <trkpt lat="47.51067" lon="6.77781">
        <ele>318</ele>
        <time>2016-02-14T10:25:31.000Z</time>
      </trkpt>
      <trkpt lat="47.51071" lon="6.77782">
        <ele>319</ele>
        <time>2016-02-14T10:25:32.000Z</time>
      </trkpt>
      <trkpt lat="47.51075" lon="6.77783">
        <ele>319</ele>
        <time>2016-02-14T10:25:33.000Z</time>
      </trkpt>
      <trkpt lat="47.5108" lon="6.77784">
        <ele>319</ele>
        <time>2016-02-14T10:25:34.000Z</time>
      </trkpt>
      <trkpt lat="47.51084" lon="6.77784">
        <ele>321</ele>
        <time>2016-02-14T10:25:35.000Z</time>
      </trkpt>
      <trkpt lat="47.51088" lon="6.77785">
        <ele>321</ele>
        <time>2016-02-14T10:25:36.000Z</time>
      </trkpt>
      <trkpt lat="47.51093" lon="6.77786">
        <ele>321</ele>
        <time>2016-02-14T10:25:37.000Z</time>
      </trkpt>
      <trkpt lat="47.51097" lon="6.77787">
        <ele>322</ele>
        <time>2016-02-14T10:25:38.000Z</time>
      </trkpt>
      <trkpt lat="47.51101" lon="6.77787">
        <ele>322</ele>
        <time>2016-02-14T10:25:39.000Z</time>
      </trkpt>
      <trkpt lat="47.51105" lon="6.77788">
        <ele>322</ele>
        <time>2016-02-14T10:25:40.000Z</time>
      </trkpt>
      <trkpt lat="47.51109" lon="6.77788">
        <ele>322</ele>
        <time>2016-02-14T10:25:41.000Z</time>
      </trkpt>
      <trkpt lat="47.51112" lon="6.77789">
        <ele>322</ele>
        <time>2016-02-14T10:25:42.000Z</time>
      </trkpt>
      <trkpt lat="47.51115" lon="6.77789">
        <ele>322</ele>
        <time>2016-02-14T10:25:43.000Z</time>
      </trkpt>
      <trkpt lat="47.51118" lon="6.7779">
        <ele>322</ele>
        <time>2016-02-14T10:25:44.000Z</time>
      </trkpt>
      <trkpt lat="47.51121" lon="6.7779">
        <ele>322</ele>
        <time>2016-02-14T10:25:45.000Z</time>
      </trkpt>
      <trkpt lat="47.51124" lon="6.7779">
        <ele>322</ele>
        <time>2016-02-14T10:25:46.000Z</time>
      </trkpt>
      <trkpt lat="47.51127" lon="6.77791">
        <ele>322</ele>
        <time>2016-02-14T10:25:47.000Z</time>
      </trkpt>
      <trkpt lat="47.51131" lon="6.77791">
        <ele>322</ele>
        <time>2016-02-14T10:25:48.000Z</time>
      </trkpt>
      <trkpt lat="47.51134" lon="6.77792">
        <ele>322</ele>
        <time>2016-02-14T10:25:49.000Z</time>
      </trkpt>
      <trkpt lat="47.51138" lon="6.77792">
        <ele>323</ele>
        <time>2016-02-14T10:25:50.000Z</time>
      </trkpt>
      <trkpt lat="47.51141" lon="6.77792">
        <ele>323</ele>
        <time>2016-02-14T10:25:51.000Z</time>
      </trkpt>
      <trkpt lat="47.51144" lon="6.77792">
        <ele>323</ele>
        <time>2016-02-14T10:25:52.000Z</time>
      </trkpt>
      <trkpt lat="47.51148" lon="6.77792">
        <ele>323</ele>
        <time>2016-02-14T10:25:53.000Z</time>
      </trkpt>
      <trkpt lat="47.51151" lon="6.77792">
        <ele>323</ele>
        <time>2016-02-14T10:25:54.000Z</time>
      </trkpt>
      <trkpt lat="47.51155" lon="6.77791">
        <ele>323</ele>
        <time>2016-02-14T10:25:55.000Z</time>
      </trkpt>
      <trkpt lat="47.51159" lon="6.7779">
        <ele>323</ele>
        <time>2016-02-14T10:25:56.000Z</time>
      </trkpt>
      <trkpt lat="47.51162" lon="6.7779">
        <ele>323</ele>
        <time>2016-02-14T10:25:57.000Z</time>
      </trkpt>
      <trkpt lat="47.51165" lon="6.77789">
        <ele>323</ele>
        <time>2016-02-14T10:25:58.000Z</time>
      </trkpt>
      <trkpt lat="47.51167" lon="6.77788">
        <ele>326</ele>
        <time>2016-02-14T10:25:59.000Z</time>
      </trkpt>
      <trkpt lat="47.5117" lon="6.77787">
        <ele>326</ele>
        <time>2016-02-14T10:26:00.000Z</time>
      </trkpt>
      <trkpt lat="47.51173" lon="6.77787">
        <ele>326</ele>
        <time>2016-02-14T10:26:01.000Z</time>
      </trkpt>
      <trkpt lat="47.51176" lon="6.77786">
        <ele>326</ele>
        <time>2016-02-14T10:26:02.000Z</time>
      </trkpt>
      <trkpt lat="47.5118" lon="6.77786">
        <ele>326</ele>
        <time>2016-02-14T10:26:03.000Z</time>
      </trkpt>
      <trkpt lat="47.51183" lon="6.77786">
        <ele>326</ele>
        <time>2016-02-14T10:26:04.000Z</time>
      </trkpt>
      <trkpt lat="47.51185" lon="6.77785">
        <ele>326</ele>
        <time>2016-02-14T10:26:05.000Z</time>
      </trkpt>
      <trkpt lat="47.51187" lon="6.77784">
        <ele>326</ele>
        <time>2016-02-14T10:26:06.000Z</time>
      </trkpt>
      <trkpt lat="47.51191" lon="6.77783">
        <ele>326</ele>
        <time>2016-02-14T10:26:08.000Z</time>
      </trkpt>
      <trkpt lat="47.51193" lon="6.77782">
        <ele>326</ele>
        <time>2016-02-14T10:26:09.000Z</time>
      </trkpt>
      <trkpt lat="47.51196" lon="6.77782">
        <ele>327</ele>
        <time>2016-02-14T10:26:10.000Z</time>
      </trkpt>
      <trkpt lat="47.51199" lon="6.77782">
        <ele>327</ele>
        <time>2016-02-14T10:26:11.000Z</time>
      </trkpt>
      <trkpt lat="47.51201" lon="6.77782">
        <ele>327</ele>
        <time>2016-02-14T10:26:12.000Z</time>
      </trkpt>
      <trkpt lat="47.51204" lon="6.77782">
        <ele>327</ele>
        <time>2016-02-14T10:26:13.000Z</time>
      </trkpt>
      <trkpt lat="47.51207" lon="6.77781">
        <ele>327</ele>
        <time>2016-02-14T10:26:15.000Z</time>
      </trkpt>
      <trkpt lat="47.51208" lon="6.77781">
        <ele>327</ele>
        <time>2016-02-14T10:26:16.000Z</time>
      </trkpt>
      <trkpt lat="47.51212" lon="6.7778">
        <ele>327</ele>
        <time>2016-02-14T10:26:18.000Z</time>
      </trkpt>
      <trkpt lat="47.51214" lon="6.7778">
        <ele>327</ele>
        <time>2016-02-14T10:26:19.000Z</time>
      </trkpt>
      <trkpt lat="47.51216" lon="6.7778">
        <ele>327</ele>
        <time>2016-02-14T10:26:20.000Z</time>
      </trkpt>
      <trkpt lat="47.51218" lon="6.7778">
        <ele>327</ele>
        <time>2016-02-14T10:26:21.000Z</time>
      </trkpt>
      <trkpt lat="47.51221" lon="6.7778">
        <ele>327</ele>
        <time>2016-02-14T10:26:22.000Z</time>
      </trkpt>
      <trkpt lat="47.51224" lon="6.7778">
        <ele>327</ele>
        <time>2016-02-14T10:26:23.000Z</time>
      </trkpt>
      <trkpt lat="47.51227" lon="6.77779">
        <ele>327</ele>
        <time>2016-02-14T10:26:24.000Z</time>
      </trkpt>
      <trkpt lat="47.51229" lon="6.77779">
        <ele>328</ele>
        <time>2016-02-14T10:26:25.000Z</time>
      </trkpt>
      <trkpt lat="47.51232" lon="6.77779">
        <ele>328</ele>
        <time>2016-02-14T10:26:26.000Z</time>
      </trkpt>
      <trkpt lat="47.51235" lon="6.77779">
        <ele>328</ele>
        <time>2016-02-14T10:26:27.000Z</time>
      </trkpt>
      <trkpt lat="47.51237" lon="6.77779">
        <ele>328</ele>
        <time>2016-02-14T10:26:28.000Z</time>
      </trkpt>
      <trkpt lat="47.5124" lon="6.77779">
        <ele>328</ele>
        <time>2016-02-14T10:26:29.000Z</time>
      </trkpt>
      <trkpt lat="47.51242" lon="6.7778">
        <ele>328</ele>
        <time>2016-02-14T10:26:30.000Z</time>
      </trkpt>
      <trkpt lat="47.51245" lon="6.77781">
        <ele>328</ele>
        <time>2016-02-14T10:26:31.000Z</time>
      </trkpt>
      <trkpt lat="47.51247" lon="6.77782">
        <ele>328</ele>
        <time>2016-02-14T10:26:32.000Z</time>
      </trkpt>
      <trkpt lat="47.51249" lon="6.77783">
        <ele>328</ele>
        <time>2016-02-14T10:26:33.000Z</time>
      </trkpt>
      <trkpt lat="47.51251" lon="6.77784">
        <ele>334</ele>
        <time>2016-02-14T10:26:34.000Z</time>
      </trkpt>
      <trkpt lat="47.51254" lon="6.77785">
        <ele>334</ele>
        <time>2016-02-14T10:26:35.000Z</time>
      </trkpt>
      <trkpt lat="47.51257" lon="6.77786">
        <ele>334</ele>
        <time>2016-02-14T10:26:36.000Z</time>
      </trkpt>
      <trkpt lat="47.51259" lon="6.77787">
        <ele>334</ele>
        <time>2016-02-14T10:26:37.000Z</time>
      </trkpt>
      <trkpt lat="47.51262" lon="6.77788">
        <ele>334</ele>
        <time>2016-02-14T10:26:38.000Z</time>
      </trkpt>
      <trkpt lat="47.51265" lon="6.77788">
        <ele>334</ele>
        <time>2016-02-14T10:26:39.000Z</time>
      </trkpt>
      <trkpt lat="47.51268" lon="6.77788">
        <ele>334</ele>
        <time>2016-02-14T10:26:40.000Z</time>
      </trkpt>
      <trkpt lat="47.51271" lon="6.77788">
        <ele>335</ele>
        <time>2016-02-14T10:26:41.000Z</time>
      </trkpt>
      <trkpt lat="47.51274" lon="6.77787">
        <ele>335</ele>
        <time>2016-02-14T10:26:42.000Z</time>
      </trkpt>
      <trkpt lat="47.51277" lon="6.77786">
        <ele>335</ele>
        <time>2016-02-14T10:26:43.000Z</time>
      </trkpt>
      <trkpt lat="47.5128" lon="6.77786">
        <ele>335</ele>
        <time>2016-02-14T10:26:44.000Z</time>
      </trkpt>
      <trkpt lat="47.51283" lon="6.77785">
        <ele>335</ele>
        <time>2016-02-14T10:26:45.000Z</time>
      </trkpt>
      <trkpt lat="47.51286" lon="6.77784">
        <ele>336</ele>
        <time>2016-02-14T10:26:46.000Z</time>
      </trkpt>
      <trkpt lat="47.51288" lon="6.77783">
        <ele>336</ele>
        <time>2016-02-14T10:26:47.000Z</time>
      </trkpt>
      <trkpt lat="47.51291" lon="6.77782">
        <ele>336</ele>
        <time>2016-02-14T10:26:48.000Z</time>
      </trkpt>
      <trkpt lat="47.51294" lon="6.77781">
        <ele>336</ele>
        <time>2016-02-14T10:26:49.000Z</time>
      </trkpt>
      <trkpt lat="47.51297" lon="6.7778">
        <ele>337</ele>
        <time>2016-02-14T10:26:50.000Z</time>
      </trkpt>
      <trkpt lat="47.513" lon="6.77779">
        <ele>337</ele>
        <time>2016-02-14T10:26:51.000Z</time>
      </trkpt>
      <trkpt lat="47.51302" lon="6.77778">
        <ele>337</ele>
        <time>2016-02-14T10:26:52.000Z</time>
      </trkpt>
      <trkpt lat="47.51305" lon="6.77778">
        <ele>337</ele>
        <time>2016-02-14T10:26:53.000Z</time>
      </trkpt>
      <trkpt lat="47.51307" lon="6.77777">
        <ele>338</ele>
        <time>2016-02-14T10:26:54.000Z</time>
      </trkpt>
      <trkpt lat="47.5131" lon="6.77776">
        <ele>338</ele>
        <time>2016-02-14T10:26:55.000Z</time>
      </trkpt>
      <trkpt lat="47.51312" lon="6.77776">
        <ele>338</ele>
        <time>2016-02-14T10:26:56.000Z</time>
      </trkpt>
      <trkpt lat="47.51315" lon="6.77776">
        <ele>338</ele>
        <time>2016-02-14T10:26:57.000Z</time>
      </trkpt>
      <trkpt lat="47.51319" lon="6.77777">
        <ele>338</ele>
        <time>2016-02-14T10:26:59.000Z</time>
      </trkpt>
      <trkpt lat="47.51321" lon="6.77777">
        <ele>339</ele>
        <time>2016-02-14T10:27:00.000Z</time>
      </trkpt>
      <trkpt lat="47.51323" lon="6.77777">
        <ele>339</ele>
        <time>2016-02-14T10:27:01.000Z</time>
      </trkpt>
      <trkpt lat="47.51327" lon="6.77777">
        <ele>339</ele>
        <time>2016-02-14T10:27:02.000Z</time>
      </trkpt>
      <trkpt lat="47.5133" lon="6.77778">
        <ele>339</ele>
        <time>2016-02-14T10:27:03.000Z</time>
      </trkpt>
      <trkpt lat="47.51332" lon="6.77778">
        <ele>339</ele>
        <time>2016-02-14T10:27:04.000Z</time>
      </trkpt>
      <trkpt lat="47.51336" lon="6.77778">
        <ele>348</ele>
        <time>2016-02-14T10:27:06.000Z</time>
      </trkpt>
      <trkpt lat="47.51338" lon="6.77777">
        <ele>348</ele>
        <time>2016-02-14T10:27:07.000Z</time>
      </trkpt>
      <trkpt lat="47.51342" lon="6.77776">
        <ele>348</ele>
        <time>2016-02-14T10:27:09.000Z</time>
      </trkpt>
      <trkpt lat="47.51344" lon="6.77775">
        <ele>348</ele>
        <time>2016-02-14T10:27:10.000Z</time>
      </trkpt>
      <trkpt lat="47.51348" lon="6.77773">
        <ele>348</ele>
        <time>2016-02-14T10:27:12.000Z</time>
      </trkpt>
      <trkpt lat="47.5135" lon="6.77771">
        <ele>348</ele>
        <time>2016-02-14T10:27:13.000Z</time>
      </trkpt>
      <trkpt lat="47.51354" lon="6.77768">
        <ele>349</ele>
        <time>2016-02-14T10:27:15.000Z</time>
      </trkpt>
      <trkpt lat="47.51356" lon="6.77766">
        <ele>349</ele>
        <time>2016-02-14T10:27:16.000Z</time>
      </trkpt>
      <trkpt lat="47.51357" lon="6.77764">
        <ele>349</ele>
        <time>2016-02-14T10:27:17.000Z</time>
      </trkpt>
      <trkpt lat="47.51359" lon="6.77762">
        <ele>349</ele>
        <time>2016-02-14T10:27:18.000Z</time>
      </trkpt>
      <trkpt lat="47.51363" lon="6.77758">
        <ele>349</ele>
        <time>2016-02-14T10:27:20.000Z</time>
      </trkpt>
      <trkpt lat="47.51365" lon="6.77758">
        <ele>349</ele>
        <time>2016-02-14T10:27:21.000Z</time>
      </trkpt>
      <trkpt lat="47.51369" lon="6.77757">
        <ele>350</ele>
        <time>2016-02-14T10:27:23.000Z</time>
      </trkpt>
      <trkpt lat="47.51371" lon="6.77757">
        <ele>350</ele>
        <time>2016-02-14T10:27:24.000Z</time>
      </trkpt>
      <trkpt lat="47.51374" lon="6.77757">
        <ele>351</ele>
        <time>2016-02-14T10:27:26.000Z</time>
      </trkpt>
      <trkpt lat="47.51376" lon="6.77756">
        <ele>351</ele>
        <time>2016-02-14T10:27:27.000Z</time>
      </trkpt>
      <trkpt lat="47.5138" lon="6.77754">
        <ele>351</ele>
        <time>2016-02-14T10:27:29.000Z</time>
      </trkpt>
      <trkpt lat="47.51381" lon="6.77753">
        <ele>352</ele>
        <time>2016-02-14T10:27:30.000Z</time>
      </trkpt>
      <trkpt lat="47.51385" lon="6.77751">
        <ele>352</ele>
        <time>2016-02-14T10:27:33.000Z</time>
      </trkpt>
      <trkpt lat="47.51386" lon="6.7775">
        <ele>352</ele>
        <time>2016-02-14T10:27:34.000Z</time>
      </trkpt>
      <trkpt lat="47.51389" lon="6.77749">
        <ele>355</ele>
        <time>2016-02-14T10:27:36.000Z</time>
      </trkpt>
      <trkpt lat="47.51391" lon="6.77748">
        <ele>355</ele>
        <time>2016-02-14T10:27:37.000Z</time>
      </trkpt>
      <trkpt lat="47.51394" lon="6.77746">
        <ele>355</ele>
        <time>2016-02-14T10:27:39.000Z</time>
      </trkpt>
      <trkpt lat="47.51395" lon="6.77745">
        <ele>355</ele>
        <time>2016-02-14T10:27:40.000Z</time>
      </trkpt>
      <trkpt lat="47.51397" lon="6.77744">
        <ele>356</ele>
        <time>2016-02-14T10:27:41.000Z</time>
      </trkpt>
      <trkpt lat="47.51399" lon="6.77742">
        <ele>356</ele>
        <time>2016-02-14T10:27:42.000Z</time>
      </trkpt>
      <trkpt lat="47.51401" lon="6.77741">
        <ele>356</ele>
        <time>2016-02-14T10:27:43.000Z</time>
      </trkpt>
      <trkpt lat="47.51403" lon="6.77739">
        <ele>356</ele>
        <time>2016-02-14T10:27:44.000Z</time>
      </trkpt>
      <trkpt lat="47.51407" lon="6.77738">
        <ele>356</ele>
        <time>2016-02-14T10:27:46.000Z</time>
      </trkpt>
      <trkpt lat="47.51409" lon="6.77737">
        <ele>356</ele>
        <time>2016-02-14T10:27:47.000Z</time>
      </trkpt>
      <trkpt lat="47.51411" lon="6.77737">
        <ele>356</ele>
        <time>2016-02-14T10:27:48.000Z</time>
      </trkpt>
      <trkpt lat="47.51414" lon="6.77737">
        <ele>356</ele>
        <time>2016-02-14T10:27:49.000Z</time>
      </trkpt>
      <trkpt lat="47.51416" lon="6.77736">
        <ele>356</ele>
        <time>2016-02-14T10:27:50.000Z</time>
      </trkpt>
      <trkpt lat="47.51419" lon="6.77736">
        <ele>361</ele>
        <time>2016-02-14T10:27:51.000Z</time>
      </trkpt>
      <trkpt lat="47.51421" lon="6.77735">
        <ele>361</ele>
        <time>2016-02-14T10:27:52.000Z</time>
      </trkpt>
      <trkpt lat="47.51424" lon="6.77734">
        <ele>361</ele>
        <time>2016-02-14T10:27:53.000Z</time>
      </trkpt>
      <trkpt lat="47.51427" lon="6.77734">
        <ele>362</ele>
        <time>2016-02-14T10:27:54.000Z</time>
      </trkpt>
      <trkpt lat="47.51429" lon="6.77733">
        <ele>362</ele>
        <time>2016-02-14T10:27:55.000Z</time>
      </trkpt>
      <trkpt lat="47.51431" lon="6.77733">
        <ele>362</ele>
        <time>2016-02-14T10:27:56.000Z</time>
      </trkpt>
      <trkpt lat="47.51433" lon="6.77732">
        <ele>363</ele>
        <time>2016-02-14T10:27:57.000Z</time>
      </trkpt>
      <trkpt lat="47.51436" lon="6.77732">
        <ele>363</ele>
        <time>2016-02-14T10:27:58.000Z</time>
      </trkpt>
      <trkpt lat="47.51438" lon="6.77731">
        <ele>363</ele>
        <time>2016-02-14T10:27:59.000Z</time>
      </trkpt>
      <trkpt lat="47.51441" lon="6.7773">
        <ele>364</ele>
        <time>2016-02-14T10:28:01.000Z</time>
      </trkpt>
      <trkpt lat="47.51443" lon="6.77729">
        <ele>364</ele>
        <time>2016-02-14T10:28:02.000Z</time>
      </trkpt>
      <trkpt lat="47.51447" lon="6.77729">
        <ele>364</ele>
        <time>2016-02-14T10:28:04.000Z</time>
      </trkpt>
      <trkpt lat="47.5145" lon="6.77729">
        <ele>365</ele>
        <time>2016-02-14T10:28:05.000Z</time>
      </trkpt>
      <trkpt lat="47.51454" lon="6.7773">
        <ele>365</ele>
        <time>2016-02-14T10:28:07.000Z</time>
      </trkpt>
      <trkpt lat="47.51456" lon="6.7773">
        <ele>365</ele>
        <time>2016-02-14T10:28:08.000Z</time>
      </trkpt>
      <trkpt lat="47.51459" lon="6.7773">
        <ele>365</ele>
        <time>2016-02-14T10:28:10.000Z</time>
      </trkpt>
      <trkpt lat="47.51461" lon="6.77729">
        <ele>365</ele>
        <time>2016-02-14T10:28:11.000Z</time>
      </trkpt>
      <trkpt lat="47.51464" lon="6.77728">
        <ele>365</ele>
        <time>2016-02-14T10:28:13.000Z</time>
      </trkpt>
      <trkpt lat="47.51466" lon="6.77727">
        <ele>366</ele>
        <time>2016-02-14T10:28:14.000Z</time>
      </trkpt>
      <trkpt lat="47.5147" lon="6.77725">
        <ele>366</ele>
        <time>2016-02-14T10:28:16.000Z</time>
      </trkpt>
      <trkpt lat="47.51472" lon="6.77725">
        <ele>366</ele>
        <time>2016-02-14T10:28:17.000Z</time>
      </trkpt>
      <trkpt lat="47.51475" lon="6.77726">
        <ele>366</ele>
        <time>2016-02-14T10:28:19.000Z</time>
      </trkpt>
      <trkpt lat="47.51477" lon="6.77726">
        <ele>366</ele>
        <time>2016-02-14T10:28:20.000Z</time>
      </trkpt>
      <trkpt lat="47.51481" lon="6.77727">
        <ele>366</ele>
        <time>2016-02-14T10:28:22.000Z</time>
      </trkpt>
      <trkpt lat="47.51483" lon="6.77727">
        <ele>366</ele>
        <time>2016-02-14T10:28:23.000Z</time>
      </trkpt>
      <trkpt lat="47.51487" lon="6.77726">
        <ele>366</ele>
        <time>2016-02-14T10:28:25.000Z</time>
      </trkpt>
      <trkpt lat="47.51489" lon="6.77726">
        <ele>366</ele>
        <time>2016-02-14T10:28:26.000Z</time>
      </trkpt>
      <trkpt lat="47.51492" lon="6.77725">
        <ele>366</ele>
        <time>2016-02-14T10:28:28.000Z</time>
      </trkpt>
      <trkpt lat="47.51493" lon="6.77724">
        <ele>366</ele>
        <time>2016-02-14T10:28:29.000Z</time>
      </trkpt>
      <trkpt lat="47.51496" lon="6.77723">
        <ele>366</ele>
        <time>2016-02-14T10:28:31.000Z</time>
      </trkpt>
      <trkpt lat="47.51498" lon="6.77722">
        <ele>366</ele>
        <time>2016-02-14T10:28:32.000Z</time>
      </trkpt>
      <trkpt lat="47.51501" lon="6.77721">
        <ele>371</ele>
        <time>2016-02-14T10:28:34.000Z</time>
      </trkpt>
      <trkpt lat="47.51502" lon="6.77721">
        <ele>371</ele>
        <time>2016-02-14T10:28:35.000Z</time>
      </trkpt>
      <trkpt lat="47.51506" lon="6.7772">
        <ele>371</ele>
        <time>2016-02-14T10:28:37.000Z</time>
      </trkpt>
      <trkpt lat="47.51508" lon="6.7772">
        <ele>371</ele>
        <time>2016-02-14T10:28:38.000Z</time>
      </trkpt>
      <trkpt lat="47.51513" lon="6.77719">
        <ele>371</ele>
        <time>2016-02-14T10:28:40.000Z</time>
      </trkpt>
      <trkpt lat="47.51514" lon="6.77719">
        <ele>372</ele>
        <time>2016-02-14T10:28:41.000Z</time>
      </trkpt>
      <trkpt lat="47.51518" lon="6.77718">
        <ele>372</ele>
        <time>2016-02-14T10:28:43.000Z</time>
      </trkpt>
      <trkpt lat="47.5152" lon="6.77718">
        <ele>372</ele>
        <time>2016-02-14T10:28:44.000Z</time>
      </trkpt>
      <trkpt lat="47.51523" lon="6.7772">
        <ele>372</ele>
        <time>2016-02-14T10:28:46.000Z</time>
      </trkpt>
      <trkpt lat="47.51525" lon="6.7772">
        <ele>372</ele>
        <time>2016-02-14T10:28:47.000Z</time>
      </trkpt>
      <trkpt lat="47.51529" lon="6.77722">
        <ele>372</ele>
        <time>2016-02-14T10:28:49.000Z</time>
      </trkpt>
      <trkpt lat="47.51531" lon="6.77723">
        <ele>372</ele>
        <time>2016-02-14T10:28:50.000Z</time>
      </trkpt>
      <trkpt lat="47.51534" lon="6.77723">
        <ele>373</ele>
        <time>2016-02-14T10:28:51.000Z</time>
      </trkpt>
      <trkpt lat="47.51536" lon="6.77724">
        <ele>373</ele>
        <time>2016-02-14T10:28:52.000Z</time>
      </trkpt>
      <trkpt lat="47.51538" lon="6.77724">
        <ele>373</ele>
        <time>2016-02-14T10:28:53.000Z</time>
      </trkpt>
      <trkpt lat="47.5154" lon="6.77725">
        <ele>373</ele>
        <time>2016-02-14T10:28:54.000Z</time>
      </trkpt>
      <trkpt lat="47.51543" lon="6.77725">
        <ele>373</ele>
        <time>2016-02-14T10:28:55.000Z</time>
      </trkpt>
      <trkpt lat="47.51545" lon="6.77726">
        <ele>373</ele>
        <time>2016-02-14T10:28:56.000Z</time>
      </trkpt>
      <trkpt lat="47.51548" lon="6.77726">
        <ele>374</ele>
        <time>2016-02-14T10:28:57.000Z</time>
      </trkpt>
      <trkpt lat="47.5155" lon="6.77726">
        <ele>374</ele>
        <time>2016-02-14T10:28:58.000Z</time>
      </trkpt>
      <trkpt lat="47.51552" lon="6.77726">
        <ele>374</ele>
        <time>2016-02-14T10:28:59.000Z</time>
      </trkpt>
      <trkpt lat="47.51554" lon="6.77727">
        <ele>374</ele>
        <time>2016-02-14T10:29:00.000Z</time>
      </trkpt>
      <trkpt lat="47.51559" lon="6.77727">
        <ele>374</ele>
        <time>2016-02-14T10:29:02.000Z</time>
      </trkpt>
      <trkpt lat="47.51561" lon="6.77727">
        <ele>374</ele>
        <time>2016-02-14T10:29:03.000Z</time>
      </trkpt>
      <trkpt lat="47.51564" lon="6.77729">
        <ele>374</ele>
        <time>2016-02-14T10:29:05.000Z</time>
      </trkpt>
      <trkpt lat="47.51566" lon="6.77729">
        <ele>375</ele>
        <time>2016-02-14T10:29:06.000Z</time>
      </trkpt>
      <trkpt lat="47.51569" lon="6.77731">
        <ele>375</ele>
        <time>2016-02-14T10:29:08.000Z</time>
      </trkpt>
      <trkpt lat="47.5157" lon="6.77732">
        <ele>375</ele>
        <time>2016-02-14T10:29:09.000Z</time>
      </trkpt>
      <trkpt lat="47.51574" lon="6.77733">
        <ele>375</ele>
        <time>2016-02-14T10:29:12.000Z</time>
      </trkpt>
      <trkpt lat="47.51576" lon="6.77734">
        <ele>375</ele>
        <time>2016-02-14T10:29:13.000Z</time>
      </trkpt>
      <trkpt lat="47.51579" lon="6.77737">
        <ele>375</ele>
        <time>2016-02-14T10:29:16.000Z</time>
      </trkpt>
      <trkpt lat="47.5158" lon="6.77739">
        <ele>375</ele>
        <time>2016-02-14T10:29:17.000Z</time>
      </trkpt>
      <trkpt lat="47.51582" lon="6.77742">
        <ele>375</ele>
        <time>2016-02-14T10:29:18.000Z</time>
      </trkpt>
      <trkpt lat="47.51583" lon="6.77745">
        <ele>376</ele>
        <time>2016-02-14T10:29:19.000Z</time>
      </trkpt>
      <trkpt lat="47.51585" lon="6.77747">
        <ele>377</ele>
        <time>2016-02-14T10:29:20.000Z</time>
      </trkpt>
      <trkpt lat="47.51587" lon="6.77749">
        <ele>377</ele>
        <time>2016-02-14T10:29:21.000Z</time>
      </trkpt>
      <trkpt lat="47.51591" lon="6.77752">
        <ele>378</ele>
        <time>2016-02-14T10:29:23.000Z</time>
      </trkpt>
      <trkpt lat="47.51592" lon="6.77752">
        <ele>378</ele>
        <time>2016-02-14T10:29:24.000Z</time>
      </trkpt>
      <trkpt lat="47.51596" lon="6.77753">
        <ele>379</ele>
        <time>2016-02-14T10:29:26.000Z</time>
      </trkpt>
      <trkpt lat="47.51598" lon="6.77753">
        <ele>379</ele>
        <time>2016-02-14T10:29:27.000Z</time>
      </trkpt>
      <trkpt lat="47.51602" lon="6.77753">
        <ele>379</ele>
        <time>2016-02-14T10:29:29.000Z</time>
      </trkpt>
      <trkpt lat="47.51604" lon="6.77753">
        <ele>380</ele>
        <time>2016-02-14T10:29:30.000Z</time>
      </trkpt>
      <trkpt lat="47.51607" lon="6.77753">
        <ele>380</ele>
        <time>2016-02-14T10:29:31.000Z</time>
      </trkpt>
      <trkpt lat="47.51609" lon="6.77754">
        <ele>380</ele>
        <time>2016-02-14T10:29:32.000Z</time>
      </trkpt>
      <trkpt lat="47.51611" lon="6.77754">
        <ele>380</ele>
        <time>2016-02-14T10:29:33.000Z</time>
      </trkpt>
      <trkpt lat="47.51614" lon="6.77755">
        <ele>381</ele>
        <time>2016-02-14T10:29:34.000Z</time>
      </trkpt>
      <trkpt lat="47.51616" lon="6.77756">
        <ele>381</ele>
        <time>2016-02-14T10:29:35.000Z</time>
      </trkpt>
      <trkpt lat="47.51618" lon="6.77756">
        <ele>381</ele>
        <time>2016-02-14T10:29:36.000Z</time>
      </trkpt>
      <trkpt lat="47.51621" lon="6.77757">
        <ele>381</ele>
        <time>2016-02-14T10:29:37.000Z</time>
      </trkpt>
      <trkpt lat="47.51623" lon="6.77757">
        <ele>381</ele>
        <time>2016-02-14T10:29:38.000Z</time>
      </trkpt>
      <trkpt lat="47.51626" lon="6.77757">
        <ele>381</ele>
        <time>2016-02-14T10:29:39.000Z</time>
      </trkpt>
      <trkpt lat="47.51628" lon="6.77757">
        <ele>382</ele>
        <time>2016-02-14T10:29:40.000Z</time>
      </trkpt>
      <trkpt lat="47.51632" lon="6.77757">
        <ele>382</ele>
        <time>2016-02-14T10:29:42.000Z</time>
      </trkpt>
      <trkpt lat="47.51634" lon="6.77757">
        <ele>382</ele>
        <time>2016-02-14T10:29:43.000Z</time>
      </trkpt>
      <trkpt lat="47.51638" lon="6.77758">
        <ele>382</ele>
        <time>2016-02-14T10:29:45.000Z</time>
      </trkpt>
      <trkpt lat="47.5164" lon="6.77758">
        <ele>382</ele>
        <time>2016-02-14T10:29:46.000Z</time>
      </trkpt>
      <trkpt lat="47.51643" lon="6.77759">
        <ele>382</ele>
        <time>2016-02-14T10:29:48.000Z</time>
      </trkpt>
      <trkpt lat="47.51645" lon="6.77759">
        <ele>382</ele>
        <time>2016-02-14T10:29:49.000Z</time>
      </trkpt>
      <trkpt lat="47.5165" lon="6.77761">
        <ele>383</ele>
        <time>2016-02-14T10:29:51.000Z</time>
      </trkpt>
      <trkpt lat="47.51652" lon="6.77761">
        <ele>383</ele>
        <time>2016-02-14T10:29:52.000Z</time>
      </trkpt>
      <trkpt lat="47.51654" lon="6.77762">
        <ele>383</ele>
        <time>2016-02-14T10:29:53.000Z</time>
      </trkpt>
      <trkpt lat="47.51656" lon="6.77762">
        <ele>383</ele>
        <time>2016-02-14T10:29:54.000Z</time>
      </trkpt>
      <trkpt lat="47.51659" lon="6.77761">
        <ele>383</ele>
        <time>2016-02-14T10:29:55.000Z</time>
      </trkpt>
      <trkpt lat="47.51661" lon="6.77761">
        <ele>383</ele>
        <time>2016-02-14T10:29:56.000Z</time>
      </trkpt>
      <trkpt lat="47.51664" lon="6.77761">
        <ele>383</ele>
        <time>2016-02-14T10:29:57.000Z</time>
      </trkpt>
      <trkpt lat="47.51666" lon="6.77761">
        <ele>383</ele>
        <time>2016-02-14T10:29:58.000Z</time>
      </trkpt>
      <trkpt lat="47.51668" lon="6.77761">
        <ele>384</ele>
        <time>2016-02-14T10:29:59.000Z</time>
      </trkpt>
      <trkpt lat="47.51671" lon="6.77761">
        <ele>384</ele>
        <time>2016-02-14T10:30:00.000Z</time>
      </trkpt>
      <trkpt lat="47.51675" lon="6.77762">
        <ele>384</ele>
        <time>2016-02-14T10:30:02.000Z</time>
      </trkpt>
      <trkpt lat="47.51677" lon="6.77762">
        <ele>385</ele>
        <time>2016-02-14T10:30:03.000Z</time>
      </trkpt>
      <trkpt lat="47.5168" lon="6.77762">
        <ele>385</ele>
        <time>2016-02-14T10:30:04.000Z</time>
      </trkpt>
      <trkpt lat="47.51682" lon="6.77762">
        <ele>385</ele>
        <time>2016-02-14T10:30:05.000Z</time>
      </trkpt>
      <trkpt lat="47.51684" lon="6.77762">
        <ele>385</ele>
        <time>2016-02-14T10:30:06.000Z</time>
      </trkpt>
      <trkpt lat="47.51687" lon="6.77762">
        <ele>385</ele>
        <time>2016-02-14T10:30:07.000Z</time>
      </trkpt>
      <trkpt lat="47.51689" lon="6.77762">
        <ele>385</ele>
        <time>2016-02-14T10:30:08.000Z</time>
      </trkpt>
      <trkpt lat="47.51691" lon="6.77762">
        <ele>385</ele>
        <time>2016-02-14T10:30:09.000Z</time>
      </trkpt>
      <trkpt lat="47.51695" lon="6.77759">
        <ele>385</ele>
        <time>2016-02-14T10:30:11.000Z</time>
      </trkpt>
      <trkpt lat="47.51696" lon="6.77756">
        <ele>385</ele>
        <time>2016-02-14T10:30:12.000Z</time>
      </trkpt>
      <trkpt lat="47.51697" lon="6.7775">
        <ele>385</ele>
        <time>2016-02-14T10:30:14.000Z</time>
      </trkpt>
      <trkpt lat="47.51698" lon="6.77747">
        <ele>386</ele>
        <time>2016-02-14T10:30:15.000Z</time>
      </trkpt>
      <trkpt lat="47.51699" lon="6.77742">
        <ele>386</ele>
        <time>2016-02-14T10:30:19.000Z</time>
      </trkpt>
      <trkpt lat="47.51699" lon="6.77739">
        <ele>387</ele>
        <time>2016-02-14T10:30:20.000Z</time>
      </trkpt>
      <trkpt lat="47.51701" lon="6.77733">
        <ele>387</ele>
        <time>2016-02-14T10:30:29.000Z</time>
      </trkpt>
      <trkpt lat="47.51701" lon="6.77733">
        <ele>387</ele>
        <time>2016-02-14T10:30:30.000Z</time>
      </trkpt>
      <trkpt lat="47.51702" lon="6.77727">
        <ele>387</ele>
        <time>2016-02-14T10:30:32.000Z</time>
      </trkpt>
      <trkpt lat="47.51703" lon="6.77725">
        <ele>387</ele>
        <time>2016-02-14T10:30:33.000Z</time>
      </trkpt>
      <trkpt lat="47.51703" lon="6.7772">
        <ele>387</ele>
        <time>2016-02-14T10:30:34.000Z</time>
      </trkpt>
      <trkpt lat="47.51704" lon="6.77716">
        <ele>387</ele>
        <time>2016-02-14T10:30:35.000Z</time>
      </trkpt>
      <trkpt lat="47.51705" lon="6.77712">
        <ele>387</ele>
        <time>2016-02-14T10:30:36.000Z</time>
      </trkpt>
      <trkpt lat="47.51705" lon="6.77709">
        <ele>387</ele>
        <time>2016-02-14T10:30:37.000Z</time>
      </trkpt>
      <trkpt lat="47.51706" lon="6.77705">
        <ele>387</ele>
        <time>2016-02-14T10:30:38.000Z</time>
      </trkpt>
      <trkpt lat="47.51707" lon="6.77702">
        <ele>388</ele>
        <time>2016-02-14T10:30:39.000Z</time>
      </trkpt>
      <trkpt lat="47.51708" lon="6.77699">
        <ele>388</ele>
        <time>2016-02-14T10:30:40.000Z</time>
      </trkpt>
      <trkpt lat="47.51709" lon="6.77696">
        <ele>388</ele>
        <time>2016-02-14T10:30:41.000Z</time>
      </trkpt>
      <trkpt lat="47.5171" lon="6.7769">
        <ele>388</ele>
        <time>2016-02-14T10:30:43.000Z</time>
      </trkpt>
      <trkpt lat="47.51711" lon="6.77687">
        <ele>388</ele>
        <time>2016-02-14T10:30:44.000Z</time>
      </trkpt>
      <trkpt lat="47.51712" lon="6.77684">
        <ele>388</ele>
        <time>2016-02-14T10:30:45.000Z</time>
      </trkpt>
      <trkpt lat="47.51712" lon="6.7768">
        <ele>388</ele>
        <time>2016-02-14T10:30:46.000Z</time>
      </trkpt>
      <trkpt lat="47.51712" lon="6.77676">
        <ele>388</ele>
        <time>2016-02-14T10:30:47.000Z</time>
      </trkpt>
      <trkpt lat="47.51712" lon="6.77673">
        <ele>388</ele>
        <time>2016-02-14T10:30:48.000Z</time>
      </trkpt>
      <trkpt lat="47.51713" lon="6.77668">
        <ele>388</ele>
        <time>2016-02-14T10:30:49.000Z</time>
      </trkpt>
      <trkpt lat="47.51713" lon="6.77663">
        <ele>390</ele>
        <time>2016-02-14T10:30:50.000Z</time>
      </trkpt>
      <trkpt lat="47.51713" lon="6.77658">
        <ele>390</ele>
        <time>2016-02-14T10:30:51.000Z</time>
      </trkpt>
      <trkpt lat="47.51712" lon="6.77653">
        <ele>390</ele>
        <time>2016-02-14T10:30:52.000Z</time>
      </trkpt>
      <trkpt lat="47.51712" lon="6.77649">
        <ele>390</ele>
        <time>2016-02-14T10:30:53.000Z</time>
      </trkpt>
      <trkpt lat="47.51712" lon="6.77645">
        <ele>390</ele>
        <time>2016-02-14T10:30:54.000Z</time>
      </trkpt>
      <trkpt lat="47.51712" lon="6.7764">
        <ele>390</ele>
        <time>2016-02-14T10:30:55.000Z</time>
      </trkpt>
      <trkpt lat="47.51712" lon="6.77636">
        <ele>390</ele>
        <time>2016-02-14T10:30:56.000Z</time>
      </trkpt>
      <trkpt lat="47.51712" lon="6.77631">
        <ele>390</ele>
        <time>2016-02-14T10:30:57.000Z</time>
      </trkpt>
      <trkpt lat="47.51711" lon="6.77627">
        <ele>390</ele>
        <time>2016-02-14T10:30:58.000Z</time>
      </trkpt>
      <trkpt lat="47.51711" lon="6.77623">
        <ele>390</ele>
        <time>2016-02-14T10:30:59.000Z</time>
      </trkpt>
      <trkpt lat="47.51711" lon="6.77618">
        <ele>390</ele>
        <time>2016-02-14T10:31:00.000Z</time>
      </trkpt>
      <trkpt lat="47.51711" lon="6.77614">
        <ele>390</ele>
        <time>2016-02-14T10:31:01.000Z</time>
      </trkpt>
      <trkpt lat="47.5171" lon="6.7761">
        <ele>390</ele>
        <time>2016-02-14T10:31:02.000Z</time>
      </trkpt>
      <trkpt lat="47.5171" lon="6.77607">
        <ele>390</ele>
        <time>2016-02-14T10:31:03.000Z</time>
      </trkpt>
      <trkpt lat="47.51711" lon="6.77603">
        <ele>390</ele>
        <time>2016-02-14T10:31:04.000Z</time>
      </trkpt>
      <trkpt lat="47.51711" lon="6.776">
        <ele>390</ele>
        <time>2016-02-14T10:31:05.000Z</time>
      </trkpt>
      <trkpt lat="47.51712" lon="6.77597">
        <ele>390</ele>
        <time>2016-02-14T10:31:06.000Z</time>
      </trkpt>
      <trkpt lat="47.51715" lon="6.77592">
        <ele>390</ele>
        <time>2016-02-14T10:31:08.000Z</time>
      </trkpt>
      <trkpt lat="47.51717" lon="6.7759">
        <ele>390</ele>
        <time>2016-02-14T10:31:09.000Z</time>
      </trkpt>
      <trkpt lat="47.5172" lon="6.77589">
        <ele>390</ele>
        <time>2016-02-14T10:31:11.000Z</time>
      </trkpt>
      <trkpt lat="47.51721" lon="6.77587">
        <ele>390</ele>
        <time>2016-02-14T10:31:12.000Z</time>
      </trkpt>
      <trkpt lat="47.51721" lon="6.77584">
        <ele>390</ele>
        <time>2016-02-14T10:31:13.000Z</time>
      </trkpt>
      <trkpt lat="47.51721" lon="6.7758">
        <ele>391</ele>
        <time>2016-02-14T10:31:14.000Z</time>
      </trkpt>
      <trkpt lat="47.51719" lon="6.77575">
        <ele>390</ele>
        <time>2016-02-14T10:31:15.000Z</time>
      </trkpt>
      <trkpt lat="47.51718" lon="6.7757">
        <ele>390</ele>
        <time>2016-02-14T10:31:16.000Z</time>
      </trkpt>
      <trkpt lat="47.51717" lon="6.77565">
        <ele>390</ele>
        <time>2016-02-14T10:31:17.000Z</time>
      </trkpt>
      <trkpt lat="47.51718" lon="6.77559">
        <ele>390</ele>
        <time>2016-02-14T10:31:18.000Z</time>
      </trkpt>
      <trkpt lat="47.51719" lon="6.77554">
        <ele>390</ele>
        <time>2016-02-14T10:31:19.000Z</time>
      </trkpt>
      <trkpt lat="47.5172" lon="6.77548">
        <ele>390</ele>
        <time>2016-02-14T10:31:20.000Z</time>
      </trkpt>
      <trkpt lat="47.51722" lon="6.77543">
        <ele>390</ele>
        <time>2016-02-14T10:31:21.000Z</time>
      </trkpt>
      <trkpt lat="47.51723" lon="6.77537">
        <ele>390</ele>
        <time>2016-02-14T10:31:22.000Z</time>
      </trkpt>
      <trkpt lat="47.51725" lon="6.77531">
        <ele>390</ele>
        <time>2016-02-14T10:31:23.000Z</time>
      </trkpt>
      <trkpt lat="47.51726" lon="6.77525">
        <ele>390</ele>
        <time>2016-02-14T10:31:24.000Z</time>
      </trkpt>
      <trkpt lat="47.51727" lon="6.7752">
        <ele>390</ele>
        <time>2016-02-14T10:31:25.000Z</time>
      </trkpt>
      <trkpt lat="47.51728" lon="6.77514">
        <ele>390</ele>
        <time>2016-02-14T10:31:26.000Z</time>
      </trkpt>
      <trkpt lat="47.51729" lon="6.77508">
        <ele>390</ele>
        <time>2016-02-14T10:31:27.000Z</time>
      </trkpt>
      <trkpt lat="47.51731" lon="6.77504">
        <ele>390</ele>
        <time>2016-02-14T10:31:28.000Z</time>
      </trkpt>
      <trkpt lat="47.51732" lon="6.77501">
        <ele>390</ele>
        <time>2016-02-14T10:31:29.000Z</time>
      </trkpt>
      <trkpt lat="47.51735" lon="6.77496">
        <ele>389</ele>
        <time>2016-02-14T10:31:30.000Z</time>
      </trkpt>
      <trkpt lat="47.51738" lon="6.77491">
        <ele>389</ele>
        <time>2016-02-14T10:31:31.000Z</time>
      </trkpt>
      <trkpt lat="47.51741" lon="6.77487">
        <ele>389</ele>
        <time>2016-02-14T10:31:32.000Z</time>
      </trkpt>
      <trkpt lat="47.51744" lon="6.77484">
        <ele>389</ele>
        <time>2016-02-14T10:31:33.000Z</time>
      </trkpt>
      <trkpt lat="47.51748" lon="6.77483">
        <ele>389</ele>
        <time>2016-02-14T10:31:34.000Z</time>
      </trkpt>
      <trkpt lat="47.51752" lon="6.77483">
        <ele>389</ele>
        <time>2016-02-14T10:31:35.000Z</time>
      </trkpt>
      <trkpt lat="47.51756" lon="6.77484">
        <ele>389</ele>
        <time>2016-02-14T10:31:36.000Z</time>
      </trkpt>
      <trkpt lat="47.51759" lon="6.77485">
        <ele>389</ele>
        <time>2016-02-14T10:31:37.000Z</time>
      </trkpt>
      <trkpt lat="47.51763" lon="6.77486">
        <ele>389</ele>
        <time>2016-02-14T10:31:38.000Z</time>
      </trkpt>
      <trkpt lat="47.51766" lon="6.77486">
        <ele>389</ele>
        <time>2016-02-14T10:31:39.000Z</time>
      </trkpt>
      <trkpt lat="47.51771" lon="6.77485">
        <ele>389</ele>
        <time>2016-02-14T10:31:40.000Z</time>
      </trkpt>
      <trkpt lat="47.51775" lon="6.77487">
        <ele>388</ele>
        <time>2016-02-14T10:31:41.000Z</time>
      </trkpt>
      <trkpt lat="47.5178" lon="6.77489">
        <ele>388</ele>
        <time>2016-02-14T10:31:42.000Z</time>
      </trkpt>
      <trkpt lat="47.51783" lon="6.7749">
        <ele>388</ele>
        <time>2016-02-14T10:31:43.000Z</time>
      </trkpt>
      <trkpt lat="47.51785" lon="6.77491">
        <ele>388</ele>
        <time>2016-02-14T10:31:44.000Z</time>
      </trkpt>
      <trkpt lat="47.51789" lon="6.77492">
        <ele>388</ele>
        <time>2016-02-14T10:31:45.000Z</time>
      </trkpt>
      <trkpt lat="47.51793" lon="6.77494">
        <ele>388</ele>
        <time>2016-02-14T10:31:46.000Z</time>
      </trkpt>
      <trkpt lat="47.51796" lon="6.77496">
        <ele>388</ele>
        <time>2016-02-14T10:31:47.000Z</time>
      </trkpt>
      <trkpt lat="47.51798" lon="6.77494">
        <ele>388</ele>
        <time>2016-02-14T10:31:48.000Z</time>
      </trkpt>
      <trkpt lat="47.51798" lon="6.77488">
        <ele>388</ele>
        <time>2016-02-14T10:31:54.000Z</time>
      </trkpt>
      <trkpt lat="47.51797" lon="6.77487">
        <ele>388</ele>
        <time>2016-02-14T10:31:55.000Z</time>
      </trkpt>
      <trkpt lat="47.51795" lon="6.77481">
        <ele>388</ele>
        <time>2016-02-14T10:31:59.000Z</time>
      </trkpt>
      <trkpt lat="47.51795" lon="6.7748">
        <ele>388</ele>
        <time>2016-02-14T10:32:00.000Z</time>
      </trkpt>
      <trkpt lat="47.51798" lon="6.77476">
        <ele>388</ele>
        <time>2016-02-14T10:32:19.000Z</time>
      </trkpt>
      <trkpt lat="47.51798" lon="6.77475">
        <ele>388</ele>
        <time>2016-02-14T10:32:20.000Z</time>
      </trkpt>
      <trkpt lat="47.51802" lon="6.77475">
        <ele>388</ele>
        <time>2016-02-14T10:32:23.000Z</time>
      </trkpt>
      <trkpt lat="47.51803" lon="6.77475">
        <ele>388</ele>
        <time>2016-02-14T10:32:24.000Z</time>
      </trkpt>
      <trkpt lat="47.51803" lon="6.77481">
        <ele>388</ele>
        <time>2016-02-14T10:32:33.000Z</time>
      </trkpt>
      <trkpt lat="47.51802" lon="6.77482">
        <ele>388</ele>
        <time>2016-02-14T10:32:34.000Z</time>
      </trkpt>
      <trkpt lat="47.51799" lon="6.77486">
        <ele>388</ele>
        <time>2016-02-14T10:33:01.000Z</time>
      </trkpt>
      <trkpt lat="47.51798" lon="6.77487">
        <ele>388</ele>
        <time>2016-02-14T10:33:02.000Z</time>
      </trkpt>
      <trkpt lat="47.518" lon="6.77481">
        <ele>388</ele>
        <time>2016-02-14T10:33:49.000Z</time>
      </trkpt>
      <trkpt lat="47.51801" lon="6.7748">
        <ele>388</ele>
        <time>2016-02-14T10:33:50.000Z</time>
      </trkpt>
      <trkpt lat="47.51805" lon="6.77478">
        <ele>388</ele>
        <time>2016-02-14T10:34:01.000Z</time>
      </trkpt>
      <trkpt lat="47.51805" lon="6.77478">
        <ele>388</ele>
        <time>2016-02-14T10:34:02.000Z</time>
      </trkpt>
      <trkpt lat="47.51801" lon="6.77477">
        <ele>388</ele>
        <time>2016-02-14T10:38:25.000Z</time>
      </trkpt>
      <trkpt lat="47.518" lon="6.77477">
        <ele>388</ele>
        <time>2016-02-14T10:38:26.000Z</time>
      </trkpt>
      <trkpt lat="47.51803" lon="6.77482">
        <ele>388</ele>
        <time>2016-02-14T10:39:40.000Z</time>
      </trkpt>
      <trkpt lat="47.51803" lon="6.77483">
        <ele>388</ele>
        <time>2016-02-14T10:39:41.000Z</time>
      </trkpt>
      <trkpt lat="47.51806" lon="6.77481">
        <ele>388</ele>
        <time>2016-02-14T10:44:13.000Z</time>
      </trkpt>
    </trkseg>
  </trk>
</gpx>